<?xml version="1.0" encoding="UTF-8" standalone="no" ?>
<gpx xmlns="http://www.topografix.com/GPX/1/1" xmlns:xsi="http://www.w3.org/2001/XMLSchema-instance" xsi:schemaLocation="http://www.topografix.com/GPX/1/1 http://www.topografix.com/GPX/1/1/gpx.xsd" version="1.1" creator="VisuGPX - https://www.visugpx.com">
  <metadata>
    <name>Echappee Belle 2024 - L'Integrale</name>
    <desc><![CDATA[Parcours créé sur Trace de Trail]]></desc>
  </metadata>
  <trk>
    <name><![CDATA[Echappee Belle 2024 - L'Integrale sur TraceDeTrail.fr]]></name>
    <extensions>
      <line xmlns="http://www.topografix.com/GPX/gpx_style/0/2">
        <color>f1f3f1</color>
        <opacity>1</opacity>
        <width>1</width>
      </line>
    </extensions>
    <trkseg>
      <trkpt lat="45.07122" lon="5.77367">
        <ele>282</ele>
        <time>2024-06-05T18:46:23+00:00</time>
      </trkpt>
      <trkpt lat="45.07122" lon="5.77367">
        <ele>282</ele>
        <time>2024-06-05T18:46:26+00:00</time>
      </trkpt>
      <trkpt lat="45.07121" lon="5.7737">
        <ele>282</ele>
        <time>2024-06-05T18:46:29+00:00</time>
      </trkpt>
      <trkpt lat="45.0712" lon="5.77389">
        <ele>281</ele>
        <time>2024-06-05T18:46:32+00:00</time>
      </trkpt>
      <trkpt lat="45.07116" lon="5.77417">
        <ele>282</ele>
        <time>2024-06-05T18:46:35+00:00</time>
      </trkpt>
      <trkpt lat="45.07112" lon="5.77453">
        <ele>282</ele>
        <time>2024-06-05T18:46:38+00:00</time>
      </trkpt>
      <trkpt lat="45.07111" lon="5.77456">
        <ele>282</ele>
        <time>2024-06-05T18:46:41+00:00</time>
      </trkpt>
      <trkpt lat="45.07108" lon="5.77469">
        <ele>281</ele>
        <time>2024-06-05T18:46:44+00:00</time>
      </trkpt>
      <trkpt lat="45.07103" lon="5.77476">
        <ele>282</ele>
        <time>2024-06-05T18:46:47+00:00</time>
      </trkpt>
      <trkpt lat="45.07087" lon="5.77487">
        <ele>282</ele>
        <time>2024-06-05T18:46:50+00:00</time>
      </trkpt>
      <trkpt lat="45.07072" lon="5.77496">
        <ele>282</ele>
        <time>2024-06-05T18:46:53+00:00</time>
      </trkpt>
      <trkpt lat="45.07055" lon="5.77505">
        <ele>282</ele>
        <time>2024-06-05T18:46:56+00:00</time>
      </trkpt>
      <trkpt lat="45.07047" lon="5.7751">
        <ele>282</ele>
        <time>2024-06-05T18:46:59+00:00</time>
      </trkpt>
      <trkpt lat="45.07045" lon="5.7752">
        <ele>282</ele>
        <time>2024-06-05T18:47:02+00:00</time>
      </trkpt>
      <trkpt lat="45.07048" lon="5.77541">
        <ele>283</ele>
        <time>2024-06-05T18:47:05+00:00</time>
      </trkpt>
      <trkpt lat="45.07057" lon="5.7757">
        <ele>283</ele>
        <time>2024-06-05T18:47:08+00:00</time>
      </trkpt>
      <trkpt lat="45.07082" lon="5.7756">
        <ele>283</ele>
        <time>2024-06-05T18:47:11+00:00</time>
      </trkpt>
      <trkpt lat="45.07125" lon="5.77541">
        <ele>282</ele>
        <time>2024-06-05T18:47:14+00:00</time>
      </trkpt>
      <trkpt lat="45.07145" lon="5.77531">
        <ele>281</ele>
        <time>2024-06-05T18:47:17+00:00</time>
      </trkpt>
      <trkpt lat="45.07163" lon="5.77521">
        <ele>281</ele>
        <time>2024-06-05T18:47:20+00:00</time>
      </trkpt>
      <trkpt lat="45.07175" lon="5.77514">
        <ele>281</ele>
        <time>2024-06-05T18:47:23+00:00</time>
      </trkpt>
      <trkpt lat="45.072" lon="5.775">
        <ele>281</ele>
        <time>2024-06-05T18:47:26+00:00</time>
      </trkpt>
      <trkpt lat="45.07233" lon="5.77482">
        <ele>281</ele>
        <time>2024-06-05T18:47:29+00:00</time>
      </trkpt>
      <trkpt lat="45.07268" lon="5.7746">
        <ele>281</ele>
        <time>2024-06-05T18:47:32+00:00</time>
      </trkpt>
      <trkpt lat="45.07297" lon="5.77444">
        <ele>281</ele>
        <time>2024-06-05T18:47:35+00:00</time>
      </trkpt>
      <trkpt lat="45.07328" lon="5.77423">
        <ele>281</ele>
        <time>2024-06-05T18:47:38+00:00</time>
      </trkpt>
      <trkpt lat="45.07349" lon="5.77406">
        <ele>280</ele>
        <time>2024-06-05T18:47:41+00:00</time>
      </trkpt>
      <trkpt lat="45.0737" lon="5.77387">
        <ele>280</ele>
        <time>2024-06-05T18:47:44+00:00</time>
      </trkpt>
      <trkpt lat="45.07374" lon="5.77384">
        <ele>280</ele>
        <time>2024-06-05T18:47:47+00:00</time>
      </trkpt>
      <trkpt lat="45.07396" lon="5.77361">
        <ele>280</ele>
        <time>2024-06-05T18:47:50+00:00</time>
      </trkpt>
      <trkpt lat="45.07417" lon="5.77344">
        <ele>280</ele>
        <time>2024-06-05T18:47:53+00:00</time>
      </trkpt>
      <trkpt lat="45.0743" lon="5.77337">
        <ele>281</ele>
        <time>2024-06-05T18:47:56+00:00</time>
      </trkpt>
      <trkpt lat="45.07448" lon="5.77331">
        <ele>281</ele>
        <time>2024-06-05T18:47:59+00:00</time>
      </trkpt>
      <trkpt lat="45.07467" lon="5.77324">
        <ele>281</ele>
        <time>2024-06-05T18:48:02+00:00</time>
      </trkpt>
      <trkpt lat="45.0749" lon="5.77315">
        <ele>280</ele>
        <time>2024-06-05T18:48:05+00:00</time>
      </trkpt>
      <trkpt lat="45.07508" lon="5.7731">
        <ele>280</ele>
        <time>2024-06-05T18:48:08+00:00</time>
      </trkpt>
      <trkpt lat="45.0751" lon="5.7731">
        <ele>280</ele>
        <time>2024-06-05T18:48:11+00:00</time>
      </trkpt>
      <trkpt lat="45.07517" lon="5.77341">
        <ele>280</ele>
        <time>2024-06-05T18:48:14+00:00</time>
      </trkpt>
      <trkpt lat="45.07529" lon="5.7736">
        <ele>280</ele>
        <time>2024-06-05T18:48:17+00:00</time>
      </trkpt>
      <trkpt lat="45.07523" lon="5.77379">
        <ele>280</ele>
        <time>2024-06-05T18:48:20+00:00</time>
      </trkpt>
      <trkpt lat="45.0754" lon="5.77394">
        <ele>280</ele>
        <time>2024-06-05T18:48:23+00:00</time>
      </trkpt>
      <trkpt lat="45.07566" lon="5.77417">
        <ele>280</ele>
        <time>2024-06-05T18:48:26+00:00</time>
      </trkpt>
      <trkpt lat="45.07567" lon="5.77417">
        <ele>280</ele>
        <time>2024-06-05T18:48:29+00:00</time>
      </trkpt>
      <trkpt lat="45.07583" lon="5.77426">
        <ele>281</ele>
        <time>2024-06-05T18:48:32+00:00</time>
      </trkpt>
      <trkpt lat="45.07592" lon="5.77431">
        <ele>280</ele>
        <time>2024-06-05T18:48:35+00:00</time>
      </trkpt>
      <trkpt lat="45.07585" lon="5.77457">
        <ele>280</ele>
        <time>2024-06-05T18:48:38+00:00</time>
      </trkpt>
      <trkpt lat="45.07582" lon="5.77477">
        <ele>280</ele>
        <time>2024-06-05T18:48:41+00:00</time>
      </trkpt>
      <trkpt lat="45.07582" lon="5.77479">
        <ele>280</ele>
        <time>2024-06-05T18:48:44+00:00</time>
      </trkpt>
      <trkpt lat="45.07579" lon="5.77504">
        <ele>280</ele>
        <time>2024-06-05T18:48:47+00:00</time>
      </trkpt>
      <trkpt lat="45.07576" lon="5.77532">
        <ele>280</ele>
        <time>2024-06-05T18:48:50+00:00</time>
      </trkpt>
      <trkpt lat="45.0757" lon="5.77594">
        <ele>280</ele>
        <time>2024-06-05T18:48:53+00:00</time>
      </trkpt>
      <trkpt lat="45.07568" lon="5.77608">
        <ele>280</ele>
        <time>2024-06-05T18:48:56+00:00</time>
      </trkpt>
      <trkpt lat="45.07568" lon="5.77615">
        <ele>280</ele>
        <time>2024-06-05T18:48:59+00:00</time>
      </trkpt>
      <trkpt lat="45.07566" lon="5.7764">
        <ele>280</ele>
        <time>2024-06-05T18:49:02+00:00</time>
      </trkpt>
      <trkpt lat="45.07563" lon="5.77668">
        <ele>280</ele>
        <time>2024-06-05T18:49:05+00:00</time>
      </trkpt>
      <trkpt lat="45.07559" lon="5.77705">
        <ele>280</ele>
        <time>2024-06-05T18:49:08+00:00</time>
      </trkpt>
      <trkpt lat="45.07555" lon="5.77755">
        <ele>280</ele>
        <time>2024-06-05T18:49:11+00:00</time>
      </trkpt>
      <trkpt lat="45.0755" lon="5.77804">
        <ele>280</ele>
        <time>2024-06-05T18:49:14+00:00</time>
      </trkpt>
      <trkpt lat="45.07545" lon="5.77853">
        <ele>281</ele>
        <time>2024-06-05T18:49:17+00:00</time>
      </trkpt>
      <trkpt lat="45.07539" lon="5.77846">
        <ele>281</ele>
        <time>2024-06-05T18:49:20+00:00</time>
      </trkpt>
      <trkpt lat="45.07527" lon="5.77839">
        <ele>281</ele>
        <time>2024-06-05T18:49:23+00:00</time>
      </trkpt>
      <trkpt lat="45.0752" lon="5.77841">
        <ele>281</ele>
        <time>2024-06-05T18:49:26+00:00</time>
      </trkpt>
      <trkpt lat="45.07507" lon="5.77886">
        <ele>281</ele>
        <time>2024-06-05T18:49:29+00:00</time>
      </trkpt>
      <trkpt lat="45.07494" lon="5.7793">
        <ele>281</ele>
        <time>2024-06-05T18:49:32+00:00</time>
      </trkpt>
      <trkpt lat="45.07482" lon="5.77965">
        <ele>281</ele>
        <time>2024-06-05T18:49:35+00:00</time>
      </trkpt>
      <trkpt lat="45.07474" lon="5.77986">
        <ele>281</ele>
        <time>2024-06-05T18:49:38+00:00</time>
      </trkpt>
      <trkpt lat="45.07469" lon="5.77997">
        <ele>281</ele>
        <time>2024-06-05T18:49:41+00:00</time>
      </trkpt>
      <trkpt lat="45.07457" lon="5.78028">
        <ele>281</ele>
        <time>2024-06-05T18:49:44+00:00</time>
      </trkpt>
      <trkpt lat="45.07451" lon="5.78046">
        <ele>281</ele>
        <time>2024-06-05T18:49:47+00:00</time>
      </trkpt>
      <trkpt lat="45.07447" lon="5.78065">
        <ele>281</ele>
        <time>2024-06-05T18:49:50+00:00</time>
      </trkpt>
      <trkpt lat="45.07443" lon="5.78087">
        <ele>281</ele>
        <time>2024-06-05T18:49:53+00:00</time>
      </trkpt>
      <trkpt lat="45.07443" lon="5.78087">
        <ele>281</ele>
        <time>2024-06-05T18:49:56+00:00</time>
      </trkpt>
      <trkpt lat="45.07442" lon="5.78101">
        <ele>283</ele>
        <time>2024-06-05T18:49:59+00:00</time>
      </trkpt>
      <trkpt lat="45.07442" lon="5.78104">
        <ele>283</ele>
        <time>2024-06-05T18:50:02+00:00</time>
      </trkpt>
      <trkpt lat="45.07443" lon="5.78118">
        <ele>283</ele>
        <time>2024-06-05T18:50:05+00:00</time>
      </trkpt>
      <trkpt lat="45.07442" lon="5.78147">
        <ele>283</ele>
        <time>2024-06-05T18:50:08+00:00</time>
      </trkpt>
      <trkpt lat="45.0744" lon="5.78164">
        <ele>284</ele>
        <time>2024-06-05T18:50:11+00:00</time>
      </trkpt>
      <trkpt lat="45.07439" lon="5.78181">
        <ele>282</ele>
        <time>2024-06-05T18:50:14+00:00</time>
      </trkpt>
      <trkpt lat="45.07439" lon="5.78201">
        <ele>282</ele>
        <time>2024-06-05T18:50:17+00:00</time>
      </trkpt>
      <trkpt lat="45.07441" lon="5.78218">
        <ele>282</ele>
        <time>2024-06-05T18:50:20+00:00</time>
      </trkpt>
      <trkpt lat="45.0744" lon="5.78236">
        <ele>283</ele>
        <time>2024-06-05T18:50:23+00:00</time>
      </trkpt>
      <trkpt lat="45.07438" lon="5.78251">
        <ele>284</ele>
        <time>2024-06-05T18:50:26+00:00</time>
      </trkpt>
      <trkpt lat="45.07435" lon="5.78261">
        <ele>285</ele>
        <time>2024-06-05T18:50:29+00:00</time>
      </trkpt>
      <trkpt lat="45.0743" lon="5.78277">
        <ele>285</ele>
        <time>2024-06-05T18:50:32+00:00</time>
      </trkpt>
      <trkpt lat="45.07429" lon="5.78289">
        <ele>287</ele>
        <time>2024-06-05T18:50:35+00:00</time>
      </trkpt>
      <trkpt lat="45.07432" lon="5.78298">
        <ele>286</ele>
        <time>2024-06-05T18:50:38+00:00</time>
      </trkpt>
      <trkpt lat="45.07442" lon="5.78312">
        <ele>286</ele>
        <time>2024-06-05T18:50:41+00:00</time>
      </trkpt>
      <trkpt lat="45.0746" lon="5.78335">
        <ele>286</ele>
        <time>2024-06-05T18:50:44+00:00</time>
      </trkpt>
      <trkpt lat="45.07461" lon="5.78336">
        <ele>285</ele>
        <time>2024-06-05T18:50:47+00:00</time>
      </trkpt>
      <trkpt lat="45.07466" lon="5.78344">
        <ele>286</ele>
        <time>2024-06-05T18:50:50+00:00</time>
      </trkpt>
      <trkpt lat="45.0747" lon="5.78357">
        <ele>286</ele>
        <time>2024-06-05T18:50:53+00:00</time>
      </trkpt>
      <trkpt lat="45.07472" lon="5.78364">
        <ele>287</ele>
        <time>2024-06-05T18:50:56+00:00</time>
      </trkpt>
      <trkpt lat="45.07472" lon="5.78375">
        <ele>288</ele>
        <time>2024-06-05T18:50:59+00:00</time>
      </trkpt>
      <trkpt lat="45.07469" lon="5.78394">
        <ele>290</ele>
        <time>2024-06-05T18:51:02+00:00</time>
      </trkpt>
      <trkpt lat="45.07465" lon="5.78414">
        <ele>292</ele>
        <time>2024-06-05T18:51:05+00:00</time>
      </trkpt>
      <trkpt lat="45.07464" lon="5.7842">
        <ele>292</ele>
        <time>2024-06-05T18:51:08+00:00</time>
      </trkpt>
      <trkpt lat="45.07463" lon="5.78433">
        <ele>292</ele>
        <time>2024-06-05T18:51:11+00:00</time>
      </trkpt>
      <trkpt lat="45.07463" lon="5.78441">
        <ele>293</ele>
        <time>2024-06-05T18:51:14+00:00</time>
      </trkpt>
      <trkpt lat="45.07465" lon="5.78447">
        <ele>293</ele>
        <time>2024-06-05T18:51:17+00:00</time>
      </trkpt>
      <trkpt lat="45.07469" lon="5.78452">
        <ele>295</ele>
        <time>2024-06-05T18:51:20+00:00</time>
      </trkpt>
      <trkpt lat="45.07471" lon="5.78453">
        <ele>295</ele>
        <time>2024-06-05T18:51:23+00:00</time>
      </trkpt>
      <trkpt lat="45.07474" lon="5.78455">
        <ele>295</ele>
        <time>2024-06-05T18:51:26+00:00</time>
      </trkpt>
      <trkpt lat="45.07476" lon="5.78456">
        <ele>295</ele>
        <time>2024-06-05T18:51:29+00:00</time>
      </trkpt>
      <trkpt lat="45.07479" lon="5.78457">
        <ele>295</ele>
        <time>2024-06-05T18:51:32+00:00</time>
      </trkpt>
      <trkpt lat="45.07483" lon="5.78459">
        <ele>296</ele>
        <time>2024-06-05T18:51:35+00:00</time>
      </trkpt>
      <trkpt lat="45.07486" lon="5.78461">
        <ele>298</ele>
        <time>2024-06-05T18:51:38+00:00</time>
      </trkpt>
      <trkpt lat="45.0749" lon="5.78463">
        <ele>298</ele>
        <time>2024-06-05T18:51:41+00:00</time>
      </trkpt>
      <trkpt lat="45.07493" lon="5.78465">
        <ele>298</ele>
        <time>2024-06-05T18:51:44+00:00</time>
      </trkpt>
      <trkpt lat="45.07497" lon="5.78467">
        <ele>298</ele>
        <time>2024-06-05T18:51:47+00:00</time>
      </trkpt>
      <trkpt lat="45.07501" lon="5.78469">
        <ele>298</ele>
        <time>2024-06-05T18:51:50+00:00</time>
      </trkpt>
      <trkpt lat="45.07506" lon="5.78472">
        <ele>301</ele>
        <time>2024-06-05T18:51:53+00:00</time>
      </trkpt>
      <trkpt lat="45.07509" lon="5.78474">
        <ele>301</ele>
        <time>2024-06-05T18:51:56+00:00</time>
      </trkpt>
      <trkpt lat="45.07511" lon="5.78475">
        <ele>300</ele>
        <time>2024-06-05T18:51:59+00:00</time>
      </trkpt>
      <trkpt lat="45.07514" lon="5.78477">
        <ele>300</ele>
        <time>2024-06-05T18:52:02+00:00</time>
      </trkpt>
      <trkpt lat="45.07517" lon="5.78478">
        <ele>300</ele>
        <time>2024-06-05T18:52:05+00:00</time>
      </trkpt>
      <trkpt lat="45.07519" lon="5.7848">
        <ele>300</ele>
        <time>2024-06-05T18:52:08+00:00</time>
      </trkpt>
      <trkpt lat="45.07522" lon="5.78482">
        <ele>302</ele>
        <time>2024-06-05T18:52:11+00:00</time>
      </trkpt>
      <trkpt lat="45.07524" lon="5.78484">
        <ele>302</ele>
        <time>2024-06-05T18:52:14+00:00</time>
      </trkpt>
      <trkpt lat="45.07527" lon="5.78487">
        <ele>302</ele>
        <time>2024-06-05T18:52:17+00:00</time>
      </trkpt>
      <trkpt lat="45.07529" lon="5.78491">
        <ele>305</ele>
        <time>2024-06-05T18:52:20+00:00</time>
      </trkpt>
      <trkpt lat="45.07532" lon="5.78495">
        <ele>304</ele>
        <time>2024-06-05T18:52:23+00:00</time>
      </trkpt>
      <trkpt lat="45.07535" lon="5.78499">
        <ele>304</ele>
        <time>2024-06-05T18:52:26+00:00</time>
      </trkpt>
      <trkpt lat="45.07537" lon="5.78503">
        <ele>308</ele>
        <time>2024-06-05T18:52:29+00:00</time>
      </trkpt>
      <trkpt lat="45.07539" lon="5.78507">
        <ele>308</ele>
        <time>2024-06-05T18:52:32+00:00</time>
      </trkpt>
      <trkpt lat="45.07541" lon="5.78511">
        <ele>308</ele>
        <time>2024-06-05T18:52:35+00:00</time>
      </trkpt>
      <trkpt lat="45.07544" lon="5.78515">
        <ele>308</ele>
        <time>2024-06-05T18:52:38+00:00</time>
      </trkpt>
      <trkpt lat="45.07546" lon="5.78519">
        <ele>308</ele>
        <time>2024-06-05T18:52:41+00:00</time>
      </trkpt>
      <trkpt lat="45.07548" lon="5.78522">
        <ele>306</ele>
        <time>2024-06-05T18:52:44+00:00</time>
      </trkpt>
      <trkpt lat="45.0755" lon="5.78526">
        <ele>305</ele>
        <time>2024-06-05T18:52:47+00:00</time>
      </trkpt>
      <trkpt lat="45.07553" lon="5.7853">
        <ele>305</ele>
        <time>2024-06-05T18:52:50+00:00</time>
      </trkpt>
      <trkpt lat="45.07555" lon="5.78534">
        <ele>308</ele>
        <time>2024-06-05T18:52:53+00:00</time>
      </trkpt>
      <trkpt lat="45.07557" lon="5.78538">
        <ele>308</ele>
        <time>2024-06-05T18:52:56+00:00</time>
      </trkpt>
      <trkpt lat="45.0756" lon="5.78542">
        <ele>308</ele>
        <time>2024-06-05T18:52:59+00:00</time>
      </trkpt>
      <trkpt lat="45.07563" lon="5.78546">
        <ele>308</ele>
        <time>2024-06-05T18:53:02+00:00</time>
      </trkpt>
      <trkpt lat="45.07566" lon="5.7855">
        <ele>310</ele>
        <time>2024-06-05T18:53:05+00:00</time>
      </trkpt>
      <trkpt lat="45.07569" lon="5.78554">
        <ele>310</ele>
        <time>2024-06-05T18:53:08+00:00</time>
      </trkpt>
      <trkpt lat="45.07571" lon="5.78557">
        <ele>308</ele>
        <time>2024-06-05T18:53:11+00:00</time>
      </trkpt>
      <trkpt lat="45.07575" lon="5.78563">
        <ele>312</ele>
        <time>2024-06-05T18:53:14+00:00</time>
      </trkpt>
      <trkpt lat="45.0758" lon="5.78568">
        <ele>312</ele>
        <time>2024-06-05T18:53:17+00:00</time>
      </trkpt>
      <trkpt lat="45.07584" lon="5.78572">
        <ele>312</ele>
        <time>2024-06-05T18:53:20+00:00</time>
      </trkpt>
      <trkpt lat="45.07588" lon="5.78577">
        <ele>312</ele>
        <time>2024-06-05T18:53:23+00:00</time>
      </trkpt>
      <trkpt lat="45.07592" lon="5.78582">
        <ele>312</ele>
        <time>2024-06-05T18:53:26+00:00</time>
      </trkpt>
      <trkpt lat="45.07594" lon="5.78585">
        <ele>312</ele>
        <time>2024-06-05T18:53:29+00:00</time>
      </trkpt>
      <trkpt lat="45.07596" lon="5.78588">
        <ele>312</ele>
        <time>2024-06-05T18:53:32+00:00</time>
      </trkpt>
      <trkpt lat="45.07599" lon="5.78591">
        <ele>317</ele>
        <time>2024-06-05T18:53:35+00:00</time>
      </trkpt>
      <trkpt lat="45.07602" lon="5.78594">
        <ele>313</ele>
        <time>2024-06-05T18:53:38+00:00</time>
      </trkpt>
      <trkpt lat="45.07604" lon="5.78597">
        <ele>313</ele>
        <time>2024-06-05T18:53:41+00:00</time>
      </trkpt>
      <trkpt lat="45.07607" lon="5.78599">
        <ele>313</ele>
        <time>2024-06-05T18:53:44+00:00</time>
      </trkpt>
      <trkpt lat="45.07609" lon="5.78601">
        <ele>316</ele>
        <time>2024-06-05T18:53:47+00:00</time>
      </trkpt>
      <trkpt lat="45.07611" lon="5.78602">
        <ele>310</ele>
        <time>2024-06-05T18:53:50+00:00</time>
      </trkpt>
      <trkpt lat="45.07616" lon="5.78604">
        <ele>310</ele>
        <time>2024-06-05T18:53:53+00:00</time>
      </trkpt>
      <trkpt lat="45.07618" lon="5.78606">
        <ele>310</ele>
        <time>2024-06-05T18:53:56+00:00</time>
      </trkpt>
      <trkpt lat="45.07624" lon="5.78603">
        <ele>308</ele>
        <time>2024-06-05T18:53:59+00:00</time>
      </trkpt>
      <trkpt lat="45.07641" lon="5.78609">
        <ele>311</ele>
        <time>2024-06-05T18:54:02+00:00</time>
      </trkpt>
      <trkpt lat="45.07649" lon="5.78614">
        <ele>309</ele>
        <time>2024-06-05T18:54:05+00:00</time>
      </trkpt>
      <trkpt lat="45.07655" lon="5.78623">
        <ele>312</ele>
        <time>2024-06-05T18:54:08+00:00</time>
      </trkpt>
      <trkpt lat="45.07663" lon="5.78633">
        <ele>313</ele>
        <time>2024-06-05T18:54:11+00:00</time>
      </trkpt>
      <trkpt lat="45.07666" lon="5.78637">
        <ele>313</ele>
        <time>2024-06-05T18:54:14+00:00</time>
      </trkpt>
      <trkpt lat="45.07671" lon="5.78649">
        <ele>312</ele>
        <time>2024-06-05T18:54:17+00:00</time>
      </trkpt>
      <trkpt lat="45.07674" lon="5.78651">
        <ele>314</ele>
        <time>2024-06-05T18:54:20+00:00</time>
      </trkpt>
      <trkpt lat="45.07678" lon="5.78656">
        <ele>311</ele>
        <time>2024-06-05T18:54:23+00:00</time>
      </trkpt>
      <trkpt lat="45.07682" lon="5.7866">
        <ele>311</ele>
        <time>2024-06-05T18:54:26+00:00</time>
      </trkpt>
      <trkpt lat="45.07686" lon="5.78664">
        <ele>311</ele>
        <time>2024-06-05T18:54:29+00:00</time>
      </trkpt>
      <trkpt lat="45.0769" lon="5.78668">
        <ele>311</ele>
        <time>2024-06-05T18:54:32+00:00</time>
      </trkpt>
      <trkpt lat="45.07693" lon="5.78671">
        <ele>310</ele>
        <time>2024-06-05T18:54:35+00:00</time>
      </trkpt>
      <trkpt lat="45.07697" lon="5.78675">
        <ele>312</ele>
        <time>2024-06-05T18:54:38+00:00</time>
      </trkpt>
      <trkpt lat="45.077" lon="5.78678">
        <ele>310</ele>
        <time>2024-06-05T18:54:41+00:00</time>
      </trkpt>
      <trkpt lat="45.07703" lon="5.78681">
        <ele>312</ele>
        <time>2024-06-05T18:54:44+00:00</time>
      </trkpt>
      <trkpt lat="45.07707" lon="5.78685">
        <ele>312</ele>
        <time>2024-06-05T18:54:47+00:00</time>
      </trkpt>
      <trkpt lat="45.0771" lon="5.78688">
        <ele>312</ele>
        <time>2024-06-05T18:54:50+00:00</time>
      </trkpt>
      <trkpt lat="45.07714" lon="5.78692">
        <ele>314</ele>
        <time>2024-06-05T18:54:53+00:00</time>
      </trkpt>
      <trkpt lat="45.07717" lon="5.78696">
        <ele>314</ele>
        <time>2024-06-05T18:54:56+00:00</time>
      </trkpt>
      <trkpt lat="45.07721" lon="5.787">
        <ele>311</ele>
        <time>2024-06-05T18:54:59+00:00</time>
      </trkpt>
      <trkpt lat="45.07724" lon="5.78704">
        <ele>316</ele>
        <time>2024-06-05T18:55:02+00:00</time>
      </trkpt>
      <trkpt lat="45.0774" lon="5.78715">
        <ele>318</ele>
        <time>2024-06-05T18:55:05+00:00</time>
      </trkpt>
      <trkpt lat="45.07764" lon="5.78751">
        <ele>325</ele>
        <time>2024-06-05T18:55:08+00:00</time>
      </trkpt>
      <trkpt lat="45.0779" lon="5.78785">
        <ele>329</ele>
        <time>2024-06-05T18:55:11+00:00</time>
      </trkpt>
      <trkpt lat="45.07814" lon="5.78803">
        <ele>335</ele>
        <time>2024-06-05T18:55:14+00:00</time>
      </trkpt>
      <trkpt lat="45.07843" lon="5.78844">
        <ele>346</ele>
        <time>2024-06-05T18:55:17+00:00</time>
      </trkpt>
      <trkpt lat="45.07867" lon="5.78894">
        <ele>362</ele>
        <time>2024-06-05T18:55:20+00:00</time>
      </trkpt>
      <trkpt lat="45.07883" lon="5.78934">
        <ele>368</ele>
        <time>2024-06-05T18:55:23+00:00</time>
      </trkpt>
      <trkpt lat="45.07894" lon="5.78971">
        <ele>374</ele>
        <time>2024-06-05T18:55:26+00:00</time>
      </trkpt>
      <trkpt lat="45.07907" lon="5.79012">
        <ele>381</ele>
        <time>2024-06-05T18:55:29+00:00</time>
      </trkpt>
      <trkpt lat="45.07906" lon="5.79062">
        <ele>390</ele>
        <time>2024-06-05T18:55:32+00:00</time>
      </trkpt>
      <trkpt lat="45.07926" lon="5.7908">
        <ele>390</ele>
        <time>2024-06-05T18:55:35+00:00</time>
      </trkpt>
      <trkpt lat="45.07946" lon="5.79102">
        <ele>393</ele>
        <time>2024-06-05T18:55:38+00:00</time>
      </trkpt>
      <trkpt lat="45.07969" lon="5.79126">
        <ele>394</ele>
        <time>2024-06-05T18:55:41+00:00</time>
      </trkpt>
      <trkpt lat="45.07998" lon="5.79149">
        <ele>396</ele>
        <time>2024-06-05T18:55:44+00:00</time>
      </trkpt>
      <trkpt lat="45.0802" lon="5.79181">
        <ele>404</ele>
        <time>2024-06-05T18:55:47+00:00</time>
      </trkpt>
      <trkpt lat="45.08039" lon="5.7922">
        <ele>410</ele>
        <time>2024-06-05T18:55:50+00:00</time>
      </trkpt>
      <trkpt lat="45.08062" lon="5.79256">
        <ele>417</ele>
        <time>2024-06-05T18:55:53+00:00</time>
      </trkpt>
      <trkpt lat="45.08079" lon="5.79278">
        <ele>421</ele>
        <time>2024-06-05T18:55:56+00:00</time>
      </trkpt>
      <trkpt lat="45.08082" lon="5.79287">
        <ele>424</ele>
        <time>2024-06-05T18:55:59+00:00</time>
      </trkpt>
      <trkpt lat="45.08083" lon="5.79289">
        <ele>424</ele>
        <time>2024-06-05T18:56:02+00:00</time>
      </trkpt>
      <trkpt lat="45.08086" lon="5.79293">
        <ele>427</ele>
        <time>2024-06-05T18:56:05+00:00</time>
      </trkpt>
      <trkpt lat="45.08088" lon="5.79298">
        <ele>427</ele>
        <time>2024-06-05T18:56:08+00:00</time>
      </trkpt>
      <trkpt lat="45.08091" lon="5.79303">
        <ele>427</ele>
        <time>2024-06-05T18:56:11+00:00</time>
      </trkpt>
      <trkpt lat="45.08092" lon="5.79305">
        <ele>427</ele>
        <time>2024-06-05T18:56:14+00:00</time>
      </trkpt>
      <trkpt lat="45.08087" lon="5.79309">
        <ele>431</ele>
        <time>2024-06-05T18:56:17+00:00</time>
      </trkpt>
      <trkpt lat="45.0807" lon="5.79303">
        <ele>433</ele>
        <time>2024-06-05T18:56:20+00:00</time>
      </trkpt>
      <trkpt lat="45.08061" lon="5.79306">
        <ele>435</ele>
        <time>2024-06-05T18:56:23+00:00</time>
      </trkpt>
      <trkpt lat="45.08059" lon="5.79321">
        <ele>446</ele>
        <time>2024-06-05T18:56:26+00:00</time>
      </trkpt>
      <trkpt lat="45.08064" lon="5.79327">
        <ele>443</ele>
        <time>2024-06-05T18:56:29+00:00</time>
      </trkpt>
      <trkpt lat="45.08064" lon="5.79329">
        <ele>443</ele>
        <time>2024-06-05T18:56:32+00:00</time>
      </trkpt>
      <trkpt lat="45.0809" lon="5.79361">
        <ele>452</ele>
        <time>2024-06-05T18:56:35+00:00</time>
      </trkpt>
      <trkpt lat="45.08101" lon="5.79392">
        <ele>455</ele>
        <time>2024-06-05T18:56:38+00:00</time>
      </trkpt>
      <trkpt lat="45.08097" lon="5.79433">
        <ele>470</ele>
        <time>2024-06-05T18:56:41+00:00</time>
      </trkpt>
      <trkpt lat="45.08111" lon="5.79471">
        <ele>478</ele>
        <time>2024-06-05T18:56:44+00:00</time>
      </trkpt>
      <trkpt lat="45.08138" lon="5.79504">
        <ele>479</ele>
        <time>2024-06-05T18:56:47+00:00</time>
      </trkpt>
      <trkpt lat="45.08155" lon="5.79528">
        <ele>480</ele>
        <time>2024-06-05T18:56:50+00:00</time>
      </trkpt>
      <trkpt lat="45.08163" lon="5.79572">
        <ele>495</ele>
        <time>2024-06-05T18:56:53+00:00</time>
      </trkpt>
      <trkpt lat="45.08174" lon="5.79605">
        <ele>503</ele>
        <time>2024-06-05T18:56:56+00:00</time>
      </trkpt>
      <trkpt lat="45.08205" lon="5.79638">
        <ele>508</ele>
        <time>2024-06-05T18:56:59+00:00</time>
      </trkpt>
      <trkpt lat="45.08233" lon="5.79663">
        <ele>517</ele>
        <time>2024-06-05T18:57:02+00:00</time>
      </trkpt>
      <trkpt lat="45.08236" lon="5.79678">
        <ele>520</ele>
        <time>2024-06-05T18:57:05+00:00</time>
      </trkpt>
      <trkpt lat="45.08223" lon="5.79677">
        <ele>521</ele>
        <time>2024-06-05T18:57:08+00:00</time>
      </trkpt>
      <trkpt lat="45.08193" lon="5.79683">
        <ele>532</ele>
        <time>2024-06-05T18:57:11+00:00</time>
      </trkpt>
      <trkpt lat="45.08199" lon="5.79714">
        <ele>545</ele>
        <time>2024-06-05T18:57:14+00:00</time>
      </trkpt>
      <trkpt lat="45.08219" lon="5.79733">
        <ele>547</ele>
        <time>2024-06-05T18:57:17+00:00</time>
      </trkpt>
      <trkpt lat="45.08226" lon="5.79748">
        <ele>550</ele>
        <time>2024-06-05T18:57:20+00:00</time>
      </trkpt>
      <trkpt lat="45.08226" lon="5.79766">
        <ele>556</ele>
        <time>2024-06-05T18:57:23+00:00</time>
      </trkpt>
      <trkpt lat="45.08244" lon="5.79762">
        <ele>554</ele>
        <time>2024-06-05T18:57:26+00:00</time>
      </trkpt>
      <trkpt lat="45.0824" lon="5.79793">
        <ele>565</ele>
        <time>2024-06-05T18:57:29+00:00</time>
      </trkpt>
      <trkpt lat="45.08233" lon="5.79815">
        <ele>572</ele>
        <time>2024-06-05T18:57:32+00:00</time>
      </trkpt>
      <trkpt lat="45.08233" lon="5.79834">
        <ele>567</ele>
        <time>2024-06-05T18:57:35+00:00</time>
      </trkpt>
      <trkpt lat="45.08244" lon="5.79838">
        <ele>578</ele>
        <time>2024-06-05T18:57:38+00:00</time>
      </trkpt>
      <trkpt lat="45.08262" lon="5.7981">
        <ele>564</ele>
        <time>2024-06-05T18:57:41+00:00</time>
      </trkpt>
      <trkpt lat="45.08271" lon="5.79792">
        <ele>565</ele>
        <time>2024-06-05T18:57:44+00:00</time>
      </trkpt>
      <trkpt lat="45.08282" lon="5.79784">
        <ele>562</ele>
        <time>2024-06-05T18:57:47+00:00</time>
      </trkpt>
      <trkpt lat="45.08297" lon="5.79786">
        <ele>561</ele>
        <time>2024-06-05T18:57:50+00:00</time>
      </trkpt>
      <trkpt lat="45.08315" lon="5.798">
        <ele>565</ele>
        <time>2024-06-05T18:57:53+00:00</time>
      </trkpt>
      <trkpt lat="45.08332" lon="5.7983">
        <ele>568</ele>
        <time>2024-06-05T18:57:56+00:00</time>
      </trkpt>
      <trkpt lat="45.08347" lon="5.79838">
        <ele>571</ele>
        <time>2024-06-05T18:57:59+00:00</time>
      </trkpt>
      <trkpt lat="45.08361" lon="5.79848">
        <ele>569</ele>
        <time>2024-06-05T18:58:02+00:00</time>
      </trkpt>
      <trkpt lat="45.08377" lon="5.79869">
        <ele>579</ele>
        <time>2024-06-05T18:58:05+00:00</time>
      </trkpt>
      <trkpt lat="45.08398" lon="5.79902">
        <ele>595</ele>
        <time>2024-06-05T18:58:08+00:00</time>
      </trkpt>
      <trkpt lat="45.08411" lon="5.79915">
        <ele>595</ele>
        <time>2024-06-05T18:58:11+00:00</time>
      </trkpt>
      <trkpt lat="45.08424" lon="5.79922">
        <ele>594</ele>
        <time>2024-06-05T18:58:14+00:00</time>
      </trkpt>
      <trkpt lat="45.08443" lon="5.79924">
        <ele>593</ele>
        <time>2024-06-05T18:58:17+00:00</time>
      </trkpt>
      <trkpt lat="45.08464" lon="5.79923">
        <ele>593</ele>
        <time>2024-06-05T18:58:20+00:00</time>
      </trkpt>
      <trkpt lat="45.08472" lon="5.79938">
        <ele>587</ele>
        <time>2024-06-05T18:58:23+00:00</time>
      </trkpt>
      <trkpt lat="45.08481" lon="5.7995">
        <ele>594</ele>
        <time>2024-06-05T18:58:26+00:00</time>
      </trkpt>
      <trkpt lat="45.08493" lon="5.79966">
        <ele>592</ele>
        <time>2024-06-05T18:58:29+00:00</time>
      </trkpt>
      <trkpt lat="45.08495" lon="5.79977">
        <ele>596</ele>
        <time>2024-06-05T18:58:32+00:00</time>
      </trkpt>
      <trkpt lat="45.08495" lon="5.79991">
        <ele>606</ele>
        <time>2024-06-05T18:58:35+00:00</time>
      </trkpt>
      <trkpt lat="45.08493" lon="5.80018">
        <ele>614</ele>
        <time>2024-06-05T18:58:38+00:00</time>
      </trkpt>
      <trkpt lat="45.0849" lon="5.80035">
        <ele>625</ele>
        <time>2024-06-05T18:58:41+00:00</time>
      </trkpt>
      <trkpt lat="45.0849" lon="5.80035">
        <ele>625</ele>
        <time>2024-06-05T18:58:44+00:00</time>
      </trkpt>
      <trkpt lat="45.08489" lon="5.80046">
        <ele>628</ele>
        <time>2024-06-05T18:58:47+00:00</time>
      </trkpt>
      <trkpt lat="45.08497" lon="5.80088">
        <ele>634</ele>
        <time>2024-06-05T18:58:50+00:00</time>
      </trkpt>
      <trkpt lat="45.08478" lon="5.80094">
        <ele>643</ele>
        <time>2024-06-05T18:58:53+00:00</time>
      </trkpt>
      <trkpt lat="45.08455" lon="5.80077">
        <ele>646</ele>
        <time>2024-06-05T18:58:56+00:00</time>
      </trkpt>
      <trkpt lat="45.08422" lon="5.80063">
        <ele>649</ele>
        <time>2024-06-05T18:58:59+00:00</time>
      </trkpt>
      <trkpt lat="45.08389" lon="5.80059">
        <ele>656</ele>
        <time>2024-06-05T18:59:02+00:00</time>
      </trkpt>
      <trkpt lat="45.08352" lon="5.80075">
        <ele>665</ele>
        <time>2024-06-05T18:59:05+00:00</time>
      </trkpt>
      <trkpt lat="45.08319" lon="5.80084">
        <ele>670</ele>
        <time>2024-06-05T18:59:08+00:00</time>
      </trkpt>
      <trkpt lat="45.08294" lon="5.80091">
        <ele>674</ele>
        <time>2024-06-05T18:59:11+00:00</time>
      </trkpt>
      <trkpt lat="45.08266" lon="5.80099">
        <ele>677</ele>
        <time>2024-06-05T18:59:14+00:00</time>
      </trkpt>
      <trkpt lat="45.08255" lon="5.80113">
        <ele>685</ele>
        <time>2024-06-05T18:59:17+00:00</time>
      </trkpt>
      <trkpt lat="45.08238" lon="5.80118">
        <ele>687</ele>
        <time>2024-06-05T18:59:20+00:00</time>
      </trkpt>
      <trkpt lat="45.08219" lon="5.80124">
        <ele>691</ele>
        <time>2024-06-05T18:59:23+00:00</time>
      </trkpt>
      <trkpt lat="45.08175" lon="5.80123">
        <ele>693</ele>
        <time>2024-06-05T18:59:26+00:00</time>
      </trkpt>
      <trkpt lat="45.08132" lon="5.80121">
        <ele>695</ele>
        <time>2024-06-05T18:59:29+00:00</time>
      </trkpt>
      <trkpt lat="45.08097" lon="5.80115">
        <ele>695</ele>
        <time>2024-06-05T18:59:32+00:00</time>
      </trkpt>
      <trkpt lat="45.08071" lon="5.80119">
        <ele>698</ele>
        <time>2024-06-05T18:59:35+00:00</time>
      </trkpt>
      <trkpt lat="45.08045" lon="5.80109">
        <ele>704</ele>
        <time>2024-06-05T18:59:38+00:00</time>
      </trkpt>
      <trkpt lat="45.08014" lon="5.80096">
        <ele>713</ele>
        <time>2024-06-05T18:59:41+00:00</time>
      </trkpt>
      <trkpt lat="45.07998" lon="5.80065">
        <ele>715</ele>
        <time>2024-06-05T18:59:44+00:00</time>
      </trkpt>
      <trkpt lat="45.07971" lon="5.80049">
        <ele>718</ele>
        <time>2024-06-05T18:59:47+00:00</time>
      </trkpt>
      <trkpt lat="45.07948" lon="5.80037">
        <ele>724</ele>
        <time>2024-06-05T18:59:50+00:00</time>
      </trkpt>
      <trkpt lat="45.07925" lon="5.80025">
        <ele>730</ele>
        <time>2024-06-05T18:59:53+00:00</time>
      </trkpt>
      <trkpt lat="45.0791" lon="5.8005">
        <ele>733</ele>
        <time>2024-06-05T18:59:56+00:00</time>
      </trkpt>
      <trkpt lat="45.07922" lon="5.80076">
        <ele>736</ele>
        <time>2024-06-05T18:59:59+00:00</time>
      </trkpt>
      <trkpt lat="45.07919" lon="5.80092">
        <ele>741</ele>
        <time>2024-06-05T19:00:02+00:00</time>
      </trkpt>
      <trkpt lat="45.07902" lon="5.80097">
        <ele>746</ele>
        <time>2024-06-05T19:00:05+00:00</time>
      </trkpt>
      <trkpt lat="45.07879" lon="5.8008">
        <ele>753</ele>
        <time>2024-06-05T19:00:08+00:00</time>
      </trkpt>
      <trkpt lat="45.07877" lon="5.80079">
        <ele>753</ele>
        <time>2024-06-05T19:00:11+00:00</time>
      </trkpt>
      <trkpt lat="45.07859" lon="5.80058">
        <ele>755</ele>
        <time>2024-06-05T19:00:14+00:00</time>
      </trkpt>
      <trkpt lat="45.07841" lon="5.80037">
        <ele>757</ele>
        <time>2024-06-05T19:00:17+00:00</time>
      </trkpt>
      <trkpt lat="45.07822" lon="5.80015">
        <ele>760</ele>
        <time>2024-06-05T19:00:20+00:00</time>
      </trkpt>
      <trkpt lat="45.07792" lon="5.79989">
        <ele>766</ele>
        <time>2024-06-05T19:00:23+00:00</time>
      </trkpt>
      <trkpt lat="45.07767" lon="5.79983">
        <ele>778</ele>
        <time>2024-06-05T19:00:26+00:00</time>
      </trkpt>
      <trkpt lat="45.07739" lon="5.79976">
        <ele>788</ele>
        <time>2024-06-05T19:00:29+00:00</time>
      </trkpt>
      <trkpt lat="45.07697" lon="5.79965">
        <ele>806</ele>
        <time>2024-06-05T19:00:32+00:00</time>
      </trkpt>
      <trkpt lat="45.07669" lon="5.79959">
        <ele>819</ele>
        <time>2024-06-05T19:00:35+00:00</time>
      </trkpt>
      <trkpt lat="45.07627" lon="5.79949">
        <ele>838</ele>
        <time>2024-06-05T19:00:38+00:00</time>
      </trkpt>
      <trkpt lat="45.07602" lon="5.79943">
        <ele>850</ele>
        <time>2024-06-05T19:00:41+00:00</time>
      </trkpt>
      <trkpt lat="45.07577" lon="5.79973">
        <ele>872</ele>
        <time>2024-06-05T19:00:44+00:00</time>
      </trkpt>
      <trkpt lat="45.07551" lon="5.79962">
        <ele>879</ele>
        <time>2024-06-05T19:00:47+00:00</time>
      </trkpt>
      <trkpt lat="45.07537" lon="5.79931">
        <ele>887</ele>
        <time>2024-06-05T19:00:50+00:00</time>
      </trkpt>
      <trkpt lat="45.07519" lon="5.79894">
        <ele>896</ele>
        <time>2024-06-05T19:00:53+00:00</time>
      </trkpt>
      <trkpt lat="45.07487" lon="5.79849">
        <ele>909</ele>
        <time>2024-06-05T19:00:56+00:00</time>
      </trkpt>
      <trkpt lat="45.0747" lon="5.79824">
        <ele>910</ele>
        <time>2024-06-05T19:00:59+00:00</time>
      </trkpt>
      <trkpt lat="45.07451" lon="5.79797">
        <ele>911</ele>
        <time>2024-06-05T19:01:02+00:00</time>
      </trkpt>
      <trkpt lat="45.0742" lon="5.79788">
        <ele>927</ele>
        <time>2024-06-05T19:01:05+00:00</time>
      </trkpt>
      <trkpt lat="45.07378" lon="5.7979">
        <ele>944</ele>
        <time>2024-06-05T19:01:08+00:00</time>
      </trkpt>
      <trkpt lat="45.07347" lon="5.79782">
        <ele>953</ele>
        <time>2024-06-05T19:01:11+00:00</time>
      </trkpt>
      <trkpt lat="45.0732" lon="5.79792">
        <ele>964</ele>
        <time>2024-06-05T19:01:14+00:00</time>
      </trkpt>
      <trkpt lat="45.07279" lon="5.79806">
        <ele>974</ele>
        <time>2024-06-05T19:01:17+00:00</time>
      </trkpt>
      <trkpt lat="45.07233" lon="5.79817">
        <ele>983</ele>
        <time>2024-06-05T19:01:20+00:00</time>
      </trkpt>
      <trkpt lat="45.07208" lon="5.79822">
        <ele>991</ele>
        <time>2024-06-05T19:01:23+00:00</time>
      </trkpt>
      <trkpt lat="45.07184" lon="5.79835">
        <ele>1001</ele>
        <time>2024-06-05T19:01:26+00:00</time>
      </trkpt>
      <trkpt lat="45.07155" lon="5.7985">
        <ele>1016</ele>
        <time>2024-06-05T19:01:29+00:00</time>
      </trkpt>
      <trkpt lat="45.07121" lon="5.79865">
        <ele>1029</ele>
        <time>2024-06-05T19:01:32+00:00</time>
      </trkpt>
      <trkpt lat="45.07091" lon="5.79887">
        <ele>1043</ele>
        <time>2024-06-05T19:01:35+00:00</time>
      </trkpt>
      <trkpt lat="45.07071" lon="5.79917">
        <ele>1057</ele>
        <time>2024-06-05T19:01:38+00:00</time>
      </trkpt>
      <trkpt lat="45.07038" lon="5.79907">
        <ele>1062</ele>
        <time>2024-06-05T19:01:41+00:00</time>
      </trkpt>
      <trkpt lat="45.07013" lon="5.79904">
        <ele>1066</ele>
        <time>2024-06-05T19:01:44+00:00</time>
      </trkpt>
      <trkpt lat="45.06985" lon="5.799">
        <ele>1068</ele>
        <time>2024-06-05T19:01:47+00:00</time>
      </trkpt>
      <trkpt lat="45.06969" lon="5.79913">
        <ele>1073</ele>
        <time>2024-06-05T19:01:50+00:00</time>
      </trkpt>
      <trkpt lat="45.06956" lon="5.7993">
        <ele>1075</ele>
        <time>2024-06-05T19:01:53+00:00</time>
      </trkpt>
      <trkpt lat="45.06945" lon="5.79944">
        <ele>1076</ele>
        <time>2024-06-05T19:01:56+00:00</time>
      </trkpt>
      <trkpt lat="45.0694" lon="5.79956">
        <ele>1078</ele>
        <time>2024-06-05T19:01:59+00:00</time>
      </trkpt>
      <trkpt lat="45.06939" lon="5.79958">
        <ele>1079</ele>
        <time>2024-06-05T19:02:02+00:00</time>
      </trkpt>
      <trkpt lat="45.06925" lon="5.79962">
        <ele>1080</ele>
        <time>2024-06-05T19:02:05+00:00</time>
      </trkpt>
      <trkpt lat="45.06905" lon="5.79948">
        <ele>1079</ele>
        <time>2024-06-05T19:02:08+00:00</time>
      </trkpt>
      <trkpt lat="45.06889" lon="5.79924">
        <ele>1079</ele>
        <time>2024-06-05T19:02:11+00:00</time>
      </trkpt>
      <trkpt lat="45.06873" lon="5.79913">
        <ele>1079</ele>
        <time>2024-06-05T19:02:14+00:00</time>
      </trkpt>
      <trkpt lat="45.06864" lon="5.79892">
        <ele>1078</ele>
        <time>2024-06-05T19:02:17+00:00</time>
      </trkpt>
      <trkpt lat="45.06837" lon="5.79902">
        <ele>1078</ele>
        <time>2024-06-05T19:02:20+00:00</time>
      </trkpt>
      <trkpt lat="45.06839" lon="5.79933">
        <ele>1083</ele>
        <time>2024-06-05T19:02:23+00:00</time>
      </trkpt>
      <trkpt lat="45.06828" lon="5.79947">
        <ele>1083</ele>
        <time>2024-06-05T19:02:26+00:00</time>
      </trkpt>
      <trkpt lat="45.06822" lon="5.79966">
        <ele>1086</ele>
        <time>2024-06-05T19:02:29+00:00</time>
      </trkpt>
      <trkpt lat="45.06827" lon="5.79994">
        <ele>1088</ele>
        <time>2024-06-05T19:02:32+00:00</time>
      </trkpt>
      <trkpt lat="45.06837" lon="5.8005">
        <ele>1093</ele>
        <time>2024-06-05T19:02:35+00:00</time>
      </trkpt>
      <trkpt lat="45.06845" lon="5.80085">
        <ele>1097</ele>
        <time>2024-06-05T19:02:38+00:00</time>
      </trkpt>
      <trkpt lat="45.06852" lon="5.80119">
        <ele>1102</ele>
        <time>2024-06-05T19:02:41+00:00</time>
      </trkpt>
      <trkpt lat="45.06854" lon="5.80122">
        <ele>1103</ele>
        <time>2024-06-05T19:02:44+00:00</time>
      </trkpt>
      <trkpt lat="45.06859" lon="5.80126">
        <ele>1103</ele>
        <time>2024-06-05T19:02:47+00:00</time>
      </trkpt>
      <trkpt lat="45.06866" lon="5.80128">
        <ele>1105</ele>
        <time>2024-06-05T19:02:50+00:00</time>
      </trkpt>
      <trkpt lat="45.06873" lon="5.80132">
        <ele>1107</ele>
        <time>2024-06-05T19:02:53+00:00</time>
      </trkpt>
      <trkpt lat="45.06875" lon="5.80137">
        <ele>1107</ele>
        <time>2024-06-05T19:02:56+00:00</time>
      </trkpt>
      <trkpt lat="45.06873" lon="5.80145">
        <ele>1109</ele>
        <time>2024-06-05T19:02:59+00:00</time>
      </trkpt>
      <trkpt lat="45.06869" lon="5.80153">
        <ele>1109</ele>
        <time>2024-06-05T19:03:02+00:00</time>
      </trkpt>
      <trkpt lat="45.06859" lon="5.80169">
        <ele>1110</ele>
        <time>2024-06-05T19:03:05+00:00</time>
      </trkpt>
      <trkpt lat="45.06856" lon="5.80184">
        <ele>1113</ele>
        <time>2024-06-05T19:03:08+00:00</time>
      </trkpt>
      <trkpt lat="45.0686" lon="5.80212">
        <ele>1116</ele>
        <time>2024-06-05T19:03:11+00:00</time>
      </trkpt>
      <trkpt lat="45.06863" lon="5.80244">
        <ele>1120</ele>
        <time>2024-06-05T19:03:14+00:00</time>
      </trkpt>
      <trkpt lat="45.06872" lon="5.80274">
        <ele>1120</ele>
        <time>2024-06-05T19:03:17+00:00</time>
      </trkpt>
      <trkpt lat="45.0688" lon="5.80291">
        <ele>1120</ele>
        <time>2024-06-05T19:03:20+00:00</time>
      </trkpt>
      <trkpt lat="45.06886" lon="5.80309">
        <ele>1120</ele>
        <time>2024-06-05T19:03:23+00:00</time>
      </trkpt>
      <trkpt lat="45.06891" lon="5.80322">
        <ele>1121</ele>
        <time>2024-06-05T19:03:26+00:00</time>
      </trkpt>
      <trkpt lat="45.06893" lon="5.80343">
        <ele>1122</ele>
        <time>2024-06-05T19:03:29+00:00</time>
      </trkpt>
      <trkpt lat="45.06897" lon="5.80354">
        <ele>1123</ele>
        <time>2024-06-05T19:03:32+00:00</time>
      </trkpt>
      <trkpt lat="45.069" lon="5.80368">
        <ele>1123</ele>
        <time>2024-06-05T19:03:35+00:00</time>
      </trkpt>
      <trkpt lat="45.06901" lon="5.80386">
        <ele>1123</ele>
        <time>2024-06-05T19:03:38+00:00</time>
      </trkpt>
      <trkpt lat="45.06901" lon="5.804">
        <ele>1123</ele>
        <time>2024-06-05T19:03:41+00:00</time>
      </trkpt>
      <trkpt lat="45.06901" lon="5.80412">
        <ele>1124</ele>
        <time>2024-06-05T19:03:44+00:00</time>
      </trkpt>
      <trkpt lat="45.06901" lon="5.80428">
        <ele>1123</ele>
        <time>2024-06-05T19:03:47+00:00</time>
      </trkpt>
      <trkpt lat="45.06902" lon="5.80468">
        <ele>1123</ele>
        <time>2024-06-05T19:03:50+00:00</time>
      </trkpt>
      <trkpt lat="45.06903" lon="5.80491">
        <ele>1124</ele>
        <time>2024-06-05T19:03:53+00:00</time>
      </trkpt>
      <trkpt lat="45.06905" lon="5.80501">
        <ele>1124</ele>
        <time>2024-06-05T19:03:56+00:00</time>
      </trkpt>
      <trkpt lat="45.06912" lon="5.80518">
        <ele>1123</ele>
        <time>2024-06-05T19:03:59+00:00</time>
      </trkpt>
      <trkpt lat="45.06924" lon="5.80534">
        <ele>1125</ele>
        <time>2024-06-05T19:04:02+00:00</time>
      </trkpt>
      <trkpt lat="45.06927" lon="5.80541">
        <ele>1125</ele>
        <time>2024-06-05T19:04:05+00:00</time>
      </trkpt>
      <trkpt lat="45.06927" lon="5.80546">
        <ele>1125</ele>
        <time>2024-06-05T19:04:08+00:00</time>
      </trkpt>
      <trkpt lat="45.06927" lon="5.80555">
        <ele>1126</ele>
        <time>2024-06-05T19:04:11+00:00</time>
      </trkpt>
      <trkpt lat="45.06925" lon="5.80574">
        <ele>1130</ele>
        <time>2024-06-05T19:04:14+00:00</time>
      </trkpt>
      <trkpt lat="45.06923" lon="5.80588">
        <ele>1129</ele>
        <time>2024-06-05T19:04:17+00:00</time>
      </trkpt>
      <trkpt lat="45.06924" lon="5.80593">
        <ele>1130</ele>
        <time>2024-06-05T19:04:20+00:00</time>
      </trkpt>
      <trkpt lat="45.06925" lon="5.80597">
        <ele>1130</ele>
        <time>2024-06-05T19:04:23+00:00</time>
      </trkpt>
      <trkpt lat="45.06938" lon="5.80626">
        <ele>1131</ele>
        <time>2024-06-05T19:04:26+00:00</time>
      </trkpt>
      <trkpt lat="45.06949" lon="5.80644">
        <ele>1132</ele>
        <time>2024-06-05T19:04:29+00:00</time>
      </trkpt>
      <trkpt lat="45.06957" lon="5.80657">
        <ele>1131</ele>
        <time>2024-06-05T19:04:32+00:00</time>
      </trkpt>
      <trkpt lat="45.06969" lon="5.80676">
        <ele>1132</ele>
        <time>2024-06-05T19:04:35+00:00</time>
      </trkpt>
      <trkpt lat="45.06978" lon="5.80691">
        <ele>1131</ele>
        <time>2024-06-05T19:04:38+00:00</time>
      </trkpt>
      <trkpt lat="45.06982" lon="5.80702">
        <ele>1131</ele>
        <time>2024-06-05T19:04:41+00:00</time>
      </trkpt>
      <trkpt lat="45.06987" lon="5.80716">
        <ele>1131</ele>
        <time>2024-06-05T19:04:44+00:00</time>
      </trkpt>
      <trkpt lat="45.06996" lon="5.8075">
        <ele>1130</ele>
        <time>2024-06-05T19:04:47+00:00</time>
      </trkpt>
      <trkpt lat="45.07003" lon="5.80773">
        <ele>1129</ele>
        <time>2024-06-05T19:04:50+00:00</time>
      </trkpt>
      <trkpt lat="45.0701" lon="5.8079">
        <ele>1128</ele>
        <time>2024-06-05T19:04:53+00:00</time>
      </trkpt>
      <trkpt lat="45.07018" lon="5.80805">
        <ele>1126</ele>
        <time>2024-06-05T19:04:56+00:00</time>
      </trkpt>
      <trkpt lat="45.07023" lon="5.80812">
        <ele>1125</ele>
        <time>2024-06-05T19:04:59+00:00</time>
      </trkpt>
      <trkpt lat="45.07029" lon="5.8082">
        <ele>1125</ele>
        <time>2024-06-05T19:05:02+00:00</time>
      </trkpt>
      <trkpt lat="45.07033" lon="5.80827">
        <ele>1124</ele>
        <time>2024-06-05T19:05:05+00:00</time>
      </trkpt>
      <trkpt lat="45.07037" lon="5.80836">
        <ele>1123</ele>
        <time>2024-06-05T19:05:08+00:00</time>
      </trkpt>
      <trkpt lat="45.07051" lon="5.80839">
        <ele>1123</ele>
        <time>2024-06-05T19:05:11+00:00</time>
      </trkpt>
      <trkpt lat="45.07077" lon="5.80842">
        <ele>1121</ele>
        <time>2024-06-05T19:05:14+00:00</time>
      </trkpt>
      <trkpt lat="45.0709" lon="5.80843">
        <ele>1120</ele>
        <time>2024-06-05T19:05:17+00:00</time>
      </trkpt>
      <trkpt lat="45.07102" lon="5.80843">
        <ele>1117</ele>
        <time>2024-06-05T19:05:20+00:00</time>
      </trkpt>
      <trkpt lat="45.07114" lon="5.80845">
        <ele>1116</ele>
        <time>2024-06-05T19:05:23+00:00</time>
      </trkpt>
      <trkpt lat="45.07127" lon="5.80851">
        <ele>1115</ele>
        <time>2024-06-05T19:05:26+00:00</time>
      </trkpt>
      <trkpt lat="45.07129" lon="5.80857">
        <ele>1115</ele>
        <time>2024-06-05T19:05:29+00:00</time>
      </trkpt>
      <trkpt lat="45.07134" lon="5.80865">
        <ele>1115</ele>
        <time>2024-06-05T19:05:32+00:00</time>
      </trkpt>
      <trkpt lat="45.07153" lon="5.80885">
        <ele>1115</ele>
        <time>2024-06-05T19:05:35+00:00</time>
      </trkpt>
      <trkpt lat="45.0717" lon="5.80903">
        <ele>1116</ele>
        <time>2024-06-05T19:05:38+00:00</time>
      </trkpt>
      <trkpt lat="45.0719" lon="5.80927">
        <ele>1117</ele>
        <time>2024-06-05T19:05:41+00:00</time>
      </trkpt>
      <trkpt lat="45.07205" lon="5.80941">
        <ele>1120</ele>
        <time>2024-06-05T19:05:44+00:00</time>
      </trkpt>
      <trkpt lat="45.07227" lon="5.80959">
        <ele>1118</ele>
        <time>2024-06-05T19:05:47+00:00</time>
      </trkpt>
      <trkpt lat="45.07251" lon="5.80978">
        <ele>1119</ele>
        <time>2024-06-05T19:05:50+00:00</time>
      </trkpt>
      <trkpt lat="45.07262" lon="5.80988">
        <ele>1121</ele>
        <time>2024-06-05T19:05:53+00:00</time>
      </trkpt>
      <trkpt lat="45.07272" lon="5.81003">
        <ele>1121</ele>
        <time>2024-06-05T19:05:56+00:00</time>
      </trkpt>
      <trkpt lat="45.07289" lon="5.81032">
        <ele>1122</ele>
        <time>2024-06-05T19:05:59+00:00</time>
      </trkpt>
      <trkpt lat="45.07296" lon="5.81037">
        <ele>1123</ele>
        <time>2024-06-05T19:06:02+00:00</time>
      </trkpt>
      <trkpt lat="45.0731" lon="5.81044">
        <ele>1121</ele>
        <time>2024-06-05T19:06:05+00:00</time>
      </trkpt>
      <trkpt lat="45.07348" lon="5.81058">
        <ele>1121</ele>
        <time>2024-06-05T19:06:08+00:00</time>
      </trkpt>
      <trkpt lat="45.07349" lon="5.81058">
        <ele>1121</ele>
        <time>2024-06-05T19:06:11+00:00</time>
      </trkpt>
      <trkpt lat="45.0738" lon="5.81073">
        <ele>1122</ele>
        <time>2024-06-05T19:06:14+00:00</time>
      </trkpt>
      <trkpt lat="45.07394" lon="5.81084">
        <ele>1121</ele>
        <time>2024-06-05T19:06:17+00:00</time>
      </trkpt>
      <trkpt lat="45.07399" lon="5.81091">
        <ele>1124</ele>
        <time>2024-06-05T19:06:20+00:00</time>
      </trkpt>
      <trkpt lat="45.07405" lon="5.81098">
        <ele>1121</ele>
        <time>2024-06-05T19:06:23+00:00</time>
      </trkpt>
      <trkpt lat="45.0741" lon="5.8111">
        <ele>1123</ele>
        <time>2024-06-05T19:06:26+00:00</time>
      </trkpt>
      <trkpt lat="45.07416" lon="5.81125">
        <ele>1128</ele>
        <time>2024-06-05T19:06:29+00:00</time>
      </trkpt>
      <trkpt lat="45.07422" lon="5.81145">
        <ele>1132</ele>
        <time>2024-06-05T19:06:32+00:00</time>
      </trkpt>
      <trkpt lat="45.07425" lon="5.8116">
        <ele>1136</ele>
        <time>2024-06-05T19:06:35+00:00</time>
      </trkpt>
      <trkpt lat="45.07425" lon="5.81178">
        <ele>1138</ele>
        <time>2024-06-05T19:06:38+00:00</time>
      </trkpt>
      <trkpt lat="45.07425" lon="5.81187">
        <ele>1139</ele>
        <time>2024-06-05T19:06:41+00:00</time>
      </trkpt>
      <trkpt lat="45.07423" lon="5.81194">
        <ele>1140</ele>
        <time>2024-06-05T19:06:44+00:00</time>
      </trkpt>
      <trkpt lat="45.07419" lon="5.812">
        <ele>1142</ele>
        <time>2024-06-05T19:06:47+00:00</time>
      </trkpt>
      <trkpt lat="45.07413" lon="5.81206">
        <ele>1143</ele>
        <time>2024-06-05T19:06:50+00:00</time>
      </trkpt>
      <trkpt lat="45.07403" lon="5.81216">
        <ele>1145</ele>
        <time>2024-06-05T19:06:53+00:00</time>
      </trkpt>
      <trkpt lat="45.07394" lon="5.81225">
        <ele>1147</ele>
        <time>2024-06-05T19:06:56+00:00</time>
      </trkpt>
      <trkpt lat="45.07386" lon="5.81238">
        <ele>1148</ele>
        <time>2024-06-05T19:06:59+00:00</time>
      </trkpt>
      <trkpt lat="45.07379" lon="5.81252">
        <ele>1150</ele>
        <time>2024-06-05T19:07:02+00:00</time>
      </trkpt>
      <trkpt lat="45.07365" lon="5.81283">
        <ele>1153</ele>
        <time>2024-06-05T19:07:05+00:00</time>
      </trkpt>
      <trkpt lat="45.07358" lon="5.81298">
        <ele>1155</ele>
        <time>2024-06-05T19:07:08+00:00</time>
      </trkpt>
      <trkpt lat="45.07352" lon="5.81304">
        <ele>1155</ele>
        <time>2024-06-05T19:07:11+00:00</time>
      </trkpt>
      <trkpt lat="45.07343" lon="5.81312">
        <ele>1156</ele>
        <time>2024-06-05T19:07:14+00:00</time>
      </trkpt>
      <trkpt lat="45.07332" lon="5.81319">
        <ele>1156</ele>
        <time>2024-06-05T19:07:17+00:00</time>
      </trkpt>
      <trkpt lat="45.07318" lon="5.81329">
        <ele>1158</ele>
        <time>2024-06-05T19:07:20+00:00</time>
      </trkpt>
      <trkpt lat="45.0729" lon="5.8135">
        <ele>1158</ele>
        <time>2024-06-05T19:07:23+00:00</time>
      </trkpt>
      <trkpt lat="45.07279" lon="5.81357">
        <ele>1160</ele>
        <time>2024-06-05T19:07:26+00:00</time>
      </trkpt>
      <trkpt lat="45.07258" lon="5.81368">
        <ele>1161</ele>
        <time>2024-06-05T19:07:29+00:00</time>
      </trkpt>
      <trkpt lat="45.0724" lon="5.81382">
        <ele>1161</ele>
        <time>2024-06-05T19:07:32+00:00</time>
      </trkpt>
      <trkpt lat="45.07219" lon="5.81402">
        <ele>1164</ele>
        <time>2024-06-05T19:07:35+00:00</time>
      </trkpt>
      <trkpt lat="45.07196" lon="5.81428">
        <ele>1164</ele>
        <time>2024-06-05T19:07:38+00:00</time>
      </trkpt>
      <trkpt lat="45.07192" lon="5.81435">
        <ele>1165</ele>
        <time>2024-06-05T19:07:41+00:00</time>
      </trkpt>
      <trkpt lat="45.07191" lon="5.81438">
        <ele>1165</ele>
        <time>2024-06-05T19:07:44+00:00</time>
      </trkpt>
      <trkpt lat="45.07192" lon="5.81442">
        <ele>1164</ele>
        <time>2024-06-05T19:07:47+00:00</time>
      </trkpt>
      <trkpt lat="45.07193" lon="5.81445">
        <ele>1164</ele>
        <time>2024-06-05T19:07:50+00:00</time>
      </trkpt>
      <trkpt lat="45.07194" lon="5.81448">
        <ele>1164</ele>
        <time>2024-06-05T19:07:53+00:00</time>
      </trkpt>
      <trkpt lat="45.072" lon="5.81456">
        <ele>1164</ele>
        <time>2024-06-05T19:07:56+00:00</time>
      </trkpt>
      <trkpt lat="45.07205" lon="5.81461">
        <ele>1164</ele>
        <time>2024-06-05T19:07:59+00:00</time>
      </trkpt>
      <trkpt lat="45.07208" lon="5.81466">
        <ele>1164</ele>
        <time>2024-06-05T19:08:02+00:00</time>
      </trkpt>
      <trkpt lat="45.07217" lon="5.81473">
        <ele>1165</ele>
        <time>2024-06-05T19:08:05+00:00</time>
      </trkpt>
      <trkpt lat="45.07229" lon="5.81481">
        <ele>1166</ele>
        <time>2024-06-05T19:08:08+00:00</time>
      </trkpt>
      <trkpt lat="45.07236" lon="5.81491">
        <ele>1168</ele>
        <time>2024-06-05T19:08:11+00:00</time>
      </trkpt>
      <trkpt lat="45.07245" lon="5.81509">
        <ele>1172</ele>
        <time>2024-06-05T19:08:14+00:00</time>
      </trkpt>
      <trkpt lat="45.07256" lon="5.81532">
        <ele>1176</ele>
        <time>2024-06-05T19:08:17+00:00</time>
      </trkpt>
      <trkpt lat="45.07259" lon="5.81543">
        <ele>1176</ele>
        <time>2024-06-05T19:08:20+00:00</time>
      </trkpt>
      <trkpt lat="45.07272" lon="5.81556">
        <ele>1185</ele>
        <time>2024-06-05T19:08:23+00:00</time>
      </trkpt>
      <trkpt lat="45.07276" lon="5.8157">
        <ele>1187</ele>
        <time>2024-06-05T19:08:26+00:00</time>
      </trkpt>
      <trkpt lat="45.07292" lon="5.81588">
        <ele>1197</ele>
        <time>2024-06-05T19:08:29+00:00</time>
      </trkpt>
      <trkpt lat="45.07313" lon="5.81609">
        <ele>1204</ele>
        <time>2024-06-05T19:08:32+00:00</time>
      </trkpt>
      <trkpt lat="45.07331" lon="5.81633">
        <ele>1210</ele>
        <time>2024-06-05T19:08:35+00:00</time>
      </trkpt>
      <trkpt lat="45.07349" lon="5.81661">
        <ele>1216</ele>
        <time>2024-06-05T19:08:38+00:00</time>
      </trkpt>
      <trkpt lat="45.0736" lon="5.81682">
        <ele>1220</ele>
        <time>2024-06-05T19:08:41+00:00</time>
      </trkpt>
      <trkpt lat="45.07377" lon="5.81711">
        <ele>1228</ele>
        <time>2024-06-05T19:08:44+00:00</time>
      </trkpt>
      <trkpt lat="45.07386" lon="5.81727">
        <ele>1231</ele>
        <time>2024-06-05T19:08:47+00:00</time>
      </trkpt>
      <trkpt lat="45.07395" lon="5.81739">
        <ele>1233</ele>
        <time>2024-06-05T19:08:50+00:00</time>
      </trkpt>
      <trkpt lat="45.07403" lon="5.81754">
        <ele>1238</ele>
        <time>2024-06-05T19:08:53+00:00</time>
      </trkpt>
      <trkpt lat="45.07409" lon="5.8176">
        <ele>1238</ele>
        <time>2024-06-05T19:08:56+00:00</time>
      </trkpt>
      <trkpt lat="45.07419" lon="5.81767">
        <ele>1241</ele>
        <time>2024-06-05T19:08:59+00:00</time>
      </trkpt>
      <trkpt lat="45.07429" lon="5.81773">
        <ele>1244</ele>
        <time>2024-06-05T19:09:02+00:00</time>
      </trkpt>
      <trkpt lat="45.07436" lon="5.81776">
        <ele>1246</ele>
        <time>2024-06-05T19:09:05+00:00</time>
      </trkpt>
      <trkpt lat="45.07447" lon="5.81776">
        <ele>1247</ele>
        <time>2024-06-05T19:09:08+00:00</time>
      </trkpt>
      <trkpt lat="45.0745" lon="5.81776">
        <ele>1248</ele>
        <time>2024-06-05T19:09:11+00:00</time>
      </trkpt>
      <trkpt lat="45.07453" lon="5.81778">
        <ele>1248</ele>
        <time>2024-06-05T19:09:14+00:00</time>
      </trkpt>
      <trkpt lat="45.07461" lon="5.81792">
        <ele>1252</ele>
        <time>2024-06-05T19:09:17+00:00</time>
      </trkpt>
      <trkpt lat="45.07471" lon="5.81811">
        <ele>1257</ele>
        <time>2024-06-05T19:09:20+00:00</time>
      </trkpt>
      <trkpt lat="45.07489" lon="5.81829">
        <ele>1259</ele>
        <time>2024-06-05T19:09:23+00:00</time>
      </trkpt>
      <trkpt lat="45.07505" lon="5.81844">
        <ele>1265</ele>
        <time>2024-06-05T19:09:26+00:00</time>
      </trkpt>
      <trkpt lat="45.07517" lon="5.81855">
        <ele>1268</ele>
        <time>2024-06-05T19:09:29+00:00</time>
      </trkpt>
      <trkpt lat="45.07529" lon="5.81866">
        <ele>1272</ele>
        <time>2024-06-05T19:09:32+00:00</time>
      </trkpt>
      <trkpt lat="45.07555" lon="5.8191">
        <ele>1282</ele>
        <time>2024-06-05T19:09:35+00:00</time>
      </trkpt>
      <trkpt lat="45.0758" lon="5.81922">
        <ele>1288</ele>
        <time>2024-06-05T19:09:38+00:00</time>
      </trkpt>
      <trkpt lat="45.07602" lon="5.81943">
        <ele>1294</ele>
        <time>2024-06-05T19:09:41+00:00</time>
      </trkpt>
      <trkpt lat="45.07621" lon="5.8197">
        <ele>1300</ele>
        <time>2024-06-05T19:09:44+00:00</time>
      </trkpt>
      <trkpt lat="45.07646" lon="5.82006">
        <ele>1308</ele>
        <time>2024-06-05T19:09:47+00:00</time>
      </trkpt>
      <trkpt lat="45.07656" lon="5.82024">
        <ele>1311</ele>
        <time>2024-06-05T19:09:50+00:00</time>
      </trkpt>
      <trkpt lat="45.07659" lon="5.82054">
        <ele>1312</ele>
        <time>2024-06-05T19:09:53+00:00</time>
      </trkpt>
      <trkpt lat="45.07662" lon="5.82094">
        <ele>1313</ele>
        <time>2024-06-05T19:09:56+00:00</time>
      </trkpt>
      <trkpt lat="45.07678" lon="5.8212">
        <ele>1314</ele>
        <time>2024-06-05T19:09:59+00:00</time>
      </trkpt>
      <trkpt lat="45.07696" lon="5.82148">
        <ele>1316</ele>
        <time>2024-06-05T19:10:02+00:00</time>
      </trkpt>
      <trkpt lat="45.07718" lon="5.82166">
        <ele>1319</ele>
        <time>2024-06-05T19:10:05+00:00</time>
      </trkpt>
      <trkpt lat="45.07736" lon="5.82195">
        <ele>1322</ele>
        <time>2024-06-05T19:10:08+00:00</time>
      </trkpt>
      <trkpt lat="45.07739" lon="5.82199">
        <ele>1322</ele>
        <time>2024-06-05T19:10:11+00:00</time>
      </trkpt>
      <trkpt lat="45.07742" lon="5.82207">
        <ele>1323</ele>
        <time>2024-06-05T19:10:14+00:00</time>
      </trkpt>
      <trkpt lat="45.07751" lon="5.82223">
        <ele>1323</ele>
        <time>2024-06-05T19:10:17+00:00</time>
      </trkpt>
      <trkpt lat="45.07759" lon="5.82234">
        <ele>1323</ele>
        <time>2024-06-05T19:10:20+00:00</time>
      </trkpt>
      <trkpt lat="45.07768" lon="5.82242">
        <ele>1325</ele>
        <time>2024-06-05T19:10:23+00:00</time>
      </trkpt>
      <trkpt lat="45.07774" lon="5.82257">
        <ele>1326</ele>
        <time>2024-06-05T19:10:26+00:00</time>
      </trkpt>
      <trkpt lat="45.07782" lon="5.82268">
        <ele>1327</ele>
        <time>2024-06-05T19:10:29+00:00</time>
      </trkpt>
      <trkpt lat="45.07782" lon="5.82268">
        <ele>1327</ele>
        <time>2024-06-05T19:10:32+00:00</time>
      </trkpt>
      <trkpt lat="45.07782" lon="5.82268">
        <ele>1327</ele>
        <time>2024-06-05T19:10:35+00:00</time>
      </trkpt>
      <trkpt lat="45.07795" lon="5.82277">
        <ele>1328</ele>
        <time>2024-06-05T19:10:38+00:00</time>
      </trkpt>
      <trkpt lat="45.07822" lon="5.82293">
        <ele>1332</ele>
        <time>2024-06-05T19:10:41+00:00</time>
      </trkpt>
      <trkpt lat="45.07829" lon="5.82296">
        <ele>1332</ele>
        <time>2024-06-05T19:10:44+00:00</time>
      </trkpt>
      <trkpt lat="45.07852" lon="5.82307">
        <ele>1334</ele>
        <time>2024-06-05T19:10:47+00:00</time>
      </trkpt>
      <trkpt lat="45.07879" lon="5.82319">
        <ele>1334</ele>
        <time>2024-06-05T19:10:50+00:00</time>
      </trkpt>
      <trkpt lat="45.0789" lon="5.82324">
        <ele>1333</ele>
        <time>2024-06-05T19:10:53+00:00</time>
      </trkpt>
      <trkpt lat="45.07902" lon="5.82332">
        <ele>1333</ele>
        <time>2024-06-05T19:10:56+00:00</time>
      </trkpt>
      <trkpt lat="45.07923" lon="5.82351">
        <ele>1330</ele>
        <time>2024-06-05T19:10:59+00:00</time>
      </trkpt>
      <trkpt lat="45.07937" lon="5.82363">
        <ele>1328</ele>
        <time>2024-06-05T19:11:02+00:00</time>
      </trkpt>
      <trkpt lat="45.0796" lon="5.82372">
        <ele>1326</ele>
        <time>2024-06-05T19:11:05+00:00</time>
      </trkpt>
      <trkpt lat="45.07986" lon="5.82378">
        <ele>1323</ele>
        <time>2024-06-05T19:11:08+00:00</time>
      </trkpt>
      <trkpt lat="45.0801" lon="5.82378">
        <ele>1321</ele>
        <time>2024-06-05T19:11:11+00:00</time>
      </trkpt>
      <trkpt lat="45.08028" lon="5.82375">
        <ele>1319</ele>
        <time>2024-06-05T19:11:14+00:00</time>
      </trkpt>
      <trkpt lat="45.08042" lon="5.8237">
        <ele>1320</ele>
        <time>2024-06-05T19:11:17+00:00</time>
      </trkpt>
      <trkpt lat="45.0807" lon="5.82358">
        <ele>1319</ele>
        <time>2024-06-05T19:11:20+00:00</time>
      </trkpt>
      <trkpt lat="45.08107" lon="5.8234">
        <ele>1319</ele>
        <time>2024-06-05T19:11:23+00:00</time>
      </trkpt>
      <trkpt lat="45.08139" lon="5.8232">
        <ele>1319</ele>
        <time>2024-06-05T19:11:26+00:00</time>
      </trkpt>
      <trkpt lat="45.08165" lon="5.82305">
        <ele>1320</ele>
        <time>2024-06-05T19:11:29+00:00</time>
      </trkpt>
      <trkpt lat="45.08196" lon="5.82285">
        <ele>1322</ele>
        <time>2024-06-05T19:11:32+00:00</time>
      </trkpt>
      <trkpt lat="45.08227" lon="5.82269">
        <ele>1322</ele>
        <time>2024-06-05T19:11:35+00:00</time>
      </trkpt>
      <trkpt lat="45.08252" lon="5.82255">
        <ele>1322</ele>
        <time>2024-06-05T19:11:38+00:00</time>
      </trkpt>
      <trkpt lat="45.08267" lon="5.82242">
        <ele>1322</ele>
        <time>2024-06-05T19:11:41+00:00</time>
      </trkpt>
      <trkpt lat="45.08268" lon="5.82248">
        <ele>1322</ele>
        <time>2024-06-05T19:11:44+00:00</time>
      </trkpt>
      <trkpt lat="45.0828" lon="5.82285">
        <ele>1330</ele>
        <time>2024-06-05T19:11:47+00:00</time>
      </trkpt>
      <trkpt lat="45.083" lon="5.82329">
        <ele>1335</ele>
        <time>2024-06-05T19:11:50+00:00</time>
      </trkpt>
      <trkpt lat="45.08309" lon="5.82345">
        <ele>1339</ele>
        <time>2024-06-05T19:11:53+00:00</time>
      </trkpt>
      <trkpt lat="45.0831" lon="5.82347">
        <ele>1338</ele>
        <time>2024-06-05T19:11:56+00:00</time>
      </trkpt>
      <trkpt lat="45.08314" lon="5.82356">
        <ele>1339</ele>
        <time>2024-06-05T19:11:59+00:00</time>
      </trkpt>
      <trkpt lat="45.08316" lon="5.82368">
        <ele>1340</ele>
        <time>2024-06-05T19:12:02+00:00</time>
      </trkpt>
      <trkpt lat="45.08326" lon="5.82403">
        <ele>1345</ele>
        <time>2024-06-05T19:12:05+00:00</time>
      </trkpt>
      <trkpt lat="45.08337" lon="5.82443">
        <ele>1348</ele>
        <time>2024-06-05T19:12:08+00:00</time>
      </trkpt>
      <trkpt lat="45.08341" lon="5.82476">
        <ele>1351</ele>
        <time>2024-06-05T19:12:11+00:00</time>
      </trkpt>
      <trkpt lat="45.08349" lon="5.82509">
        <ele>1354</ele>
        <time>2024-06-05T19:12:14+00:00</time>
      </trkpt>
      <trkpt lat="45.08356" lon="5.82544">
        <ele>1355</ele>
        <time>2024-06-05T19:12:17+00:00</time>
      </trkpt>
      <trkpt lat="45.0836" lon="5.82586">
        <ele>1356</ele>
        <time>2024-06-05T19:12:20+00:00</time>
      </trkpt>
      <trkpt lat="45.08365" lon="5.8262">
        <ele>1359</ele>
        <time>2024-06-05T19:12:23+00:00</time>
      </trkpt>
      <trkpt lat="45.08377" lon="5.82657">
        <ele>1364</ele>
        <time>2024-06-05T19:12:26+00:00</time>
      </trkpt>
      <trkpt lat="45.08378" lon="5.82668">
        <ele>1365</ele>
        <time>2024-06-05T19:12:29+00:00</time>
      </trkpt>
      <trkpt lat="45.08379" lon="5.82679">
        <ele>1366</ele>
        <time>2024-06-05T19:12:32+00:00</time>
      </trkpt>
      <trkpt lat="45.08379" lon="5.82694">
        <ele>1370</ele>
        <time>2024-06-05T19:12:35+00:00</time>
      </trkpt>
      <trkpt lat="45.08385" lon="5.82754">
        <ele>1376</ele>
        <time>2024-06-05T19:12:38+00:00</time>
      </trkpt>
      <trkpt lat="45.08393" lon="5.82774">
        <ele>1377</ele>
        <time>2024-06-05T19:12:41+00:00</time>
      </trkpt>
      <trkpt lat="45.084" lon="5.82784">
        <ele>1377</ele>
        <time>2024-06-05T19:12:44+00:00</time>
      </trkpt>
      <trkpt lat="45.08416" lon="5.82823">
        <ele>1377</ele>
        <time>2024-06-05T19:12:47+00:00</time>
      </trkpt>
      <trkpt lat="45.08424" lon="5.82849">
        <ele>1377</ele>
        <time>2024-06-05T19:12:50+00:00</time>
      </trkpt>
      <trkpt lat="45.08433" lon="5.82866">
        <ele>1377</ele>
        <time>2024-06-05T19:12:53+00:00</time>
      </trkpt>
      <trkpt lat="45.08437" lon="5.82871">
        <ele>1377</ele>
        <time>2024-06-05T19:12:56+00:00</time>
      </trkpt>
      <trkpt lat="45.08441" lon="5.82878">
        <ele>1375</ele>
        <time>2024-06-05T19:12:59+00:00</time>
      </trkpt>
      <trkpt lat="45.08443" lon="5.82903">
        <ele>1377</ele>
        <time>2024-06-05T19:13:02+00:00</time>
      </trkpt>
      <trkpt lat="45.08442" lon="5.82936">
        <ele>1377</ele>
        <time>2024-06-05T19:13:05+00:00</time>
      </trkpt>
      <trkpt lat="45.08449" lon="5.82972">
        <ele>1377</ele>
        <time>2024-06-05T19:13:08+00:00</time>
      </trkpt>
      <trkpt lat="45.08469" lon="5.83002">
        <ele>1377</ele>
        <time>2024-06-05T19:13:11+00:00</time>
      </trkpt>
      <trkpt lat="45.08497" lon="5.83034">
        <ele>1378</ele>
        <time>2024-06-05T19:13:14+00:00</time>
      </trkpt>
      <trkpt lat="45.08522" lon="5.83043">
        <ele>1379</ele>
        <time>2024-06-05T19:13:17+00:00</time>
      </trkpt>
      <trkpt lat="45.08551" lon="5.83045">
        <ele>1385</ele>
        <time>2024-06-05T19:13:20+00:00</time>
      </trkpt>
      <trkpt lat="45.08559" lon="5.83044">
        <ele>1385</ele>
        <time>2024-06-05T19:13:23+00:00</time>
      </trkpt>
      <trkpt lat="45.08571" lon="5.83029">
        <ele>1385</ele>
        <time>2024-06-05T19:13:26+00:00</time>
      </trkpt>
      <trkpt lat="45.08583" lon="5.83006">
        <ele>1385</ele>
        <time>2024-06-05T19:13:29+00:00</time>
      </trkpt>
      <trkpt lat="45.08603" lon="5.82984">
        <ele>1385</ele>
        <time>2024-06-05T19:13:32+00:00</time>
      </trkpt>
      <trkpt lat="45.08621" lon="5.82965">
        <ele>1383</ele>
        <time>2024-06-05T19:13:35+00:00</time>
      </trkpt>
      <trkpt lat="45.08636" lon="5.82955">
        <ele>1382</ele>
        <time>2024-06-05T19:13:38+00:00</time>
      </trkpt>
      <trkpt lat="45.08645" lon="5.82952">
        <ele>1382</ele>
        <time>2024-06-05T19:13:41+00:00</time>
      </trkpt>
      <trkpt lat="45.08656" lon="5.82954">
        <ele>1382</ele>
        <time>2024-06-05T19:13:44+00:00</time>
      </trkpt>
      <trkpt lat="45.08663" lon="5.8296">
        <ele>1383</ele>
        <time>2024-06-05T19:13:47+00:00</time>
      </trkpt>
      <trkpt lat="45.08672" lon="5.82978">
        <ele>1381</ele>
        <time>2024-06-05T19:13:50+00:00</time>
      </trkpt>
      <trkpt lat="45.08677" lon="5.82994">
        <ele>1384</ele>
        <time>2024-06-05T19:13:53+00:00</time>
      </trkpt>
      <trkpt lat="45.08681" lon="5.83017">
        <ele>1382</ele>
        <time>2024-06-05T19:13:56+00:00</time>
      </trkpt>
      <trkpt lat="45.08682" lon="5.83044">
        <ele>1384</ele>
        <time>2024-06-05T19:13:59+00:00</time>
      </trkpt>
      <trkpt lat="45.08683" lon="5.83069">
        <ele>1384</ele>
        <time>2024-06-05T19:14:02+00:00</time>
      </trkpt>
      <trkpt lat="45.08688" lon="5.831">
        <ele>1384</ele>
        <time>2024-06-05T19:14:05+00:00</time>
      </trkpt>
      <trkpt lat="45.08697" lon="5.83128">
        <ele>1384</ele>
        <time>2024-06-05T19:14:08+00:00</time>
      </trkpt>
      <trkpt lat="45.08703" lon="5.83143">
        <ele>1381</ele>
        <time>2024-06-05T19:14:11+00:00</time>
      </trkpt>
      <trkpt lat="45.08712" lon="5.83165">
        <ele>1380</ele>
        <time>2024-06-05T19:14:14+00:00</time>
      </trkpt>
      <trkpt lat="45.0872" lon="5.83187">
        <ele>1382</ele>
        <time>2024-06-05T19:14:17+00:00</time>
      </trkpt>
      <trkpt lat="45.08737" lon="5.83231">
        <ele>1382</ele>
        <time>2024-06-05T19:14:20+00:00</time>
      </trkpt>
      <trkpt lat="45.08746" lon="5.83248">
        <ele>1382</ele>
        <time>2024-06-05T19:14:23+00:00</time>
      </trkpt>
      <trkpt lat="45.08751" lon="5.83256">
        <ele>1382</ele>
        <time>2024-06-05T19:14:26+00:00</time>
      </trkpt>
      <trkpt lat="45.08756" lon="5.83265">
        <ele>1383</ele>
        <time>2024-06-05T19:14:29+00:00</time>
      </trkpt>
      <trkpt lat="45.0876" lon="5.8327">
        <ele>1378</ele>
        <time>2024-06-05T19:14:32+00:00</time>
      </trkpt>
      <trkpt lat="45.08766" lon="5.83274">
        <ele>1380</ele>
        <time>2024-06-05T19:14:35+00:00</time>
      </trkpt>
      <trkpt lat="45.08773" lon="5.83276">
        <ele>1377</ele>
        <time>2024-06-05T19:14:38+00:00</time>
      </trkpt>
      <trkpt lat="45.08787" lon="5.8328">
        <ele>1377</ele>
        <time>2024-06-05T19:14:41+00:00</time>
      </trkpt>
      <trkpt lat="45.08808" lon="5.83293">
        <ele>1372</ele>
        <time>2024-06-05T19:14:44+00:00</time>
      </trkpt>
      <trkpt lat="45.08828" lon="5.83314">
        <ele>1372</ele>
        <time>2024-06-05T19:14:47+00:00</time>
      </trkpt>
      <trkpt lat="45.08848" lon="5.83338">
        <ele>1372</ele>
        <time>2024-06-05T19:14:50+00:00</time>
      </trkpt>
      <trkpt lat="45.08862" lon="5.83357">
        <ele>1372</ele>
        <time>2024-06-05T19:14:53+00:00</time>
      </trkpt>
      <trkpt lat="45.08874" lon="5.83368">
        <ele>1373</ele>
        <time>2024-06-05T19:14:56+00:00</time>
      </trkpt>
      <trkpt lat="45.08884" lon="5.83376">
        <ele>1374</ele>
        <time>2024-06-05T19:14:59+00:00</time>
      </trkpt>
      <trkpt lat="45.08909" lon="5.83392">
        <ele>1374</ele>
        <time>2024-06-05T19:15:02+00:00</time>
      </trkpt>
      <trkpt lat="45.08926" lon="5.83407">
        <ele>1374</ele>
        <time>2024-06-05T19:15:05+00:00</time>
      </trkpt>
      <trkpt lat="45.08939" lon="5.83419">
        <ele>1375</ele>
        <time>2024-06-05T19:15:08+00:00</time>
      </trkpt>
      <trkpt lat="45.08952" lon="5.83434">
        <ele>1375</ele>
        <time>2024-06-05T19:15:11+00:00</time>
      </trkpt>
      <trkpt lat="45.08966" lon="5.83449">
        <ele>1375</ele>
        <time>2024-06-05T19:15:14+00:00</time>
      </trkpt>
      <trkpt lat="45.08994" lon="5.83483">
        <ele>1375</ele>
        <time>2024-06-05T19:15:17+00:00</time>
      </trkpt>
      <trkpt lat="45.09015" lon="5.83508">
        <ele>1373</ele>
        <time>2024-06-05T19:15:20+00:00</time>
      </trkpt>
      <trkpt lat="45.09015" lon="5.83508">
        <ele>1373</ele>
        <time>2024-06-05T19:15:23+00:00</time>
      </trkpt>
      <trkpt lat="45.09015" lon="5.83508">
        <ele>1373</ele>
        <time>2024-06-05T19:15:26+00:00</time>
      </trkpt>
      <trkpt lat="45.09034" lon="5.83528">
        <ele>1370</ele>
        <time>2024-06-05T19:15:29+00:00</time>
      </trkpt>
      <trkpt lat="45.0907" lon="5.83567">
        <ele>1367</ele>
        <time>2024-06-05T19:15:32+00:00</time>
      </trkpt>
      <trkpt lat="45.091" lon="5.83607">
        <ele>1362</ele>
        <time>2024-06-05T19:15:35+00:00</time>
      </trkpt>
      <trkpt lat="45.09126" lon="5.83654">
        <ele>1358</ele>
        <time>2024-06-05T19:15:38+00:00</time>
      </trkpt>
      <trkpt lat="45.09137" lon="5.83693">
        <ele>1357</ele>
        <time>2024-06-05T19:15:41+00:00</time>
      </trkpt>
      <trkpt lat="45.0914" lon="5.83709">
        <ele>1357</ele>
        <time>2024-06-05T19:15:44+00:00</time>
      </trkpt>
      <trkpt lat="45.09141" lon="5.83719">
        <ele>1354</ele>
        <time>2024-06-05T19:15:47+00:00</time>
      </trkpt>
      <trkpt lat="45.09144" lon="5.83742">
        <ele>1353</ele>
        <time>2024-06-05T19:15:50+00:00</time>
      </trkpt>
      <trkpt lat="45.09144" lon="5.83767">
        <ele>1352</ele>
        <time>2024-06-05T19:15:53+00:00</time>
      </trkpt>
      <trkpt lat="45.09143" lon="5.83807">
        <ele>1347</ele>
        <time>2024-06-05T19:15:56+00:00</time>
      </trkpt>
      <trkpt lat="45.09142" lon="5.83829">
        <ele>1344</ele>
        <time>2024-06-05T19:15:59+00:00</time>
      </trkpt>
      <trkpt lat="45.0914" lon="5.83843">
        <ele>1340</ele>
        <time>2024-06-05T19:16:02+00:00</time>
      </trkpt>
      <trkpt lat="45.09137" lon="5.83851">
        <ele>1340</ele>
        <time>2024-06-05T19:16:05+00:00</time>
      </trkpt>
      <trkpt lat="45.09127" lon="5.83867">
        <ele>1339</ele>
        <time>2024-06-05T19:16:08+00:00</time>
      </trkpt>
      <trkpt lat="45.09115" lon="5.83877">
        <ele>1340</ele>
        <time>2024-06-05T19:16:11+00:00</time>
      </trkpt>
      <trkpt lat="45.09092" lon="5.83892">
        <ele>1338</ele>
        <time>2024-06-05T19:16:14+00:00</time>
      </trkpt>
      <trkpt lat="45.09071" lon="5.83905">
        <ele>1338</ele>
        <time>2024-06-05T19:16:17+00:00</time>
      </trkpt>
      <trkpt lat="45.09053" lon="5.8392">
        <ele>1337</ele>
        <time>2024-06-05T19:16:20+00:00</time>
      </trkpt>
      <trkpt lat="45.09036" lon="5.83936">
        <ele>1336</ele>
        <time>2024-06-05T19:16:23+00:00</time>
      </trkpt>
      <trkpt lat="45.09019" lon="5.83948">
        <ele>1337</ele>
        <time>2024-06-05T19:16:26+00:00</time>
      </trkpt>
      <trkpt lat="45.09005" lon="5.83955">
        <ele>1336</ele>
        <time>2024-06-05T19:16:29+00:00</time>
      </trkpt>
      <trkpt lat="45.08992" lon="5.83963">
        <ele>1334</ele>
        <time>2024-06-05T19:16:32+00:00</time>
      </trkpt>
      <trkpt lat="45.08974" lon="5.83978">
        <ele>1336</ele>
        <time>2024-06-05T19:16:35+00:00</time>
      </trkpt>
      <trkpt lat="45.08964" lon="5.83991">
        <ele>1332</ele>
        <time>2024-06-05T19:16:38+00:00</time>
      </trkpt>
      <trkpt lat="45.08946" lon="5.84015">
        <ele>1331</ele>
        <time>2024-06-05T19:16:41+00:00</time>
      </trkpt>
      <trkpt lat="45.0893" lon="5.8405">
        <ele>1331</ele>
        <time>2024-06-05T19:16:44+00:00</time>
      </trkpt>
      <trkpt lat="45.08915" lon="5.84081">
        <ele>1329</ele>
        <time>2024-06-05T19:16:47+00:00</time>
      </trkpt>
      <trkpt lat="45.08905" lon="5.84107">
        <ele>1328</ele>
        <time>2024-06-05T19:16:50+00:00</time>
      </trkpt>
      <trkpt lat="45.08902" lon="5.84123">
        <ele>1324</ele>
        <time>2024-06-05T19:16:53+00:00</time>
      </trkpt>
      <trkpt lat="45.089" lon="5.84147">
        <ele>1319</ele>
        <time>2024-06-05T19:16:56+00:00</time>
      </trkpt>
      <trkpt lat="45.08903" lon="5.84179">
        <ele>1315</ele>
        <time>2024-06-05T19:16:59+00:00</time>
      </trkpt>
      <trkpt lat="45.08903" lon="5.8419">
        <ele>1314</ele>
        <time>2024-06-05T19:17:02+00:00</time>
      </trkpt>
      <trkpt lat="45.08903" lon="5.84213">
        <ele>1313</ele>
        <time>2024-06-05T19:17:05+00:00</time>
      </trkpt>
      <trkpt lat="45.08904" lon="5.8423">
        <ele>1312</ele>
        <time>2024-06-05T19:17:08+00:00</time>
      </trkpt>
      <trkpt lat="45.08907" lon="5.84257">
        <ele>1313</ele>
        <time>2024-06-05T19:17:11+00:00</time>
      </trkpt>
      <trkpt lat="45.08913" lon="5.84291">
        <ele>1310</ele>
        <time>2024-06-05T19:17:14+00:00</time>
      </trkpt>
      <trkpt lat="45.0892" lon="5.84311">
        <ele>1309</ele>
        <time>2024-06-05T19:17:17+00:00</time>
      </trkpt>
      <trkpt lat="45.08926" lon="5.8432">
        <ele>1310</ele>
        <time>2024-06-05T19:17:20+00:00</time>
      </trkpt>
      <trkpt lat="45.08942" lon="5.84334">
        <ele>1299</ele>
        <time>2024-06-05T19:17:23+00:00</time>
      </trkpt>
      <trkpt lat="45.08956" lon="5.84344">
        <ele>1297</ele>
        <time>2024-06-05T19:17:26+00:00</time>
      </trkpt>
      <trkpt lat="45.08963" lon="5.84353">
        <ele>1294</ele>
        <time>2024-06-05T19:17:29+00:00</time>
      </trkpt>
      <trkpt lat="45.0897" lon="5.84366">
        <ele>1296</ele>
        <time>2024-06-05T19:17:32+00:00</time>
      </trkpt>
      <trkpt lat="45.08975" lon="5.84376">
        <ele>1294</ele>
        <time>2024-06-05T19:17:35+00:00</time>
      </trkpt>
      <trkpt lat="45.08985" lon="5.84396">
        <ele>1297</ele>
        <time>2024-06-05T19:17:38+00:00</time>
      </trkpt>
      <trkpt lat="45.09005" lon="5.84428">
        <ele>1298</ele>
        <time>2024-06-05T19:17:41+00:00</time>
      </trkpt>
      <trkpt lat="45.09013" lon="5.84439">
        <ele>1299</ele>
        <time>2024-06-05T19:17:44+00:00</time>
      </trkpt>
      <trkpt lat="45.09019" lon="5.84445">
        <ele>1301</ele>
        <time>2024-06-05T19:17:47+00:00</time>
      </trkpt>
      <trkpt lat="45.09039" lon="5.84459">
        <ele>1300</ele>
        <time>2024-06-05T19:17:50+00:00</time>
      </trkpt>
      <trkpt lat="45.09067" lon="5.84479">
        <ele>1297</ele>
        <time>2024-06-05T19:17:53+00:00</time>
      </trkpt>
      <trkpt lat="45.09072" lon="5.84481">
        <ele>1300</ele>
        <time>2024-06-05T19:17:56+00:00</time>
      </trkpt>
      <trkpt lat="45.09081" lon="5.84485">
        <ele>1298</ele>
        <time>2024-06-05T19:17:59+00:00</time>
      </trkpt>
      <trkpt lat="45.09103" lon="5.84503">
        <ele>1294</ele>
        <time>2024-06-05T19:18:02+00:00</time>
      </trkpt>
      <trkpt lat="45.0911" lon="5.84513">
        <ele>1295</ele>
        <time>2024-06-05T19:18:05+00:00</time>
      </trkpt>
      <trkpt lat="45.09111" lon="5.84523">
        <ele>1292</ele>
        <time>2024-06-05T19:18:08+00:00</time>
      </trkpt>
      <trkpt lat="45.09113" lon="5.84534">
        <ele>1293</ele>
        <time>2024-06-05T19:18:11+00:00</time>
      </trkpt>
      <trkpt lat="45.09117" lon="5.84555">
        <ele>1294</ele>
        <time>2024-06-05T19:18:14+00:00</time>
      </trkpt>
      <trkpt lat="45.09122" lon="5.84576">
        <ele>1288</ele>
        <time>2024-06-05T19:18:17+00:00</time>
      </trkpt>
      <trkpt lat="45.09121" lon="5.84587">
        <ele>1288</ele>
        <time>2024-06-05T19:18:20+00:00</time>
      </trkpt>
      <trkpt lat="45.09123" lon="5.84601">
        <ele>1288</ele>
        <time>2024-06-05T19:18:23+00:00</time>
      </trkpt>
      <trkpt lat="45.09122" lon="5.84642">
        <ele>1285</ele>
        <time>2024-06-05T19:18:26+00:00</time>
      </trkpt>
      <trkpt lat="45.09124" lon="5.84658">
        <ele>1283</ele>
        <time>2024-06-05T19:18:29+00:00</time>
      </trkpt>
      <trkpt lat="45.09128" lon="5.84675">
        <ele>1279</ele>
        <time>2024-06-05T19:18:32+00:00</time>
      </trkpt>
      <trkpt lat="45.0914" lon="5.847">
        <ele>1271</ele>
        <time>2024-06-05T19:18:35+00:00</time>
      </trkpt>
      <trkpt lat="45.09158" lon="5.84724">
        <ele>1262</ele>
        <time>2024-06-05T19:18:38+00:00</time>
      </trkpt>
      <trkpt lat="45.09162" lon="5.8473">
        <ele>1261</ele>
        <time>2024-06-05T19:18:41+00:00</time>
      </trkpt>
      <trkpt lat="45.09168" lon="5.84737">
        <ele>1260</ele>
        <time>2024-06-05T19:18:44+00:00</time>
      </trkpt>
      <trkpt lat="45.09169" lon="5.84748">
        <ele>1258</ele>
        <time>2024-06-05T19:18:47+00:00</time>
      </trkpt>
      <trkpt lat="45.0917" lon="5.8476">
        <ele>1256</ele>
        <time>2024-06-05T19:18:50+00:00</time>
      </trkpt>
      <trkpt lat="45.09164" lon="5.84775">
        <ele>1258</ele>
        <time>2024-06-05T19:18:53+00:00</time>
      </trkpt>
      <trkpt lat="45.09159" lon="5.84788">
        <ele>1258</ele>
        <time>2024-06-05T19:18:56+00:00</time>
      </trkpt>
      <trkpt lat="45.09157" lon="5.84801">
        <ele>1259</ele>
        <time>2024-06-05T19:18:59+00:00</time>
      </trkpt>
      <trkpt lat="45.09152" lon="5.84808">
        <ele>1259</ele>
        <time>2024-06-05T19:19:02+00:00</time>
      </trkpt>
      <trkpt lat="45.09147" lon="5.84824">
        <ele>1260</ele>
        <time>2024-06-05T19:19:05+00:00</time>
      </trkpt>
      <trkpt lat="45.09147" lon="5.84859">
        <ele>1262</ele>
        <time>2024-06-05T19:19:08+00:00</time>
      </trkpt>
      <trkpt lat="45.09159" lon="5.84874">
        <ele>1265</ele>
        <time>2024-06-05T19:19:11+00:00</time>
      </trkpt>
      <trkpt lat="45.09165" lon="5.84907">
        <ele>1269</ele>
        <time>2024-06-05T19:19:14+00:00</time>
      </trkpt>
      <trkpt lat="45.09172" lon="5.84939">
        <ele>1272</ele>
        <time>2024-06-05T19:19:17+00:00</time>
      </trkpt>
      <trkpt lat="45.09175" lon="5.84976">
        <ele>1275</ele>
        <time>2024-06-05T19:19:20+00:00</time>
      </trkpt>
      <trkpt lat="45.09173" lon="5.85011">
        <ele>1279</ele>
        <time>2024-06-05T19:19:23+00:00</time>
      </trkpt>
      <trkpt lat="45.09174" lon="5.85034">
        <ele>1280</ele>
        <time>2024-06-05T19:19:26+00:00</time>
      </trkpt>
      <trkpt lat="45.09182" lon="5.85051">
        <ele>1284</ele>
        <time>2024-06-05T19:19:29+00:00</time>
      </trkpt>
      <trkpt lat="45.09182" lon="5.85051">
        <ele>1284</ele>
        <time>2024-06-05T19:19:32+00:00</time>
      </trkpt>
      <trkpt lat="45.09182" lon="5.85051">
        <ele>1284</ele>
        <time>2024-06-05T19:19:35+00:00</time>
      </trkpt>
      <trkpt lat="45.09198" lon="5.85063">
        <ele>1286</ele>
        <time>2024-06-05T19:19:38+00:00</time>
      </trkpt>
      <trkpt lat="45.09214" lon="5.85066">
        <ele>1287</ele>
        <time>2024-06-05T19:19:41+00:00</time>
      </trkpt>
      <trkpt lat="45.09232" lon="5.8507">
        <ele>1288</ele>
        <time>2024-06-05T19:19:44+00:00</time>
      </trkpt>
      <trkpt lat="45.09267" lon="5.85071">
        <ele>1288</ele>
        <time>2024-06-05T19:19:47+00:00</time>
      </trkpt>
      <trkpt lat="45.09288" lon="5.85072">
        <ele>1287</ele>
        <time>2024-06-05T19:19:50+00:00</time>
      </trkpt>
      <trkpt lat="45.09306" lon="5.85076">
        <ele>1288</ele>
        <time>2024-06-05T19:19:53+00:00</time>
      </trkpt>
      <trkpt lat="45.09324" lon="5.85084">
        <ele>1287</ele>
        <time>2024-06-05T19:19:56+00:00</time>
      </trkpt>
      <trkpt lat="45.09338" lon="5.85095">
        <ele>1287</ele>
        <time>2024-06-05T19:19:59+00:00</time>
      </trkpt>
      <trkpt lat="45.09345" lon="5.8511">
        <ele>1289</ele>
        <time>2024-06-05T19:20:02+00:00</time>
      </trkpt>
      <trkpt lat="45.09351" lon="5.8513">
        <ele>1289</ele>
        <time>2024-06-05T19:20:05+00:00</time>
      </trkpt>
      <trkpt lat="45.09352" lon="5.85147">
        <ele>1292</ele>
        <time>2024-06-05T19:20:08+00:00</time>
      </trkpt>
      <trkpt lat="45.09349" lon="5.8517">
        <ele>1297</ele>
        <time>2024-06-05T19:20:11+00:00</time>
      </trkpt>
      <trkpt lat="45.09343" lon="5.8519">
        <ele>1300</ele>
        <time>2024-06-05T19:20:14+00:00</time>
      </trkpt>
      <trkpt lat="45.09336" lon="5.8521">
        <ele>1305</ele>
        <time>2024-06-05T19:20:17+00:00</time>
      </trkpt>
      <trkpt lat="45.09336" lon="5.85231">
        <ele>1308</ele>
        <time>2024-06-05T19:20:20+00:00</time>
      </trkpt>
      <trkpt lat="45.09342" lon="5.85245">
        <ele>1307</ele>
        <time>2024-06-05T19:20:23+00:00</time>
      </trkpt>
      <trkpt lat="45.09351" lon="5.85268">
        <ele>1308</ele>
        <time>2024-06-05T19:20:26+00:00</time>
      </trkpt>
      <trkpt lat="45.09359" lon="5.85303">
        <ele>1316</ele>
        <time>2024-06-05T19:20:29+00:00</time>
      </trkpt>
      <trkpt lat="45.09371" lon="5.85329">
        <ele>1320</ele>
        <time>2024-06-05T19:20:32+00:00</time>
      </trkpt>
      <trkpt lat="45.09391" lon="5.85336">
        <ele>1323</ele>
        <time>2024-06-05T19:20:35+00:00</time>
      </trkpt>
      <trkpt lat="45.09413" lon="5.85341">
        <ele>1329</ele>
        <time>2024-06-05T19:20:38+00:00</time>
      </trkpt>
      <trkpt lat="45.09456" lon="5.8534">
        <ele>1332</ele>
        <time>2024-06-05T19:20:41+00:00</time>
      </trkpt>
      <trkpt lat="45.09494" lon="5.8533">
        <ele>1337</ele>
        <time>2024-06-05T19:20:44+00:00</time>
      </trkpt>
      <trkpt lat="45.09503" lon="5.85324">
        <ele>1339</ele>
        <time>2024-06-05T19:20:47+00:00</time>
      </trkpt>
      <trkpt lat="45.09519" lon="5.85311">
        <ele>1337</ele>
        <time>2024-06-05T19:20:50+00:00</time>
      </trkpt>
      <trkpt lat="45.09538" lon="5.85298">
        <ele>1336</ele>
        <time>2024-06-05T19:20:53+00:00</time>
      </trkpt>
      <trkpt lat="45.09559" lon="5.85286">
        <ele>1336</ele>
        <time>2024-06-05T19:20:56+00:00</time>
      </trkpt>
      <trkpt lat="45.09576" lon="5.85283">
        <ele>1340</ele>
        <time>2024-06-05T19:20:59+00:00</time>
      </trkpt>
      <trkpt lat="45.09594" lon="5.85277">
        <ele>1335</ele>
        <time>2024-06-05T19:21:02+00:00</time>
      </trkpt>
      <trkpt lat="45.09604" lon="5.85268">
        <ele>1337</ele>
        <time>2024-06-05T19:21:05+00:00</time>
      </trkpt>
      <trkpt lat="45.09608" lon="5.85265">
        <ele>1337</ele>
        <time>2024-06-05T19:21:08+00:00</time>
      </trkpt>
      <trkpt lat="45.0962" lon="5.85256">
        <ele>1336</ele>
        <time>2024-06-05T19:21:11+00:00</time>
      </trkpt>
      <trkpt lat="45.09642" lon="5.85263">
        <ele>1338</ele>
        <time>2024-06-05T19:21:14+00:00</time>
      </trkpt>
      <trkpt lat="45.09666" lon="5.8528">
        <ele>1340</ele>
        <time>2024-06-05T19:21:17+00:00</time>
      </trkpt>
      <trkpt lat="45.09689" lon="5.85328">
        <ele>1357</ele>
        <time>2024-06-05T19:21:20+00:00</time>
      </trkpt>
      <trkpt lat="45.09718" lon="5.85358">
        <ele>1361</ele>
        <time>2024-06-05T19:21:23+00:00</time>
      </trkpt>
      <trkpt lat="45.09725" lon="5.85391">
        <ele>1371</ele>
        <time>2024-06-05T19:21:26+00:00</time>
      </trkpt>
      <trkpt lat="45.09733" lon="5.85409">
        <ele>1372</ele>
        <time>2024-06-05T19:21:29+00:00</time>
      </trkpt>
      <trkpt lat="45.09747" lon="5.85426">
        <ele>1371</ele>
        <time>2024-06-05T19:21:32+00:00</time>
      </trkpt>
      <trkpt lat="45.09762" lon="5.85444">
        <ele>1371</ele>
        <time>2024-06-05T19:21:35+00:00</time>
      </trkpt>
      <trkpt lat="45.09775" lon="5.85472">
        <ele>1372</ele>
        <time>2024-06-05T19:21:38+00:00</time>
      </trkpt>
      <trkpt lat="45.09773" lon="5.85505">
        <ele>1374</ele>
        <time>2024-06-05T19:21:41+00:00</time>
      </trkpt>
      <trkpt lat="45.09762" lon="5.85529">
        <ele>1377</ele>
        <time>2024-06-05T19:21:44+00:00</time>
      </trkpt>
      <trkpt lat="45.09756" lon="5.85564">
        <ele>1381</ele>
        <time>2024-06-05T19:21:47+00:00</time>
      </trkpt>
      <trkpt lat="45.09758" lon="5.85585">
        <ele>1384</ele>
        <time>2024-06-05T19:21:50+00:00</time>
      </trkpt>
      <trkpt lat="45.09761" lon="5.85615">
        <ele>1386</ele>
        <time>2024-06-05T19:21:53+00:00</time>
      </trkpt>
      <trkpt lat="45.09761" lon="5.85624">
        <ele>1387</ele>
        <time>2024-06-05T19:21:56+00:00</time>
      </trkpt>
      <trkpt lat="45.09762" lon="5.85643">
        <ele>1390</ele>
        <time>2024-06-05T19:21:59+00:00</time>
      </trkpt>
      <trkpt lat="45.09772" lon="5.85677">
        <ele>1394</ele>
        <time>2024-06-05T19:22:02+00:00</time>
      </trkpt>
      <trkpt lat="45.09781" lon="5.85729">
        <ele>1403</ele>
        <time>2024-06-05T19:22:05+00:00</time>
      </trkpt>
      <trkpt lat="45.09807" lon="5.8578">
        <ele>1415</ele>
        <time>2024-06-05T19:22:08+00:00</time>
      </trkpt>
      <trkpt lat="45.0981" lon="5.85785">
        <ele>1416</ele>
        <time>2024-06-05T19:22:11+00:00</time>
      </trkpt>
      <trkpt lat="45.09818" lon="5.85792">
        <ele>1418</ele>
        <time>2024-06-05T19:22:14+00:00</time>
      </trkpt>
      <trkpt lat="45.09821" lon="5.85793">
        <ele>1419</ele>
        <time>2024-06-05T19:22:17+00:00</time>
      </trkpt>
      <trkpt lat="45.09821" lon="5.85793">
        <ele>1419</ele>
        <time>2024-06-05T19:22:20+00:00</time>
      </trkpt>
      <trkpt lat="45.09826" lon="5.85795">
        <ele>1416</ele>
        <time>2024-06-05T19:22:23+00:00</time>
      </trkpt>
      <trkpt lat="45.09835" lon="5.85793">
        <ele>1419</ele>
        <time>2024-06-05T19:22:26+00:00</time>
      </trkpt>
      <trkpt lat="45.09846" lon="5.85788">
        <ele>1416</ele>
        <time>2024-06-05T19:22:29+00:00</time>
      </trkpt>
      <trkpt lat="45.09874" lon="5.85761">
        <ele>1416</ele>
        <time>2024-06-05T19:22:32+00:00</time>
      </trkpt>
      <trkpt lat="45.09883" lon="5.85755">
        <ele>1416</ele>
        <time>2024-06-05T19:22:35+00:00</time>
      </trkpt>
      <trkpt lat="45.09909" lon="5.85743">
        <ele>1417</ele>
        <time>2024-06-05T19:22:38+00:00</time>
      </trkpt>
      <trkpt lat="45.09935" lon="5.85741">
        <ele>1421</ele>
        <time>2024-06-05T19:22:41+00:00</time>
      </trkpt>
      <trkpt lat="45.0996" lon="5.85741">
        <ele>1425</ele>
        <time>2024-06-05T19:22:44+00:00</time>
      </trkpt>
      <trkpt lat="45.09973" lon="5.85747">
        <ele>1427</ele>
        <time>2024-06-05T19:22:47+00:00</time>
      </trkpt>
      <trkpt lat="45.09987" lon="5.85755">
        <ele>1430</ele>
        <time>2024-06-05T19:22:50+00:00</time>
      </trkpt>
      <trkpt lat="45.1003" lon="5.85763">
        <ele>1439</ele>
        <time>2024-06-05T19:22:53+00:00</time>
      </trkpt>
      <trkpt lat="45.10055" lon="5.85774">
        <ele>1444</ele>
        <time>2024-06-05T19:22:56+00:00</time>
      </trkpt>
      <trkpt lat="45.10081" lon="5.85781">
        <ele>1446</ele>
        <time>2024-06-05T19:22:59+00:00</time>
      </trkpt>
      <trkpt lat="45.10103" lon="5.85799">
        <ele>1447</ele>
        <time>2024-06-05T19:23:02+00:00</time>
      </trkpt>
      <trkpt lat="45.10117" lon="5.85827">
        <ele>1456</ele>
        <time>2024-06-05T19:23:05+00:00</time>
      </trkpt>
      <trkpt lat="45.1013" lon="5.85849">
        <ele>1462</ele>
        <time>2024-06-05T19:23:08+00:00</time>
      </trkpt>
      <trkpt lat="45.10154" lon="5.85864">
        <ele>1468</ele>
        <time>2024-06-05T19:23:11+00:00</time>
      </trkpt>
      <trkpt lat="45.10174" lon="5.85874">
        <ele>1469</ele>
        <time>2024-06-05T19:23:14+00:00</time>
      </trkpt>
      <trkpt lat="45.10181" lon="5.85875">
        <ele>1469</ele>
        <time>2024-06-05T19:23:17+00:00</time>
      </trkpt>
      <trkpt lat="45.10191" lon="5.85879">
        <ele>1468</ele>
        <time>2024-06-05T19:23:20+00:00</time>
      </trkpt>
      <trkpt lat="45.1021" lon="5.85896">
        <ele>1472</ele>
        <time>2024-06-05T19:23:23+00:00</time>
      </trkpt>
      <trkpt lat="45.10214" lon="5.85905">
        <ele>1474</ele>
        <time>2024-06-05T19:23:26+00:00</time>
      </trkpt>
      <trkpt lat="45.10221" lon="5.85917">
        <ele>1475</ele>
        <time>2024-06-05T19:23:29+00:00</time>
      </trkpt>
      <trkpt lat="45.10211" lon="5.85946">
        <ele>1481</ele>
        <time>2024-06-05T19:23:32+00:00</time>
      </trkpt>
      <trkpt lat="45.10222" lon="5.85968">
        <ele>1484</ele>
        <time>2024-06-05T19:23:35+00:00</time>
      </trkpt>
      <trkpt lat="45.10249" lon="5.85995">
        <ele>1487</ele>
        <time>2024-06-05T19:23:38+00:00</time>
      </trkpt>
      <trkpt lat="45.10274" lon="5.86014">
        <ele>1487</ele>
        <time>2024-06-05T19:23:41+00:00</time>
      </trkpt>
      <trkpt lat="45.10295" lon="5.86044">
        <ele>1489</ele>
        <time>2024-06-05T19:23:44+00:00</time>
      </trkpt>
      <trkpt lat="45.10298" lon="5.86077">
        <ele>1493</ele>
        <time>2024-06-05T19:23:47+00:00</time>
      </trkpt>
      <trkpt lat="45.10307" lon="5.8611">
        <ele>1499</ele>
        <time>2024-06-05T19:23:50+00:00</time>
      </trkpt>
      <trkpt lat="45.10312" lon="5.86136">
        <ele>1505</ele>
        <time>2024-06-05T19:23:53+00:00</time>
      </trkpt>
      <trkpt lat="45.1033" lon="5.8616">
        <ele>1512</ele>
        <time>2024-06-05T19:23:56+00:00</time>
      </trkpt>
      <trkpt lat="45.10346" lon="5.86179">
        <ele>1515</ele>
        <time>2024-06-05T19:23:59+00:00</time>
      </trkpt>
      <trkpt lat="45.10363" lon="5.86217">
        <ele>1525</ele>
        <time>2024-06-05T19:24:02+00:00</time>
      </trkpt>
      <trkpt lat="45.10386" lon="5.8622">
        <ele>1529</ele>
        <time>2024-06-05T19:24:05+00:00</time>
      </trkpt>
      <trkpt lat="45.10412" lon="5.86247">
        <ele>1535</ele>
        <time>2024-06-05T19:24:08+00:00</time>
      </trkpt>
      <trkpt lat="45.10428" lon="5.86278">
        <ele>1542</ele>
        <time>2024-06-05T19:24:11+00:00</time>
      </trkpt>
      <trkpt lat="45.10451" lon="5.86288">
        <ele>1546</ele>
        <time>2024-06-05T19:24:14+00:00</time>
      </trkpt>
      <trkpt lat="45.1046" lon="5.86302">
        <ele>1550</ele>
        <time>2024-06-05T19:24:17+00:00</time>
      </trkpt>
      <trkpt lat="45.10462" lon="5.86303">
        <ele>1550</ele>
        <time>2024-06-05T19:24:20+00:00</time>
      </trkpt>
      <trkpt lat="45.10471" lon="5.86311">
        <ele>1552</ele>
        <time>2024-06-05T19:24:23+00:00</time>
      </trkpt>
      <trkpt lat="45.10481" lon="5.86325">
        <ele>1554</ele>
        <time>2024-06-05T19:24:26+00:00</time>
      </trkpt>
      <trkpt lat="45.10491" lon="5.86346">
        <ele>1559</ele>
        <time>2024-06-05T19:24:29+00:00</time>
      </trkpt>
      <trkpt lat="45.10496" lon="5.86352">
        <ele>1560</ele>
        <time>2024-06-05T19:24:32+00:00</time>
      </trkpt>
      <trkpt lat="45.10506" lon="5.86357">
        <ele>1560</ele>
        <time>2024-06-05T19:24:35+00:00</time>
      </trkpt>
      <trkpt lat="45.10528" lon="5.86364">
        <ele>1562</ele>
        <time>2024-06-05T19:24:38+00:00</time>
      </trkpt>
      <trkpt lat="45.10563" lon="5.86389">
        <ele>1567</ele>
        <time>2024-06-05T19:24:41+00:00</time>
      </trkpt>
      <trkpt lat="45.10591" lon="5.86416">
        <ele>1573</ele>
        <time>2024-06-05T19:24:44+00:00</time>
      </trkpt>
      <trkpt lat="45.10628" lon="5.86441">
        <ele>1579</ele>
        <time>2024-06-05T19:24:47+00:00</time>
      </trkpt>
      <trkpt lat="45.10632" lon="5.86447">
        <ele>1580</ele>
        <time>2024-06-05T19:24:50+00:00</time>
      </trkpt>
      <trkpt lat="45.10638" lon="5.8645">
        <ele>1581</ele>
        <time>2024-06-05T19:24:53+00:00</time>
      </trkpt>
      <trkpt lat="45.10647" lon="5.86451">
        <ele>1581</ele>
        <time>2024-06-05T19:24:56+00:00</time>
      </trkpt>
      <trkpt lat="45.10661" lon="5.86456">
        <ele>1582</ele>
        <time>2024-06-05T19:24:59+00:00</time>
      </trkpt>
      <trkpt lat="45.10671" lon="5.86463">
        <ele>1585</ele>
        <time>2024-06-05T19:25:02+00:00</time>
      </trkpt>
      <trkpt lat="45.10677" lon="5.86469">
        <ele>1585</ele>
        <time>2024-06-05T19:25:05+00:00</time>
      </trkpt>
      <trkpt lat="45.10689" lon="5.86487">
        <ele>1588</ele>
        <time>2024-06-05T19:25:08+00:00</time>
      </trkpt>
      <trkpt lat="45.10704" lon="5.86512">
        <ele>1595</ele>
        <time>2024-06-05T19:25:11+00:00</time>
      </trkpt>
      <trkpt lat="45.10719" lon="5.86537">
        <ele>1599</ele>
        <time>2024-06-05T19:25:14+00:00</time>
      </trkpt>
      <trkpt lat="45.10724" lon="5.86542">
        <ele>1601</ele>
        <time>2024-06-05T19:25:17+00:00</time>
      </trkpt>
      <trkpt lat="45.10703" lon="5.8654">
        <ele>1598</ele>
        <time>2024-06-05T19:25:20+00:00</time>
      </trkpt>
      <trkpt lat="45.10695" lon="5.86538">
        <ele>1598</ele>
        <time>2024-06-05T19:25:23+00:00</time>
      </trkpt>
      <trkpt lat="45.10686" lon="5.86536">
        <ele>1598</ele>
        <time>2024-06-05T19:25:26+00:00</time>
      </trkpt>
      <trkpt lat="45.10679" lon="5.86533">
        <ele>1597</ele>
        <time>2024-06-05T19:25:29+00:00</time>
      </trkpt>
      <trkpt lat="45.10675" lon="5.8653">
        <ele>1597</ele>
        <time>2024-06-05T19:25:32+00:00</time>
      </trkpt>
      <trkpt lat="45.1066" lon="5.86539">
        <ele>1597</ele>
        <time>2024-06-05T19:25:35+00:00</time>
      </trkpt>
      <trkpt lat="45.10629" lon="5.86533">
        <ele>1596</ele>
        <time>2024-06-05T19:25:38+00:00</time>
      </trkpt>
      <trkpt lat="45.10601" lon="5.86532">
        <ele>1596</ele>
        <time>2024-06-05T19:25:41+00:00</time>
      </trkpt>
      <trkpt lat="45.10561" lon="5.86531">
        <ele>1596</ele>
        <time>2024-06-05T19:25:44+00:00</time>
      </trkpt>
      <trkpt lat="45.10523" lon="5.86542">
        <ele>1596</ele>
        <time>2024-06-05T19:25:47+00:00</time>
      </trkpt>
      <trkpt lat="45.10495" lon="5.86556">
        <ele>1595</ele>
        <time>2024-06-05T19:25:50+00:00</time>
      </trkpt>
      <trkpt lat="45.10472" lon="5.86567">
        <ele>1593</ele>
        <time>2024-06-05T19:25:53+00:00</time>
      </trkpt>
      <trkpt lat="45.10447" lon="5.86579">
        <ele>1592</ele>
        <time>2024-06-05T19:25:56+00:00</time>
      </trkpt>
      <trkpt lat="45.10424" lon="5.86593">
        <ele>1592</ele>
        <time>2024-06-05T19:25:59+00:00</time>
      </trkpt>
      <trkpt lat="45.104" lon="5.86627">
        <ele>1593</ele>
        <time>2024-06-05T19:26:02+00:00</time>
      </trkpt>
      <trkpt lat="45.10383" lon="5.86658">
        <ele>1596</ele>
        <time>2024-06-05T19:26:05+00:00</time>
      </trkpt>
      <trkpt lat="45.10361" lon="5.86697">
        <ele>1595</ele>
        <time>2024-06-05T19:26:08+00:00</time>
      </trkpt>
      <trkpt lat="45.1035" lon="5.86699">
        <ele>1597</ele>
        <time>2024-06-05T19:26:11+00:00</time>
      </trkpt>
      <trkpt lat="45.1033" lon="5.86699">
        <ele>1595</ele>
        <time>2024-06-05T19:26:14+00:00</time>
      </trkpt>
      <trkpt lat="45.10311" lon="5.86698">
        <ele>1594</ele>
        <time>2024-06-05T19:26:17+00:00</time>
      </trkpt>
      <trkpt lat="45.10299" lon="5.86696">
        <ele>1594</ele>
        <time>2024-06-05T19:26:20+00:00</time>
      </trkpt>
      <trkpt lat="45.10281" lon="5.86694">
        <ele>1594</ele>
        <time>2024-06-05T19:26:23+00:00</time>
      </trkpt>
      <trkpt lat="45.10266" lon="5.86692">
        <ele>1594</ele>
        <time>2024-06-05T19:26:26+00:00</time>
      </trkpt>
      <trkpt lat="45.10251" lon="5.8669">
        <ele>1594</ele>
        <time>2024-06-05T19:26:29+00:00</time>
      </trkpt>
      <trkpt lat="45.10235" lon="5.8669">
        <ele>1593</ele>
        <time>2024-06-05T19:26:32+00:00</time>
      </trkpt>
      <trkpt lat="45.10216" lon="5.86693">
        <ele>1594</ele>
        <time>2024-06-05T19:26:35+00:00</time>
      </trkpt>
      <trkpt lat="45.10213" lon="5.86694">
        <ele>1594</ele>
        <time>2024-06-05T19:26:38+00:00</time>
      </trkpt>
      <trkpt lat="45.10213" lon="5.86694">
        <ele>1594</ele>
        <time>2024-06-05T19:26:41+00:00</time>
      </trkpt>
      <trkpt lat="45.10213" lon="5.86694">
        <ele>1594</ele>
        <time>2024-06-05T19:26:44+00:00</time>
      </trkpt>
      <trkpt lat="45.10195" lon="5.86703">
        <ele>1595</ele>
        <time>2024-06-05T19:26:47+00:00</time>
      </trkpt>
      <trkpt lat="45.10172" lon="5.86717">
        <ele>1595</ele>
        <time>2024-06-05T19:26:50+00:00</time>
      </trkpt>
      <trkpt lat="45.10151" lon="5.86739">
        <ele>1596</ele>
        <time>2024-06-05T19:26:53+00:00</time>
      </trkpt>
      <trkpt lat="45.1014" lon="5.86753">
        <ele>1597</ele>
        <time>2024-06-05T19:26:56+00:00</time>
      </trkpt>
      <trkpt lat="45.10137" lon="5.86758">
        <ele>1596</ele>
        <time>2024-06-05T19:26:59+00:00</time>
      </trkpt>
      <trkpt lat="45.10133" lon="5.86762">
        <ele>1599</ele>
        <time>2024-06-05T19:27:02+00:00</time>
      </trkpt>
      <trkpt lat="45.10121" lon="5.86763">
        <ele>1598</ele>
        <time>2024-06-05T19:27:05+00:00</time>
      </trkpt>
      <trkpt lat="45.10108" lon="5.86762">
        <ele>1596</ele>
        <time>2024-06-05T19:27:08+00:00</time>
      </trkpt>
      <trkpt lat="45.101" lon="5.86762">
        <ele>1596</ele>
        <time>2024-06-05T19:27:11+00:00</time>
      </trkpt>
      <trkpt lat="45.1009" lon="5.86765">
        <ele>1596</ele>
        <time>2024-06-05T19:27:14+00:00</time>
      </trkpt>
      <trkpt lat="45.10067" lon="5.86779">
        <ele>1596</ele>
        <time>2024-06-05T19:27:17+00:00</time>
      </trkpt>
      <trkpt lat="45.10052" lon="5.86788">
        <ele>1598</ele>
        <time>2024-06-05T19:27:20+00:00</time>
      </trkpt>
      <trkpt lat="45.10043" lon="5.86792">
        <ele>1599</ele>
        <time>2024-06-05T19:27:23+00:00</time>
      </trkpt>
      <trkpt lat="45.10039" lon="5.86794">
        <ele>1599</ele>
        <time>2024-06-05T19:27:26+00:00</time>
      </trkpt>
      <trkpt lat="45.10032" lon="5.86795">
        <ele>1599</ele>
        <time>2024-06-05T19:27:29+00:00</time>
      </trkpt>
      <trkpt lat="45.10027" lon="5.86795">
        <ele>1601</ele>
        <time>2024-06-05T19:27:32+00:00</time>
      </trkpt>
      <trkpt lat="45.10014" lon="5.8679">
        <ele>1602</ele>
        <time>2024-06-05T19:27:35+00:00</time>
      </trkpt>
      <trkpt lat="45.09988" lon="5.86772">
        <ele>1604</ele>
        <time>2024-06-05T19:27:38+00:00</time>
      </trkpt>
      <trkpt lat="45.09965" lon="5.86755">
        <ele>1605</ele>
        <time>2024-06-05T19:27:41+00:00</time>
      </trkpt>
      <trkpt lat="45.09955" lon="5.86772">
        <ele>1607</ele>
        <time>2024-06-05T19:27:44+00:00</time>
      </trkpt>
      <trkpt lat="45.09957" lon="5.86785">
        <ele>1608</ele>
        <time>2024-06-05T19:27:47+00:00</time>
      </trkpt>
      <trkpt lat="45.09956" lon="5.86799">
        <ele>1608</ele>
        <time>2024-06-05T19:27:50+00:00</time>
      </trkpt>
      <trkpt lat="45.09954" lon="5.86814">
        <ele>1608</ele>
        <time>2024-06-05T19:27:53+00:00</time>
      </trkpt>
      <trkpt lat="45.09946" lon="5.86852">
        <ele>1609</ele>
        <time>2024-06-05T19:27:56+00:00</time>
      </trkpt>
      <trkpt lat="45.0994" lon="5.86876">
        <ele>1610</ele>
        <time>2024-06-05T19:27:59+00:00</time>
      </trkpt>
      <trkpt lat="45.09938" lon="5.86892">
        <ele>1611</ele>
        <time>2024-06-05T19:28:02+00:00</time>
      </trkpt>
      <trkpt lat="45.09936" lon="5.86906">
        <ele>1612</ele>
        <time>2024-06-05T19:28:05+00:00</time>
      </trkpt>
      <trkpt lat="45.09935" lon="5.86927">
        <ele>1613</ele>
        <time>2024-06-05T19:28:08+00:00</time>
      </trkpt>
      <trkpt lat="45.0993" lon="5.86931">
        <ele>1614</ele>
        <time>2024-06-05T19:28:11+00:00</time>
      </trkpt>
      <trkpt lat="45.09924" lon="5.86937">
        <ele>1614</ele>
        <time>2024-06-05T19:28:14+00:00</time>
      </trkpt>
      <trkpt lat="45.09921" lon="5.86948">
        <ele>1615</ele>
        <time>2024-06-05T19:28:17+00:00</time>
      </trkpt>
      <trkpt lat="45.09929" lon="5.8698">
        <ele>1616</ele>
        <time>2024-06-05T19:28:20+00:00</time>
      </trkpt>
      <trkpt lat="45.09936" lon="5.87011">
        <ele>1618</ele>
        <time>2024-06-05T19:28:23+00:00</time>
      </trkpt>
      <trkpt lat="45.09939" lon="5.87054">
        <ele>1621</ele>
        <time>2024-06-05T19:28:26+00:00</time>
      </trkpt>
      <trkpt lat="45.09938" lon="5.87084">
        <ele>1623</ele>
        <time>2024-06-05T19:28:29+00:00</time>
      </trkpt>
      <trkpt lat="45.09937" lon="5.87122">
        <ele>1627</ele>
        <time>2024-06-05T19:28:32+00:00</time>
      </trkpt>
      <trkpt lat="45.09928" lon="5.8715">
        <ele>1630</ele>
        <time>2024-06-05T19:28:35+00:00</time>
      </trkpt>
      <trkpt lat="45.09915" lon="5.87189">
        <ele>1632</ele>
        <time>2024-06-05T19:28:38+00:00</time>
      </trkpt>
      <trkpt lat="45.09907" lon="5.87198">
        <ele>1633</ele>
        <time>2024-06-05T19:28:41+00:00</time>
      </trkpt>
      <trkpt lat="45.09905" lon="5.87201">
        <ele>1634</ele>
        <time>2024-06-05T19:28:44+00:00</time>
      </trkpt>
      <trkpt lat="45.09895" lon="5.87211">
        <ele>1631</ele>
        <time>2024-06-05T19:28:47+00:00</time>
      </trkpt>
      <trkpt lat="45.09888" lon="5.87228">
        <ele>1633</ele>
        <time>2024-06-05T19:28:50+00:00</time>
      </trkpt>
      <trkpt lat="45.09874" lon="5.87257">
        <ele>1631</ele>
        <time>2024-06-05T19:28:53+00:00</time>
      </trkpt>
      <trkpt lat="45.09864" lon="5.87284">
        <ele>1629</ele>
        <time>2024-06-05T19:28:56+00:00</time>
      </trkpt>
      <trkpt lat="45.09855" lon="5.87309">
        <ele>1627</ele>
        <time>2024-06-05T19:28:59+00:00</time>
      </trkpt>
      <trkpt lat="45.09849" lon="5.87333">
        <ele>1624</ele>
        <time>2024-06-05T19:29:02+00:00</time>
      </trkpt>
      <trkpt lat="45.09848" lon="5.87344">
        <ele>1624</ele>
        <time>2024-06-05T19:29:05+00:00</time>
      </trkpt>
      <trkpt lat="45.09847" lon="5.87358">
        <ele>1624</ele>
        <time>2024-06-05T19:29:08+00:00</time>
      </trkpt>
      <trkpt lat="45.09844" lon="5.87372">
        <ele>1623</ele>
        <time>2024-06-05T19:29:11+00:00</time>
      </trkpt>
      <trkpt lat="45.09841" lon="5.87382">
        <ele>1623</ele>
        <time>2024-06-05T19:29:14+00:00</time>
      </trkpt>
      <trkpt lat="45.09837" lon="5.87391">
        <ele>1621</ele>
        <time>2024-06-05T19:29:17+00:00</time>
      </trkpt>
      <trkpt lat="45.0984" lon="5.87395">
        <ele>1621</ele>
        <time>2024-06-05T19:29:20+00:00</time>
      </trkpt>
      <trkpt lat="45.09841" lon="5.87401">
        <ele>1622</ele>
        <time>2024-06-05T19:29:23+00:00</time>
      </trkpt>
      <trkpt lat="45.09843" lon="5.8741">
        <ele>1622</ele>
        <time>2024-06-05T19:29:26+00:00</time>
      </trkpt>
      <trkpt lat="45.09844" lon="5.87438">
        <ele>1620</ele>
        <time>2024-06-05T19:29:29+00:00</time>
      </trkpt>
      <trkpt lat="45.09845" lon="5.8745">
        <ele>1620</ele>
        <time>2024-06-05T19:29:32+00:00</time>
      </trkpt>
      <trkpt lat="45.09848" lon="5.87469">
        <ele>1620</ele>
        <time>2024-06-05T19:29:35+00:00</time>
      </trkpt>
      <trkpt lat="45.09851" lon="5.87491">
        <ele>1620</ele>
        <time>2024-06-05T19:29:38+00:00</time>
      </trkpt>
      <trkpt lat="45.09852" lon="5.875">
        <ele>1620</ele>
        <time>2024-06-05T19:29:41+00:00</time>
      </trkpt>
      <trkpt lat="45.09857" lon="5.87527">
        <ele>1620</ele>
        <time>2024-06-05T19:29:44+00:00</time>
      </trkpt>
      <trkpt lat="45.09862" lon="5.87556">
        <ele>1622</ele>
        <time>2024-06-05T19:29:47+00:00</time>
      </trkpt>
      <trkpt lat="45.09865" lon="5.87573">
        <ele>1623</ele>
        <time>2024-06-05T19:29:50+00:00</time>
      </trkpt>
      <trkpt lat="45.09869" lon="5.87588">
        <ele>1623</ele>
        <time>2024-06-05T19:29:53+00:00</time>
      </trkpt>
      <trkpt lat="45.09876" lon="5.87616">
        <ele>1625</ele>
        <time>2024-06-05T19:29:56+00:00</time>
      </trkpt>
      <trkpt lat="45.0988" lon="5.87636">
        <ele>1628</ele>
        <time>2024-06-05T19:29:59+00:00</time>
      </trkpt>
      <trkpt lat="45.09882" lon="5.87648">
        <ele>1626</ele>
        <time>2024-06-05T19:30:02+00:00</time>
      </trkpt>
      <trkpt lat="45.09882" lon="5.87658">
        <ele>1628</ele>
        <time>2024-06-05T19:30:05+00:00</time>
      </trkpt>
      <trkpt lat="45.09882" lon="5.87667">
        <ele>1627</ele>
        <time>2024-06-05T19:30:08+00:00</time>
      </trkpt>
      <trkpt lat="45.09884" lon="5.87677">
        <ele>1627</ele>
        <time>2024-06-05T19:30:11+00:00</time>
      </trkpt>
      <trkpt lat="45.09887" lon="5.87687">
        <ele>1627</ele>
        <time>2024-06-05T19:30:14+00:00</time>
      </trkpt>
      <trkpt lat="45.09891" lon="5.87698">
        <ele>1629</ele>
        <time>2024-06-05T19:30:17+00:00</time>
      </trkpt>
      <trkpt lat="45.09895" lon="5.87704">
        <ele>1628</ele>
        <time>2024-06-05T19:30:20+00:00</time>
      </trkpt>
      <trkpt lat="45.099" lon="5.87709">
        <ele>1630</ele>
        <time>2024-06-05T19:30:23+00:00</time>
      </trkpt>
      <trkpt lat="45.09907" lon="5.87716">
        <ele>1629</ele>
        <time>2024-06-05T19:30:26+00:00</time>
      </trkpt>
      <trkpt lat="45.09914" lon="5.87723">
        <ele>1631</ele>
        <time>2024-06-05T19:30:29+00:00</time>
      </trkpt>
      <trkpt lat="45.0992" lon="5.87739">
        <ele>1631</ele>
        <time>2024-06-05T19:30:32+00:00</time>
      </trkpt>
      <trkpt lat="45.09927" lon="5.87759">
        <ele>1632</ele>
        <time>2024-06-05T19:30:35+00:00</time>
      </trkpt>
      <trkpt lat="45.09931" lon="5.87767">
        <ele>1633</ele>
        <time>2024-06-05T19:30:38+00:00</time>
      </trkpt>
      <trkpt lat="45.09934" lon="5.87773">
        <ele>1633</ele>
        <time>2024-06-05T19:30:41+00:00</time>
      </trkpt>
      <trkpt lat="45.09939" lon="5.87779">
        <ele>1633</ele>
        <time>2024-06-05T19:30:44+00:00</time>
      </trkpt>
      <trkpt lat="45.09946" lon="5.87783">
        <ele>1634</ele>
        <time>2024-06-05T19:30:47+00:00</time>
      </trkpt>
      <trkpt lat="45.09954" lon="5.87781">
        <ele>1636</ele>
        <time>2024-06-05T19:30:50+00:00</time>
      </trkpt>
      <trkpt lat="45.09959" lon="5.87793">
        <ele>1635</ele>
        <time>2024-06-05T19:30:53+00:00</time>
      </trkpt>
      <trkpt lat="45.0996" lon="5.87796">
        <ele>1637</ele>
        <time>2024-06-05T19:30:56+00:00</time>
      </trkpt>
      <trkpt lat="45.09965" lon="5.87807">
        <ele>1636</ele>
        <time>2024-06-05T19:30:59+00:00</time>
      </trkpt>
      <trkpt lat="45.09968" lon="5.87815">
        <ele>1637</ele>
        <time>2024-06-05T19:31:02+00:00</time>
      </trkpt>
      <trkpt lat="45.09975" lon="5.87836">
        <ele>1639</ele>
        <time>2024-06-05T19:31:05+00:00</time>
      </trkpt>
      <trkpt lat="45.09982" lon="5.87858">
        <ele>1641</ele>
        <time>2024-06-05T19:31:08+00:00</time>
      </trkpt>
      <trkpt lat="45.09992" lon="5.87892">
        <ele>1641</ele>
        <time>2024-06-05T19:31:11+00:00</time>
      </trkpt>
      <trkpt lat="45.10004" lon="5.87933">
        <ele>1642</ele>
        <time>2024-06-05T19:31:14+00:00</time>
      </trkpt>
      <trkpt lat="45.1002" lon="5.87989">
        <ele>1643</ele>
        <time>2024-06-05T19:31:17+00:00</time>
      </trkpt>
      <trkpt lat="45.10027" lon="5.88008">
        <ele>1644</ele>
        <time>2024-06-05T19:31:20+00:00</time>
      </trkpt>
      <trkpt lat="45.10027" lon="5.88009">
        <ele>1644</ele>
        <time>2024-06-05T19:31:23+00:00</time>
      </trkpt>
      <trkpt lat="45.1004" lon="5.88039">
        <ele>1645</ele>
        <time>2024-06-05T19:31:26+00:00</time>
      </trkpt>
      <trkpt lat="45.10052" lon="5.88065">
        <ele>1648</ele>
        <time>2024-06-05T19:31:29+00:00</time>
      </trkpt>
      <trkpt lat="45.10062" lon="5.88089">
        <ele>1651</ele>
        <time>2024-06-05T19:31:32+00:00</time>
      </trkpt>
      <trkpt lat="45.10067" lon="5.88102">
        <ele>1650</ele>
        <time>2024-06-05T19:31:35+00:00</time>
      </trkpt>
      <trkpt lat="45.10071" lon="5.88119">
        <ele>1651</ele>
        <time>2024-06-05T19:31:38+00:00</time>
      </trkpt>
      <trkpt lat="45.10075" lon="5.88147">
        <ele>1651</ele>
        <time>2024-06-05T19:31:41+00:00</time>
      </trkpt>
      <trkpt lat="45.10078" lon="5.88177">
        <ele>1650</ele>
        <time>2024-06-05T19:31:44+00:00</time>
      </trkpt>
      <trkpt lat="45.10084" lon="5.8821">
        <ele>1650</ele>
        <time>2024-06-05T19:31:47+00:00</time>
      </trkpt>
      <trkpt lat="45.10087" lon="5.88227">
        <ele>1649</ele>
        <time>2024-06-05T19:31:50+00:00</time>
      </trkpt>
      <trkpt lat="45.10094" lon="5.8826">
        <ele>1649</ele>
        <time>2024-06-05T19:31:53+00:00</time>
      </trkpt>
      <trkpt lat="45.10098" lon="5.88286">
        <ele>1648</ele>
        <time>2024-06-05T19:31:56+00:00</time>
      </trkpt>
      <trkpt lat="45.10099" lon="5.88297">
        <ele>1648</ele>
        <time>2024-06-05T19:31:59+00:00</time>
      </trkpt>
      <trkpt lat="45.10105" lon="5.88314">
        <ele>1648</ele>
        <time>2024-06-05T19:32:02+00:00</time>
      </trkpt>
      <trkpt lat="45.10108" lon="5.88324">
        <ele>1648</ele>
        <time>2024-06-05T19:32:05+00:00</time>
      </trkpt>
      <trkpt lat="45.10112" lon="5.88332">
        <ele>1649</ele>
        <time>2024-06-05T19:32:08+00:00</time>
      </trkpt>
      <trkpt lat="45.10115" lon="5.88344">
        <ele>1648</ele>
        <time>2024-06-05T19:32:11+00:00</time>
      </trkpt>
      <trkpt lat="45.10117" lon="5.88363">
        <ele>1647</ele>
        <time>2024-06-05T19:32:14+00:00</time>
      </trkpt>
      <trkpt lat="45.10117" lon="5.88363">
        <ele>1647</ele>
        <time>2024-06-05T19:32:17+00:00</time>
      </trkpt>
      <trkpt lat="45.10117" lon="5.88364">
        <ele>1647</ele>
        <time>2024-06-05T19:32:20+00:00</time>
      </trkpt>
      <trkpt lat="45.10119" lon="5.88395">
        <ele>1646</ele>
        <time>2024-06-05T19:32:23+00:00</time>
      </trkpt>
      <trkpt lat="45.10122" lon="5.88425">
        <ele>1646</ele>
        <time>2024-06-05T19:32:26+00:00</time>
      </trkpt>
      <trkpt lat="45.10125" lon="5.88444">
        <ele>1645</ele>
        <time>2024-06-05T19:32:29+00:00</time>
      </trkpt>
      <trkpt lat="45.10129" lon="5.88455">
        <ele>1645</ele>
        <time>2024-06-05T19:32:32+00:00</time>
      </trkpt>
      <trkpt lat="45.10132" lon="5.88462">
        <ele>1646</ele>
        <time>2024-06-05T19:32:35+00:00</time>
      </trkpt>
      <trkpt lat="45.10135" lon="5.8847">
        <ele>1646</ele>
        <time>2024-06-05T19:32:38+00:00</time>
      </trkpt>
      <trkpt lat="45.10136" lon="5.88478">
        <ele>1645</ele>
        <time>2024-06-05T19:32:41+00:00</time>
      </trkpt>
      <trkpt lat="45.10136" lon="5.8849">
        <ele>1645</ele>
        <time>2024-06-05T19:32:44+00:00</time>
      </trkpt>
      <trkpt lat="45.10136" lon="5.88501">
        <ele>1645</ele>
        <time>2024-06-05T19:32:47+00:00</time>
      </trkpt>
      <trkpt lat="45.10141" lon="5.88509">
        <ele>1646</ele>
        <time>2024-06-05T19:32:50+00:00</time>
      </trkpt>
      <trkpt lat="45.10149" lon="5.88533">
        <ele>1646</ele>
        <time>2024-06-05T19:32:53+00:00</time>
      </trkpt>
      <trkpt lat="45.10153" lon="5.88545">
        <ele>1648</ele>
        <time>2024-06-05T19:32:56+00:00</time>
      </trkpt>
      <trkpt lat="45.10156" lon="5.8856">
        <ele>1647</ele>
        <time>2024-06-05T19:32:59+00:00</time>
      </trkpt>
      <trkpt lat="45.10164" lon="5.88585">
        <ele>1648</ele>
        <time>2024-06-05T19:33:02+00:00</time>
      </trkpt>
      <trkpt lat="45.10169" lon="5.88597">
        <ele>1647</ele>
        <time>2024-06-05T19:33:05+00:00</time>
      </trkpt>
      <trkpt lat="45.10187" lon="5.88648">
        <ele>1651</ele>
        <time>2024-06-05T19:33:08+00:00</time>
      </trkpt>
      <trkpt lat="45.10196" lon="5.88672">
        <ele>1653</ele>
        <time>2024-06-05T19:33:11+00:00</time>
      </trkpt>
      <trkpt lat="45.10202" lon="5.88685">
        <ele>1654</ele>
        <time>2024-06-05T19:33:14+00:00</time>
      </trkpt>
      <trkpt lat="45.10208" lon="5.88695">
        <ele>1654</ele>
        <time>2024-06-05T19:33:17+00:00</time>
      </trkpt>
      <trkpt lat="45.10212" lon="5.88705">
        <ele>1656</ele>
        <time>2024-06-05T19:33:20+00:00</time>
      </trkpt>
      <trkpt lat="45.10216" lon="5.88712">
        <ele>1656</ele>
        <time>2024-06-05T19:33:23+00:00</time>
      </trkpt>
      <trkpt lat="45.10222" lon="5.88721">
        <ele>1657</ele>
        <time>2024-06-05T19:33:26+00:00</time>
      </trkpt>
      <trkpt lat="45.10227" lon="5.8873">
        <ele>1657</ele>
        <time>2024-06-05T19:33:29+00:00</time>
      </trkpt>
      <trkpt lat="45.10231" lon="5.88747">
        <ele>1657</ele>
        <time>2024-06-05T19:33:32+00:00</time>
      </trkpt>
      <trkpt lat="45.10238" lon="5.88777">
        <ele>1657</ele>
        <time>2024-06-05T19:33:35+00:00</time>
      </trkpt>
      <trkpt lat="45.10242" lon="5.88791">
        <ele>1658</ele>
        <time>2024-06-05T19:33:38+00:00</time>
      </trkpt>
      <trkpt lat="45.10246" lon="5.88801">
        <ele>1658</ele>
        <time>2024-06-05T19:33:41+00:00</time>
      </trkpt>
      <trkpt lat="45.10248" lon="5.88818">
        <ele>1658</ele>
        <time>2024-06-05T19:33:44+00:00</time>
      </trkpt>
      <trkpt lat="45.10249" lon="5.88836">
        <ele>1658</ele>
        <time>2024-06-05T19:33:47+00:00</time>
      </trkpt>
      <trkpt lat="45.10252" lon="5.88846">
        <ele>1658</ele>
        <time>2024-06-05T19:33:50+00:00</time>
      </trkpt>
      <trkpt lat="45.10258" lon="5.88852">
        <ele>1657</ele>
        <time>2024-06-05T19:33:53+00:00</time>
      </trkpt>
      <trkpt lat="45.10263" lon="5.88856">
        <ele>1658</ele>
        <time>2024-06-05T19:33:56+00:00</time>
      </trkpt>
      <trkpt lat="45.10265" lon="5.88859">
        <ele>1658</ele>
        <time>2024-06-05T19:33:59+00:00</time>
      </trkpt>
      <trkpt lat="45.10265" lon="5.88862">
        <ele>1657</ele>
        <time>2024-06-05T19:34:02+00:00</time>
      </trkpt>
      <trkpt lat="45.10265" lon="5.88869">
        <ele>1657</ele>
        <time>2024-06-05T19:34:05+00:00</time>
      </trkpt>
      <trkpt lat="45.1027" lon="5.88881">
        <ele>1661</ele>
        <time>2024-06-05T19:34:08+00:00</time>
      </trkpt>
      <trkpt lat="45.10277" lon="5.88893">
        <ele>1661</ele>
        <time>2024-06-05T19:34:11+00:00</time>
      </trkpt>
      <trkpt lat="45.1028" lon="5.88902">
        <ele>1664</ele>
        <time>2024-06-05T19:34:14+00:00</time>
      </trkpt>
      <trkpt lat="45.10285" lon="5.88918">
        <ele>1664</ele>
        <time>2024-06-05T19:34:17+00:00</time>
      </trkpt>
      <trkpt lat="45.10289" lon="5.8894">
        <ele>1665</ele>
        <time>2024-06-05T19:34:20+00:00</time>
      </trkpt>
      <trkpt lat="45.10292" lon="5.88969">
        <ele>1667</ele>
        <time>2024-06-05T19:34:23+00:00</time>
      </trkpt>
      <trkpt lat="45.10293" lon="5.88997">
        <ele>1667</ele>
        <time>2024-06-05T19:34:26+00:00</time>
      </trkpt>
      <trkpt lat="45.10292" lon="5.89021">
        <ele>1670</ele>
        <time>2024-06-05T19:34:29+00:00</time>
      </trkpt>
      <trkpt lat="45.10289" lon="5.89038">
        <ele>1668</ele>
        <time>2024-06-05T19:34:32+00:00</time>
      </trkpt>
      <trkpt lat="45.10285" lon="5.89059">
        <ele>1670</ele>
        <time>2024-06-05T19:34:35+00:00</time>
      </trkpt>
      <trkpt lat="45.10285" lon="5.89087">
        <ele>1672</ele>
        <time>2024-06-05T19:34:38+00:00</time>
      </trkpt>
      <trkpt lat="45.10287" lon="5.8911">
        <ele>1674</ele>
        <time>2024-06-05T19:34:41+00:00</time>
      </trkpt>
      <trkpt lat="45.1029" lon="5.89127">
        <ele>1676</ele>
        <time>2024-06-05T19:34:44+00:00</time>
      </trkpt>
      <trkpt lat="45.10296" lon="5.89149">
        <ele>1677</ele>
        <time>2024-06-05T19:34:47+00:00</time>
      </trkpt>
      <trkpt lat="45.10303" lon="5.89167">
        <ele>1680</ele>
        <time>2024-06-05T19:34:50+00:00</time>
      </trkpt>
      <trkpt lat="45.10304" lon="5.89188">
        <ele>1683</ele>
        <time>2024-06-05T19:34:53+00:00</time>
      </trkpt>
      <trkpt lat="45.10305" lon="5.89199">
        <ele>1683</ele>
        <time>2024-06-05T19:34:56+00:00</time>
      </trkpt>
      <trkpt lat="45.1031" lon="5.89203">
        <ele>1684</ele>
        <time>2024-06-05T19:34:59+00:00</time>
      </trkpt>
      <trkpt lat="45.10323" lon="5.89209">
        <ele>1687</ele>
        <time>2024-06-05T19:35:02+00:00</time>
      </trkpt>
      <trkpt lat="45.1033" lon="5.89212">
        <ele>1690</ele>
        <time>2024-06-05T19:35:05+00:00</time>
      </trkpt>
      <trkpt lat="45.10332" lon="5.89213">
        <ele>1690</ele>
        <time>2024-06-05T19:35:08+00:00</time>
      </trkpt>
      <trkpt lat="45.10333" lon="5.89218">
        <ele>1690</ele>
        <time>2024-06-05T19:35:11+00:00</time>
      </trkpt>
      <trkpt lat="45.10338" lon="5.89228">
        <ele>1691</ele>
        <time>2024-06-05T19:35:14+00:00</time>
      </trkpt>
      <trkpt lat="45.10341" lon="5.89235">
        <ele>1694</ele>
        <time>2024-06-05T19:35:17+00:00</time>
      </trkpt>
      <trkpt lat="45.10343" lon="5.89237">
        <ele>1694</ele>
        <time>2024-06-05T19:35:20+00:00</time>
      </trkpt>
      <trkpt lat="45.10346" lon="5.89237">
        <ele>1694</ele>
        <time>2024-06-05T19:35:23+00:00</time>
      </trkpt>
      <trkpt lat="45.10348" lon="5.89237">
        <ele>1694</ele>
        <time>2024-06-05T19:35:26+00:00</time>
      </trkpt>
      <trkpt lat="45.10352" lon="5.89235">
        <ele>1697</ele>
        <time>2024-06-05T19:35:29+00:00</time>
      </trkpt>
      <trkpt lat="45.10357" lon="5.89233">
        <ele>1697</ele>
        <time>2024-06-05T19:35:32+00:00</time>
      </trkpt>
      <trkpt lat="45.10361" lon="5.89234">
        <ele>1699</ele>
        <time>2024-06-05T19:35:35+00:00</time>
      </trkpt>
      <trkpt lat="45.10368" lon="5.89237">
        <ele>1699</ele>
        <time>2024-06-05T19:35:38+00:00</time>
      </trkpt>
      <trkpt lat="45.10378" lon="5.89244">
        <ele>1701</ele>
        <time>2024-06-05T19:35:41+00:00</time>
      </trkpt>
      <trkpt lat="45.10386" lon="5.89247">
        <ele>1702</ele>
        <time>2024-06-05T19:35:44+00:00</time>
      </trkpt>
      <trkpt lat="45.10391" lon="5.89248">
        <ele>1704</ele>
        <time>2024-06-05T19:35:47+00:00</time>
      </trkpt>
      <trkpt lat="45.10396" lon="5.89248">
        <ele>1704</ele>
        <time>2024-06-05T19:35:50+00:00</time>
      </trkpt>
      <trkpt lat="45.10409" lon="5.89245">
        <ele>1705</ele>
        <time>2024-06-05T19:35:53+00:00</time>
      </trkpt>
      <trkpt lat="45.10418" lon="5.89243">
        <ele>1706</ele>
        <time>2024-06-05T19:35:56+00:00</time>
      </trkpt>
      <trkpt lat="45.10424" lon="5.89244">
        <ele>1707</ele>
        <time>2024-06-05T19:35:59+00:00</time>
      </trkpt>
      <trkpt lat="45.10439" lon="5.89251">
        <ele>1709</ele>
        <time>2024-06-05T19:36:02+00:00</time>
      </trkpt>
      <trkpt lat="45.1045" lon="5.89261">
        <ele>1711</ele>
        <time>2024-06-05T19:36:05+00:00</time>
      </trkpt>
      <trkpt lat="45.10458" lon="5.8927">
        <ele>1711</ele>
        <time>2024-06-05T19:36:08+00:00</time>
      </trkpt>
      <trkpt lat="45.10462" lon="5.89275">
        <ele>1712</ele>
        <time>2024-06-05T19:36:11+00:00</time>
      </trkpt>
      <trkpt lat="45.10471" lon="5.89289">
        <ele>1713</ele>
        <time>2024-06-05T19:36:14+00:00</time>
      </trkpt>
      <trkpt lat="45.10484" lon="5.89304">
        <ele>1713</ele>
        <time>2024-06-05T19:36:17+00:00</time>
      </trkpt>
      <trkpt lat="45.10494" lon="5.89316">
        <ele>1714</ele>
        <time>2024-06-05T19:36:20+00:00</time>
      </trkpt>
      <trkpt lat="45.10494" lon="5.89316">
        <ele>1714</ele>
        <time>2024-06-05T19:36:23+00:00</time>
      </trkpt>
      <trkpt lat="45.10496" lon="5.89319">
        <ele>1714</ele>
        <time>2024-06-05T19:36:26+00:00</time>
      </trkpt>
      <trkpt lat="45.10497" lon="5.8932">
        <ele>1714</ele>
        <time>2024-06-05T19:36:29+00:00</time>
      </trkpt>
      <trkpt lat="45.10498" lon="5.89321">
        <ele>1715</ele>
        <time>2024-06-05T19:36:32+00:00</time>
      </trkpt>
      <trkpt lat="45.10507" lon="5.8933">
        <ele>1717</ele>
        <time>2024-06-05T19:36:35+00:00</time>
      </trkpt>
      <trkpt lat="45.10518" lon="5.89336">
        <ele>1718</ele>
        <time>2024-06-05T19:36:38+00:00</time>
      </trkpt>
      <trkpt lat="45.10519" lon="5.89336">
        <ele>1718</ele>
        <time>2024-06-05T19:36:41+00:00</time>
      </trkpt>
      <trkpt lat="45.10522" lon="5.89348">
        <ele>1719</ele>
        <time>2024-06-05T19:36:44+00:00</time>
      </trkpt>
      <trkpt lat="45.10525" lon="5.89354">
        <ele>1721</ele>
        <time>2024-06-05T19:36:47+00:00</time>
      </trkpt>
      <trkpt lat="45.10529" lon="5.89357">
        <ele>1721</ele>
        <time>2024-06-05T19:36:50+00:00</time>
      </trkpt>
      <trkpt lat="45.10531" lon="5.8936">
        <ele>1721</ele>
        <time>2024-06-05T19:36:53+00:00</time>
      </trkpt>
      <trkpt lat="45.10531" lon="5.89369">
        <ele>1723</ele>
        <time>2024-06-05T19:36:56+00:00</time>
      </trkpt>
      <trkpt lat="45.10532" lon="5.89373">
        <ele>1725</ele>
        <time>2024-06-05T19:36:59+00:00</time>
      </trkpt>
      <trkpt lat="45.10534" lon="5.89375">
        <ele>1725</ele>
        <time>2024-06-05T19:37:02+00:00</time>
      </trkpt>
      <trkpt lat="45.1054" lon="5.89385">
        <ele>1725</ele>
        <time>2024-06-05T19:37:05+00:00</time>
      </trkpt>
      <trkpt lat="45.10544" lon="5.89391">
        <ele>1727</ele>
        <time>2024-06-05T19:37:08+00:00</time>
      </trkpt>
      <trkpt lat="45.10548" lon="5.89394">
        <ele>1727</ele>
        <time>2024-06-05T19:37:11+00:00</time>
      </trkpt>
      <trkpt lat="45.10557" lon="5.89401">
        <ele>1730</ele>
        <time>2024-06-05T19:37:14+00:00</time>
      </trkpt>
      <trkpt lat="45.10558" lon="5.89406">
        <ele>1730</ele>
        <time>2024-06-05T19:37:17+00:00</time>
      </trkpt>
      <trkpt lat="45.10559" lon="5.89411">
        <ele>1730</ele>
        <time>2024-06-05T19:37:20+00:00</time>
      </trkpt>
      <trkpt lat="45.10557" lon="5.89421">
        <ele>1730</ele>
        <time>2024-06-05T19:37:23+00:00</time>
      </trkpt>
      <trkpt lat="45.10558" lon="5.89429">
        <ele>1730</ele>
        <time>2024-06-05T19:37:26+00:00</time>
      </trkpt>
      <trkpt lat="45.10564" lon="5.89442">
        <ele>1732</ele>
        <time>2024-06-05T19:37:29+00:00</time>
      </trkpt>
      <trkpt lat="45.10568" lon="5.89448">
        <ele>1732</ele>
        <time>2024-06-05T19:37:32+00:00</time>
      </trkpt>
      <trkpt lat="45.10572" lon="5.8945">
        <ele>1733</ele>
        <time>2024-06-05T19:37:35+00:00</time>
      </trkpt>
      <trkpt lat="45.10576" lon="5.89453">
        <ele>1733</ele>
        <time>2024-06-05T19:37:38+00:00</time>
      </trkpt>
      <trkpt lat="45.10579" lon="5.89458">
        <ele>1733</ele>
        <time>2024-06-05T19:37:41+00:00</time>
      </trkpt>
      <trkpt lat="45.10585" lon="5.89461">
        <ele>1734</ele>
        <time>2024-06-05T19:37:44+00:00</time>
      </trkpt>
      <trkpt lat="45.10588" lon="5.89462">
        <ele>1734</ele>
        <time>2024-06-05T19:37:47+00:00</time>
      </trkpt>
      <trkpt lat="45.10589" lon="5.89465">
        <ele>1734</ele>
        <time>2024-06-05T19:37:50+00:00</time>
      </trkpt>
      <trkpt lat="45.1059" lon="5.89469">
        <ele>1734</ele>
        <time>2024-06-05T19:37:53+00:00</time>
      </trkpt>
      <trkpt lat="45.1059" lon="5.89477">
        <ele>1735</ele>
        <time>2024-06-05T19:37:56+00:00</time>
      </trkpt>
      <trkpt lat="45.1059" lon="5.8948">
        <ele>1738</ele>
        <time>2024-06-05T19:37:59+00:00</time>
      </trkpt>
      <trkpt lat="45.10595" lon="5.89485">
        <ele>1738</ele>
        <time>2024-06-05T19:38:02+00:00</time>
      </trkpt>
      <trkpt lat="45.10599" lon="5.8949">
        <ele>1738</ele>
        <time>2024-06-05T19:38:05+00:00</time>
      </trkpt>
      <trkpt lat="45.10604" lon="5.89496">
        <ele>1744</ele>
        <time>2024-06-05T19:38:08+00:00</time>
      </trkpt>
      <trkpt lat="45.10611" lon="5.89501">
        <ele>1750</ele>
        <time>2024-06-05T19:38:11+00:00</time>
      </trkpt>
      <trkpt lat="45.10613" lon="5.89501">
        <ele>1750</ele>
        <time>2024-06-05T19:38:14+00:00</time>
      </trkpt>
      <trkpt lat="45.10616" lon="5.89501">
        <ele>1750</ele>
        <time>2024-06-05T19:38:17+00:00</time>
      </trkpt>
      <trkpt lat="45.10618" lon="5.89504">
        <ele>1750</ele>
        <time>2024-06-05T19:38:20+00:00</time>
      </trkpt>
      <trkpt lat="45.1062" lon="5.89507">
        <ele>1753</ele>
        <time>2024-06-05T19:38:23+00:00</time>
      </trkpt>
      <trkpt lat="45.10639" lon="5.8951">
        <ele>1756</ele>
        <time>2024-06-05T19:38:26+00:00</time>
      </trkpt>
      <trkpt lat="45.10644" lon="5.89514">
        <ele>1762</ele>
        <time>2024-06-05T19:38:29+00:00</time>
      </trkpt>
      <trkpt lat="45.10647" lon="5.89522">
        <ele>1765</ele>
        <time>2024-06-05T19:38:32+00:00</time>
      </trkpt>
      <trkpt lat="45.1065" lon="5.8953">
        <ele>1765</ele>
        <time>2024-06-05T19:38:35+00:00</time>
      </trkpt>
      <trkpt lat="45.10656" lon="5.89541">
        <ele>1770</ele>
        <time>2024-06-05T19:38:38+00:00</time>
      </trkpt>
      <trkpt lat="45.10663" lon="5.89548">
        <ele>1770</ele>
        <time>2024-06-05T19:38:41+00:00</time>
      </trkpt>
      <trkpt lat="45.10674" lon="5.89557">
        <ele>1777</ele>
        <time>2024-06-05T19:38:44+00:00</time>
      </trkpt>
      <trkpt lat="45.10683" lon="5.89564">
        <ele>1782</ele>
        <time>2024-06-05T19:38:47+00:00</time>
      </trkpt>
      <trkpt lat="45.10693" lon="5.89572">
        <ele>1786</ele>
        <time>2024-06-05T19:38:50+00:00</time>
      </trkpt>
      <trkpt lat="45.10697" lon="5.89578">
        <ele>1786</ele>
        <time>2024-06-05T19:38:53+00:00</time>
      </trkpt>
      <trkpt lat="45.10706" lon="5.89585">
        <ele>1791</ele>
        <time>2024-06-05T19:38:56+00:00</time>
      </trkpt>
      <trkpt lat="45.10708" lon="5.89585">
        <ele>1791</ele>
        <time>2024-06-05T19:38:59+00:00</time>
      </trkpt>
      <trkpt lat="45.10715" lon="5.89589">
        <ele>1791</ele>
        <time>2024-06-05T19:39:02+00:00</time>
      </trkpt>
      <trkpt lat="45.10721" lon="5.89594">
        <ele>1795</ele>
        <time>2024-06-05T19:39:05+00:00</time>
      </trkpt>
      <trkpt lat="45.10728" lon="5.89597">
        <ele>1795</ele>
        <time>2024-06-05T19:39:08+00:00</time>
      </trkpt>
      <trkpt lat="45.10735" lon="5.896">
        <ele>1799</ele>
        <time>2024-06-05T19:39:11+00:00</time>
      </trkpt>
      <trkpt lat="45.10741" lon="5.89606">
        <ele>1800</ele>
        <time>2024-06-05T19:39:14+00:00</time>
      </trkpt>
      <trkpt lat="45.10752" lon="5.89615">
        <ele>1804</ele>
        <time>2024-06-05T19:39:17+00:00</time>
      </trkpt>
      <trkpt lat="45.10763" lon="5.89625">
        <ele>1805</ele>
        <time>2024-06-05T19:39:20+00:00</time>
      </trkpt>
      <trkpt lat="45.10773" lon="5.89632">
        <ele>1808</ele>
        <time>2024-06-05T19:39:23+00:00</time>
      </trkpt>
      <trkpt lat="45.10777" lon="5.89637">
        <ele>1808</ele>
        <time>2024-06-05T19:39:26+00:00</time>
      </trkpt>
      <trkpt lat="45.10783" lon="5.89642">
        <ele>1812</ele>
        <time>2024-06-05T19:39:29+00:00</time>
      </trkpt>
      <trkpt lat="45.10784" lon="5.89645">
        <ele>1812</ele>
        <time>2024-06-05T19:39:32+00:00</time>
      </trkpt>
      <trkpt lat="45.10788" lon="5.89651">
        <ele>1815</ele>
        <time>2024-06-05T19:39:35+00:00</time>
      </trkpt>
      <trkpt lat="45.10791" lon="5.89655">
        <ele>1815</ele>
        <time>2024-06-05T19:39:38+00:00</time>
      </trkpt>
      <trkpt lat="45.10795" lon="5.89657">
        <ele>1815</ele>
        <time>2024-06-05T19:39:41+00:00</time>
      </trkpt>
      <trkpt lat="45.10803" lon="5.89662">
        <ele>1820</ele>
        <time>2024-06-05T19:39:44+00:00</time>
      </trkpt>
      <trkpt lat="45.10806" lon="5.89665">
        <ele>1820</ele>
        <time>2024-06-05T19:39:47+00:00</time>
      </trkpt>
      <trkpt lat="45.10811" lon="5.89667">
        <ele>1824</ele>
        <time>2024-06-05T19:39:50+00:00</time>
      </trkpt>
      <trkpt lat="45.10819" lon="5.89669">
        <ele>1824</ele>
        <time>2024-06-05T19:39:53+00:00</time>
      </trkpt>
      <trkpt lat="45.10823" lon="5.89669">
        <ele>1830</ele>
        <time>2024-06-05T19:39:56+00:00</time>
      </trkpt>
      <trkpt lat="45.10825" lon="5.89671">
        <ele>1831</ele>
        <time>2024-06-05T19:39:59+00:00</time>
      </trkpt>
      <trkpt lat="45.10834" lon="5.89674">
        <ele>1832</ele>
        <time>2024-06-05T19:40:02+00:00</time>
      </trkpt>
      <trkpt lat="45.10839" lon="5.89675">
        <ele>1832</ele>
        <time>2024-06-05T19:40:05+00:00</time>
      </trkpt>
      <trkpt lat="45.10841" lon="5.89678">
        <ele>1834</ele>
        <time>2024-06-05T19:40:08+00:00</time>
      </trkpt>
      <trkpt lat="45.10841" lon="5.8968">
        <ele>1834</ele>
        <time>2024-06-05T19:40:11+00:00</time>
      </trkpt>
      <trkpt lat="45.10842" lon="5.89684">
        <ele>1835</ele>
        <time>2024-06-05T19:40:14+00:00</time>
      </trkpt>
      <trkpt lat="45.10844" lon="5.89688">
        <ele>1835</ele>
        <time>2024-06-05T19:40:17+00:00</time>
      </trkpt>
      <trkpt lat="45.10846" lon="5.89691">
        <ele>1837</ele>
        <time>2024-06-05T19:40:20+00:00</time>
      </trkpt>
      <trkpt lat="45.10845" lon="5.89695">
        <ele>1837</ele>
        <time>2024-06-05T19:40:23+00:00</time>
      </trkpt>
      <trkpt lat="45.10845" lon="5.89697">
        <ele>1837</ele>
        <time>2024-06-05T19:40:26+00:00</time>
      </trkpt>
      <trkpt lat="45.10846" lon="5.89699">
        <ele>1837</ele>
        <time>2024-06-05T19:40:29+00:00</time>
      </trkpt>
      <trkpt lat="45.10846" lon="5.89701">
        <ele>1842</ele>
        <time>2024-06-05T19:40:32+00:00</time>
      </trkpt>
      <trkpt lat="45.10847" lon="5.89703">
        <ele>1842</ele>
        <time>2024-06-05T19:40:35+00:00</time>
      </trkpt>
      <trkpt lat="45.10849" lon="5.89708">
        <ele>1842</ele>
        <time>2024-06-05T19:40:38+00:00</time>
      </trkpt>
      <trkpt lat="45.10851" lon="5.89712">
        <ele>1842</ele>
        <time>2024-06-05T19:40:41+00:00</time>
      </trkpt>
      <trkpt lat="45.10854" lon="5.89715">
        <ele>1842</ele>
        <time>2024-06-05T19:40:44+00:00</time>
      </trkpt>
      <trkpt lat="45.10854" lon="5.89719">
        <ele>1842</ele>
        <time>2024-06-05T19:40:47+00:00</time>
      </trkpt>
      <trkpt lat="45.10853" lon="5.89726">
        <ele>1845</ele>
        <time>2024-06-05T19:40:50+00:00</time>
      </trkpt>
      <trkpt lat="45.10852" lon="5.89735">
        <ele>1850</ele>
        <time>2024-06-05T19:40:53+00:00</time>
      </trkpt>
      <trkpt lat="45.10849" lon="5.89739">
        <ele>1854</ele>
        <time>2024-06-05T19:40:56+00:00</time>
      </trkpt>
      <trkpt lat="45.10848" lon="5.89745">
        <ele>1857</ele>
        <time>2024-06-05T19:40:59+00:00</time>
      </trkpt>
      <trkpt lat="45.10849" lon="5.89752">
        <ele>1858</ele>
        <time>2024-06-05T19:41:02+00:00</time>
      </trkpt>
      <trkpt lat="45.10851" lon="5.89758">
        <ele>1855</ele>
        <time>2024-06-05T19:41:05+00:00</time>
      </trkpt>
      <trkpt lat="45.10851" lon="5.89764">
        <ele>1858</ele>
        <time>2024-06-05T19:41:08+00:00</time>
      </trkpt>
      <trkpt lat="45.10852" lon="5.89774">
        <ele>1859</ele>
        <time>2024-06-05T19:41:11+00:00</time>
      </trkpt>
      <trkpt lat="45.10853" lon="5.89777">
        <ele>1859</ele>
        <time>2024-06-05T19:41:14+00:00</time>
      </trkpt>
      <trkpt lat="45.10861" lon="5.89784">
        <ele>1859</ele>
        <time>2024-06-05T19:41:17+00:00</time>
      </trkpt>
      <trkpt lat="45.10871" lon="5.898">
        <ele>1862</ele>
        <time>2024-06-05T19:41:20+00:00</time>
      </trkpt>
      <trkpt lat="45.10878" lon="5.89813">
        <ele>1864</ele>
        <time>2024-06-05T19:41:23+00:00</time>
      </trkpt>
      <trkpt lat="45.1089" lon="5.8983">
        <ele>1867</ele>
        <time>2024-06-05T19:41:26+00:00</time>
      </trkpt>
      <trkpt lat="45.10894" lon="5.89835">
        <ele>1866</ele>
        <time>2024-06-05T19:41:29+00:00</time>
      </trkpt>
      <trkpt lat="45.10903" lon="5.89844">
        <ele>1868</ele>
        <time>2024-06-05T19:41:32+00:00</time>
      </trkpt>
      <trkpt lat="45.10905" lon="5.89848">
        <ele>1868</ele>
        <time>2024-06-05T19:41:35+00:00</time>
      </trkpt>
      <trkpt lat="45.10906" lon="5.89856">
        <ele>1871</ele>
        <time>2024-06-05T19:41:38+00:00</time>
      </trkpt>
      <trkpt lat="45.10902" lon="5.89862">
        <ele>1873</ele>
        <time>2024-06-05T19:41:41+00:00</time>
      </trkpt>
      <trkpt lat="45.109" lon="5.89872">
        <ele>1877</ele>
        <time>2024-06-05T19:41:44+00:00</time>
      </trkpt>
      <trkpt lat="45.10902" lon="5.89884">
        <ele>1871</ele>
        <time>2024-06-05T19:41:47+00:00</time>
      </trkpt>
      <trkpt lat="45.10903" lon="5.89888">
        <ele>1876</ele>
        <time>2024-06-05T19:41:50+00:00</time>
      </trkpt>
      <trkpt lat="45.10905" lon="5.8989">
        <ele>1876</ele>
        <time>2024-06-05T19:41:53+00:00</time>
      </trkpt>
      <trkpt lat="45.10911" lon="5.89894">
        <ele>1874</ele>
        <time>2024-06-05T19:41:56+00:00</time>
      </trkpt>
      <trkpt lat="45.10918" lon="5.89903">
        <ele>1872</ele>
        <time>2024-06-05T19:41:59+00:00</time>
      </trkpt>
      <trkpt lat="45.10921" lon="5.89912">
        <ele>1875</ele>
        <time>2024-06-05T19:42:02+00:00</time>
      </trkpt>
      <trkpt lat="45.10923" lon="5.8992">
        <ele>1874</ele>
        <time>2024-06-05T19:42:05+00:00</time>
      </trkpt>
      <trkpt lat="45.10925" lon="5.89929">
        <ele>1874</ele>
        <time>2024-06-05T19:42:08+00:00</time>
      </trkpt>
      <trkpt lat="45.10927" lon="5.8993">
        <ele>1874</ele>
        <time>2024-06-05T19:42:11+00:00</time>
      </trkpt>
      <trkpt lat="45.10931" lon="5.8994">
        <ele>1874</ele>
        <time>2024-06-05T19:42:14+00:00</time>
      </trkpt>
      <trkpt lat="45.10932" lon="5.89948">
        <ele>1875</ele>
        <time>2024-06-05T19:42:17+00:00</time>
      </trkpt>
      <trkpt lat="45.10935" lon="5.89959">
        <ele>1880</ele>
        <time>2024-06-05T19:42:20+00:00</time>
      </trkpt>
      <trkpt lat="45.1094" lon="5.8997">
        <ele>1881</ele>
        <time>2024-06-05T19:42:23+00:00</time>
      </trkpt>
      <trkpt lat="45.10946" lon="5.89979">
        <ele>1881</ele>
        <time>2024-06-05T19:42:26+00:00</time>
      </trkpt>
      <trkpt lat="45.1095" lon="5.89984">
        <ele>1877</ele>
        <time>2024-06-05T19:42:29+00:00</time>
      </trkpt>
      <trkpt lat="45.10957" lon="5.89986">
        <ele>1881</ele>
        <time>2024-06-05T19:42:32+00:00</time>
      </trkpt>
      <trkpt lat="45.10963" lon="5.89986">
        <ele>1877</ele>
        <time>2024-06-05T19:42:35+00:00</time>
      </trkpt>
      <trkpt lat="45.10968" lon="5.89989">
        <ele>1877</ele>
        <time>2024-06-05T19:42:38+00:00</time>
      </trkpt>
      <trkpt lat="45.10975" lon="5.8999">
        <ele>1877</ele>
        <time>2024-06-05T19:42:41+00:00</time>
      </trkpt>
      <trkpt lat="45.10982" lon="5.89999">
        <ele>1875</ele>
        <time>2024-06-05T19:42:44+00:00</time>
      </trkpt>
      <trkpt lat="45.10989" lon="5.90004">
        <ele>1875</ele>
        <time>2024-06-05T19:42:47+00:00</time>
      </trkpt>
      <trkpt lat="45.10996" lon="5.90014">
        <ele>1877</ele>
        <time>2024-06-05T19:42:50+00:00</time>
      </trkpt>
      <trkpt lat="45.11002" lon="5.90024">
        <ele>1878</ele>
        <time>2024-06-05T19:42:53+00:00</time>
      </trkpt>
      <trkpt lat="45.11004" lon="5.90032">
        <ele>1879</ele>
        <time>2024-06-05T19:42:56+00:00</time>
      </trkpt>
      <trkpt lat="45.11009" lon="5.90036">
        <ele>1879</ele>
        <time>2024-06-05T19:42:59+00:00</time>
      </trkpt>
      <trkpt lat="45.11015" lon="5.90039">
        <ele>1880</ele>
        <time>2024-06-05T19:43:02+00:00</time>
      </trkpt>
      <trkpt lat="45.1102" lon="5.90043">
        <ele>1882</ele>
        <time>2024-06-05T19:43:05+00:00</time>
      </trkpt>
      <trkpt lat="45.11026" lon="5.9005">
        <ele>1883</ele>
        <time>2024-06-05T19:43:08+00:00</time>
      </trkpt>
      <trkpt lat="45.11031" lon="5.90059">
        <ele>1886</ele>
        <time>2024-06-05T19:43:11+00:00</time>
      </trkpt>
      <trkpt lat="45.11036" lon="5.90063">
        <ele>1887</ele>
        <time>2024-06-05T19:43:14+00:00</time>
      </trkpt>
      <trkpt lat="45.11041" lon="5.90066">
        <ele>1887</ele>
        <time>2024-06-05T19:43:17+00:00</time>
      </trkpt>
      <trkpt lat="45.11047" lon="5.90067">
        <ele>1887</ele>
        <time>2024-06-05T19:43:20+00:00</time>
      </trkpt>
      <trkpt lat="45.11051" lon="5.90069">
        <ele>1887</ele>
        <time>2024-06-05T19:43:23+00:00</time>
      </trkpt>
      <trkpt lat="45.11053" lon="5.90074">
        <ele>1888</ele>
        <time>2024-06-05T19:43:26+00:00</time>
      </trkpt>
      <trkpt lat="45.11056" lon="5.90086">
        <ele>1890</ele>
        <time>2024-06-05T19:43:29+00:00</time>
      </trkpt>
      <trkpt lat="45.11058" lon="5.90101">
        <ele>1891</ele>
        <time>2024-06-05T19:43:32+00:00</time>
      </trkpt>
      <trkpt lat="45.1106" lon="5.90109">
        <ele>1891</ele>
        <time>2024-06-05T19:43:35+00:00</time>
      </trkpt>
      <trkpt lat="45.11065" lon="5.90112">
        <ele>1893</ele>
        <time>2024-06-05T19:43:38+00:00</time>
      </trkpt>
      <trkpt lat="45.11069" lon="5.90117">
        <ele>1893</ele>
        <time>2024-06-05T19:43:41+00:00</time>
      </trkpt>
      <trkpt lat="45.11076" lon="5.90118">
        <ele>1895</ele>
        <time>2024-06-05T19:43:44+00:00</time>
      </trkpt>
      <trkpt lat="45.11082" lon="5.90112">
        <ele>1900</ele>
        <time>2024-06-05T19:43:47+00:00</time>
      </trkpt>
      <trkpt lat="45.11085" lon="5.90113">
        <ele>1900</ele>
        <time>2024-06-05T19:43:50+00:00</time>
      </trkpt>
      <trkpt lat="45.11092" lon="5.90119">
        <ele>1906</ele>
        <time>2024-06-05T19:43:53+00:00</time>
      </trkpt>
      <trkpt lat="45.11099" lon="5.90116">
        <ele>1906</ele>
        <time>2024-06-05T19:43:56+00:00</time>
      </trkpt>
      <trkpt lat="45.11103" lon="5.90121">
        <ele>1910</ele>
        <time>2024-06-05T19:43:59+00:00</time>
      </trkpt>
      <trkpt lat="45.11107" lon="5.90126">
        <ele>1910</ele>
        <time>2024-06-05T19:44:02+00:00</time>
      </trkpt>
      <trkpt lat="45.11114" lon="5.90131">
        <ele>1914</ele>
        <time>2024-06-05T19:44:05+00:00</time>
      </trkpt>
      <trkpt lat="45.11123" lon="5.90137">
        <ele>1915</ele>
        <time>2024-06-05T19:44:08+00:00</time>
      </trkpt>
      <trkpt lat="45.11133" lon="5.9014">
        <ele>1916</ele>
        <time>2024-06-05T19:44:11+00:00</time>
      </trkpt>
      <trkpt lat="45.11145" lon="5.90141">
        <ele>1917</ele>
        <time>2024-06-05T19:44:14+00:00</time>
      </trkpt>
      <trkpt lat="45.11156" lon="5.90143">
        <ele>1916</ele>
        <time>2024-06-05T19:44:17+00:00</time>
      </trkpt>
      <trkpt lat="45.11167" lon="5.9015">
        <ele>1916</ele>
        <time>2024-06-05T19:44:20+00:00</time>
      </trkpt>
      <trkpt lat="45.11177" lon="5.90153">
        <ele>1917</ele>
        <time>2024-06-05T19:44:23+00:00</time>
      </trkpt>
      <trkpt lat="45.11182" lon="5.90157">
        <ele>1914</ele>
        <time>2024-06-05T19:44:26+00:00</time>
      </trkpt>
      <trkpt lat="45.11191" lon="5.90165">
        <ele>1915</ele>
        <time>2024-06-05T19:44:29+00:00</time>
      </trkpt>
      <trkpt lat="45.11199" lon="5.90174">
        <ele>1917</ele>
        <time>2024-06-05T19:44:32+00:00</time>
      </trkpt>
      <trkpt lat="45.11211" lon="5.90183">
        <ele>1918</ele>
        <time>2024-06-05T19:44:35+00:00</time>
      </trkpt>
      <trkpt lat="45.1122" lon="5.90188">
        <ele>1915</ele>
        <time>2024-06-05T19:44:38+00:00</time>
      </trkpt>
      <trkpt lat="45.1123" lon="5.90185">
        <ele>1914</ele>
        <time>2024-06-05T19:44:41+00:00</time>
      </trkpt>
      <trkpt lat="45.11237" lon="5.9018">
        <ele>1914</ele>
        <time>2024-06-05T19:44:44+00:00</time>
      </trkpt>
      <trkpt lat="45.11243" lon="5.90172">
        <ele>1915</ele>
        <time>2024-06-05T19:44:47+00:00</time>
      </trkpt>
      <trkpt lat="45.11253" lon="5.90167">
        <ele>1915</ele>
        <time>2024-06-05T19:44:50+00:00</time>
      </trkpt>
      <trkpt lat="45.1126" lon="5.90166">
        <ele>1915</ele>
        <time>2024-06-05T19:44:53+00:00</time>
      </trkpt>
      <trkpt lat="45.11268" lon="5.90167">
        <ele>1915</ele>
        <time>2024-06-05T19:44:56+00:00</time>
      </trkpt>
      <trkpt lat="45.11275" lon="5.90168">
        <ele>1914</ele>
        <time>2024-06-05T19:44:59+00:00</time>
      </trkpt>
      <trkpt lat="45.11279" lon="5.90168">
        <ele>1914</ele>
        <time>2024-06-05T19:45:02+00:00</time>
      </trkpt>
      <trkpt lat="45.11283" lon="5.90166">
        <ele>1916</ele>
        <time>2024-06-05T19:45:05+00:00</time>
      </trkpt>
      <trkpt lat="45.11289" lon="5.90165">
        <ele>1916</ele>
        <time>2024-06-05T19:45:08+00:00</time>
      </trkpt>
      <trkpt lat="45.11293" lon="5.9017">
        <ele>1917</ele>
        <time>2024-06-05T19:45:11+00:00</time>
      </trkpt>
      <trkpt lat="45.11296" lon="5.9018">
        <ele>1918</ele>
        <time>2024-06-05T19:45:14+00:00</time>
      </trkpt>
      <trkpt lat="45.11303" lon="5.90184">
        <ele>1918</ele>
        <time>2024-06-05T19:45:17+00:00</time>
      </trkpt>
      <trkpt lat="45.1131" lon="5.9019">
        <ele>1919</ele>
        <time>2024-06-05T19:45:20+00:00</time>
      </trkpt>
      <trkpt lat="45.11316" lon="5.90197">
        <ele>1919</ele>
        <time>2024-06-05T19:45:23+00:00</time>
      </trkpt>
      <trkpt lat="45.11319" lon="5.90205">
        <ele>1917</ele>
        <time>2024-06-05T19:45:26+00:00</time>
      </trkpt>
      <trkpt lat="45.11326" lon="5.90212">
        <ele>1917</ele>
        <time>2024-06-05T19:45:29+00:00</time>
      </trkpt>
      <trkpt lat="45.1133" lon="5.90219">
        <ele>1916</ele>
        <time>2024-06-05T19:45:32+00:00</time>
      </trkpt>
      <trkpt lat="45.11335" lon="5.90228">
        <ele>1917</ele>
        <time>2024-06-05T19:45:35+00:00</time>
      </trkpt>
      <trkpt lat="45.1134" lon="5.90232">
        <ele>1918</ele>
        <time>2024-06-05T19:45:38+00:00</time>
      </trkpt>
      <trkpt lat="45.11349" lon="5.90236">
        <ele>1917</ele>
        <time>2024-06-05T19:45:41+00:00</time>
      </trkpt>
      <trkpt lat="45.11354" lon="5.90244">
        <ele>1920</ele>
        <time>2024-06-05T19:45:44+00:00</time>
      </trkpt>
      <trkpt lat="45.11358" lon="5.90247">
        <ele>1920</ele>
        <time>2024-06-05T19:45:47+00:00</time>
      </trkpt>
      <trkpt lat="45.11366" lon="5.90252">
        <ele>1925</ele>
        <time>2024-06-05T19:45:50+00:00</time>
      </trkpt>
      <trkpt lat="45.11371" lon="5.90255">
        <ele>1925</ele>
        <time>2024-06-05T19:45:53+00:00</time>
      </trkpt>
      <trkpt lat="45.11373" lon="5.90259">
        <ele>1925</ele>
        <time>2024-06-05T19:45:56+00:00</time>
      </trkpt>
      <trkpt lat="45.11377" lon="5.90266">
        <ele>1927</ele>
        <time>2024-06-05T19:45:59+00:00</time>
      </trkpt>
      <trkpt lat="45.1138" lon="5.90268">
        <ele>1928</ele>
        <time>2024-06-05T19:46:02+00:00</time>
      </trkpt>
      <trkpt lat="45.11385" lon="5.9027">
        <ele>1928</ele>
        <time>2024-06-05T19:46:05+00:00</time>
      </trkpt>
      <trkpt lat="45.11386" lon="5.90274">
        <ele>1930</ele>
        <time>2024-06-05T19:46:08+00:00</time>
      </trkpt>
      <trkpt lat="45.11386" lon="5.9028">
        <ele>1930</ele>
        <time>2024-06-05T19:46:11+00:00</time>
      </trkpt>
      <trkpt lat="45.11385" lon="5.9029">
        <ele>1932</ele>
        <time>2024-06-05T19:46:14+00:00</time>
      </trkpt>
      <trkpt lat="45.11386" lon="5.90298">
        <ele>1933</ele>
        <time>2024-06-05T19:46:17+00:00</time>
      </trkpt>
      <trkpt lat="45.1139" lon="5.90298">
        <ele>1938</ele>
        <time>2024-06-05T19:46:20+00:00</time>
      </trkpt>
      <trkpt lat="45.11397" lon="5.90304">
        <ele>1938</ele>
        <time>2024-06-05T19:46:23+00:00</time>
      </trkpt>
      <trkpt lat="45.11403" lon="5.90314">
        <ele>1943</ele>
        <time>2024-06-05T19:46:26+00:00</time>
      </trkpt>
      <trkpt lat="45.11411" lon="5.90322">
        <ele>1944</ele>
        <time>2024-06-05T19:46:29+00:00</time>
      </trkpt>
      <trkpt lat="45.11422" lon="5.9033">
        <ele>1946</ele>
        <time>2024-06-05T19:46:32+00:00</time>
      </trkpt>
      <trkpt lat="45.11429" lon="5.90338">
        <ele>1946</ele>
        <time>2024-06-05T19:46:35+00:00</time>
      </trkpt>
      <trkpt lat="45.11433" lon="5.9035">
        <ele>1949</ele>
        <time>2024-06-05T19:46:38+00:00</time>
      </trkpt>
      <trkpt lat="45.11433" lon="5.9036">
        <ele>1949</ele>
        <time>2024-06-05T19:46:41+00:00</time>
      </trkpt>
      <trkpt lat="45.11434" lon="5.90369">
        <ele>1949</ele>
        <time>2024-06-05T19:46:44+00:00</time>
      </trkpt>
      <trkpt lat="45.11436" lon="5.90373">
        <ele>1950</ele>
        <time>2024-06-05T19:46:47+00:00</time>
      </trkpt>
      <trkpt lat="45.11443" lon="5.90373">
        <ele>1949</ele>
        <time>2024-06-05T19:46:50+00:00</time>
      </trkpt>
      <trkpt lat="45.1145" lon="5.90372">
        <ele>1949</ele>
        <time>2024-06-05T19:46:53+00:00</time>
      </trkpt>
      <trkpt lat="45.11457" lon="5.90376">
        <ele>1950</ele>
        <time>2024-06-05T19:46:56+00:00</time>
      </trkpt>
      <trkpt lat="45.11467" lon="5.90382">
        <ele>1950</ele>
        <time>2024-06-05T19:46:59+00:00</time>
      </trkpt>
      <trkpt lat="45.11483" lon="5.90387">
        <ele>1952</ele>
        <time>2024-06-05T19:47:02+00:00</time>
      </trkpt>
      <trkpt lat="45.11488" lon="5.9039">
        <ele>1952</ele>
        <time>2024-06-05T19:47:05+00:00</time>
      </trkpt>
      <trkpt lat="45.1149" lon="5.90399">
        <ele>1952</ele>
        <time>2024-06-05T19:47:08+00:00</time>
      </trkpt>
      <trkpt lat="45.11494" lon="5.90406">
        <ele>1953</ele>
        <time>2024-06-05T19:47:11+00:00</time>
      </trkpt>
      <trkpt lat="45.11498" lon="5.90416">
        <ele>1954</ele>
        <time>2024-06-05T19:47:14+00:00</time>
      </trkpt>
      <trkpt lat="45.11503" lon="5.90427">
        <ele>1954</ele>
        <time>2024-06-05T19:47:17+00:00</time>
      </trkpt>
      <trkpt lat="45.1151" lon="5.90432">
        <ele>1956</ele>
        <time>2024-06-05T19:47:20+00:00</time>
      </trkpt>
      <trkpt lat="45.11517" lon="5.90436">
        <ele>1956</ele>
        <time>2024-06-05T19:47:23+00:00</time>
      </trkpt>
      <trkpt lat="45.11523" lon="5.90446">
        <ele>1958</ele>
        <time>2024-06-05T19:47:26+00:00</time>
      </trkpt>
      <trkpt lat="45.11531" lon="5.9045">
        <ele>1961</ele>
        <time>2024-06-05T19:47:29+00:00</time>
      </trkpt>
      <trkpt lat="45.11543" lon="5.90452">
        <ele>1963</ele>
        <time>2024-06-05T19:47:32+00:00</time>
      </trkpt>
      <trkpt lat="45.1156" lon="5.90455">
        <ele>1965</ele>
        <time>2024-06-05T19:47:35+00:00</time>
      </trkpt>
      <trkpt lat="45.11575" lon="5.90456">
        <ele>1968</ele>
        <time>2024-06-05T19:47:38+00:00</time>
      </trkpt>
      <trkpt lat="45.11586" lon="5.90459">
        <ele>1970</ele>
        <time>2024-06-05T19:47:41+00:00</time>
      </trkpt>
      <trkpt lat="45.11592" lon="5.90457">
        <ele>1971</ele>
        <time>2024-06-05T19:47:44+00:00</time>
      </trkpt>
      <trkpt lat="45.11601" lon="5.90458">
        <ele>1972</ele>
        <time>2024-06-05T19:47:47+00:00</time>
      </trkpt>
      <trkpt lat="45.1161" lon="5.90463">
        <ele>1975</ele>
        <time>2024-06-05T19:47:50+00:00</time>
      </trkpt>
      <trkpt lat="45.11628" lon="5.90468">
        <ele>1977</ele>
        <time>2024-06-05T19:47:53+00:00</time>
      </trkpt>
      <trkpt lat="45.11632" lon="5.90473">
        <ele>1980</ele>
        <time>2024-06-05T19:47:56+00:00</time>
      </trkpt>
      <trkpt lat="45.11637" lon="5.90477">
        <ele>1980</ele>
        <time>2024-06-05T19:47:59+00:00</time>
      </trkpt>
      <trkpt lat="45.11644" lon="5.90481">
        <ele>1983</ele>
        <time>2024-06-05T19:48:02+00:00</time>
      </trkpt>
      <trkpt lat="45.11655" lon="5.90487">
        <ele>1984</ele>
        <time>2024-06-05T19:48:05+00:00</time>
      </trkpt>
      <trkpt lat="45.1167" lon="5.90487">
        <ele>1986</ele>
        <time>2024-06-05T19:48:08+00:00</time>
      </trkpt>
      <trkpt lat="45.1168" lon="5.90488">
        <ele>1988</ele>
        <time>2024-06-05T19:48:11+00:00</time>
      </trkpt>
      <trkpt lat="45.11689" lon="5.90494">
        <ele>1993</ele>
        <time>2024-06-05T19:48:14+00:00</time>
      </trkpt>
      <trkpt lat="45.117" lon="5.90502">
        <ele>1996</ele>
        <time>2024-06-05T19:48:17+00:00</time>
      </trkpt>
      <trkpt lat="45.11708" lon="5.90511">
        <ele>1999</ele>
        <time>2024-06-05T19:48:20+00:00</time>
      </trkpt>
      <trkpt lat="45.11721" lon="5.90526">
        <ele>2003</ele>
        <time>2024-06-05T19:48:23+00:00</time>
      </trkpt>
      <trkpt lat="45.11735" lon="5.90541">
        <ele>2009</ele>
        <time>2024-06-05T19:48:26+00:00</time>
      </trkpt>
      <trkpt lat="45.11754" lon="5.90563">
        <ele>2018</ele>
        <time>2024-06-05T19:48:29+00:00</time>
      </trkpt>
      <trkpt lat="45.11782" lon="5.90583">
        <ele>2021</ele>
        <time>2024-06-05T19:48:32+00:00</time>
      </trkpt>
      <trkpt lat="45.11783" lon="5.90586">
        <ele>2026</ele>
        <time>2024-06-05T19:48:35+00:00</time>
      </trkpt>
      <trkpt lat="45.11789" lon="5.90594">
        <ele>2027</ele>
        <time>2024-06-05T19:48:38+00:00</time>
      </trkpt>
      <trkpt lat="45.11797" lon="5.90601">
        <ele>2022</ele>
        <time>2024-06-05T19:48:41+00:00</time>
      </trkpt>
      <trkpt lat="45.11797" lon="5.90601">
        <ele>2025</ele>
        <time>2024-06-05T19:48:44+00:00</time>
      </trkpt>
      <trkpt lat="45.11797" lon="5.90601">
        <ele>2025</ele>
        <time>2024-06-05T19:48:47+00:00</time>
      </trkpt>
      <trkpt lat="45.11803" lon="5.90614">
        <ele>2024</ele>
        <time>2024-06-05T19:48:50+00:00</time>
      </trkpt>
      <trkpt lat="45.11813" lon="5.90623">
        <ele>2024</ele>
        <time>2024-06-05T19:48:53+00:00</time>
      </trkpt>
      <trkpt lat="45.11823" lon="5.90635">
        <ele>2025</ele>
        <time>2024-06-05T19:48:56+00:00</time>
      </trkpt>
      <trkpt lat="45.11834" lon="5.90643">
        <ele>2023</ele>
        <time>2024-06-05T19:48:59+00:00</time>
      </trkpt>
      <trkpt lat="45.11844" lon="5.9065">
        <ele>2024</ele>
        <time>2024-06-05T19:49:02+00:00</time>
      </trkpt>
      <trkpt lat="45.11857" lon="5.9066">
        <ele>2022</ele>
        <time>2024-06-05T19:49:05+00:00</time>
      </trkpt>
      <trkpt lat="45.11867" lon="5.90665">
        <ele>2024</ele>
        <time>2024-06-05T19:49:08+00:00</time>
      </trkpt>
      <trkpt lat="45.11867" lon="5.90684">
        <ele>2024</ele>
        <time>2024-06-05T19:49:11+00:00</time>
      </trkpt>
      <trkpt lat="45.11875" lon="5.90697">
        <ele>2024</ele>
        <time>2024-06-05T19:49:14+00:00</time>
      </trkpt>
      <trkpt lat="45.11886" lon="5.90709">
        <ele>2026</ele>
        <time>2024-06-05T19:49:17+00:00</time>
      </trkpt>
      <trkpt lat="45.11908" lon="5.90725">
        <ele>2027</ele>
        <time>2024-06-05T19:49:20+00:00</time>
      </trkpt>
      <trkpt lat="45.11932" lon="5.9075">
        <ele>2036</ele>
        <time>2024-06-05T19:49:23+00:00</time>
      </trkpt>
      <trkpt lat="45.11938" lon="5.90756">
        <ele>2035</ele>
        <time>2024-06-05T19:49:26+00:00</time>
      </trkpt>
      <trkpt lat="45.11949" lon="5.90764">
        <ele>2038</ele>
        <time>2024-06-05T19:49:29+00:00</time>
      </trkpt>
      <trkpt lat="45.11962" lon="5.90785">
        <ele>2042</ele>
        <time>2024-06-05T19:49:32+00:00</time>
      </trkpt>
      <trkpt lat="45.11974" lon="5.90824">
        <ele>2047</ele>
        <time>2024-06-05T19:49:35+00:00</time>
      </trkpt>
      <trkpt lat="45.11977" lon="5.9083">
        <ele>2045</ele>
        <time>2024-06-05T19:49:38+00:00</time>
      </trkpt>
      <trkpt lat="45.11981" lon="5.90835">
        <ele>2051</ele>
        <time>2024-06-05T19:49:41+00:00</time>
      </trkpt>
      <trkpt lat="45.11989" lon="5.90846">
        <ele>2049</ele>
        <time>2024-06-05T19:49:44+00:00</time>
      </trkpt>
      <trkpt lat="45.11993" lon="5.90849">
        <ele>2054</ele>
        <time>2024-06-05T19:49:47+00:00</time>
      </trkpt>
      <trkpt lat="45.11995" lon="5.90845">
        <ele>2054</ele>
        <time>2024-06-05T19:49:50+00:00</time>
      </trkpt>
      <trkpt lat="45.12007" lon="5.90842">
        <ele>2059</ele>
        <time>2024-06-05T19:49:53+00:00</time>
      </trkpt>
      <trkpt lat="45.12018" lon="5.90834">
        <ele>2064</ele>
        <time>2024-06-05T19:49:56+00:00</time>
      </trkpt>
      <trkpt lat="45.12021" lon="5.90841">
        <ele>2066</ele>
        <time>2024-06-05T19:49:59+00:00</time>
      </trkpt>
      <trkpt lat="45.12026" lon="5.90851">
        <ele>2066</ele>
        <time>2024-06-05T19:50:02+00:00</time>
      </trkpt>
      <trkpt lat="45.12033" lon="5.90856">
        <ele>2068</ele>
        <time>2024-06-05T19:50:05+00:00</time>
      </trkpt>
      <trkpt lat="45.12046" lon="5.90858">
        <ele>2066</ele>
        <time>2024-06-05T19:50:08+00:00</time>
      </trkpt>
      <trkpt lat="45.12057" lon="5.9086">
        <ele>2068</ele>
        <time>2024-06-05T19:50:11+00:00</time>
      </trkpt>
      <trkpt lat="45.12063" lon="5.90863">
        <ele>2066</ele>
        <time>2024-06-05T19:50:14+00:00</time>
      </trkpt>
      <trkpt lat="45.1207" lon="5.90867">
        <ele>2064</ele>
        <time>2024-06-05T19:50:17+00:00</time>
      </trkpt>
      <trkpt lat="45.1208" lon="5.90876">
        <ele>2066</ele>
        <time>2024-06-05T19:50:20+00:00</time>
      </trkpt>
      <trkpt lat="45.12085" lon="5.9089">
        <ele>2063</ele>
        <time>2024-06-05T19:50:23+00:00</time>
      </trkpt>
      <trkpt lat="45.1209" lon="5.90902">
        <ele>2065</ele>
        <time>2024-06-05T19:50:26+00:00</time>
      </trkpt>
      <trkpt lat="45.12097" lon="5.90911">
        <ele>2062</ele>
        <time>2024-06-05T19:50:29+00:00</time>
      </trkpt>
      <trkpt lat="45.12102" lon="5.90917">
        <ele>2064</ele>
        <time>2024-06-05T19:50:32+00:00</time>
      </trkpt>
      <trkpt lat="45.1211" lon="5.90926">
        <ele>2062</ele>
        <time>2024-06-05T19:50:35+00:00</time>
      </trkpt>
      <trkpt lat="45.12116" lon="5.90933">
        <ele>2061</ele>
        <time>2024-06-05T19:50:38+00:00</time>
      </trkpt>
      <trkpt lat="45.12123" lon="5.90936">
        <ele>2061</ele>
        <time>2024-06-05T19:50:41+00:00</time>
      </trkpt>
      <trkpt lat="45.1213" lon="5.90939">
        <ele>2061</ele>
        <time>2024-06-05T19:50:44+00:00</time>
      </trkpt>
      <trkpt lat="45.12137" lon="5.90941">
        <ele>2059</ele>
        <time>2024-06-05T19:50:47+00:00</time>
      </trkpt>
      <trkpt lat="45.12139" lon="5.90945">
        <ele>2059</ele>
        <time>2024-06-05T19:50:50+00:00</time>
      </trkpt>
      <trkpt lat="45.12143" lon="5.90949">
        <ele>2059</ele>
        <time>2024-06-05T19:50:53+00:00</time>
      </trkpt>
      <trkpt lat="45.1215" lon="5.90954">
        <ele>2059</ele>
        <time>2024-06-05T19:50:56+00:00</time>
      </trkpt>
      <trkpt lat="45.12155" lon="5.90959">
        <ele>2060</ele>
        <time>2024-06-05T19:50:59+00:00</time>
      </trkpt>
      <trkpt lat="45.12159" lon="5.90966">
        <ele>2059</ele>
        <time>2024-06-05T19:51:02+00:00</time>
      </trkpt>
      <trkpt lat="45.12162" lon="5.90969">
        <ele>2059</ele>
        <time>2024-06-05T19:51:05+00:00</time>
      </trkpt>
      <trkpt lat="45.12172" lon="5.90971">
        <ele>2062</ele>
        <time>2024-06-05T19:51:08+00:00</time>
      </trkpt>
      <trkpt lat="45.12186" lon="5.90973">
        <ele>2065</ele>
        <time>2024-06-05T19:51:11+00:00</time>
      </trkpt>
      <trkpt lat="45.12197" lon="5.90975">
        <ele>2066</ele>
        <time>2024-06-05T19:51:14+00:00</time>
      </trkpt>
      <trkpt lat="45.12209" lon="5.90976">
        <ele>2067</ele>
        <time>2024-06-05T19:51:17+00:00</time>
      </trkpt>
      <trkpt lat="45.12213" lon="5.90979">
        <ele>2069</ele>
        <time>2024-06-05T19:51:20+00:00</time>
      </trkpt>
      <trkpt lat="45.12216" lon="5.9099">
        <ele>2072</ele>
        <time>2024-06-05T19:51:23+00:00</time>
      </trkpt>
      <trkpt lat="45.12223" lon="5.90996">
        <ele>2073</ele>
        <time>2024-06-05T19:51:26+00:00</time>
      </trkpt>
      <trkpt lat="45.12235" lon="5.91">
        <ele>2072</ele>
        <time>2024-06-05T19:51:29+00:00</time>
      </trkpt>
      <trkpt lat="45.1225" lon="5.91001">
        <ele>2072</ele>
        <time>2024-06-05T19:51:32+00:00</time>
      </trkpt>
      <trkpt lat="45.12259" lon="5.91002">
        <ele>2072</ele>
        <time>2024-06-05T19:51:35+00:00</time>
      </trkpt>
      <trkpt lat="45.12269" lon="5.91009">
        <ele>2071</ele>
        <time>2024-06-05T19:51:38+00:00</time>
      </trkpt>
      <trkpt lat="45.12285" lon="5.91026">
        <ele>2072</ele>
        <time>2024-06-05T19:51:41+00:00</time>
      </trkpt>
      <trkpt lat="45.12293" lon="5.91035">
        <ele>2071</ele>
        <time>2024-06-05T19:51:44+00:00</time>
      </trkpt>
      <trkpt lat="45.12303" lon="5.91043">
        <ele>2072</ele>
        <time>2024-06-05T19:51:47+00:00</time>
      </trkpt>
      <trkpt lat="45.12309" lon="5.91046">
        <ele>2072</ele>
        <time>2024-06-05T19:51:50+00:00</time>
      </trkpt>
      <trkpt lat="45.12326" lon="5.91047">
        <ele>2076</ele>
        <time>2024-06-05T19:51:53+00:00</time>
      </trkpt>
      <trkpt lat="45.12339" lon="5.91046">
        <ele>2077</ele>
        <time>2024-06-05T19:51:56+00:00</time>
      </trkpt>
      <trkpt lat="45.12353" lon="5.91045">
        <ele>2076</ele>
        <time>2024-06-05T19:51:59+00:00</time>
      </trkpt>
      <trkpt lat="45.1237" lon="5.91034">
        <ele>2076</ele>
        <time>2024-06-05T19:52:02+00:00</time>
      </trkpt>
      <trkpt lat="45.1238" lon="5.91027">
        <ele>2076</ele>
        <time>2024-06-05T19:52:05+00:00</time>
      </trkpt>
      <trkpt lat="45.12384" lon="5.91022">
        <ele>2076</ele>
        <time>2024-06-05T19:52:08+00:00</time>
      </trkpt>
      <trkpt lat="45.12393" lon="5.91007">
        <ele>2078</ele>
        <time>2024-06-05T19:52:11+00:00</time>
      </trkpt>
      <trkpt lat="45.12398" lon="5.90996">
        <ele>2078</ele>
        <time>2024-06-05T19:52:14+00:00</time>
      </trkpt>
      <trkpt lat="45.12404" lon="5.90984">
        <ele>2082</ele>
        <time>2024-06-05T19:52:17+00:00</time>
      </trkpt>
      <trkpt lat="45.1241" lon="5.90969">
        <ele>2089</ele>
        <time>2024-06-05T19:52:20+00:00</time>
      </trkpt>
      <trkpt lat="45.12411" lon="5.90954">
        <ele>2091</ele>
        <time>2024-06-05T19:52:23+00:00</time>
      </trkpt>
      <trkpt lat="45.12412" lon="5.90941">
        <ele>2093</ele>
        <time>2024-06-05T19:52:26+00:00</time>
      </trkpt>
      <trkpt lat="45.12415" lon="5.90929">
        <ele>2095</ele>
        <time>2024-06-05T19:52:29+00:00</time>
      </trkpt>
      <trkpt lat="45.1242" lon="5.90917">
        <ele>2102</ele>
        <time>2024-06-05T19:52:32+00:00</time>
      </trkpt>
      <trkpt lat="45.12428" lon="5.90906">
        <ele>2101</ele>
        <time>2024-06-05T19:52:35+00:00</time>
      </trkpt>
      <trkpt lat="45.12437" lon="5.909">
        <ele>2105</ele>
        <time>2024-06-05T19:52:38+00:00</time>
      </trkpt>
      <trkpt lat="45.12445" lon="5.90895">
        <ele>2109</ele>
        <time>2024-06-05T19:52:41+00:00</time>
      </trkpt>
      <trkpt lat="45.1245" lon="5.90899">
        <ele>2117</ele>
        <time>2024-06-05T19:52:44+00:00</time>
      </trkpt>
      <trkpt lat="45.12451" lon="5.90909">
        <ele>2118</ele>
        <time>2024-06-05T19:52:47+00:00</time>
      </trkpt>
      <trkpt lat="45.1245" lon="5.90917">
        <ele>2112</ele>
        <time>2024-06-05T19:52:50+00:00</time>
      </trkpt>
      <trkpt lat="45.12452" lon="5.9092">
        <ele>2119</ele>
        <time>2024-06-05T19:52:53+00:00</time>
      </trkpt>
      <trkpt lat="45.12457" lon="5.90933">
        <ele>2121</ele>
        <time>2024-06-05T19:52:56+00:00</time>
      </trkpt>
      <trkpt lat="45.12462" lon="5.90943">
        <ele>2124</ele>
        <time>2024-06-05T19:52:59+00:00</time>
      </trkpt>
      <trkpt lat="45.12466" lon="5.90947">
        <ele>2124</ele>
        <time>2024-06-05T19:53:02+00:00</time>
      </trkpt>
      <trkpt lat="45.12468" lon="5.9095">
        <ele>2124</ele>
        <time>2024-06-05T19:53:05+00:00</time>
      </trkpt>
      <trkpt lat="45.12469" lon="5.90947">
        <ele>2124</ele>
        <time>2024-06-05T19:53:08+00:00</time>
      </trkpt>
      <trkpt lat="45.12471" lon="5.90936">
        <ele>2129</ele>
        <time>2024-06-05T19:53:11+00:00</time>
      </trkpt>
      <trkpt lat="45.12476" lon="5.90923">
        <ele>2130</ele>
        <time>2024-06-05T19:53:14+00:00</time>
      </trkpt>
      <trkpt lat="45.12478" lon="5.90917">
        <ele>2129</ele>
        <time>2024-06-05T19:53:17+00:00</time>
      </trkpt>
      <trkpt lat="45.12483" lon="5.90916">
        <ele>2135</ele>
        <time>2024-06-05T19:53:20+00:00</time>
      </trkpt>
      <trkpt lat="45.12486" lon="5.90922">
        <ele>2135</ele>
        <time>2024-06-05T19:53:23+00:00</time>
      </trkpt>
      <trkpt lat="45.12489" lon="5.90932">
        <ele>2135</ele>
        <time>2024-06-05T19:53:26+00:00</time>
      </trkpt>
      <trkpt lat="45.12492" lon="5.90944">
        <ele>2137</ele>
        <time>2024-06-05T19:53:29+00:00</time>
      </trkpt>
      <trkpt lat="45.12498" lon="5.90959">
        <ele>2137</ele>
        <time>2024-06-05T19:53:32+00:00</time>
      </trkpt>
      <trkpt lat="45.12508" lon="5.90969">
        <ele>2140</ele>
        <time>2024-06-05T19:53:35+00:00</time>
      </trkpt>
      <trkpt lat="45.12513" lon="5.90981">
        <ele>2144</ele>
        <time>2024-06-05T19:53:38+00:00</time>
      </trkpt>
      <trkpt lat="45.12515" lon="5.9099">
        <ele>2144</ele>
        <time>2024-06-05T19:53:41+00:00</time>
      </trkpt>
      <trkpt lat="45.12516" lon="5.90998">
        <ele>2144</ele>
        <time>2024-06-05T19:53:44+00:00</time>
      </trkpt>
      <trkpt lat="45.12518" lon="5.91008">
        <ele>2145</ele>
        <time>2024-06-05T19:53:47+00:00</time>
      </trkpt>
      <trkpt lat="45.12521" lon="5.91021">
        <ele>2148</ele>
        <time>2024-06-05T19:53:50+00:00</time>
      </trkpt>
      <trkpt lat="45.12522" lon="5.91031">
        <ele>2149</ele>
        <time>2024-06-05T19:53:53+00:00</time>
      </trkpt>
      <trkpt lat="45.12521" lon="5.91043">
        <ele>2150</ele>
        <time>2024-06-05T19:53:56+00:00</time>
      </trkpt>
      <trkpt lat="45.12518" lon="5.91054">
        <ele>2148</ele>
        <time>2024-06-05T19:53:59+00:00</time>
      </trkpt>
      <trkpt lat="45.12515" lon="5.91066">
        <ele>2150</ele>
        <time>2024-06-05T19:54:02+00:00</time>
      </trkpt>
      <trkpt lat="45.12515" lon="5.91081">
        <ele>2151</ele>
        <time>2024-06-05T19:54:05+00:00</time>
      </trkpt>
      <trkpt lat="45.12512" lon="5.91099">
        <ele>2155</ele>
        <time>2024-06-05T19:54:08+00:00</time>
      </trkpt>
      <trkpt lat="45.12509" lon="5.91114">
        <ele>2152</ele>
        <time>2024-06-05T19:54:11+00:00</time>
      </trkpt>
      <trkpt lat="45.12508" lon="5.91124">
        <ele>2153</ele>
        <time>2024-06-05T19:54:14+00:00</time>
      </trkpt>
      <trkpt lat="45.12509" lon="5.91135">
        <ele>2153</ele>
        <time>2024-06-05T19:54:17+00:00</time>
      </trkpt>
      <trkpt lat="45.12508" lon="5.9115">
        <ele>2153</ele>
        <time>2024-06-05T19:54:20+00:00</time>
      </trkpt>
      <trkpt lat="45.12506" lon="5.91163">
        <ele>2158</ele>
        <time>2024-06-05T19:54:23+00:00</time>
      </trkpt>
      <trkpt lat="45.12503" lon="5.91172">
        <ele>2160</ele>
        <time>2024-06-05T19:54:26+00:00</time>
      </trkpt>
      <trkpt lat="45.12501" lon="5.91178">
        <ele>2160</ele>
        <time>2024-06-05T19:54:29+00:00</time>
      </trkpt>
      <trkpt lat="45.12499" lon="5.91185">
        <ele>2161</ele>
        <time>2024-06-05T19:54:32+00:00</time>
      </trkpt>
      <trkpt lat="45.12501" lon="5.9119">
        <ele>2162</ele>
        <time>2024-06-05T19:54:35+00:00</time>
      </trkpt>
      <trkpt lat="45.12502" lon="5.91195">
        <ele>2162</ele>
        <time>2024-06-05T19:54:38+00:00</time>
      </trkpt>
      <trkpt lat="45.12505" lon="5.91201">
        <ele>2161</ele>
        <time>2024-06-05T19:54:41+00:00</time>
      </trkpt>
      <trkpt lat="45.12511" lon="5.91208">
        <ele>2158</ele>
        <time>2024-06-05T19:54:44+00:00</time>
      </trkpt>
      <trkpt lat="45.12514" lon="5.91211">
        <ele>2161</ele>
        <time>2024-06-05T19:54:47+00:00</time>
      </trkpt>
      <trkpt lat="45.12515" lon="5.91213">
        <ele>2161</ele>
        <time>2024-06-05T19:54:50+00:00</time>
      </trkpt>
      <trkpt lat="45.12521" lon="5.9122">
        <ele>2163</ele>
        <time>2024-06-05T19:54:53+00:00</time>
      </trkpt>
      <trkpt lat="45.12524" lon="5.91221">
        <ele>2158</ele>
        <time>2024-06-05T19:54:56+00:00</time>
      </trkpt>
      <trkpt lat="45.12525" lon="5.91223">
        <ele>2158</ele>
        <time>2024-06-05T19:54:59+00:00</time>
      </trkpt>
      <trkpt lat="45.12534" lon="5.91235">
        <ele>2157</ele>
        <time>2024-06-05T19:55:02+00:00</time>
      </trkpt>
      <trkpt lat="45.12537" lon="5.91237">
        <ele>2157</ele>
        <time>2024-06-05T19:55:05+00:00</time>
      </trkpt>
      <trkpt lat="45.12541" lon="5.9124">
        <ele>2158</ele>
        <time>2024-06-05T19:55:08+00:00</time>
      </trkpt>
      <trkpt lat="45.12545" lon="5.91245">
        <ele>2158</ele>
        <time>2024-06-05T19:55:11+00:00</time>
      </trkpt>
      <trkpt lat="45.12547" lon="5.91251">
        <ele>2153</ele>
        <time>2024-06-05T19:55:14+00:00</time>
      </trkpt>
      <trkpt lat="45.12554" lon="5.9126">
        <ele>2156</ele>
        <time>2024-06-05T19:55:17+00:00</time>
      </trkpt>
      <trkpt lat="45.1256" lon="5.91269">
        <ele>2153</ele>
        <time>2024-06-05T19:55:20+00:00</time>
      </trkpt>
      <trkpt lat="45.12563" lon="5.91273">
        <ele>2153</ele>
        <time>2024-06-05T19:55:23+00:00</time>
      </trkpt>
      <trkpt lat="45.12568" lon="5.91281">
        <ele>2152</ele>
        <time>2024-06-05T19:55:26+00:00</time>
      </trkpt>
      <trkpt lat="45.12573" lon="5.91286">
        <ele>2152</ele>
        <time>2024-06-05T19:55:29+00:00</time>
      </trkpt>
      <trkpt lat="45.12576" lon="5.91292">
        <ele>2149</ele>
        <time>2024-06-05T19:55:32+00:00</time>
      </trkpt>
      <trkpt lat="45.12578" lon="5.91293">
        <ele>2149</ele>
        <time>2024-06-05T19:55:35+00:00</time>
      </trkpt>
      <trkpt lat="45.12578" lon="5.91295">
        <ele>2149</ele>
        <time>2024-06-05T19:55:38+00:00</time>
      </trkpt>
      <trkpt lat="45.12582" lon="5.91308">
        <ele>2148</ele>
        <time>2024-06-05T19:55:41+00:00</time>
      </trkpt>
      <trkpt lat="45.12588" lon="5.91316">
        <ele>2144</ele>
        <time>2024-06-05T19:55:44+00:00</time>
      </trkpt>
      <trkpt lat="45.1259" lon="5.91322">
        <ele>2144</ele>
        <time>2024-06-05T19:55:47+00:00</time>
      </trkpt>
      <trkpt lat="45.12594" lon="5.91336">
        <ele>2141</ele>
        <time>2024-06-05T19:55:50+00:00</time>
      </trkpt>
      <trkpt lat="45.12597" lon="5.91342">
        <ele>2137</ele>
        <time>2024-06-05T19:55:53+00:00</time>
      </trkpt>
      <trkpt lat="45.12597" lon="5.91347">
        <ele>2137</ele>
        <time>2024-06-05T19:55:56+00:00</time>
      </trkpt>
      <trkpt lat="45.12599" lon="5.9135">
        <ele>2137</ele>
        <time>2024-06-05T19:55:59+00:00</time>
      </trkpt>
      <trkpt lat="45.12599" lon="5.91358">
        <ele>2134</ele>
        <time>2024-06-05T19:56:02+00:00</time>
      </trkpt>
      <trkpt lat="45.12601" lon="5.91361">
        <ele>2136</ele>
        <time>2024-06-05T19:56:05+00:00</time>
      </trkpt>
      <trkpt lat="45.12603" lon="5.91369">
        <ele>2136</ele>
        <time>2024-06-05T19:56:08+00:00</time>
      </trkpt>
      <trkpt lat="45.12605" lon="5.91372">
        <ele>2132</ele>
        <time>2024-06-05T19:56:11+00:00</time>
      </trkpt>
      <trkpt lat="45.12608" lon="5.9138">
        <ele>2130</ele>
        <time>2024-06-05T19:56:14+00:00</time>
      </trkpt>
      <trkpt lat="45.12611" lon="5.91388">
        <ele>2134</ele>
        <time>2024-06-05T19:56:17+00:00</time>
      </trkpt>
      <trkpt lat="45.12613" lon="5.9139">
        <ele>2132</ele>
        <time>2024-06-05T19:56:20+00:00</time>
      </trkpt>
      <trkpt lat="45.12616" lon="5.91389">
        <ele>2132</ele>
        <time>2024-06-05T19:56:23+00:00</time>
      </trkpt>
      <trkpt lat="45.1262" lon="5.91391">
        <ele>2130</ele>
        <time>2024-06-05T19:56:26+00:00</time>
      </trkpt>
      <trkpt lat="45.12626" lon="5.91399">
        <ele>2132</ele>
        <time>2024-06-05T19:56:29+00:00</time>
      </trkpt>
      <trkpt lat="45.12633" lon="5.91406">
        <ele>2133</ele>
        <time>2024-06-05T19:56:32+00:00</time>
      </trkpt>
      <trkpt lat="45.12636" lon="5.91414">
        <ele>2131</ele>
        <time>2024-06-05T19:56:35+00:00</time>
      </trkpt>
      <trkpt lat="45.12639" lon="5.91421">
        <ele>2129</ele>
        <time>2024-06-05T19:56:38+00:00</time>
      </trkpt>
      <trkpt lat="45.12643" lon="5.91425">
        <ele>2131</ele>
        <time>2024-06-05T19:56:41+00:00</time>
      </trkpt>
      <trkpt lat="45.1265" lon="5.9144">
        <ele>2127</ele>
        <time>2024-06-05T19:56:44+00:00</time>
      </trkpt>
      <trkpt lat="45.12654" lon="5.91457">
        <ele>2126</ele>
        <time>2024-06-05T19:56:47+00:00</time>
      </trkpt>
      <trkpt lat="45.12657" lon="5.91464">
        <ele>2124</ele>
        <time>2024-06-05T19:56:50+00:00</time>
      </trkpt>
      <trkpt lat="45.12666" lon="5.91486">
        <ele>2125</ele>
        <time>2024-06-05T19:56:53+00:00</time>
      </trkpt>
      <trkpt lat="45.12668" lon="5.91494">
        <ele>2126</ele>
        <time>2024-06-05T19:56:56+00:00</time>
      </trkpt>
      <trkpt lat="45.1267" lon="5.91515">
        <ele>2122</ele>
        <time>2024-06-05T19:56:59+00:00</time>
      </trkpt>
      <trkpt lat="45.12671" lon="5.91525">
        <ele>2125</ele>
        <time>2024-06-05T19:57:02+00:00</time>
      </trkpt>
      <trkpt lat="45.12678" lon="5.91543">
        <ele>2126</ele>
        <time>2024-06-05T19:57:05+00:00</time>
      </trkpt>
      <trkpt lat="45.12679" lon="5.9155">
        <ele>2125</ele>
        <time>2024-06-05T19:57:08+00:00</time>
      </trkpt>
      <trkpt lat="45.12678" lon="5.91562">
        <ele>2125</ele>
        <time>2024-06-05T19:57:11+00:00</time>
      </trkpt>
      <trkpt lat="45.12679" lon="5.91565">
        <ele>2125</ele>
        <time>2024-06-05T19:57:14+00:00</time>
      </trkpt>
      <trkpt lat="45.1268" lon="5.91565">
        <ele>2130</ele>
        <time>2024-06-05T19:57:17+00:00</time>
      </trkpt>
      <trkpt lat="45.12681" lon="5.91566">
        <ele>2130</ele>
        <time>2024-06-05T19:57:20+00:00</time>
      </trkpt>
      <trkpt lat="45.12681" lon="5.91572">
        <ele>2130</ele>
        <time>2024-06-05T19:57:23+00:00</time>
      </trkpt>
      <trkpt lat="45.12682" lon="5.9158">
        <ele>2126</ele>
        <time>2024-06-05T19:57:26+00:00</time>
      </trkpt>
      <trkpt lat="45.12684" lon="5.91587">
        <ele>2129</ele>
        <time>2024-06-05T19:57:29+00:00</time>
      </trkpt>
      <trkpt lat="45.12686" lon="5.91588">
        <ele>2129</ele>
        <time>2024-06-05T19:57:32+00:00</time>
      </trkpt>
      <trkpt lat="45.12687" lon="5.91592">
        <ele>2128</ele>
        <time>2024-06-05T19:57:35+00:00</time>
      </trkpt>
      <trkpt lat="45.12687" lon="5.91596">
        <ele>2128</ele>
        <time>2024-06-05T19:57:38+00:00</time>
      </trkpt>
      <trkpt lat="45.12689" lon="5.91601">
        <ele>2128</ele>
        <time>2024-06-05T19:57:41+00:00</time>
      </trkpt>
      <trkpt lat="45.12688" lon="5.91604">
        <ele>2126</ele>
        <time>2024-06-05T19:57:44+00:00</time>
      </trkpt>
      <trkpt lat="45.12689" lon="5.91606">
        <ele>2128</ele>
        <time>2024-06-05T19:57:47+00:00</time>
      </trkpt>
      <trkpt lat="45.12692" lon="5.91613">
        <ele>2130</ele>
        <time>2024-06-05T19:57:50+00:00</time>
      </trkpt>
      <trkpt lat="45.12693" lon="5.91616">
        <ele>2130</ele>
        <time>2024-06-05T19:57:53+00:00</time>
      </trkpt>
      <trkpt lat="45.12699" lon="5.91624">
        <ele>2127</ele>
        <time>2024-06-05T19:57:56+00:00</time>
      </trkpt>
      <trkpt lat="45.12698" lon="5.91624">
        <ele>2127</ele>
        <time>2024-06-05T19:57:59+00:00</time>
      </trkpt>
      <trkpt lat="45.12699" lon="5.91627">
        <ele>2124</ele>
        <time>2024-06-05T19:58:02+00:00</time>
      </trkpt>
      <trkpt lat="45.127" lon="5.91628">
        <ele>2127</ele>
        <time>2024-06-05T19:58:05+00:00</time>
      </trkpt>
      <trkpt lat="45.127" lon="5.91633">
        <ele>2124</ele>
        <time>2024-06-05T19:58:08+00:00</time>
      </trkpt>
      <trkpt lat="45.12701" lon="5.91636">
        <ele>2129</ele>
        <time>2024-06-05T19:58:11+00:00</time>
      </trkpt>
      <trkpt lat="45.12704" lon="5.91645">
        <ele>2125</ele>
        <time>2024-06-05T19:58:14+00:00</time>
      </trkpt>
      <trkpt lat="45.12707" lon="5.91658">
        <ele>2122</ele>
        <time>2024-06-05T19:58:17+00:00</time>
      </trkpt>
      <trkpt lat="45.12708" lon="5.91661">
        <ele>2120</ele>
        <time>2024-06-05T19:58:20+00:00</time>
      </trkpt>
      <trkpt lat="45.12711" lon="5.91665">
        <ele>2123</ele>
        <time>2024-06-05T19:58:23+00:00</time>
      </trkpt>
      <trkpt lat="45.12714" lon="5.91669">
        <ele>2123</ele>
        <time>2024-06-05T19:58:26+00:00</time>
      </trkpt>
      <trkpt lat="45.12719" lon="5.9168">
        <ele>2117</ele>
        <time>2024-06-05T19:58:29+00:00</time>
      </trkpt>
      <trkpt lat="45.12718" lon="5.91684">
        <ele>2117</ele>
        <time>2024-06-05T19:58:32+00:00</time>
      </trkpt>
      <trkpt lat="45.12719" lon="5.91695">
        <ele>2114</ele>
        <time>2024-06-05T19:58:35+00:00</time>
      </trkpt>
      <trkpt lat="45.12722" lon="5.91706">
        <ele>2117</ele>
        <time>2024-06-05T19:58:38+00:00</time>
      </trkpt>
      <trkpt lat="45.12724" lon="5.91711">
        <ele>2115</ele>
        <time>2024-06-05T19:58:41+00:00</time>
      </trkpt>
      <trkpt lat="45.12727" lon="5.9172">
        <ele>2115</ele>
        <time>2024-06-05T19:58:44+00:00</time>
      </trkpt>
      <trkpt lat="45.12727" lon="5.91732">
        <ele>2109</ele>
        <time>2024-06-05T19:58:47+00:00</time>
      </trkpt>
      <trkpt lat="45.12729" lon="5.91737">
        <ele>2116</ele>
        <time>2024-06-05T19:58:50+00:00</time>
      </trkpt>
      <trkpt lat="45.12732" lon="5.91742">
        <ele>2115</ele>
        <time>2024-06-05T19:58:53+00:00</time>
      </trkpt>
      <trkpt lat="45.12733" lon="5.91744">
        <ele>2115</ele>
        <time>2024-06-05T19:58:56+00:00</time>
      </trkpt>
      <trkpt lat="45.12737" lon="5.91752">
        <ele>2112</ele>
        <time>2024-06-05T19:58:59+00:00</time>
      </trkpt>
      <trkpt lat="45.12741" lon="5.91757">
        <ele>2117</ele>
        <time>2024-06-05T19:59:02+00:00</time>
      </trkpt>
      <trkpt lat="45.12742" lon="5.91757">
        <ele>2114</ele>
        <time>2024-06-05T19:59:05+00:00</time>
      </trkpt>
      <trkpt lat="45.12747" lon="5.91761">
        <ele>2112</ele>
        <time>2024-06-05T19:59:08+00:00</time>
      </trkpt>
      <trkpt lat="45.12751" lon="5.91766">
        <ele>2116</ele>
        <time>2024-06-05T19:59:11+00:00</time>
      </trkpt>
      <trkpt lat="45.1275" lon="5.91768">
        <ele>2116</ele>
        <time>2024-06-05T19:59:14+00:00</time>
      </trkpt>
      <trkpt lat="45.12754" lon="5.91775">
        <ele>2113</ele>
        <time>2024-06-05T19:59:17+00:00</time>
      </trkpt>
      <trkpt lat="45.12756" lon="5.9178">
        <ele>2113</ele>
        <time>2024-06-05T19:59:20+00:00</time>
      </trkpt>
      <trkpt lat="45.12759" lon="5.91786">
        <ele>2110</ele>
        <time>2024-06-05T19:59:23+00:00</time>
      </trkpt>
      <trkpt lat="45.12764" lon="5.91796">
        <ele>2113</ele>
        <time>2024-06-05T19:59:26+00:00</time>
      </trkpt>
      <trkpt lat="45.12766" lon="5.91804">
        <ele>2110</ele>
        <time>2024-06-05T19:59:29+00:00</time>
      </trkpt>
      <trkpt lat="45.1277" lon="5.91814">
        <ele>2112</ele>
        <time>2024-06-05T19:59:32+00:00</time>
      </trkpt>
      <trkpt lat="45.12778" lon="5.91821">
        <ele>2108</ele>
        <time>2024-06-05T19:59:35+00:00</time>
      </trkpt>
      <trkpt lat="45.12778" lon="5.91826">
        <ele>2108</ele>
        <time>2024-06-05T19:59:38+00:00</time>
      </trkpt>
      <trkpt lat="45.1278" lon="5.91829">
        <ele>2108</ele>
        <time>2024-06-05T19:59:41+00:00</time>
      </trkpt>
      <trkpt lat="45.12781" lon="5.9183">
        <ele>2111</ele>
        <time>2024-06-05T19:59:44+00:00</time>
      </trkpt>
      <trkpt lat="45.12785" lon="5.91834">
        <ele>2108</ele>
        <time>2024-06-05T19:59:47+00:00</time>
      </trkpt>
      <trkpt lat="45.12788" lon="5.91839">
        <ele>2108</ele>
        <time>2024-06-05T19:59:50+00:00</time>
      </trkpt>
      <trkpt lat="45.12788" lon="5.91842">
        <ele>2104</ele>
        <time>2024-06-05T19:59:53+00:00</time>
      </trkpt>
      <trkpt lat="45.12787" lon="5.91841">
        <ele>2104</ele>
        <time>2024-06-05T19:59:56+00:00</time>
      </trkpt>
      <trkpt lat="45.12786" lon="5.91841">
        <ele>2104</ele>
        <time>2024-06-05T19:59:59+00:00</time>
      </trkpt>
      <trkpt lat="45.12784" lon="5.91843">
        <ele>2104</ele>
        <time>2024-06-05T20:00:02+00:00</time>
      </trkpt>
      <trkpt lat="45.12786" lon="5.91849">
        <ele>2104</ele>
        <time>2024-06-05T20:00:05+00:00</time>
      </trkpt>
      <trkpt lat="45.1279" lon="5.91853">
        <ele>2099</ele>
        <time>2024-06-05T20:00:08+00:00</time>
      </trkpt>
      <trkpt lat="45.12793" lon="5.91859">
        <ele>2105</ele>
        <time>2024-06-05T20:00:11+00:00</time>
      </trkpt>
      <trkpt lat="45.12794" lon="5.91859">
        <ele>2105</ele>
        <time>2024-06-05T20:00:14+00:00</time>
      </trkpt>
      <trkpt lat="45.12794" lon="5.91859">
        <ele>2105</ele>
        <time>2024-06-05T20:00:17+00:00</time>
      </trkpt>
      <trkpt lat="45.12794" lon="5.91859">
        <ele>2105</ele>
        <time>2024-06-05T20:00:20+00:00</time>
      </trkpt>
      <trkpt lat="45.12797" lon="5.91863">
        <ele>2104</ele>
        <time>2024-06-05T20:00:23+00:00</time>
      </trkpt>
      <trkpt lat="45.128" lon="5.91869">
        <ele>2107</ele>
        <time>2024-06-05T20:00:26+00:00</time>
      </trkpt>
      <trkpt lat="45.12804" lon="5.91874">
        <ele>2104</ele>
        <time>2024-06-05T20:00:29+00:00</time>
      </trkpt>
      <trkpt lat="45.12805" lon="5.91876">
        <ele>2104</ele>
        <time>2024-06-05T20:00:32+00:00</time>
      </trkpt>
      <trkpt lat="45.12807" lon="5.91878">
        <ele>2104</ele>
        <time>2024-06-05T20:00:35+00:00</time>
      </trkpt>
      <trkpt lat="45.12809" lon="5.9188">
        <ele>2104</ele>
        <time>2024-06-05T20:00:38+00:00</time>
      </trkpt>
      <trkpt lat="45.12812" lon="5.91884">
        <ele>2104</ele>
        <time>2024-06-05T20:00:41+00:00</time>
      </trkpt>
      <trkpt lat="45.12814" lon="5.91889">
        <ele>2104</ele>
        <time>2024-06-05T20:00:44+00:00</time>
      </trkpt>
      <trkpt lat="45.12815" lon="5.91892">
        <ele>2102</ele>
        <time>2024-06-05T20:00:47+00:00</time>
      </trkpt>
      <trkpt lat="45.12819" lon="5.91894">
        <ele>2102</ele>
        <time>2024-06-05T20:00:50+00:00</time>
      </trkpt>
      <trkpt lat="45.12819" lon="5.91898">
        <ele>2102</ele>
        <time>2024-06-05T20:00:53+00:00</time>
      </trkpt>
      <trkpt lat="45.12824" lon="5.91906">
        <ele>2104</ele>
        <time>2024-06-05T20:00:56+00:00</time>
      </trkpt>
      <trkpt lat="45.12829" lon="5.91921">
        <ele>2100</ele>
        <time>2024-06-05T20:00:59+00:00</time>
      </trkpt>
      <trkpt lat="45.12835" lon="5.91932">
        <ele>2102</ele>
        <time>2024-06-05T20:01:02+00:00</time>
      </trkpt>
      <trkpt lat="45.12843" lon="5.91947">
        <ele>2102</ele>
        <time>2024-06-05T20:01:05+00:00</time>
      </trkpt>
      <trkpt lat="45.12845" lon="5.91953">
        <ele>2102</ele>
        <time>2024-06-05T20:01:08+00:00</time>
      </trkpt>
      <trkpt lat="45.12848" lon="5.91955">
        <ele>2102</ele>
        <time>2024-06-05T20:01:11+00:00</time>
      </trkpt>
      <trkpt lat="45.12857" lon="5.91967">
        <ele>2101</ele>
        <time>2024-06-05T20:01:14+00:00</time>
      </trkpt>
      <trkpt lat="45.12861" lon="5.91972">
        <ele>2101</ele>
        <time>2024-06-05T20:01:17+00:00</time>
      </trkpt>
      <trkpt lat="45.12863" lon="5.91966">
        <ele>2100</ele>
        <time>2024-06-05T20:01:20+00:00</time>
      </trkpt>
      <trkpt lat="45.12872" lon="5.91959">
        <ele>2097</ele>
        <time>2024-06-05T20:01:23+00:00</time>
      </trkpt>
      <trkpt lat="45.12874" lon="5.91958">
        <ele>2097</ele>
        <time>2024-06-05T20:01:26+00:00</time>
      </trkpt>
      <trkpt lat="45.12877" lon="5.91956">
        <ele>2097</ele>
        <time>2024-06-05T20:01:29+00:00</time>
      </trkpt>
      <trkpt lat="45.12877" lon="5.91954">
        <ele>2097</ele>
        <time>2024-06-05T20:01:32+00:00</time>
      </trkpt>
      <trkpt lat="45.1288" lon="5.9195">
        <ele>2097</ele>
        <time>2024-06-05T20:01:35+00:00</time>
      </trkpt>
      <trkpt lat="45.1288" lon="5.91949">
        <ele>2092</ele>
        <time>2024-06-05T20:01:38+00:00</time>
      </trkpt>
      <trkpt lat="45.12878" lon="5.91945">
        <ele>2097</ele>
        <time>2024-06-05T20:01:41+00:00</time>
      </trkpt>
      <trkpt lat="45.12879" lon="5.91937">
        <ele>2097</ele>
        <time>2024-06-05T20:01:44+00:00</time>
      </trkpt>
      <trkpt lat="45.12879" lon="5.91937">
        <ele>2097</ele>
        <time>2024-06-05T20:01:47+00:00</time>
      </trkpt>
      <trkpt lat="45.12879" lon="5.91936">
        <ele>2097</ele>
        <time>2024-06-05T20:01:50+00:00</time>
      </trkpt>
      <trkpt lat="45.1288" lon="5.91935">
        <ele>2097</ele>
        <time>2024-06-05T20:01:53+00:00</time>
      </trkpt>
      <trkpt lat="45.12883" lon="5.91933">
        <ele>2091</ele>
        <time>2024-06-05T20:01:56+00:00</time>
      </trkpt>
      <trkpt lat="45.12883" lon="5.91932">
        <ele>2091</ele>
        <time>2024-06-05T20:01:59+00:00</time>
      </trkpt>
      <trkpt lat="45.12884" lon="5.9193">
        <ele>2090</ele>
        <time>2024-06-05T20:02:02+00:00</time>
      </trkpt>
      <trkpt lat="45.12885" lon="5.91929">
        <ele>2090</ele>
        <time>2024-06-05T20:02:05+00:00</time>
      </trkpt>
      <trkpt lat="45.12888" lon="5.9193">
        <ele>2090</ele>
        <time>2024-06-05T20:02:08+00:00</time>
      </trkpt>
      <trkpt lat="45.1289" lon="5.91936">
        <ele>2091</ele>
        <time>2024-06-05T20:02:11+00:00</time>
      </trkpt>
      <trkpt lat="45.12894" lon="5.91943">
        <ele>2088</ele>
        <time>2024-06-05T20:02:14+00:00</time>
      </trkpt>
      <trkpt lat="45.12898" lon="5.91944">
        <ele>2088</ele>
        <time>2024-06-05T20:02:17+00:00</time>
      </trkpt>
      <trkpt lat="45.12899" lon="5.91944">
        <ele>2088</ele>
        <time>2024-06-05T20:02:20+00:00</time>
      </trkpt>
      <trkpt lat="45.12901" lon="5.91943">
        <ele>2085</ele>
        <time>2024-06-05T20:02:23+00:00</time>
      </trkpt>
      <trkpt lat="45.12901" lon="5.91941">
        <ele>2085</ele>
        <time>2024-06-05T20:02:26+00:00</time>
      </trkpt>
      <trkpt lat="45.12899" lon="5.91939">
        <ele>2087</ele>
        <time>2024-06-05T20:02:29+00:00</time>
      </trkpt>
      <trkpt lat="45.12899" lon="5.91937">
        <ele>2087</ele>
        <time>2024-06-05T20:02:32+00:00</time>
      </trkpt>
      <trkpt lat="45.12901" lon="5.91939">
        <ele>2082</ele>
        <time>2024-06-05T20:02:35+00:00</time>
      </trkpt>
      <trkpt lat="45.12903" lon="5.91939">
        <ele>2082</ele>
        <time>2024-06-05T20:02:38+00:00</time>
      </trkpt>
      <trkpt lat="45.12902" lon="5.91936">
        <ele>2082</ele>
        <time>2024-06-05T20:02:41+00:00</time>
      </trkpt>
      <trkpt lat="45.12903" lon="5.91932">
        <ele>2082</ele>
        <time>2024-06-05T20:02:44+00:00</time>
      </trkpt>
      <trkpt lat="45.12904" lon="5.91933">
        <ele>2082</ele>
        <time>2024-06-05T20:02:47+00:00</time>
      </trkpt>
      <trkpt lat="45.12905" lon="5.91931">
        <ele>2082</ele>
        <time>2024-06-05T20:02:50+00:00</time>
      </trkpt>
      <trkpt lat="45.12907" lon="5.91933">
        <ele>2082</ele>
        <time>2024-06-05T20:02:53+00:00</time>
      </trkpt>
      <trkpt lat="45.1291" lon="5.91932">
        <ele>2082</ele>
        <time>2024-06-05T20:02:56+00:00</time>
      </trkpt>
      <trkpt lat="45.1291" lon="5.9193">
        <ele>2076</ele>
        <time>2024-06-05T20:02:59+00:00</time>
      </trkpt>
      <trkpt lat="45.1291" lon="5.91925">
        <ele>2074</ele>
        <time>2024-06-05T20:03:02+00:00</time>
      </trkpt>
      <trkpt lat="45.12908" lon="5.91921">
        <ele>2081</ele>
        <time>2024-06-05T20:03:05+00:00</time>
      </trkpt>
      <trkpt lat="45.12908" lon="5.91917">
        <ele>2078</ele>
        <time>2024-06-05T20:03:08+00:00</time>
      </trkpt>
      <trkpt lat="45.1291" lon="5.91912">
        <ele>2078</ele>
        <time>2024-06-05T20:03:11+00:00</time>
      </trkpt>
      <trkpt lat="45.12909" lon="5.9191">
        <ele>2078</ele>
        <time>2024-06-05T20:03:14+00:00</time>
      </trkpt>
      <trkpt lat="45.12911" lon="5.91908">
        <ele>2066</ele>
        <time>2024-06-05T20:03:17+00:00</time>
      </trkpt>
      <trkpt lat="45.1291" lon="5.91906">
        <ele>2066</ele>
        <time>2024-06-05T20:03:20+00:00</time>
      </trkpt>
      <trkpt lat="45.12911" lon="5.91904">
        <ele>2066</ele>
        <time>2024-06-05T20:03:23+00:00</time>
      </trkpt>
      <trkpt lat="45.12912" lon="5.91902">
        <ele>2066</ele>
        <time>2024-06-05T20:03:26+00:00</time>
      </trkpt>
      <trkpt lat="45.12913" lon="5.91903">
        <ele>2066</ele>
        <time>2024-06-05T20:03:29+00:00</time>
      </trkpt>
      <trkpt lat="45.12915" lon="5.91902">
        <ele>2066</ele>
        <time>2024-06-05T20:03:32+00:00</time>
      </trkpt>
      <trkpt lat="45.12915" lon="5.919">
        <ele>2066</ele>
        <time>2024-06-05T20:03:35+00:00</time>
      </trkpt>
      <trkpt lat="45.12914" lon="5.91896">
        <ele>2064</ele>
        <time>2024-06-05T20:03:38+00:00</time>
      </trkpt>
      <trkpt lat="45.12915" lon="5.91894">
        <ele>2064</ele>
        <time>2024-06-05T20:03:41+00:00</time>
      </trkpt>
      <trkpt lat="45.12917" lon="5.91892">
        <ele>2064</ele>
        <time>2024-06-05T20:03:44+00:00</time>
      </trkpt>
      <trkpt lat="45.12918" lon="5.91883">
        <ele>2061</ele>
        <time>2024-06-05T20:03:47+00:00</time>
      </trkpt>
      <trkpt lat="45.12919" lon="5.9187">
        <ele>2058</ele>
        <time>2024-06-05T20:03:50+00:00</time>
      </trkpt>
      <trkpt lat="45.1292" lon="5.91865">
        <ele>2054</ele>
        <time>2024-06-05T20:03:53+00:00</time>
      </trkpt>
      <trkpt lat="45.1292" lon="5.91862">
        <ele>2054</ele>
        <time>2024-06-05T20:03:56+00:00</time>
      </trkpt>
      <trkpt lat="45.12921" lon="5.91861">
        <ele>2054</ele>
        <time>2024-06-05T20:03:59+00:00</time>
      </trkpt>
      <trkpt lat="45.12922" lon="5.91859">
        <ele>2053</ele>
        <time>2024-06-05T20:04:02+00:00</time>
      </trkpt>
      <trkpt lat="45.12921" lon="5.91856">
        <ele>2053</ele>
        <time>2024-06-05T20:04:05+00:00</time>
      </trkpt>
      <trkpt lat="45.12922" lon="5.91854">
        <ele>2053</ele>
        <time>2024-06-05T20:04:08+00:00</time>
      </trkpt>
      <trkpt lat="45.12923" lon="5.91852">
        <ele>2053</ele>
        <time>2024-06-05T20:04:11+00:00</time>
      </trkpt>
      <trkpt lat="45.12924" lon="5.91849">
        <ele>2053</ele>
        <time>2024-06-05T20:04:14+00:00</time>
      </trkpt>
      <trkpt lat="45.12925" lon="5.91846">
        <ele>2053</ele>
        <time>2024-06-05T20:04:17+00:00</time>
      </trkpt>
      <trkpt lat="45.12924" lon="5.91839">
        <ele>2052</ele>
        <time>2024-06-05T20:04:20+00:00</time>
      </trkpt>
      <trkpt lat="45.12925" lon="5.91835">
        <ele>2052</ele>
        <time>2024-06-05T20:04:23+00:00</time>
      </trkpt>
      <trkpt lat="45.12924" lon="5.91831">
        <ele>2052</ele>
        <time>2024-06-05T20:04:26+00:00</time>
      </trkpt>
      <trkpt lat="45.12925" lon="5.91827">
        <ele>2050</ele>
        <time>2024-06-05T20:04:29+00:00</time>
      </trkpt>
      <trkpt lat="45.12925" lon="5.91819">
        <ele>2046</ele>
        <time>2024-06-05T20:04:32+00:00</time>
      </trkpt>
      <trkpt lat="45.12925" lon="5.91818">
        <ele>2046</ele>
        <time>2024-06-05T20:04:35+00:00</time>
      </trkpt>
      <trkpt lat="45.12925" lon="5.91816">
        <ele>2046</ele>
        <time>2024-06-05T20:04:38+00:00</time>
      </trkpt>
      <trkpt lat="45.12925" lon="5.91811">
        <ele>2046</ele>
        <time>2024-06-05T20:04:41+00:00</time>
      </trkpt>
      <trkpt lat="45.12927" lon="5.91809">
        <ele>2046</ele>
        <time>2024-06-05T20:04:44+00:00</time>
      </trkpt>
      <trkpt lat="45.12927" lon="5.91809">
        <ele>2046</ele>
        <time>2024-06-05T20:04:47+00:00</time>
      </trkpt>
      <trkpt lat="45.12929" lon="5.91808">
        <ele>2046</ele>
        <time>2024-06-05T20:04:50+00:00</time>
      </trkpt>
      <trkpt lat="45.1293" lon="5.91806">
        <ele>2046</ele>
        <time>2024-06-05T20:04:53+00:00</time>
      </trkpt>
      <trkpt lat="45.12932" lon="5.91801">
        <ele>2041</ele>
        <time>2024-06-05T20:04:56+00:00</time>
      </trkpt>
      <trkpt lat="45.12932" lon="5.91801">
        <ele>2041</ele>
        <time>2024-06-05T20:04:59+00:00</time>
      </trkpt>
      <trkpt lat="45.12936" lon="5.91797">
        <ele>2043</ele>
        <time>2024-06-05T20:05:02+00:00</time>
      </trkpt>
      <trkpt lat="45.12939" lon="5.91791">
        <ele>2043</ele>
        <time>2024-06-05T20:05:05+00:00</time>
      </trkpt>
      <trkpt lat="45.1294" lon="5.91787">
        <ele>2037</ele>
        <time>2024-06-05T20:05:08+00:00</time>
      </trkpt>
      <trkpt lat="45.12946" lon="5.91777">
        <ele>2037</ele>
        <time>2024-06-05T20:05:11+00:00</time>
      </trkpt>
      <trkpt lat="45.12951" lon="5.91772">
        <ele>2032</ele>
        <time>2024-06-05T20:05:14+00:00</time>
      </trkpt>
      <trkpt lat="45.12952" lon="5.91769">
        <ele>2031</ele>
        <time>2024-06-05T20:05:17+00:00</time>
      </trkpt>
      <trkpt lat="45.12955" lon="5.91759">
        <ele>2032</ele>
        <time>2024-06-05T20:05:20+00:00</time>
      </trkpt>
      <trkpt lat="45.12957" lon="5.91754">
        <ele>2032</ele>
        <time>2024-06-05T20:05:23+00:00</time>
      </trkpt>
      <trkpt lat="45.12961" lon="5.9175">
        <ele>2028</ele>
        <time>2024-06-05T20:05:26+00:00</time>
      </trkpt>
      <trkpt lat="45.12962" lon="5.91748">
        <ele>2029</ele>
        <time>2024-06-05T20:05:29+00:00</time>
      </trkpt>
      <trkpt lat="45.12964" lon="5.91746">
        <ele>2029</ele>
        <time>2024-06-05T20:05:32+00:00</time>
      </trkpt>
      <trkpt lat="45.12966" lon="5.91745">
        <ele>2029</ele>
        <time>2024-06-05T20:05:35+00:00</time>
      </trkpt>
      <trkpt lat="45.12967" lon="5.91742">
        <ele>2029</ele>
        <time>2024-06-05T20:05:38+00:00</time>
      </trkpt>
      <trkpt lat="45.12968" lon="5.9174">
        <ele>2031</ele>
        <time>2024-06-05T20:05:41+00:00</time>
      </trkpt>
      <trkpt lat="45.12971" lon="5.91739">
        <ele>2023</ele>
        <time>2024-06-05T20:05:44+00:00</time>
      </trkpt>
      <trkpt lat="45.12973" lon="5.91735">
        <ele>2023</ele>
        <time>2024-06-05T20:05:47+00:00</time>
      </trkpt>
      <trkpt lat="45.12974" lon="5.91733">
        <ele>2023</ele>
        <time>2024-06-05T20:05:50+00:00</time>
      </trkpt>
      <trkpt lat="45.12975" lon="5.91733">
        <ele>2023</ele>
        <time>2024-06-05T20:05:53+00:00</time>
      </trkpt>
      <trkpt lat="45.12976" lon="5.91727">
        <ele>2025</ele>
        <time>2024-06-05T20:05:56+00:00</time>
      </trkpt>
      <trkpt lat="45.12978" lon="5.91726">
        <ele>2025</ele>
        <time>2024-06-05T20:05:59+00:00</time>
      </trkpt>
      <trkpt lat="45.1298" lon="5.91727">
        <ele>2025</ele>
        <time>2024-06-05T20:06:02+00:00</time>
      </trkpt>
      <trkpt lat="45.12981" lon="5.91726">
        <ele>2019</ele>
        <time>2024-06-05T20:06:05+00:00</time>
      </trkpt>
      <trkpt lat="45.12983" lon="5.91721">
        <ele>2019</ele>
        <time>2024-06-05T20:06:08+00:00</time>
      </trkpt>
      <trkpt lat="45.12987" lon="5.91716">
        <ele>2021</ele>
        <time>2024-06-05T20:06:11+00:00</time>
      </trkpt>
      <trkpt lat="45.12989" lon="5.91713">
        <ele>2021</ele>
        <time>2024-06-05T20:06:14+00:00</time>
      </trkpt>
      <trkpt lat="45.1299" lon="5.91708">
        <ele>2015</ele>
        <time>2024-06-05T20:06:17+00:00</time>
      </trkpt>
      <trkpt lat="45.12993" lon="5.91703">
        <ele>2015</ele>
        <time>2024-06-05T20:06:20+00:00</time>
      </trkpt>
      <trkpt lat="45.13002" lon="5.9169">
        <ele>2009</ele>
        <time>2024-06-05T20:06:23+00:00</time>
      </trkpt>
      <trkpt lat="45.13005" lon="5.91688">
        <ele>2009</ele>
        <time>2024-06-05T20:06:26+00:00</time>
      </trkpt>
      <trkpt lat="45.13022" lon="5.9167">
        <ele>2005</ele>
        <time>2024-06-05T20:06:29+00:00</time>
      </trkpt>
      <trkpt lat="45.13026" lon="5.91664">
        <ele>2005</ele>
        <time>2024-06-05T20:06:32+00:00</time>
      </trkpt>
      <trkpt lat="45.13028" lon="5.91663">
        <ele>2005</ele>
        <time>2024-06-05T20:06:35+00:00</time>
      </trkpt>
      <trkpt lat="45.13032" lon="5.91666">
        <ele>2003</ele>
        <time>2024-06-05T20:06:38+00:00</time>
      </trkpt>
      <trkpt lat="45.13034" lon="5.91665">
        <ele>2003</ele>
        <time>2024-06-05T20:06:41+00:00</time>
      </trkpt>
      <trkpt lat="45.13041" lon="5.91666">
        <ele>2002</ele>
        <time>2024-06-05T20:06:44+00:00</time>
      </trkpt>
      <trkpt lat="45.13057" lon="5.91665">
        <ele>2001</ele>
        <time>2024-06-05T20:06:47+00:00</time>
      </trkpt>
      <trkpt lat="45.13061" lon="5.91668">
        <ele>1998</ele>
        <time>2024-06-05T20:06:50+00:00</time>
      </trkpt>
      <trkpt lat="45.13062" lon="5.9167">
        <ele>1998</ele>
        <time>2024-06-05T20:06:53+00:00</time>
      </trkpt>
      <trkpt lat="45.13063" lon="5.91678">
        <ele>1998</ele>
        <time>2024-06-05T20:06:56+00:00</time>
      </trkpt>
      <trkpt lat="45.13066" lon="5.91684">
        <ele>1998</ele>
        <time>2024-06-05T20:06:59+00:00</time>
      </trkpt>
      <trkpt lat="45.13074" lon="5.91694">
        <ele>1997</ele>
        <time>2024-06-05T20:07:02+00:00</time>
      </trkpt>
      <trkpt lat="45.13078" lon="5.91703">
        <ele>1997</ele>
        <time>2024-06-05T20:07:05+00:00</time>
      </trkpt>
      <trkpt lat="45.13083" lon="5.91705">
        <ele>1997</ele>
        <time>2024-06-05T20:07:08+00:00</time>
      </trkpt>
      <trkpt lat="45.13084" lon="5.91707">
        <ele>1997</ele>
        <time>2024-06-05T20:07:11+00:00</time>
      </trkpt>
      <trkpt lat="45.13085" lon="5.91711">
        <ele>1996</ele>
        <time>2024-06-05T20:07:14+00:00</time>
      </trkpt>
      <trkpt lat="45.13087" lon="5.91715">
        <ele>1996</ele>
        <time>2024-06-05T20:07:17+00:00</time>
      </trkpt>
      <trkpt lat="45.13097" lon="5.91721">
        <ele>1995</ele>
        <time>2024-06-05T20:07:20+00:00</time>
      </trkpt>
      <trkpt lat="45.13103" lon="5.91725">
        <ele>1995</ele>
        <time>2024-06-05T20:07:23+00:00</time>
      </trkpt>
      <trkpt lat="45.13106" lon="5.9173">
        <ele>1995</ele>
        <time>2024-06-05T20:07:26+00:00</time>
      </trkpt>
      <trkpt lat="45.13112" lon="5.91733">
        <ele>1995</ele>
        <time>2024-06-05T20:07:29+00:00</time>
      </trkpt>
      <trkpt lat="45.13112" lon="5.91733">
        <ele>1995</ele>
        <time>2024-06-05T20:07:32+00:00</time>
      </trkpt>
      <trkpt lat="45.13115" lon="5.91733">
        <ele>1995</ele>
        <time>2024-06-05T20:07:35+00:00</time>
      </trkpt>
      <trkpt lat="45.13124" lon="5.91729">
        <ele>1995</ele>
        <time>2024-06-05T20:07:38+00:00</time>
      </trkpt>
      <trkpt lat="45.1313" lon="5.91723">
        <ele>1995</ele>
        <time>2024-06-05T20:07:41+00:00</time>
      </trkpt>
      <trkpt lat="45.13134" lon="5.91717">
        <ele>1994</ele>
        <time>2024-06-05T20:07:44+00:00</time>
      </trkpt>
      <trkpt lat="45.13136" lon="5.91715">
        <ele>1994</ele>
        <time>2024-06-05T20:07:47+00:00</time>
      </trkpt>
      <trkpt lat="45.13147" lon="5.91716">
        <ele>1994</ele>
        <time>2024-06-05T20:07:50+00:00</time>
      </trkpt>
      <trkpt lat="45.1315" lon="5.91716">
        <ele>1995</ele>
        <time>2024-06-05T20:07:53+00:00</time>
      </trkpt>
      <trkpt lat="45.13152" lon="5.91715">
        <ele>1994</ele>
        <time>2024-06-05T20:07:56+00:00</time>
      </trkpt>
      <trkpt lat="45.13154" lon="5.91715">
        <ele>1994</ele>
        <time>2024-06-05T20:07:59+00:00</time>
      </trkpt>
      <trkpt lat="45.13157" lon="5.91719">
        <ele>1994</ele>
        <time>2024-06-05T20:08:02+00:00</time>
      </trkpt>
      <trkpt lat="45.13162" lon="5.91722">
        <ele>1995</ele>
        <time>2024-06-05T20:08:05+00:00</time>
      </trkpt>
      <trkpt lat="45.13168" lon="5.91726">
        <ele>1995</ele>
        <time>2024-06-05T20:08:08+00:00</time>
      </trkpt>
      <trkpt lat="45.13174" lon="5.91733">
        <ele>1996</ele>
        <time>2024-06-05T20:08:11+00:00</time>
      </trkpt>
      <trkpt lat="45.13178" lon="5.91732">
        <ele>1996</ele>
        <time>2024-06-05T20:08:14+00:00</time>
      </trkpt>
      <trkpt lat="45.13181" lon="5.91734">
        <ele>1996</ele>
        <time>2024-06-05T20:08:17+00:00</time>
      </trkpt>
      <trkpt lat="45.13184" lon="5.91737">
        <ele>1996</ele>
        <time>2024-06-05T20:08:20+00:00</time>
      </trkpt>
      <trkpt lat="45.13184" lon="5.91738">
        <ele>1996</ele>
        <time>2024-06-05T20:08:23+00:00</time>
      </trkpt>
      <trkpt lat="45.13188" lon="5.91737">
        <ele>1996</ele>
        <time>2024-06-05T20:08:26+00:00</time>
      </trkpt>
      <trkpt lat="45.13194" lon="5.9173">
        <ele>1996</ele>
        <time>2024-06-05T20:08:29+00:00</time>
      </trkpt>
      <trkpt lat="45.13197" lon="5.91724">
        <ele>1996</ele>
        <time>2024-06-05T20:08:32+00:00</time>
      </trkpt>
      <trkpt lat="45.13197" lon="5.9172">
        <ele>1996</ele>
        <time>2024-06-05T20:08:35+00:00</time>
      </trkpt>
      <trkpt lat="45.132" lon="5.91716">
        <ele>1996</ele>
        <time>2024-06-05T20:08:38+00:00</time>
      </trkpt>
      <trkpt lat="45.13203" lon="5.91715">
        <ele>1998</ele>
        <time>2024-06-05T20:08:41+00:00</time>
      </trkpt>
      <trkpt lat="45.13205" lon="5.91716">
        <ele>1998</ele>
        <time>2024-06-05T20:08:44+00:00</time>
      </trkpt>
      <trkpt lat="45.13208" lon="5.91721">
        <ele>1998</ele>
        <time>2024-06-05T20:08:47+00:00</time>
      </trkpt>
      <trkpt lat="45.13213" lon="5.91725">
        <ele>2000</ele>
        <time>2024-06-05T20:08:50+00:00</time>
      </trkpt>
      <trkpt lat="45.13215" lon="5.91728">
        <ele>2000</ele>
        <time>2024-06-05T20:08:53+00:00</time>
      </trkpt>
      <trkpt lat="45.1322" lon="5.9173">
        <ele>1999</ele>
        <time>2024-06-05T20:08:56+00:00</time>
      </trkpt>
      <trkpt lat="45.13228" lon="5.91729">
        <ele>2001</ele>
        <time>2024-06-05T20:08:59+00:00</time>
      </trkpt>
      <trkpt lat="45.13234" lon="5.91724">
        <ele>2001</ele>
        <time>2024-06-05T20:09:02+00:00</time>
      </trkpt>
      <trkpt lat="45.13239" lon="5.91724">
        <ele>2001</ele>
        <time>2024-06-05T20:09:05+00:00</time>
      </trkpt>
      <trkpt lat="45.13241" lon="5.91724">
        <ele>2001</ele>
        <time>2024-06-05T20:09:08+00:00</time>
      </trkpt>
      <trkpt lat="45.13243" lon="5.91724">
        <ele>2001</ele>
        <time>2024-06-05T20:09:11+00:00</time>
      </trkpt>
      <trkpt lat="45.13247" lon="5.91723">
        <ele>2001</ele>
        <time>2024-06-05T20:09:14+00:00</time>
      </trkpt>
      <trkpt lat="45.13251" lon="5.91726">
        <ele>2002</ele>
        <time>2024-06-05T20:09:17+00:00</time>
      </trkpt>
      <trkpt lat="45.1326" lon="5.91727">
        <ele>2003</ele>
        <time>2024-06-05T20:09:20+00:00</time>
      </trkpt>
      <trkpt lat="45.13263" lon="5.91729">
        <ele>2003</ele>
        <time>2024-06-05T20:09:23+00:00</time>
      </trkpt>
      <trkpt lat="45.13265" lon="5.91729">
        <ele>2003</ele>
        <time>2024-06-05T20:09:26+00:00</time>
      </trkpt>
      <trkpt lat="45.13271" lon="5.91731">
        <ele>2003</ele>
        <time>2024-06-05T20:09:29+00:00</time>
      </trkpt>
      <trkpt lat="45.13276" lon="5.91737">
        <ele>2003</ele>
        <time>2024-06-05T20:09:32+00:00</time>
      </trkpt>
      <trkpt lat="45.13276" lon="5.91738">
        <ele>2003</ele>
        <time>2024-06-05T20:09:35+00:00</time>
      </trkpt>
      <trkpt lat="45.13281" lon="5.91741">
        <ele>2005</ele>
        <time>2024-06-05T20:09:38+00:00</time>
      </trkpt>
      <trkpt lat="45.13282" lon="5.91744">
        <ele>2005</ele>
        <time>2024-06-05T20:09:41+00:00</time>
      </trkpt>
      <trkpt lat="45.13284" lon="5.91745">
        <ele>2005</ele>
        <time>2024-06-05T20:09:44+00:00</time>
      </trkpt>
      <trkpt lat="45.13287" lon="5.91745">
        <ele>2005</ele>
        <time>2024-06-05T20:09:47+00:00</time>
      </trkpt>
      <trkpt lat="45.1329" lon="5.91746">
        <ele>2008</ele>
        <time>2024-06-05T20:09:50+00:00</time>
      </trkpt>
      <trkpt lat="45.13292" lon="5.91749">
        <ele>2008</ele>
        <time>2024-06-05T20:09:53+00:00</time>
      </trkpt>
      <trkpt lat="45.13299" lon="5.91752">
        <ele>2007</ele>
        <time>2024-06-05T20:09:56+00:00</time>
      </trkpt>
      <trkpt lat="45.13301" lon="5.91753">
        <ele>2010</ele>
        <time>2024-06-05T20:09:59+00:00</time>
      </trkpt>
      <trkpt lat="45.13313" lon="5.91756">
        <ele>2011</ele>
        <time>2024-06-05T20:10:02+00:00</time>
      </trkpt>
      <trkpt lat="45.13317" lon="5.91755">
        <ele>2011</ele>
        <time>2024-06-05T20:10:05+00:00</time>
      </trkpt>
      <trkpt lat="45.13319" lon="5.91757">
        <ele>2011</ele>
        <time>2024-06-05T20:10:08+00:00</time>
      </trkpt>
      <trkpt lat="45.13321" lon="5.9176">
        <ele>2011</ele>
        <time>2024-06-05T20:10:11+00:00</time>
      </trkpt>
      <trkpt lat="45.13325" lon="5.91768">
        <ele>2011</ele>
        <time>2024-06-05T20:10:14+00:00</time>
      </trkpt>
      <trkpt lat="45.13334" lon="5.91768">
        <ele>2012</ele>
        <time>2024-06-05T20:10:17+00:00</time>
      </trkpt>
      <trkpt lat="45.13338" lon="5.9177">
        <ele>2012</ele>
        <time>2024-06-05T20:10:20+00:00</time>
      </trkpt>
      <trkpt lat="45.13345" lon="5.91781">
        <ele>2013</ele>
        <time>2024-06-05T20:10:23+00:00</time>
      </trkpt>
      <trkpt lat="45.13354" lon="5.91787">
        <ele>2011</ele>
        <time>2024-06-05T20:10:26+00:00</time>
      </trkpt>
      <trkpt lat="45.13361" lon="5.91795">
        <ele>2012</ele>
        <time>2024-06-05T20:10:29+00:00</time>
      </trkpt>
      <trkpt lat="45.13366" lon="5.91797">
        <ele>2012</ele>
        <time>2024-06-05T20:10:32+00:00</time>
      </trkpt>
      <trkpt lat="45.13369" lon="5.91797">
        <ele>2012</ele>
        <time>2024-06-05T20:10:35+00:00</time>
      </trkpt>
      <trkpt lat="45.13373" lon="5.91797">
        <ele>2011</ele>
        <time>2024-06-05T20:10:38+00:00</time>
      </trkpt>
      <trkpt lat="45.13375" lon="5.918">
        <ele>2010</ele>
        <time>2024-06-05T20:10:41+00:00</time>
      </trkpt>
      <trkpt lat="45.13382" lon="5.91803">
        <ele>2009</ele>
        <time>2024-06-05T20:10:44+00:00</time>
      </trkpt>
      <trkpt lat="45.13385" lon="5.91805">
        <ele>2009</ele>
        <time>2024-06-05T20:10:47+00:00</time>
      </trkpt>
      <trkpt lat="45.13389" lon="5.91805">
        <ele>2009</ele>
        <time>2024-06-05T20:10:50+00:00</time>
      </trkpt>
      <trkpt lat="45.13391" lon="5.91808">
        <ele>2009</ele>
        <time>2024-06-05T20:10:53+00:00</time>
      </trkpt>
      <trkpt lat="45.13393" lon="5.91814">
        <ele>2008</ele>
        <time>2024-06-05T20:10:56+00:00</time>
      </trkpt>
      <trkpt lat="45.13393" lon="5.91818">
        <ele>2008</ele>
        <time>2024-06-05T20:10:59+00:00</time>
      </trkpt>
      <trkpt lat="45.13396" lon="5.91827">
        <ele>2006</ele>
        <time>2024-06-05T20:11:02+00:00</time>
      </trkpt>
      <trkpt lat="45.13397" lon="5.91832">
        <ele>2005</ele>
        <time>2024-06-05T20:11:05+00:00</time>
      </trkpt>
      <trkpt lat="45.134" lon="5.91844">
        <ele>2007</ele>
        <time>2024-06-05T20:11:08+00:00</time>
      </trkpt>
      <trkpt lat="45.13408" lon="5.91865">
        <ele>2003</ele>
        <time>2024-06-05T20:11:11+00:00</time>
      </trkpt>
      <trkpt lat="45.13415" lon="5.91877">
        <ele>2007</ele>
        <time>2024-06-05T20:11:14+00:00</time>
      </trkpt>
      <trkpt lat="45.13419" lon="5.91881">
        <ele>2003</ele>
        <time>2024-06-05T20:11:17+00:00</time>
      </trkpt>
      <trkpt lat="45.13425" lon="5.91887">
        <ele>2008</ele>
        <time>2024-06-05T20:11:20+00:00</time>
      </trkpt>
      <trkpt lat="45.13429" lon="5.91895">
        <ele>2007</ele>
        <time>2024-06-05T20:11:23+00:00</time>
      </trkpt>
      <trkpt lat="45.13434" lon="5.91898">
        <ele>2009</ele>
        <time>2024-06-05T20:11:26+00:00</time>
      </trkpt>
      <trkpt lat="45.13437" lon="5.91903">
        <ele>2009</ele>
        <time>2024-06-05T20:11:29+00:00</time>
      </trkpt>
      <trkpt lat="45.13438" lon="5.91911">
        <ele>2008</ele>
        <time>2024-06-05T20:11:32+00:00</time>
      </trkpt>
      <trkpt lat="45.13437" lon="5.91913">
        <ele>2008</ele>
        <time>2024-06-05T20:11:35+00:00</time>
      </trkpt>
      <trkpt lat="45.13437" lon="5.91914">
        <ele>2008</ele>
        <time>2024-06-05T20:11:38+00:00</time>
      </trkpt>
      <trkpt lat="45.13442" lon="5.91918">
        <ele>2010</ele>
        <time>2024-06-05T20:11:41+00:00</time>
      </trkpt>
      <trkpt lat="45.13446" lon="5.91916">
        <ele>2010</ele>
        <time>2024-06-05T20:11:44+00:00</time>
      </trkpt>
      <trkpt lat="45.13446" lon="5.91916">
        <ele>2010</ele>
        <time>2024-06-05T20:11:47+00:00</time>
      </trkpt>
      <trkpt lat="45.13452" lon="5.91926">
        <ele>2010</ele>
        <time>2024-06-05T20:11:50+00:00</time>
      </trkpt>
      <trkpt lat="45.13455" lon="5.91929">
        <ele>2010</ele>
        <time>2024-06-05T20:11:53+00:00</time>
      </trkpt>
      <trkpt lat="45.13463" lon="5.91931">
        <ele>2010</ele>
        <time>2024-06-05T20:11:56+00:00</time>
      </trkpt>
      <trkpt lat="45.13468" lon="5.91934">
        <ele>2010</ele>
        <time>2024-06-05T20:11:59+00:00</time>
      </trkpt>
      <trkpt lat="45.13472" lon="5.91938">
        <ele>2012</ele>
        <time>2024-06-05T20:12:02+00:00</time>
      </trkpt>
      <trkpt lat="45.13476" lon="5.91941">
        <ele>2008</ele>
        <time>2024-06-05T20:12:05+00:00</time>
      </trkpt>
      <trkpt lat="45.13477" lon="5.91944">
        <ele>2008</ele>
        <time>2024-06-05T20:12:08+00:00</time>
      </trkpt>
      <trkpt lat="45.13484" lon="5.91949">
        <ele>2009</ele>
        <time>2024-06-05T20:12:11+00:00</time>
      </trkpt>
      <trkpt lat="45.13487" lon="5.91955">
        <ele>2008</ele>
        <time>2024-06-05T20:12:14+00:00</time>
      </trkpt>
      <trkpt lat="45.13488" lon="5.91955">
        <ele>2008</ele>
        <time>2024-06-05T20:12:17+00:00</time>
      </trkpt>
      <trkpt lat="45.13489" lon="5.91954">
        <ele>2008</ele>
        <time>2024-06-05T20:12:20+00:00</time>
      </trkpt>
      <trkpt lat="45.13489" lon="5.91955">
        <ele>2008</ele>
        <time>2024-06-05T20:12:23+00:00</time>
      </trkpt>
      <trkpt lat="45.13497" lon="5.9196">
        <ele>2008</ele>
        <time>2024-06-05T20:12:26+00:00</time>
      </trkpt>
      <trkpt lat="45.13498" lon="5.91962">
        <ele>2007</ele>
        <time>2024-06-05T20:12:29+00:00</time>
      </trkpt>
      <trkpt lat="45.135" lon="5.91961">
        <ele>2007</ele>
        <time>2024-06-05T20:12:32+00:00</time>
      </trkpt>
      <trkpt lat="45.13505" lon="5.91962">
        <ele>2006</ele>
        <time>2024-06-05T20:12:35+00:00</time>
      </trkpt>
      <trkpt lat="45.13506" lon="5.91962">
        <ele>2006</ele>
        <time>2024-06-05T20:12:38+00:00</time>
      </trkpt>
      <trkpt lat="45.13508" lon="5.91962">
        <ele>2006</ele>
        <time>2024-06-05T20:12:41+00:00</time>
      </trkpt>
      <trkpt lat="45.1351" lon="5.91966">
        <ele>2006</ele>
        <time>2024-06-05T20:12:44+00:00</time>
      </trkpt>
      <trkpt lat="45.13513" lon="5.9197">
        <ele>2005</ele>
        <time>2024-06-05T20:12:47+00:00</time>
      </trkpt>
      <trkpt lat="45.13514" lon="5.91972">
        <ele>2003</ele>
        <time>2024-06-05T20:12:50+00:00</time>
      </trkpt>
      <trkpt lat="45.13517" lon="5.91977">
        <ele>2003</ele>
        <time>2024-06-05T20:12:53+00:00</time>
      </trkpt>
      <trkpt lat="45.1352" lon="5.91981">
        <ele>2001</ele>
        <time>2024-06-05T20:12:56+00:00</time>
      </trkpt>
      <trkpt lat="45.13527" lon="5.91984">
        <ele>2001</ele>
        <time>2024-06-05T20:12:59+00:00</time>
      </trkpt>
      <trkpt lat="45.13531" lon="5.91987">
        <ele>2001</ele>
        <time>2024-06-05T20:13:02+00:00</time>
      </trkpt>
      <trkpt lat="45.13534" lon="5.91987">
        <ele>2001</ele>
        <time>2024-06-05T20:13:05+00:00</time>
      </trkpt>
      <trkpt lat="45.13536" lon="5.91988">
        <ele>2001</ele>
        <time>2024-06-05T20:13:08+00:00</time>
      </trkpt>
      <trkpt lat="45.13543" lon="5.91992">
        <ele>1998</ele>
        <time>2024-06-05T20:13:11+00:00</time>
      </trkpt>
      <trkpt lat="45.13544" lon="5.91994">
        <ele>1998</ele>
        <time>2024-06-05T20:13:14+00:00</time>
      </trkpt>
      <trkpt lat="45.13545" lon="5.91994">
        <ele>1998</ele>
        <time>2024-06-05T20:13:17+00:00</time>
      </trkpt>
      <trkpt lat="45.13546" lon="5.91995">
        <ele>1998</ele>
        <time>2024-06-05T20:13:20+00:00</time>
      </trkpt>
      <trkpt lat="45.13548" lon="5.91996">
        <ele>1998</ele>
        <time>2024-06-05T20:13:23+00:00</time>
      </trkpt>
      <trkpt lat="45.13547" lon="5.91997">
        <ele>1998</ele>
        <time>2024-06-05T20:13:26+00:00</time>
      </trkpt>
      <trkpt lat="45.13548" lon="5.91997">
        <ele>1998</ele>
        <time>2024-06-05T20:13:29+00:00</time>
      </trkpt>
      <trkpt lat="45.13547" lon="5.92001">
        <ele>1995</ele>
        <time>2024-06-05T20:13:32+00:00</time>
      </trkpt>
      <trkpt lat="45.13548" lon="5.92004">
        <ele>1995</ele>
        <time>2024-06-05T20:13:35+00:00</time>
      </trkpt>
      <trkpt lat="45.13549" lon="5.92003">
        <ele>1995</ele>
        <time>2024-06-05T20:13:38+00:00</time>
      </trkpt>
      <trkpt lat="45.13552" lon="5.92002">
        <ele>1993</ele>
        <time>2024-06-05T20:13:41+00:00</time>
      </trkpt>
      <trkpt lat="45.13554" lon="5.92002">
        <ele>1993</ele>
        <time>2024-06-05T20:13:44+00:00</time>
      </trkpt>
      <trkpt lat="45.13556" lon="5.92003">
        <ele>1993</ele>
        <time>2024-06-05T20:13:47+00:00</time>
      </trkpt>
      <trkpt lat="45.13557" lon="5.92004">
        <ele>1993</ele>
        <time>2024-06-05T20:13:50+00:00</time>
      </trkpt>
      <trkpt lat="45.13558" lon="5.92002">
        <ele>1993</ele>
        <time>2024-06-05T20:13:53+00:00</time>
      </trkpt>
      <trkpt lat="45.1356" lon="5.92001">
        <ele>1993</ele>
        <time>2024-06-05T20:13:56+00:00</time>
      </trkpt>
      <trkpt lat="45.13562" lon="5.92001">
        <ele>1991</ele>
        <time>2024-06-05T20:13:59+00:00</time>
      </trkpt>
      <trkpt lat="45.13563" lon="5.92">
        <ele>1991</ele>
        <time>2024-06-05T20:14:02+00:00</time>
      </trkpt>
      <trkpt lat="45.13564" lon="5.92001">
        <ele>1991</ele>
        <time>2024-06-05T20:14:05+00:00</time>
      </trkpt>
      <trkpt lat="45.13564" lon="5.92005">
        <ele>1991</ele>
        <time>2024-06-05T20:14:08+00:00</time>
      </trkpt>
      <trkpt lat="45.13564" lon="5.92006">
        <ele>1991</ele>
        <time>2024-06-05T20:14:11+00:00</time>
      </trkpt>
      <trkpt lat="45.13566" lon="5.92007">
        <ele>1991</ele>
        <time>2024-06-05T20:14:14+00:00</time>
      </trkpt>
      <trkpt lat="45.1357" lon="5.92008">
        <ele>1991</ele>
        <time>2024-06-05T20:14:17+00:00</time>
      </trkpt>
      <trkpt lat="45.1357" lon="5.92008">
        <ele>1991</ele>
        <time>2024-06-05T20:14:20+00:00</time>
      </trkpt>
      <trkpt lat="45.1357" lon="5.92008">
        <ele>1986</ele>
        <time>2024-06-05T20:14:23+00:00</time>
      </trkpt>
      <trkpt lat="45.13571" lon="5.92009">
        <ele>1986</ele>
        <time>2024-06-05T20:14:26+00:00</time>
      </trkpt>
      <trkpt lat="45.13572" lon="5.92009">
        <ele>1986</ele>
        <time>2024-06-05T20:14:29+00:00</time>
      </trkpt>
      <trkpt lat="45.13572" lon="5.92012">
        <ele>1979</ele>
        <time>2024-06-05T20:14:32+00:00</time>
      </trkpt>
      <trkpt lat="45.13571" lon="5.92014">
        <ele>1979</ele>
        <time>2024-06-05T20:14:35+00:00</time>
      </trkpt>
      <trkpt lat="45.13567" lon="5.92016">
        <ele>1985</ele>
        <time>2024-06-05T20:14:38+00:00</time>
      </trkpt>
      <trkpt lat="45.13567" lon="5.92018">
        <ele>1985</ele>
        <time>2024-06-05T20:14:41+00:00</time>
      </trkpt>
      <trkpt lat="45.13567" lon="5.92018">
        <ele>1985</ele>
        <time>2024-06-05T20:14:44+00:00</time>
      </trkpt>
      <trkpt lat="45.13567" lon="5.92019">
        <ele>1985</ele>
        <time>2024-06-05T20:14:47+00:00</time>
      </trkpt>
      <trkpt lat="45.13566" lon="5.92021">
        <ele>1981</ele>
        <time>2024-06-05T20:14:50+00:00</time>
      </trkpt>
      <trkpt lat="45.13564" lon="5.92023">
        <ele>1981</ele>
        <time>2024-06-05T20:14:53+00:00</time>
      </trkpt>
      <trkpt lat="45.13564" lon="5.92024">
        <ele>1981</ele>
        <time>2024-06-05T20:14:56+00:00</time>
      </trkpt>
      <trkpt lat="45.13565" lon="5.92024">
        <ele>1981</ele>
        <time>2024-06-05T20:14:59+00:00</time>
      </trkpt>
      <trkpt lat="45.13565" lon="5.92024">
        <ele>1981</ele>
        <time>2024-06-05T20:15:02+00:00</time>
      </trkpt>
      <trkpt lat="45.13569" lon="5.92026">
        <ele>1981</ele>
        <time>2024-06-05T20:15:05+00:00</time>
      </trkpt>
      <trkpt lat="45.13568" lon="5.92029">
        <ele>1981</ele>
        <time>2024-06-05T20:15:08+00:00</time>
      </trkpt>
      <trkpt lat="45.13565" lon="5.92032">
        <ele>1977</ele>
        <time>2024-06-05T20:15:11+00:00</time>
      </trkpt>
      <trkpt lat="45.13564" lon="5.92034">
        <ele>1977</ele>
        <time>2024-06-05T20:15:14+00:00</time>
      </trkpt>
      <trkpt lat="45.13563" lon="5.92039">
        <ele>1977</ele>
        <time>2024-06-05T20:15:17+00:00</time>
      </trkpt>
      <trkpt lat="45.13562" lon="5.9204">
        <ele>1971</ele>
        <time>2024-06-05T20:15:20+00:00</time>
      </trkpt>
      <trkpt lat="45.13561" lon="5.92044">
        <ele>1971</ele>
        <time>2024-06-05T20:15:23+00:00</time>
      </trkpt>
      <trkpt lat="45.13562" lon="5.92045">
        <ele>1971</ele>
        <time>2024-06-05T20:15:26+00:00</time>
      </trkpt>
      <trkpt lat="45.13563" lon="5.92049">
        <ele>1971</ele>
        <time>2024-06-05T20:15:29+00:00</time>
      </trkpt>
      <trkpt lat="45.13564" lon="5.9205">
        <ele>1968</ele>
        <time>2024-06-05T20:15:32+00:00</time>
      </trkpt>
      <trkpt lat="45.13564" lon="5.92049">
        <ele>1971</ele>
        <time>2024-06-05T20:15:35+00:00</time>
      </trkpt>
      <trkpt lat="45.13567" lon="5.92048">
        <ele>1971</ele>
        <time>2024-06-05T20:15:38+00:00</time>
      </trkpt>
      <trkpt lat="45.1357" lon="5.92048">
        <ele>1966</ele>
        <time>2024-06-05T20:15:41+00:00</time>
      </trkpt>
      <trkpt lat="45.13571" lon="5.92051">
        <ele>1964</ele>
        <time>2024-06-05T20:15:44+00:00</time>
      </trkpt>
      <trkpt lat="45.13572" lon="5.92052">
        <ele>1964</ele>
        <time>2024-06-05T20:15:47+00:00</time>
      </trkpt>
      <trkpt lat="45.13574" lon="5.92049">
        <ele>1966</ele>
        <time>2024-06-05T20:15:50+00:00</time>
      </trkpt>
      <trkpt lat="45.13575" lon="5.9205">
        <ele>1966</ele>
        <time>2024-06-05T20:15:53+00:00</time>
      </trkpt>
      <trkpt lat="45.13575" lon="5.92049">
        <ele>1966</ele>
        <time>2024-06-05T20:15:56+00:00</time>
      </trkpt>
      <trkpt lat="45.13576" lon="5.92053">
        <ele>1964</ele>
        <time>2024-06-05T20:15:59+00:00</time>
      </trkpt>
      <trkpt lat="45.13579" lon="5.92057">
        <ele>1964</ele>
        <time>2024-06-05T20:16:02+00:00</time>
      </trkpt>
      <trkpt lat="45.13581" lon="5.92055">
        <ele>1960</ele>
        <time>2024-06-05T20:16:05+00:00</time>
      </trkpt>
      <trkpt lat="45.13582" lon="5.92055">
        <ele>1960</ele>
        <time>2024-06-05T20:16:08+00:00</time>
      </trkpt>
      <trkpt lat="45.13583" lon="5.92052">
        <ele>1960</ele>
        <time>2024-06-05T20:16:11+00:00</time>
      </trkpt>
      <trkpt lat="45.13585" lon="5.92052">
        <ele>1960</ele>
        <time>2024-06-05T20:16:14+00:00</time>
      </trkpt>
      <trkpt lat="45.13586" lon="5.92054">
        <ele>1960</ele>
        <time>2024-06-05T20:16:17+00:00</time>
      </trkpt>
      <trkpt lat="45.13586" lon="5.92056">
        <ele>1960</ele>
        <time>2024-06-05T20:16:20+00:00</time>
      </trkpt>
      <trkpt lat="45.13588" lon="5.92057">
        <ele>1960</ele>
        <time>2024-06-05T20:16:23+00:00</time>
      </trkpt>
      <trkpt lat="45.13589" lon="5.92055">
        <ele>1960</ele>
        <time>2024-06-05T20:16:26+00:00</time>
      </trkpt>
      <trkpt lat="45.1359" lon="5.92055">
        <ele>1957</ele>
        <time>2024-06-05T20:16:29+00:00</time>
      </trkpt>
      <trkpt lat="45.13592" lon="5.92057">
        <ele>1957</ele>
        <time>2024-06-05T20:16:32+00:00</time>
      </trkpt>
      <trkpt lat="45.13592" lon="5.92057">
        <ele>1957</ele>
        <time>2024-06-05T20:16:35+00:00</time>
      </trkpt>
      <trkpt lat="45.13593" lon="5.92056">
        <ele>1957</ele>
        <time>2024-06-05T20:16:38+00:00</time>
      </trkpt>
      <trkpt lat="45.13594" lon="5.92054">
        <ele>1957</ele>
        <time>2024-06-05T20:16:41+00:00</time>
      </trkpt>
      <trkpt lat="45.13596" lon="5.9205">
        <ele>1958</ele>
        <time>2024-06-05T20:16:44+00:00</time>
      </trkpt>
      <trkpt lat="45.13598" lon="5.92049">
        <ele>1958</ele>
        <time>2024-06-05T20:16:47+00:00</time>
      </trkpt>
      <trkpt lat="45.13599" lon="5.9205">
        <ele>1958</ele>
        <time>2024-06-05T20:16:50+00:00</time>
      </trkpt>
      <trkpt lat="45.13601" lon="5.9205">
        <ele>1951</ele>
        <time>2024-06-05T20:16:53+00:00</time>
      </trkpt>
      <trkpt lat="45.13602" lon="5.92052">
        <ele>1950</ele>
        <time>2024-06-05T20:16:56+00:00</time>
      </trkpt>
      <trkpt lat="45.13602" lon="5.92054">
        <ele>1950</ele>
        <time>2024-06-05T20:16:59+00:00</time>
      </trkpt>
      <trkpt lat="45.13603" lon="5.92057">
        <ele>1950</ele>
        <time>2024-06-05T20:17:02+00:00</time>
      </trkpt>
      <trkpt lat="45.13605" lon="5.9206">
        <ele>1950</ele>
        <time>2024-06-05T20:17:05+00:00</time>
      </trkpt>
      <trkpt lat="45.13607" lon="5.92058">
        <ele>1950</ele>
        <time>2024-06-05T20:17:08+00:00</time>
      </trkpt>
      <trkpt lat="45.13609" lon="5.92055">
        <ele>1950</ele>
        <time>2024-06-05T20:17:11+00:00</time>
      </trkpt>
      <trkpt lat="45.1361" lon="5.92056">
        <ele>1946</ele>
        <time>2024-06-05T20:17:14+00:00</time>
      </trkpt>
      <trkpt lat="45.13612" lon="5.92055">
        <ele>1946</ele>
        <time>2024-06-05T20:17:17+00:00</time>
      </trkpt>
      <trkpt lat="45.13613" lon="5.92057">
        <ele>1946</ele>
        <time>2024-06-05T20:17:20+00:00</time>
      </trkpt>
      <trkpt lat="45.13614" lon="5.92057">
        <ele>1946</ele>
        <time>2024-06-05T20:17:23+00:00</time>
      </trkpt>
      <trkpt lat="45.13616" lon="5.92057">
        <ele>1946</ele>
        <time>2024-06-05T20:17:26+00:00</time>
      </trkpt>
      <trkpt lat="45.13616" lon="5.92056">
        <ele>1946</ele>
        <time>2024-06-05T20:17:29+00:00</time>
      </trkpt>
      <trkpt lat="45.13618" lon="5.92057">
        <ele>1946</ele>
        <time>2024-06-05T20:17:32+00:00</time>
      </trkpt>
      <trkpt lat="45.13618" lon="5.92056">
        <ele>1946</ele>
        <time>2024-06-05T20:17:35+00:00</time>
      </trkpt>
      <trkpt lat="45.13619" lon="5.92055">
        <ele>1946</ele>
        <time>2024-06-05T20:17:38+00:00</time>
      </trkpt>
      <trkpt lat="45.1362" lon="5.92057">
        <ele>1942</ele>
        <time>2024-06-05T20:17:41+00:00</time>
      </trkpt>
      <trkpt lat="45.13619" lon="5.92065">
        <ele>1945</ele>
        <time>2024-06-05T20:17:44+00:00</time>
      </trkpt>
      <trkpt lat="45.13621" lon="5.92066">
        <ele>1940</ele>
        <time>2024-06-05T20:17:47+00:00</time>
      </trkpt>
      <trkpt lat="45.13624" lon="5.92065">
        <ele>1940</ele>
        <time>2024-06-05T20:17:50+00:00</time>
      </trkpt>
      <trkpt lat="45.13625" lon="5.92066">
        <ele>1940</ele>
        <time>2024-06-05T20:17:53+00:00</time>
      </trkpt>
      <trkpt lat="45.13626" lon="5.92069">
        <ele>1940</ele>
        <time>2024-06-05T20:17:56+00:00</time>
      </trkpt>
      <trkpt lat="45.13628" lon="5.92073">
        <ele>1938</ele>
        <time>2024-06-05T20:17:59+00:00</time>
      </trkpt>
      <trkpt lat="45.13628" lon="5.92077">
        <ele>1938</ele>
        <time>2024-06-05T20:18:02+00:00</time>
      </trkpt>
      <trkpt lat="45.13631" lon="5.92083">
        <ele>1931</ele>
        <time>2024-06-05T20:18:05+00:00</time>
      </trkpt>
      <trkpt lat="45.13632" lon="5.92083">
        <ele>1931</ele>
        <time>2024-06-05T20:18:08+00:00</time>
      </trkpt>
      <trkpt lat="45.13636" lon="5.92082">
        <ele>1931</ele>
        <time>2024-06-05T20:18:11+00:00</time>
      </trkpt>
      <trkpt lat="45.1364" lon="5.9208">
        <ele>1931</ele>
        <time>2024-06-05T20:18:14+00:00</time>
      </trkpt>
      <trkpt lat="45.13646" lon="5.9208">
        <ele>1929</ele>
        <time>2024-06-05T20:18:17+00:00</time>
      </trkpt>
      <trkpt lat="45.13649" lon="5.92083">
        <ele>1929</ele>
        <time>2024-06-05T20:18:20+00:00</time>
      </trkpt>
      <trkpt lat="45.1365" lon="5.92084">
        <ele>1927</ele>
        <time>2024-06-05T20:18:23+00:00</time>
      </trkpt>
      <trkpt lat="45.13654" lon="5.92083">
        <ele>1927</ele>
        <time>2024-06-05T20:18:26+00:00</time>
      </trkpt>
      <trkpt lat="45.13657" lon="5.92085">
        <ele>1927</ele>
        <time>2024-06-05T20:18:29+00:00</time>
      </trkpt>
      <trkpt lat="45.1366" lon="5.92085">
        <ele>1926</ele>
        <time>2024-06-05T20:18:32+00:00</time>
      </trkpt>
      <trkpt lat="45.13666" lon="5.92087">
        <ele>1926</ele>
        <time>2024-06-05T20:18:35+00:00</time>
      </trkpt>
      <trkpt lat="45.13672" lon="5.92092">
        <ele>1926</ele>
        <time>2024-06-05T20:18:38+00:00</time>
      </trkpt>
      <trkpt lat="45.13673" lon="5.92094">
        <ele>1925</ele>
        <time>2024-06-05T20:18:41+00:00</time>
      </trkpt>
      <trkpt lat="45.13676" lon="5.92099">
        <ele>1925</ele>
        <time>2024-06-05T20:18:44+00:00</time>
      </trkpt>
      <trkpt lat="45.13678" lon="5.921">
        <ele>1926</ele>
        <time>2024-06-05T20:18:47+00:00</time>
      </trkpt>
      <trkpt lat="45.13678" lon="5.92107">
        <ele>1926</ele>
        <time>2024-06-05T20:18:50+00:00</time>
      </trkpt>
      <trkpt lat="45.13679" lon="5.92109">
        <ele>1926</ele>
        <time>2024-06-05T20:18:53+00:00</time>
      </trkpt>
      <trkpt lat="45.13683" lon="5.92113">
        <ele>1926</ele>
        <time>2024-06-05T20:18:56+00:00</time>
      </trkpt>
      <trkpt lat="45.13683" lon="5.92116">
        <ele>1926</ele>
        <time>2024-06-05T20:18:59+00:00</time>
      </trkpt>
      <trkpt lat="45.13684" lon="5.9212">
        <ele>1926</ele>
        <time>2024-06-05T20:19:02+00:00</time>
      </trkpt>
      <trkpt lat="45.13688" lon="5.92132">
        <ele>1926</ele>
        <time>2024-06-05T20:19:05+00:00</time>
      </trkpt>
      <trkpt lat="45.13691" lon="5.92135">
        <ele>1931</ele>
        <time>2024-06-05T20:19:08+00:00</time>
      </trkpt>
      <trkpt lat="45.13695" lon="5.92136">
        <ele>1927</ele>
        <time>2024-06-05T20:19:11+00:00</time>
      </trkpt>
      <trkpt lat="45.13696" lon="5.92141">
        <ele>1930</ele>
        <time>2024-06-05T20:19:14+00:00</time>
      </trkpt>
      <trkpt lat="45.13698" lon="5.92143">
        <ele>1930</ele>
        <time>2024-06-05T20:19:17+00:00</time>
      </trkpt>
      <trkpt lat="45.13703" lon="5.92156">
        <ele>1932</ele>
        <time>2024-06-05T20:19:20+00:00</time>
      </trkpt>
      <trkpt lat="45.13707" lon="5.92165">
        <ele>1927</ele>
        <time>2024-06-05T20:19:23+00:00</time>
      </trkpt>
      <trkpt lat="45.13713" lon="5.9217">
        <ele>1929</ele>
        <time>2024-06-05T20:19:26+00:00</time>
      </trkpt>
      <trkpt lat="45.13714" lon="5.92174">
        <ele>1929</ele>
        <time>2024-06-05T20:19:29+00:00</time>
      </trkpt>
      <trkpt lat="45.13721" lon="5.92182">
        <ele>1928</ele>
        <time>2024-06-05T20:19:32+00:00</time>
      </trkpt>
      <trkpt lat="45.13725" lon="5.92184">
        <ele>1928</ele>
        <time>2024-06-05T20:19:35+00:00</time>
      </trkpt>
      <trkpt lat="45.13727" lon="5.92186">
        <ele>1928</ele>
        <time>2024-06-05T20:19:38+00:00</time>
      </trkpt>
      <trkpt lat="45.13731" lon="5.92188">
        <ele>1931</ele>
        <time>2024-06-05T20:19:41+00:00</time>
      </trkpt>
      <trkpt lat="45.13734" lon="5.92187">
        <ele>1931</ele>
        <time>2024-06-05T20:19:44+00:00</time>
      </trkpt>
      <trkpt lat="45.13736" lon="5.92188">
        <ele>1931</ele>
        <time>2024-06-05T20:19:47+00:00</time>
      </trkpt>
      <trkpt lat="45.1374" lon="5.92189">
        <ele>1926</ele>
        <time>2024-06-05T20:19:50+00:00</time>
      </trkpt>
      <trkpt lat="45.13742" lon="5.9219">
        <ele>1932</ele>
        <time>2024-06-05T20:19:53+00:00</time>
      </trkpt>
      <trkpt lat="45.13744" lon="5.9219">
        <ele>1932</ele>
        <time>2024-06-05T20:19:56+00:00</time>
      </trkpt>
      <trkpt lat="45.13748" lon="5.92191">
        <ele>1928</ele>
        <time>2024-06-05T20:19:59+00:00</time>
      </trkpt>
      <trkpt lat="45.13753" lon="5.92196">
        <ele>1928</ele>
        <time>2024-06-05T20:20:02+00:00</time>
      </trkpt>
      <trkpt lat="45.13755" lon="5.92199">
        <ele>1928</ele>
        <time>2024-06-05T20:20:05+00:00</time>
      </trkpt>
      <trkpt lat="45.13758" lon="5.92203">
        <ele>1925</ele>
        <time>2024-06-05T20:20:08+00:00</time>
      </trkpt>
      <trkpt lat="45.13763" lon="5.92209">
        <ele>1926</ele>
        <time>2024-06-05T20:20:11+00:00</time>
      </trkpt>
      <trkpt lat="45.13769" lon="5.92216">
        <ele>1923</ele>
        <time>2024-06-05T20:20:14+00:00</time>
      </trkpt>
      <trkpt lat="45.13771" lon="5.92216">
        <ele>1923</ele>
        <time>2024-06-05T20:20:17+00:00</time>
      </trkpt>
      <trkpt lat="45.13782" lon="5.92219">
        <ele>1923</ele>
        <time>2024-06-05T20:20:20+00:00</time>
      </trkpt>
      <trkpt lat="45.13784" lon="5.92219">
        <ele>1923</ele>
        <time>2024-06-05T20:20:23+00:00</time>
      </trkpt>
      <trkpt lat="45.13786" lon="5.9222">
        <ele>1920</ele>
        <time>2024-06-05T20:20:26+00:00</time>
      </trkpt>
      <trkpt lat="45.13787" lon="5.92223">
        <ele>1920</ele>
        <time>2024-06-05T20:20:29+00:00</time>
      </trkpt>
      <trkpt lat="45.1379" lon="5.92226">
        <ele>1920</ele>
        <time>2024-06-05T20:20:32+00:00</time>
      </trkpt>
      <trkpt lat="45.13793" lon="5.92231">
        <ele>1919</ele>
        <time>2024-06-05T20:20:35+00:00</time>
      </trkpt>
      <trkpt lat="45.13795" lon="5.92232">
        <ele>1919</ele>
        <time>2024-06-05T20:20:38+00:00</time>
      </trkpt>
      <trkpt lat="45.13798" lon="5.92235">
        <ele>1922</ele>
        <time>2024-06-05T20:20:41+00:00</time>
      </trkpt>
      <trkpt lat="45.13801" lon="5.92242">
        <ele>1919</ele>
        <time>2024-06-05T20:20:44+00:00</time>
      </trkpt>
      <trkpt lat="45.13803" lon="5.92244">
        <ele>1919</ele>
        <time>2024-06-05T20:20:47+00:00</time>
      </trkpt>
      <trkpt lat="45.13805" lon="5.92251">
        <ele>1922</ele>
        <time>2024-06-05T20:20:50+00:00</time>
      </trkpt>
      <trkpt lat="45.13808" lon="5.92254">
        <ele>1922</ele>
        <time>2024-06-05T20:20:53+00:00</time>
      </trkpt>
      <trkpt lat="45.13812" lon="5.92255">
        <ele>1922</ele>
        <time>2024-06-05T20:20:56+00:00</time>
      </trkpt>
      <trkpt lat="45.13819" lon="5.9226">
        <ele>1922</ele>
        <time>2024-06-05T20:20:59+00:00</time>
      </trkpt>
      <trkpt lat="45.1383" lon="5.9226">
        <ele>1922</ele>
        <time>2024-06-05T20:21:02+00:00</time>
      </trkpt>
      <trkpt lat="45.13835" lon="5.92263">
        <ele>1920</ele>
        <time>2024-06-05T20:21:05+00:00</time>
      </trkpt>
      <trkpt lat="45.13838" lon="5.92264">
        <ele>1920</ele>
        <time>2024-06-05T20:21:08+00:00</time>
      </trkpt>
      <trkpt lat="45.13841" lon="5.92263">
        <ele>1917</ele>
        <time>2024-06-05T20:21:11+00:00</time>
      </trkpt>
      <trkpt lat="45.13843" lon="5.92264">
        <ele>1917</ele>
        <time>2024-06-05T20:21:14+00:00</time>
      </trkpt>
      <trkpt lat="45.13846" lon="5.92265">
        <ele>1917</ele>
        <time>2024-06-05T20:21:17+00:00</time>
      </trkpt>
      <trkpt lat="45.1385" lon="5.92263">
        <ele>1917</ele>
        <time>2024-06-05T20:21:20+00:00</time>
      </trkpt>
      <trkpt lat="45.13855" lon="5.9226">
        <ele>1916</ele>
        <time>2024-06-05T20:21:23+00:00</time>
      </trkpt>
      <trkpt lat="45.13862" lon="5.92257">
        <ele>1915</ele>
        <time>2024-06-05T20:21:26+00:00</time>
      </trkpt>
      <trkpt lat="45.13864" lon="5.92257">
        <ele>1915</ele>
        <time>2024-06-05T20:21:29+00:00</time>
      </trkpt>
      <trkpt lat="45.13865" lon="5.92259">
        <ele>1915</ele>
        <time>2024-06-05T20:21:32+00:00</time>
      </trkpt>
      <trkpt lat="45.13868" lon="5.92265">
        <ele>1916</ele>
        <time>2024-06-05T20:21:35+00:00</time>
      </trkpt>
      <trkpt lat="45.13869" lon="5.92269">
        <ele>1916</ele>
        <time>2024-06-05T20:21:38+00:00</time>
      </trkpt>
      <trkpt lat="45.1387" lon="5.9227">
        <ele>1919</ele>
        <time>2024-06-05T20:21:41+00:00</time>
      </trkpt>
      <trkpt lat="45.13873" lon="5.9227">
        <ele>1917</ele>
        <time>2024-06-05T20:21:44+00:00</time>
      </trkpt>
      <trkpt lat="45.13878" lon="5.92263">
        <ele>1917</ele>
        <time>2024-06-05T20:21:47+00:00</time>
      </trkpt>
      <trkpt lat="45.13879" lon="5.92259">
        <ele>1916</ele>
        <time>2024-06-05T20:21:50+00:00</time>
      </trkpt>
      <trkpt lat="45.13882" lon="5.92257">
        <ele>1919</ele>
        <time>2024-06-05T20:21:53+00:00</time>
      </trkpt>
      <trkpt lat="45.13887" lon="5.92258">
        <ele>1919</ele>
        <time>2024-06-05T20:21:56+00:00</time>
      </trkpt>
      <trkpt lat="45.1389" lon="5.92255">
        <ele>1920</ele>
        <time>2024-06-05T20:21:59+00:00</time>
      </trkpt>
      <trkpt lat="45.13893" lon="5.92255">
        <ele>1920</ele>
        <time>2024-06-05T20:22:02+00:00</time>
      </trkpt>
      <trkpt lat="45.13895" lon="5.92257">
        <ele>1920</ele>
        <time>2024-06-05T20:22:05+00:00</time>
      </trkpt>
      <trkpt lat="45.13897" lon="5.92263">
        <ele>1921</ele>
        <time>2024-06-05T20:22:08+00:00</time>
      </trkpt>
      <trkpt lat="45.13898" lon="5.92265">
        <ele>1921</ele>
        <time>2024-06-05T20:22:11+00:00</time>
      </trkpt>
      <trkpt lat="45.139" lon="5.92267">
        <ele>1921</ele>
        <time>2024-06-05T20:22:14+00:00</time>
      </trkpt>
      <trkpt lat="45.13908" lon="5.92267">
        <ele>1919</ele>
        <time>2024-06-05T20:22:17+00:00</time>
      </trkpt>
      <trkpt lat="45.1391" lon="5.92266">
        <ele>1921</ele>
        <time>2024-06-05T20:22:20+00:00</time>
      </trkpt>
      <trkpt lat="45.13912" lon="5.92268">
        <ele>1921</ele>
        <time>2024-06-05T20:22:23+00:00</time>
      </trkpt>
      <trkpt lat="45.13914" lon="5.92268">
        <ele>1921</ele>
        <time>2024-06-05T20:22:26+00:00</time>
      </trkpt>
      <trkpt lat="45.13917" lon="5.92268">
        <ele>1921</ele>
        <time>2024-06-05T20:22:29+00:00</time>
      </trkpt>
      <trkpt lat="45.13924" lon="5.92268">
        <ele>1920</ele>
        <time>2024-06-05T20:22:32+00:00</time>
      </trkpt>
      <trkpt lat="45.13928" lon="5.92266">
        <ele>1919</ele>
        <time>2024-06-05T20:22:35+00:00</time>
      </trkpt>
      <trkpt lat="45.13932" lon="5.92265">
        <ele>1919</ele>
        <time>2024-06-05T20:22:38+00:00</time>
      </trkpt>
      <trkpt lat="45.13942" lon="5.92268">
        <ele>1917</ele>
        <time>2024-06-05T20:22:41+00:00</time>
      </trkpt>
      <trkpt lat="45.13945" lon="5.92272">
        <ele>1919</ele>
        <time>2024-06-05T20:22:44+00:00</time>
      </trkpt>
      <trkpt lat="45.13945" lon="5.92272">
        <ele>1919</ele>
        <time>2024-06-05T20:22:47+00:00</time>
      </trkpt>
      <trkpt lat="45.13945" lon="5.92272">
        <ele>1919</ele>
        <time>2024-06-05T20:22:50+00:00</time>
      </trkpt>
      <trkpt lat="45.13947" lon="5.92273">
        <ele>1919</ele>
        <time>2024-06-05T20:22:53+00:00</time>
      </trkpt>
      <trkpt lat="45.1395" lon="5.92277">
        <ele>1917</ele>
        <time>2024-06-05T20:22:56+00:00</time>
      </trkpt>
      <trkpt lat="45.13951" lon="5.9228">
        <ele>1920</ele>
        <time>2024-06-05T20:22:59+00:00</time>
      </trkpt>
      <trkpt lat="45.13952" lon="5.92282">
        <ele>1920</ele>
        <time>2024-06-05T20:23:02+00:00</time>
      </trkpt>
      <trkpt lat="45.13954" lon="5.92283">
        <ele>1920</ele>
        <time>2024-06-05T20:23:05+00:00</time>
      </trkpt>
      <trkpt lat="45.13955" lon="5.92286">
        <ele>1920</ele>
        <time>2024-06-05T20:23:08+00:00</time>
      </trkpt>
      <trkpt lat="45.13955" lon="5.92288">
        <ele>1920</ele>
        <time>2024-06-05T20:23:11+00:00</time>
      </trkpt>
      <trkpt lat="45.13956" lon="5.92293">
        <ele>1920</ele>
        <time>2024-06-05T20:23:14+00:00</time>
      </trkpt>
      <trkpt lat="45.13956" lon="5.923">
        <ele>1920</ele>
        <time>2024-06-05T20:23:17+00:00</time>
      </trkpt>
      <trkpt lat="45.13956" lon="5.92303">
        <ele>1921</ele>
        <time>2024-06-05T20:23:20+00:00</time>
      </trkpt>
      <trkpt lat="45.13956" lon="5.92307">
        <ele>1921</ele>
        <time>2024-06-05T20:23:23+00:00</time>
      </trkpt>
      <trkpt lat="45.13957" lon="5.9231">
        <ele>1922</ele>
        <time>2024-06-05T20:23:26+00:00</time>
      </trkpt>
      <trkpt lat="45.13957" lon="5.92313">
        <ele>1922</ele>
        <time>2024-06-05T20:23:29+00:00</time>
      </trkpt>
      <trkpt lat="45.13958" lon="5.92317">
        <ele>1922</ele>
        <time>2024-06-05T20:23:32+00:00</time>
      </trkpt>
      <trkpt lat="45.13958" lon="5.92322">
        <ele>1922</ele>
        <time>2024-06-05T20:23:35+00:00</time>
      </trkpt>
      <trkpt lat="45.13959" lon="5.92328">
        <ele>1922</ele>
        <time>2024-06-05T20:23:38+00:00</time>
      </trkpt>
      <trkpt lat="45.13963" lon="5.92334">
        <ele>1922</ele>
        <time>2024-06-05T20:23:41+00:00</time>
      </trkpt>
      <trkpt lat="45.13968" lon="5.92345">
        <ele>1926</ele>
        <time>2024-06-05T20:23:44+00:00</time>
      </trkpt>
      <trkpt lat="45.13969" lon="5.92347">
        <ele>1926</ele>
        <time>2024-06-05T20:23:47+00:00</time>
      </trkpt>
      <trkpt lat="45.13971" lon="5.92346">
        <ele>1923</ele>
        <time>2024-06-05T20:23:50+00:00</time>
      </trkpt>
      <trkpt lat="45.13979" lon="5.92353">
        <ele>1919</ele>
        <time>2024-06-05T20:23:53+00:00</time>
      </trkpt>
      <trkpt lat="45.13985" lon="5.92354">
        <ele>1924</ele>
        <time>2024-06-05T20:23:56+00:00</time>
      </trkpt>
      <trkpt lat="45.13993" lon="5.92353">
        <ele>1923</ele>
        <time>2024-06-05T20:23:59+00:00</time>
      </trkpt>
      <trkpt lat="45.13997" lon="5.92351">
        <ele>1923</ele>
        <time>2024-06-05T20:24:02+00:00</time>
      </trkpt>
      <trkpt lat="45.14002" lon="5.9235">
        <ele>1918</ele>
        <time>2024-06-05T20:24:05+00:00</time>
      </trkpt>
      <trkpt lat="45.14007" lon="5.92351">
        <ele>1921</ele>
        <time>2024-06-05T20:24:08+00:00</time>
      </trkpt>
      <trkpt lat="45.14008" lon="5.92351">
        <ele>1921</ele>
        <time>2024-06-05T20:24:11+00:00</time>
      </trkpt>
      <trkpt lat="45.1401" lon="5.92351">
        <ele>1921</ele>
        <time>2024-06-05T20:24:14+00:00</time>
      </trkpt>
      <trkpt lat="45.14012" lon="5.92351">
        <ele>1919</ele>
        <time>2024-06-05T20:24:17+00:00</time>
      </trkpt>
      <trkpt lat="45.14015" lon="5.92349">
        <ele>1916</ele>
        <time>2024-06-05T20:24:20+00:00</time>
      </trkpt>
      <trkpt lat="45.14018" lon="5.92349">
        <ele>1916</ele>
        <time>2024-06-05T20:24:23+00:00</time>
      </trkpt>
      <trkpt lat="45.14025" lon="5.92353">
        <ele>1918</ele>
        <time>2024-06-05T20:24:26+00:00</time>
      </trkpt>
      <trkpt lat="45.14028" lon="5.92353">
        <ele>1918</ele>
        <time>2024-06-05T20:24:29+00:00</time>
      </trkpt>
      <trkpt lat="45.14031" lon="5.92351">
        <ele>1917</ele>
        <time>2024-06-05T20:24:32+00:00</time>
      </trkpt>
      <trkpt lat="45.14034" lon="5.92349">
        <ele>1913</ele>
        <time>2024-06-05T20:24:35+00:00</time>
      </trkpt>
      <trkpt lat="45.14039" lon="5.9235">
        <ele>1917</ele>
        <time>2024-06-05T20:24:38+00:00</time>
      </trkpt>
      <trkpt lat="45.1404" lon="5.92352">
        <ele>1917</ele>
        <time>2024-06-05T20:24:41+00:00</time>
      </trkpt>
      <trkpt lat="45.14041" lon="5.92353">
        <ele>1917</ele>
        <time>2024-06-05T20:24:44+00:00</time>
      </trkpt>
      <trkpt lat="45.14049" lon="5.92352">
        <ele>1917</ele>
        <time>2024-06-05T20:24:47+00:00</time>
      </trkpt>
      <trkpt lat="45.14052" lon="5.92353">
        <ele>1917</ele>
        <time>2024-06-05T20:24:50+00:00</time>
      </trkpt>
      <trkpt lat="45.14056" lon="5.92354">
        <ele>1917</ele>
        <time>2024-06-05T20:24:53+00:00</time>
      </trkpt>
      <trkpt lat="45.14059" lon="5.92357">
        <ele>1917</ele>
        <time>2024-06-05T20:24:56+00:00</time>
      </trkpt>
      <trkpt lat="45.14061" lon="5.92358">
        <ele>1917</ele>
        <time>2024-06-05T20:24:59+00:00</time>
      </trkpt>
      <trkpt lat="45.14062" lon="5.92356">
        <ele>1917</ele>
        <time>2024-06-05T20:25:02+00:00</time>
      </trkpt>
      <trkpt lat="45.14065" lon="5.92357">
        <ele>1917</ele>
        <time>2024-06-05T20:25:05+00:00</time>
      </trkpt>
      <trkpt lat="45.14068" lon="5.92359">
        <ele>1917</ele>
        <time>2024-06-05T20:25:08+00:00</time>
      </trkpt>
      <trkpt lat="45.14073" lon="5.92366">
        <ele>1918</ele>
        <time>2024-06-05T20:25:11+00:00</time>
      </trkpt>
      <trkpt lat="45.14074" lon="5.92372">
        <ele>1922</ele>
        <time>2024-06-05T20:25:14+00:00</time>
      </trkpt>
      <trkpt lat="45.14076" lon="5.92374">
        <ele>1922</ele>
        <time>2024-06-05T20:25:17+00:00</time>
      </trkpt>
      <trkpt lat="45.14082" lon="5.92376">
        <ele>1916</ele>
        <time>2024-06-05T20:25:20+00:00</time>
      </trkpt>
      <trkpt lat="45.14083" lon="5.92372">
        <ele>1919</ele>
        <time>2024-06-05T20:25:23+00:00</time>
      </trkpt>
      <trkpt lat="45.14089" lon="5.92373">
        <ele>1919</ele>
        <time>2024-06-05T20:25:26+00:00</time>
      </trkpt>
      <trkpt lat="45.14094" lon="5.92379">
        <ele>1915</ele>
        <time>2024-06-05T20:25:29+00:00</time>
      </trkpt>
      <trkpt lat="45.14098" lon="5.92379">
        <ele>1915</ele>
        <time>2024-06-05T20:25:32+00:00</time>
      </trkpt>
      <trkpt lat="45.14103" lon="5.92383">
        <ele>1918</ele>
        <time>2024-06-05T20:25:35+00:00</time>
      </trkpt>
      <trkpt lat="45.14105" lon="5.92388">
        <ele>1915</ele>
        <time>2024-06-05T20:25:38+00:00</time>
      </trkpt>
      <trkpt lat="45.14108" lon="5.92392">
        <ele>1918</ele>
        <time>2024-06-05T20:25:41+00:00</time>
      </trkpt>
      <trkpt lat="45.14109" lon="5.92394">
        <ele>1918</ele>
        <time>2024-06-05T20:25:44+00:00</time>
      </trkpt>
      <trkpt lat="45.14113" lon="5.924">
        <ele>1920</ele>
        <time>2024-06-05T20:25:47+00:00</time>
      </trkpt>
      <trkpt lat="45.14119" lon="5.92405">
        <ele>1917</ele>
        <time>2024-06-05T20:25:50+00:00</time>
      </trkpt>
      <trkpt lat="45.14124" lon="5.92408">
        <ele>1915</ele>
        <time>2024-06-05T20:25:53+00:00</time>
      </trkpt>
      <trkpt lat="45.14127" lon="5.9241">
        <ele>1915</ele>
        <time>2024-06-05T20:25:56+00:00</time>
      </trkpt>
      <trkpt lat="45.1413" lon="5.92414">
        <ele>1918</ele>
        <time>2024-06-05T20:25:59+00:00</time>
      </trkpt>
      <trkpt lat="45.14131" lon="5.92416">
        <ele>1916</ele>
        <time>2024-06-05T20:26:02+00:00</time>
      </trkpt>
      <trkpt lat="45.14136" lon="5.92418">
        <ele>1918</ele>
        <time>2024-06-05T20:26:05+00:00</time>
      </trkpt>
      <trkpt lat="45.1414" lon="5.92417">
        <ele>1915</ele>
        <time>2024-06-05T20:26:08+00:00</time>
      </trkpt>
      <trkpt lat="45.14143" lon="5.92419">
        <ele>1915</ele>
        <time>2024-06-05T20:26:11+00:00</time>
      </trkpt>
      <trkpt lat="45.14145" lon="5.9242">
        <ele>1915</ele>
        <time>2024-06-05T20:26:14+00:00</time>
      </trkpt>
      <trkpt lat="45.14146" lon="5.9242">
        <ele>1920</ele>
        <time>2024-06-05T20:26:17+00:00</time>
      </trkpt>
      <trkpt lat="45.14149" lon="5.92422">
        <ele>1920</ele>
        <time>2024-06-05T20:26:20+00:00</time>
      </trkpt>
      <trkpt lat="45.14152" lon="5.92424">
        <ele>1920</ele>
        <time>2024-06-05T20:26:23+00:00</time>
      </trkpt>
      <trkpt lat="45.1416" lon="5.92427">
        <ele>1920</ele>
        <time>2024-06-05T20:26:26+00:00</time>
      </trkpt>
      <trkpt lat="45.14162" lon="5.92429">
        <ele>1918</ele>
        <time>2024-06-05T20:26:29+00:00</time>
      </trkpt>
      <trkpt lat="45.14164" lon="5.92432">
        <ele>1928</ele>
        <time>2024-06-05T20:26:32+00:00</time>
      </trkpt>
      <trkpt lat="45.14169" lon="5.92437">
        <ele>1928</ele>
        <time>2024-06-05T20:26:35+00:00</time>
      </trkpt>
      <trkpt lat="45.14172" lon="5.92443">
        <ele>1931</ele>
        <time>2024-06-05T20:26:38+00:00</time>
      </trkpt>
      <trkpt lat="45.14181" lon="5.9245">
        <ele>1923</ele>
        <time>2024-06-05T20:26:41+00:00</time>
      </trkpt>
      <trkpt lat="45.14182" lon="5.92453">
        <ele>1931</ele>
        <time>2024-06-05T20:26:44+00:00</time>
      </trkpt>
      <trkpt lat="45.14185" lon="5.92457">
        <ele>1931</ele>
        <time>2024-06-05T20:26:47+00:00</time>
      </trkpt>
      <trkpt lat="45.14188" lon="5.92458">
        <ele>1931</ele>
        <time>2024-06-05T20:26:50+00:00</time>
      </trkpt>
      <trkpt lat="45.1419" lon="5.9246">
        <ele>1939</ele>
        <time>2024-06-05T20:26:53+00:00</time>
      </trkpt>
      <trkpt lat="45.14194" lon="5.9246">
        <ele>1937</ele>
        <time>2024-06-05T20:26:56+00:00</time>
      </trkpt>
      <trkpt lat="45.14195" lon="5.92462">
        <ele>1937</ele>
        <time>2024-06-05T20:26:59+00:00</time>
      </trkpt>
      <trkpt lat="45.14198" lon="5.92464">
        <ele>1937</ele>
        <time>2024-06-05T20:27:02+00:00</time>
      </trkpt>
      <trkpt lat="45.14199" lon="5.92466">
        <ele>1937</ele>
        <time>2024-06-05T20:27:05+00:00</time>
      </trkpt>
      <trkpt lat="45.14201" lon="5.92469">
        <ele>1934</ele>
        <time>2024-06-05T20:27:08+00:00</time>
      </trkpt>
      <trkpt lat="45.1421" lon="5.92476">
        <ele>1937</ele>
        <time>2024-06-05T20:27:11+00:00</time>
      </trkpt>
      <trkpt lat="45.14214" lon="5.92483">
        <ele>1938</ele>
        <time>2024-06-05T20:27:14+00:00</time>
      </trkpt>
      <trkpt lat="45.1422" lon="5.92485">
        <ele>1936</ele>
        <time>2024-06-05T20:27:17+00:00</time>
      </trkpt>
      <trkpt lat="45.14225" lon="5.92489">
        <ele>1936</ele>
        <time>2024-06-05T20:27:20+00:00</time>
      </trkpt>
      <trkpt lat="45.14228" lon="5.92489">
        <ele>1936</ele>
        <time>2024-06-05T20:27:23+00:00</time>
      </trkpt>
      <trkpt lat="45.14229" lon="5.92489">
        <ele>1936</ele>
        <time>2024-06-05T20:27:26+00:00</time>
      </trkpt>
      <trkpt lat="45.1423" lon="5.92491">
        <ele>1941</ele>
        <time>2024-06-05T20:27:29+00:00</time>
      </trkpt>
      <trkpt lat="45.14229" lon="5.92494">
        <ele>1941</ele>
        <time>2024-06-05T20:27:32+00:00</time>
      </trkpt>
      <trkpt lat="45.14229" lon="5.92495">
        <ele>1941</ele>
        <time>2024-06-05T20:27:35+00:00</time>
      </trkpt>
      <trkpt lat="45.14232" lon="5.92498">
        <ele>1941</ele>
        <time>2024-06-05T20:27:38+00:00</time>
      </trkpt>
      <trkpt lat="45.14233" lon="5.92498">
        <ele>1941</ele>
        <time>2024-06-05T20:27:41+00:00</time>
      </trkpt>
      <trkpt lat="45.14237" lon="5.925">
        <ele>1941</ele>
        <time>2024-06-05T20:27:44+00:00</time>
      </trkpt>
      <trkpt lat="45.14239" lon="5.92499">
        <ele>1941</ele>
        <time>2024-06-05T20:27:47+00:00</time>
      </trkpt>
      <trkpt lat="45.14241" lon="5.925">
        <ele>1944</ele>
        <time>2024-06-05T20:27:50+00:00</time>
      </trkpt>
      <trkpt lat="45.14242" lon="5.92502">
        <ele>1944</ele>
        <time>2024-06-05T20:27:53+00:00</time>
      </trkpt>
      <trkpt lat="45.14245" lon="5.92503">
        <ele>1944</ele>
        <time>2024-06-05T20:27:56+00:00</time>
      </trkpt>
      <trkpt lat="45.14246" lon="5.92504">
        <ele>1942</ele>
        <time>2024-06-05T20:27:59+00:00</time>
      </trkpt>
      <trkpt lat="45.14248" lon="5.92507">
        <ele>1944</ele>
        <time>2024-06-05T20:28:02+00:00</time>
      </trkpt>
      <trkpt lat="45.14249" lon="5.92509">
        <ele>1944</ele>
        <time>2024-06-05T20:28:05+00:00</time>
      </trkpt>
      <trkpt lat="45.14253" lon="5.92508">
        <ele>1944</ele>
        <time>2024-06-05T20:28:08+00:00</time>
      </trkpt>
      <trkpt lat="45.14256" lon="5.92509">
        <ele>1944</ele>
        <time>2024-06-05T20:28:11+00:00</time>
      </trkpt>
      <trkpt lat="45.14258" lon="5.92508">
        <ele>1944</ele>
        <time>2024-06-05T20:28:14+00:00</time>
      </trkpt>
      <trkpt lat="45.14259" lon="5.9251">
        <ele>1944</ele>
        <time>2024-06-05T20:28:17+00:00</time>
      </trkpt>
      <trkpt lat="45.14259" lon="5.92512">
        <ele>1944</ele>
        <time>2024-06-05T20:28:20+00:00</time>
      </trkpt>
      <trkpt lat="45.14262" lon="5.92516">
        <ele>1938</ele>
        <time>2024-06-05T20:28:23+00:00</time>
      </trkpt>
      <trkpt lat="45.14265" lon="5.92516">
        <ele>1943</ele>
        <time>2024-06-05T20:28:26+00:00</time>
      </trkpt>
      <trkpt lat="45.14267" lon="5.92518">
        <ele>1943</ele>
        <time>2024-06-05T20:28:29+00:00</time>
      </trkpt>
      <trkpt lat="45.1427" lon="5.92521">
        <ele>1938</ele>
        <time>2024-06-05T20:28:32+00:00</time>
      </trkpt>
      <trkpt lat="45.14272" lon="5.92521">
        <ele>1938</ele>
        <time>2024-06-05T20:28:35+00:00</time>
      </trkpt>
      <trkpt lat="45.14273" lon="5.92519">
        <ele>1938</ele>
        <time>2024-06-05T20:28:38+00:00</time>
      </trkpt>
      <trkpt lat="45.14274" lon="5.92518">
        <ele>1938</ele>
        <time>2024-06-05T20:28:41+00:00</time>
      </trkpt>
      <trkpt lat="45.14276" lon="5.92519">
        <ele>1938</ele>
        <time>2024-06-05T20:28:44+00:00</time>
      </trkpt>
      <trkpt lat="45.14278" lon="5.92519">
        <ele>1938</ele>
        <time>2024-06-05T20:28:47+00:00</time>
      </trkpt>
      <trkpt lat="45.14284" lon="5.92524">
        <ele>1935</ele>
        <time>2024-06-05T20:28:50+00:00</time>
      </trkpt>
      <trkpt lat="45.14289" lon="5.92525">
        <ele>1935</ele>
        <time>2024-06-05T20:28:53+00:00</time>
      </trkpt>
      <trkpt lat="45.14291" lon="5.92525">
        <ele>1932</ele>
        <time>2024-06-05T20:28:56+00:00</time>
      </trkpt>
      <trkpt lat="45.14292" lon="5.92521">
        <ele>1932</ele>
        <time>2024-06-05T20:28:59+00:00</time>
      </trkpt>
      <trkpt lat="45.14291" lon="5.92518">
        <ele>1929</ele>
        <time>2024-06-05T20:29:02+00:00</time>
      </trkpt>
      <trkpt lat="45.14289" lon="5.92518">
        <ele>1934</ele>
        <time>2024-06-05T20:29:05+00:00</time>
      </trkpt>
      <trkpt lat="45.14289" lon="5.92516">
        <ele>1934</ele>
        <time>2024-06-05T20:29:08+00:00</time>
      </trkpt>
      <trkpt lat="45.14288" lon="5.92507">
        <ele>1933</ele>
        <time>2024-06-05T20:29:11+00:00</time>
      </trkpt>
      <trkpt lat="45.14288" lon="5.92503">
        <ele>1933</ele>
        <time>2024-06-05T20:29:14+00:00</time>
      </trkpt>
      <trkpt lat="45.14287" lon="5.92499">
        <ele>1933</ele>
        <time>2024-06-05T20:29:17+00:00</time>
      </trkpt>
      <trkpt lat="45.14291" lon="5.92498">
        <ele>1927</ele>
        <time>2024-06-05T20:29:20+00:00</time>
      </trkpt>
      <trkpt lat="45.14292" lon="5.92495">
        <ele>1927</ele>
        <time>2024-06-05T20:29:23+00:00</time>
      </trkpt>
      <trkpt lat="45.14294" lon="5.92495">
        <ele>1927</ele>
        <time>2024-06-05T20:29:26+00:00</time>
      </trkpt>
      <trkpt lat="45.14297" lon="5.92494">
        <ele>1927</ele>
        <time>2024-06-05T20:29:29+00:00</time>
      </trkpt>
      <trkpt lat="45.14299" lon="5.92495">
        <ele>1927</ele>
        <time>2024-06-05T20:29:32+00:00</time>
      </trkpt>
      <trkpt lat="45.14299" lon="5.92497">
        <ele>1927</ele>
        <time>2024-06-05T20:29:35+00:00</time>
      </trkpt>
      <trkpt lat="45.14304" lon="5.92494">
        <ele>1922</ele>
        <time>2024-06-05T20:29:38+00:00</time>
      </trkpt>
      <trkpt lat="45.14305" lon="5.92492">
        <ele>1922</ele>
        <time>2024-06-05T20:29:41+00:00</time>
      </trkpt>
      <trkpt lat="45.14306" lon="5.92491">
        <ele>1922</ele>
        <time>2024-06-05T20:29:44+00:00</time>
      </trkpt>
      <trkpt lat="45.14308" lon="5.92489">
        <ele>1924</ele>
        <time>2024-06-05T20:29:47+00:00</time>
      </trkpt>
      <trkpt lat="45.14311" lon="5.9249">
        <ele>1923</ele>
        <time>2024-06-05T20:29:50+00:00</time>
      </trkpt>
      <trkpt lat="45.14312" lon="5.92491">
        <ele>1918</ele>
        <time>2024-06-05T20:29:53+00:00</time>
      </trkpt>
      <trkpt lat="45.14314" lon="5.92491">
        <ele>1918</ele>
        <time>2024-06-05T20:29:56+00:00</time>
      </trkpt>
      <trkpt lat="45.14316" lon="5.92493">
        <ele>1918</ele>
        <time>2024-06-05T20:29:59+00:00</time>
      </trkpt>
      <trkpt lat="45.14317" lon="5.92493">
        <ele>1918</ele>
        <time>2024-06-05T20:30:02+00:00</time>
      </trkpt>
      <trkpt lat="45.14322" lon="5.92493">
        <ele>1915</ele>
        <time>2024-06-05T20:30:05+00:00</time>
      </trkpt>
      <trkpt lat="45.14323" lon="5.92493">
        <ele>1915</ele>
        <time>2024-06-05T20:30:08+00:00</time>
      </trkpt>
      <trkpt lat="45.14326" lon="5.92494">
        <ele>1915</ele>
        <time>2024-06-05T20:30:11+00:00</time>
      </trkpt>
      <trkpt lat="45.14328" lon="5.92494">
        <ele>1915</ele>
        <time>2024-06-05T20:30:14+00:00</time>
      </trkpt>
      <trkpt lat="45.14331" lon="5.92494">
        <ele>1914</ele>
        <time>2024-06-05T20:30:17+00:00</time>
      </trkpt>
      <trkpt lat="45.14335" lon="5.92497">
        <ele>1914</ele>
        <time>2024-06-05T20:30:20+00:00</time>
      </trkpt>
      <trkpt lat="45.14337" lon="5.92497">
        <ele>1914</ele>
        <time>2024-06-05T20:30:23+00:00</time>
      </trkpt>
      <trkpt lat="45.1434" lon="5.925">
        <ele>1912</ele>
        <time>2024-06-05T20:30:26+00:00</time>
      </trkpt>
      <trkpt lat="45.14341" lon="5.925">
        <ele>1910</ele>
        <time>2024-06-05T20:30:29+00:00</time>
      </trkpt>
      <trkpt lat="45.14344" lon="5.92502">
        <ele>1910</ele>
        <time>2024-06-05T20:30:32+00:00</time>
      </trkpt>
      <trkpt lat="45.14349" lon="5.92501">
        <ele>1910</ele>
        <time>2024-06-05T20:30:35+00:00</time>
      </trkpt>
      <trkpt lat="45.14351" lon="5.92502">
        <ele>1910</ele>
        <time>2024-06-05T20:30:38+00:00</time>
      </trkpt>
      <trkpt lat="45.14351" lon="5.92507">
        <ele>1910</ele>
        <time>2024-06-05T20:30:41+00:00</time>
      </trkpt>
      <trkpt lat="45.14354" lon="5.92511">
        <ele>1907</ele>
        <time>2024-06-05T20:30:44+00:00</time>
      </trkpt>
      <trkpt lat="45.14354" lon="5.92516">
        <ele>1907</ele>
        <time>2024-06-05T20:30:47+00:00</time>
      </trkpt>
      <trkpt lat="45.14356" lon="5.92523">
        <ele>1904</ele>
        <time>2024-06-05T20:30:50+00:00</time>
      </trkpt>
      <trkpt lat="45.14356" lon="5.92529">
        <ele>1904</ele>
        <time>2024-06-05T20:30:53+00:00</time>
      </trkpt>
      <trkpt lat="45.14364" lon="5.92541">
        <ele>1901</ele>
        <time>2024-06-05T20:30:56+00:00</time>
      </trkpt>
      <trkpt lat="45.14365" lon="5.92543">
        <ele>1901</ele>
        <time>2024-06-05T20:30:59+00:00</time>
      </trkpt>
      <trkpt lat="45.14367" lon="5.92544">
        <ele>1901</ele>
        <time>2024-06-05T20:31:02+00:00</time>
      </trkpt>
      <trkpt lat="45.14368" lon="5.92546">
        <ele>1901</ele>
        <time>2024-06-05T20:31:05+00:00</time>
      </trkpt>
      <trkpt lat="45.14372" lon="5.92551">
        <ele>1900</ele>
        <time>2024-06-05T20:31:08+00:00</time>
      </trkpt>
      <trkpt lat="45.14376" lon="5.92554">
        <ele>1900</ele>
        <time>2024-06-05T20:31:11+00:00</time>
      </trkpt>
      <trkpt lat="45.14379" lon="5.92562">
        <ele>1900</ele>
        <time>2024-06-05T20:31:14+00:00</time>
      </trkpt>
      <trkpt lat="45.14379" lon="5.92563">
        <ele>1900</ele>
        <time>2024-06-05T20:31:17+00:00</time>
      </trkpt>
      <trkpt lat="45.14381" lon="5.92565">
        <ele>1898</ele>
        <time>2024-06-05T20:31:20+00:00</time>
      </trkpt>
      <trkpt lat="45.14382" lon="5.92568">
        <ele>1898</ele>
        <time>2024-06-05T20:31:23+00:00</time>
      </trkpt>
      <trkpt lat="45.14383" lon="5.92578">
        <ele>1898</ele>
        <time>2024-06-05T20:31:26+00:00</time>
      </trkpt>
      <trkpt lat="45.14384" lon="5.92581">
        <ele>1898</ele>
        <time>2024-06-05T20:31:29+00:00</time>
      </trkpt>
      <trkpt lat="45.14391" lon="5.92588">
        <ele>1892</ele>
        <time>2024-06-05T20:31:32+00:00</time>
      </trkpt>
      <trkpt lat="45.14394" lon="5.92588">
        <ele>1892</ele>
        <time>2024-06-05T20:31:35+00:00</time>
      </trkpt>
      <trkpt lat="45.14395" lon="5.92594">
        <ele>1894</ele>
        <time>2024-06-05T20:31:38+00:00</time>
      </trkpt>
      <trkpt lat="45.14396" lon="5.92595">
        <ele>1894</ele>
        <time>2024-06-05T20:31:41+00:00</time>
      </trkpt>
      <trkpt lat="45.14396" lon="5.92596">
        <ele>1894</ele>
        <time>2024-06-05T20:31:44+00:00</time>
      </trkpt>
      <trkpt lat="45.14397" lon="5.92595">
        <ele>1894</ele>
        <time>2024-06-05T20:31:47+00:00</time>
      </trkpt>
      <trkpt lat="45.14398" lon="5.92596">
        <ele>1894</ele>
        <time>2024-06-05T20:31:50+00:00</time>
      </trkpt>
      <trkpt lat="45.14398" lon="5.92598">
        <ele>1894</ele>
        <time>2024-06-05T20:31:53+00:00</time>
      </trkpt>
      <trkpt lat="45.14399" lon="5.92603">
        <ele>1897</ele>
        <time>2024-06-05T20:31:56+00:00</time>
      </trkpt>
      <trkpt lat="45.144" lon="5.92605">
        <ele>1892</ele>
        <time>2024-06-05T20:31:59+00:00</time>
      </trkpt>
      <trkpt lat="45.14401" lon="5.92607">
        <ele>1892</ele>
        <time>2024-06-05T20:32:02+00:00</time>
      </trkpt>
      <trkpt lat="45.14404" lon="5.9261">
        <ele>1892</ele>
        <time>2024-06-05T20:32:05+00:00</time>
      </trkpt>
      <trkpt lat="45.14407" lon="5.92615">
        <ele>1899</ele>
        <time>2024-06-05T20:32:08+00:00</time>
      </trkpt>
      <trkpt lat="45.14407" lon="5.92616">
        <ele>1899</ele>
        <time>2024-06-05T20:32:11+00:00</time>
      </trkpt>
      <trkpt lat="45.14408" lon="5.92618">
        <ele>1899</ele>
        <time>2024-06-05T20:32:14+00:00</time>
      </trkpt>
      <trkpt lat="45.1441" lon="5.92619">
        <ele>1899</ele>
        <time>2024-06-05T20:32:17+00:00</time>
      </trkpt>
      <trkpt lat="45.14412" lon="5.92622">
        <ele>1898</ele>
        <time>2024-06-05T20:32:20+00:00</time>
      </trkpt>
      <trkpt lat="45.14415" lon="5.92623">
        <ele>1898</ele>
        <time>2024-06-05T20:32:23+00:00</time>
      </trkpt>
      <trkpt lat="45.14416" lon="5.92624">
        <ele>1878</ele>
        <time>2024-06-05T20:32:26+00:00</time>
      </trkpt>
      <trkpt lat="45.14415" lon="5.92626">
        <ele>1898</ele>
        <time>2024-06-05T20:32:29+00:00</time>
      </trkpt>
      <trkpt lat="45.14416" lon="5.92627">
        <ele>1898</ele>
        <time>2024-06-05T20:32:32+00:00</time>
      </trkpt>
      <trkpt lat="45.1442" lon="5.92634">
        <ele>1879</ele>
        <time>2024-06-05T20:32:35+00:00</time>
      </trkpt>
      <trkpt lat="45.14421" lon="5.92637">
        <ele>1879</ele>
        <time>2024-06-05T20:32:38+00:00</time>
      </trkpt>
      <trkpt lat="45.14421" lon="5.9264">
        <ele>1879</ele>
        <time>2024-06-05T20:32:41+00:00</time>
      </trkpt>
      <trkpt lat="45.14421" lon="5.92641">
        <ele>1888</ele>
        <time>2024-06-05T20:32:44+00:00</time>
      </trkpt>
      <trkpt lat="45.14425" lon="5.92644">
        <ele>1888</ele>
        <time>2024-06-05T20:32:47+00:00</time>
      </trkpt>
      <trkpt lat="45.14431" lon="5.92647">
        <ele>1865</ele>
        <time>2024-06-05T20:32:50+00:00</time>
      </trkpt>
      <trkpt lat="45.14435" lon="5.92646">
        <ele>1865</ele>
        <time>2024-06-05T20:32:53+00:00</time>
      </trkpt>
      <trkpt lat="45.14441" lon="5.92647">
        <ele>1862</ele>
        <time>2024-06-05T20:32:56+00:00</time>
      </trkpt>
      <trkpt lat="45.14443" lon="5.92646">
        <ele>1862</ele>
        <time>2024-06-05T20:32:59+00:00</time>
      </trkpt>
      <trkpt lat="45.14453" lon="5.92646">
        <ele>1859</ele>
        <time>2024-06-05T20:33:02+00:00</time>
      </trkpt>
      <trkpt lat="45.14454" lon="5.92647">
        <ele>1859</ele>
        <time>2024-06-05T20:33:05+00:00</time>
      </trkpt>
      <trkpt lat="45.14458" lon="5.92648">
        <ele>1859</ele>
        <time>2024-06-05T20:33:08+00:00</time>
      </trkpt>
      <trkpt lat="45.14462" lon="5.92648">
        <ele>1855</ele>
        <time>2024-06-05T20:33:11+00:00</time>
      </trkpt>
      <trkpt lat="45.14464" lon="5.92649">
        <ele>1855</ele>
        <time>2024-06-05T20:33:14+00:00</time>
      </trkpt>
      <trkpt lat="45.14466" lon="5.9265">
        <ele>1859</ele>
        <time>2024-06-05T20:33:17+00:00</time>
      </trkpt>
      <trkpt lat="45.14468" lon="5.92653">
        <ele>1859</ele>
        <time>2024-06-05T20:33:20+00:00</time>
      </trkpt>
      <trkpt lat="45.14474" lon="5.92657">
        <ele>1855</ele>
        <time>2024-06-05T20:33:23+00:00</time>
      </trkpt>
      <trkpt lat="45.14475" lon="5.92657">
        <ele>1855</ele>
        <time>2024-06-05T20:33:26+00:00</time>
      </trkpt>
      <trkpt lat="45.14478" lon="5.92659">
        <ele>1855</ele>
        <time>2024-06-05T20:33:29+00:00</time>
      </trkpt>
      <trkpt lat="45.14481" lon="5.92662">
        <ele>1852</ele>
        <time>2024-06-05T20:33:32+00:00</time>
      </trkpt>
      <trkpt lat="45.14484" lon="5.92662">
        <ele>1852</ele>
        <time>2024-06-05T20:33:35+00:00</time>
      </trkpt>
      <trkpt lat="45.14486" lon="5.92664">
        <ele>1852</ele>
        <time>2024-06-05T20:33:38+00:00</time>
      </trkpt>
      <trkpt lat="45.14496" lon="5.92673">
        <ele>1852</ele>
        <time>2024-06-05T20:33:41+00:00</time>
      </trkpt>
      <trkpt lat="45.14498" lon="5.92674">
        <ele>1852</ele>
        <time>2024-06-05T20:33:44+00:00</time>
      </trkpt>
      <trkpt lat="45.14499" lon="5.92674">
        <ele>1852</ele>
        <time>2024-06-05T20:33:47+00:00</time>
      </trkpt>
      <trkpt lat="45.14501" lon="5.92675">
        <ele>1846</ele>
        <time>2024-06-05T20:33:50+00:00</time>
      </trkpt>
      <trkpt lat="45.14508" lon="5.92685">
        <ele>1850</ele>
        <time>2024-06-05T20:33:53+00:00</time>
      </trkpt>
      <trkpt lat="45.1451" lon="5.9269">
        <ele>1839</ele>
        <time>2024-06-05T20:33:56+00:00</time>
      </trkpt>
      <trkpt lat="45.14514" lon="5.92691">
        <ele>1843</ele>
        <time>2024-06-05T20:33:59+00:00</time>
      </trkpt>
      <trkpt lat="45.14516" lon="5.92695">
        <ele>1843</ele>
        <time>2024-06-05T20:34:02+00:00</time>
      </trkpt>
      <trkpt lat="45.14517" lon="5.92696">
        <ele>1843</ele>
        <time>2024-06-05T20:34:05+00:00</time>
      </trkpt>
      <trkpt lat="45.14525" lon="5.92696">
        <ele>1838</ele>
        <time>2024-06-05T20:34:08+00:00</time>
      </trkpt>
      <trkpt lat="45.14529" lon="5.92697">
        <ele>1838</ele>
        <time>2024-06-05T20:34:11+00:00</time>
      </trkpt>
      <trkpt lat="45.14533" lon="5.92696">
        <ele>1835</ele>
        <time>2024-06-05T20:34:14+00:00</time>
      </trkpt>
      <trkpt lat="45.14536" lon="5.92697">
        <ele>1835</ele>
        <time>2024-06-05T20:34:17+00:00</time>
      </trkpt>
      <trkpt lat="45.14539" lon="5.927">
        <ele>1840</ele>
        <time>2024-06-05T20:34:20+00:00</time>
      </trkpt>
      <trkpt lat="45.14542" lon="5.92702">
        <ele>1835</ele>
        <time>2024-06-05T20:34:23+00:00</time>
      </trkpt>
      <trkpt lat="45.14545" lon="5.92707">
        <ele>1837</ele>
        <time>2024-06-05T20:34:26+00:00</time>
      </trkpt>
      <trkpt lat="45.14546" lon="5.92711">
        <ele>1838</ele>
        <time>2024-06-05T20:34:29+00:00</time>
      </trkpt>
      <trkpt lat="45.1455" lon="5.92715">
        <ele>1838</ele>
        <time>2024-06-05T20:34:32+00:00</time>
      </trkpt>
      <trkpt lat="45.14551" lon="5.92719">
        <ele>1834</ele>
        <time>2024-06-05T20:34:35+00:00</time>
      </trkpt>
      <trkpt lat="45.14555" lon="5.92728">
        <ele>1836</ele>
        <time>2024-06-05T20:34:38+00:00</time>
      </trkpt>
      <trkpt lat="45.14555" lon="5.9273">
        <ele>1838</ele>
        <time>2024-06-05T20:34:41+00:00</time>
      </trkpt>
      <trkpt lat="45.14559" lon="5.92736">
        <ele>1840</ele>
        <time>2024-06-05T20:34:44+00:00</time>
      </trkpt>
      <trkpt lat="45.14561" lon="5.92741">
        <ele>1837</ele>
        <time>2024-06-05T20:34:47+00:00</time>
      </trkpt>
      <trkpt lat="45.14563" lon="5.92746">
        <ele>1837</ele>
        <time>2024-06-05T20:34:50+00:00</time>
      </trkpt>
      <trkpt lat="45.14567" lon="5.92751">
        <ele>1839</ele>
        <time>2024-06-05T20:34:53+00:00</time>
      </trkpt>
      <trkpt lat="45.14567" lon="5.92751">
        <ele>1839</ele>
        <time>2024-06-05T20:34:56+00:00</time>
      </trkpt>
      <trkpt lat="45.14569" lon="5.92753">
        <ele>1839</ele>
        <time>2024-06-05T20:34:59+00:00</time>
      </trkpt>
      <trkpt lat="45.1457" lon="5.92759">
        <ele>1839</ele>
        <time>2024-06-05T20:35:02+00:00</time>
      </trkpt>
      <trkpt lat="45.14571" lon="5.92761">
        <ele>1835</ele>
        <time>2024-06-05T20:35:05+00:00</time>
      </trkpt>
      <trkpt lat="45.14577" lon="5.92777">
        <ele>1840</ele>
        <time>2024-06-05T20:35:08+00:00</time>
      </trkpt>
      <trkpt lat="45.14578" lon="5.92778">
        <ele>1840</ele>
        <time>2024-06-05T20:35:11+00:00</time>
      </trkpt>
      <trkpt lat="45.14584" lon="5.92787">
        <ele>1839</ele>
        <time>2024-06-05T20:35:14+00:00</time>
      </trkpt>
      <trkpt lat="45.14592" lon="5.92792">
        <ele>1840</ele>
        <time>2024-06-05T20:35:17+00:00</time>
      </trkpt>
      <trkpt lat="45.14595" lon="5.92797">
        <ele>1840</ele>
        <time>2024-06-05T20:35:20+00:00</time>
      </trkpt>
      <trkpt lat="45.14598" lon="5.92801">
        <ele>1842</ele>
        <time>2024-06-05T20:35:23+00:00</time>
      </trkpt>
      <trkpt lat="45.14599" lon="5.92805">
        <ele>1842</ele>
        <time>2024-06-05T20:35:26+00:00</time>
      </trkpt>
      <trkpt lat="45.14605" lon="5.92811">
        <ele>1839</ele>
        <time>2024-06-05T20:35:29+00:00</time>
      </trkpt>
      <trkpt lat="45.14605" lon="5.92814">
        <ele>1839</ele>
        <time>2024-06-05T20:35:32+00:00</time>
      </trkpt>
      <trkpt lat="45.14611" lon="5.92819">
        <ele>1840</ele>
        <time>2024-06-05T20:35:35+00:00</time>
      </trkpt>
      <trkpt lat="45.14612" lon="5.92821">
        <ele>1841</ele>
        <time>2024-06-05T20:35:38+00:00</time>
      </trkpt>
      <trkpt lat="45.14613" lon="5.92822">
        <ele>1841</ele>
        <time>2024-06-05T20:35:41+00:00</time>
      </trkpt>
      <trkpt lat="45.1462" lon="5.92832">
        <ele>1841</ele>
        <time>2024-06-05T20:35:44+00:00</time>
      </trkpt>
      <trkpt lat="45.14623" lon="5.92833">
        <ele>1841</ele>
        <time>2024-06-05T20:35:47+00:00</time>
      </trkpt>
      <trkpt lat="45.14627" lon="5.9284">
        <ele>1841</ele>
        <time>2024-06-05T20:35:50+00:00</time>
      </trkpt>
      <trkpt lat="45.1463" lon="5.92847">
        <ele>1839</ele>
        <time>2024-06-05T20:35:53+00:00</time>
      </trkpt>
      <trkpt lat="45.1463" lon="5.9285">
        <ele>1839</ele>
        <time>2024-06-05T20:35:56+00:00</time>
      </trkpt>
      <trkpt lat="45.14632" lon="5.92854">
        <ele>1849</ele>
        <time>2024-06-05T20:35:59+00:00</time>
      </trkpt>
      <trkpt lat="45.14634" lon="5.92857">
        <ele>1849</ele>
        <time>2024-06-05T20:36:02+00:00</time>
      </trkpt>
      <trkpt lat="45.14637" lon="5.92858">
        <ele>1849</ele>
        <time>2024-06-05T20:36:05+00:00</time>
      </trkpt>
      <trkpt lat="45.14647" lon="5.92868">
        <ele>1851</ele>
        <time>2024-06-05T20:36:08+00:00</time>
      </trkpt>
      <trkpt lat="45.14649" lon="5.92868">
        <ele>1851</ele>
        <time>2024-06-05T20:36:11+00:00</time>
      </trkpt>
      <trkpt lat="45.14651" lon="5.9287">
        <ele>1855</ele>
        <time>2024-06-05T20:36:14+00:00</time>
      </trkpt>
      <trkpt lat="45.1465" lon="5.92875">
        <ele>1858</ele>
        <time>2024-06-05T20:36:17+00:00</time>
      </trkpt>
      <trkpt lat="45.14651" lon="5.92879">
        <ele>1855</ele>
        <time>2024-06-05T20:36:20+00:00</time>
      </trkpt>
      <trkpt lat="45.14659" lon="5.92886">
        <ele>1856</ele>
        <time>2024-06-05T20:36:23+00:00</time>
      </trkpt>
      <trkpt lat="45.1466" lon="5.92888">
        <ele>1866</ele>
        <time>2024-06-05T20:36:26+00:00</time>
      </trkpt>
      <trkpt lat="45.14662" lon="5.92889">
        <ele>1859</ele>
        <time>2024-06-05T20:36:29+00:00</time>
      </trkpt>
      <trkpt lat="45.14664" lon="5.92889">
        <ele>1859</ele>
        <time>2024-06-05T20:36:32+00:00</time>
      </trkpt>
      <trkpt lat="45.14669" lon="5.9289">
        <ele>1862</ele>
        <time>2024-06-05T20:36:35+00:00</time>
      </trkpt>
      <trkpt lat="45.14678" lon="5.92895">
        <ele>1861</ele>
        <time>2024-06-05T20:36:38+00:00</time>
      </trkpt>
      <trkpt lat="45.14681" lon="5.92899">
        <ele>1867</ele>
        <time>2024-06-05T20:36:41+00:00</time>
      </trkpt>
      <trkpt lat="45.14691" lon="5.92904">
        <ele>1874</ele>
        <time>2024-06-05T20:36:44+00:00</time>
      </trkpt>
      <trkpt lat="45.14699" lon="5.92912">
        <ele>1874</ele>
        <time>2024-06-05T20:36:47+00:00</time>
      </trkpt>
      <trkpt lat="45.14703" lon="5.92915">
        <ele>1876</ele>
        <time>2024-06-05T20:36:50+00:00</time>
      </trkpt>
      <trkpt lat="45.14706" lon="5.92914">
        <ele>1876</ele>
        <time>2024-06-05T20:36:53+00:00</time>
      </trkpt>
      <trkpt lat="45.14706" lon="5.92908">
        <ele>1877</ele>
        <time>2024-06-05T20:36:56+00:00</time>
      </trkpt>
      <trkpt lat="45.14707" lon="5.92906">
        <ele>1877</ele>
        <time>2024-06-05T20:36:59+00:00</time>
      </trkpt>
      <trkpt lat="45.14708" lon="5.92906">
        <ele>1877</ele>
        <time>2024-06-05T20:37:02+00:00</time>
      </trkpt>
      <trkpt lat="45.14709" lon="5.92907">
        <ele>1877</ele>
        <time>2024-06-05T20:37:05+00:00</time>
      </trkpt>
      <trkpt lat="45.1471" lon="5.92907">
        <ele>1880</ele>
        <time>2024-06-05T20:37:08+00:00</time>
      </trkpt>
      <trkpt lat="45.14712" lon="5.92906">
        <ele>1880</ele>
        <time>2024-06-05T20:37:11+00:00</time>
      </trkpt>
      <trkpt lat="45.14712" lon="5.92904">
        <ele>1880</ele>
        <time>2024-06-05T20:37:14+00:00</time>
      </trkpt>
      <trkpt lat="45.14718" lon="5.92908">
        <ele>1880</ele>
        <time>2024-06-05T20:37:17+00:00</time>
      </trkpt>
      <trkpt lat="45.14721" lon="5.92907">
        <ele>1884</ele>
        <time>2024-06-05T20:37:20+00:00</time>
      </trkpt>
      <trkpt lat="45.14722" lon="5.92912">
        <ele>1880</ele>
        <time>2024-06-05T20:37:23+00:00</time>
      </trkpt>
      <trkpt lat="45.14724" lon="5.92912">
        <ele>1880</ele>
        <time>2024-06-05T20:37:26+00:00</time>
      </trkpt>
      <trkpt lat="45.14726" lon="5.92902">
        <ele>1884</ele>
        <time>2024-06-05T20:37:29+00:00</time>
      </trkpt>
      <trkpt lat="45.14727" lon="5.92902">
        <ele>1884</ele>
        <time>2024-06-05T20:37:32+00:00</time>
      </trkpt>
      <trkpt lat="45.14728" lon="5.92903">
        <ele>1884</ele>
        <time>2024-06-05T20:37:35+00:00</time>
      </trkpt>
      <trkpt lat="45.14729" lon="5.92907">
        <ele>1884</ele>
        <time>2024-06-05T20:37:38+00:00</time>
      </trkpt>
      <trkpt lat="45.14731" lon="5.92911">
        <ele>1884</ele>
        <time>2024-06-05T20:37:41+00:00</time>
      </trkpt>
      <trkpt lat="45.14733" lon="5.9291">
        <ele>1884</ele>
        <time>2024-06-05T20:37:44+00:00</time>
      </trkpt>
      <trkpt lat="45.14735" lon="5.9291">
        <ele>1884</ele>
        <time>2024-06-05T20:37:47+00:00</time>
      </trkpt>
      <trkpt lat="45.14741" lon="5.92914">
        <ele>1888</ele>
        <time>2024-06-05T20:37:50+00:00</time>
      </trkpt>
      <trkpt lat="45.14744" lon="5.92919">
        <ele>1888</ele>
        <time>2024-06-05T20:37:53+00:00</time>
      </trkpt>
      <trkpt lat="45.14746" lon="5.92927">
        <ele>1887</ele>
        <time>2024-06-05T20:37:56+00:00</time>
      </trkpt>
      <trkpt lat="45.14749" lon="5.92933">
        <ele>1886</ele>
        <time>2024-06-05T20:37:59+00:00</time>
      </trkpt>
      <trkpt lat="45.14751" lon="5.92936">
        <ele>1889</ele>
        <time>2024-06-05T20:38:02+00:00</time>
      </trkpt>
      <trkpt lat="45.14751" lon="5.92939">
        <ele>1889</ele>
        <time>2024-06-05T20:38:05+00:00</time>
      </trkpt>
      <trkpt lat="45.14752" lon="5.92941">
        <ele>1888</ele>
        <time>2024-06-05T20:38:08+00:00</time>
      </trkpt>
      <trkpt lat="45.14754" lon="5.92942">
        <ele>1888</ele>
        <time>2024-06-05T20:38:11+00:00</time>
      </trkpt>
      <trkpt lat="45.14756" lon="5.92944">
        <ele>1888</ele>
        <time>2024-06-05T20:38:14+00:00</time>
      </trkpt>
      <trkpt lat="45.14756" lon="5.92947">
        <ele>1888</ele>
        <time>2024-06-05T20:38:17+00:00</time>
      </trkpt>
      <trkpt lat="45.14756" lon="5.92948">
        <ele>1888</ele>
        <time>2024-06-05T20:38:20+00:00</time>
      </trkpt>
      <trkpt lat="45.14758" lon="5.92948">
        <ele>1888</ele>
        <time>2024-06-05T20:38:23+00:00</time>
      </trkpt>
      <trkpt lat="45.1476" lon="5.92952">
        <ele>1889</ele>
        <time>2024-06-05T20:38:26+00:00</time>
      </trkpt>
      <trkpt lat="45.14761" lon="5.92955">
        <ele>1889</ele>
        <time>2024-06-05T20:38:29+00:00</time>
      </trkpt>
      <trkpt lat="45.14763" lon="5.92956">
        <ele>1889</ele>
        <time>2024-06-05T20:38:32+00:00</time>
      </trkpt>
      <trkpt lat="45.14765" lon="5.92958">
        <ele>1889</ele>
        <time>2024-06-05T20:38:35+00:00</time>
      </trkpt>
      <trkpt lat="45.14769" lon="5.92962">
        <ele>1888</ele>
        <time>2024-06-05T20:38:38+00:00</time>
      </trkpt>
      <trkpt lat="45.14772" lon="5.92966">
        <ele>1890</ele>
        <time>2024-06-05T20:38:41+00:00</time>
      </trkpt>
      <trkpt lat="45.14773" lon="5.92971">
        <ele>1889</ele>
        <time>2024-06-05T20:38:44+00:00</time>
      </trkpt>
      <trkpt lat="45.14775" lon="5.92975">
        <ele>1889</ele>
        <time>2024-06-05T20:38:47+00:00</time>
      </trkpt>
      <trkpt lat="45.14776" lon="5.92979">
        <ele>1889</ele>
        <time>2024-06-05T20:38:50+00:00</time>
      </trkpt>
      <trkpt lat="45.1478" lon="5.92984">
        <ele>1888</ele>
        <time>2024-06-05T20:38:53+00:00</time>
      </trkpt>
      <trkpt lat="45.14781" lon="5.9299">
        <ele>1889</ele>
        <time>2024-06-05T20:38:56+00:00</time>
      </trkpt>
      <trkpt lat="45.14782" lon="5.9299">
        <ele>1887</ele>
        <time>2024-06-05T20:38:59+00:00</time>
      </trkpt>
      <trkpt lat="45.14782" lon="5.92992">
        <ele>1887</ele>
        <time>2024-06-05T20:39:02+00:00</time>
      </trkpt>
      <trkpt lat="45.14786" lon="5.93">
        <ele>1885</ele>
        <time>2024-06-05T20:39:05+00:00</time>
      </trkpt>
      <trkpt lat="45.14791" lon="5.93017">
        <ele>1890</ele>
        <time>2024-06-05T20:39:08+00:00</time>
      </trkpt>
      <trkpt lat="45.14795" lon="5.93021">
        <ele>1891</ele>
        <time>2024-06-05T20:39:11+00:00</time>
      </trkpt>
      <trkpt lat="45.14796" lon="5.93025">
        <ele>1891</ele>
        <time>2024-06-05T20:39:14+00:00</time>
      </trkpt>
      <trkpt lat="45.14799" lon="5.93026">
        <ele>1891</ele>
        <time>2024-06-05T20:39:17+00:00</time>
      </trkpt>
      <trkpt lat="45.14799" lon="5.93032">
        <ele>1889</ele>
        <time>2024-06-05T20:39:20+00:00</time>
      </trkpt>
      <trkpt lat="45.14803" lon="5.93039">
        <ele>1896</ele>
        <time>2024-06-05T20:39:23+00:00</time>
      </trkpt>
      <trkpt lat="45.14805" lon="5.9304">
        <ele>1896</ele>
        <time>2024-06-05T20:39:26+00:00</time>
      </trkpt>
      <trkpt lat="45.14807" lon="5.93045">
        <ele>1896</ele>
        <time>2024-06-05T20:39:29+00:00</time>
      </trkpt>
      <trkpt lat="45.14808" lon="5.93049">
        <ele>1896</ele>
        <time>2024-06-05T20:39:32+00:00</time>
      </trkpt>
      <trkpt lat="45.14811" lon="5.93057">
        <ele>1900</ele>
        <time>2024-06-05T20:39:35+00:00</time>
      </trkpt>
      <trkpt lat="45.14816" lon="5.93066">
        <ele>1896</ele>
        <time>2024-06-05T20:39:38+00:00</time>
      </trkpt>
      <trkpt lat="45.14818" lon="5.93068">
        <ele>1896</ele>
        <time>2024-06-05T20:39:41+00:00</time>
      </trkpt>
      <trkpt lat="45.14819" lon="5.93071">
        <ele>1894</ele>
        <time>2024-06-05T20:39:44+00:00</time>
      </trkpt>
      <trkpt lat="45.14819" lon="5.93071">
        <ele>1894</ele>
        <time>2024-06-05T20:39:47+00:00</time>
      </trkpt>
      <trkpt lat="45.14819" lon="5.93071">
        <ele>1894</ele>
        <time>2024-06-05T20:39:50+00:00</time>
      </trkpt>
      <trkpt lat="45.14824" lon="5.93075">
        <ele>1901</ele>
        <time>2024-06-05T20:39:53+00:00</time>
      </trkpt>
      <trkpt lat="45.14829" lon="5.9308">
        <ele>1899</ele>
        <time>2024-06-05T20:39:56+00:00</time>
      </trkpt>
      <trkpt lat="45.1483" lon="5.93083">
        <ele>1906</ele>
        <time>2024-06-05T20:39:59+00:00</time>
      </trkpt>
      <trkpt lat="45.14832" lon="5.93085">
        <ele>1906</ele>
        <time>2024-06-05T20:40:02+00:00</time>
      </trkpt>
      <trkpt lat="45.14834" lon="5.93085">
        <ele>1906</ele>
        <time>2024-06-05T20:40:05+00:00</time>
      </trkpt>
      <trkpt lat="45.14835" lon="5.93088">
        <ele>1906</ele>
        <time>2024-06-05T20:40:08+00:00</time>
      </trkpt>
      <trkpt lat="45.14836" lon="5.93089">
        <ele>1906</ele>
        <time>2024-06-05T20:40:11+00:00</time>
      </trkpt>
      <trkpt lat="45.14837" lon="5.93091">
        <ele>1903</ele>
        <time>2024-06-05T20:40:14+00:00</time>
      </trkpt>
      <trkpt lat="45.14839" lon="5.93092">
        <ele>1903</ele>
        <time>2024-06-05T20:40:17+00:00</time>
      </trkpt>
      <trkpt lat="45.14839" lon="5.93094">
        <ele>1903</ele>
        <time>2024-06-05T20:40:20+00:00</time>
      </trkpt>
      <trkpt lat="45.14839" lon="5.93096">
        <ele>1903</ele>
        <time>2024-06-05T20:40:23+00:00</time>
      </trkpt>
      <trkpt lat="45.1484" lon="5.93097">
        <ele>1903</ele>
        <time>2024-06-05T20:40:26+00:00</time>
      </trkpt>
      <trkpt lat="45.14841" lon="5.93099">
        <ele>1914</ele>
        <time>2024-06-05T20:40:29+00:00</time>
      </trkpt>
      <trkpt lat="45.14842" lon="5.931">
        <ele>1911</ele>
        <time>2024-06-05T20:40:32+00:00</time>
      </trkpt>
      <trkpt lat="45.14842" lon="5.93107">
        <ele>1911</ele>
        <time>2024-06-05T20:40:35+00:00</time>
      </trkpt>
      <trkpt lat="45.14843" lon="5.93108">
        <ele>1911</ele>
        <time>2024-06-05T20:40:38+00:00</time>
      </trkpt>
      <trkpt lat="45.14843" lon="5.93111">
        <ele>1911</ele>
        <time>2024-06-05T20:40:41+00:00</time>
      </trkpt>
      <trkpt lat="45.14845" lon="5.9312">
        <ele>1913</ele>
        <time>2024-06-05T20:40:44+00:00</time>
      </trkpt>
      <trkpt lat="45.14844" lon="5.93125">
        <ele>1913</ele>
        <time>2024-06-05T20:40:47+00:00</time>
      </trkpt>
      <trkpt lat="45.14842" lon="5.93132">
        <ele>1917</ele>
        <time>2024-06-05T20:40:50+00:00</time>
      </trkpt>
      <trkpt lat="45.14841" lon="5.93138">
        <ele>1917</ele>
        <time>2024-06-05T20:40:53+00:00</time>
      </trkpt>
      <trkpt lat="45.14837" lon="5.93144">
        <ele>1918</ele>
        <time>2024-06-05T20:40:56+00:00</time>
      </trkpt>
      <trkpt lat="45.14836" lon="5.9315">
        <ele>1922</ele>
        <time>2024-06-05T20:40:59+00:00</time>
      </trkpt>
      <trkpt lat="45.14834" lon="5.93156">
        <ele>1922</ele>
        <time>2024-06-05T20:41:02+00:00</time>
      </trkpt>
      <trkpt lat="45.14833" lon="5.93158">
        <ele>1922</ele>
        <time>2024-06-05T20:41:05+00:00</time>
      </trkpt>
      <trkpt lat="45.14833" lon="5.9316">
        <ele>1922</ele>
        <time>2024-06-05T20:41:08+00:00</time>
      </trkpt>
      <trkpt lat="45.14835" lon="5.93161">
        <ele>1928</ele>
        <time>2024-06-05T20:41:11+00:00</time>
      </trkpt>
      <trkpt lat="45.14847" lon="5.93158">
        <ele>1926</ele>
        <time>2024-06-05T20:41:14+00:00</time>
      </trkpt>
      <trkpt lat="45.14849" lon="5.93159">
        <ele>1926</ele>
        <time>2024-06-05T20:41:17+00:00</time>
      </trkpt>
      <trkpt lat="45.14859" lon="5.93151">
        <ele>1931</ele>
        <time>2024-06-05T20:41:20+00:00</time>
      </trkpt>
      <trkpt lat="45.14862" lon="5.9315">
        <ele>1932</ele>
        <time>2024-06-05T20:41:23+00:00</time>
      </trkpt>
      <trkpt lat="45.14864" lon="5.93148">
        <ele>1932</ele>
        <time>2024-06-05T20:41:26+00:00</time>
      </trkpt>
      <trkpt lat="45.1487" lon="5.93143">
        <ele>1938</ele>
        <time>2024-06-05T20:41:29+00:00</time>
      </trkpt>
      <trkpt lat="45.14872" lon="5.93137">
        <ele>1938</ele>
        <time>2024-06-05T20:41:32+00:00</time>
      </trkpt>
      <trkpt lat="45.14873" lon="5.93128">
        <ele>1939</ele>
        <time>2024-06-05T20:41:35+00:00</time>
      </trkpt>
      <trkpt lat="45.14873" lon="5.93127">
        <ele>1939</ele>
        <time>2024-06-05T20:41:38+00:00</time>
      </trkpt>
      <trkpt lat="45.14874" lon="5.93128">
        <ele>1939</ele>
        <time>2024-06-05T20:41:41+00:00</time>
      </trkpt>
      <trkpt lat="45.14875" lon="5.9313">
        <ele>1938</ele>
        <time>2024-06-05T20:41:44+00:00</time>
      </trkpt>
      <trkpt lat="45.14877" lon="5.93132">
        <ele>1938</ele>
        <time>2024-06-05T20:41:47+00:00</time>
      </trkpt>
      <trkpt lat="45.1488" lon="5.93143">
        <ele>1945</ele>
        <time>2024-06-05T20:41:50+00:00</time>
      </trkpt>
      <trkpt lat="45.14884" lon="5.93152">
        <ele>1945</ele>
        <time>2024-06-05T20:41:53+00:00</time>
      </trkpt>
      <trkpt lat="45.14886" lon="5.93154">
        <ele>1945</ele>
        <time>2024-06-05T20:41:56+00:00</time>
      </trkpt>
      <trkpt lat="45.14886" lon="5.93159">
        <ele>1945</ele>
        <time>2024-06-05T20:41:59+00:00</time>
      </trkpt>
      <trkpt lat="45.14888" lon="5.93162">
        <ele>1950</ele>
        <time>2024-06-05T20:42:02+00:00</time>
      </trkpt>
      <trkpt lat="45.14888" lon="5.93164">
        <ele>1950</ele>
        <time>2024-06-05T20:42:05+00:00</time>
      </trkpt>
      <trkpt lat="45.14888" lon="5.93168">
        <ele>1950</ele>
        <time>2024-06-05T20:42:08+00:00</time>
      </trkpt>
      <trkpt lat="45.1489" lon="5.93169">
        <ele>1950</ele>
        <time>2024-06-05T20:42:11+00:00</time>
      </trkpt>
      <trkpt lat="45.14896" lon="5.93164">
        <ele>1952</ele>
        <time>2024-06-05T20:42:14+00:00</time>
      </trkpt>
      <trkpt lat="45.14896" lon="5.93156">
        <ele>1952</ele>
        <time>2024-06-05T20:42:17+00:00</time>
      </trkpt>
      <trkpt lat="45.14897" lon="5.93151">
        <ele>1952</ele>
        <time>2024-06-05T20:42:20+00:00</time>
      </trkpt>
      <trkpt lat="45.14901" lon="5.93149">
        <ele>1961</ele>
        <time>2024-06-05T20:42:23+00:00</time>
      </trkpt>
      <trkpt lat="45.14902" lon="5.93154">
        <ele>1959</ele>
        <time>2024-06-05T20:42:26+00:00</time>
      </trkpt>
      <trkpt lat="45.14903" lon="5.93163">
        <ele>1959</ele>
        <time>2024-06-05T20:42:29+00:00</time>
      </trkpt>
      <trkpt lat="45.14903" lon="5.93166">
        <ele>1959</ele>
        <time>2024-06-05T20:42:32+00:00</time>
      </trkpt>
      <trkpt lat="45.14904" lon="5.93169">
        <ele>1959</ele>
        <time>2024-06-05T20:42:35+00:00</time>
      </trkpt>
      <trkpt lat="45.14905" lon="5.93178">
        <ele>1959</ele>
        <time>2024-06-05T20:42:38+00:00</time>
      </trkpt>
      <trkpt lat="45.14906" lon="5.93182">
        <ele>1960</ele>
        <time>2024-06-05T20:42:41+00:00</time>
      </trkpt>
      <trkpt lat="45.14906" lon="5.93186">
        <ele>1960</ele>
        <time>2024-06-05T20:42:44+00:00</time>
      </trkpt>
      <trkpt lat="45.14905" lon="5.93187">
        <ele>1960</ele>
        <time>2024-06-05T20:42:47+00:00</time>
      </trkpt>
      <trkpt lat="45.14905" lon="5.93191">
        <ele>1965</ele>
        <time>2024-06-05T20:42:50+00:00</time>
      </trkpt>
      <trkpt lat="45.14907" lon="5.93192">
        <ele>1965</ele>
        <time>2024-06-05T20:42:53+00:00</time>
      </trkpt>
      <trkpt lat="45.14908" lon="5.93189">
        <ele>1960</ele>
        <time>2024-06-05T20:42:56+00:00</time>
      </trkpt>
      <trkpt lat="45.1491" lon="5.93188">
        <ele>1972</ele>
        <time>2024-06-05T20:42:59+00:00</time>
      </trkpt>
      <trkpt lat="45.14911" lon="5.93189">
        <ele>1972</ele>
        <time>2024-06-05T20:43:02+00:00</time>
      </trkpt>
      <trkpt lat="45.14911" lon="5.93194">
        <ele>1972</ele>
        <time>2024-06-05T20:43:05+00:00</time>
      </trkpt>
      <trkpt lat="45.14913" lon="5.93198">
        <ele>1972</ele>
        <time>2024-06-05T20:43:08+00:00</time>
      </trkpt>
      <trkpt lat="45.14912" lon="5.93199">
        <ele>1972</ele>
        <time>2024-06-05T20:43:11+00:00</time>
      </trkpt>
      <trkpt lat="45.14913" lon="5.93209">
        <ele>1972</ele>
        <time>2024-06-05T20:43:14+00:00</time>
      </trkpt>
      <trkpt lat="45.14913" lon="5.93212">
        <ele>1973</ele>
        <time>2024-06-05T20:43:17+00:00</time>
      </trkpt>
      <trkpt lat="45.14913" lon="5.93219">
        <ele>1973</ele>
        <time>2024-06-05T20:43:20+00:00</time>
      </trkpt>
      <trkpt lat="45.14915" lon="5.93218">
        <ele>1973</ele>
        <time>2024-06-05T20:43:23+00:00</time>
      </trkpt>
      <trkpt lat="45.14922" lon="5.9321">
        <ele>1978</ele>
        <time>2024-06-05T20:43:26+00:00</time>
      </trkpt>
      <trkpt lat="45.14924" lon="5.93207">
        <ele>1978</ele>
        <time>2024-06-05T20:43:29+00:00</time>
      </trkpt>
      <trkpt lat="45.14925" lon="5.93206">
        <ele>1978</ele>
        <time>2024-06-05T20:43:32+00:00</time>
      </trkpt>
      <trkpt lat="45.14925" lon="5.93206">
        <ele>1978</ele>
        <time>2024-06-05T20:43:35+00:00</time>
      </trkpt>
      <trkpt lat="45.14926" lon="5.93209">
        <ele>1978</ele>
        <time>2024-06-05T20:43:38+00:00</time>
      </trkpt>
      <trkpt lat="45.14926" lon="5.93214">
        <ele>1978</ele>
        <time>2024-06-05T20:43:41+00:00</time>
      </trkpt>
      <trkpt lat="45.14935" lon="5.93225">
        <ele>1982</ele>
        <time>2024-06-05T20:43:44+00:00</time>
      </trkpt>
      <trkpt lat="45.14936" lon="5.93228">
        <ele>1982</ele>
        <time>2024-06-05T20:43:47+00:00</time>
      </trkpt>
      <trkpt lat="45.14946" lon="5.93244">
        <ele>1986</ele>
        <time>2024-06-05T20:43:50+00:00</time>
      </trkpt>
      <trkpt lat="45.14951" lon="5.9326">
        <ele>1989</ele>
        <time>2024-06-05T20:43:53+00:00</time>
      </trkpt>
      <trkpt lat="45.14954" lon="5.93267">
        <ele>1989</ele>
        <time>2024-06-05T20:43:56+00:00</time>
      </trkpt>
      <trkpt lat="45.14956" lon="5.93267">
        <ele>1989</ele>
        <time>2024-06-05T20:43:59+00:00</time>
      </trkpt>
      <trkpt lat="45.14959" lon="5.93262">
        <ele>1989</ele>
        <time>2024-06-05T20:44:02+00:00</time>
      </trkpt>
      <trkpt lat="45.1496" lon="5.93262">
        <ele>1992</ele>
        <time>2024-06-05T20:44:05+00:00</time>
      </trkpt>
      <trkpt lat="45.14962" lon="5.93263">
        <ele>1992</ele>
        <time>2024-06-05T20:44:08+00:00</time>
      </trkpt>
      <trkpt lat="45.14978" lon="5.93267">
        <ele>1996</ele>
        <time>2024-06-05T20:44:11+00:00</time>
      </trkpt>
      <trkpt lat="45.14994" lon="5.93268">
        <ele>2000</ele>
        <time>2024-06-05T20:44:14+00:00</time>
      </trkpt>
      <trkpt lat="45.15002" lon="5.93259">
        <ele>1998</ele>
        <time>2024-06-05T20:44:17+00:00</time>
      </trkpt>
      <trkpt lat="45.15005" lon="5.93245">
        <ele>2000</ele>
        <time>2024-06-05T20:44:20+00:00</time>
      </trkpt>
      <trkpt lat="45.15012" lon="5.93224">
        <ele>2000</ele>
        <time>2024-06-05T20:44:23+00:00</time>
      </trkpt>
      <trkpt lat="45.15017" lon="5.93217">
        <ele>2001</ele>
        <time>2024-06-05T20:44:26+00:00</time>
      </trkpt>
      <trkpt lat="45.15017" lon="5.93216">
        <ele>2001</ele>
        <time>2024-06-05T20:44:29+00:00</time>
      </trkpt>
      <trkpt lat="45.15022" lon="5.93208">
        <ele>2002</ele>
        <time>2024-06-05T20:44:32+00:00</time>
      </trkpt>
      <trkpt lat="45.15024" lon="5.932">
        <ele>2002</ele>
        <time>2024-06-05T20:44:35+00:00</time>
      </trkpt>
      <trkpt lat="45.15026" lon="5.93197">
        <ele>2002</ele>
        <time>2024-06-05T20:44:38+00:00</time>
      </trkpt>
      <trkpt lat="45.15031" lon="5.93188">
        <ele>2004</ele>
        <time>2024-06-05T20:44:41+00:00</time>
      </trkpt>
      <trkpt lat="45.15044" lon="5.93179">
        <ele>2004</ele>
        <time>2024-06-05T20:44:44+00:00</time>
      </trkpt>
      <trkpt lat="45.15045" lon="5.9318">
        <ele>2004</ele>
        <time>2024-06-05T20:44:47+00:00</time>
      </trkpt>
      <trkpt lat="45.15044" lon="5.93183">
        <ele>2005</ele>
        <time>2024-06-05T20:44:50+00:00</time>
      </trkpt>
      <trkpt lat="45.15043" lon="5.93185">
        <ele>2005</ele>
        <time>2024-06-05T20:44:53+00:00</time>
      </trkpt>
      <trkpt lat="45.15042" lon="5.93191">
        <ele>2007</ele>
        <time>2024-06-05T20:44:56+00:00</time>
      </trkpt>
      <trkpt lat="45.15043" lon="5.93192">
        <ele>2007</ele>
        <time>2024-06-05T20:44:59+00:00</time>
      </trkpt>
      <trkpt lat="45.15043" lon="5.93195">
        <ele>2007</ele>
        <time>2024-06-05T20:45:02+00:00</time>
      </trkpt>
      <trkpt lat="45.15045" lon="5.93203">
        <ele>2008</ele>
        <time>2024-06-05T20:45:05+00:00</time>
      </trkpt>
      <trkpt lat="45.15047" lon="5.93206">
        <ele>2008</ele>
        <time>2024-06-05T20:45:08+00:00</time>
      </trkpt>
      <trkpt lat="45.1505" lon="5.93218">
        <ele>2009</ele>
        <time>2024-06-05T20:45:11+00:00</time>
      </trkpt>
      <trkpt lat="45.15056" lon="5.93227">
        <ele>2014</ele>
        <time>2024-06-05T20:45:14+00:00</time>
      </trkpt>
      <trkpt lat="45.15059" lon="5.93227">
        <ele>2014</ele>
        <time>2024-06-05T20:45:17+00:00</time>
      </trkpt>
      <trkpt lat="45.1506" lon="5.93228">
        <ele>2014</ele>
        <time>2024-06-05T20:45:20+00:00</time>
      </trkpt>
      <trkpt lat="45.1506" lon="5.93231">
        <ele>2017</ele>
        <time>2024-06-05T20:45:23+00:00</time>
      </trkpt>
      <trkpt lat="45.15059" lon="5.93239">
        <ele>2015</ele>
        <time>2024-06-05T20:45:26+00:00</time>
      </trkpt>
      <trkpt lat="45.1506" lon="5.93249">
        <ele>2016</ele>
        <time>2024-06-05T20:45:29+00:00</time>
      </trkpt>
      <trkpt lat="45.15062" lon="5.93255">
        <ele>2020</ele>
        <time>2024-06-05T20:45:32+00:00</time>
      </trkpt>
      <trkpt lat="45.15064" lon="5.93268">
        <ele>2020</ele>
        <time>2024-06-05T20:45:35+00:00</time>
      </trkpt>
      <trkpt lat="45.1508" lon="5.93303">
        <ele>2026</ele>
        <time>2024-06-05T20:45:38+00:00</time>
      </trkpt>
      <trkpt lat="45.15081" lon="5.93305">
        <ele>2026</ele>
        <time>2024-06-05T20:45:41+00:00</time>
      </trkpt>
      <trkpt lat="45.15081" lon="5.93314">
        <ele>2028</ele>
        <time>2024-06-05T20:45:44+00:00</time>
      </trkpt>
      <trkpt lat="45.15078" lon="5.93317">
        <ele>2026</ele>
        <time>2024-06-05T20:45:47+00:00</time>
      </trkpt>
      <trkpt lat="45.15076" lon="5.93322">
        <ele>2028</ele>
        <time>2024-06-05T20:45:50+00:00</time>
      </trkpt>
      <trkpt lat="45.15074" lon="5.93324">
        <ele>2028</ele>
        <time>2024-06-05T20:45:53+00:00</time>
      </trkpt>
      <trkpt lat="45.15074" lon="5.93327">
        <ele>2028</ele>
        <time>2024-06-05T20:45:56+00:00</time>
      </trkpt>
      <trkpt lat="45.15074" lon="5.93329">
        <ele>2028</ele>
        <time>2024-06-05T20:45:59+00:00</time>
      </trkpt>
      <trkpt lat="45.15074" lon="5.93331">
        <ele>2029</ele>
        <time>2024-06-05T20:46:02+00:00</time>
      </trkpt>
      <trkpt lat="45.15078" lon="5.9334">
        <ele>2031</ele>
        <time>2024-06-05T20:46:05+00:00</time>
      </trkpt>
      <trkpt lat="45.15079" lon="5.93345">
        <ele>2031</ele>
        <time>2024-06-05T20:46:08+00:00</time>
      </trkpt>
      <trkpt lat="45.1508" lon="5.93346">
        <ele>2034</ele>
        <time>2024-06-05T20:46:11+00:00</time>
      </trkpt>
      <trkpt lat="45.15081" lon="5.93348">
        <ele>2034</ele>
        <time>2024-06-05T20:46:14+00:00</time>
      </trkpt>
      <trkpt lat="45.15084" lon="5.93355">
        <ele>2036</ele>
        <time>2024-06-05T20:46:17+00:00</time>
      </trkpt>
      <trkpt lat="45.15085" lon="5.93356">
        <ele>2036</ele>
        <time>2024-06-05T20:46:20+00:00</time>
      </trkpt>
      <trkpt lat="45.15089" lon="5.93364">
        <ele>2036</ele>
        <time>2024-06-05T20:46:23+00:00</time>
      </trkpt>
      <trkpt lat="45.15089" lon="5.93371">
        <ele>2037</ele>
        <time>2024-06-05T20:46:26+00:00</time>
      </trkpt>
      <trkpt lat="45.15091" lon="5.93373">
        <ele>2042</ele>
        <time>2024-06-05T20:46:29+00:00</time>
      </trkpt>
      <trkpt lat="45.15093" lon="5.93373">
        <ele>2042</ele>
        <time>2024-06-05T20:46:32+00:00</time>
      </trkpt>
      <trkpt lat="45.15095" lon="5.93378">
        <ele>2042</ele>
        <time>2024-06-05T20:46:35+00:00</time>
      </trkpt>
      <trkpt lat="45.15097" lon="5.93382">
        <ele>2043</ele>
        <time>2024-06-05T20:46:38+00:00</time>
      </trkpt>
      <trkpt lat="45.15101" lon="5.93384">
        <ele>2046</ele>
        <time>2024-06-05T20:46:41+00:00</time>
      </trkpt>
      <trkpt lat="45.15105" lon="5.93385">
        <ele>2046</ele>
        <time>2024-06-05T20:46:44+00:00</time>
      </trkpt>
      <trkpt lat="45.15108" lon="5.93388">
        <ele>2046</ele>
        <time>2024-06-05T20:46:47+00:00</time>
      </trkpt>
      <trkpt lat="45.15113" lon="5.93389">
        <ele>2043</ele>
        <time>2024-06-05T20:46:50+00:00</time>
      </trkpt>
      <trkpt lat="45.15114" lon="5.93391">
        <ele>2047</ele>
        <time>2024-06-05T20:46:53+00:00</time>
      </trkpt>
      <trkpt lat="45.15119" lon="5.93394">
        <ele>2047</ele>
        <time>2024-06-05T20:46:56+00:00</time>
      </trkpt>
      <trkpt lat="45.15123" lon="5.93397">
        <ele>2046</ele>
        <time>2024-06-05T20:46:59+00:00</time>
      </trkpt>
      <trkpt lat="45.15125" lon="5.93397">
        <ele>2046</ele>
        <time>2024-06-05T20:47:02+00:00</time>
      </trkpt>
      <trkpt lat="45.15129" lon="5.93399">
        <ele>2046</ele>
        <time>2024-06-05T20:47:05+00:00</time>
      </trkpt>
      <trkpt lat="45.1513" lon="5.93403">
        <ele>2043</ele>
        <time>2024-06-05T20:47:08+00:00</time>
      </trkpt>
      <trkpt lat="45.15139" lon="5.93409">
        <ele>2045</ele>
        <time>2024-06-05T20:47:11+00:00</time>
      </trkpt>
      <trkpt lat="45.15146" lon="5.9342">
        <ele>2043</ele>
        <time>2024-06-05T20:47:14+00:00</time>
      </trkpt>
      <trkpt lat="45.15153" lon="5.93429">
        <ele>2041</ele>
        <time>2024-06-05T20:47:17+00:00</time>
      </trkpt>
      <trkpt lat="45.15161" lon="5.93436">
        <ele>2037</ele>
        <time>2024-06-05T20:47:20+00:00</time>
      </trkpt>
      <trkpt lat="45.15173" lon="5.9344">
        <ele>2033</ele>
        <time>2024-06-05T20:47:23+00:00</time>
      </trkpt>
      <trkpt lat="45.15179" lon="5.9344">
        <ele>2036</ele>
        <time>2024-06-05T20:47:26+00:00</time>
      </trkpt>
      <trkpt lat="45.15187" lon="5.93442">
        <ele>2033</ele>
        <time>2024-06-05T20:47:29+00:00</time>
      </trkpt>
      <trkpt lat="45.15192" lon="5.93447">
        <ele>2032</ele>
        <time>2024-06-05T20:47:32+00:00</time>
      </trkpt>
      <trkpt lat="45.15195" lon="5.93448">
        <ele>2032</ele>
        <time>2024-06-05T20:47:35+00:00</time>
      </trkpt>
      <trkpt lat="45.15199" lon="5.93451">
        <ele>2030</ele>
        <time>2024-06-05T20:47:38+00:00</time>
      </trkpt>
      <trkpt lat="45.15203" lon="5.93459">
        <ele>2030</ele>
        <time>2024-06-05T20:47:41+00:00</time>
      </trkpt>
      <trkpt lat="45.15207" lon="5.93462">
        <ele>2028</ele>
        <time>2024-06-05T20:47:44+00:00</time>
      </trkpt>
      <trkpt lat="45.15209" lon="5.93461">
        <ele>2028</ele>
        <time>2024-06-05T20:47:47+00:00</time>
      </trkpt>
      <trkpt lat="45.15209" lon="5.93458">
        <ele>2030</ele>
        <time>2024-06-05T20:47:50+00:00</time>
      </trkpt>
      <trkpt lat="45.15213" lon="5.93458">
        <ele>2028</ele>
        <time>2024-06-05T20:47:53+00:00</time>
      </trkpt>
      <trkpt lat="45.15216" lon="5.93463">
        <ele>2028</ele>
        <time>2024-06-05T20:47:56+00:00</time>
      </trkpt>
      <trkpt lat="45.15219" lon="5.93464">
        <ele>2028</ele>
        <time>2024-06-05T20:47:59+00:00</time>
      </trkpt>
      <trkpt lat="45.15221" lon="5.93466">
        <ele>2028</ele>
        <time>2024-06-05T20:48:02+00:00</time>
      </trkpt>
      <trkpt lat="45.15222" lon="5.93467">
        <ele>2028</ele>
        <time>2024-06-05T20:48:05+00:00</time>
      </trkpt>
      <trkpt lat="45.15224" lon="5.93471">
        <ele>2028</ele>
        <time>2024-06-05T20:48:08+00:00</time>
      </trkpt>
      <trkpt lat="45.15226" lon="5.93472">
        <ele>2028</ele>
        <time>2024-06-05T20:48:11+00:00</time>
      </trkpt>
      <trkpt lat="45.15227" lon="5.93475">
        <ele>2028</ele>
        <time>2024-06-05T20:48:14+00:00</time>
      </trkpt>
      <trkpt lat="45.15229" lon="5.93476">
        <ele>2028</ele>
        <time>2024-06-05T20:48:17+00:00</time>
      </trkpt>
      <trkpt lat="45.15229" lon="5.93475">
        <ele>2028</ele>
        <time>2024-06-05T20:48:20+00:00</time>
      </trkpt>
      <trkpt lat="45.15229" lon="5.93473">
        <ele>2028</ele>
        <time>2024-06-05T20:48:23+00:00</time>
      </trkpt>
      <trkpt lat="45.1523" lon="5.93472">
        <ele>2028</ele>
        <time>2024-06-05T20:48:26+00:00</time>
      </trkpt>
      <trkpt lat="45.15232" lon="5.93477">
        <ele>2028</ele>
        <time>2024-06-05T20:48:29+00:00</time>
      </trkpt>
      <trkpt lat="45.15235" lon="5.93479">
        <ele>2028</ele>
        <time>2024-06-05T20:48:32+00:00</time>
      </trkpt>
      <trkpt lat="45.15238" lon="5.93484">
        <ele>2028</ele>
        <time>2024-06-05T20:48:35+00:00</time>
      </trkpt>
      <trkpt lat="45.15242" lon="5.93487">
        <ele>2025</ele>
        <time>2024-06-05T20:48:38+00:00</time>
      </trkpt>
      <trkpt lat="45.15241" lon="5.93503">
        <ele>2028</ele>
        <time>2024-06-05T20:48:41+00:00</time>
      </trkpt>
      <trkpt lat="45.15242" lon="5.93507">
        <ele>2028</ele>
        <time>2024-06-05T20:48:44+00:00</time>
      </trkpt>
      <trkpt lat="45.15244" lon="5.9351">
        <ele>2028</ele>
        <time>2024-06-05T20:48:47+00:00</time>
      </trkpt>
      <trkpt lat="45.15245" lon="5.93512">
        <ele>2028</ele>
        <time>2024-06-05T20:48:50+00:00</time>
      </trkpt>
      <trkpt lat="45.15245" lon="5.93515">
        <ele>2028</ele>
        <time>2024-06-05T20:48:53+00:00</time>
      </trkpt>
      <trkpt lat="45.15246" lon="5.93519">
        <ele>2028</ele>
        <time>2024-06-05T20:48:56+00:00</time>
      </trkpt>
      <trkpt lat="45.15248" lon="5.93521">
        <ele>2028</ele>
        <time>2024-06-05T20:48:59+00:00</time>
      </trkpt>
      <trkpt lat="45.15247" lon="5.93531">
        <ele>2027</ele>
        <time>2024-06-05T20:49:02+00:00</time>
      </trkpt>
      <trkpt lat="45.15248" lon="5.93536">
        <ele>2027</ele>
        <time>2024-06-05T20:49:05+00:00</time>
      </trkpt>
      <trkpt lat="45.15253" lon="5.9354">
        <ele>2029</ele>
        <time>2024-06-05T20:49:08+00:00</time>
      </trkpt>
      <trkpt lat="45.15256" lon="5.93543">
        <ele>2029</ele>
        <time>2024-06-05T20:49:11+00:00</time>
      </trkpt>
      <trkpt lat="45.15258" lon="5.9355">
        <ele>2029</ele>
        <time>2024-06-05T20:49:14+00:00</time>
      </trkpt>
      <trkpt lat="45.15259" lon="5.93552">
        <ele>2027</ele>
        <time>2024-06-05T20:49:17+00:00</time>
      </trkpt>
      <trkpt lat="45.15262" lon="5.9356">
        <ele>2030</ele>
        <time>2024-06-05T20:49:20+00:00</time>
      </trkpt>
      <trkpt lat="45.15261" lon="5.93568">
        <ele>2031</ele>
        <time>2024-06-05T20:49:23+00:00</time>
      </trkpt>
      <trkpt lat="45.15262" lon="5.93574">
        <ele>2031</ele>
        <time>2024-06-05T20:49:26+00:00</time>
      </trkpt>
      <trkpt lat="45.15266" lon="5.93582">
        <ele>2030</ele>
        <time>2024-06-05T20:49:29+00:00</time>
      </trkpt>
      <trkpt lat="45.15271" lon="5.93584">
        <ele>2036</ele>
        <time>2024-06-05T20:49:32+00:00</time>
      </trkpt>
      <trkpt lat="45.1528" lon="5.93594">
        <ele>2034</ele>
        <time>2024-06-05T20:49:35+00:00</time>
      </trkpt>
      <trkpt lat="45.1528" lon="5.93596">
        <ele>2038</ele>
        <time>2024-06-05T20:49:38+00:00</time>
      </trkpt>
      <trkpt lat="45.15286" lon="5.93605">
        <ele>2036</ele>
        <time>2024-06-05T20:49:41+00:00</time>
      </trkpt>
      <trkpt lat="45.15288" lon="5.93611">
        <ele>2035</ele>
        <time>2024-06-05T20:49:44+00:00</time>
      </trkpt>
      <trkpt lat="45.15288" lon="5.93616">
        <ele>2035</ele>
        <time>2024-06-05T20:49:47+00:00</time>
      </trkpt>
      <trkpt lat="45.15299" lon="5.9363">
        <ele>2037</ele>
        <time>2024-06-05T20:49:50+00:00</time>
      </trkpt>
      <trkpt lat="45.15303" lon="5.93631">
        <ele>2041</ele>
        <time>2024-06-05T20:49:53+00:00</time>
      </trkpt>
      <trkpt lat="45.15305" lon="5.93631">
        <ele>2041</ele>
        <time>2024-06-05T20:49:56+00:00</time>
      </trkpt>
      <trkpt lat="45.15311" lon="5.93634">
        <ele>2043</ele>
        <time>2024-06-05T20:49:59+00:00</time>
      </trkpt>
      <trkpt lat="45.15319" lon="5.93643">
        <ele>2038</ele>
        <time>2024-06-05T20:50:02+00:00</time>
      </trkpt>
      <trkpt lat="45.15331" lon="5.93652">
        <ele>2042</ele>
        <time>2024-06-05T20:50:05+00:00</time>
      </trkpt>
      <trkpt lat="45.15332" lon="5.93654">
        <ele>2042</ele>
        <time>2024-06-05T20:50:08+00:00</time>
      </trkpt>
      <trkpt lat="45.1534" lon="5.93673">
        <ele>2037</ele>
        <time>2024-06-05T20:50:11+00:00</time>
      </trkpt>
      <trkpt lat="45.15342" lon="5.93675">
        <ele>2040</ele>
        <time>2024-06-05T20:50:14+00:00</time>
      </trkpt>
      <trkpt lat="45.15346" lon="5.9368">
        <ele>2040</ele>
        <time>2024-06-05T20:50:17+00:00</time>
      </trkpt>
      <trkpt lat="45.15347" lon="5.93687">
        <ele>2039</ele>
        <time>2024-06-05T20:50:20+00:00</time>
      </trkpt>
      <trkpt lat="45.15359" lon="5.93703">
        <ele>2037</ele>
        <time>2024-06-05T20:50:23+00:00</time>
      </trkpt>
      <trkpt lat="45.15366" lon="5.9372">
        <ele>2038</ele>
        <time>2024-06-05T20:50:26+00:00</time>
      </trkpt>
      <trkpt lat="45.15371" lon="5.93725">
        <ele>2040</ele>
        <time>2024-06-05T20:50:29+00:00</time>
      </trkpt>
      <trkpt lat="45.15372" lon="5.93725">
        <ele>2040</ele>
        <time>2024-06-05T20:50:32+00:00</time>
      </trkpt>
      <trkpt lat="45.15374" lon="5.93728">
        <ele>2040</ele>
        <time>2024-06-05T20:50:35+00:00</time>
      </trkpt>
      <trkpt lat="45.15376" lon="5.93731">
        <ele>2039</ele>
        <time>2024-06-05T20:50:38+00:00</time>
      </trkpt>
      <trkpt lat="45.15378" lon="5.93734">
        <ele>2039</ele>
        <time>2024-06-05T20:50:41+00:00</time>
      </trkpt>
      <trkpt lat="45.15378" lon="5.93736">
        <ele>2039</ele>
        <time>2024-06-05T20:50:44+00:00</time>
      </trkpt>
      <trkpt lat="45.15379" lon="5.93738">
        <ele>2039</ele>
        <time>2024-06-05T20:50:47+00:00</time>
      </trkpt>
      <trkpt lat="45.15383" lon="5.93743">
        <ele>2042</ele>
        <time>2024-06-05T20:50:50+00:00</time>
      </trkpt>
      <trkpt lat="45.15387" lon="5.93749">
        <ele>2042</ele>
        <time>2024-06-05T20:50:53+00:00</time>
      </trkpt>
      <trkpt lat="45.15388" lon="5.93749">
        <ele>2042</ele>
        <time>2024-06-05T20:50:56+00:00</time>
      </trkpt>
      <trkpt lat="45.15392" lon="5.93752">
        <ele>2046</ele>
        <time>2024-06-05T20:50:59+00:00</time>
      </trkpt>
      <trkpt lat="45.15395" lon="5.93764">
        <ele>2042</ele>
        <time>2024-06-05T20:51:02+00:00</time>
      </trkpt>
      <trkpt lat="45.15395" lon="5.93768">
        <ele>2045</ele>
        <time>2024-06-05T20:51:05+00:00</time>
      </trkpt>
      <trkpt lat="45.15402" lon="5.93781">
        <ele>2045</ele>
        <time>2024-06-05T20:51:08+00:00</time>
      </trkpt>
      <trkpt lat="45.15408" lon="5.93801">
        <ele>2042</ele>
        <time>2024-06-05T20:51:11+00:00</time>
      </trkpt>
      <trkpt lat="45.15409" lon="5.9381">
        <ele>2040</ele>
        <time>2024-06-05T20:51:14+00:00</time>
      </trkpt>
      <trkpt lat="45.15414" lon="5.93823">
        <ele>2041</ele>
        <time>2024-06-05T20:51:17+00:00</time>
      </trkpt>
      <trkpt lat="45.15426" lon="5.93838">
        <ele>2046</ele>
        <time>2024-06-05T20:51:20+00:00</time>
      </trkpt>
      <trkpt lat="45.15427" lon="5.93841">
        <ele>2045</ele>
        <time>2024-06-05T20:51:23+00:00</time>
      </trkpt>
      <trkpt lat="45.1543" lon="5.93847">
        <ele>2045</ele>
        <time>2024-06-05T20:51:26+00:00</time>
      </trkpt>
      <trkpt lat="45.15434" lon="5.93851">
        <ele>2048</ele>
        <time>2024-06-05T20:51:29+00:00</time>
      </trkpt>
      <trkpt lat="45.15441" lon="5.93855">
        <ele>2045</ele>
        <time>2024-06-05T20:51:32+00:00</time>
      </trkpt>
      <trkpt lat="45.15447" lon="5.93866">
        <ele>2049</ele>
        <time>2024-06-05T20:51:35+00:00</time>
      </trkpt>
      <trkpt lat="45.15451" lon="5.93877">
        <ele>2049</ele>
        <time>2024-06-05T20:51:38+00:00</time>
      </trkpt>
      <trkpt lat="45.15458" lon="5.9389">
        <ele>2045</ele>
        <time>2024-06-05T20:51:41+00:00</time>
      </trkpt>
      <trkpt lat="45.15461" lon="5.93894">
        <ele>2047</ele>
        <time>2024-06-05T20:51:44+00:00</time>
      </trkpt>
      <trkpt lat="45.15464" lon="5.939">
        <ele>2045</ele>
        <time>2024-06-05T20:51:47+00:00</time>
      </trkpt>
      <trkpt lat="45.15467" lon="5.93903">
        <ele>2045</ele>
        <time>2024-06-05T20:51:50+00:00</time>
      </trkpt>
      <trkpt lat="45.15473" lon="5.93905">
        <ele>2047</ele>
        <time>2024-06-05T20:51:53+00:00</time>
      </trkpt>
      <trkpt lat="45.15478" lon="5.93908">
        <ele>2047</ele>
        <time>2024-06-05T20:51:56+00:00</time>
      </trkpt>
      <trkpt lat="45.15484" lon="5.93916">
        <ele>2048</ele>
        <time>2024-06-05T20:51:59+00:00</time>
      </trkpt>
      <trkpt lat="45.15487" lon="5.93922">
        <ele>2048</ele>
        <time>2024-06-05T20:52:02+00:00</time>
      </trkpt>
      <trkpt lat="45.15492" lon="5.93937">
        <ele>2050</ele>
        <time>2024-06-05T20:52:05+00:00</time>
      </trkpt>
      <trkpt lat="45.15495" lon="5.9394">
        <ele>2050</ele>
        <time>2024-06-05T20:52:08+00:00</time>
      </trkpt>
      <trkpt lat="45.15499" lon="5.93945">
        <ele>2052</ele>
        <time>2024-06-05T20:52:11+00:00</time>
      </trkpt>
      <trkpt lat="45.15502" lon="5.93948">
        <ele>2051</ele>
        <time>2024-06-05T20:52:14+00:00</time>
      </trkpt>
      <trkpt lat="45.15503" lon="5.9395">
        <ele>2051</ele>
        <time>2024-06-05T20:52:17+00:00</time>
      </trkpt>
      <trkpt lat="45.15503" lon="5.93961">
        <ele>2051</ele>
        <time>2024-06-05T20:52:20+00:00</time>
      </trkpt>
      <trkpt lat="45.15504" lon="5.93966">
        <ele>2054</ele>
        <time>2024-06-05T20:52:23+00:00</time>
      </trkpt>
      <trkpt lat="45.15509" lon="5.93976">
        <ele>2055</ele>
        <time>2024-06-05T20:52:26+00:00</time>
      </trkpt>
      <trkpt lat="45.15514" lon="5.9399">
        <ele>2051</ele>
        <time>2024-06-05T20:52:29+00:00</time>
      </trkpt>
      <trkpt lat="45.15514" lon="5.93994">
        <ele>2053</ele>
        <time>2024-06-05T20:52:32+00:00</time>
      </trkpt>
      <trkpt lat="45.15512" lon="5.94009">
        <ele>2053</ele>
        <time>2024-06-05T20:52:35+00:00</time>
      </trkpt>
      <trkpt lat="45.15512" lon="5.94015">
        <ele>2052</ele>
        <time>2024-06-05T20:52:38+00:00</time>
      </trkpt>
      <trkpt lat="45.15515" lon="5.94022">
        <ele>2050</ele>
        <time>2024-06-05T20:52:41+00:00</time>
      </trkpt>
      <trkpt lat="45.15516" lon="5.94029">
        <ele>2052</ele>
        <time>2024-06-05T20:52:44+00:00</time>
      </trkpt>
      <trkpt lat="45.15524" lon="5.94044">
        <ele>2050</ele>
        <time>2024-06-05T20:52:47+00:00</time>
      </trkpt>
      <trkpt lat="45.15526" lon="5.94051">
        <ele>2050</ele>
        <time>2024-06-05T20:52:50+00:00</time>
      </trkpt>
      <trkpt lat="45.15533" lon="5.94065">
        <ele>2050</ele>
        <time>2024-06-05T20:52:53+00:00</time>
      </trkpt>
      <trkpt lat="45.15535" lon="5.94077">
        <ele>2050</ele>
        <time>2024-06-05T20:52:56+00:00</time>
      </trkpt>
      <trkpt lat="45.15539" lon="5.94087">
        <ele>2051</ele>
        <time>2024-06-05T20:52:59+00:00</time>
      </trkpt>
      <trkpt lat="45.15544" lon="5.94092">
        <ele>2052</ele>
        <time>2024-06-05T20:53:02+00:00</time>
      </trkpt>
      <trkpt lat="45.15552" lon="5.94094">
        <ele>2051</ele>
        <time>2024-06-05T20:53:05+00:00</time>
      </trkpt>
      <trkpt lat="45.15559" lon="5.94101">
        <ele>2052</ele>
        <time>2024-06-05T20:53:08+00:00</time>
      </trkpt>
      <trkpt lat="45.15566" lon="5.94108">
        <ele>2051</ele>
        <time>2024-06-05T20:53:11+00:00</time>
      </trkpt>
      <trkpt lat="45.15572" lon="5.94111">
        <ele>2051</ele>
        <time>2024-06-05T20:53:14+00:00</time>
      </trkpt>
      <trkpt lat="45.15581" lon="5.94112">
        <ele>2050</ele>
        <time>2024-06-05T20:53:17+00:00</time>
      </trkpt>
      <trkpt lat="45.15588" lon="5.94115">
        <ele>2050</ele>
        <time>2024-06-05T20:53:20+00:00</time>
      </trkpt>
      <trkpt lat="45.1559" lon="5.94118">
        <ele>2050</ele>
        <time>2024-06-05T20:53:23+00:00</time>
      </trkpt>
      <trkpt lat="45.15591" lon="5.94128">
        <ele>2050</ele>
        <time>2024-06-05T20:53:26+00:00</time>
      </trkpt>
      <trkpt lat="45.15599" lon="5.9415">
        <ele>2051</ele>
        <time>2024-06-05T20:53:29+00:00</time>
      </trkpt>
      <trkpt lat="45.15601" lon="5.94161">
        <ele>2049</ele>
        <time>2024-06-05T20:53:32+00:00</time>
      </trkpt>
      <trkpt lat="45.15602" lon="5.94176">
        <ele>2049</ele>
        <time>2024-06-05T20:53:35+00:00</time>
      </trkpt>
      <trkpt lat="45.15603" lon="5.94179">
        <ele>2049</ele>
        <time>2024-06-05T20:53:38+00:00</time>
      </trkpt>
      <trkpt lat="45.15603" lon="5.94182">
        <ele>2049</ele>
        <time>2024-06-05T20:53:41+00:00</time>
      </trkpt>
      <trkpt lat="45.15604" lon="5.94186">
        <ele>2049</ele>
        <time>2024-06-05T20:53:44+00:00</time>
      </trkpt>
      <trkpt lat="45.15605" lon="5.94188">
        <ele>2049</ele>
        <time>2024-06-05T20:53:47+00:00</time>
      </trkpt>
      <trkpt lat="45.1561" lon="5.94189">
        <ele>2049</ele>
        <time>2024-06-05T20:53:50+00:00</time>
      </trkpt>
      <trkpt lat="45.15614" lon="5.94188">
        <ele>2049</ele>
        <time>2024-06-05T20:53:53+00:00</time>
      </trkpt>
      <trkpt lat="45.15617" lon="5.94188">
        <ele>2049</ele>
        <time>2024-06-05T20:53:56+00:00</time>
      </trkpt>
      <trkpt lat="45.15625" lon="5.94185">
        <ele>2048</ele>
        <time>2024-06-05T20:53:59+00:00</time>
      </trkpt>
      <trkpt lat="45.15626" lon="5.94185">
        <ele>2048</ele>
        <time>2024-06-05T20:54:02+00:00</time>
      </trkpt>
      <trkpt lat="45.15632" lon="5.94184">
        <ele>2046</ele>
        <time>2024-06-05T20:54:05+00:00</time>
      </trkpt>
      <trkpt lat="45.15643" lon="5.94186">
        <ele>2046</ele>
        <time>2024-06-05T20:54:08+00:00</time>
      </trkpt>
      <trkpt lat="45.15651" lon="5.94192">
        <ele>2048</ele>
        <time>2024-06-05T20:54:11+00:00</time>
      </trkpt>
      <trkpt lat="45.15656" lon="5.94194">
        <ele>2048</ele>
        <time>2024-06-05T20:54:14+00:00</time>
      </trkpt>
      <trkpt lat="45.15662" lon="5.94198">
        <ele>2047</ele>
        <time>2024-06-05T20:54:17+00:00</time>
      </trkpt>
      <trkpt lat="45.15665" lon="5.94201">
        <ele>2049</ele>
        <time>2024-06-05T20:54:20+00:00</time>
      </trkpt>
      <trkpt lat="45.15673" lon="5.94204">
        <ele>2048</ele>
        <time>2024-06-05T20:54:23+00:00</time>
      </trkpt>
      <trkpt lat="45.1569" lon="5.94209">
        <ele>2048</ele>
        <time>2024-06-05T20:54:26+00:00</time>
      </trkpt>
      <trkpt lat="45.15693" lon="5.94207">
        <ele>2048</ele>
        <time>2024-06-05T20:54:29+00:00</time>
      </trkpt>
      <trkpt lat="45.15696" lon="5.94204">
        <ele>2048</ele>
        <time>2024-06-05T20:54:32+00:00</time>
      </trkpt>
      <trkpt lat="45.15701" lon="5.94203">
        <ele>2048</ele>
        <time>2024-06-05T20:54:35+00:00</time>
      </trkpt>
      <trkpt lat="45.15709" lon="5.94204">
        <ele>2048</ele>
        <time>2024-06-05T20:54:38+00:00</time>
      </trkpt>
      <trkpt lat="45.15716" lon="5.9421">
        <ele>2051</ele>
        <time>2024-06-05T20:54:41+00:00</time>
      </trkpt>
      <trkpt lat="45.15724" lon="5.9421">
        <ele>2050</ele>
        <time>2024-06-05T20:54:44+00:00</time>
      </trkpt>
      <trkpt lat="45.1573" lon="5.94208">
        <ele>2050</ele>
        <time>2024-06-05T20:54:47+00:00</time>
      </trkpt>
      <trkpt lat="45.15734" lon="5.94208">
        <ele>2050</ele>
        <time>2024-06-05T20:54:50+00:00</time>
      </trkpt>
      <trkpt lat="45.1574" lon="5.94211">
        <ele>2053</ele>
        <time>2024-06-05T20:54:53+00:00</time>
      </trkpt>
      <trkpt lat="45.15744" lon="5.94212">
        <ele>2053</ele>
        <time>2024-06-05T20:54:56+00:00</time>
      </trkpt>
      <trkpt lat="45.15747" lon="5.94214">
        <ele>2053</ele>
        <time>2024-06-05T20:54:59+00:00</time>
      </trkpt>
      <trkpt lat="45.15748" lon="5.94215">
        <ele>2053</ele>
        <time>2024-06-05T20:55:02+00:00</time>
      </trkpt>
      <trkpt lat="45.15751" lon="5.94216">
        <ele>2055</ele>
        <time>2024-06-05T20:55:05+00:00</time>
      </trkpt>
      <trkpt lat="45.15753" lon="5.9422">
        <ele>2060</ele>
        <time>2024-06-05T20:55:08+00:00</time>
      </trkpt>
      <trkpt lat="45.15754" lon="5.94225">
        <ele>2060</ele>
        <time>2024-06-05T20:55:11+00:00</time>
      </trkpt>
      <trkpt lat="45.15756" lon="5.94234">
        <ele>2062</ele>
        <time>2024-06-05T20:55:14+00:00</time>
      </trkpt>
      <trkpt lat="45.15758" lon="5.9424">
        <ele>2064</ele>
        <time>2024-06-05T20:55:17+00:00</time>
      </trkpt>
      <trkpt lat="45.15761" lon="5.94242">
        <ele>2066</ele>
        <time>2024-06-05T20:55:20+00:00</time>
      </trkpt>
      <trkpt lat="45.15766" lon="5.94253">
        <ele>2068</ele>
        <time>2024-06-05T20:55:23+00:00</time>
      </trkpt>
      <trkpt lat="45.15769" lon="5.94256">
        <ele>2068</ele>
        <time>2024-06-05T20:55:26+00:00</time>
      </trkpt>
      <trkpt lat="45.15776" lon="5.94269">
        <ele>2071</ele>
        <time>2024-06-05T20:55:29+00:00</time>
      </trkpt>
      <trkpt lat="45.15786" lon="5.94278">
        <ele>2074</ele>
        <time>2024-06-05T20:55:32+00:00</time>
      </trkpt>
      <trkpt lat="45.15788" lon="5.94283">
        <ele>2075</ele>
        <time>2024-06-05T20:55:35+00:00</time>
      </trkpt>
      <trkpt lat="45.15793" lon="5.94288">
        <ele>2076</ele>
        <time>2024-06-05T20:55:38+00:00</time>
      </trkpt>
      <trkpt lat="45.15793" lon="5.94288">
        <ele>2076</ele>
        <time>2024-06-05T20:55:41+00:00</time>
      </trkpt>
      <trkpt lat="45.15797" lon="5.9429">
        <ele>2076</ele>
        <time>2024-06-05T20:55:44+00:00</time>
      </trkpt>
      <trkpt lat="45.15807" lon="5.94292">
        <ele>2077</ele>
        <time>2024-06-05T20:55:47+00:00</time>
      </trkpt>
      <trkpt lat="45.15809" lon="5.94293">
        <ele>2077</ele>
        <time>2024-06-05T20:55:50+00:00</time>
      </trkpt>
      <trkpt lat="45.15818" lon="5.94296">
        <ele>2078</ele>
        <time>2024-06-05T20:55:53+00:00</time>
      </trkpt>
      <trkpt lat="45.15826" lon="5.94299">
        <ele>2079</ele>
        <time>2024-06-05T20:55:56+00:00</time>
      </trkpt>
      <trkpt lat="45.15832" lon="5.94303">
        <ele>2079</ele>
        <time>2024-06-05T20:55:59+00:00</time>
      </trkpt>
      <trkpt lat="45.15852" lon="5.94322">
        <ele>2081</ele>
        <time>2024-06-05T20:56:02+00:00</time>
      </trkpt>
      <trkpt lat="45.15857" lon="5.94323">
        <ele>2081</ele>
        <time>2024-06-05T20:56:05+00:00</time>
      </trkpt>
      <trkpt lat="45.1587" lon="5.94334">
        <ele>2081</ele>
        <time>2024-06-05T20:56:08+00:00</time>
      </trkpt>
      <trkpt lat="45.15879" lon="5.94343">
        <ele>2082</ele>
        <time>2024-06-05T20:56:11+00:00</time>
      </trkpt>
      <trkpt lat="45.15882" lon="5.94343">
        <ele>2081</ele>
        <time>2024-06-05T20:56:14+00:00</time>
      </trkpt>
      <trkpt lat="45.15896" lon="5.94355">
        <ele>2082</ele>
        <time>2024-06-05T20:56:17+00:00</time>
      </trkpt>
      <trkpt lat="45.15909" lon="5.94364">
        <ele>2082</ele>
        <time>2024-06-05T20:56:20+00:00</time>
      </trkpt>
      <trkpt lat="45.15917" lon="5.94367">
        <ele>2083</ele>
        <time>2024-06-05T20:56:23+00:00</time>
      </trkpt>
      <trkpt lat="45.15919" lon="5.94368">
        <ele>2083</ele>
        <time>2024-06-05T20:56:26+00:00</time>
      </trkpt>
      <trkpt lat="45.15922" lon="5.94375">
        <ele>2083</ele>
        <time>2024-06-05T20:56:29+00:00</time>
      </trkpt>
      <trkpt lat="45.15926" lon="5.94378">
        <ele>2083</ele>
        <time>2024-06-05T20:56:32+00:00</time>
      </trkpt>
      <trkpt lat="45.15942" lon="5.94386">
        <ele>2084</ele>
        <time>2024-06-05T20:56:35+00:00</time>
      </trkpt>
      <trkpt lat="45.1596" lon="5.94398">
        <ele>2085</ele>
        <time>2024-06-05T20:56:38+00:00</time>
      </trkpt>
      <trkpt lat="45.15967" lon="5.94405">
        <ele>2085</ele>
        <time>2024-06-05T20:56:41+00:00</time>
      </trkpt>
      <trkpt lat="45.15987" lon="5.94428">
        <ele>2086</ele>
        <time>2024-06-05T20:56:44+00:00</time>
      </trkpt>
      <trkpt lat="45.15997" lon="5.9444">
        <ele>2087</ele>
        <time>2024-06-05T20:56:47+00:00</time>
      </trkpt>
      <trkpt lat="45.16012" lon="5.94452">
        <ele>2089</ele>
        <time>2024-06-05T20:56:50+00:00</time>
      </trkpt>
      <trkpt lat="45.16023" lon="5.94465">
        <ele>2090</ele>
        <time>2024-06-05T20:56:53+00:00</time>
      </trkpt>
      <trkpt lat="45.16026" lon="5.94468">
        <ele>2090</ele>
        <time>2024-06-05T20:56:56+00:00</time>
      </trkpt>
      <trkpt lat="45.1604" lon="5.94474">
        <ele>2093</ele>
        <time>2024-06-05T20:56:59+00:00</time>
      </trkpt>
      <trkpt lat="45.16044" lon="5.94474">
        <ele>2093</ele>
        <time>2024-06-05T20:57:02+00:00</time>
      </trkpt>
      <trkpt lat="45.16049" lon="5.94474">
        <ele>2093</ele>
        <time>2024-06-05T20:57:05+00:00</time>
      </trkpt>
      <trkpt lat="45.16057" lon="5.94475">
        <ele>2093</ele>
        <time>2024-06-05T20:57:08+00:00</time>
      </trkpt>
      <trkpt lat="45.16063" lon="5.94479">
        <ele>2093</ele>
        <time>2024-06-05T20:57:11+00:00</time>
      </trkpt>
      <trkpt lat="45.16066" lon="5.94479">
        <ele>2093</ele>
        <time>2024-06-05T20:57:14+00:00</time>
      </trkpt>
      <trkpt lat="45.16069" lon="5.94477">
        <ele>2093</ele>
        <time>2024-06-05T20:57:17+00:00</time>
      </trkpt>
      <trkpt lat="45.16073" lon="5.94475">
        <ele>2094</ele>
        <time>2024-06-05T20:57:20+00:00</time>
      </trkpt>
      <trkpt lat="45.16074" lon="5.94474">
        <ele>2094</ele>
        <time>2024-06-05T20:57:23+00:00</time>
      </trkpt>
      <trkpt lat="45.16076" lon="5.94472">
        <ele>2094</ele>
        <time>2024-06-05T20:57:26+00:00</time>
      </trkpt>
      <trkpt lat="45.16077" lon="5.94468">
        <ele>2093</ele>
        <time>2024-06-05T20:57:29+00:00</time>
      </trkpt>
      <trkpt lat="45.16084" lon="5.94459">
        <ele>2094</ele>
        <time>2024-06-05T20:57:32+00:00</time>
      </trkpt>
      <trkpt lat="45.16089" lon="5.94458">
        <ele>2094</ele>
        <time>2024-06-05T20:57:35+00:00</time>
      </trkpt>
      <trkpt lat="45.1609" lon="5.94457">
        <ele>2096</ele>
        <time>2024-06-05T20:57:38+00:00</time>
      </trkpt>
      <trkpt lat="45.16095" lon="5.94457">
        <ele>2096</ele>
        <time>2024-06-05T20:57:41+00:00</time>
      </trkpt>
      <trkpt lat="45.16098" lon="5.94456">
        <ele>2096</ele>
        <time>2024-06-05T20:57:44+00:00</time>
      </trkpt>
      <trkpt lat="45.16101" lon="5.94455">
        <ele>2099</ele>
        <time>2024-06-05T20:57:47+00:00</time>
      </trkpt>
      <trkpt lat="45.16102" lon="5.94452">
        <ele>2099</ele>
        <time>2024-06-05T20:57:50+00:00</time>
      </trkpt>
      <trkpt lat="45.16102" lon="5.94452">
        <ele>2099</ele>
        <time>2024-06-05T20:57:53+00:00</time>
      </trkpt>
      <trkpt lat="45.16104" lon="5.94452">
        <ele>2099</ele>
        <time>2024-06-05T20:57:56+00:00</time>
      </trkpt>
      <trkpt lat="45.16112" lon="5.94459">
        <ele>2103</ele>
        <time>2024-06-05T20:57:59+00:00</time>
      </trkpt>
      <trkpt lat="45.1612" lon="5.9447">
        <ele>2104</ele>
        <time>2024-06-05T20:58:02+00:00</time>
      </trkpt>
      <trkpt lat="45.16126" lon="5.94466">
        <ele>2107</ele>
        <time>2024-06-05T20:58:05+00:00</time>
      </trkpt>
      <trkpt lat="45.16133" lon="5.94454">
        <ele>2109</ele>
        <time>2024-06-05T20:58:08+00:00</time>
      </trkpt>
      <trkpt lat="45.16143" lon="5.94448">
        <ele>2110</ele>
        <time>2024-06-05T20:58:11+00:00</time>
      </trkpt>
      <trkpt lat="45.16153" lon="5.94458">
        <ele>2112</ele>
        <time>2024-06-05T20:58:14+00:00</time>
      </trkpt>
      <trkpt lat="45.16153" lon="5.94458">
        <ele>2112</ele>
        <time>2024-06-05T20:58:17+00:00</time>
      </trkpt>
      <trkpt lat="45.1616" lon="5.94464">
        <ele>2116</ele>
        <time>2024-06-05T20:58:20+00:00</time>
      </trkpt>
      <trkpt lat="45.16171" lon="5.94478">
        <ele>2120</ele>
        <time>2024-06-05T20:58:23+00:00</time>
      </trkpt>
      <trkpt lat="45.16179" lon="5.94501">
        <ele>2123</ele>
        <time>2024-06-05T20:58:26+00:00</time>
      </trkpt>
      <trkpt lat="45.16187" lon="5.94523">
        <ele>2125</ele>
        <time>2024-06-05T20:58:29+00:00</time>
      </trkpt>
      <trkpt lat="45.16196" lon="5.9453">
        <ele>2127</ele>
        <time>2024-06-05T20:58:32+00:00</time>
      </trkpt>
      <trkpt lat="45.16204" lon="5.94538">
        <ele>2130</ele>
        <time>2024-06-05T20:58:35+00:00</time>
      </trkpt>
      <trkpt lat="45.16219" lon="5.94543">
        <ele>2131</ele>
        <time>2024-06-05T20:58:38+00:00</time>
      </trkpt>
      <trkpt lat="45.16231" lon="5.94543">
        <ele>2136</ele>
        <time>2024-06-05T20:58:41+00:00</time>
      </trkpt>
      <trkpt lat="45.16237" lon="5.94544">
        <ele>2136</ele>
        <time>2024-06-05T20:58:44+00:00</time>
      </trkpt>
      <trkpt lat="45.16245" lon="5.94546">
        <ele>2137</ele>
        <time>2024-06-05T20:58:47+00:00</time>
      </trkpt>
      <trkpt lat="45.16262" lon="5.94548">
        <ele>2142</ele>
        <time>2024-06-05T20:58:50+00:00</time>
      </trkpt>
      <trkpt lat="45.16263" lon="5.94548">
        <ele>2142</ele>
        <time>2024-06-05T20:58:53+00:00</time>
      </trkpt>
      <trkpt lat="45.16269" lon="5.94554">
        <ele>2137</ele>
        <time>2024-06-05T20:58:56+00:00</time>
      </trkpt>
      <trkpt lat="45.16272" lon="5.94557">
        <ele>2140</ele>
        <time>2024-06-05T20:58:59+00:00</time>
      </trkpt>
      <trkpt lat="45.16275" lon="5.9456">
        <ele>2140</ele>
        <time>2024-06-05T20:59:02+00:00</time>
      </trkpt>
      <trkpt lat="45.16279" lon="5.94564">
        <ele>2139</ele>
        <time>2024-06-05T20:59:05+00:00</time>
      </trkpt>
      <trkpt lat="45.16285" lon="5.94574">
        <ele>2143</ele>
        <time>2024-06-05T20:59:08+00:00</time>
      </trkpt>
      <trkpt lat="45.16287" lon="5.9457">
        <ele>2143</ele>
        <time>2024-06-05T20:59:11+00:00</time>
      </trkpt>
      <trkpt lat="45.16287" lon="5.94562">
        <ele>2143</ele>
        <time>2024-06-05T20:59:14+00:00</time>
      </trkpt>
      <trkpt lat="45.1629" lon="5.94554">
        <ele>2143</ele>
        <time>2024-06-05T20:59:17+00:00</time>
      </trkpt>
      <trkpt lat="45.16294" lon="5.94546">
        <ele>2149</ele>
        <time>2024-06-05T20:59:20+00:00</time>
      </trkpt>
      <trkpt lat="45.16295" lon="5.94549">
        <ele>2149</ele>
        <time>2024-06-05T20:59:23+00:00</time>
      </trkpt>
      <trkpt lat="45.16296" lon="5.94556">
        <ele>2145</ele>
        <time>2024-06-05T20:59:26+00:00</time>
      </trkpt>
      <trkpt lat="45.16302" lon="5.94552">
        <ele>2150</ele>
        <time>2024-06-05T20:59:29+00:00</time>
      </trkpt>
      <trkpt lat="45.16308" lon="5.94547">
        <ele>2151</ele>
        <time>2024-06-05T20:59:32+00:00</time>
      </trkpt>
      <trkpt lat="45.16314" lon="5.94542">
        <ele>2153</ele>
        <time>2024-06-05T20:59:35+00:00</time>
      </trkpt>
      <trkpt lat="45.16325" lon="5.94541">
        <ele>2157</ele>
        <time>2024-06-05T20:59:38+00:00</time>
      </trkpt>
      <trkpt lat="45.1634" lon="5.9454">
        <ele>2164</ele>
        <time>2024-06-05T20:59:41+00:00</time>
      </trkpt>
      <trkpt lat="45.16351" lon="5.94537">
        <ele>2167</ele>
        <time>2024-06-05T20:59:44+00:00</time>
      </trkpt>
      <trkpt lat="45.16355" lon="5.94546">
        <ele>2168</ele>
        <time>2024-06-05T20:59:47+00:00</time>
      </trkpt>
      <trkpt lat="45.1636" lon="5.94553">
        <ele>2169</ele>
        <time>2024-06-05T20:59:50+00:00</time>
      </trkpt>
      <trkpt lat="45.16365" lon="5.9456">
        <ele>2171</ele>
        <time>2024-06-05T20:59:53+00:00</time>
      </trkpt>
      <trkpt lat="45.16372" lon="5.94574">
        <ele>2170</ele>
        <time>2024-06-05T20:59:56+00:00</time>
      </trkpt>
      <trkpt lat="45.16376" lon="5.9458">
        <ele>2170</ele>
        <time>2024-06-05T20:59:59+00:00</time>
      </trkpt>
      <trkpt lat="45.1638" lon="5.94588">
        <ele>2171</ele>
        <time>2024-06-05T21:00:02+00:00</time>
      </trkpt>
      <trkpt lat="45.1638" lon="5.94599">
        <ele>2172</ele>
        <time>2024-06-05T21:00:05+00:00</time>
      </trkpt>
      <trkpt lat="45.16381" lon="5.94611">
        <ele>2176</ele>
        <time>2024-06-05T21:00:08+00:00</time>
      </trkpt>
      <trkpt lat="45.16387" lon="5.94622">
        <ele>2178</ele>
        <time>2024-06-05T21:00:11+00:00</time>
      </trkpt>
      <trkpt lat="45.16389" lon="5.94627">
        <ele>2178</ele>
        <time>2024-06-05T21:00:14+00:00</time>
      </trkpt>
      <trkpt lat="45.16394" lon="5.94637">
        <ele>2184</ele>
        <time>2024-06-05T21:00:17+00:00</time>
      </trkpt>
      <trkpt lat="45.164" lon="5.94642">
        <ele>2187</ele>
        <time>2024-06-05T21:00:20+00:00</time>
      </trkpt>
      <trkpt lat="45.16406" lon="5.94645">
        <ele>2187</ele>
        <time>2024-06-05T21:00:23+00:00</time>
      </trkpt>
      <trkpt lat="45.16413" lon="5.94655">
        <ele>2188</ele>
        <time>2024-06-05T21:00:26+00:00</time>
      </trkpt>
      <trkpt lat="45.16416" lon="5.94662">
        <ele>2187</ele>
        <time>2024-06-05T21:00:29+00:00</time>
      </trkpt>
      <trkpt lat="45.1642" lon="5.94665">
        <ele>2191</ele>
        <time>2024-06-05T21:00:32+00:00</time>
      </trkpt>
      <trkpt lat="45.16426" lon="5.94666">
        <ele>2191</ele>
        <time>2024-06-05T21:00:35+00:00</time>
      </trkpt>
      <trkpt lat="45.16437" lon="5.94673">
        <ele>2191</ele>
        <time>2024-06-05T21:00:38+00:00</time>
      </trkpt>
      <trkpt lat="45.16449" lon="5.94687">
        <ele>2191</ele>
        <time>2024-06-05T21:00:41+00:00</time>
      </trkpt>
      <trkpt lat="45.16455" lon="5.94694">
        <ele>2193</ele>
        <time>2024-06-05T21:00:44+00:00</time>
      </trkpt>
      <trkpt lat="45.16461" lon="5.94698">
        <ele>2195</ele>
        <time>2024-06-05T21:00:47+00:00</time>
      </trkpt>
      <trkpt lat="45.1647" lon="5.94705">
        <ele>2195</ele>
        <time>2024-06-05T21:00:50+00:00</time>
      </trkpt>
      <trkpt lat="45.16482" lon="5.94706">
        <ele>2199</ele>
        <time>2024-06-05T21:00:53+00:00</time>
      </trkpt>
      <trkpt lat="45.16483" lon="5.94706">
        <ele>2199</ele>
        <time>2024-06-05T21:00:56+00:00</time>
      </trkpt>
      <trkpt lat="45.16491" lon="5.94707">
        <ele>2202</ele>
        <time>2024-06-05T21:00:59+00:00</time>
      </trkpt>
      <trkpt lat="45.16504" lon="5.94709">
        <ele>2203</ele>
        <time>2024-06-05T21:01:02+00:00</time>
      </trkpt>
      <trkpt lat="45.16509" lon="5.9471">
        <ele>2202</ele>
        <time>2024-06-05T21:01:05+00:00</time>
      </trkpt>
      <trkpt lat="45.16517" lon="5.94712">
        <ele>2204</ele>
        <time>2024-06-05T21:01:08+00:00</time>
      </trkpt>
      <trkpt lat="45.16527" lon="5.94724">
        <ele>2204</ele>
        <time>2024-06-05T21:01:11+00:00</time>
      </trkpt>
      <trkpt lat="45.16531" lon="5.9473">
        <ele>2205</ele>
        <time>2024-06-05T21:01:14+00:00</time>
      </trkpt>
      <trkpt lat="45.16537" lon="5.9473">
        <ele>2205</ele>
        <time>2024-06-05T21:01:17+00:00</time>
      </trkpt>
      <trkpt lat="45.16538" lon="5.94731">
        <ele>2205</ele>
        <time>2024-06-05T21:01:20+00:00</time>
      </trkpt>
      <trkpt lat="45.1654" lon="5.94736">
        <ele>2208</ele>
        <time>2024-06-05T21:01:23+00:00</time>
      </trkpt>
      <trkpt lat="45.16548" lon="5.9475">
        <ele>2208</ele>
        <time>2024-06-05T21:01:26+00:00</time>
      </trkpt>
      <trkpt lat="45.16555" lon="5.94765">
        <ele>2210</ele>
        <time>2024-06-05T21:01:29+00:00</time>
      </trkpt>
      <trkpt lat="45.16559" lon="5.94775">
        <ele>2210</ele>
        <time>2024-06-05T21:01:32+00:00</time>
      </trkpt>
      <trkpt lat="45.16562" lon="5.94781">
        <ele>2212</ele>
        <time>2024-06-05T21:01:35+00:00</time>
      </trkpt>
      <trkpt lat="45.16566" lon="5.94784">
        <ele>2212</ele>
        <time>2024-06-05T21:01:38+00:00</time>
      </trkpt>
      <trkpt lat="45.16569" lon="5.94786">
        <ele>2212</ele>
        <time>2024-06-05T21:01:41+00:00</time>
      </trkpt>
      <trkpt lat="45.1657" lon="5.9479">
        <ele>2218</ele>
        <time>2024-06-05T21:01:44+00:00</time>
      </trkpt>
      <trkpt lat="45.16571" lon="5.94795">
        <ele>2218</ele>
        <time>2024-06-05T21:01:47+00:00</time>
      </trkpt>
      <trkpt lat="45.1657" lon="5.94799">
        <ele>2214</ele>
        <time>2024-06-05T21:01:50+00:00</time>
      </trkpt>
      <trkpt lat="45.16573" lon="5.948">
        <ele>2220</ele>
        <time>2024-06-05T21:01:53+00:00</time>
      </trkpt>
      <trkpt lat="45.16576" lon="5.94802">
        <ele>2220</ele>
        <time>2024-06-05T21:01:56+00:00</time>
      </trkpt>
      <trkpt lat="45.1658" lon="5.94801">
        <ele>2220</ele>
        <time>2024-06-05T21:01:59+00:00</time>
      </trkpt>
      <trkpt lat="45.16583" lon="5.94804">
        <ele>2224</ele>
        <time>2024-06-05T21:02:02+00:00</time>
      </trkpt>
      <trkpt lat="45.16585" lon="5.94808">
        <ele>2224</ele>
        <time>2024-06-05T21:02:05+00:00</time>
      </trkpt>
      <trkpt lat="45.16585" lon="5.94811">
        <ele>2227</ele>
        <time>2024-06-05T21:02:08+00:00</time>
      </trkpt>
      <trkpt lat="45.16584" lon="5.94814">
        <ele>2227</ele>
        <time>2024-06-05T21:02:11+00:00</time>
      </trkpt>
      <trkpt lat="45.16584" lon="5.94817">
        <ele>2227</ele>
        <time>2024-06-05T21:02:14+00:00</time>
      </trkpt>
      <trkpt lat="45.16586" lon="5.94821">
        <ele>2232</ele>
        <time>2024-06-05T21:02:17+00:00</time>
      </trkpt>
      <trkpt lat="45.16585" lon="5.94824">
        <ele>2232</ele>
        <time>2024-06-05T21:02:20+00:00</time>
      </trkpt>
      <trkpt lat="45.16587" lon="5.94826">
        <ele>2232</ele>
        <time>2024-06-05T21:02:23+00:00</time>
      </trkpt>
      <trkpt lat="45.16589" lon="5.94824">
        <ele>2232</ele>
        <time>2024-06-05T21:02:26+00:00</time>
      </trkpt>
      <trkpt lat="45.16591" lon="5.94822">
        <ele>2235</ele>
        <time>2024-06-05T21:02:29+00:00</time>
      </trkpt>
      <trkpt lat="45.16593" lon="5.94824">
        <ele>2235</ele>
        <time>2024-06-05T21:02:32+00:00</time>
      </trkpt>
      <trkpt lat="45.16594" lon="5.94827">
        <ele>2235</ele>
        <time>2024-06-05T21:02:35+00:00</time>
      </trkpt>
      <trkpt lat="45.16598" lon="5.94827">
        <ele>2235</ele>
        <time>2024-06-05T21:02:38+00:00</time>
      </trkpt>
      <trkpt lat="45.166" lon="5.94829">
        <ele>2241</ele>
        <time>2024-06-05T21:02:41+00:00</time>
      </trkpt>
      <trkpt lat="45.16603" lon="5.94831">
        <ele>2244</ele>
        <time>2024-06-05T21:02:44+00:00</time>
      </trkpt>
      <trkpt lat="45.16605" lon="5.94831">
        <ele>2244</ele>
        <time>2024-06-05T21:02:47+00:00</time>
      </trkpt>
      <trkpt lat="45.1661" lon="5.94829">
        <ele>2241</ele>
        <time>2024-06-05T21:02:50+00:00</time>
      </trkpt>
      <trkpt lat="45.16611" lon="5.94828">
        <ele>2247</ele>
        <time>2024-06-05T21:02:53+00:00</time>
      </trkpt>
      <trkpt lat="45.16611" lon="5.94833">
        <ele>2250</ele>
        <time>2024-06-05T21:02:56+00:00</time>
      </trkpt>
      <trkpt lat="45.1661" lon="5.94838">
        <ele>2244</ele>
        <time>2024-06-05T21:02:59+00:00</time>
      </trkpt>
      <trkpt lat="45.1661" lon="5.94847">
        <ele>2252</ele>
        <time>2024-06-05T21:03:02+00:00</time>
      </trkpt>
      <trkpt lat="45.16608" lon="5.94851">
        <ele>2251</ele>
        <time>2024-06-05T21:03:05+00:00</time>
      </trkpt>
      <trkpt lat="45.16604" lon="5.94854">
        <ele>2251</ele>
        <time>2024-06-05T21:03:08+00:00</time>
      </trkpt>
      <trkpt lat="45.16603" lon="5.94861">
        <ele>2253</ele>
        <time>2024-06-05T21:03:11+00:00</time>
      </trkpt>
      <trkpt lat="45.166" lon="5.94868">
        <ele>2249</ele>
        <time>2024-06-05T21:03:14+00:00</time>
      </trkpt>
      <trkpt lat="45.16594" lon="5.94873">
        <ele>2252</ele>
        <time>2024-06-05T21:03:17+00:00</time>
      </trkpt>
      <trkpt lat="45.16592" lon="5.94875">
        <ele>2252</ele>
        <time>2024-06-05T21:03:20+00:00</time>
      </trkpt>
      <trkpt lat="45.16594" lon="5.9488">
        <ele>2255</ele>
        <time>2024-06-05T21:03:23+00:00</time>
      </trkpt>
      <trkpt lat="45.16592" lon="5.94882">
        <ele>2255</ele>
        <time>2024-06-05T21:03:26+00:00</time>
      </trkpt>
      <trkpt lat="45.16592" lon="5.94886">
        <ele>2255</ele>
        <time>2024-06-05T21:03:29+00:00</time>
      </trkpt>
      <trkpt lat="45.16592" lon="5.94895">
        <ele>2257</ele>
        <time>2024-06-05T21:03:32+00:00</time>
      </trkpt>
      <trkpt lat="45.16592" lon="5.94908">
        <ele>2258</ele>
        <time>2024-06-05T21:03:35+00:00</time>
      </trkpt>
      <trkpt lat="45.16591" lon="5.94922">
        <ele>2259</ele>
        <time>2024-06-05T21:03:38+00:00</time>
      </trkpt>
      <trkpt lat="45.16594" lon="5.94933">
        <ele>2259</ele>
        <time>2024-06-05T21:03:41+00:00</time>
      </trkpt>
      <trkpt lat="45.16596" lon="5.94944">
        <ele>2258</ele>
        <time>2024-06-05T21:03:44+00:00</time>
      </trkpt>
      <trkpt lat="45.166" lon="5.94959">
        <ele>2260</ele>
        <time>2024-06-05T21:03:47+00:00</time>
      </trkpt>
      <trkpt lat="45.16603" lon="5.94971">
        <ele>2258</ele>
        <time>2024-06-05T21:03:50+00:00</time>
      </trkpt>
      <trkpt lat="45.16604" lon="5.94984">
        <ele>2257</ele>
        <time>2024-06-05T21:03:53+00:00</time>
      </trkpt>
      <trkpt lat="45.16603" lon="5.94997">
        <ele>2257</ele>
        <time>2024-06-05T21:03:56+00:00</time>
      </trkpt>
      <trkpt lat="45.16601" lon="5.95021">
        <ele>2259</ele>
        <time>2024-06-05T21:03:59+00:00</time>
      </trkpt>
      <trkpt lat="45.16602" lon="5.95035">
        <ele>2261</ele>
        <time>2024-06-05T21:04:02+00:00</time>
      </trkpt>
      <trkpt lat="45.16605" lon="5.95049">
        <ele>2261</ele>
        <time>2024-06-05T21:04:05+00:00</time>
      </trkpt>
      <trkpt lat="45.16611" lon="5.95065">
        <ele>2263</ele>
        <time>2024-06-05T21:04:08+00:00</time>
      </trkpt>
      <trkpt lat="45.16619" lon="5.9508">
        <ele>2263</ele>
        <time>2024-06-05T21:04:11+00:00</time>
      </trkpt>
      <trkpt lat="45.16621" lon="5.95092">
        <ele>2264</ele>
        <time>2024-06-05T21:04:14+00:00</time>
      </trkpt>
      <trkpt lat="45.16619" lon="5.95106">
        <ele>2264</ele>
        <time>2024-06-05T21:04:17+00:00</time>
      </trkpt>
      <trkpt lat="45.16621" lon="5.95115">
        <ele>2265</ele>
        <time>2024-06-05T21:04:20+00:00</time>
      </trkpt>
      <trkpt lat="45.16628" lon="5.95129">
        <ele>2267</ele>
        <time>2024-06-05T21:04:23+00:00</time>
      </trkpt>
      <trkpt lat="45.1663" lon="5.95136">
        <ele>2269</ele>
        <time>2024-06-05T21:04:26+00:00</time>
      </trkpt>
      <trkpt lat="45.16642" lon="5.95158">
        <ele>2272</ele>
        <time>2024-06-05T21:04:29+00:00</time>
      </trkpt>
      <trkpt lat="45.16649" lon="5.9517">
        <ele>2273</ele>
        <time>2024-06-05T21:04:32+00:00</time>
      </trkpt>
      <trkpt lat="45.1665" lon="5.95186">
        <ele>2277</ele>
        <time>2024-06-05T21:04:35+00:00</time>
      </trkpt>
      <trkpt lat="45.16654" lon="5.95192">
        <ele>2278</ele>
        <time>2024-06-05T21:04:38+00:00</time>
      </trkpt>
      <trkpt lat="45.16656" lon="5.95205">
        <ele>2279</ele>
        <time>2024-06-05T21:04:41+00:00</time>
      </trkpt>
      <trkpt lat="45.16658" lon="5.95216">
        <ele>2280</ele>
        <time>2024-06-05T21:04:44+00:00</time>
      </trkpt>
      <trkpt lat="45.16656" lon="5.95227">
        <ele>2283</ele>
        <time>2024-06-05T21:04:47+00:00</time>
      </trkpt>
      <trkpt lat="45.16651" lon="5.95234">
        <ele>2286</ele>
        <time>2024-06-05T21:04:50+00:00</time>
      </trkpt>
      <trkpt lat="45.16648" lon="5.95246">
        <ele>2287</ele>
        <time>2024-06-05T21:04:53+00:00</time>
      </trkpt>
      <trkpt lat="45.16649" lon="5.95254">
        <ele>2293</ele>
        <time>2024-06-05T21:04:56+00:00</time>
      </trkpt>
      <trkpt lat="45.16652" lon="5.95262">
        <ele>2297</ele>
        <time>2024-06-05T21:04:59+00:00</time>
      </trkpt>
      <trkpt lat="45.16648" lon="5.95277">
        <ele>2292</ele>
        <time>2024-06-05T21:05:02+00:00</time>
      </trkpt>
      <trkpt lat="45.16635" lon="5.95273">
        <ele>2298</ele>
        <time>2024-06-05T21:05:05+00:00</time>
      </trkpt>
      <trkpt lat="45.16626" lon="5.95278">
        <ele>2298</ele>
        <time>2024-06-05T21:05:08+00:00</time>
      </trkpt>
      <trkpt lat="45.16617" lon="5.95285">
        <ele>2304</ele>
        <time>2024-06-05T21:05:11+00:00</time>
      </trkpt>
      <trkpt lat="45.1661" lon="5.95292">
        <ele>2308</ele>
        <time>2024-06-05T21:05:14+00:00</time>
      </trkpt>
      <trkpt lat="45.16616" lon="5.95305">
        <ele>2312</ele>
        <time>2024-06-05T21:05:17+00:00</time>
      </trkpt>
      <trkpt lat="45.16617" lon="5.95314">
        <ele>2318</ele>
        <time>2024-06-05T21:05:20+00:00</time>
      </trkpt>
      <trkpt lat="45.1661" lon="5.95327">
        <ele>2324</ele>
        <time>2024-06-05T21:05:23+00:00</time>
      </trkpt>
      <trkpt lat="45.16615" lon="5.95336">
        <ele>2327</ele>
        <time>2024-06-05T21:05:26+00:00</time>
      </trkpt>
      <trkpt lat="45.16616" lon="5.95346">
        <ele>2334</ele>
        <time>2024-06-05T21:05:29+00:00</time>
      </trkpt>
      <trkpt lat="45.16618" lon="5.95355">
        <ele>2339</ele>
        <time>2024-06-05T21:05:32+00:00</time>
      </trkpt>
      <trkpt lat="45.16626" lon="5.95368">
        <ele>2345</ele>
        <time>2024-06-05T21:05:35+00:00</time>
      </trkpt>
      <trkpt lat="45.16626" lon="5.95378">
        <ele>2354</ele>
        <time>2024-06-05T21:05:38+00:00</time>
      </trkpt>
      <trkpt lat="45.16615" lon="5.9538">
        <ele>2360</ele>
        <time>2024-06-05T21:05:41+00:00</time>
      </trkpt>
      <trkpt lat="45.16602" lon="5.9538">
        <ele>2360</ele>
        <time>2024-06-05T21:05:44+00:00</time>
      </trkpt>
      <trkpt lat="45.16591" lon="5.95384">
        <ele>2360</ele>
        <time>2024-06-05T21:05:47+00:00</time>
      </trkpt>
      <trkpt lat="45.16583" lon="5.95389">
        <ele>2361</ele>
        <time>2024-06-05T21:05:50+00:00</time>
      </trkpt>
      <trkpt lat="45.16578" lon="5.95392">
        <ele>2365</ele>
        <time>2024-06-05T21:05:53+00:00</time>
      </trkpt>
      <trkpt lat="45.16575" lon="5.95388">
        <ele>2361</ele>
        <time>2024-06-05T21:05:56+00:00</time>
      </trkpt>
      <trkpt lat="45.16572" lon="5.95385">
        <ele>2361</ele>
        <time>2024-06-05T21:05:59+00:00</time>
      </trkpt>
      <trkpt lat="45.16568" lon="5.95382">
        <ele>2362</ele>
        <time>2024-06-05T21:06:02+00:00</time>
      </trkpt>
      <trkpt lat="45.16563" lon="5.95381">
        <ele>2362</ele>
        <time>2024-06-05T21:06:05+00:00</time>
      </trkpt>
      <trkpt lat="45.16556" lon="5.95382">
        <ele>2362</ele>
        <time>2024-06-05T21:06:08+00:00</time>
      </trkpt>
      <trkpt lat="45.16549" lon="5.95387">
        <ele>2363</ele>
        <time>2024-06-05T21:06:11+00:00</time>
      </trkpt>
      <trkpt lat="45.16543" lon="5.95392">
        <ele>2365</ele>
        <time>2024-06-05T21:06:14+00:00</time>
      </trkpt>
      <trkpt lat="45.16537" lon="5.95393">
        <ele>2364</ele>
        <time>2024-06-05T21:06:17+00:00</time>
      </trkpt>
      <trkpt lat="45.16529" lon="5.95397">
        <ele>2364</ele>
        <time>2024-06-05T21:06:20+00:00</time>
      </trkpt>
      <trkpt lat="45.1652" lon="5.95404">
        <ele>2365</ele>
        <time>2024-06-05T21:06:23+00:00</time>
      </trkpt>
      <trkpt lat="45.16517" lon="5.95413">
        <ele>2365</ele>
        <time>2024-06-05T21:06:26+00:00</time>
      </trkpt>
      <trkpt lat="45.16512" lon="5.95423">
        <ele>2366</ele>
        <time>2024-06-05T21:06:29+00:00</time>
      </trkpt>
      <trkpt lat="45.16506" lon="5.95427">
        <ele>2364</ele>
        <time>2024-06-05T21:06:32+00:00</time>
      </trkpt>
      <trkpt lat="45.165" lon="5.9543">
        <ele>2366</ele>
        <time>2024-06-05T21:06:35+00:00</time>
      </trkpt>
      <trkpt lat="45.16493" lon="5.95435">
        <ele>2364</ele>
        <time>2024-06-05T21:06:38+00:00</time>
      </trkpt>
      <trkpt lat="45.16486" lon="5.95443">
        <ele>2364</ele>
        <time>2024-06-05T21:06:41+00:00</time>
      </trkpt>
      <trkpt lat="45.16477" lon="5.95464">
        <ele>2363</ele>
        <time>2024-06-05T21:06:44+00:00</time>
      </trkpt>
      <trkpt lat="45.16472" lon="5.95476">
        <ele>2364</ele>
        <time>2024-06-05T21:06:47+00:00</time>
      </trkpt>
      <trkpt lat="45.16469" lon="5.95482">
        <ele>2363</ele>
        <time>2024-06-05T21:06:50+00:00</time>
      </trkpt>
      <trkpt lat="45.16462" lon="5.95492">
        <ele>2366</ele>
        <time>2024-06-05T21:06:53+00:00</time>
      </trkpt>
      <trkpt lat="45.16455" lon="5.95504">
        <ele>2364</ele>
        <time>2024-06-05T21:06:56+00:00</time>
      </trkpt>
      <trkpt lat="45.16451" lon="5.9551">
        <ele>2364</ele>
        <time>2024-06-05T21:06:59+00:00</time>
      </trkpt>
      <trkpt lat="45.1645" lon="5.9552">
        <ele>2368</ele>
        <time>2024-06-05T21:07:02+00:00</time>
      </trkpt>
      <trkpt lat="45.16451" lon="5.9553">
        <ele>2369</ele>
        <time>2024-06-05T21:07:05+00:00</time>
      </trkpt>
      <trkpt lat="45.16453" lon="5.95544">
        <ele>2370</ele>
        <time>2024-06-05T21:07:08+00:00</time>
      </trkpt>
      <trkpt lat="45.16455" lon="5.95555">
        <ele>2371</ele>
        <time>2024-06-05T21:07:11+00:00</time>
      </trkpt>
      <trkpt lat="45.16454" lon="5.95563">
        <ele>2366</ele>
        <time>2024-06-05T21:07:14+00:00</time>
      </trkpt>
      <trkpt lat="45.16451" lon="5.95577">
        <ele>2370</ele>
        <time>2024-06-05T21:07:17+00:00</time>
      </trkpt>
      <trkpt lat="45.16449" lon="5.956">
        <ele>2363</ele>
        <time>2024-06-05T21:07:20+00:00</time>
      </trkpt>
      <trkpt lat="45.16449" lon="5.95634">
        <ele>2363</ele>
        <time>2024-06-05T21:07:23+00:00</time>
      </trkpt>
      <trkpt lat="45.16449" lon="5.95655">
        <ele>2363</ele>
        <time>2024-06-05T21:07:26+00:00</time>
      </trkpt>
      <trkpt lat="45.16448" lon="5.95666">
        <ele>2363</ele>
        <time>2024-06-05T21:07:29+00:00</time>
      </trkpt>
      <trkpt lat="45.16442" lon="5.95678">
        <ele>2365</ele>
        <time>2024-06-05T21:07:32+00:00</time>
      </trkpt>
      <trkpt lat="45.16437" lon="5.95688">
        <ele>2363</ele>
        <time>2024-06-05T21:07:35+00:00</time>
      </trkpt>
      <trkpt lat="45.16437" lon="5.95688">
        <ele>2363</ele>
        <time>2024-06-05T21:07:38+00:00</time>
      </trkpt>
      <trkpt lat="45.16433" lon="5.95698">
        <ele>2364</ele>
        <time>2024-06-05T21:07:41+00:00</time>
      </trkpt>
      <trkpt lat="45.16432" lon="5.95704">
        <ele>2369</ele>
        <time>2024-06-05T21:07:44+00:00</time>
      </trkpt>
      <trkpt lat="45.1643" lon="5.95717">
        <ele>2364</ele>
        <time>2024-06-05T21:07:47+00:00</time>
      </trkpt>
      <trkpt lat="45.16428" lon="5.95726">
        <ele>2364</ele>
        <time>2024-06-05T21:07:50+00:00</time>
      </trkpt>
      <trkpt lat="45.16423" lon="5.95739">
        <ele>2368</ele>
        <time>2024-06-05T21:07:53+00:00</time>
      </trkpt>
      <trkpt lat="45.16416" lon="5.95749">
        <ele>2365</ele>
        <time>2024-06-05T21:07:56+00:00</time>
      </trkpt>
      <trkpt lat="45.16407" lon="5.95759">
        <ele>2366</ele>
        <time>2024-06-05T21:07:59+00:00</time>
      </trkpt>
      <trkpt lat="45.16392" lon="5.9577">
        <ele>2369</ele>
        <time>2024-06-05T21:08:02+00:00</time>
      </trkpt>
      <trkpt lat="45.16384" lon="5.95778">
        <ele>2370</ele>
        <time>2024-06-05T21:08:05+00:00</time>
      </trkpt>
      <trkpt lat="45.16373" lon="5.95792">
        <ele>2372</ele>
        <time>2024-06-05T21:08:08+00:00</time>
      </trkpt>
      <trkpt lat="45.16366" lon="5.95804">
        <ele>2376</ele>
        <time>2024-06-05T21:08:11+00:00</time>
      </trkpt>
      <trkpt lat="45.16362" lon="5.95811">
        <ele>2379</ele>
        <time>2024-06-05T21:08:14+00:00</time>
      </trkpt>
      <trkpt lat="45.16359" lon="5.95819">
        <ele>2375</ele>
        <time>2024-06-05T21:08:17+00:00</time>
      </trkpt>
      <trkpt lat="45.16352" lon="5.95829">
        <ele>2379</ele>
        <time>2024-06-05T21:08:20+00:00</time>
      </trkpt>
      <trkpt lat="45.16346" lon="5.95843">
        <ele>2380</ele>
        <time>2024-06-05T21:08:23+00:00</time>
      </trkpt>
      <trkpt lat="45.16341" lon="5.95859">
        <ele>2382</ele>
        <time>2024-06-05T21:08:26+00:00</time>
      </trkpt>
      <trkpt lat="45.16338" lon="5.95875">
        <ele>2380</ele>
        <time>2024-06-05T21:08:29+00:00</time>
      </trkpt>
      <trkpt lat="45.16336" lon="5.95897">
        <ele>2382</ele>
        <time>2024-06-05T21:08:32+00:00</time>
      </trkpt>
      <trkpt lat="45.16338" lon="5.95911">
        <ele>2383</ele>
        <time>2024-06-05T21:08:35+00:00</time>
      </trkpt>
      <trkpt lat="45.16343" lon="5.95931">
        <ele>2388</ele>
        <time>2024-06-05T21:08:38+00:00</time>
      </trkpt>
      <trkpt lat="45.16349" lon="5.95955">
        <ele>2387</ele>
        <time>2024-06-05T21:08:41+00:00</time>
      </trkpt>
      <trkpt lat="45.16356" lon="5.95992">
        <ele>2391</ele>
        <time>2024-06-05T21:08:44+00:00</time>
      </trkpt>
      <trkpt lat="45.16358" lon="5.96004">
        <ele>2390</ele>
        <time>2024-06-05T21:08:47+00:00</time>
      </trkpt>
      <trkpt lat="45.16367" lon="5.96032">
        <ele>2394</ele>
        <time>2024-06-05T21:08:50+00:00</time>
      </trkpt>
      <trkpt lat="45.1638" lon="5.9607">
        <ele>2399</ele>
        <time>2024-06-05T21:08:53+00:00</time>
      </trkpt>
      <trkpt lat="45.16393" lon="5.96101">
        <ele>2399</ele>
        <time>2024-06-05T21:08:56+00:00</time>
      </trkpt>
      <trkpt lat="45.16408" lon="5.96136">
        <ele>2399</ele>
        <time>2024-06-05T21:08:59+00:00</time>
      </trkpt>
      <trkpt lat="45.16419" lon="5.96165">
        <ele>2400</ele>
        <time>2024-06-05T21:09:02+00:00</time>
      </trkpt>
      <trkpt lat="45.16427" lon="5.96184">
        <ele>2403</ele>
        <time>2024-06-05T21:09:05+00:00</time>
      </trkpt>
      <trkpt lat="45.16429" lon="5.96198">
        <ele>2402</ele>
        <time>2024-06-05T21:09:08+00:00</time>
      </trkpt>
      <trkpt lat="45.16435" lon="5.96217">
        <ele>2405</ele>
        <time>2024-06-05T21:09:11+00:00</time>
      </trkpt>
      <trkpt lat="45.1644" lon="5.96229">
        <ele>2403</ele>
        <time>2024-06-05T21:09:14+00:00</time>
      </trkpt>
      <trkpt lat="45.16447" lon="5.96237">
        <ele>2405</ele>
        <time>2024-06-05T21:09:17+00:00</time>
      </trkpt>
      <trkpt lat="45.16452" lon="5.96244">
        <ele>2406</ele>
        <time>2024-06-05T21:09:20+00:00</time>
      </trkpt>
      <trkpt lat="45.16453" lon="5.96251">
        <ele>2404</ele>
        <time>2024-06-05T21:09:23+00:00</time>
      </trkpt>
      <trkpt lat="45.16457" lon="5.96261">
        <ele>2403</ele>
        <time>2024-06-05T21:09:26+00:00</time>
      </trkpt>
      <trkpt lat="45.16461" lon="5.9627">
        <ele>2405</ele>
        <time>2024-06-05T21:09:29+00:00</time>
      </trkpt>
      <trkpt lat="45.16468" lon="5.96279">
        <ele>2404</ele>
        <time>2024-06-05T21:09:32+00:00</time>
      </trkpt>
      <trkpt lat="45.16472" lon="5.96284">
        <ele>2404</ele>
        <time>2024-06-05T21:09:35+00:00</time>
      </trkpt>
      <trkpt lat="45.16476" lon="5.96292">
        <ele>2404</ele>
        <time>2024-06-05T21:09:38+00:00</time>
      </trkpt>
      <trkpt lat="45.16483" lon="5.96303">
        <ele>2404</ele>
        <time>2024-06-05T21:09:41+00:00</time>
      </trkpt>
      <trkpt lat="45.16487" lon="5.96315">
        <ele>2406</ele>
        <time>2024-06-05T21:09:44+00:00</time>
      </trkpt>
      <trkpt lat="45.16492" lon="5.9633">
        <ele>2403</ele>
        <time>2024-06-05T21:09:47+00:00</time>
      </trkpt>
      <trkpt lat="45.16493" lon="5.96341">
        <ele>2404</ele>
        <time>2024-06-05T21:09:50+00:00</time>
      </trkpt>
      <trkpt lat="45.16495" lon="5.96346">
        <ele>2404</ele>
        <time>2024-06-05T21:09:53+00:00</time>
      </trkpt>
      <trkpt lat="45.16499" lon="5.96363">
        <ele>2402</ele>
        <time>2024-06-05T21:09:56+00:00</time>
      </trkpt>
      <trkpt lat="45.16505" lon="5.96369">
        <ele>2403</ele>
        <time>2024-06-05T21:09:59+00:00</time>
      </trkpt>
      <trkpt lat="45.16513" lon="5.96376">
        <ele>2402</ele>
        <time>2024-06-05T21:10:02+00:00</time>
      </trkpt>
      <trkpt lat="45.1652" lon="5.96391">
        <ele>2401</ele>
        <time>2024-06-05T21:10:05+00:00</time>
      </trkpt>
      <trkpt lat="45.16531" lon="5.96394">
        <ele>2400</ele>
        <time>2024-06-05T21:10:08+00:00</time>
      </trkpt>
      <trkpt lat="45.16536" lon="5.96403">
        <ele>2401</ele>
        <time>2024-06-05T21:10:11+00:00</time>
      </trkpt>
      <trkpt lat="45.16535" lon="5.96408">
        <ele>2401</ele>
        <time>2024-06-05T21:10:14+00:00</time>
      </trkpt>
      <trkpt lat="45.16532" lon="5.96411">
        <ele>2402</ele>
        <time>2024-06-05T21:10:17+00:00</time>
      </trkpt>
      <trkpt lat="45.16529" lon="5.96418">
        <ele>2401</ele>
        <time>2024-06-05T21:10:20+00:00</time>
      </trkpt>
      <trkpt lat="45.16522" lon="5.96431">
        <ele>2403</ele>
        <time>2024-06-05T21:10:23+00:00</time>
      </trkpt>
      <trkpt lat="45.16518" lon="5.96444">
        <ele>2401</ele>
        <time>2024-06-05T21:10:26+00:00</time>
      </trkpt>
      <trkpt lat="45.16519" lon="5.96449">
        <ele>2401</ele>
        <time>2024-06-05T21:10:29+00:00</time>
      </trkpt>
      <trkpt lat="45.1652" lon="5.9646">
        <ele>2404</ele>
        <time>2024-06-05T21:10:32+00:00</time>
      </trkpt>
      <trkpt lat="45.1652" lon="5.96471">
        <ele>2406</ele>
        <time>2024-06-05T21:10:35+00:00</time>
      </trkpt>
      <trkpt lat="45.1652" lon="5.96494">
        <ele>2404</ele>
        <time>2024-06-05T21:10:38+00:00</time>
      </trkpt>
      <trkpt lat="45.16521" lon="5.96516">
        <ele>2404</ele>
        <time>2024-06-05T21:10:41+00:00</time>
      </trkpt>
      <trkpt lat="45.16522" lon="5.9653">
        <ele>2404</ele>
        <time>2024-06-05T21:10:44+00:00</time>
      </trkpt>
      <trkpt lat="45.16526" lon="5.96544">
        <ele>2404</ele>
        <time>2024-06-05T21:10:47+00:00</time>
      </trkpt>
      <trkpt lat="45.16537" lon="5.96567">
        <ele>2407</ele>
        <time>2024-06-05T21:10:50+00:00</time>
      </trkpt>
      <trkpt lat="45.16546" lon="5.9658">
        <ele>2409</ele>
        <time>2024-06-05T21:10:53+00:00</time>
      </trkpt>
      <trkpt lat="45.16556" lon="5.96598">
        <ele>2412</ele>
        <time>2024-06-05T21:10:56+00:00</time>
      </trkpt>
      <trkpt lat="45.16559" lon="5.96607">
        <ele>2411</ele>
        <time>2024-06-05T21:10:59+00:00</time>
      </trkpt>
      <trkpt lat="45.16567" lon="5.96616">
        <ele>2412</ele>
        <time>2024-06-05T21:11:02+00:00</time>
      </trkpt>
      <trkpt lat="45.16578" lon="5.96629">
        <ele>2414</ele>
        <time>2024-06-05T21:11:05+00:00</time>
      </trkpt>
      <trkpt lat="45.16581" lon="5.9665">
        <ele>2416</ele>
        <time>2024-06-05T21:11:08+00:00</time>
      </trkpt>
      <trkpt lat="45.16583" lon="5.96664">
        <ele>2417</ele>
        <time>2024-06-05T21:11:11+00:00</time>
      </trkpt>
      <trkpt lat="45.16588" lon="5.96675">
        <ele>2417</ele>
        <time>2024-06-05T21:11:14+00:00</time>
      </trkpt>
      <trkpt lat="45.16597" lon="5.96684">
        <ele>2420</ele>
        <time>2024-06-05T21:11:17+00:00</time>
      </trkpt>
      <trkpt lat="45.16605" lon="5.96704">
        <ele>2424</ele>
        <time>2024-06-05T21:11:20+00:00</time>
      </trkpt>
      <trkpt lat="45.16611" lon="5.96724">
        <ele>2427</ele>
        <time>2024-06-05T21:11:23+00:00</time>
      </trkpt>
      <trkpt lat="45.16616" lon="5.96735">
        <ele>2428</ele>
        <time>2024-06-05T21:11:26+00:00</time>
      </trkpt>
      <trkpt lat="45.16621" lon="5.96746">
        <ele>2429</ele>
        <time>2024-06-05T21:11:29+00:00</time>
      </trkpt>
      <trkpt lat="45.16627" lon="5.96756">
        <ele>2430</ele>
        <time>2024-06-05T21:11:32+00:00</time>
      </trkpt>
      <trkpt lat="45.16631" lon="5.96772">
        <ele>2432</ele>
        <time>2024-06-05T21:11:35+00:00</time>
      </trkpt>
      <trkpt lat="45.16631" lon="5.96782">
        <ele>2433</ele>
        <time>2024-06-05T21:11:38+00:00</time>
      </trkpt>
      <trkpt lat="45.16632" lon="5.96786">
        <ele>2433</ele>
        <time>2024-06-05T21:11:41+00:00</time>
      </trkpt>
      <trkpt lat="45.16634" lon="5.96788">
        <ele>2433</ele>
        <time>2024-06-05T21:11:44+00:00</time>
      </trkpt>
      <trkpt lat="45.16635" lon="5.96793">
        <ele>2434</ele>
        <time>2024-06-05T21:11:47+00:00</time>
      </trkpt>
      <trkpt lat="45.16637" lon="5.96798">
        <ele>2434</ele>
        <time>2024-06-05T21:11:50+00:00</time>
      </trkpt>
      <trkpt lat="45.16642" lon="5.96802">
        <ele>2435</ele>
        <time>2024-06-05T21:11:53+00:00</time>
      </trkpt>
      <trkpt lat="45.16642" lon="5.9682">
        <ele>2436</ele>
        <time>2024-06-05T21:11:56+00:00</time>
      </trkpt>
      <trkpt lat="45.16635" lon="5.96833">
        <ele>2438</ele>
        <time>2024-06-05T21:11:59+00:00</time>
      </trkpt>
      <trkpt lat="45.16634" lon="5.96842">
        <ele>2439</ele>
        <time>2024-06-05T21:12:02+00:00</time>
      </trkpt>
      <trkpt lat="45.16632" lon="5.96857">
        <ele>2440</ele>
        <time>2024-06-05T21:12:05+00:00</time>
      </trkpt>
      <trkpt lat="45.16629" lon="5.96868">
        <ele>2441</ele>
        <time>2024-06-05T21:12:08+00:00</time>
      </trkpt>
      <trkpt lat="45.16631" lon="5.96875">
        <ele>2442</ele>
        <time>2024-06-05T21:12:11+00:00</time>
      </trkpt>
      <trkpt lat="45.1663" lon="5.96881">
        <ele>2444</ele>
        <time>2024-06-05T21:12:14+00:00</time>
      </trkpt>
      <trkpt lat="45.16626" lon="5.9689">
        <ele>2445</ele>
        <time>2024-06-05T21:12:17+00:00</time>
      </trkpt>
      <trkpt lat="45.16623" lon="5.96896">
        <ele>2445</ele>
        <time>2024-06-05T21:12:20+00:00</time>
      </trkpt>
      <trkpt lat="45.16622" lon="5.96897">
        <ele>2445</ele>
        <time>2024-06-05T21:12:23+00:00</time>
      </trkpt>
      <trkpt lat="45.16618" lon="5.96902">
        <ele>2445</ele>
        <time>2024-06-05T21:12:26+00:00</time>
      </trkpt>
      <trkpt lat="45.16618" lon="5.96908">
        <ele>2445</ele>
        <time>2024-06-05T21:12:29+00:00</time>
      </trkpt>
      <trkpt lat="45.16618" lon="5.96915">
        <ele>2447</ele>
        <time>2024-06-05T21:12:32+00:00</time>
      </trkpt>
      <trkpt lat="45.16618" lon="5.96917">
        <ele>2447</ele>
        <time>2024-06-05T21:12:35+00:00</time>
      </trkpt>
      <trkpt lat="45.16618" lon="5.96927">
        <ele>2448</ele>
        <time>2024-06-05T21:12:38+00:00</time>
      </trkpt>
      <trkpt lat="45.16621" lon="5.96934">
        <ele>2450</ele>
        <time>2024-06-05T21:12:41+00:00</time>
      </trkpt>
      <trkpt lat="45.16624" lon="5.96942">
        <ele>2451</ele>
        <time>2024-06-05T21:12:44+00:00</time>
      </trkpt>
      <trkpt lat="45.16627" lon="5.9695">
        <ele>2453</ele>
        <time>2024-06-05T21:12:47+00:00</time>
      </trkpt>
      <trkpt lat="45.16628" lon="5.96958">
        <ele>2453</ele>
        <time>2024-06-05T21:12:50+00:00</time>
      </trkpt>
      <trkpt lat="45.16627" lon="5.96968">
        <ele>2456</ele>
        <time>2024-06-05T21:12:53+00:00</time>
      </trkpt>
      <trkpt lat="45.16627" lon="5.9699">
        <ele>2459</ele>
        <time>2024-06-05T21:12:56+00:00</time>
      </trkpt>
      <trkpt lat="45.16627" lon="5.96998">
        <ele>2460</ele>
        <time>2024-06-05T21:12:59+00:00</time>
      </trkpt>
      <trkpt lat="45.1663" lon="5.97003">
        <ele>2460</ele>
        <time>2024-06-05T21:13:02+00:00</time>
      </trkpt>
      <trkpt lat="45.16632" lon="5.97008">
        <ele>2462</ele>
        <time>2024-06-05T21:13:05+00:00</time>
      </trkpt>
      <trkpt lat="45.16628" lon="5.97019">
        <ele>2461</ele>
        <time>2024-06-05T21:13:08+00:00</time>
      </trkpt>
      <trkpt lat="45.16627" lon="5.97021">
        <ele>2462</ele>
        <time>2024-06-05T21:13:11+00:00</time>
      </trkpt>
      <trkpt lat="45.16627" lon="5.9703">
        <ele>2462</ele>
        <time>2024-06-05T21:13:14+00:00</time>
      </trkpt>
      <trkpt lat="45.1663" lon="5.97038">
        <ele>2464</ele>
        <time>2024-06-05T21:13:17+00:00</time>
      </trkpt>
      <trkpt lat="45.16631" lon="5.97048">
        <ele>2468</ele>
        <time>2024-06-05T21:13:20+00:00</time>
      </trkpt>
      <trkpt lat="45.16635" lon="5.97059">
        <ele>2469</ele>
        <time>2024-06-05T21:13:23+00:00</time>
      </trkpt>
      <trkpt lat="45.16638" lon="5.97064">
        <ele>2468</ele>
        <time>2024-06-05T21:13:26+00:00</time>
      </trkpt>
      <trkpt lat="45.1664" lon="5.97067">
        <ele>2470</ele>
        <time>2024-06-05T21:13:29+00:00</time>
      </trkpt>
      <trkpt lat="45.16645" lon="5.9708">
        <ele>2467</ele>
        <time>2024-06-05T21:13:32+00:00</time>
      </trkpt>
      <trkpt lat="45.16648" lon="5.97086">
        <ele>2468</ele>
        <time>2024-06-05T21:13:35+00:00</time>
      </trkpt>
      <trkpt lat="45.16654" lon="5.97096">
        <ele>2467</ele>
        <time>2024-06-05T21:13:38+00:00</time>
      </trkpt>
      <trkpt lat="45.1666" lon="5.97099">
        <ele>2467</ele>
        <time>2024-06-05T21:13:41+00:00</time>
      </trkpt>
      <trkpt lat="45.16664" lon="5.97128">
        <ele>2468</ele>
        <time>2024-06-05T21:13:44+00:00</time>
      </trkpt>
      <trkpt lat="45.16665" lon="5.97133">
        <ele>2468</ele>
        <time>2024-06-05T21:13:47+00:00</time>
      </trkpt>
      <trkpt lat="45.16665" lon="5.97141">
        <ele>2469</ele>
        <time>2024-06-05T21:13:50+00:00</time>
      </trkpt>
      <trkpt lat="45.16665" lon="5.9715">
        <ele>2469</ele>
        <time>2024-06-05T21:13:53+00:00</time>
      </trkpt>
      <trkpt lat="45.16662" lon="5.97154">
        <ele>2469</ele>
        <time>2024-06-05T21:13:56+00:00</time>
      </trkpt>
      <trkpt lat="45.16657" lon="5.97152">
        <ele>2467</ele>
        <time>2024-06-05T21:13:59+00:00</time>
      </trkpt>
      <trkpt lat="45.16653" lon="5.97151">
        <ele>2467</ele>
        <time>2024-06-05T21:14:02+00:00</time>
      </trkpt>
      <trkpt lat="45.16651" lon="5.97152">
        <ele>2467</ele>
        <time>2024-06-05T21:14:05+00:00</time>
      </trkpt>
      <trkpt lat="45.16649" lon="5.97155">
        <ele>2468</ele>
        <time>2024-06-05T21:14:08+00:00</time>
      </trkpt>
      <trkpt lat="45.16648" lon="5.97161">
        <ele>2470</ele>
        <time>2024-06-05T21:14:11+00:00</time>
      </trkpt>
      <trkpt lat="45.16643" lon="5.9717">
        <ele>2470</ele>
        <time>2024-06-05T21:14:14+00:00</time>
      </trkpt>
      <trkpt lat="45.1664" lon="5.97174">
        <ele>2474</ele>
        <time>2024-06-05T21:14:17+00:00</time>
      </trkpt>
      <trkpt lat="45.16637" lon="5.97177">
        <ele>2474</ele>
        <time>2024-06-05T21:14:20+00:00</time>
      </trkpt>
      <trkpt lat="45.16633" lon="5.97177">
        <ele>2474</ele>
        <time>2024-06-05T21:14:23+00:00</time>
      </trkpt>
      <trkpt lat="45.16628" lon="5.97173">
        <ele>2479</ele>
        <time>2024-06-05T21:14:26+00:00</time>
      </trkpt>
      <trkpt lat="45.16623" lon="5.97173">
        <ele>2479</ele>
        <time>2024-06-05T21:14:29+00:00</time>
      </trkpt>
      <trkpt lat="45.16621" lon="5.97175">
        <ele>2479</ele>
        <time>2024-06-05T21:14:32+00:00</time>
      </trkpt>
      <trkpt lat="45.1662" lon="5.97178">
        <ele>2482</ele>
        <time>2024-06-05T21:14:35+00:00</time>
      </trkpt>
      <trkpt lat="45.16618" lon="5.97178">
        <ele>2482</ele>
        <time>2024-06-05T21:14:38+00:00</time>
      </trkpt>
      <trkpt lat="45.16616" lon="5.97176">
        <ele>2482</ele>
        <time>2024-06-05T21:14:41+00:00</time>
      </trkpt>
      <trkpt lat="45.16612" lon="5.97177">
        <ele>2482</ele>
        <time>2024-06-05T21:14:44+00:00</time>
      </trkpt>
      <trkpt lat="45.1661" lon="5.97175">
        <ele>2482</ele>
        <time>2024-06-05T21:14:47+00:00</time>
      </trkpt>
      <trkpt lat="45.1661" lon="5.97175">
        <ele>2486</ele>
        <time>2024-06-05T21:14:50+00:00</time>
      </trkpt>
      <trkpt lat="45.16609" lon="5.97178">
        <ele>2486</ele>
        <time>2024-06-05T21:14:53+00:00</time>
      </trkpt>
      <trkpt lat="45.16609" lon="5.9718">
        <ele>2488</ele>
        <time>2024-06-05T21:14:56+00:00</time>
      </trkpt>
      <trkpt lat="45.16608" lon="5.97182">
        <ele>2488</ele>
        <time>2024-06-05T21:14:59+00:00</time>
      </trkpt>
      <trkpt lat="45.16606" lon="5.97182">
        <ele>2488</ele>
        <time>2024-06-05T21:15:02+00:00</time>
      </trkpt>
      <trkpt lat="45.16606" lon="5.97184">
        <ele>2488</ele>
        <time>2024-06-05T21:15:05+00:00</time>
      </trkpt>
      <trkpt lat="45.16604" lon="5.97187">
        <ele>2488</ele>
        <time>2024-06-05T21:15:08+00:00</time>
      </trkpt>
      <trkpt lat="45.16602" lon="5.97187">
        <ele>2488</ele>
        <time>2024-06-05T21:15:11+00:00</time>
      </trkpt>
      <trkpt lat="45.16601" lon="5.97187">
        <ele>2488</ele>
        <time>2024-06-05T21:15:14+00:00</time>
      </trkpt>
      <trkpt lat="45.16599" lon="5.97184">
        <ele>2495</ele>
        <time>2024-06-05T21:15:17+00:00</time>
      </trkpt>
      <trkpt lat="45.16596" lon="5.97188">
        <ele>2495</ele>
        <time>2024-06-05T21:15:20+00:00</time>
      </trkpt>
      <trkpt lat="45.16594" lon="5.97186">
        <ele>2495</ele>
        <time>2024-06-05T21:15:23+00:00</time>
      </trkpt>
      <trkpt lat="45.16593" lon="5.97186">
        <ele>2495</ele>
        <time>2024-06-05T21:15:26+00:00</time>
      </trkpt>
      <trkpt lat="45.16591" lon="5.97189">
        <ele>2495</ele>
        <time>2024-06-05T21:15:29+00:00</time>
      </trkpt>
      <trkpt lat="45.16589" lon="5.97188">
        <ele>2499</ele>
        <time>2024-06-05T21:15:32+00:00</time>
      </trkpt>
      <trkpt lat="45.16586" lon="5.97196">
        <ele>2501</ele>
        <time>2024-06-05T21:15:35+00:00</time>
      </trkpt>
      <trkpt lat="45.16584" lon="5.97197">
        <ele>2501</ele>
        <time>2024-06-05T21:15:38+00:00</time>
      </trkpt>
      <trkpt lat="45.16584" lon="5.97199">
        <ele>2501</ele>
        <time>2024-06-05T21:15:41+00:00</time>
      </trkpt>
      <trkpt lat="45.16584" lon="5.97204">
        <ele>2502</ele>
        <time>2024-06-05T21:15:44+00:00</time>
      </trkpt>
      <trkpt lat="45.16581" lon="5.97203">
        <ele>2502</ele>
        <time>2024-06-05T21:15:47+00:00</time>
      </trkpt>
      <trkpt lat="45.16579" lon="5.97202">
        <ele>2507</ele>
        <time>2024-06-05T21:15:50+00:00</time>
      </trkpt>
      <trkpt lat="45.16578" lon="5.97203">
        <ele>2507</ele>
        <time>2024-06-05T21:15:53+00:00</time>
      </trkpt>
      <trkpt lat="45.16578" lon="5.97207">
        <ele>2507</ele>
        <time>2024-06-05T21:15:56+00:00</time>
      </trkpt>
      <trkpt lat="45.16577" lon="5.9721">
        <ele>2509</ele>
        <time>2024-06-05T21:15:59+00:00</time>
      </trkpt>
      <trkpt lat="45.16577" lon="5.97215">
        <ele>2509</ele>
        <time>2024-06-05T21:16:02+00:00</time>
      </trkpt>
      <trkpt lat="45.16575" lon="5.97213">
        <ele>2509</ele>
        <time>2024-06-05T21:16:05+00:00</time>
      </trkpt>
      <trkpt lat="45.16573" lon="5.97213">
        <ele>2509</ele>
        <time>2024-06-05T21:16:08+00:00</time>
      </trkpt>
      <trkpt lat="45.16572" lon="5.97214">
        <ele>2509</ele>
        <time>2024-06-05T21:16:11+00:00</time>
      </trkpt>
      <trkpt lat="45.16572" lon="5.97215">
        <ele>2509</ele>
        <time>2024-06-05T21:16:14+00:00</time>
      </trkpt>
      <trkpt lat="45.16572" lon="5.97217">
        <ele>2509</ele>
        <time>2024-06-05T21:16:17+00:00</time>
      </trkpt>
      <trkpt lat="45.16571" lon="5.97216">
        <ele>2509</ele>
        <time>2024-06-05T21:16:20+00:00</time>
      </trkpt>
      <trkpt lat="45.1657" lon="5.97215">
        <ele>2509</ele>
        <time>2024-06-05T21:16:23+00:00</time>
      </trkpt>
      <trkpt lat="45.1657" lon="5.97217">
        <ele>2516</ele>
        <time>2024-06-05T21:16:26+00:00</time>
      </trkpt>
      <trkpt lat="45.16569" lon="5.97219">
        <ele>2516</ele>
        <time>2024-06-05T21:16:29+00:00</time>
      </trkpt>
      <trkpt lat="45.16569" lon="5.97222">
        <ele>2516</ele>
        <time>2024-06-05T21:16:32+00:00</time>
      </trkpt>
      <trkpt lat="45.16569" lon="5.97225">
        <ele>2516</ele>
        <time>2024-06-05T21:16:35+00:00</time>
      </trkpt>
      <trkpt lat="45.16567" lon="5.97226">
        <ele>2516</ele>
        <time>2024-06-05T21:16:38+00:00</time>
      </trkpt>
      <trkpt lat="45.16566" lon="5.97224">
        <ele>2516</ele>
        <time>2024-06-05T21:16:41+00:00</time>
      </trkpt>
      <trkpt lat="45.16564" lon="5.97223">
        <ele>2516</ele>
        <time>2024-06-05T21:16:44+00:00</time>
      </trkpt>
      <trkpt lat="45.16563" lon="5.97223">
        <ele>2516</ele>
        <time>2024-06-05T21:16:47+00:00</time>
      </trkpt>
      <trkpt lat="45.16562" lon="5.97224">
        <ele>2516</ele>
        <time>2024-06-05T21:16:50+00:00</time>
      </trkpt>
      <trkpt lat="45.16561" lon="5.97227">
        <ele>2516</ele>
        <time>2024-06-05T21:16:53+00:00</time>
      </trkpt>
      <trkpt lat="45.1656" lon="5.97226">
        <ele>2516</ele>
        <time>2024-06-05T21:16:56+00:00</time>
      </trkpt>
      <trkpt lat="45.16559" lon="5.97226">
        <ele>2521</ele>
        <time>2024-06-05T21:16:59+00:00</time>
      </trkpt>
      <trkpt lat="45.16558" lon="5.97229">
        <ele>2521</ele>
        <time>2024-06-05T21:17:02+00:00</time>
      </trkpt>
      <trkpt lat="45.16557" lon="5.97233">
        <ele>2521</ele>
        <time>2024-06-05T21:17:05+00:00</time>
      </trkpt>
      <trkpt lat="45.16556" lon="5.97236">
        <ele>2521</ele>
        <time>2024-06-05T21:17:08+00:00</time>
      </trkpt>
      <trkpt lat="45.16555" lon="5.97238">
        <ele>2521</ele>
        <time>2024-06-05T21:17:11+00:00</time>
      </trkpt>
      <trkpt lat="45.16553" lon="5.97236">
        <ele>2521</ele>
        <time>2024-06-05T21:17:14+00:00</time>
      </trkpt>
      <trkpt lat="45.16552" lon="5.97232">
        <ele>2521</ele>
        <time>2024-06-05T21:17:17+00:00</time>
      </trkpt>
      <trkpt lat="45.16551" lon="5.97232">
        <ele>2521</ele>
        <time>2024-06-05T21:17:20+00:00</time>
      </trkpt>
      <trkpt lat="45.16549" lon="5.97234">
        <ele>2525</ele>
        <time>2024-06-05T21:17:23+00:00</time>
      </trkpt>
      <trkpt lat="45.16549" lon="5.97235">
        <ele>2525</ele>
        <time>2024-06-05T21:17:26+00:00</time>
      </trkpt>
      <trkpt lat="45.16548" lon="5.97237">
        <ele>2525</ele>
        <time>2024-06-05T21:17:29+00:00</time>
      </trkpt>
      <trkpt lat="45.16547" lon="5.97239">
        <ele>2525</ele>
        <time>2024-06-05T21:17:32+00:00</time>
      </trkpt>
      <trkpt lat="45.16545" lon="5.97237">
        <ele>2525</ele>
        <time>2024-06-05T21:17:35+00:00</time>
      </trkpt>
      <trkpt lat="45.16544" lon="5.97233">
        <ele>2525</ele>
        <time>2024-06-05T21:17:38+00:00</time>
      </trkpt>
      <trkpt lat="45.16543" lon="5.97231">
        <ele>2525</ele>
        <time>2024-06-05T21:17:41+00:00</time>
      </trkpt>
      <trkpt lat="45.16542" lon="5.97231">
        <ele>2525</ele>
        <time>2024-06-05T21:17:44+00:00</time>
      </trkpt>
      <trkpt lat="45.16541" lon="5.97234">
        <ele>2525</ele>
        <time>2024-06-05T21:17:47+00:00</time>
      </trkpt>
      <trkpt lat="45.16538" lon="5.97233">
        <ele>2533</ele>
        <time>2024-06-05T21:17:50+00:00</time>
      </trkpt>
      <trkpt lat="45.16537" lon="5.97235">
        <ele>2533</ele>
        <time>2024-06-05T21:17:53+00:00</time>
      </trkpt>
      <trkpt lat="45.16537" lon="5.97236">
        <ele>2533</ele>
        <time>2024-06-05T21:17:56+00:00</time>
      </trkpt>
      <trkpt lat="45.16536" lon="5.97237">
        <ele>2533</ele>
        <time>2024-06-05T21:17:59+00:00</time>
      </trkpt>
      <trkpt lat="45.16534" lon="5.97237">
        <ele>2533</ele>
        <time>2024-06-05T21:18:02+00:00</time>
      </trkpt>
      <trkpt lat="45.16532" lon="5.97233">
        <ele>2533</ele>
        <time>2024-06-05T21:18:05+00:00</time>
      </trkpt>
      <trkpt lat="45.1653" lon="5.97232">
        <ele>2538</ele>
        <time>2024-06-05T21:18:08+00:00</time>
      </trkpt>
      <trkpt lat="45.16528" lon="5.97233">
        <ele>2538</ele>
        <time>2024-06-05T21:18:11+00:00</time>
      </trkpt>
      <trkpt lat="45.16527" lon="5.97234">
        <ele>2538</ele>
        <time>2024-06-05T21:18:14+00:00</time>
      </trkpt>
      <trkpt lat="45.16526" lon="5.97237">
        <ele>2538</ele>
        <time>2024-06-05T21:18:17+00:00</time>
      </trkpt>
      <trkpt lat="45.16524" lon="5.9724">
        <ele>2538</ele>
        <time>2024-06-05T21:18:20+00:00</time>
      </trkpt>
      <trkpt lat="45.16522" lon="5.97242">
        <ele>2536</ele>
        <time>2024-06-05T21:18:23+00:00</time>
      </trkpt>
      <trkpt lat="45.16521" lon="5.97244">
        <ele>2536</ele>
        <time>2024-06-05T21:18:26+00:00</time>
      </trkpt>
      <trkpt lat="45.1652" lon="5.97242">
        <ele>2542</ele>
        <time>2024-06-05T21:18:29+00:00</time>
      </trkpt>
      <trkpt lat="45.16519" lon="5.97241">
        <ele>2542</ele>
        <time>2024-06-05T21:18:32+00:00</time>
      </trkpt>
      <trkpt lat="45.16517" lon="5.97242">
        <ele>2542</ele>
        <time>2024-06-05T21:18:35+00:00</time>
      </trkpt>
      <trkpt lat="45.16517" lon="5.97246">
        <ele>2542</ele>
        <time>2024-06-05T21:18:38+00:00</time>
      </trkpt>
      <trkpt lat="45.16515" lon="5.97247">
        <ele>2542</ele>
        <time>2024-06-05T21:18:41+00:00</time>
      </trkpt>
      <trkpt lat="45.16511" lon="5.97242">
        <ele>2542</ele>
        <time>2024-06-05T21:18:44+00:00</time>
      </trkpt>
      <trkpt lat="45.1651" lon="5.9724">
        <ele>2551</ele>
        <time>2024-06-05T21:18:47+00:00</time>
      </trkpt>
      <trkpt lat="45.16509" lon="5.9724">
        <ele>2551</ele>
        <time>2024-06-05T21:18:50+00:00</time>
      </trkpt>
      <trkpt lat="45.16505" lon="5.97241">
        <ele>2551</ele>
        <time>2024-06-05T21:18:53+00:00</time>
      </trkpt>
      <trkpt lat="45.16502" lon="5.97243">
        <ele>2551</ele>
        <time>2024-06-05T21:18:56+00:00</time>
      </trkpt>
      <trkpt lat="45.165" lon="5.97245">
        <ele>2557</ele>
        <time>2024-06-05T21:18:59+00:00</time>
      </trkpt>
      <trkpt lat="45.16498" lon="5.97245">
        <ele>2557</ele>
        <time>2024-06-05T21:19:02+00:00</time>
      </trkpt>
      <trkpt lat="45.16495" lon="5.97247">
        <ele>2557</ele>
        <time>2024-06-05T21:19:05+00:00</time>
      </trkpt>
      <trkpt lat="45.16494" lon="5.9725">
        <ele>2557</ele>
        <time>2024-06-05T21:19:08+00:00</time>
      </trkpt>
      <trkpt lat="45.16492" lon="5.97251">
        <ele>2556</ele>
        <time>2024-06-05T21:19:11+00:00</time>
      </trkpt>
      <trkpt lat="45.16492" lon="5.97254">
        <ele>2556</ele>
        <time>2024-06-05T21:19:14+00:00</time>
      </trkpt>
      <trkpt lat="45.16491" lon="5.97255">
        <ele>2556</ele>
        <time>2024-06-05T21:19:17+00:00</time>
      </trkpt>
      <trkpt lat="45.1649" lon="5.97255">
        <ele>2556</ele>
        <time>2024-06-05T21:19:20+00:00</time>
      </trkpt>
      <trkpt lat="45.16489" lon="5.97254">
        <ele>2562</ele>
        <time>2024-06-05T21:19:23+00:00</time>
      </trkpt>
      <trkpt lat="45.16488" lon="5.97253">
        <ele>2562</ele>
        <time>2024-06-05T21:19:26+00:00</time>
      </trkpt>
      <trkpt lat="45.16487" lon="5.97254">
        <ele>2562</ele>
        <time>2024-06-05T21:19:29+00:00</time>
      </trkpt>
      <trkpt lat="45.16486" lon="5.97259">
        <ele>2562</ele>
        <time>2024-06-05T21:19:32+00:00</time>
      </trkpt>
      <trkpt lat="45.16485" lon="5.9726">
        <ele>2562</ele>
        <time>2024-06-05T21:19:35+00:00</time>
      </trkpt>
      <trkpt lat="45.16483" lon="5.97258">
        <ele>2562</ele>
        <time>2024-06-05T21:19:38+00:00</time>
      </trkpt>
      <trkpt lat="45.16482" lon="5.97256">
        <ele>2562</ele>
        <time>2024-06-05T21:19:41+00:00</time>
      </trkpt>
      <trkpt lat="45.16481" lon="5.97256">
        <ele>2562</ele>
        <time>2024-06-05T21:19:44+00:00</time>
      </trkpt>
      <trkpt lat="45.1648" lon="5.97257">
        <ele>2568</ele>
        <time>2024-06-05T21:19:47+00:00</time>
      </trkpt>
      <trkpt lat="45.16479" lon="5.97261">
        <ele>2569</ele>
        <time>2024-06-05T21:19:50+00:00</time>
      </trkpt>
      <trkpt lat="45.16479" lon="5.97264">
        <ele>2569</ele>
        <time>2024-06-05T21:19:53+00:00</time>
      </trkpt>
      <trkpt lat="45.16477" lon="5.97263">
        <ele>2569</ele>
        <time>2024-06-05T21:19:56+00:00</time>
      </trkpt>
      <trkpt lat="45.16475" lon="5.97261">
        <ele>2569</ele>
        <time>2024-06-05T21:19:59+00:00</time>
      </trkpt>
      <trkpt lat="45.16474" lon="5.97261">
        <ele>2569</ele>
        <time>2024-06-05T21:20:02+00:00</time>
      </trkpt>
      <trkpt lat="45.16472" lon="5.97261">
        <ele>2569</ele>
        <time>2024-06-05T21:20:05+00:00</time>
      </trkpt>
      <trkpt lat="45.16473" lon="5.97266">
        <ele>2569</ele>
        <time>2024-06-05T21:20:08+00:00</time>
      </trkpt>
      <trkpt lat="45.16473" lon="5.97268">
        <ele>2569</ele>
        <time>2024-06-05T21:20:11+00:00</time>
      </trkpt>
      <trkpt lat="45.16472" lon="5.9727">
        <ele>2569</ele>
        <time>2024-06-05T21:20:14+00:00</time>
      </trkpt>
      <trkpt lat="45.16471" lon="5.97271">
        <ele>2570</ele>
        <time>2024-06-05T21:20:17+00:00</time>
      </trkpt>
      <trkpt lat="45.1647" lon="5.97276">
        <ele>2570</ele>
        <time>2024-06-05T21:20:20+00:00</time>
      </trkpt>
      <trkpt lat="45.16469" lon="5.97278">
        <ele>2574</ele>
        <time>2024-06-05T21:20:23+00:00</time>
      </trkpt>
      <trkpt lat="45.16469" lon="5.97278">
        <ele>2574</ele>
        <time>2024-06-05T21:20:26+00:00</time>
      </trkpt>
      <trkpt lat="45.16469" lon="5.97278">
        <ele>2574</ele>
        <time>2024-06-05T21:20:29+00:00</time>
      </trkpt>
      <trkpt lat="45.16467" lon="5.97278">
        <ele>2574</ele>
        <time>2024-06-05T21:20:32+00:00</time>
      </trkpt>
      <trkpt lat="45.16466" lon="5.97282">
        <ele>2576</ele>
        <time>2024-06-05T21:20:35+00:00</time>
      </trkpt>
      <trkpt lat="45.16464" lon="5.97283">
        <ele>2576</ele>
        <time>2024-06-05T21:20:38+00:00</time>
      </trkpt>
      <trkpt lat="45.16462" lon="5.97285">
        <ele>2576</ele>
        <time>2024-06-05T21:20:41+00:00</time>
      </trkpt>
      <trkpt lat="45.1646" lon="5.97286">
        <ele>2576</ele>
        <time>2024-06-05T21:20:44+00:00</time>
      </trkpt>
      <trkpt lat="45.1646" lon="5.9729">
        <ele>2579</ele>
        <time>2024-06-05T21:20:47+00:00</time>
      </trkpt>
      <trkpt lat="45.16457" lon="5.97301">
        <ele>2580</ele>
        <time>2024-06-05T21:20:50+00:00</time>
      </trkpt>
      <trkpt lat="45.16448" lon="5.97311">
        <ele>2584</ele>
        <time>2024-06-05T21:20:53+00:00</time>
      </trkpt>
      <trkpt lat="45.16441" lon="5.97317">
        <ele>2584</ele>
        <time>2024-06-05T21:20:56+00:00</time>
      </trkpt>
      <trkpt lat="45.16432" lon="5.97324">
        <ele>2587</ele>
        <time>2024-06-05T21:20:59+00:00</time>
      </trkpt>
      <trkpt lat="45.16423" lon="5.97332">
        <ele>2590</ele>
        <time>2024-06-05T21:21:02+00:00</time>
      </trkpt>
      <trkpt lat="45.16419" lon="5.97339">
        <ele>2590</ele>
        <time>2024-06-05T21:21:05+00:00</time>
      </trkpt>
      <trkpt lat="45.16413" lon="5.97344">
        <ele>2592</ele>
        <time>2024-06-05T21:21:08+00:00</time>
      </trkpt>
      <trkpt lat="45.16408" lon="5.97354">
        <ele>2594</ele>
        <time>2024-06-05T21:21:11+00:00</time>
      </trkpt>
      <trkpt lat="45.16402" lon="5.97364">
        <ele>2594</ele>
        <time>2024-06-05T21:21:14+00:00</time>
      </trkpt>
      <trkpt lat="45.16395" lon="5.97372">
        <ele>2595</ele>
        <time>2024-06-05T21:21:17+00:00</time>
      </trkpt>
      <trkpt lat="45.16389" lon="5.97378">
        <ele>2599</ele>
        <time>2024-06-05T21:21:20+00:00</time>
      </trkpt>
      <trkpt lat="45.16385" lon="5.97387">
        <ele>2600</ele>
        <time>2024-06-05T21:21:23+00:00</time>
      </trkpt>
      <trkpt lat="45.1638" lon="5.97395">
        <ele>2605</ele>
        <time>2024-06-05T21:21:26+00:00</time>
      </trkpt>
      <trkpt lat="45.16375" lon="5.97403">
        <ele>2609</ele>
        <time>2024-06-05T21:21:29+00:00</time>
      </trkpt>
      <trkpt lat="45.16369" lon="5.97405">
        <ele>2613</ele>
        <time>2024-06-05T21:21:32+00:00</time>
      </trkpt>
      <trkpt lat="45.16361" lon="5.97403">
        <ele>2613</ele>
        <time>2024-06-05T21:21:35+00:00</time>
      </trkpt>
      <trkpt lat="45.16354" lon="5.97399">
        <ele>2616</ele>
        <time>2024-06-05T21:21:38+00:00</time>
      </trkpt>
      <trkpt lat="45.16347" lon="5.9739">
        <ele>2620</ele>
        <time>2024-06-05T21:21:41+00:00</time>
      </trkpt>
      <trkpt lat="45.16337" lon="5.97387">
        <ele>2625</ele>
        <time>2024-06-05T21:21:44+00:00</time>
      </trkpt>
      <trkpt lat="45.16329" lon="5.97398">
        <ele>2635</ele>
        <time>2024-06-05T21:21:47+00:00</time>
      </trkpt>
      <trkpt lat="45.16319" lon="5.97407">
        <ele>2641</ele>
        <time>2024-06-05T21:21:50+00:00</time>
      </trkpt>
      <trkpt lat="45.16309" lon="5.97416">
        <ele>2647</ele>
        <time>2024-06-05T21:21:53+00:00</time>
      </trkpt>
      <trkpt lat="45.16297" lon="5.9743">
        <ele>2654</ele>
        <time>2024-06-05T21:21:56+00:00</time>
      </trkpt>
      <trkpt lat="45.16292" lon="5.97445">
        <ele>2654</ele>
        <time>2024-06-05T21:21:59+00:00</time>
      </trkpt>
      <trkpt lat="45.16287" lon="5.97457">
        <ele>2657</ele>
        <time>2024-06-05T21:22:02+00:00</time>
      </trkpt>
      <trkpt lat="45.16285" lon="5.97465">
        <ele>2657</ele>
        <time>2024-06-05T21:22:05+00:00</time>
      </trkpt>
      <trkpt lat="45.16297" lon="5.97474">
        <ele>2657</ele>
        <time>2024-06-05T21:22:08+00:00</time>
      </trkpt>
      <trkpt lat="45.16301" lon="5.97484">
        <ele>2662</ele>
        <time>2024-06-05T21:22:11+00:00</time>
      </trkpt>
      <trkpt lat="45.1631" lon="5.97495">
        <ele>2666</ele>
        <time>2024-06-05T21:22:14+00:00</time>
      </trkpt>
      <trkpt lat="45.16323" lon="5.97525">
        <ele>2668</ele>
        <time>2024-06-05T21:22:17+00:00</time>
      </trkpt>
      <trkpt lat="45.16332" lon="5.97544">
        <ele>2671</ele>
        <time>2024-06-05T21:22:20+00:00</time>
      </trkpt>
      <trkpt lat="45.16344" lon="5.97577">
        <ele>2676</ele>
        <time>2024-06-05T21:22:23+00:00</time>
      </trkpt>
      <trkpt lat="45.16347" lon="5.97599">
        <ele>2676</ele>
        <time>2024-06-05T21:22:26+00:00</time>
      </trkpt>
      <trkpt lat="45.16362" lon="5.97623">
        <ele>2686</ele>
        <time>2024-06-05T21:22:29+00:00</time>
      </trkpt>
      <trkpt lat="45.1638" lon="5.97647">
        <ele>2690</ele>
        <time>2024-06-05T21:22:32+00:00</time>
      </trkpt>
      <trkpt lat="45.16388" lon="5.97667">
        <ele>2692</ele>
        <time>2024-06-05T21:22:35+00:00</time>
      </trkpt>
      <trkpt lat="45.16396" lon="5.97678">
        <ele>2697</ele>
        <time>2024-06-05T21:22:38+00:00</time>
      </trkpt>
      <trkpt lat="45.16413" lon="5.97702">
        <ele>2703</ele>
        <time>2024-06-05T21:22:41+00:00</time>
      </trkpt>
      <trkpt lat="45.16418" lon="5.97719">
        <ele>2703</ele>
        <time>2024-06-05T21:22:44+00:00</time>
      </trkpt>
      <trkpt lat="45.16428" lon="5.9774">
        <ele>2706</ele>
        <time>2024-06-05T21:22:47+00:00</time>
      </trkpt>
      <trkpt lat="45.16435" lon="5.97762">
        <ele>2707</ele>
        <time>2024-06-05T21:22:50+00:00</time>
      </trkpt>
      <trkpt lat="45.16456" lon="5.97789">
        <ele>2708</ele>
        <time>2024-06-05T21:22:53+00:00</time>
      </trkpt>
      <trkpt lat="45.16463" lon="5.97813">
        <ele>2708</ele>
        <time>2024-06-05T21:22:56+00:00</time>
      </trkpt>
      <trkpt lat="45.16471" lon="5.97831">
        <ele>2711</ele>
        <time>2024-06-05T21:22:59+00:00</time>
      </trkpt>
      <trkpt lat="45.16484" lon="5.97843">
        <ele>2713</ele>
        <time>2024-06-05T21:23:02+00:00</time>
      </trkpt>
      <trkpt lat="45.16497" lon="5.97848">
        <ele>2711</ele>
        <time>2024-06-05T21:23:05+00:00</time>
      </trkpt>
      <trkpt lat="45.1651" lon="5.97862">
        <ele>2711</ele>
        <time>2024-06-05T21:23:08+00:00</time>
      </trkpt>
      <trkpt lat="45.16513" lon="5.97898">
        <ele>2712</ele>
        <time>2024-06-05T21:23:11+00:00</time>
      </trkpt>
      <trkpt lat="45.16517" lon="5.97939">
        <ele>2716</ele>
        <time>2024-06-05T21:23:14+00:00</time>
      </trkpt>
      <trkpt lat="45.16531" lon="5.97974">
        <ele>2719</ele>
        <time>2024-06-05T21:23:17+00:00</time>
      </trkpt>
      <trkpt lat="45.16541" lon="5.97984">
        <ele>2721</ele>
        <time>2024-06-05T21:23:20+00:00</time>
      </trkpt>
      <trkpt lat="45.16541" lon="5.97984">
        <ele>2721</ele>
        <time>2024-06-05T21:23:23+00:00</time>
      </trkpt>
      <trkpt lat="45.16547" lon="5.98001">
        <ele>2724</ele>
        <time>2024-06-05T21:23:26+00:00</time>
      </trkpt>
      <trkpt lat="45.16547" lon="5.9802">
        <ele>2725</ele>
        <time>2024-06-05T21:23:29+00:00</time>
      </trkpt>
      <trkpt lat="45.1655" lon="5.98032">
        <ele>2729</ele>
        <time>2024-06-05T21:23:32+00:00</time>
      </trkpt>
      <trkpt lat="45.1655" lon="5.98051">
        <ele>2732</ele>
        <time>2024-06-05T21:23:35+00:00</time>
      </trkpt>
      <trkpt lat="45.16546" lon="5.98065">
        <ele>2735</ele>
        <time>2024-06-05T21:23:38+00:00</time>
      </trkpt>
      <trkpt lat="45.16548" lon="5.98078">
        <ele>2737</ele>
        <time>2024-06-05T21:23:41+00:00</time>
      </trkpt>
      <trkpt lat="45.16547" lon="5.98088">
        <ele>2739</ele>
        <time>2024-06-05T21:23:44+00:00</time>
      </trkpt>
      <trkpt lat="45.16539" lon="5.98106">
        <ele>2744</ele>
        <time>2024-06-05T21:23:47+00:00</time>
      </trkpt>
      <trkpt lat="45.16532" lon="5.98122">
        <ele>2749</ele>
        <time>2024-06-05T21:23:50+00:00</time>
      </trkpt>
      <trkpt lat="45.16529" lon="5.98141">
        <ele>2752</ele>
        <time>2024-06-05T21:23:53+00:00</time>
      </trkpt>
      <trkpt lat="45.16536" lon="5.98157">
        <ele>2754</ele>
        <time>2024-06-05T21:23:56+00:00</time>
      </trkpt>
      <trkpt lat="45.16545" lon="5.98182">
        <ele>2759</ele>
        <time>2024-06-05T21:23:59+00:00</time>
      </trkpt>
      <trkpt lat="45.16554" lon="5.98188">
        <ele>2760</ele>
        <time>2024-06-05T21:24:02+00:00</time>
      </trkpt>
      <trkpt lat="45.16558" lon="5.98194">
        <ele>2761</ele>
        <time>2024-06-05T21:24:05+00:00</time>
      </trkpt>
      <trkpt lat="45.16561" lon="5.98201">
        <ele>2763</ele>
        <time>2024-06-05T21:24:08+00:00</time>
      </trkpt>
      <trkpt lat="45.16565" lon="5.98223">
        <ele>2763</ele>
        <time>2024-06-05T21:24:11+00:00</time>
      </trkpt>
      <trkpt lat="45.16565" lon="5.98234">
        <ele>2764</ele>
        <time>2024-06-05T21:24:14+00:00</time>
      </trkpt>
      <trkpt lat="45.16568" lon="5.98254">
        <ele>2768</ele>
        <time>2024-06-05T21:24:17+00:00</time>
      </trkpt>
      <trkpt lat="45.16576" lon="5.98263">
        <ele>2771</ele>
        <time>2024-06-05T21:24:20+00:00</time>
      </trkpt>
      <trkpt lat="45.16579" lon="5.98273">
        <ele>2771</ele>
        <time>2024-06-05T21:24:23+00:00</time>
      </trkpt>
      <trkpt lat="45.16574" lon="5.9829">
        <ele>2771</ele>
        <time>2024-06-05T21:24:26+00:00</time>
      </trkpt>
      <trkpt lat="45.16572" lon="5.98303">
        <ele>2773</ele>
        <time>2024-06-05T21:24:29+00:00</time>
      </trkpt>
      <trkpt lat="45.16574" lon="5.9832">
        <ele>2773</ele>
        <time>2024-06-05T21:24:32+00:00</time>
      </trkpt>
      <trkpt lat="45.16572" lon="5.98333">
        <ele>2774</ele>
        <time>2024-06-05T21:24:35+00:00</time>
      </trkpt>
      <trkpt lat="45.16572" lon="5.98351">
        <ele>2775</ele>
        <time>2024-06-05T21:24:38+00:00</time>
      </trkpt>
      <trkpt lat="45.16575" lon="5.98371">
        <ele>2778</ele>
        <time>2024-06-05T21:24:41+00:00</time>
      </trkpt>
      <trkpt lat="45.16576" lon="5.98392">
        <ele>2780</ele>
        <time>2024-06-05T21:24:44+00:00</time>
      </trkpt>
      <trkpt lat="45.16577" lon="5.98413">
        <ele>2783</ele>
        <time>2024-06-05T21:24:47+00:00</time>
      </trkpt>
      <trkpt lat="45.16581" lon="5.98432">
        <ele>2785</ele>
        <time>2024-06-05T21:24:50+00:00</time>
      </trkpt>
      <trkpt lat="45.16591" lon="5.9844">
        <ele>2785</ele>
        <time>2024-06-05T21:24:53+00:00</time>
      </trkpt>
      <trkpt lat="45.16602" lon="5.98461">
        <ele>2789</ele>
        <time>2024-06-05T21:24:56+00:00</time>
      </trkpt>
      <trkpt lat="45.16613" lon="5.98473">
        <ele>2792</ele>
        <time>2024-06-05T21:24:59+00:00</time>
      </trkpt>
      <trkpt lat="45.16615" lon="5.9849">
        <ele>2792</ele>
        <time>2024-06-05T21:25:02+00:00</time>
      </trkpt>
      <trkpt lat="45.16625" lon="5.98513">
        <ele>2799</ele>
        <time>2024-06-05T21:25:05+00:00</time>
      </trkpt>
      <trkpt lat="45.16628" lon="5.98529">
        <ele>2802</ele>
        <time>2024-06-05T21:25:08+00:00</time>
      </trkpt>
      <trkpt lat="45.16628" lon="5.98545">
        <ele>2805</ele>
        <time>2024-06-05T21:25:11+00:00</time>
      </trkpt>
      <trkpt lat="45.16631" lon="5.98561">
        <ele>2816</ele>
        <time>2024-06-05T21:25:14+00:00</time>
      </trkpt>
      <trkpt lat="45.16636" lon="5.98577">
        <ele>2816</ele>
        <time>2024-06-05T21:25:17+00:00</time>
      </trkpt>
      <trkpt lat="45.16634" lon="5.98587">
        <ele>2816</ele>
        <time>2024-06-05T21:25:20+00:00</time>
      </trkpt>
      <trkpt lat="45.1664" lon="5.986">
        <ele>2817</ele>
        <time>2024-06-05T21:25:23+00:00</time>
      </trkpt>
      <trkpt lat="45.16648" lon="5.98612">
        <ele>2826</ele>
        <time>2024-06-05T21:25:26+00:00</time>
      </trkpt>
      <trkpt lat="45.16658" lon="5.98615">
        <ele>2830</ele>
        <time>2024-06-05T21:25:29+00:00</time>
      </trkpt>
      <trkpt lat="45.16667" lon="5.98634">
        <ele>2834</ele>
        <time>2024-06-05T21:25:32+00:00</time>
      </trkpt>
      <trkpt lat="45.16661" lon="5.9865">
        <ele>2836</ele>
        <time>2024-06-05T21:25:35+00:00</time>
      </trkpt>
      <trkpt lat="45.16663" lon="5.98662">
        <ele>2840</ele>
        <time>2024-06-05T21:25:38+00:00</time>
      </trkpt>
      <trkpt lat="45.16657" lon="5.98671">
        <ele>2839</ele>
        <time>2024-06-05T21:25:41+00:00</time>
      </trkpt>
      <trkpt lat="45.16663" lon="5.98689">
        <ele>2845</ele>
        <time>2024-06-05T21:25:44+00:00</time>
      </trkpt>
      <trkpt lat="45.16671" lon="5.98697">
        <ele>2847</ele>
        <time>2024-06-05T21:25:47+00:00</time>
      </trkpt>
      <trkpt lat="45.16678" lon="5.98717">
        <ele>2845</ele>
        <time>2024-06-05T21:25:50+00:00</time>
      </trkpt>
      <trkpt lat="45.16682" lon="5.98728">
        <ele>2849</ele>
        <time>2024-06-05T21:25:53+00:00</time>
      </trkpt>
      <trkpt lat="45.16687" lon="5.98739">
        <ele>2847</ele>
        <time>2024-06-05T21:25:56+00:00</time>
      </trkpt>
      <trkpt lat="45.16694" lon="5.98754">
        <ele>2852</ele>
        <time>2024-06-05T21:25:59+00:00</time>
      </trkpt>
      <trkpt lat="45.167" lon="5.98764">
        <ele>2850</ele>
        <time>2024-06-05T21:26:02+00:00</time>
      </trkpt>
      <trkpt lat="45.16708" lon="5.98774">
        <ele>2853</ele>
        <time>2024-06-05T21:26:05+00:00</time>
      </trkpt>
      <trkpt lat="45.1672" lon="5.98778">
        <ele>2858</ele>
        <time>2024-06-05T21:26:08+00:00</time>
      </trkpt>
      <trkpt lat="45.16728" lon="5.98783">
        <ele>2864</ele>
        <time>2024-06-05T21:26:11+00:00</time>
      </trkpt>
      <trkpt lat="45.16736" lon="5.98788">
        <ele>2868</ele>
        <time>2024-06-05T21:26:14+00:00</time>
      </trkpt>
      <trkpt lat="45.16746" lon="5.98795">
        <ele>2871</ele>
        <time>2024-06-05T21:26:17+00:00</time>
      </trkpt>
      <trkpt lat="45.16755" lon="5.98797">
        <ele>2877</ele>
        <time>2024-06-05T21:26:20+00:00</time>
      </trkpt>
      <trkpt lat="45.16762" lon="5.98804">
        <ele>2879</ele>
        <time>2024-06-05T21:26:23+00:00</time>
      </trkpt>
      <trkpt lat="45.16767" lon="5.98809">
        <ele>2879</ele>
        <time>2024-06-05T21:26:26+00:00</time>
      </trkpt>
      <trkpt lat="45.1678" lon="5.98809">
        <ele>2882</ele>
        <time>2024-06-05T21:26:29+00:00</time>
      </trkpt>
      <trkpt lat="45.16789" lon="5.98798">
        <ele>2887</ele>
        <time>2024-06-05T21:26:32+00:00</time>
      </trkpt>
      <trkpt lat="45.16798" lon="5.988">
        <ele>2890</ele>
        <time>2024-06-05T21:26:35+00:00</time>
      </trkpt>
      <trkpt lat="45.16821" lon="5.98804">
        <ele>2884</ele>
        <time>2024-06-05T21:26:38+00:00</time>
      </trkpt>
      <trkpt lat="45.16851" lon="5.98809">
        <ele>2888</ele>
        <time>2024-06-05T21:26:41+00:00</time>
      </trkpt>
      <trkpt lat="45.16823" lon="5.988">
        <ele>2889</ele>
        <time>2024-06-05T21:26:44+00:00</time>
      </trkpt>
      <trkpt lat="45.16815" lon="5.98789">
        <ele>2891</ele>
        <time>2024-06-05T21:26:47+00:00</time>
      </trkpt>
      <trkpt lat="45.16802" lon="5.98785">
        <ele>2884</ele>
        <time>2024-06-05T21:26:50+00:00</time>
      </trkpt>
      <trkpt lat="45.16796" lon="5.98767">
        <ele>2885</ele>
        <time>2024-06-05T21:26:53+00:00</time>
      </trkpt>
      <trkpt lat="45.16786" lon="5.98756">
        <ele>2880</ele>
        <time>2024-06-05T21:26:56+00:00</time>
      </trkpt>
      <trkpt lat="45.16786" lon="5.98733">
        <ele>2874</ele>
        <time>2024-06-05T21:26:59+00:00</time>
      </trkpt>
      <trkpt lat="45.16782" lon="5.98724">
        <ele>2869</ele>
        <time>2024-06-05T21:27:02+00:00</time>
      </trkpt>
      <trkpt lat="45.16777" lon="5.98714">
        <ele>2866</ele>
        <time>2024-06-05T21:27:05+00:00</time>
      </trkpt>
      <trkpt lat="45.1677" lon="5.98706">
        <ele>2864</ele>
        <time>2024-06-05T21:27:08+00:00</time>
      </trkpt>
      <trkpt lat="45.1677" lon="5.98697">
        <ele>2860</ele>
        <time>2024-06-05T21:27:11+00:00</time>
      </trkpt>
      <trkpt lat="45.1677" lon="5.98688">
        <ele>2857</ele>
        <time>2024-06-05T21:27:14+00:00</time>
      </trkpt>
      <trkpt lat="45.16761" lon="5.98681">
        <ele>2857</ele>
        <time>2024-06-05T21:27:17+00:00</time>
      </trkpt>
      <trkpt lat="45.16753" lon="5.98681">
        <ele>2857</ele>
        <time>2024-06-05T21:27:20+00:00</time>
      </trkpt>
      <trkpt lat="45.16748" lon="5.98669">
        <ele>2850</ele>
        <time>2024-06-05T21:27:23+00:00</time>
      </trkpt>
      <trkpt lat="45.16739" lon="5.98656">
        <ele>2847</ele>
        <time>2024-06-05T21:27:26+00:00</time>
      </trkpt>
      <trkpt lat="45.16736" lon="5.98644">
        <ele>2845</ele>
        <time>2024-06-05T21:27:29+00:00</time>
      </trkpt>
      <trkpt lat="45.16736" lon="5.98628">
        <ele>2838</ele>
        <time>2024-06-05T21:27:32+00:00</time>
      </trkpt>
      <trkpt lat="45.16736" lon="5.98615">
        <ele>2836</ele>
        <time>2024-06-05T21:27:35+00:00</time>
      </trkpt>
      <trkpt lat="45.16728" lon="5.98607">
        <ele>2833</ele>
        <time>2024-06-05T21:27:38+00:00</time>
      </trkpt>
      <trkpt lat="45.16724" lon="5.9859">
        <ele>2828</ele>
        <time>2024-06-05T21:27:41+00:00</time>
      </trkpt>
      <trkpt lat="45.16724" lon="5.98571">
        <ele>2825</ele>
        <time>2024-06-05T21:27:44+00:00</time>
      </trkpt>
      <trkpt lat="45.16722" lon="5.98556">
        <ele>2821</ele>
        <time>2024-06-05T21:27:47+00:00</time>
      </trkpt>
      <trkpt lat="45.16723" lon="5.98545">
        <ele>2819</ele>
        <time>2024-06-05T21:27:50+00:00</time>
      </trkpt>
      <trkpt lat="45.16718" lon="5.98529">
        <ele>2820</ele>
        <time>2024-06-05T21:27:53+00:00</time>
      </trkpt>
      <trkpt lat="45.16715" lon="5.98521">
        <ele>2820</ele>
        <time>2024-06-05T21:27:56+00:00</time>
      </trkpt>
      <trkpt lat="45.16709" lon="5.98495">
        <ele>2815</ele>
        <time>2024-06-05T21:27:59+00:00</time>
      </trkpt>
      <trkpt lat="45.16707" lon="5.98474">
        <ele>2809</ele>
        <time>2024-06-05T21:28:02+00:00</time>
      </trkpt>
      <trkpt lat="45.16698" lon="5.98431">
        <ele>2800</ele>
        <time>2024-06-05T21:28:05+00:00</time>
      </trkpt>
      <trkpt lat="45.16693" lon="5.98405">
        <ele>2797</ele>
        <time>2024-06-05T21:28:08+00:00</time>
      </trkpt>
      <trkpt lat="45.16688" lon="5.98381">
        <ele>2791</ele>
        <time>2024-06-05T21:28:11+00:00</time>
      </trkpt>
      <trkpt lat="45.16686" lon="5.98362">
        <ele>2793</ele>
        <time>2024-06-05T21:28:14+00:00</time>
      </trkpt>
      <trkpt lat="45.16683" lon="5.98336">
        <ele>2789</ele>
        <time>2024-06-05T21:28:17+00:00</time>
      </trkpt>
      <trkpt lat="45.16686" lon="5.98314">
        <ele>2792</ele>
        <time>2024-06-05T21:28:20+00:00</time>
      </trkpt>
      <trkpt lat="45.16679" lon="5.98291">
        <ele>2789</ele>
        <time>2024-06-05T21:28:23+00:00</time>
      </trkpt>
      <trkpt lat="45.16673" lon="5.98264">
        <ele>2792</ele>
        <time>2024-06-05T21:28:26+00:00</time>
      </trkpt>
      <trkpt lat="45.16663" lon="5.98237">
        <ele>2791</ele>
        <time>2024-06-05T21:28:29+00:00</time>
      </trkpt>
      <trkpt lat="45.16667" lon="5.98209">
        <ele>2792</ele>
        <time>2024-06-05T21:28:32+00:00</time>
      </trkpt>
      <trkpt lat="45.16672" lon="5.98199">
        <ele>2792</ele>
        <time>2024-06-05T21:28:35+00:00</time>
      </trkpt>
      <trkpt lat="45.16684" lon="5.98179">
        <ele>2793</ele>
        <time>2024-06-05T21:28:38+00:00</time>
      </trkpt>
      <trkpt lat="45.16698" lon="5.98167">
        <ele>2795</ele>
        <time>2024-06-05T21:28:41+00:00</time>
      </trkpt>
      <trkpt lat="45.16703" lon="5.9815">
        <ele>2796</ele>
        <time>2024-06-05T21:28:44+00:00</time>
      </trkpt>
      <trkpt lat="45.16716" lon="5.98131">
        <ele>2797</ele>
        <time>2024-06-05T21:28:47+00:00</time>
      </trkpt>
      <trkpt lat="45.16709" lon="5.98112">
        <ele>2796</ele>
        <time>2024-06-05T21:28:50+00:00</time>
      </trkpt>
      <trkpt lat="45.16715" lon="5.98079">
        <ele>2796</ele>
        <time>2024-06-05T21:28:53+00:00</time>
      </trkpt>
      <trkpt lat="45.16731" lon="5.98076">
        <ele>2796</ele>
        <time>2024-06-05T21:28:56+00:00</time>
      </trkpt>
      <trkpt lat="45.16743" lon="5.98066">
        <ele>2796</ele>
        <time>2024-06-05T21:28:59+00:00</time>
      </trkpt>
      <trkpt lat="45.16738" lon="5.98055">
        <ele>2797</ele>
        <time>2024-06-05T21:29:02+00:00</time>
      </trkpt>
      <trkpt lat="45.16725" lon="5.98052">
        <ele>2796</ele>
        <time>2024-06-05T21:29:05+00:00</time>
      </trkpt>
      <trkpt lat="45.16716" lon="5.98046">
        <ele>2793</ele>
        <time>2024-06-05T21:29:08+00:00</time>
      </trkpt>
      <trkpt lat="45.16703" lon="5.98061">
        <ele>2792</ele>
        <time>2024-06-05T21:29:11+00:00</time>
      </trkpt>
      <trkpt lat="45.16693" lon="5.9807">
        <ele>2789</ele>
        <time>2024-06-05T21:29:14+00:00</time>
      </trkpt>
      <trkpt lat="45.16684" lon="5.98063">
        <ele>2785</ele>
        <time>2024-06-05T21:29:17+00:00</time>
      </trkpt>
      <trkpt lat="45.16681" lon="5.98052">
        <ele>2785</ele>
        <time>2024-06-05T21:29:20+00:00</time>
      </trkpt>
      <trkpt lat="45.16674" lon="5.98047">
        <ele>2782</ele>
        <time>2024-06-05T21:29:23+00:00</time>
      </trkpt>
      <trkpt lat="45.16669" lon="5.98034">
        <ele>2779</ele>
        <time>2024-06-05T21:29:26+00:00</time>
      </trkpt>
      <trkpt lat="45.16669" lon="5.98023">
        <ele>2777</ele>
        <time>2024-06-05T21:29:29+00:00</time>
      </trkpt>
      <trkpt lat="45.16663" lon="5.98017">
        <ele>2776</ele>
        <time>2024-06-05T21:29:32+00:00</time>
      </trkpt>
      <trkpt lat="45.16658" lon="5.98011">
        <ele>2772</ele>
        <time>2024-06-05T21:29:35+00:00</time>
      </trkpt>
      <trkpt lat="45.16649" lon="5.98003">
        <ele>2767</ele>
        <time>2024-06-05T21:29:38+00:00</time>
      </trkpt>
      <trkpt lat="45.16634" lon="5.9799">
        <ele>2759</ele>
        <time>2024-06-05T21:29:41+00:00</time>
      </trkpt>
      <trkpt lat="45.16632" lon="5.97977">
        <ele>2757</ele>
        <time>2024-06-05T21:29:44+00:00</time>
      </trkpt>
      <trkpt lat="45.1662" lon="5.97964">
        <ele>2748</ele>
        <time>2024-06-05T21:29:47+00:00</time>
      </trkpt>
      <trkpt lat="45.16613" lon="5.97952">
        <ele>2748</ele>
        <time>2024-06-05T21:29:50+00:00</time>
      </trkpt>
      <trkpt lat="45.16608" lon="5.97949">
        <ele>2744</ele>
        <time>2024-06-05T21:29:53+00:00</time>
      </trkpt>
      <trkpt lat="45.166" lon="5.97944">
        <ele>2737</ele>
        <time>2024-06-05T21:29:56+00:00</time>
      </trkpt>
      <trkpt lat="45.16594" lon="5.97939">
        <ele>2736</ele>
        <time>2024-06-05T21:29:59+00:00</time>
      </trkpt>
      <trkpt lat="45.16586" lon="5.97927">
        <ele>2728</ele>
        <time>2024-06-05T21:30:02+00:00</time>
      </trkpt>
      <trkpt lat="45.16577" lon="5.97913">
        <ele>2724</ele>
        <time>2024-06-05T21:30:05+00:00</time>
      </trkpt>
      <trkpt lat="45.16575" lon="5.97899">
        <ele>2720</ele>
        <time>2024-06-05T21:30:08+00:00</time>
      </trkpt>
      <trkpt lat="45.16563" lon="5.97902">
        <ele>2721</ele>
        <time>2024-06-05T21:30:11+00:00</time>
      </trkpt>
      <trkpt lat="45.16558" lon="5.97894">
        <ele>2718</ele>
        <time>2024-06-05T21:30:14+00:00</time>
      </trkpt>
      <trkpt lat="45.16558" lon="5.97876">
        <ele>2713</ele>
        <time>2024-06-05T21:30:17+00:00</time>
      </trkpt>
      <trkpt lat="45.16557" lon="5.97852">
        <ele>2711</ele>
        <time>2024-06-05T21:30:20+00:00</time>
      </trkpt>
      <trkpt lat="45.16556" lon="5.97835">
        <ele>2712</ele>
        <time>2024-06-05T21:30:23+00:00</time>
      </trkpt>
      <trkpt lat="45.16554" lon="5.97817">
        <ele>2711</ele>
        <time>2024-06-05T21:30:26+00:00</time>
      </trkpt>
      <trkpt lat="45.16556" lon="5.97781">
        <ele>2711</ele>
        <time>2024-06-05T21:30:29+00:00</time>
      </trkpt>
      <trkpt lat="45.16555" lon="5.97762">
        <ele>2707</ele>
        <time>2024-06-05T21:30:32+00:00</time>
      </trkpt>
      <trkpt lat="45.16553" lon="5.97736">
        <ele>2696</ele>
        <time>2024-06-05T21:30:35+00:00</time>
      </trkpt>
      <trkpt lat="45.16555" lon="5.97717">
        <ele>2691</ele>
        <time>2024-06-05T21:30:38+00:00</time>
      </trkpt>
      <trkpt lat="45.16548" lon="5.97684">
        <ele>2681</ele>
        <time>2024-06-05T21:30:41+00:00</time>
      </trkpt>
      <trkpt lat="45.16539" lon="5.97651">
        <ele>2673</ele>
        <time>2024-06-05T21:30:44+00:00</time>
      </trkpt>
      <trkpt lat="45.16548" lon="5.97626">
        <ele>2662</ele>
        <time>2024-06-05T21:30:47+00:00</time>
      </trkpt>
      <trkpt lat="45.16546" lon="5.97596">
        <ele>2657</ele>
        <time>2024-06-05T21:30:50+00:00</time>
      </trkpt>
      <trkpt lat="45.16535" lon="5.97569">
        <ele>2646</ele>
        <time>2024-06-05T21:30:53+00:00</time>
      </trkpt>
      <trkpt lat="45.1653" lon="5.97537">
        <ele>2640</ele>
        <time>2024-06-05T21:30:56+00:00</time>
      </trkpt>
      <trkpt lat="45.16533" lon="5.97517">
        <ele>2636</ele>
        <time>2024-06-05T21:30:59+00:00</time>
      </trkpt>
      <trkpt lat="45.16542" lon="5.97515">
        <ele>2637</ele>
        <time>2024-06-05T21:31:02+00:00</time>
      </trkpt>
      <trkpt lat="45.16557" lon="5.97515">
        <ele>2636</ele>
        <time>2024-06-05T21:31:05+00:00</time>
      </trkpt>
      <trkpt lat="45.16558" lon="5.97515">
        <ele>2636</ele>
        <time>2024-06-05T21:31:08+00:00</time>
      </trkpt>
      <trkpt lat="45.1656" lon="5.97516">
        <ele>2636</ele>
        <time>2024-06-05T21:31:11+00:00</time>
      </trkpt>
      <trkpt lat="45.16564" lon="5.97514">
        <ele>2634</ele>
        <time>2024-06-05T21:31:14+00:00</time>
      </trkpt>
      <trkpt lat="45.1657" lon="5.97515">
        <ele>2634</ele>
        <time>2024-06-05T21:31:17+00:00</time>
      </trkpt>
      <trkpt lat="45.16585" lon="5.97517">
        <ele>2635</ele>
        <time>2024-06-05T21:31:20+00:00</time>
      </trkpt>
      <trkpt lat="45.16589" lon="5.97517">
        <ele>2632</ele>
        <time>2024-06-05T21:31:23+00:00</time>
      </trkpt>
      <trkpt lat="45.16597" lon="5.97521">
        <ele>2639</ele>
        <time>2024-06-05T21:31:26+00:00</time>
      </trkpt>
      <trkpt lat="45.16599" lon="5.97525">
        <ele>2639</ele>
        <time>2024-06-05T21:31:29+00:00</time>
      </trkpt>
      <trkpt lat="45.16602" lon="5.97527">
        <ele>2636</ele>
        <time>2024-06-05T21:31:32+00:00</time>
      </trkpt>
      <trkpt lat="45.16609" lon="5.97526">
        <ele>2636</ele>
        <time>2024-06-05T21:31:35+00:00</time>
      </trkpt>
      <trkpt lat="45.16613" lon="5.97528">
        <ele>2634</ele>
        <time>2024-06-05T21:31:38+00:00</time>
      </trkpt>
      <trkpt lat="45.16617" lon="5.97531">
        <ele>2639</ele>
        <time>2024-06-05T21:31:41+00:00</time>
      </trkpt>
      <trkpt lat="45.16623" lon="5.97531">
        <ele>2637</ele>
        <time>2024-06-05T21:31:44+00:00</time>
      </trkpt>
      <trkpt lat="45.16625" lon="5.97533">
        <ele>2637</ele>
        <time>2024-06-05T21:31:47+00:00</time>
      </trkpt>
      <trkpt lat="45.16628" lon="5.97536">
        <ele>2637</ele>
        <time>2024-06-05T21:31:50+00:00</time>
      </trkpt>
      <trkpt lat="45.16636" lon="5.97538">
        <ele>2632</ele>
        <time>2024-06-05T21:31:53+00:00</time>
      </trkpt>
      <trkpt lat="45.1664" lon="5.97541">
        <ele>2637</ele>
        <time>2024-06-05T21:31:56+00:00</time>
      </trkpt>
      <trkpt lat="45.1665" lon="5.97551">
        <ele>2633</ele>
        <time>2024-06-05T21:31:59+00:00</time>
      </trkpt>
      <trkpt lat="45.16655" lon="5.97552">
        <ele>2636</ele>
        <time>2024-06-05T21:32:02+00:00</time>
      </trkpt>
      <trkpt lat="45.16658" lon="5.97554">
        <ele>2636</ele>
        <time>2024-06-05T21:32:05+00:00</time>
      </trkpt>
      <trkpt lat="45.16661" lon="5.97558">
        <ele>2630</ele>
        <time>2024-06-05T21:32:08+00:00</time>
      </trkpt>
      <trkpt lat="45.1667" lon="5.97561">
        <ele>2630</ele>
        <time>2024-06-05T21:32:11+00:00</time>
      </trkpt>
      <trkpt lat="45.16677" lon="5.97564">
        <ele>2630</ele>
        <time>2024-06-05T21:32:14+00:00</time>
      </trkpt>
      <trkpt lat="45.16686" lon="5.97569">
        <ele>2626</ele>
        <time>2024-06-05T21:32:17+00:00</time>
      </trkpt>
      <trkpt lat="45.16692" lon="5.97575">
        <ele>2622</ele>
        <time>2024-06-05T21:32:20+00:00</time>
      </trkpt>
      <trkpt lat="45.16698" lon="5.97579">
        <ele>2622</ele>
        <time>2024-06-05T21:32:23+00:00</time>
      </trkpt>
      <trkpt lat="45.16704" lon="5.97583">
        <ele>2621</ele>
        <time>2024-06-05T21:32:26+00:00</time>
      </trkpt>
      <trkpt lat="45.16706" lon="5.97585">
        <ele>2621</ele>
        <time>2024-06-05T21:32:29+00:00</time>
      </trkpt>
      <trkpt lat="45.1671" lon="5.9759">
        <ele>2621</ele>
        <time>2024-06-05T21:32:32+00:00</time>
      </trkpt>
      <trkpt lat="45.16713" lon="5.97596">
        <ele>2619</ele>
        <time>2024-06-05T21:32:35+00:00</time>
      </trkpt>
      <trkpt lat="45.1672" lon="5.97603">
        <ele>2624</ele>
        <time>2024-06-05T21:32:38+00:00</time>
      </trkpt>
      <trkpt lat="45.16729" lon="5.97606">
        <ele>2616</ele>
        <time>2024-06-05T21:32:41+00:00</time>
      </trkpt>
      <trkpt lat="45.16746" lon="5.97617">
        <ele>2614</ele>
        <time>2024-06-05T21:32:44+00:00</time>
      </trkpt>
      <trkpt lat="45.16759" lon="5.97629">
        <ele>2617</ele>
        <time>2024-06-05T21:32:47+00:00</time>
      </trkpt>
      <trkpt lat="45.16773" lon="5.97641">
        <ele>2616</ele>
        <time>2024-06-05T21:32:50+00:00</time>
      </trkpt>
      <trkpt lat="45.16793" lon="5.97651">
        <ele>2616</ele>
        <time>2024-06-05T21:32:53+00:00</time>
      </trkpt>
      <trkpt lat="45.16806" lon="5.97663">
        <ele>2618</ele>
        <time>2024-06-05T21:32:56+00:00</time>
      </trkpt>
      <trkpt lat="45.1682" lon="5.97671">
        <ele>2618</ele>
        <time>2024-06-05T21:32:59+00:00</time>
      </trkpt>
      <trkpt lat="45.16834" lon="5.97676">
        <ele>2621</ele>
        <time>2024-06-05T21:33:02+00:00</time>
      </trkpt>
      <trkpt lat="45.16845" lon="5.97679">
        <ele>2621</ele>
        <time>2024-06-05T21:33:05+00:00</time>
      </trkpt>
      <trkpt lat="45.16852" lon="5.9768">
        <ele>2626</ele>
        <time>2024-06-05T21:33:08+00:00</time>
      </trkpt>
      <trkpt lat="45.16857" lon="5.97682">
        <ele>2626</ele>
        <time>2024-06-05T21:33:11+00:00</time>
      </trkpt>
      <trkpt lat="45.16864" lon="5.97681">
        <ele>2627</ele>
        <time>2024-06-05T21:33:14+00:00</time>
      </trkpt>
      <trkpt lat="45.16869" lon="5.9768">
        <ele>2627</ele>
        <time>2024-06-05T21:33:17+00:00</time>
      </trkpt>
      <trkpt lat="45.16876" lon="5.97681">
        <ele>2628</ele>
        <time>2024-06-05T21:33:20+00:00</time>
      </trkpt>
      <trkpt lat="45.16888" lon="5.97686">
        <ele>2631</ele>
        <time>2024-06-05T21:33:23+00:00</time>
      </trkpt>
      <trkpt lat="45.16894" lon="5.97686">
        <ele>2633</ele>
        <time>2024-06-05T21:33:26+00:00</time>
      </trkpt>
      <trkpt lat="45.169" lon="5.97681">
        <ele>2633</ele>
        <time>2024-06-05T21:33:29+00:00</time>
      </trkpt>
      <trkpt lat="45.16903" lon="5.97676">
        <ele>2634</ele>
        <time>2024-06-05T21:33:32+00:00</time>
      </trkpt>
      <trkpt lat="45.16905" lon="5.9767">
        <ele>2634</ele>
        <time>2024-06-05T21:33:35+00:00</time>
      </trkpt>
      <trkpt lat="45.16908" lon="5.9767">
        <ele>2632</ele>
        <time>2024-06-05T21:33:38+00:00</time>
      </trkpt>
      <trkpt lat="45.16911" lon="5.97677">
        <ele>2636</ele>
        <time>2024-06-05T21:33:41+00:00</time>
      </trkpt>
      <trkpt lat="45.16914" lon="5.97681">
        <ele>2638</ele>
        <time>2024-06-05T21:33:44+00:00</time>
      </trkpt>
      <trkpt lat="45.16917" lon="5.97684">
        <ele>2638</ele>
        <time>2024-06-05T21:33:47+00:00</time>
      </trkpt>
      <trkpt lat="45.16919" lon="5.97688">
        <ele>2638</ele>
        <time>2024-06-05T21:33:50+00:00</time>
      </trkpt>
      <trkpt lat="45.16921" lon="5.97697">
        <ele>2639</ele>
        <time>2024-06-05T21:33:53+00:00</time>
      </trkpt>
      <trkpt lat="45.16923" lon="5.97706">
        <ele>2643</ele>
        <time>2024-06-05T21:33:56+00:00</time>
      </trkpt>
      <trkpt lat="45.16932" lon="5.97719">
        <ele>2639</ele>
        <time>2024-06-05T21:33:59+00:00</time>
      </trkpt>
      <trkpt lat="45.16936" lon="5.97733">
        <ele>2645</ele>
        <time>2024-06-05T21:34:02+00:00</time>
      </trkpt>
      <trkpt lat="45.1694" lon="5.97736">
        <ele>2645</ele>
        <time>2024-06-05T21:34:05+00:00</time>
      </trkpt>
      <trkpt lat="45.16942" lon="5.97741">
        <ele>2641</ele>
        <time>2024-06-05T21:34:08+00:00</time>
      </trkpt>
      <trkpt lat="45.16941" lon="5.97748">
        <ele>2641</ele>
        <time>2024-06-05T21:34:11+00:00</time>
      </trkpt>
      <trkpt lat="45.16942" lon="5.97754">
        <ele>2641</ele>
        <time>2024-06-05T21:34:14+00:00</time>
      </trkpt>
      <trkpt lat="45.16945" lon="5.97764">
        <ele>2643</ele>
        <time>2024-06-05T21:34:17+00:00</time>
      </trkpt>
      <trkpt lat="45.16942" lon="5.97782">
        <ele>2642</ele>
        <time>2024-06-05T21:34:20+00:00</time>
      </trkpt>
      <trkpt lat="45.16942" lon="5.97789">
        <ele>2644</ele>
        <time>2024-06-05T21:34:23+00:00</time>
      </trkpt>
      <trkpt lat="45.16944" lon="5.97799">
        <ele>2646</ele>
        <time>2024-06-05T21:34:26+00:00</time>
      </trkpt>
      <trkpt lat="45.16952" lon="5.97816">
        <ele>2639</ele>
        <time>2024-06-05T21:34:29+00:00</time>
      </trkpt>
      <trkpt lat="45.16961" lon="5.97831">
        <ele>2640</ele>
        <time>2024-06-05T21:34:32+00:00</time>
      </trkpt>
      <trkpt lat="45.16964" lon="5.97835">
        <ele>2640</ele>
        <time>2024-06-05T21:34:35+00:00</time>
      </trkpt>
      <trkpt lat="45.16981" lon="5.97847">
        <ele>2636</ele>
        <time>2024-06-05T21:34:38+00:00</time>
      </trkpt>
      <trkpt lat="45.17006" lon="5.97871">
        <ele>2631</ele>
        <time>2024-06-05T21:34:41+00:00</time>
      </trkpt>
      <trkpt lat="45.1702" lon="5.97885">
        <ele>2628</ele>
        <time>2024-06-05T21:34:44+00:00</time>
      </trkpt>
      <trkpt lat="45.1702" lon="5.97885">
        <ele>2628</ele>
        <time>2024-06-05T21:34:47+00:00</time>
      </trkpt>
      <trkpt lat="45.17029" lon="5.97892">
        <ele>2625</ele>
        <time>2024-06-05T21:34:50+00:00</time>
      </trkpt>
      <trkpt lat="45.1703" lon="5.97894">
        <ele>2623</ele>
        <time>2024-06-05T21:34:53+00:00</time>
      </trkpt>
      <trkpt lat="45.1703" lon="5.97897">
        <ele>2623</ele>
        <time>2024-06-05T21:34:56+00:00</time>
      </trkpt>
      <trkpt lat="45.17033" lon="5.97898">
        <ele>2623</ele>
        <time>2024-06-05T21:34:59+00:00</time>
      </trkpt>
      <trkpt lat="45.17036" lon="5.97898">
        <ele>2623</ele>
        <time>2024-06-05T21:35:02+00:00</time>
      </trkpt>
      <trkpt lat="45.17039" lon="5.979">
        <ele>2623</ele>
        <time>2024-06-05T21:35:05+00:00</time>
      </trkpt>
      <trkpt lat="45.1704" lon="5.97902">
        <ele>2617</ele>
        <time>2024-06-05T21:35:08+00:00</time>
      </trkpt>
      <trkpt lat="45.17042" lon="5.97904">
        <ele>2617</ele>
        <time>2024-06-05T21:35:11+00:00</time>
      </trkpt>
      <trkpt lat="45.17042" lon="5.97909">
        <ele>2617</ele>
        <time>2024-06-05T21:35:14+00:00</time>
      </trkpt>
      <trkpt lat="45.17043" lon="5.97913">
        <ele>2614</ele>
        <time>2024-06-05T21:35:17+00:00</time>
      </trkpt>
      <trkpt lat="45.17043" lon="5.97916">
        <ele>2614</ele>
        <time>2024-06-05T21:35:20+00:00</time>
      </trkpt>
      <trkpt lat="45.17044" lon="5.97919">
        <ele>2614</ele>
        <time>2024-06-05T21:35:23+00:00</time>
      </trkpt>
      <trkpt lat="45.17048" lon="5.9792">
        <ele>2614</ele>
        <time>2024-06-05T21:35:26+00:00</time>
      </trkpt>
      <trkpt lat="45.17054" lon="5.97918">
        <ele>2610</ele>
        <time>2024-06-05T21:35:29+00:00</time>
      </trkpt>
      <trkpt lat="45.17056" lon="5.97918">
        <ele>2610</ele>
        <time>2024-06-05T21:35:32+00:00</time>
      </trkpt>
      <trkpt lat="45.17059" lon="5.9792">
        <ele>2610</ele>
        <time>2024-06-05T21:35:35+00:00</time>
      </trkpt>
      <trkpt lat="45.1706" lon="5.97922">
        <ele>2600</ele>
        <time>2024-06-05T21:35:38+00:00</time>
      </trkpt>
      <trkpt lat="45.17064" lon="5.97921">
        <ele>2600</ele>
        <time>2024-06-05T21:35:41+00:00</time>
      </trkpt>
      <trkpt lat="45.17068" lon="5.97921">
        <ele>2600</ele>
        <time>2024-06-05T21:35:44+00:00</time>
      </trkpt>
      <trkpt lat="45.17074" lon="5.97926">
        <ele>2595</ele>
        <time>2024-06-05T21:35:47+00:00</time>
      </trkpt>
      <trkpt lat="45.17076" lon="5.97927">
        <ele>2595</ele>
        <time>2024-06-05T21:35:50+00:00</time>
      </trkpt>
      <trkpt lat="45.17079" lon="5.97925">
        <ele>2595</ele>
        <time>2024-06-05T21:35:53+00:00</time>
      </trkpt>
      <trkpt lat="45.1708" lon="5.97928">
        <ele>2595</ele>
        <time>2024-06-05T21:35:56+00:00</time>
      </trkpt>
      <trkpt lat="45.17081" lon="5.97931">
        <ele>2588</ele>
        <time>2024-06-05T21:35:59+00:00</time>
      </trkpt>
      <trkpt lat="45.17084" lon="5.97934">
        <ele>2588</ele>
        <time>2024-06-05T21:36:02+00:00</time>
      </trkpt>
      <trkpt lat="45.17086" lon="5.97935">
        <ele>2588</ele>
        <time>2024-06-05T21:36:05+00:00</time>
      </trkpt>
      <trkpt lat="45.17089" lon="5.97932">
        <ele>2588</ele>
        <time>2024-06-05T21:36:08+00:00</time>
      </trkpt>
      <trkpt lat="45.1709" lon="5.97932">
        <ele>2578</ele>
        <time>2024-06-05T21:36:11+00:00</time>
      </trkpt>
      <trkpt lat="45.17091" lon="5.97937">
        <ele>2578</ele>
        <time>2024-06-05T21:36:14+00:00</time>
      </trkpt>
      <trkpt lat="45.17093" lon="5.97939">
        <ele>2578</ele>
        <time>2024-06-05T21:36:17+00:00</time>
      </trkpt>
      <trkpt lat="45.17095" lon="5.97939">
        <ele>2578</ele>
        <time>2024-06-05T21:36:20+00:00</time>
      </trkpt>
      <trkpt lat="45.17098" lon="5.97938">
        <ele>2578</ele>
        <time>2024-06-05T21:36:23+00:00</time>
      </trkpt>
      <trkpt lat="45.17098" lon="5.9794">
        <ele>2578</ele>
        <time>2024-06-05T21:36:26+00:00</time>
      </trkpt>
      <trkpt lat="45.17098" lon="5.97941">
        <ele>2575</ele>
        <time>2024-06-05T21:36:29+00:00</time>
      </trkpt>
      <trkpt lat="45.17101" lon="5.97941">
        <ele>2569</ele>
        <time>2024-06-05T21:36:32+00:00</time>
      </trkpt>
      <trkpt lat="45.17104" lon="5.97942">
        <ele>2569</ele>
        <time>2024-06-05T21:36:35+00:00</time>
      </trkpt>
      <trkpt lat="45.17106" lon="5.97943">
        <ele>2569</ele>
        <time>2024-06-05T21:36:38+00:00</time>
      </trkpt>
      <trkpt lat="45.17109" lon="5.97943">
        <ele>2569</ele>
        <time>2024-06-05T21:36:41+00:00</time>
      </trkpt>
      <trkpt lat="45.17109" lon="5.97947">
        <ele>2569</ele>
        <time>2024-06-05T21:36:44+00:00</time>
      </trkpt>
      <trkpt lat="45.1711" lon="5.97954">
        <ele>2568</ele>
        <time>2024-06-05T21:36:47+00:00</time>
      </trkpt>
      <trkpt lat="45.1711" lon="5.97959">
        <ele>2563</ele>
        <time>2024-06-05T21:36:50+00:00</time>
      </trkpt>
      <trkpt lat="45.17111" lon="5.97963">
        <ele>2562</ele>
        <time>2024-06-05T21:36:53+00:00</time>
      </trkpt>
      <trkpt lat="45.1711" lon="5.97967">
        <ele>2567</ele>
        <time>2024-06-05T21:36:56+00:00</time>
      </trkpt>
      <trkpt lat="45.1711" lon="5.97972">
        <ele>2566</ele>
        <time>2024-06-05T21:36:59+00:00</time>
      </trkpt>
      <trkpt lat="45.1711" lon="5.97975">
        <ele>2566</ele>
        <time>2024-06-05T21:37:02+00:00</time>
      </trkpt>
      <trkpt lat="45.1711" lon="5.97977">
        <ele>2566</ele>
        <time>2024-06-05T21:37:05+00:00</time>
      </trkpt>
      <trkpt lat="45.1711" lon="5.97981">
        <ele>2565</ele>
        <time>2024-06-05T21:37:08+00:00</time>
      </trkpt>
      <trkpt lat="45.1711" lon="5.97984">
        <ele>2565</ele>
        <time>2024-06-05T21:37:11+00:00</time>
      </trkpt>
      <trkpt lat="45.17111" lon="5.97987">
        <ele>2560</ele>
        <time>2024-06-05T21:37:14+00:00</time>
      </trkpt>
      <trkpt lat="45.17111" lon="5.9799">
        <ele>2559</ele>
        <time>2024-06-05T21:37:17+00:00</time>
      </trkpt>
      <trkpt lat="45.17113" lon="5.97992">
        <ele>2559</ele>
        <time>2024-06-05T21:37:20+00:00</time>
      </trkpt>
      <trkpt lat="45.17116" lon="5.97993">
        <ele>2559</ele>
        <time>2024-06-05T21:37:23+00:00</time>
      </trkpt>
      <trkpt lat="45.17118" lon="5.9799">
        <ele>2559</ele>
        <time>2024-06-05T21:37:26+00:00</time>
      </trkpt>
      <trkpt lat="45.1712" lon="5.97987">
        <ele>2552</ele>
        <time>2024-06-05T21:37:29+00:00</time>
      </trkpt>
      <trkpt lat="45.17123" lon="5.97984">
        <ele>2552</ele>
        <time>2024-06-05T21:37:32+00:00</time>
      </trkpt>
      <trkpt lat="45.17124" lon="5.97981">
        <ele>2552</ele>
        <time>2024-06-05T21:37:35+00:00</time>
      </trkpt>
      <trkpt lat="45.17125" lon="5.97979">
        <ele>2553</ele>
        <time>2024-06-05T21:37:38+00:00</time>
      </trkpt>
      <trkpt lat="45.17128" lon="5.97976">
        <ele>2553</ele>
        <time>2024-06-05T21:37:41+00:00</time>
      </trkpt>
      <trkpt lat="45.17128" lon="5.97978">
        <ele>2553</ele>
        <time>2024-06-05T21:37:44+00:00</time>
      </trkpt>
      <trkpt lat="45.17131" lon="5.97982">
        <ele>2546</ele>
        <time>2024-06-05T21:37:47+00:00</time>
      </trkpt>
      <trkpt lat="45.17132" lon="5.97984">
        <ele>2546</ele>
        <time>2024-06-05T21:37:50+00:00</time>
      </trkpt>
      <trkpt lat="45.17133" lon="5.9798">
        <ele>2548</ele>
        <time>2024-06-05T21:37:53+00:00</time>
      </trkpt>
      <trkpt lat="45.17134" lon="5.97977">
        <ele>2548</ele>
        <time>2024-06-05T21:37:56+00:00</time>
      </trkpt>
      <trkpt lat="45.17135" lon="5.97973">
        <ele>2548</ele>
        <time>2024-06-05T21:37:59+00:00</time>
      </trkpt>
      <trkpt lat="45.17137" lon="5.97973">
        <ele>2548</ele>
        <time>2024-06-05T21:38:02+00:00</time>
      </trkpt>
      <trkpt lat="45.17137" lon="5.97976">
        <ele>2548</ele>
        <time>2024-06-05T21:38:05+00:00</time>
      </trkpt>
      <trkpt lat="45.17138" lon="5.9798">
        <ele>2548</ele>
        <time>2024-06-05T21:38:08+00:00</time>
      </trkpt>
      <trkpt lat="45.1714" lon="5.97985">
        <ele>2546</ele>
        <time>2024-06-05T21:38:11+00:00</time>
      </trkpt>
      <trkpt lat="45.17141" lon="5.9799">
        <ele>2540</ele>
        <time>2024-06-05T21:38:14+00:00</time>
      </trkpt>
      <trkpt lat="45.17142" lon="5.97994">
        <ele>2540</ele>
        <time>2024-06-05T21:38:17+00:00</time>
      </trkpt>
      <trkpt lat="45.17142" lon="5.97996">
        <ele>2540</ele>
        <time>2024-06-05T21:38:20+00:00</time>
      </trkpt>
      <trkpt lat="45.17142" lon="5.98001">
        <ele>2539</ele>
        <time>2024-06-05T21:38:23+00:00</time>
      </trkpt>
      <trkpt lat="45.17146" lon="5.98001">
        <ele>2539</ele>
        <time>2024-06-05T21:38:26+00:00</time>
      </trkpt>
      <trkpt lat="45.17151" lon="5.97999">
        <ele>2532</ele>
        <time>2024-06-05T21:38:29+00:00</time>
      </trkpt>
      <trkpt lat="45.17154" lon="5.97998">
        <ele>2532</ele>
        <time>2024-06-05T21:38:32+00:00</time>
      </trkpt>
      <trkpt lat="45.17158" lon="5.97994">
        <ele>2532</ele>
        <time>2024-06-05T21:38:35+00:00</time>
      </trkpt>
      <trkpt lat="45.17162" lon="5.97989">
        <ele>2528</ele>
        <time>2024-06-05T21:38:38+00:00</time>
      </trkpt>
      <trkpt lat="45.17164" lon="5.97991">
        <ele>2528</ele>
        <time>2024-06-05T21:38:41+00:00</time>
      </trkpt>
      <trkpt lat="45.1717" lon="5.97992">
        <ele>2528</ele>
        <time>2024-06-05T21:38:44+00:00</time>
      </trkpt>
      <trkpt lat="45.17173" lon="5.97992">
        <ele>2524</ele>
        <time>2024-06-05T21:38:47+00:00</time>
      </trkpt>
      <trkpt lat="45.1718" lon="5.97998">
        <ele>2519</ele>
        <time>2024-06-05T21:38:50+00:00</time>
      </trkpt>
      <trkpt lat="45.17184" lon="5.97994">
        <ele>2519</ele>
        <time>2024-06-05T21:38:53+00:00</time>
      </trkpt>
      <trkpt lat="45.17186" lon="5.97996">
        <ele>2519</ele>
        <time>2024-06-05T21:38:56+00:00</time>
      </trkpt>
      <trkpt lat="45.17192" lon="5.97995">
        <ele>2516</ele>
        <time>2024-06-05T21:38:59+00:00</time>
      </trkpt>
      <trkpt lat="45.17197" lon="5.97998">
        <ele>2516</ele>
        <time>2024-06-05T21:39:02+00:00</time>
      </trkpt>
      <trkpt lat="45.17201" lon="5.97996">
        <ele>2514</ele>
        <time>2024-06-05T21:39:05+00:00</time>
      </trkpt>
      <trkpt lat="45.17204" lon="5.97996">
        <ele>2514</ele>
        <time>2024-06-05T21:39:08+00:00</time>
      </trkpt>
      <trkpt lat="45.17206" lon="5.97997">
        <ele>2514</ele>
        <time>2024-06-05T21:39:11+00:00</time>
      </trkpt>
      <trkpt lat="45.1721" lon="5.97998">
        <ele>2510</ele>
        <time>2024-06-05T21:39:14+00:00</time>
      </trkpt>
      <trkpt lat="45.17217" lon="5.97998">
        <ele>2510</ele>
        <time>2024-06-05T21:39:17+00:00</time>
      </trkpt>
      <trkpt lat="45.17223" lon="5.97997">
        <ele>2507</ele>
        <time>2024-06-05T21:39:20+00:00</time>
      </trkpt>
      <trkpt lat="45.17226" lon="5.98001">
        <ele>2506</ele>
        <time>2024-06-05T21:39:23+00:00</time>
      </trkpt>
      <trkpt lat="45.17228" lon="5.98">
        <ele>2507</ele>
        <time>2024-06-05T21:39:26+00:00</time>
      </trkpt>
      <trkpt lat="45.17231" lon="5.97999">
        <ele>2502</ele>
        <time>2024-06-05T21:39:29+00:00</time>
      </trkpt>
      <trkpt lat="45.17232" lon="5.97999">
        <ele>2502</ele>
        <time>2024-06-05T21:39:32+00:00</time>
      </trkpt>
      <trkpt lat="45.17233" lon="5.98001">
        <ele>2502</ele>
        <time>2024-06-05T21:39:35+00:00</time>
      </trkpt>
      <trkpt lat="45.17235" lon="5.98002">
        <ele>2502</ele>
        <time>2024-06-05T21:39:38+00:00</time>
      </trkpt>
      <trkpt lat="45.17236" lon="5.97999">
        <ele>2502</ele>
        <time>2024-06-05T21:39:41+00:00</time>
      </trkpt>
      <trkpt lat="45.17237" lon="5.97999">
        <ele>2502</ele>
        <time>2024-06-05T21:39:44+00:00</time>
      </trkpt>
      <trkpt lat="45.17238" lon="5.97998">
        <ele>2502</ele>
        <time>2024-06-05T21:39:47+00:00</time>
      </trkpt>
      <trkpt lat="45.17239" lon="5.97997">
        <ele>2502</ele>
        <time>2024-06-05T21:39:50+00:00</time>
      </trkpt>
      <trkpt lat="45.1724" lon="5.97996">
        <ele>2495</ele>
        <time>2024-06-05T21:39:53+00:00</time>
      </trkpt>
      <trkpt lat="45.17242" lon="5.97997">
        <ele>2495</ele>
        <time>2024-06-05T21:39:56+00:00</time>
      </trkpt>
      <trkpt lat="45.17242" lon="5.97999">
        <ele>2495</ele>
        <time>2024-06-05T21:39:59+00:00</time>
      </trkpt>
      <trkpt lat="45.17244" lon="5.98001">
        <ele>2494</ele>
        <time>2024-06-05T21:40:02+00:00</time>
      </trkpt>
      <trkpt lat="45.17246" lon="5.98004">
        <ele>2494</ele>
        <time>2024-06-05T21:40:05+00:00</time>
      </trkpt>
      <trkpt lat="45.17247" lon="5.98004">
        <ele>2494</ele>
        <time>2024-06-05T21:40:08+00:00</time>
      </trkpt>
      <trkpt lat="45.17249" lon="5.98001">
        <ele>2494</ele>
        <time>2024-06-05T21:40:11+00:00</time>
      </trkpt>
      <trkpt lat="45.17249" lon="5.98004">
        <ele>2494</ele>
        <time>2024-06-05T21:40:14+00:00</time>
      </trkpt>
      <trkpt lat="45.17249" lon="5.98007">
        <ele>2494</ele>
        <time>2024-06-05T21:40:17+00:00</time>
      </trkpt>
      <trkpt lat="45.1725" lon="5.98009">
        <ele>2489</ele>
        <time>2024-06-05T21:40:20+00:00</time>
      </trkpt>
      <trkpt lat="45.17252" lon="5.98008">
        <ele>2489</ele>
        <time>2024-06-05T21:40:23+00:00</time>
      </trkpt>
      <trkpt lat="45.17253" lon="5.98004">
        <ele>2489</ele>
        <time>2024-06-05T21:40:26+00:00</time>
      </trkpt>
      <trkpt lat="45.17254" lon="5.98006">
        <ele>2489</ele>
        <time>2024-06-05T21:40:29+00:00</time>
      </trkpt>
      <trkpt lat="45.17256" lon="5.98006">
        <ele>2489</ele>
        <time>2024-06-05T21:40:32+00:00</time>
      </trkpt>
      <trkpt lat="45.17258" lon="5.98003">
        <ele>2489</ele>
        <time>2024-06-05T21:40:35+00:00</time>
      </trkpt>
      <trkpt lat="45.17258" lon="5.98">
        <ele>2489</ele>
        <time>2024-06-05T21:40:38+00:00</time>
      </trkpt>
      <trkpt lat="45.17259" lon="5.97998">
        <ele>2489</ele>
        <time>2024-06-05T21:40:41+00:00</time>
      </trkpt>
      <trkpt lat="45.1726" lon="5.97996">
        <ele>2489</ele>
        <time>2024-06-05T21:40:44+00:00</time>
      </trkpt>
      <trkpt lat="45.1726" lon="5.97999">
        <ele>2489</ele>
        <time>2024-06-05T21:40:47+00:00</time>
      </trkpt>
      <trkpt lat="45.17261" lon="5.98">
        <ele>2483</ele>
        <time>2024-06-05T21:40:50+00:00</time>
      </trkpt>
      <trkpt lat="45.17263" lon="5.98001">
        <ele>2483</ele>
        <time>2024-06-05T21:40:53+00:00</time>
      </trkpt>
      <trkpt lat="45.17264" lon="5.97998">
        <ele>2484</ele>
        <time>2024-06-05T21:40:56+00:00</time>
      </trkpt>
      <trkpt lat="45.17265" lon="5.97996">
        <ele>2484</ele>
        <time>2024-06-05T21:40:59+00:00</time>
      </trkpt>
      <trkpt lat="45.17268" lon="5.97995">
        <ele>2484</ele>
        <time>2024-06-05T21:41:02+00:00</time>
      </trkpt>
      <trkpt lat="45.1727" lon="5.97991">
        <ele>2484</ele>
        <time>2024-06-05T21:41:05+00:00</time>
      </trkpt>
      <trkpt lat="45.17271" lon="5.97989">
        <ele>2475</ele>
        <time>2024-06-05T21:41:08+00:00</time>
      </trkpt>
      <trkpt lat="45.17273" lon="5.97988">
        <ele>2475</ele>
        <time>2024-06-05T21:41:11+00:00</time>
      </trkpt>
      <trkpt lat="45.17275" lon="5.97988">
        <ele>2475</ele>
        <time>2024-06-05T21:41:14+00:00</time>
      </trkpt>
      <trkpt lat="45.17276" lon="5.97986">
        <ele>2475</ele>
        <time>2024-06-05T21:41:17+00:00</time>
      </trkpt>
      <trkpt lat="45.17277" lon="5.97985">
        <ele>2475</ele>
        <time>2024-06-05T21:41:20+00:00</time>
      </trkpt>
      <trkpt lat="45.17278" lon="5.97987">
        <ele>2475</ele>
        <time>2024-06-05T21:41:23+00:00</time>
      </trkpt>
      <trkpt lat="45.17279" lon="5.97985">
        <ele>2475</ele>
        <time>2024-06-05T21:41:26+00:00</time>
      </trkpt>
      <trkpt lat="45.1728" lon="5.97982">
        <ele>2475</ele>
        <time>2024-06-05T21:41:29+00:00</time>
      </trkpt>
      <trkpt lat="45.17282" lon="5.97984">
        <ele>2470</ele>
        <time>2024-06-05T21:41:32+00:00</time>
      </trkpt>
      <trkpt lat="45.17284" lon="5.97987">
        <ele>2470</ele>
        <time>2024-06-05T21:41:35+00:00</time>
      </trkpt>
      <trkpt lat="45.17285" lon="5.97986">
        <ele>2470</ele>
        <time>2024-06-05T21:41:38+00:00</time>
      </trkpt>
      <trkpt lat="45.17286" lon="5.97984">
        <ele>2470</ele>
        <time>2024-06-05T21:41:41+00:00</time>
      </trkpt>
      <trkpt lat="45.17287" lon="5.97987">
        <ele>2470</ele>
        <time>2024-06-05T21:41:44+00:00</time>
      </trkpt>
      <trkpt lat="45.1729" lon="5.9799">
        <ele>2469</ele>
        <time>2024-06-05T21:41:47+00:00</time>
      </trkpt>
      <trkpt lat="45.17292" lon="5.97988">
        <ele>2464</ele>
        <time>2024-06-05T21:41:50+00:00</time>
      </trkpt>
      <trkpt lat="45.17293" lon="5.97986">
        <ele>2464</ele>
        <time>2024-06-05T21:41:53+00:00</time>
      </trkpt>
      <trkpt lat="45.17296" lon="5.97985">
        <ele>2464</ele>
        <time>2024-06-05T21:41:56+00:00</time>
      </trkpt>
      <trkpt lat="45.17298" lon="5.97982">
        <ele>2464</ele>
        <time>2024-06-05T21:41:59+00:00</time>
      </trkpt>
      <trkpt lat="45.17301" lon="5.97979">
        <ele>2457</ele>
        <time>2024-06-05T21:42:02+00:00</time>
      </trkpt>
      <trkpt lat="45.17303" lon="5.97978">
        <ele>2457</ele>
        <time>2024-06-05T21:42:05+00:00</time>
      </trkpt>
      <trkpt lat="45.17303" lon="5.97981">
        <ele>2456</ele>
        <time>2024-06-05T21:42:08+00:00</time>
      </trkpt>
      <trkpt lat="45.17305" lon="5.97985">
        <ele>2456</ele>
        <time>2024-06-05T21:42:11+00:00</time>
      </trkpt>
      <trkpt lat="45.17306" lon="5.97988">
        <ele>2456</ele>
        <time>2024-06-05T21:42:14+00:00</time>
      </trkpt>
      <trkpt lat="45.17308" lon="5.9799">
        <ele>2455</ele>
        <time>2024-06-05T21:42:17+00:00</time>
      </trkpt>
      <trkpt lat="45.17309" lon="5.97989">
        <ele>2456</ele>
        <time>2024-06-05T21:42:20+00:00</time>
      </trkpt>
      <trkpt lat="45.17311" lon="5.97986">
        <ele>2450</ele>
        <time>2024-06-05T21:42:23+00:00</time>
      </trkpt>
      <trkpt lat="45.17313" lon="5.97984">
        <ele>2450</ele>
        <time>2024-06-05T21:42:26+00:00</time>
      </trkpt>
      <trkpt lat="45.17315" lon="5.97985">
        <ele>2450</ele>
        <time>2024-06-05T21:42:29+00:00</time>
      </trkpt>
      <trkpt lat="45.17315" lon="5.97988">
        <ele>2450</ele>
        <time>2024-06-05T21:42:32+00:00</time>
      </trkpt>
      <trkpt lat="45.17316" lon="5.9799">
        <ele>2449</ele>
        <time>2024-06-05T21:42:35+00:00</time>
      </trkpt>
      <trkpt lat="45.17319" lon="5.97993">
        <ele>2449</ele>
        <time>2024-06-05T21:42:38+00:00</time>
      </trkpt>
      <trkpt lat="45.17318" lon="5.97998">
        <ele>2449</ele>
        <time>2024-06-05T21:42:41+00:00</time>
      </trkpt>
      <trkpt lat="45.17318" lon="5.98001">
        <ele>2448</ele>
        <time>2024-06-05T21:42:44+00:00</time>
      </trkpt>
      <trkpt lat="45.17319" lon="5.98005">
        <ele>2448</ele>
        <time>2024-06-05T21:42:47+00:00</time>
      </trkpt>
      <trkpt lat="45.17319" lon="5.98007">
        <ele>2448</ele>
        <time>2024-06-05T21:42:50+00:00</time>
      </trkpt>
      <trkpt lat="45.17321" lon="5.98006">
        <ele>2443</ele>
        <time>2024-06-05T21:42:53+00:00</time>
      </trkpt>
      <trkpt lat="45.17323" lon="5.98005">
        <ele>2443</ele>
        <time>2024-06-05T21:42:56+00:00</time>
      </trkpt>
      <trkpt lat="45.17327" lon="5.98007">
        <ele>2443</ele>
        <time>2024-06-05T21:42:59+00:00</time>
      </trkpt>
      <trkpt lat="45.17328" lon="5.98009">
        <ele>2443</ele>
        <time>2024-06-05T21:43:02+00:00</time>
      </trkpt>
      <trkpt lat="45.17331" lon="5.98012">
        <ele>2435</ele>
        <time>2024-06-05T21:43:05+00:00</time>
      </trkpt>
      <trkpt lat="45.17332" lon="5.98017">
        <ele>2435</ele>
        <time>2024-06-05T21:43:08+00:00</time>
      </trkpt>
      <trkpt lat="45.17334" lon="5.98019">
        <ele>2435</ele>
        <time>2024-06-05T21:43:11+00:00</time>
      </trkpt>
      <trkpt lat="45.17337" lon="5.98021">
        <ele>2435</ele>
        <time>2024-06-05T21:43:14+00:00</time>
      </trkpt>
      <trkpt lat="45.17339" lon="5.98021">
        <ele>2435</ele>
        <time>2024-06-05T21:43:17+00:00</time>
      </trkpt>
      <trkpt lat="45.17341" lon="5.98021">
        <ele>2431</ele>
        <time>2024-06-05T21:43:20+00:00</time>
      </trkpt>
      <trkpt lat="45.17343" lon="5.98023">
        <ele>2431</ele>
        <time>2024-06-05T21:43:23+00:00</time>
      </trkpt>
      <trkpt lat="45.17344" lon="5.98027">
        <ele>2431</ele>
        <time>2024-06-05T21:43:26+00:00</time>
      </trkpt>
      <trkpt lat="45.17344" lon="5.98031">
        <ele>2431</ele>
        <time>2024-06-05T21:43:29+00:00</time>
      </trkpt>
      <trkpt lat="45.17343" lon="5.98033">
        <ele>2431</ele>
        <time>2024-06-05T21:43:32+00:00</time>
      </trkpt>
      <trkpt lat="45.17344" lon="5.98035">
        <ele>2431</ele>
        <time>2024-06-05T21:43:35+00:00</time>
      </trkpt>
      <trkpt lat="45.17346" lon="5.98037">
        <ele>2431</ele>
        <time>2024-06-05T21:43:38+00:00</time>
      </trkpt>
      <trkpt lat="45.17348" lon="5.98035">
        <ele>2431</ele>
        <time>2024-06-05T21:43:41+00:00</time>
      </trkpt>
      <trkpt lat="45.17351" lon="5.98037">
        <ele>2427</ele>
        <time>2024-06-05T21:43:44+00:00</time>
      </trkpt>
      <trkpt lat="45.17352" lon="5.98038">
        <ele>2427</ele>
        <time>2024-06-05T21:43:47+00:00</time>
      </trkpt>
      <trkpt lat="45.17355" lon="5.9804">
        <ele>2426</ele>
        <time>2024-06-05T21:43:50+00:00</time>
      </trkpt>
      <trkpt lat="45.17358" lon="5.98042">
        <ele>2426</ele>
        <time>2024-06-05T21:43:53+00:00</time>
      </trkpt>
      <trkpt lat="45.1736" lon="5.98045">
        <ele>2420</ele>
        <time>2024-06-05T21:43:56+00:00</time>
      </trkpt>
      <trkpt lat="45.17361" lon="5.98049">
        <ele>2420</ele>
        <time>2024-06-05T21:43:59+00:00</time>
      </trkpt>
      <trkpt lat="45.17364" lon="5.98048">
        <ele>2420</ele>
        <time>2024-06-05T21:44:02+00:00</time>
      </trkpt>
      <trkpt lat="45.17365" lon="5.9805">
        <ele>2420</ele>
        <time>2024-06-05T21:44:05+00:00</time>
      </trkpt>
      <trkpt lat="45.17366" lon="5.98051">
        <ele>2419</ele>
        <time>2024-06-05T21:44:08+00:00</time>
      </trkpt>
      <trkpt lat="45.17367" lon="5.98054">
        <ele>2419</ele>
        <time>2024-06-05T21:44:11+00:00</time>
      </trkpt>
      <trkpt lat="45.17368" lon="5.98057">
        <ele>2419</ele>
        <time>2024-06-05T21:44:14+00:00</time>
      </trkpt>
      <trkpt lat="45.17366" lon="5.98061">
        <ele>2416</ele>
        <time>2024-06-05T21:44:17+00:00</time>
      </trkpt>
      <trkpt lat="45.17367" lon="5.98063">
        <ele>2416</ele>
        <time>2024-06-05T21:44:20+00:00</time>
      </trkpt>
      <trkpt lat="45.17369" lon="5.98064">
        <ele>2416</ele>
        <time>2024-06-05T21:44:23+00:00</time>
      </trkpt>
      <trkpt lat="45.17371" lon="5.98066">
        <ele>2411</ele>
        <time>2024-06-05T21:44:26+00:00</time>
      </trkpt>
      <trkpt lat="45.17372" lon="5.98066">
        <ele>2411</ele>
        <time>2024-06-05T21:44:29+00:00</time>
      </trkpt>
      <trkpt lat="45.17371" lon="5.98071">
        <ele>2409</ele>
        <time>2024-06-05T21:44:32+00:00</time>
      </trkpt>
      <trkpt lat="45.17376" lon="5.98068">
        <ele>2411</ele>
        <time>2024-06-05T21:44:35+00:00</time>
      </trkpt>
      <trkpt lat="45.17379" lon="5.98066">
        <ele>2411</ele>
        <time>2024-06-05T21:44:38+00:00</time>
      </trkpt>
      <trkpt lat="45.1738" lon="5.98071">
        <ele>2409</ele>
        <time>2024-06-05T21:44:41+00:00</time>
      </trkpt>
      <trkpt lat="45.1738" lon="5.98075">
        <ele>2404</ele>
        <time>2024-06-05T21:44:44+00:00</time>
      </trkpt>
      <trkpt lat="45.17381" lon="5.98072">
        <ele>2404</ele>
        <time>2024-06-05T21:44:47+00:00</time>
      </trkpt>
      <trkpt lat="45.17383" lon="5.9807">
        <ele>2407</ele>
        <time>2024-06-05T21:44:50+00:00</time>
      </trkpt>
      <trkpt lat="45.17384" lon="5.98073">
        <ele>2404</ele>
        <time>2024-06-05T21:44:53+00:00</time>
      </trkpt>
      <trkpt lat="45.17385" lon="5.98077">
        <ele>2404</ele>
        <time>2024-06-05T21:44:56+00:00</time>
      </trkpt>
      <trkpt lat="45.17388" lon="5.98077">
        <ele>2404</ele>
        <time>2024-06-05T21:44:59+00:00</time>
      </trkpt>
      <trkpt lat="45.17393" lon="5.98074">
        <ele>2397</ele>
        <time>2024-06-05T21:45:02+00:00</time>
      </trkpt>
      <trkpt lat="45.17397" lon="5.98071">
        <ele>2397</ele>
        <time>2024-06-05T21:45:05+00:00</time>
      </trkpt>
      <trkpt lat="45.17401" lon="5.98069">
        <ele>2395</ele>
        <time>2024-06-05T21:45:08+00:00</time>
      </trkpt>
      <trkpt lat="45.17405" lon="5.98067">
        <ele>2395</ele>
        <time>2024-06-05T21:45:11+00:00</time>
      </trkpt>
      <trkpt lat="45.1741" lon="5.98063">
        <ele>2395</ele>
        <time>2024-06-05T21:45:14+00:00</time>
      </trkpt>
      <trkpt lat="45.17417" lon="5.98059">
        <ele>2395</ele>
        <time>2024-06-05T21:45:17+00:00</time>
      </trkpt>
      <trkpt lat="45.17424" lon="5.98054">
        <ele>2388</ele>
        <time>2024-06-05T21:45:20+00:00</time>
      </trkpt>
      <trkpt lat="45.17427" lon="5.9805">
        <ele>2388</ele>
        <time>2024-06-05T21:45:23+00:00</time>
      </trkpt>
      <trkpt lat="45.17427" lon="5.98056">
        <ele>2388</ele>
        <time>2024-06-05T21:45:26+00:00</time>
      </trkpt>
      <trkpt lat="45.17428" lon="5.98055">
        <ele>2388</ele>
        <time>2024-06-05T21:45:29+00:00</time>
      </trkpt>
      <trkpt lat="45.17433" lon="5.98052">
        <ele>2383</ele>
        <time>2024-06-05T21:45:32+00:00</time>
      </trkpt>
      <trkpt lat="45.17437" lon="5.9805">
        <ele>2388</ele>
        <time>2024-06-05T21:45:35+00:00</time>
      </trkpt>
      <trkpt lat="45.1744" lon="5.98048">
        <ele>2381</ele>
        <time>2024-06-05T21:45:38+00:00</time>
      </trkpt>
      <trkpt lat="45.17444" lon="5.98049">
        <ele>2381</ele>
        <time>2024-06-05T21:45:41+00:00</time>
      </trkpt>
      <trkpt lat="45.17448" lon="5.98046">
        <ele>2381</ele>
        <time>2024-06-05T21:45:44+00:00</time>
      </trkpt>
      <trkpt lat="45.17453" lon="5.98043">
        <ele>2369</ele>
        <time>2024-06-05T21:45:47+00:00</time>
      </trkpt>
      <trkpt lat="45.17456" lon="5.98039">
        <ele>2372</ele>
        <time>2024-06-05T21:45:50+00:00</time>
      </trkpt>
      <trkpt lat="45.17459" lon="5.98036">
        <ele>2372</ele>
        <time>2024-06-05T21:45:53+00:00</time>
      </trkpt>
      <trkpt lat="45.17462" lon="5.98033">
        <ele>2362</ele>
        <time>2024-06-05T21:45:56+00:00</time>
      </trkpt>
      <trkpt lat="45.17463" lon="5.98032">
        <ele>2362</ele>
        <time>2024-06-05T21:45:59+00:00</time>
      </trkpt>
      <trkpt lat="45.17465" lon="5.98032">
        <ele>2362</ele>
        <time>2024-06-05T21:46:02+00:00</time>
      </trkpt>
      <trkpt lat="45.17467" lon="5.98031">
        <ele>2362</ele>
        <time>2024-06-05T21:46:05+00:00</time>
      </trkpt>
      <trkpt lat="45.17469" lon="5.98032">
        <ele>2362</ele>
        <time>2024-06-05T21:46:08+00:00</time>
      </trkpt>
      <trkpt lat="45.17471" lon="5.98035">
        <ele>2353</ele>
        <time>2024-06-05T21:46:11+00:00</time>
      </trkpt>
      <trkpt lat="45.17472" lon="5.98032">
        <ele>2353</ele>
        <time>2024-06-05T21:46:14+00:00</time>
      </trkpt>
      <trkpt lat="45.17473" lon="5.98032">
        <ele>2353</ele>
        <time>2024-06-05T21:46:17+00:00</time>
      </trkpt>
      <trkpt lat="45.17473" lon="5.98036">
        <ele>2353</ele>
        <time>2024-06-05T21:46:20+00:00</time>
      </trkpt>
      <trkpt lat="45.17474" lon="5.98036">
        <ele>2353</ele>
        <time>2024-06-05T21:46:23+00:00</time>
      </trkpt>
      <trkpt lat="45.17477" lon="5.98034">
        <ele>2353</ele>
        <time>2024-06-05T21:46:26+00:00</time>
      </trkpt>
      <trkpt lat="45.17479" lon="5.98031">
        <ele>2353</ele>
        <time>2024-06-05T21:46:29+00:00</time>
      </trkpt>
      <trkpt lat="45.1748" lon="5.98029">
        <ele>2352</ele>
        <time>2024-06-05T21:46:32+00:00</time>
      </trkpt>
      <trkpt lat="45.17485" lon="5.98031">
        <ele>2343</ele>
        <time>2024-06-05T21:46:35+00:00</time>
      </trkpt>
      <trkpt lat="45.17487" lon="5.98033">
        <ele>2343</ele>
        <time>2024-06-05T21:46:38+00:00</time>
      </trkpt>
      <trkpt lat="45.17489" lon="5.98035">
        <ele>2343</ele>
        <time>2024-06-05T21:46:41+00:00</time>
      </trkpt>
      <trkpt lat="45.17491" lon="5.98036">
        <ele>2339</ele>
        <time>2024-06-05T21:46:44+00:00</time>
      </trkpt>
      <trkpt lat="45.17491" lon="5.98033">
        <ele>2339</ele>
        <time>2024-06-05T21:46:47+00:00</time>
      </trkpt>
      <trkpt lat="45.17492" lon="5.98028">
        <ele>2337</ele>
        <time>2024-06-05T21:46:50+00:00</time>
      </trkpt>
      <trkpt lat="45.17491" lon="5.98026">
        <ele>2337</ele>
        <time>2024-06-05T21:46:53+00:00</time>
      </trkpt>
      <trkpt lat="45.17491" lon="5.98022">
        <ele>2337</ele>
        <time>2024-06-05T21:46:56+00:00</time>
      </trkpt>
      <trkpt lat="45.17491" lon="5.98017">
        <ele>2336</ele>
        <time>2024-06-05T21:46:59+00:00</time>
      </trkpt>
      <trkpt lat="45.17492" lon="5.98014">
        <ele>2336</ele>
        <time>2024-06-05T21:47:02+00:00</time>
      </trkpt>
      <trkpt lat="45.17493" lon="5.98012">
        <ele>2336</ele>
        <time>2024-06-05T21:47:05+00:00</time>
      </trkpt>
      <trkpt lat="45.17496" lon="5.98013">
        <ele>2336</ele>
        <time>2024-06-05T21:47:08+00:00</time>
      </trkpt>
      <trkpt lat="45.17497" lon="5.98012">
        <ele>2336</ele>
        <time>2024-06-05T21:47:11+00:00</time>
      </trkpt>
      <trkpt lat="45.17497" lon="5.98008">
        <ele>2335</ele>
        <time>2024-06-05T21:47:14+00:00</time>
      </trkpt>
      <trkpt lat="45.17498" lon="5.98007">
        <ele>2335</ele>
        <time>2024-06-05T21:47:17+00:00</time>
      </trkpt>
      <trkpt lat="45.175" lon="5.98008">
        <ele>2335</ele>
        <time>2024-06-05T21:47:20+00:00</time>
      </trkpt>
      <trkpt lat="45.17501" lon="5.98008">
        <ele>2331</ele>
        <time>2024-06-05T21:47:23+00:00</time>
      </trkpt>
      <trkpt lat="45.17502" lon="5.98006">
        <ele>2331</ele>
        <time>2024-06-05T21:47:26+00:00</time>
      </trkpt>
      <trkpt lat="45.17503" lon="5.98005">
        <ele>2331</ele>
        <time>2024-06-05T21:47:29+00:00</time>
      </trkpt>
      <trkpt lat="45.17504" lon="5.98006">
        <ele>2331</ele>
        <time>2024-06-05T21:47:32+00:00</time>
      </trkpt>
      <trkpt lat="45.17505" lon="5.98008">
        <ele>2331</ele>
        <time>2024-06-05T21:47:35+00:00</time>
      </trkpt>
      <trkpt lat="45.17507" lon="5.98007">
        <ele>2331</ele>
        <time>2024-06-05T21:47:38+00:00</time>
      </trkpt>
      <trkpt lat="45.17508" lon="5.98008">
        <ele>2331</ele>
        <time>2024-06-05T21:47:41+00:00</time>
      </trkpt>
      <trkpt lat="45.1751" lon="5.98009">
        <ele>2331</ele>
        <time>2024-06-05T21:47:44+00:00</time>
      </trkpt>
      <trkpt lat="45.17511" lon="5.98008">
        <ele>2325</ele>
        <time>2024-06-05T21:47:47+00:00</time>
      </trkpt>
      <trkpt lat="45.1751" lon="5.98006">
        <ele>2325</ele>
        <time>2024-06-05T21:47:50+00:00</time>
      </trkpt>
      <trkpt lat="45.17511" lon="5.98005">
        <ele>2325</ele>
        <time>2024-06-05T21:47:53+00:00</time>
      </trkpt>
      <trkpt lat="45.17514" lon="5.98003">
        <ele>2325</ele>
        <time>2024-06-05T21:47:56+00:00</time>
      </trkpt>
      <trkpt lat="45.17516" lon="5.98002">
        <ele>2325</ele>
        <time>2024-06-05T21:47:59+00:00</time>
      </trkpt>
      <trkpt lat="45.17516" lon="5.97999">
        <ele>2322</ele>
        <time>2024-06-05T21:48:02+00:00</time>
      </trkpt>
      <trkpt lat="45.17516" lon="5.97996">
        <ele>2322</ele>
        <time>2024-06-05T21:48:05+00:00</time>
      </trkpt>
      <trkpt lat="45.17517" lon="5.97996">
        <ele>2322</ele>
        <time>2024-06-05T21:48:08+00:00</time>
      </trkpt>
      <trkpt lat="45.1752" lon="5.97998">
        <ele>2319</ele>
        <time>2024-06-05T21:48:11+00:00</time>
      </trkpt>
      <trkpt lat="45.17522" lon="5.97997">
        <ele>2319</ele>
        <time>2024-06-05T21:48:14+00:00</time>
      </trkpt>
      <trkpt lat="45.17524" lon="5.97993">
        <ele>2319</ele>
        <time>2024-06-05T21:48:17+00:00</time>
      </trkpt>
      <trkpt lat="45.17525" lon="5.9799">
        <ele>2319</ele>
        <time>2024-06-05T21:48:20+00:00</time>
      </trkpt>
      <trkpt lat="45.17526" lon="5.97989">
        <ele>2318</ele>
        <time>2024-06-05T21:48:23+00:00</time>
      </trkpt>
      <trkpt lat="45.17528" lon="5.97986">
        <ele>2318</ele>
        <time>2024-06-05T21:48:26+00:00</time>
      </trkpt>
      <trkpt lat="45.1753" lon="5.97983">
        <ele>2318</ele>
        <time>2024-06-05T21:48:29+00:00</time>
      </trkpt>
      <trkpt lat="45.17531" lon="5.97979">
        <ele>2314</ele>
        <time>2024-06-05T21:48:32+00:00</time>
      </trkpt>
      <trkpt lat="45.17533" lon="5.97976">
        <ele>2314</ele>
        <time>2024-06-05T21:48:35+00:00</time>
      </trkpt>
      <trkpt lat="45.17535" lon="5.97972">
        <ele>2314</ele>
        <time>2024-06-05T21:48:38+00:00</time>
      </trkpt>
      <trkpt lat="45.17538" lon="5.97969">
        <ele>2314</ele>
        <time>2024-06-05T21:48:41+00:00</time>
      </trkpt>
      <trkpt lat="45.17542" lon="5.97962">
        <ele>2308</ele>
        <time>2024-06-05T21:48:44+00:00</time>
      </trkpt>
      <trkpt lat="45.17545" lon="5.97958">
        <ele>2308</ele>
        <time>2024-06-05T21:48:47+00:00</time>
      </trkpt>
      <trkpt lat="45.17547" lon="5.97958">
        <ele>2308</ele>
        <time>2024-06-05T21:48:50+00:00</time>
      </trkpt>
      <trkpt lat="45.17549" lon="5.9796">
        <ele>2308</ele>
        <time>2024-06-05T21:48:53+00:00</time>
      </trkpt>
      <trkpt lat="45.17551" lon="5.97958">
        <ele>2305</ele>
        <time>2024-06-05T21:48:56+00:00</time>
      </trkpt>
      <trkpt lat="45.17552" lon="5.97954">
        <ele>2305</ele>
        <time>2024-06-05T21:48:59+00:00</time>
      </trkpt>
      <trkpt lat="45.17555" lon="5.97951">
        <ele>2305</ele>
        <time>2024-06-05T21:49:02+00:00</time>
      </trkpt>
      <trkpt lat="45.17556" lon="5.97949">
        <ele>2305</ele>
        <time>2024-06-05T21:49:05+00:00</time>
      </trkpt>
      <trkpt lat="45.17558" lon="5.97946">
        <ele>2305</ele>
        <time>2024-06-05T21:49:08+00:00</time>
      </trkpt>
      <trkpt lat="45.17559" lon="5.97947">
        <ele>2305</ele>
        <time>2024-06-05T21:49:11+00:00</time>
      </trkpt>
      <trkpt lat="45.17561" lon="5.97949">
        <ele>2302</ele>
        <time>2024-06-05T21:49:14+00:00</time>
      </trkpt>
      <trkpt lat="45.17563" lon="5.97947">
        <ele>2302</ele>
        <time>2024-06-05T21:49:17+00:00</time>
      </trkpt>
      <trkpt lat="45.17566" lon="5.97943">
        <ele>2302</ele>
        <time>2024-06-05T21:49:20+00:00</time>
      </trkpt>
      <trkpt lat="45.17569" lon="5.97942">
        <ele>2302</ele>
        <time>2024-06-05T21:49:23+00:00</time>
      </trkpt>
      <trkpt lat="45.17572" lon="5.97939">
        <ele>2298</ele>
        <time>2024-06-05T21:49:26+00:00</time>
      </trkpt>
      <trkpt lat="45.17574" lon="5.97934">
        <ele>2298</ele>
        <time>2024-06-05T21:49:29+00:00</time>
      </trkpt>
      <trkpt lat="45.17577" lon="5.9793">
        <ele>2297</ele>
        <time>2024-06-05T21:49:32+00:00</time>
      </trkpt>
      <trkpt lat="45.1758" lon="5.97925">
        <ele>2295</ele>
        <time>2024-06-05T21:49:35+00:00</time>
      </trkpt>
      <trkpt lat="45.17584" lon="5.97922">
        <ele>2295</ele>
        <time>2024-06-05T21:49:38+00:00</time>
      </trkpt>
      <trkpt lat="45.17586" lon="5.97923">
        <ele>2295</ele>
        <time>2024-06-05T21:49:41+00:00</time>
      </trkpt>
      <trkpt lat="45.1759" lon="5.97924">
        <ele>2295</ele>
        <time>2024-06-05T21:49:44+00:00</time>
      </trkpt>
      <trkpt lat="45.17593" lon="5.97925">
        <ele>2292</ele>
        <time>2024-06-05T21:49:47+00:00</time>
      </trkpt>
      <trkpt lat="45.17595" lon="5.97927">
        <ele>2292</ele>
        <time>2024-06-05T21:49:50+00:00</time>
      </trkpt>
      <trkpt lat="45.17596" lon="5.97924">
        <ele>2292</ele>
        <time>2024-06-05T21:49:53+00:00</time>
      </trkpt>
      <trkpt lat="45.176" lon="5.9792">
        <ele>2292</ele>
        <time>2024-06-05T21:49:56+00:00</time>
      </trkpt>
      <trkpt lat="45.17604" lon="5.97917">
        <ele>2289</ele>
        <time>2024-06-05T21:49:59+00:00</time>
      </trkpt>
      <trkpt lat="45.17607" lon="5.97915">
        <ele>2289</ele>
        <time>2024-06-05T21:50:02+00:00</time>
      </trkpt>
      <trkpt lat="45.1761" lon="5.97914">
        <ele>2289</ele>
        <time>2024-06-05T21:50:05+00:00</time>
      </trkpt>
      <trkpt lat="45.17613" lon="5.97913">
        <ele>2287</ele>
        <time>2024-06-05T21:50:08+00:00</time>
      </trkpt>
      <trkpt lat="45.17616" lon="5.9791">
        <ele>2287</ele>
        <time>2024-06-05T21:50:11+00:00</time>
      </trkpt>
      <trkpt lat="45.17622" lon="5.97905">
        <ele>2284</ele>
        <time>2024-06-05T21:50:14+00:00</time>
      </trkpt>
      <trkpt lat="45.17626" lon="5.97903">
        <ele>2284</ele>
        <time>2024-06-05T21:50:17+00:00</time>
      </trkpt>
      <trkpt lat="45.17628" lon="5.97901">
        <ele>2284</ele>
        <time>2024-06-05T21:50:20+00:00</time>
      </trkpt>
      <trkpt lat="45.17631" lon="5.97898">
        <ele>2279</ele>
        <time>2024-06-05T21:50:23+00:00</time>
      </trkpt>
      <trkpt lat="45.17634" lon="5.97896">
        <ele>2279</ele>
        <time>2024-06-05T21:50:26+00:00</time>
      </trkpt>
      <trkpt lat="45.17638" lon="5.97893">
        <ele>2279</ele>
        <time>2024-06-05T21:50:29+00:00</time>
      </trkpt>
      <trkpt lat="45.17641" lon="5.97891">
        <ele>2277</ele>
        <time>2024-06-05T21:50:32+00:00</time>
      </trkpt>
      <trkpt lat="45.17644" lon="5.97889">
        <ele>2277</ele>
        <time>2024-06-05T21:50:35+00:00</time>
      </trkpt>
      <trkpt lat="45.17647" lon="5.9788">
        <ele>2277</ele>
        <time>2024-06-05T21:50:38+00:00</time>
      </trkpt>
      <trkpt lat="45.17649" lon="5.97871">
        <ele>2276</ele>
        <time>2024-06-05T21:50:41+00:00</time>
      </trkpt>
      <trkpt lat="45.17653" lon="5.97863">
        <ele>2274</ele>
        <time>2024-06-05T21:50:44+00:00</time>
      </trkpt>
      <trkpt lat="45.17657" lon="5.97856">
        <ele>2274</ele>
        <time>2024-06-05T21:50:47+00:00</time>
      </trkpt>
      <trkpt lat="45.17661" lon="5.97852">
        <ele>2272</ele>
        <time>2024-06-05T21:50:50+00:00</time>
      </trkpt>
      <trkpt lat="45.17665" lon="5.97856">
        <ele>2272</ele>
        <time>2024-06-05T21:50:53+00:00</time>
      </trkpt>
      <trkpt lat="45.17669" lon="5.97863">
        <ele>2272</ele>
        <time>2024-06-05T21:50:56+00:00</time>
      </trkpt>
      <trkpt lat="45.17673" lon="5.97868">
        <ele>2271</ele>
        <time>2024-06-05T21:50:59+00:00</time>
      </trkpt>
      <trkpt lat="45.17677" lon="5.97865">
        <ele>2271</ele>
        <time>2024-06-05T21:51:02+00:00</time>
      </trkpt>
      <trkpt lat="45.17681" lon="5.97861">
        <ele>2271</ele>
        <time>2024-06-05T21:51:05+00:00</time>
      </trkpt>
      <trkpt lat="45.17686" lon="5.97857">
        <ele>2270</ele>
        <time>2024-06-05T21:51:08+00:00</time>
      </trkpt>
      <trkpt lat="45.17689" lon="5.97853">
        <ele>2270</ele>
        <time>2024-06-05T21:51:11+00:00</time>
      </trkpt>
      <trkpt lat="45.17692" lon="5.97851">
        <ele>2270</ele>
        <time>2024-06-05T21:51:14+00:00</time>
      </trkpt>
      <trkpt lat="45.17694" lon="5.97846">
        <ele>2268</ele>
        <time>2024-06-05T21:51:17+00:00</time>
      </trkpt>
      <trkpt lat="45.17696" lon="5.97846">
        <ele>2268</ele>
        <time>2024-06-05T21:51:20+00:00</time>
      </trkpt>
      <trkpt lat="45.17699" lon="5.97841">
        <ele>2268</ele>
        <time>2024-06-05T21:51:23+00:00</time>
      </trkpt>
      <trkpt lat="45.17702" lon="5.97835">
        <ele>2267</ele>
        <time>2024-06-05T21:51:26+00:00</time>
      </trkpt>
      <trkpt lat="45.17704" lon="5.97832">
        <ele>2267</ele>
        <time>2024-06-05T21:51:29+00:00</time>
      </trkpt>
      <trkpt lat="45.17706" lon="5.97828">
        <ele>2265</ele>
        <time>2024-06-05T21:51:32+00:00</time>
      </trkpt>
      <trkpt lat="45.17708" lon="5.97824">
        <ele>2265</ele>
        <time>2024-06-05T21:51:35+00:00</time>
      </trkpt>
      <trkpt lat="45.17711" lon="5.97823">
        <ele>2264</ele>
        <time>2024-06-05T21:51:38+00:00</time>
      </trkpt>
      <trkpt lat="45.17713" lon="5.97821">
        <ele>2264</ele>
        <time>2024-06-05T21:51:41+00:00</time>
      </trkpt>
      <trkpt lat="45.17716" lon="5.97822">
        <ele>2264</ele>
        <time>2024-06-05T21:51:44+00:00</time>
      </trkpt>
      <trkpt lat="45.17719" lon="5.97822">
        <ele>2264</ele>
        <time>2024-06-05T21:51:47+00:00</time>
      </trkpt>
      <trkpt lat="45.17722" lon="5.9782">
        <ele>2262</ele>
        <time>2024-06-05T21:51:50+00:00</time>
      </trkpt>
      <trkpt lat="45.17726" lon="5.9782">
        <ele>2264</ele>
        <time>2024-06-05T21:51:53+00:00</time>
      </trkpt>
      <trkpt lat="45.17728" lon="5.97817">
        <ele>2262</ele>
        <time>2024-06-05T21:51:56+00:00</time>
      </trkpt>
      <trkpt lat="45.17733" lon="5.97816">
        <ele>2262</ele>
        <time>2024-06-05T21:51:59+00:00</time>
      </trkpt>
      <trkpt lat="45.17737" lon="5.97813">
        <ele>2262</ele>
        <time>2024-06-05T21:52:02+00:00</time>
      </trkpt>
      <trkpt lat="45.17739" lon="5.97807">
        <ele>2261</ele>
        <time>2024-06-05T21:52:05+00:00</time>
      </trkpt>
      <trkpt lat="45.17744" lon="5.97806">
        <ele>2262</ele>
        <time>2024-06-05T21:52:08+00:00</time>
      </trkpt>
      <trkpt lat="45.17777" lon="5.97811">
        <ele>2261</ele>
        <time>2024-06-05T21:52:11+00:00</time>
      </trkpt>
      <trkpt lat="45.17794" lon="5.97808">
        <ele>2255</ele>
        <time>2024-06-05T21:52:14+00:00</time>
      </trkpt>
      <trkpt lat="45.17806" lon="5.97803">
        <ele>2254</ele>
        <time>2024-06-05T21:52:17+00:00</time>
      </trkpt>
      <trkpt lat="45.17824" lon="5.97802">
        <ele>2248</ele>
        <time>2024-06-05T21:52:20+00:00</time>
      </trkpt>
      <trkpt lat="45.1784" lon="5.97796">
        <ele>2244</ele>
        <time>2024-06-05T21:52:23+00:00</time>
      </trkpt>
      <trkpt lat="45.17855" lon="5.97786">
        <ele>2240</ele>
        <time>2024-06-05T21:52:26+00:00</time>
      </trkpt>
      <trkpt lat="45.17872" lon="5.97786">
        <ele>2243</ele>
        <time>2024-06-05T21:52:29+00:00</time>
      </trkpt>
      <trkpt lat="45.17893" lon="5.97773">
        <ele>2242</ele>
        <time>2024-06-05T21:52:32+00:00</time>
      </trkpt>
      <trkpt lat="45.17925" lon="5.97732">
        <ele>2234</ele>
        <time>2024-06-05T21:52:35+00:00</time>
      </trkpt>
      <trkpt lat="45.17932" lon="5.97715">
        <ele>2231</ele>
        <time>2024-06-05T21:52:38+00:00</time>
      </trkpt>
      <trkpt lat="45.17935" lon="5.97712">
        <ele>2231</ele>
        <time>2024-06-05T21:52:41+00:00</time>
      </trkpt>
      <trkpt lat="45.17936" lon="5.97706">
        <ele>2229</ele>
        <time>2024-06-05T21:52:44+00:00</time>
      </trkpt>
      <trkpt lat="45.17942" lon="5.97686">
        <ele>2226</ele>
        <time>2024-06-05T21:52:47+00:00</time>
      </trkpt>
      <trkpt lat="45.17943" lon="5.97683">
        <ele>2226</ele>
        <time>2024-06-05T21:52:50+00:00</time>
      </trkpt>
      <trkpt lat="45.17946" lon="5.97681">
        <ele>2226</ele>
        <time>2024-06-05T21:52:53+00:00</time>
      </trkpt>
      <trkpt lat="45.1795" lon="5.97679">
        <ele>2223</ele>
        <time>2024-06-05T21:52:56+00:00</time>
      </trkpt>
      <trkpt lat="45.17955" lon="5.97676">
        <ele>2223</ele>
        <time>2024-06-05T21:52:59+00:00</time>
      </trkpt>
      <trkpt lat="45.17958" lon="5.97675">
        <ele>2223</ele>
        <time>2024-06-05T21:53:02+00:00</time>
      </trkpt>
      <trkpt lat="45.17961" lon="5.97674">
        <ele>2221</ele>
        <time>2024-06-05T21:53:05+00:00</time>
      </trkpt>
      <trkpt lat="45.17964" lon="5.97675">
        <ele>2221</ele>
        <time>2024-06-05T21:53:08+00:00</time>
      </trkpt>
      <trkpt lat="45.17966" lon="5.97674">
        <ele>2221</ele>
        <time>2024-06-05T21:53:11+00:00</time>
      </trkpt>
      <trkpt lat="45.17969" lon="5.97673">
        <ele>2221</ele>
        <time>2024-06-05T21:53:14+00:00</time>
      </trkpt>
      <trkpt lat="45.17972" lon="5.97669">
        <ele>2215</ele>
        <time>2024-06-05T21:53:17+00:00</time>
      </trkpt>
      <trkpt lat="45.17974" lon="5.97669">
        <ele>2215</ele>
        <time>2024-06-05T21:53:20+00:00</time>
      </trkpt>
      <trkpt lat="45.17978" lon="5.97666">
        <ele>2215</ele>
        <time>2024-06-05T21:53:23+00:00</time>
      </trkpt>
      <trkpt lat="45.17982" lon="5.97666">
        <ele>2214</ele>
        <time>2024-06-05T21:53:26+00:00</time>
      </trkpt>
      <trkpt lat="45.17985" lon="5.97664">
        <ele>2214</ele>
        <time>2024-06-05T21:53:29+00:00</time>
      </trkpt>
      <trkpt lat="45.17988" lon="5.97663">
        <ele>2214</ele>
        <time>2024-06-05T21:53:32+00:00</time>
      </trkpt>
      <trkpt lat="45.17992" lon="5.97659">
        <ele>2211</ele>
        <time>2024-06-05T21:53:35+00:00</time>
      </trkpt>
      <trkpt lat="45.17995" lon="5.97657">
        <ele>2211</ele>
        <time>2024-06-05T21:53:38+00:00</time>
      </trkpt>
      <trkpt lat="45.17997" lon="5.97656">
        <ele>2211</ele>
        <time>2024-06-05T21:53:41+00:00</time>
      </trkpt>
      <trkpt lat="45.18" lon="5.97655">
        <ele>2211</ele>
        <time>2024-06-05T21:53:44+00:00</time>
      </trkpt>
      <trkpt lat="45.18003" lon="5.97652">
        <ele>2209</ele>
        <time>2024-06-05T21:53:47+00:00</time>
      </trkpt>
      <trkpt lat="45.18009" lon="5.97647">
        <ele>2208</ele>
        <time>2024-06-05T21:53:50+00:00</time>
      </trkpt>
      <trkpt lat="45.18013" lon="5.97641">
        <ele>2206</ele>
        <time>2024-06-05T21:53:53+00:00</time>
      </trkpt>
      <trkpt lat="45.18019" lon="5.97639">
        <ele>2204</ele>
        <time>2024-06-05T21:53:56+00:00</time>
      </trkpt>
      <trkpt lat="45.18023" lon="5.97633">
        <ele>2203</ele>
        <time>2024-06-05T21:53:59+00:00</time>
      </trkpt>
      <trkpt lat="45.18028" lon="5.97625">
        <ele>2202</ele>
        <time>2024-06-05T21:54:02+00:00</time>
      </trkpt>
      <trkpt lat="45.18031" lon="5.97616">
        <ele>2201</ele>
        <time>2024-06-05T21:54:05+00:00</time>
      </trkpt>
      <trkpt lat="45.18033" lon="5.97608">
        <ele>2200</ele>
        <time>2024-06-05T21:54:08+00:00</time>
      </trkpt>
      <trkpt lat="45.18033" lon="5.97602">
        <ele>2200</ele>
        <time>2024-06-05T21:54:11+00:00</time>
      </trkpt>
      <trkpt lat="45.18034" lon="5.97596">
        <ele>2200</ele>
        <time>2024-06-05T21:54:14+00:00</time>
      </trkpt>
      <trkpt lat="45.18034" lon="5.97591">
        <ele>2200</ele>
        <time>2024-06-05T21:54:17+00:00</time>
      </trkpt>
      <trkpt lat="45.18034" lon="5.97586">
        <ele>2199</ele>
        <time>2024-06-05T21:54:20+00:00</time>
      </trkpt>
      <trkpt lat="45.18034" lon="5.97582">
        <ele>2199</ele>
        <time>2024-06-05T21:54:23+00:00</time>
      </trkpt>
      <trkpt lat="45.18034" lon="5.97577">
        <ele>2199</ele>
        <time>2024-06-05T21:54:26+00:00</time>
      </trkpt>
      <trkpt lat="45.18034" lon="5.97572">
        <ele>2199</ele>
        <time>2024-06-05T21:54:29+00:00</time>
      </trkpt>
      <trkpt lat="45.18035" lon="5.97567">
        <ele>2198</ele>
        <time>2024-06-05T21:54:32+00:00</time>
      </trkpt>
      <trkpt lat="45.18036" lon="5.97562">
        <ele>2198</ele>
        <time>2024-06-05T21:54:35+00:00</time>
      </trkpt>
      <trkpt lat="45.18037" lon="5.97557">
        <ele>2198</ele>
        <time>2024-06-05T21:54:38+00:00</time>
      </trkpt>
      <trkpt lat="45.18038" lon="5.97553">
        <ele>2197</ele>
        <time>2024-06-05T21:54:41+00:00</time>
      </trkpt>
      <trkpt lat="45.18039" lon="5.9755">
        <ele>2196</ele>
        <time>2024-06-05T21:54:44+00:00</time>
      </trkpt>
      <trkpt lat="45.18039" lon="5.97546">
        <ele>2196</ele>
        <time>2024-06-05T21:54:47+00:00</time>
      </trkpt>
      <trkpt lat="45.1804" lon="5.97543">
        <ele>2196</ele>
        <time>2024-06-05T21:54:50+00:00</time>
      </trkpt>
      <trkpt lat="45.18041" lon="5.97539">
        <ele>2199</ele>
        <time>2024-06-05T21:54:53+00:00</time>
      </trkpt>
      <trkpt lat="45.18041" lon="5.97536">
        <ele>2199</ele>
        <time>2024-06-05T21:54:56+00:00</time>
      </trkpt>
      <trkpt lat="45.18042" lon="5.97533">
        <ele>2199</ele>
        <time>2024-06-05T21:54:59+00:00</time>
      </trkpt>
      <trkpt lat="45.18043" lon="5.97529">
        <ele>2198</ele>
        <time>2024-06-05T21:55:02+00:00</time>
      </trkpt>
      <trkpt lat="45.18043" lon="5.97526">
        <ele>2198</ele>
        <time>2024-06-05T21:55:05+00:00</time>
      </trkpt>
      <trkpt lat="45.18044" lon="5.97523">
        <ele>2198</ele>
        <time>2024-06-05T21:55:08+00:00</time>
      </trkpt>
      <trkpt lat="45.18045" lon="5.97519">
        <ele>2197</ele>
        <time>2024-06-05T21:55:11+00:00</time>
      </trkpt>
      <trkpt lat="45.18046" lon="5.97516">
        <ele>2197</ele>
        <time>2024-06-05T21:55:14+00:00</time>
      </trkpt>
      <trkpt lat="45.18049" lon="5.97513">
        <ele>2197</ele>
        <time>2024-06-05T21:55:17+00:00</time>
      </trkpt>
      <trkpt lat="45.1805" lon="5.97508">
        <ele>2201</ele>
        <time>2024-06-05T21:55:20+00:00</time>
      </trkpt>
      <trkpt lat="45.18051" lon="5.97504">
        <ele>2198</ele>
        <time>2024-06-05T21:55:23+00:00</time>
      </trkpt>
      <trkpt lat="45.18051" lon="5.97499">
        <ele>2201</ele>
        <time>2024-06-05T21:55:26+00:00</time>
      </trkpt>
      <trkpt lat="45.1805" lon="5.97495">
        <ele>2201</ele>
        <time>2024-06-05T21:55:29+00:00</time>
      </trkpt>
      <trkpt lat="45.1805" lon="5.9749">
        <ele>2197</ele>
        <time>2024-06-05T21:55:32+00:00</time>
      </trkpt>
      <trkpt lat="45.18049" lon="5.97486">
        <ele>2198</ele>
        <time>2024-06-05T21:55:35+00:00</time>
      </trkpt>
      <trkpt lat="45.18048" lon="5.97482">
        <ele>2198</ele>
        <time>2024-06-05T21:55:38+00:00</time>
      </trkpt>
      <trkpt lat="45.18047" lon="5.97478">
        <ele>2197</ele>
        <time>2024-06-05T21:55:41+00:00</time>
      </trkpt>
      <trkpt lat="45.18046" lon="5.97472">
        <ele>2199</ele>
        <time>2024-06-05T21:55:44+00:00</time>
      </trkpt>
      <trkpt lat="45.18045" lon="5.97466">
        <ele>2200</ele>
        <time>2024-06-05T21:55:47+00:00</time>
      </trkpt>
      <trkpt lat="45.18043" lon="5.97459">
        <ele>2202</ele>
        <time>2024-06-05T21:55:50+00:00</time>
      </trkpt>
      <trkpt lat="45.18041" lon="5.97454">
        <ele>2202</ele>
        <time>2024-06-05T21:55:53+00:00</time>
      </trkpt>
      <trkpt lat="45.18038" lon="5.97449">
        <ele>2197</ele>
        <time>2024-06-05T21:55:56+00:00</time>
      </trkpt>
      <trkpt lat="45.18036" lon="5.97444">
        <ele>2197</ele>
        <time>2024-06-05T21:55:59+00:00</time>
      </trkpt>
      <trkpt lat="45.18035" lon="5.97441">
        <ele>2197</ele>
        <time>2024-06-05T21:56:02+00:00</time>
      </trkpt>
      <trkpt lat="45.18035" lon="5.97438">
        <ele>2198</ele>
        <time>2024-06-05T21:56:05+00:00</time>
      </trkpt>
      <trkpt lat="45.18032" lon="5.97431">
        <ele>2198</ele>
        <time>2024-06-05T21:56:08+00:00</time>
      </trkpt>
      <trkpt lat="45.18032" lon="5.97425">
        <ele>2199</ele>
        <time>2024-06-05T21:56:11+00:00</time>
      </trkpt>
      <trkpt lat="45.18032" lon="5.97417">
        <ele>2196</ele>
        <time>2024-06-05T21:56:14+00:00</time>
      </trkpt>
      <trkpt lat="45.18032" lon="5.97411">
        <ele>2200</ele>
        <time>2024-06-05T21:56:17+00:00</time>
      </trkpt>
      <trkpt lat="45.18031" lon="5.97406">
        <ele>2201</ele>
        <time>2024-06-05T21:56:20+00:00</time>
      </trkpt>
      <trkpt lat="45.18031" lon="5.97401">
        <ele>2201</ele>
        <time>2024-06-05T21:56:23+00:00</time>
      </trkpt>
      <trkpt lat="45.18028" lon="5.97398">
        <ele>2194</ele>
        <time>2024-06-05T21:56:26+00:00</time>
      </trkpt>
      <trkpt lat="45.18028" lon="5.97393">
        <ele>2194</ele>
        <time>2024-06-05T21:56:29+00:00</time>
      </trkpt>
      <trkpt lat="45.18027" lon="5.97388">
        <ele>2196</ele>
        <time>2024-06-05T21:56:32+00:00</time>
      </trkpt>
      <trkpt lat="45.18026" lon="5.97384">
        <ele>2195</ele>
        <time>2024-06-05T21:56:35+00:00</time>
      </trkpt>
      <trkpt lat="45.18024" lon="5.97378">
        <ele>2196</ele>
        <time>2024-06-05T21:56:38+00:00</time>
      </trkpt>
      <trkpt lat="45.18022" lon="5.97374">
        <ele>2196</ele>
        <time>2024-06-05T21:56:41+00:00</time>
      </trkpt>
      <trkpt lat="45.18021" lon="5.97371">
        <ele>2196</ele>
        <time>2024-06-05T21:56:44+00:00</time>
      </trkpt>
      <trkpt lat="45.18021" lon="5.97367">
        <ele>2196</ele>
        <time>2024-06-05T21:56:47+00:00</time>
      </trkpt>
      <trkpt lat="45.1802" lon="5.97363">
        <ele>2196</ele>
        <time>2024-06-05T21:56:50+00:00</time>
      </trkpt>
      <trkpt lat="45.1802" lon="5.9736">
        <ele>2196</ele>
        <time>2024-06-05T21:56:53+00:00</time>
      </trkpt>
      <trkpt lat="45.1802" lon="5.97357">
        <ele>2196</ele>
        <time>2024-06-05T21:56:56+00:00</time>
      </trkpt>
      <trkpt lat="45.1802" lon="5.97354">
        <ele>2196</ele>
        <time>2024-06-05T21:56:59+00:00</time>
      </trkpt>
      <trkpt lat="45.1802" lon="5.97349">
        <ele>2196</ele>
        <time>2024-06-05T21:57:02+00:00</time>
      </trkpt>
      <trkpt lat="45.1802" lon="5.97346">
        <ele>2196</ele>
        <time>2024-06-05T21:57:05+00:00</time>
      </trkpt>
      <trkpt lat="45.18022" lon="5.97341">
        <ele>2196</ele>
        <time>2024-06-05T21:57:08+00:00</time>
      </trkpt>
      <trkpt lat="45.18023" lon="5.97335">
        <ele>2196</ele>
        <time>2024-06-05T21:57:11+00:00</time>
      </trkpt>
      <trkpt lat="45.18025" lon="5.97329">
        <ele>2196</ele>
        <time>2024-06-05T21:57:14+00:00</time>
      </trkpt>
      <trkpt lat="45.18025" lon="5.97326">
        <ele>2196</ele>
        <time>2024-06-05T21:57:17+00:00</time>
      </trkpt>
      <trkpt lat="45.18025" lon="5.97323">
        <ele>2196</ele>
        <time>2024-06-05T21:57:20+00:00</time>
      </trkpt>
      <trkpt lat="45.18024" lon="5.97319">
        <ele>2196</ele>
        <time>2024-06-05T21:57:23+00:00</time>
      </trkpt>
      <trkpt lat="45.18026" lon="5.97316">
        <ele>2196</ele>
        <time>2024-06-05T21:57:26+00:00</time>
      </trkpt>
      <trkpt lat="45.18026" lon="5.97312">
        <ele>2196</ele>
        <time>2024-06-05T21:57:29+00:00</time>
      </trkpt>
      <trkpt lat="45.18025" lon="5.9731">
        <ele>2196</ele>
        <time>2024-06-05T21:57:32+00:00</time>
      </trkpt>
      <trkpt lat="45.18025" lon="5.97307">
        <ele>2195</ele>
        <time>2024-06-05T21:57:35+00:00</time>
      </trkpt>
      <trkpt lat="45.18028" lon="5.97303">
        <ele>2195</ele>
        <time>2024-06-05T21:57:38+00:00</time>
      </trkpt>
      <trkpt lat="45.1803" lon="5.973">
        <ele>2194</ele>
        <time>2024-06-05T21:57:41+00:00</time>
      </trkpt>
      <trkpt lat="45.1803" lon="5.97294">
        <ele>2203</ele>
        <time>2024-06-05T21:57:44+00:00</time>
      </trkpt>
      <trkpt lat="45.18031" lon="5.9729">
        <ele>2202</ele>
        <time>2024-06-05T21:57:47+00:00</time>
      </trkpt>
      <trkpt lat="45.18031" lon="5.97286">
        <ele>2202</ele>
        <time>2024-06-05T21:57:50+00:00</time>
      </trkpt>
      <trkpt lat="45.18031" lon="5.97282">
        <ele>2202</ele>
        <time>2024-06-05T21:57:53+00:00</time>
      </trkpt>
      <trkpt lat="45.18032" lon="5.97277">
        <ele>2201</ele>
        <time>2024-06-05T21:57:56+00:00</time>
      </trkpt>
      <trkpt lat="45.18032" lon="5.97272">
        <ele>2201</ele>
        <time>2024-06-05T21:57:59+00:00</time>
      </trkpt>
      <trkpt lat="45.18032" lon="5.97267">
        <ele>2201</ele>
        <time>2024-06-05T21:58:02+00:00</time>
      </trkpt>
      <trkpt lat="45.18033" lon="5.97262">
        <ele>2201</ele>
        <time>2024-06-05T21:58:05+00:00</time>
      </trkpt>
      <trkpt lat="45.18033" lon="5.97256">
        <ele>2202</ele>
        <time>2024-06-05T21:58:08+00:00</time>
      </trkpt>
      <trkpt lat="45.18032" lon="5.9725">
        <ele>2203</ele>
        <time>2024-06-05T21:58:11+00:00</time>
      </trkpt>
      <trkpt lat="45.18033" lon="5.97246">
        <ele>2205</ele>
        <time>2024-06-05T21:58:14+00:00</time>
      </trkpt>
      <trkpt lat="45.18032" lon="5.97241">
        <ele>2205</ele>
        <time>2024-06-05T21:58:17+00:00</time>
      </trkpt>
      <trkpt lat="45.18031" lon="5.97237">
        <ele>2208</ele>
        <time>2024-06-05T21:58:20+00:00</time>
      </trkpt>
      <trkpt lat="45.1803" lon="5.97233">
        <ele>2200</ele>
        <time>2024-06-05T21:58:23+00:00</time>
      </trkpt>
      <trkpt lat="45.18028" lon="5.9723">
        <ele>2202</ele>
        <time>2024-06-05T21:58:26+00:00</time>
      </trkpt>
      <trkpt lat="45.18027" lon="5.97226">
        <ele>2202</ele>
        <time>2024-06-05T21:58:29+00:00</time>
      </trkpt>
      <trkpt lat="45.18026" lon="5.97219">
        <ele>2205</ele>
        <time>2024-06-05T21:58:32+00:00</time>
      </trkpt>
      <trkpt lat="45.18024" lon="5.97213">
        <ele>2205</ele>
        <time>2024-06-05T21:58:35+00:00</time>
      </trkpt>
      <trkpt lat="45.18022" lon="5.9721">
        <ele>2205</ele>
        <time>2024-06-05T21:58:38+00:00</time>
      </trkpt>
      <trkpt lat="45.18021" lon="5.97207">
        <ele>2207</ele>
        <time>2024-06-05T21:58:41+00:00</time>
      </trkpt>
      <trkpt lat="45.18018" lon="5.97202">
        <ele>2202</ele>
        <time>2024-06-05T21:58:44+00:00</time>
      </trkpt>
      <trkpt lat="45.18016" lon="5.97197">
        <ele>2203</ele>
        <time>2024-06-05T21:58:47+00:00</time>
      </trkpt>
      <trkpt lat="45.18014" lon="5.97194">
        <ele>2203</ele>
        <time>2024-06-05T21:58:50+00:00</time>
      </trkpt>
      <trkpt lat="45.18013" lon="5.9719">
        <ele>2203</ele>
        <time>2024-06-05T21:58:53+00:00</time>
      </trkpt>
      <trkpt lat="45.18012" lon="5.97187">
        <ele>2203</ele>
        <time>2024-06-05T21:58:56+00:00</time>
      </trkpt>
      <trkpt lat="45.18012" lon="5.97184">
        <ele>2203</ele>
        <time>2024-06-05T21:58:59+00:00</time>
      </trkpt>
      <trkpt lat="45.18013" lon="5.9718">
        <ele>2203</ele>
        <time>2024-06-05T21:59:02+00:00</time>
      </trkpt>
      <trkpt lat="45.18016" lon="5.97174">
        <ele>2202</ele>
        <time>2024-06-05T21:59:05+00:00</time>
      </trkpt>
      <trkpt lat="45.18017" lon="5.9717">
        <ele>2203</ele>
        <time>2024-06-05T21:59:08+00:00</time>
      </trkpt>
      <trkpt lat="45.18018" lon="5.97165">
        <ele>2202</ele>
        <time>2024-06-05T21:59:11+00:00</time>
      </trkpt>
      <trkpt lat="45.18018" lon="5.97159">
        <ele>2202</ele>
        <time>2024-06-05T21:59:14+00:00</time>
      </trkpt>
      <trkpt lat="45.18018" lon="5.97153">
        <ele>2202</ele>
        <time>2024-06-05T21:59:17+00:00</time>
      </trkpt>
      <trkpt lat="45.18019" lon="5.97147">
        <ele>2202</ele>
        <time>2024-06-05T21:59:20+00:00</time>
      </trkpt>
      <trkpt lat="45.18019" lon="5.97143">
        <ele>2202</ele>
        <time>2024-06-05T21:59:23+00:00</time>
      </trkpt>
      <trkpt lat="45.18019" lon="5.97138">
        <ele>2202</ele>
        <time>2024-06-05T21:59:26+00:00</time>
      </trkpt>
      <trkpt lat="45.18022" lon="5.97135">
        <ele>2204</ele>
        <time>2024-06-05T21:59:29+00:00</time>
      </trkpt>
      <trkpt lat="45.18024" lon="5.97131">
        <ele>2204</ele>
        <time>2024-06-05T21:59:32+00:00</time>
      </trkpt>
      <trkpt lat="45.18025" lon="5.97126">
        <ele>2203</ele>
        <time>2024-06-05T21:59:35+00:00</time>
      </trkpt>
      <trkpt lat="45.18026" lon="5.97121">
        <ele>2201</ele>
        <time>2024-06-05T21:59:38+00:00</time>
      </trkpt>
      <trkpt lat="45.18027" lon="5.97117">
        <ele>2202</ele>
        <time>2024-06-05T21:59:41+00:00</time>
      </trkpt>
      <trkpt lat="45.18029" lon="5.97113">
        <ele>2202</ele>
        <time>2024-06-05T21:59:44+00:00</time>
      </trkpt>
      <trkpt lat="45.18032" lon="5.97108">
        <ele>2202</ele>
        <time>2024-06-05T21:59:47+00:00</time>
      </trkpt>
      <trkpt lat="45.18034" lon="5.97104">
        <ele>2202</ele>
        <time>2024-06-05T21:59:50+00:00</time>
      </trkpt>
      <trkpt lat="45.18035" lon="5.971">
        <ele>2201</ele>
        <time>2024-06-05T21:59:53+00:00</time>
      </trkpt>
      <trkpt lat="45.18035" lon="5.97095">
        <ele>2201</ele>
        <time>2024-06-05T21:59:56+00:00</time>
      </trkpt>
      <trkpt lat="45.18035" lon="5.97091">
        <ele>2201</ele>
        <time>2024-06-05T21:59:59+00:00</time>
      </trkpt>
      <trkpt lat="45.18035" lon="5.97087">
        <ele>2199</ele>
        <time>2024-06-05T22:00:02+00:00</time>
      </trkpt>
      <trkpt lat="45.18035" lon="5.97082">
        <ele>2199</ele>
        <time>2024-06-05T22:00:05+00:00</time>
      </trkpt>
      <trkpt lat="45.18035" lon="5.97078">
        <ele>2197</ele>
        <time>2024-06-05T22:00:08+00:00</time>
      </trkpt>
      <trkpt lat="45.18035" lon="5.97073">
        <ele>2197</ele>
        <time>2024-06-05T22:00:11+00:00</time>
      </trkpt>
      <trkpt lat="45.18035" lon="5.97067">
        <ele>2196</ele>
        <time>2024-06-05T22:00:14+00:00</time>
      </trkpt>
      <trkpt lat="45.18035" lon="5.97062">
        <ele>2196</ele>
        <time>2024-06-05T22:00:17+00:00</time>
      </trkpt>
      <trkpt lat="45.18035" lon="5.97057">
        <ele>2195</ele>
        <time>2024-06-05T22:00:20+00:00</time>
      </trkpt>
      <trkpt lat="45.18035" lon="5.97052">
        <ele>2195</ele>
        <time>2024-06-05T22:00:23+00:00</time>
      </trkpt>
      <trkpt lat="45.18034" lon="5.97048">
        <ele>2193</ele>
        <time>2024-06-05T22:00:26+00:00</time>
      </trkpt>
      <trkpt lat="45.18034" lon="5.97043">
        <ele>2193</ele>
        <time>2024-06-05T22:00:29+00:00</time>
      </trkpt>
      <trkpt lat="45.18033" lon="5.97038">
        <ele>2191</ele>
        <time>2024-06-05T22:00:32+00:00</time>
      </trkpt>
      <trkpt lat="45.18033" lon="5.97032">
        <ele>2191</ele>
        <time>2024-06-05T22:00:35+00:00</time>
      </trkpt>
      <trkpt lat="45.18032" lon="5.97027">
        <ele>2187</ele>
        <time>2024-06-05T22:00:38+00:00</time>
      </trkpt>
      <trkpt lat="45.18031" lon="5.97022">
        <ele>2187</ele>
        <time>2024-06-05T22:00:41+00:00</time>
      </trkpt>
      <trkpt lat="45.18031" lon="5.97018">
        <ele>2185</ele>
        <time>2024-06-05T22:00:44+00:00</time>
      </trkpt>
      <trkpt lat="45.18031" lon="5.97013">
        <ele>2185</ele>
        <time>2024-06-05T22:00:47+00:00</time>
      </trkpt>
      <trkpt lat="45.18032" lon="5.97009">
        <ele>2182</ele>
        <time>2024-06-05T22:00:50+00:00</time>
      </trkpt>
      <trkpt lat="45.18033" lon="5.97004">
        <ele>2182</ele>
        <time>2024-06-05T22:00:53+00:00</time>
      </trkpt>
      <trkpt lat="45.18034" lon="5.97">
        <ele>2180</ele>
        <time>2024-06-05T22:00:56+00:00</time>
      </trkpt>
      <trkpt lat="45.18036" lon="5.96995">
        <ele>2180</ele>
        <time>2024-06-05T22:00:59+00:00</time>
      </trkpt>
      <trkpt lat="45.18037" lon="5.96991">
        <ele>2180</ele>
        <time>2024-06-05T22:01:02+00:00</time>
      </trkpt>
      <trkpt lat="45.18039" lon="5.96988">
        <ele>2178</ele>
        <time>2024-06-05T22:01:05+00:00</time>
      </trkpt>
      <trkpt lat="45.18042" lon="5.96984">
        <ele>2178</ele>
        <time>2024-06-05T22:01:08+00:00</time>
      </trkpt>
      <trkpt lat="45.18046" lon="5.96979">
        <ele>2177</ele>
        <time>2024-06-05T22:01:11+00:00</time>
      </trkpt>
      <trkpt lat="45.18051" lon="5.96974">
        <ele>2176</ele>
        <time>2024-06-05T22:01:14+00:00</time>
      </trkpt>
      <trkpt lat="45.18053" lon="5.96969">
        <ele>2176</ele>
        <time>2024-06-05T22:01:17+00:00</time>
      </trkpt>
      <trkpt lat="45.18055" lon="5.96963">
        <ele>2176</ele>
        <time>2024-06-05T22:01:20+00:00</time>
      </trkpt>
      <trkpt lat="45.18058" lon="5.96964">
        <ele>2176</ele>
        <time>2024-06-05T22:01:23+00:00</time>
      </trkpt>
      <trkpt lat="45.1806" lon="5.96965">
        <ele>2176</ele>
        <time>2024-06-05T22:01:26+00:00</time>
      </trkpt>
      <trkpt lat="45.18063" lon="5.96967">
        <ele>2174</ele>
        <time>2024-06-05T22:01:29+00:00</time>
      </trkpt>
      <trkpt lat="45.18067" lon="5.96972">
        <ele>2174</ele>
        <time>2024-06-05T22:01:32+00:00</time>
      </trkpt>
      <trkpt lat="45.1807" lon="5.96973">
        <ele>2172</ele>
        <time>2024-06-05T22:01:35+00:00</time>
      </trkpt>
      <trkpt lat="45.18074" lon="5.96974">
        <ele>2172</ele>
        <time>2024-06-05T22:01:38+00:00</time>
      </trkpt>
      <trkpt lat="45.18077" lon="5.96975">
        <ele>2172</ele>
        <time>2024-06-05T22:01:41+00:00</time>
      </trkpt>
      <trkpt lat="45.1808" lon="5.96975">
        <ele>2171</ele>
        <time>2024-06-05T22:01:44+00:00</time>
      </trkpt>
      <trkpt lat="45.18083" lon="5.96975">
        <ele>2171</ele>
        <time>2024-06-05T22:01:47+00:00</time>
      </trkpt>
      <trkpt lat="45.18086" lon="5.96975">
        <ele>2171</ele>
        <time>2024-06-05T22:01:50+00:00</time>
      </trkpt>
      <trkpt lat="45.18088" lon="5.96975">
        <ele>2171</ele>
        <time>2024-06-05T22:01:53+00:00</time>
      </trkpt>
      <trkpt lat="45.18091" lon="5.96975">
        <ele>2169</ele>
        <time>2024-06-05T22:01:56+00:00</time>
      </trkpt>
      <trkpt lat="45.18094" lon="5.96975">
        <ele>2169</ele>
        <time>2024-06-05T22:01:59+00:00</time>
      </trkpt>
      <trkpt lat="45.18098" lon="5.96975">
        <ele>2169</ele>
        <time>2024-06-05T22:02:02+00:00</time>
      </trkpt>
      <trkpt lat="45.181" lon="5.96975">
        <ele>2167</ele>
        <time>2024-06-05T22:02:05+00:00</time>
      </trkpt>
      <trkpt lat="45.18103" lon="5.96976">
        <ele>2167</ele>
        <time>2024-06-05T22:02:08+00:00</time>
      </trkpt>
      <trkpt lat="45.18107" lon="5.96976">
        <ele>2167</ele>
        <time>2024-06-05T22:02:11+00:00</time>
      </trkpt>
      <trkpt lat="45.18111" lon="5.96977">
        <ele>2165</ele>
        <time>2024-06-05T22:02:14+00:00</time>
      </trkpt>
      <trkpt lat="45.18115" lon="5.96977">
        <ele>2165</ele>
        <time>2024-06-05T22:02:17+00:00</time>
      </trkpt>
      <trkpt lat="45.18119" lon="5.96978">
        <ele>2165</ele>
        <time>2024-06-05T22:02:20+00:00</time>
      </trkpt>
      <trkpt lat="45.18123" lon="5.96978">
        <ele>2161</ele>
        <time>2024-06-05T22:02:23+00:00</time>
      </trkpt>
      <trkpt lat="45.18127" lon="5.96977">
        <ele>2161</ele>
        <time>2024-06-05T22:02:26+00:00</time>
      </trkpt>
      <trkpt lat="45.1813" lon="5.96976">
        <ele>2161</ele>
        <time>2024-06-05T22:02:29+00:00</time>
      </trkpt>
      <trkpt lat="45.18132" lon="5.96975">
        <ele>2157</ele>
        <time>2024-06-05T22:02:32+00:00</time>
      </trkpt>
      <trkpt lat="45.18136" lon="5.96973">
        <ele>2157</ele>
        <time>2024-06-05T22:02:35+00:00</time>
      </trkpt>
      <trkpt lat="45.18139" lon="5.96971">
        <ele>2157</ele>
        <time>2024-06-05T22:02:38+00:00</time>
      </trkpt>
      <trkpt lat="45.18142" lon="5.96967">
        <ele>2153</ele>
        <time>2024-06-05T22:02:41+00:00</time>
      </trkpt>
      <trkpt lat="45.18144" lon="5.96963">
        <ele>2153</ele>
        <time>2024-06-05T22:02:44+00:00</time>
      </trkpt>
      <trkpt lat="45.18146" lon="5.96959">
        <ele>2153</ele>
        <time>2024-06-05T22:02:47+00:00</time>
      </trkpt>
      <trkpt lat="45.18148" lon="5.96954">
        <ele>2153</ele>
        <time>2024-06-05T22:02:50+00:00</time>
      </trkpt>
      <trkpt lat="45.1815" lon="5.96949">
        <ele>2145</ele>
        <time>2024-06-05T22:02:53+00:00</time>
      </trkpt>
      <trkpt lat="45.18153" lon="5.96945">
        <ele>2145</ele>
        <time>2024-06-05T22:02:56+00:00</time>
      </trkpt>
      <trkpt lat="45.18155" lon="5.9694">
        <ele>2145</ele>
        <time>2024-06-05T22:02:59+00:00</time>
      </trkpt>
      <trkpt lat="45.18157" lon="5.96936">
        <ele>2145</ele>
        <time>2024-06-05T22:03:02+00:00</time>
      </trkpt>
      <trkpt lat="45.18159" lon="5.96932">
        <ele>2145</ele>
        <time>2024-06-05T22:03:05+00:00</time>
      </trkpt>
      <trkpt lat="45.18162" lon="5.96928">
        <ele>2141</ele>
        <time>2024-06-05T22:03:08+00:00</time>
      </trkpt>
      <trkpt lat="45.18166" lon="5.96925">
        <ele>2141</ele>
        <time>2024-06-05T22:03:11+00:00</time>
      </trkpt>
      <trkpt lat="45.18168" lon="5.96922">
        <ele>2141</ele>
        <time>2024-06-05T22:03:14+00:00</time>
      </trkpt>
      <trkpt lat="45.18168" lon="5.96922">
        <ele>2141</ele>
        <time>2024-06-05T22:03:17+00:00</time>
      </trkpt>
      <trkpt lat="45.18168" lon="5.96922">
        <ele>2141</ele>
        <time>2024-06-05T22:03:20+00:00</time>
      </trkpt>
      <trkpt lat="45.18171" lon="5.96921">
        <ele>2137</ele>
        <time>2024-06-05T22:03:23+00:00</time>
      </trkpt>
      <trkpt lat="45.18174" lon="5.96919">
        <ele>2136</ele>
        <time>2024-06-05T22:03:26+00:00</time>
      </trkpt>
      <trkpt lat="45.18175" lon="5.96914">
        <ele>2136</ele>
        <time>2024-06-05T22:03:29+00:00</time>
      </trkpt>
      <trkpt lat="45.18175" lon="5.9691">
        <ele>2136</ele>
        <time>2024-06-05T22:03:32+00:00</time>
      </trkpt>
      <trkpt lat="45.18174" lon="5.96907">
        <ele>2133</ele>
        <time>2024-06-05T22:03:35+00:00</time>
      </trkpt>
      <trkpt lat="45.18174" lon="5.96903">
        <ele>2133</ele>
        <time>2024-06-05T22:03:38+00:00</time>
      </trkpt>
      <trkpt lat="45.18175" lon="5.969">
        <ele>2133</ele>
        <time>2024-06-05T22:03:41+00:00</time>
      </trkpt>
      <trkpt lat="45.18175" lon="5.96895">
        <ele>2130</ele>
        <time>2024-06-05T22:03:44+00:00</time>
      </trkpt>
      <trkpt lat="45.18176" lon="5.96891">
        <ele>2130</ele>
        <time>2024-06-05T22:03:47+00:00</time>
      </trkpt>
      <trkpt lat="45.18176" lon="5.96888">
        <ele>2126</ele>
        <time>2024-06-05T22:03:50+00:00</time>
      </trkpt>
      <trkpt lat="45.18177" lon="5.96884">
        <ele>2126</ele>
        <time>2024-06-05T22:03:53+00:00</time>
      </trkpt>
      <trkpt lat="45.18178" lon="5.96879">
        <ele>2122</ele>
        <time>2024-06-05T22:03:56+00:00</time>
      </trkpt>
      <trkpt lat="45.18178" lon="5.96873">
        <ele>2122</ele>
        <time>2024-06-05T22:03:59+00:00</time>
      </trkpt>
      <trkpt lat="45.18177" lon="5.96868">
        <ele>2119</ele>
        <time>2024-06-05T22:04:02+00:00</time>
      </trkpt>
      <trkpt lat="45.18174" lon="5.96865">
        <ele>2119</ele>
        <time>2024-06-05T22:04:05+00:00</time>
      </trkpt>
      <trkpt lat="45.18175" lon="5.96865">
        <ele>2119</ele>
        <time>2024-06-05T22:04:08+00:00</time>
      </trkpt>
      <trkpt lat="45.18178" lon="5.96864">
        <ele>2119</ele>
        <time>2024-06-05T22:04:11+00:00</time>
      </trkpt>
      <trkpt lat="45.1818" lon="5.96863">
        <ele>2119</ele>
        <time>2024-06-05T22:04:14+00:00</time>
      </trkpt>
      <trkpt lat="45.18181" lon="5.96862">
        <ele>2111</ele>
        <time>2024-06-05T22:04:17+00:00</time>
      </trkpt>
      <trkpt lat="45.18181" lon="5.96857">
        <ele>2116</ele>
        <time>2024-06-05T22:04:20+00:00</time>
      </trkpt>
      <trkpt lat="45.18179" lon="5.96851">
        <ele>2116</ele>
        <time>2024-06-05T22:04:23+00:00</time>
      </trkpt>
      <trkpt lat="45.18177" lon="5.96847">
        <ele>2110</ele>
        <time>2024-06-05T22:04:26+00:00</time>
      </trkpt>
      <trkpt lat="45.18174" lon="5.96843">
        <ele>2110</ele>
        <time>2024-06-05T22:04:29+00:00</time>
      </trkpt>
      <trkpt lat="45.18171" lon="5.96839">
        <ele>2104</ele>
        <time>2024-06-05T22:04:32+00:00</time>
      </trkpt>
      <trkpt lat="45.1817" lon="5.96836">
        <ele>2104</ele>
        <time>2024-06-05T22:04:35+00:00</time>
      </trkpt>
      <trkpt lat="45.18168" lon="5.96833">
        <ele>2111</ele>
        <time>2024-06-05T22:04:38+00:00</time>
      </trkpt>
      <trkpt lat="45.18165" lon="5.9683">
        <ele>2111</ele>
        <time>2024-06-05T22:04:41+00:00</time>
      </trkpt>
      <trkpt lat="45.18163" lon="5.96828">
        <ele>2104</ele>
        <time>2024-06-05T22:04:44+00:00</time>
      </trkpt>
      <trkpt lat="45.1816" lon="5.96823">
        <ele>2104</ele>
        <time>2024-06-05T22:04:47+00:00</time>
      </trkpt>
      <trkpt lat="45.18157" lon="5.96816">
        <ele>2107</ele>
        <time>2024-06-05T22:04:50+00:00</time>
      </trkpt>
      <trkpt lat="45.18154" lon="5.96807">
        <ele>2103</ele>
        <time>2024-06-05T22:04:53+00:00</time>
      </trkpt>
      <trkpt lat="45.18154" lon="5.96803">
        <ele>2103</ele>
        <time>2024-06-05T22:04:56+00:00</time>
      </trkpt>
      <trkpt lat="45.18153" lon="5.96798">
        <ele>2097</ele>
        <time>2024-06-05T22:04:59+00:00</time>
      </trkpt>
      <trkpt lat="45.18151" lon="5.96793">
        <ele>2097</ele>
        <time>2024-06-05T22:05:02+00:00</time>
      </trkpt>
      <trkpt lat="45.18148" lon="5.96791">
        <ele>2112</ele>
        <time>2024-06-05T22:05:05+00:00</time>
      </trkpt>
      <trkpt lat="45.18145" lon="5.96786">
        <ele>2103</ele>
        <time>2024-06-05T22:05:08+00:00</time>
      </trkpt>
      <trkpt lat="45.18143" lon="5.96779">
        <ele>2100</ele>
        <time>2024-06-05T22:05:11+00:00</time>
      </trkpt>
      <trkpt lat="45.1814" lon="5.96772">
        <ele>2100</ele>
        <time>2024-06-05T22:05:14+00:00</time>
      </trkpt>
      <trkpt lat="45.18138" lon="5.96766">
        <ele>2107</ele>
        <time>2024-06-05T22:05:17+00:00</time>
      </trkpt>
      <trkpt lat="45.18135" lon="5.96755">
        <ele>2103</ele>
        <time>2024-06-05T22:05:20+00:00</time>
      </trkpt>
      <trkpt lat="45.18135" lon="5.96749">
        <ele>2100</ele>
        <time>2024-06-05T22:05:23+00:00</time>
      </trkpt>
      <trkpt lat="45.18131" lon="5.96741">
        <ele>2100</ele>
        <time>2024-06-05T22:05:26+00:00</time>
      </trkpt>
      <trkpt lat="45.18127" lon="5.96733">
        <ele>2104</ele>
        <time>2024-06-05T22:05:29+00:00</time>
      </trkpt>
      <trkpt lat="45.18124" lon="5.96727">
        <ele>2100</ele>
        <time>2024-06-05T22:05:32+00:00</time>
      </trkpt>
      <trkpt lat="45.18121" lon="5.9672">
        <ele>2099</ele>
        <time>2024-06-05T22:05:35+00:00</time>
      </trkpt>
      <trkpt lat="45.18118" lon="5.96714">
        <ele>2105</ele>
        <time>2024-06-05T22:05:38+00:00</time>
      </trkpt>
      <trkpt lat="45.18112" lon="5.96706">
        <ele>2101</ele>
        <time>2024-06-05T22:05:41+00:00</time>
      </trkpt>
      <trkpt lat="45.18107" lon="5.96696">
        <ele>2100</ele>
        <time>2024-06-05T22:05:44+00:00</time>
      </trkpt>
      <trkpt lat="45.18103" lon="5.96689">
        <ele>2095</ele>
        <time>2024-06-05T22:05:47+00:00</time>
      </trkpt>
      <trkpt lat="45.18101" lon="5.96686">
        <ele>2095</ele>
        <time>2024-06-05T22:05:50+00:00</time>
      </trkpt>
      <trkpt lat="45.18095" lon="5.9668">
        <ele>2100</ele>
        <time>2024-06-05T22:05:53+00:00</time>
      </trkpt>
      <trkpt lat="45.1809" lon="5.96676">
        <ele>2095</ele>
        <time>2024-06-05T22:05:56+00:00</time>
      </trkpt>
      <trkpt lat="45.18089" lon="5.96671">
        <ele>2101</ele>
        <time>2024-06-05T22:05:59+00:00</time>
      </trkpt>
      <trkpt lat="45.18088" lon="5.96669">
        <ele>2094</ele>
        <time>2024-06-05T22:06:02+00:00</time>
      </trkpt>
      <trkpt lat="45.18087" lon="5.96667">
        <ele>2094</ele>
        <time>2024-06-05T22:06:05+00:00</time>
      </trkpt>
      <trkpt lat="45.18085" lon="5.96666">
        <ele>2094</ele>
        <time>2024-06-05T22:06:08+00:00</time>
      </trkpt>
      <trkpt lat="45.18083" lon="5.96664">
        <ele>2094</ele>
        <time>2024-06-05T22:06:11+00:00</time>
      </trkpt>
      <trkpt lat="45.18081" lon="5.96659">
        <ele>2089</ele>
        <time>2024-06-05T22:06:14+00:00</time>
      </trkpt>
      <trkpt lat="45.18079" lon="5.96657">
        <ele>2093</ele>
        <time>2024-06-05T22:06:17+00:00</time>
      </trkpt>
      <trkpt lat="45.18078" lon="5.96655">
        <ele>2093</ele>
        <time>2024-06-05T22:06:20+00:00</time>
      </trkpt>
      <trkpt lat="45.18076" lon="5.96654">
        <ele>2093</ele>
        <time>2024-06-05T22:06:23+00:00</time>
      </trkpt>
      <trkpt lat="45.18074" lon="5.96652">
        <ele>2093</ele>
        <time>2024-06-05T22:06:26+00:00</time>
      </trkpt>
      <trkpt lat="45.18072" lon="5.9665">
        <ele>2087</ele>
        <time>2024-06-05T22:06:29+00:00</time>
      </trkpt>
      <trkpt lat="45.18072" lon="5.96647">
        <ele>2087</ele>
        <time>2024-06-05T22:06:32+00:00</time>
      </trkpt>
      <trkpt lat="45.18071" lon="5.96645">
        <ele>2087</ele>
        <time>2024-06-05T22:06:35+00:00</time>
      </trkpt>
      <trkpt lat="45.18069" lon="5.9664">
        <ele>2091</ele>
        <time>2024-06-05T22:06:38+00:00</time>
      </trkpt>
      <trkpt lat="45.18069" lon="5.96635">
        <ele>2082</ele>
        <time>2024-06-05T22:06:41+00:00</time>
      </trkpt>
      <trkpt lat="45.1807" lon="5.96625">
        <ele>2076</ele>
        <time>2024-06-05T22:06:44+00:00</time>
      </trkpt>
      <trkpt lat="45.18069" lon="5.96616">
        <ele>2070</ele>
        <time>2024-06-05T22:06:47+00:00</time>
      </trkpt>
      <trkpt lat="45.18071" lon="5.96611">
        <ele>2066</ele>
        <time>2024-06-05T22:06:50+00:00</time>
      </trkpt>
      <trkpt lat="45.18075" lon="5.9661">
        <ele>2066</ele>
        <time>2024-06-05T22:06:53+00:00</time>
      </trkpt>
      <trkpt lat="45.18079" lon="5.96612">
        <ele>2066</ele>
        <time>2024-06-05T22:06:56+00:00</time>
      </trkpt>
      <trkpt lat="45.18079" lon="5.96612">
        <ele>2066</ele>
        <time>2024-06-05T22:06:59+00:00</time>
      </trkpt>
      <trkpt lat="45.18082" lon="5.96613">
        <ele>2061</ele>
        <time>2024-06-05T22:07:02+00:00</time>
      </trkpt>
      <trkpt lat="45.18091" lon="5.96621">
        <ele>2061</ele>
        <time>2024-06-05T22:07:05+00:00</time>
      </trkpt>
      <trkpt lat="45.18093" lon="5.96622">
        <ele>2061</ele>
        <time>2024-06-05T22:07:08+00:00</time>
      </trkpt>
      <trkpt lat="45.18101" lon="5.96624">
        <ele>2057</ele>
        <time>2024-06-05T22:07:11+00:00</time>
      </trkpt>
      <trkpt lat="45.18102" lon="5.96624">
        <ele>2057</ele>
        <time>2024-06-05T22:07:14+00:00</time>
      </trkpt>
      <trkpt lat="45.1811" lon="5.96626">
        <ele>2052</ele>
        <time>2024-06-05T22:07:17+00:00</time>
      </trkpt>
      <trkpt lat="45.18124" lon="5.96636">
        <ele>2052</ele>
        <time>2024-06-05T22:07:20+00:00</time>
      </trkpt>
      <trkpt lat="45.18132" lon="5.96637">
        <ele>2048</ele>
        <time>2024-06-05T22:07:23+00:00</time>
      </trkpt>
      <trkpt lat="45.18136" lon="5.96638">
        <ele>2048</ele>
        <time>2024-06-05T22:07:26+00:00</time>
      </trkpt>
      <trkpt lat="45.18139" lon="5.96639">
        <ele>2048</ele>
        <time>2024-06-05T22:07:29+00:00</time>
      </trkpt>
      <trkpt lat="45.18142" lon="5.96636">
        <ele>2044</ele>
        <time>2024-06-05T22:07:32+00:00</time>
      </trkpt>
      <trkpt lat="45.18145" lon="5.96632">
        <ele>2044</ele>
        <time>2024-06-05T22:07:35+00:00</time>
      </trkpt>
      <trkpt lat="45.1815" lon="5.96628">
        <ele>2034</ele>
        <time>2024-06-05T22:07:38+00:00</time>
      </trkpt>
      <trkpt lat="45.18155" lon="5.96627">
        <ele>2034</ele>
        <time>2024-06-05T22:07:41+00:00</time>
      </trkpt>
      <trkpt lat="45.18163" lon="5.96627">
        <ele>2031</ele>
        <time>2024-06-05T22:07:44+00:00</time>
      </trkpt>
      <trkpt lat="45.1817" lon="5.96628">
        <ele>2031</ele>
        <time>2024-06-05T22:07:47+00:00</time>
      </trkpt>
      <trkpt lat="45.18174" lon="5.9663">
        <ele>2026</ele>
        <time>2024-06-05T22:07:50+00:00</time>
      </trkpt>
      <trkpt lat="45.18185" lon="5.96633">
        <ele>2022</ele>
        <time>2024-06-05T22:07:53+00:00</time>
      </trkpt>
      <trkpt lat="45.18186" lon="5.9663">
        <ele>2019</ele>
        <time>2024-06-05T22:07:56+00:00</time>
      </trkpt>
      <trkpt lat="45.18187" lon="5.96629">
        <ele>2019</ele>
        <time>2024-06-05T22:07:59+00:00</time>
      </trkpt>
      <trkpt lat="45.1819" lon="5.96631">
        <ele>2022</ele>
        <time>2024-06-05T22:08:02+00:00</time>
      </trkpt>
      <trkpt lat="45.18196" lon="5.96635">
        <ele>2016</ele>
        <time>2024-06-05T22:08:05+00:00</time>
      </trkpt>
      <trkpt lat="45.18203" lon="5.96641">
        <ele>2013</ele>
        <time>2024-06-05T22:08:08+00:00</time>
      </trkpt>
      <trkpt lat="45.18211" lon="5.96653">
        <ele>2005</ele>
        <time>2024-06-05T22:08:11+00:00</time>
      </trkpt>
      <trkpt lat="45.18216" lon="5.96661">
        <ele>2007</ele>
        <time>2024-06-05T22:08:14+00:00</time>
      </trkpt>
      <trkpt lat="45.18219" lon="5.96669">
        <ele>2007</ele>
        <time>2024-06-05T22:08:17+00:00</time>
      </trkpt>
      <trkpt lat="45.18222" lon="5.96679">
        <ele>2003</ele>
        <time>2024-06-05T22:08:20+00:00</time>
      </trkpt>
      <trkpt lat="45.18224" lon="5.96684">
        <ele>2005</ele>
        <time>2024-06-05T22:08:23+00:00</time>
      </trkpt>
      <trkpt lat="45.18226" lon="5.96687">
        <ele>2005</ele>
        <time>2024-06-05T22:08:26+00:00</time>
      </trkpt>
      <trkpt lat="45.18227" lon="5.9669">
        <ele>2005</ele>
        <time>2024-06-05T22:08:29+00:00</time>
      </trkpt>
      <trkpt lat="45.1824" lon="5.967">
        <ele>2001</ele>
        <time>2024-06-05T22:08:32+00:00</time>
      </trkpt>
      <trkpt lat="45.18255" lon="5.96711">
        <ele>1996</ele>
        <time>2024-06-05T22:08:35+00:00</time>
      </trkpt>
      <trkpt lat="45.18255" lon="5.9671">
        <ele>1992</ele>
        <time>2024-06-05T22:08:38+00:00</time>
      </trkpt>
      <trkpt lat="45.18254" lon="5.96706">
        <ele>1992</ele>
        <time>2024-06-05T22:08:41+00:00</time>
      </trkpt>
      <trkpt lat="45.18257" lon="5.96705">
        <ele>1992</ele>
        <time>2024-06-05T22:08:44+00:00</time>
      </trkpt>
      <trkpt lat="45.1826" lon="5.96704">
        <ele>1992</ele>
        <time>2024-06-05T22:08:47+00:00</time>
      </trkpt>
      <trkpt lat="45.1826" lon="5.96702">
        <ele>1992</ele>
        <time>2024-06-05T22:08:50+00:00</time>
      </trkpt>
      <trkpt lat="45.18259" lon="5.96701">
        <ele>1992</ele>
        <time>2024-06-05T22:08:53+00:00</time>
      </trkpt>
      <trkpt lat="45.18257" lon="5.96699">
        <ele>1987</ele>
        <time>2024-06-05T22:08:56+00:00</time>
      </trkpt>
      <trkpt lat="45.18257" lon="5.96696">
        <ele>1987</ele>
        <time>2024-06-05T22:08:59+00:00</time>
      </trkpt>
      <trkpt lat="45.1826" lon="5.96693">
        <ele>1982</ele>
        <time>2024-06-05T22:09:02+00:00</time>
      </trkpt>
      <trkpt lat="45.18262" lon="5.96692">
        <ele>1982</ele>
        <time>2024-06-05T22:09:05+00:00</time>
      </trkpt>
      <trkpt lat="45.18265" lon="5.96691">
        <ele>1982</ele>
        <time>2024-06-05T22:09:08+00:00</time>
      </trkpt>
      <trkpt lat="45.18267" lon="5.96688">
        <ele>1979</ele>
        <time>2024-06-05T22:09:11+00:00</time>
      </trkpt>
      <trkpt lat="45.18267" lon="5.96686">
        <ele>1979</ele>
        <time>2024-06-05T22:09:14+00:00</time>
      </trkpt>
      <trkpt lat="45.18268" lon="5.96682">
        <ele>1979</ele>
        <time>2024-06-05T22:09:17+00:00</time>
      </trkpt>
      <trkpt lat="45.18267" lon="5.96679">
        <ele>1976</ele>
        <time>2024-06-05T22:09:20+00:00</time>
      </trkpt>
      <trkpt lat="45.18265" lon="5.96673">
        <ele>1976</ele>
        <time>2024-06-05T22:09:23+00:00</time>
      </trkpt>
      <trkpt lat="45.18262" lon="5.96669">
        <ele>1971</ele>
        <time>2024-06-05T22:09:26+00:00</time>
      </trkpt>
      <trkpt lat="45.1826" lon="5.96665">
        <ele>1977</ele>
        <time>2024-06-05T22:09:29+00:00</time>
      </trkpt>
      <trkpt lat="45.18257" lon="5.96662">
        <ele>1977</ele>
        <time>2024-06-05T22:09:32+00:00</time>
      </trkpt>
      <trkpt lat="45.18256" lon="5.96659">
        <ele>1974</ele>
        <time>2024-06-05T22:09:35+00:00</time>
      </trkpt>
      <trkpt lat="45.18255" lon="5.96656">
        <ele>1974</ele>
        <time>2024-06-05T22:09:38+00:00</time>
      </trkpt>
      <trkpt lat="45.18253" lon="5.96655">
        <ele>1974</ele>
        <time>2024-06-05T22:09:41+00:00</time>
      </trkpt>
      <trkpt lat="45.18253" lon="5.96653">
        <ele>1974</ele>
        <time>2024-06-05T22:09:44+00:00</time>
      </trkpt>
      <trkpt lat="45.1825" lon="5.96646">
        <ele>1971</ele>
        <time>2024-06-05T22:09:47+00:00</time>
      </trkpt>
      <trkpt lat="45.1825" lon="5.96642">
        <ele>1971</ele>
        <time>2024-06-05T22:09:50+00:00</time>
      </trkpt>
      <trkpt lat="45.18249" lon="5.96636">
        <ele>1973</ele>
        <time>2024-06-05T22:09:53+00:00</time>
      </trkpt>
      <trkpt lat="45.18246" lon="5.96626">
        <ele>1970</ele>
        <time>2024-06-05T22:09:56+00:00</time>
      </trkpt>
      <trkpt lat="45.18245" lon="5.96622">
        <ele>1970</ele>
        <time>2024-06-05T22:09:59+00:00</time>
      </trkpt>
      <trkpt lat="45.18252" lon="5.96621">
        <ele>1962</ele>
        <time>2024-06-05T22:10:02+00:00</time>
      </trkpt>
      <trkpt lat="45.18265" lon="5.96619">
        <ele>1952</ele>
        <time>2024-06-05T22:10:05+00:00</time>
      </trkpt>
      <trkpt lat="45.18268" lon="5.96619">
        <ele>1952</ele>
        <time>2024-06-05T22:10:08+00:00</time>
      </trkpt>
      <trkpt lat="45.18286" lon="5.96617">
        <ele>1940</ele>
        <time>2024-06-05T22:10:11+00:00</time>
      </trkpt>
      <trkpt lat="45.183" lon="5.96619">
        <ele>1937</ele>
        <time>2024-06-05T22:10:14+00:00</time>
      </trkpt>
      <trkpt lat="45.18303" lon="5.96624">
        <ele>1938</ele>
        <time>2024-06-05T22:10:17+00:00</time>
      </trkpt>
      <trkpt lat="45.18308" lon="5.96636">
        <ele>1939</ele>
        <time>2024-06-05T22:10:20+00:00</time>
      </trkpt>
      <trkpt lat="45.18312" lon="5.96641">
        <ele>1939</ele>
        <time>2024-06-05T22:10:23+00:00</time>
      </trkpt>
      <trkpt lat="45.18323" lon="5.96651">
        <ele>1937</ele>
        <time>2024-06-05T22:10:26+00:00</time>
      </trkpt>
      <trkpt lat="45.18327" lon="5.96659">
        <ele>1937</ele>
        <time>2024-06-05T22:10:29+00:00</time>
      </trkpt>
      <trkpt lat="45.18328" lon="5.96662">
        <ele>1941</ele>
        <time>2024-06-05T22:10:32+00:00</time>
      </trkpt>
      <trkpt lat="45.18346" lon="5.96666">
        <ele>1926</ele>
        <time>2024-06-05T22:10:35+00:00</time>
      </trkpt>
      <trkpt lat="45.18351" lon="5.9667">
        <ele>1922</ele>
        <time>2024-06-05T22:10:38+00:00</time>
      </trkpt>
      <trkpt lat="45.18359" lon="5.96672">
        <ele>1928</ele>
        <time>2024-06-05T22:10:41+00:00</time>
      </trkpt>
      <trkpt lat="45.18368" lon="5.96677">
        <ele>1924</ele>
        <time>2024-06-05T22:10:44+00:00</time>
      </trkpt>
      <trkpt lat="45.18372" lon="5.96678">
        <ele>1921</ele>
        <time>2024-06-05T22:10:47+00:00</time>
      </trkpt>
      <trkpt lat="45.18379" lon="5.96675">
        <ele>1921</ele>
        <time>2024-06-05T22:10:50+00:00</time>
      </trkpt>
      <trkpt lat="45.18389" lon="5.96675">
        <ele>1917</ele>
        <time>2024-06-05T22:10:53+00:00</time>
      </trkpt>
      <trkpt lat="45.18394" lon="5.96675">
        <ele>1909</ele>
        <time>2024-06-05T22:10:56+00:00</time>
      </trkpt>
      <trkpt lat="45.18398" lon="5.96676">
        <ele>1909</ele>
        <time>2024-06-05T22:10:59+00:00</time>
      </trkpt>
      <trkpt lat="45.184" lon="5.96677">
        <ele>1909</ele>
        <time>2024-06-05T22:11:02+00:00</time>
      </trkpt>
      <trkpt lat="45.18403" lon="5.96681">
        <ele>1908</ele>
        <time>2024-06-05T22:11:05+00:00</time>
      </trkpt>
      <trkpt lat="45.18404" lon="5.96687">
        <ele>1908</ele>
        <time>2024-06-05T22:11:08+00:00</time>
      </trkpt>
      <trkpt lat="45.18405" lon="5.96696">
        <ele>1912</ele>
        <time>2024-06-05T22:11:11+00:00</time>
      </trkpt>
      <trkpt lat="45.18405" lon="5.96699">
        <ele>1912</ele>
        <time>2024-06-05T22:11:14+00:00</time>
      </trkpt>
      <trkpt lat="45.18405" lon="5.96702">
        <ele>1917</ele>
        <time>2024-06-05T22:11:17+00:00</time>
      </trkpt>
      <trkpt lat="45.18407" lon="5.96705">
        <ele>1917</ele>
        <time>2024-06-05T22:11:20+00:00</time>
      </trkpt>
      <trkpt lat="45.18408" lon="5.96706">
        <ele>1917</ele>
        <time>2024-06-05T22:11:23+00:00</time>
      </trkpt>
      <trkpt lat="45.18417" lon="5.96699">
        <ele>1907</ele>
        <time>2024-06-05T22:11:26+00:00</time>
      </trkpt>
      <trkpt lat="45.18419" lon="5.96698">
        <ele>1907</ele>
        <time>2024-06-05T22:11:29+00:00</time>
      </trkpt>
      <trkpt lat="45.18428" lon="5.967">
        <ele>1901</ele>
        <time>2024-06-05T22:11:32+00:00</time>
      </trkpt>
      <trkpt lat="45.18434" lon="5.967">
        <ele>1897</ele>
        <time>2024-06-05T22:11:35+00:00</time>
      </trkpt>
      <trkpt lat="45.18441" lon="5.96701">
        <ele>1901</ele>
        <time>2024-06-05T22:11:38+00:00</time>
      </trkpt>
      <trkpt lat="45.18448" lon="5.96699">
        <ele>1895</ele>
        <time>2024-06-05T22:11:41+00:00</time>
      </trkpt>
      <trkpt lat="45.18458" lon="5.96692">
        <ele>1892</ele>
        <time>2024-06-05T22:11:44+00:00</time>
      </trkpt>
      <trkpt lat="45.18474" lon="5.96685">
        <ele>1885</ele>
        <time>2024-06-05T22:11:47+00:00</time>
      </trkpt>
      <trkpt lat="45.18486" lon="5.96684">
        <ele>1885</ele>
        <time>2024-06-05T22:11:50+00:00</time>
      </trkpt>
      <trkpt lat="45.18502" lon="5.96681">
        <ele>1885</ele>
        <time>2024-06-05T22:11:53+00:00</time>
      </trkpt>
      <trkpt lat="45.18511" lon="5.96683">
        <ele>1886</ele>
        <time>2024-06-05T22:11:56+00:00</time>
      </trkpt>
      <trkpt lat="45.18523" lon="5.9668">
        <ele>1886</ele>
        <time>2024-06-05T22:11:59+00:00</time>
      </trkpt>
      <trkpt lat="45.18528" lon="5.96681">
        <ele>1886</ele>
        <time>2024-06-05T22:12:02+00:00</time>
      </trkpt>
      <trkpt lat="45.18533" lon="5.96679">
        <ele>1880</ele>
        <time>2024-06-05T22:12:05+00:00</time>
      </trkpt>
      <trkpt lat="45.18537" lon="5.96679">
        <ele>1880</ele>
        <time>2024-06-05T22:12:08+00:00</time>
      </trkpt>
      <trkpt lat="45.18543" lon="5.9668">
        <ele>1888</ele>
        <time>2024-06-05T22:12:11+00:00</time>
      </trkpt>
      <trkpt lat="45.18547" lon="5.96682">
        <ele>1888</ele>
        <time>2024-06-05T22:12:14+00:00</time>
      </trkpt>
      <trkpt lat="45.18554" lon="5.96682">
        <ele>1889</ele>
        <time>2024-06-05T22:12:17+00:00</time>
      </trkpt>
      <trkpt lat="45.18562" lon="5.96683">
        <ele>1890</ele>
        <time>2024-06-05T22:12:20+00:00</time>
      </trkpt>
      <trkpt lat="45.18571" lon="5.9668">
        <ele>1883</ele>
        <time>2024-06-05T22:12:23+00:00</time>
      </trkpt>
      <trkpt lat="45.1858" lon="5.96678">
        <ele>1887</ele>
        <time>2024-06-05T22:12:26+00:00</time>
      </trkpt>
      <trkpt lat="45.18585" lon="5.96674">
        <ele>1887</ele>
        <time>2024-06-05T22:12:29+00:00</time>
      </trkpt>
      <trkpt lat="45.18588" lon="5.9667">
        <ele>1883</ele>
        <time>2024-06-05T22:12:32+00:00</time>
      </trkpt>
      <trkpt lat="45.18588" lon="5.96665">
        <ele>1879</ele>
        <time>2024-06-05T22:12:35+00:00</time>
      </trkpt>
      <trkpt lat="45.18591" lon="5.96663">
        <ele>1880</ele>
        <time>2024-06-05T22:12:38+00:00</time>
      </trkpt>
      <trkpt lat="45.18595" lon="5.96662">
        <ele>1880</ele>
        <time>2024-06-05T22:12:41+00:00</time>
      </trkpt>
      <trkpt lat="45.18606" lon="5.96664">
        <ele>1883</ele>
        <time>2024-06-05T22:12:44+00:00</time>
      </trkpt>
      <trkpt lat="45.18613" lon="5.96664">
        <ele>1885</ele>
        <time>2024-06-05T22:12:47+00:00</time>
      </trkpt>
      <trkpt lat="45.18618" lon="5.96663">
        <ele>1885</ele>
        <time>2024-06-05T22:12:50+00:00</time>
      </trkpt>
      <trkpt lat="45.18623" lon="5.96661">
        <ele>1888</ele>
        <time>2024-06-05T22:12:53+00:00</time>
      </trkpt>
      <trkpt lat="45.18628" lon="5.96661">
        <ele>1888</ele>
        <time>2024-06-05T22:12:56+00:00</time>
      </trkpt>
      <trkpt lat="45.18634" lon="5.9666">
        <ele>1891</ele>
        <time>2024-06-05T22:12:59+00:00</time>
      </trkpt>
      <trkpt lat="45.18651" lon="5.96653">
        <ele>1894</ele>
        <time>2024-06-05T22:13:02+00:00</time>
      </trkpt>
      <trkpt lat="45.18654" lon="5.96651">
        <ele>1894</ele>
        <time>2024-06-05T22:13:05+00:00</time>
      </trkpt>
      <trkpt lat="45.18661" lon="5.96649">
        <ele>1897</ele>
        <time>2024-06-05T22:13:08+00:00</time>
      </trkpt>
      <trkpt lat="45.18676" lon="5.96645">
        <ele>1901</ele>
        <time>2024-06-05T22:13:11+00:00</time>
      </trkpt>
      <trkpt lat="45.1868" lon="5.96642">
        <ele>1901</ele>
        <time>2024-06-05T22:13:14+00:00</time>
      </trkpt>
      <trkpt lat="45.18685" lon="5.9664">
        <ele>1906</ele>
        <time>2024-06-05T22:13:17+00:00</time>
      </trkpt>
      <trkpt lat="45.18691" lon="5.9664">
        <ele>1912</ele>
        <time>2024-06-05T22:13:20+00:00</time>
      </trkpt>
      <trkpt lat="45.18695" lon="5.96639">
        <ele>1907</ele>
        <time>2024-06-05T22:13:23+00:00</time>
      </trkpt>
      <trkpt lat="45.18702" lon="5.96637">
        <ele>1910</ele>
        <time>2024-06-05T22:13:26+00:00</time>
      </trkpt>
      <trkpt lat="45.1871" lon="5.96633">
        <ele>1913</ele>
        <time>2024-06-05T22:13:29+00:00</time>
      </trkpt>
      <trkpt lat="45.18712" lon="5.9663">
        <ele>1910</ele>
        <time>2024-06-05T22:13:32+00:00</time>
      </trkpt>
      <trkpt lat="45.18714" lon="5.96628">
        <ele>1910</ele>
        <time>2024-06-05T22:13:35+00:00</time>
      </trkpt>
      <trkpt lat="45.18731" lon="5.96622">
        <ele>1911</ele>
        <time>2024-06-05T22:13:38+00:00</time>
      </trkpt>
      <trkpt lat="45.18736" lon="5.96619">
        <ele>1913</ele>
        <time>2024-06-05T22:13:41+00:00</time>
      </trkpt>
      <trkpt lat="45.18739" lon="5.96615">
        <ele>1913</ele>
        <time>2024-06-05T22:13:44+00:00</time>
      </trkpt>
      <trkpt lat="45.18741" lon="5.96607">
        <ele>1913</ele>
        <time>2024-06-05T22:13:47+00:00</time>
      </trkpt>
      <trkpt lat="45.18743" lon="5.96605">
        <ele>1913</ele>
        <time>2024-06-05T22:13:50+00:00</time>
      </trkpt>
      <trkpt lat="45.18746" lon="5.96604">
        <ele>1913</ele>
        <time>2024-06-05T22:13:53+00:00</time>
      </trkpt>
      <trkpt lat="45.18754" lon="5.96605">
        <ele>1919</ele>
        <time>2024-06-05T22:13:56+00:00</time>
      </trkpt>
      <trkpt lat="45.18758" lon="5.96607">
        <ele>1919</ele>
        <time>2024-06-05T22:13:59+00:00</time>
      </trkpt>
      <trkpt lat="45.18773" lon="5.96607">
        <ele>1923</ele>
        <time>2024-06-05T22:14:02+00:00</time>
      </trkpt>
      <trkpt lat="45.18776" lon="5.96609">
        <ele>1923</ele>
        <time>2024-06-05T22:14:05+00:00</time>
      </trkpt>
      <trkpt lat="45.18781" lon="5.96612">
        <ele>1931</ele>
        <time>2024-06-05T22:14:08+00:00</time>
      </trkpt>
      <trkpt lat="45.18799" lon="5.9661">
        <ele>1925</ele>
        <time>2024-06-05T22:14:11+00:00</time>
      </trkpt>
      <trkpt lat="45.18802" lon="5.96611">
        <ele>1930</ele>
        <time>2024-06-05T22:14:14+00:00</time>
      </trkpt>
      <trkpt lat="45.1881" lon="5.96635">
        <ele>1927</ele>
        <time>2024-06-05T22:14:17+00:00</time>
      </trkpt>
      <trkpt lat="45.1881" lon="5.9664">
        <ele>1940</ele>
        <time>2024-06-05T22:14:20+00:00</time>
      </trkpt>
      <trkpt lat="45.18811" lon="5.96652">
        <ele>1931</ele>
        <time>2024-06-05T22:14:23+00:00</time>
      </trkpt>
      <trkpt lat="45.18812" lon="5.96658">
        <ele>1931</ele>
        <time>2024-06-05T22:14:26+00:00</time>
      </trkpt>
      <trkpt lat="45.18814" lon="5.96662">
        <ele>1934</ele>
        <time>2024-06-05T22:14:29+00:00</time>
      </trkpt>
      <trkpt lat="45.18819" lon="5.96667">
        <ele>1934</ele>
        <time>2024-06-05T22:14:32+00:00</time>
      </trkpt>
      <trkpt lat="45.18823" lon="5.96677">
        <ele>1930</ele>
        <time>2024-06-05T22:14:35+00:00</time>
      </trkpt>
      <trkpt lat="45.18827" lon="5.96685">
        <ele>1934</ele>
        <time>2024-06-05T22:14:38+00:00</time>
      </trkpt>
      <trkpt lat="45.18829" lon="5.9669">
        <ele>1937</ele>
        <time>2024-06-05T22:14:41+00:00</time>
      </trkpt>
      <trkpt lat="45.1883" lon="5.96702">
        <ele>1931</ele>
        <time>2024-06-05T22:14:44+00:00</time>
      </trkpt>
      <trkpt lat="45.18831" lon="5.96709">
        <ele>1931</ele>
        <time>2024-06-05T22:14:47+00:00</time>
      </trkpt>
      <trkpt lat="45.18834" lon="5.96724">
        <ele>1934</ele>
        <time>2024-06-05T22:14:50+00:00</time>
      </trkpt>
      <trkpt lat="45.18837" lon="5.96734">
        <ele>1938</ele>
        <time>2024-06-05T22:14:53+00:00</time>
      </trkpt>
      <trkpt lat="45.18839" lon="5.96743">
        <ele>1940</ele>
        <time>2024-06-05T22:14:56+00:00</time>
      </trkpt>
      <trkpt lat="45.18842" lon="5.96747">
        <ele>1923</ele>
        <time>2024-06-05T22:14:59+00:00</time>
      </trkpt>
      <trkpt lat="45.18845" lon="5.96753">
        <ele>1931</ele>
        <time>2024-06-05T22:15:02+00:00</time>
      </trkpt>
      <trkpt lat="45.18847" lon="5.96756">
        <ele>1926</ele>
        <time>2024-06-05T22:15:05+00:00</time>
      </trkpt>
      <trkpt lat="45.18848" lon="5.96764">
        <ele>1931</ele>
        <time>2024-06-05T22:15:08+00:00</time>
      </trkpt>
      <trkpt lat="45.18846" lon="5.96771">
        <ele>1935</ele>
        <time>2024-06-05T22:15:11+00:00</time>
      </trkpt>
      <trkpt lat="45.18847" lon="5.96774">
        <ele>1935</ele>
        <time>2024-06-05T22:15:14+00:00</time>
      </trkpt>
      <trkpt lat="45.1885" lon="5.96781">
        <ele>1931</ele>
        <time>2024-06-05T22:15:17+00:00</time>
      </trkpt>
      <trkpt lat="45.18857" lon="5.96792">
        <ele>1934</ele>
        <time>2024-06-05T22:15:20+00:00</time>
      </trkpt>
      <trkpt lat="45.18862" lon="5.96796">
        <ele>1931</ele>
        <time>2024-06-05T22:15:23+00:00</time>
      </trkpt>
      <trkpt lat="45.18868" lon="5.96793">
        <ele>1931</ele>
        <time>2024-06-05T22:15:26+00:00</time>
      </trkpt>
      <trkpt lat="45.18872" lon="5.96793">
        <ele>1935</ele>
        <time>2024-06-05T22:15:29+00:00</time>
      </trkpt>
      <trkpt lat="45.18876" lon="5.96794">
        <ele>1935</ele>
        <time>2024-06-05T22:15:32+00:00</time>
      </trkpt>
      <trkpt lat="45.18878" lon="5.96795">
        <ele>1935</ele>
        <time>2024-06-05T22:15:35+00:00</time>
      </trkpt>
      <trkpt lat="45.18883" lon="5.96795">
        <ele>1936</ele>
        <time>2024-06-05T22:15:38+00:00</time>
      </trkpt>
      <trkpt lat="45.18891" lon="5.96795">
        <ele>1935</ele>
        <time>2024-06-05T22:15:41+00:00</time>
      </trkpt>
      <trkpt lat="45.18894" lon="5.96796">
        <ele>1935</ele>
        <time>2024-06-05T22:15:44+00:00</time>
      </trkpt>
      <trkpt lat="45.18896" lon="5.96798">
        <ele>1935</ele>
        <time>2024-06-05T22:15:47+00:00</time>
      </trkpt>
      <trkpt lat="45.189" lon="5.96799">
        <ele>1935</ele>
        <time>2024-06-05T22:15:50+00:00</time>
      </trkpt>
      <trkpt lat="45.18907" lon="5.968">
        <ele>1937</ele>
        <time>2024-06-05T22:15:53+00:00</time>
      </trkpt>
      <trkpt lat="45.18914" lon="5.96801">
        <ele>1937</ele>
        <time>2024-06-05T22:15:56+00:00</time>
      </trkpt>
      <trkpt lat="45.1892" lon="5.96801">
        <ele>1937</ele>
        <time>2024-06-05T22:15:59+00:00</time>
      </trkpt>
      <trkpt lat="45.18926" lon="5.96802">
        <ele>1936</ele>
        <time>2024-06-05T22:16:02+00:00</time>
      </trkpt>
      <trkpt lat="45.18931" lon="5.96807">
        <ele>1934</ele>
        <time>2024-06-05T22:16:05+00:00</time>
      </trkpt>
      <trkpt lat="45.18937" lon="5.96812">
        <ele>1936</ele>
        <time>2024-06-05T22:16:08+00:00</time>
      </trkpt>
      <trkpt lat="45.18962" lon="5.96829">
        <ele>1936</ele>
        <time>2024-06-05T22:16:11+00:00</time>
      </trkpt>
      <trkpt lat="45.18983" lon="5.96844">
        <ele>1936</ele>
        <time>2024-06-05T22:16:14+00:00</time>
      </trkpt>
      <trkpt lat="45.18993" lon="5.96849">
        <ele>1934</ele>
        <time>2024-06-05T22:16:17+00:00</time>
      </trkpt>
      <trkpt lat="45.18998" lon="5.96856">
        <ele>1940</ele>
        <time>2024-06-05T22:16:20+00:00</time>
      </trkpt>
      <trkpt lat="45.19012" lon="5.96879">
        <ele>1936</ele>
        <time>2024-06-05T22:16:23+00:00</time>
      </trkpt>
      <trkpt lat="45.19017" lon="5.9688">
        <ele>1943</ele>
        <time>2024-06-05T22:16:26+00:00</time>
      </trkpt>
      <trkpt lat="45.19022" lon="5.96882">
        <ele>1939</ele>
        <time>2024-06-05T22:16:29+00:00</time>
      </trkpt>
      <trkpt lat="45.19029" lon="5.96887">
        <ele>1939</ele>
        <time>2024-06-05T22:16:32+00:00</time>
      </trkpt>
      <trkpt lat="45.19029" lon="5.96889">
        <ele>1939</ele>
        <time>2024-06-05T22:16:35+00:00</time>
      </trkpt>
      <trkpt lat="45.19032" lon="5.96891">
        <ele>1936</ele>
        <time>2024-06-05T22:16:38+00:00</time>
      </trkpt>
      <trkpt lat="45.19036" lon="5.96892">
        <ele>1941</ele>
        <time>2024-06-05T22:16:41+00:00</time>
      </trkpt>
      <trkpt lat="45.19042" lon="5.96892">
        <ele>1939</ele>
        <time>2024-06-05T22:16:44+00:00</time>
      </trkpt>
      <trkpt lat="45.19047" lon="5.96891">
        <ele>1939</ele>
        <time>2024-06-05T22:16:47+00:00</time>
      </trkpt>
      <trkpt lat="45.19049" lon="5.96893">
        <ele>1939</ele>
        <time>2024-06-05T22:16:50+00:00</time>
      </trkpt>
      <trkpt lat="45.19051" lon="5.96893">
        <ele>1935</ele>
        <time>2024-06-05T22:16:53+00:00</time>
      </trkpt>
      <trkpt lat="45.19054" lon="5.96893">
        <ele>1937</ele>
        <time>2024-06-05T22:16:56+00:00</time>
      </trkpt>
      <trkpt lat="45.19058" lon="5.96892">
        <ele>1937</ele>
        <time>2024-06-05T22:16:59+00:00</time>
      </trkpt>
      <trkpt lat="45.19063" lon="5.96891">
        <ele>1938</ele>
        <time>2024-06-05T22:17:02+00:00</time>
      </trkpt>
      <trkpt lat="45.19068" lon="5.96886">
        <ele>1933</ele>
        <time>2024-06-05T22:17:05+00:00</time>
      </trkpt>
      <trkpt lat="45.19073" lon="5.96882">
        <ele>1935</ele>
        <time>2024-06-05T22:17:08+00:00</time>
      </trkpt>
      <trkpt lat="45.19078" lon="5.96883">
        <ele>1935</ele>
        <time>2024-06-05T22:17:11+00:00</time>
      </trkpt>
      <trkpt lat="45.19082" lon="5.96884">
        <ele>1937</ele>
        <time>2024-06-05T22:17:14+00:00</time>
      </trkpt>
      <trkpt lat="45.19094" lon="5.96878">
        <ele>1934</ele>
        <time>2024-06-05T22:17:17+00:00</time>
      </trkpt>
      <trkpt lat="45.19102" lon="5.96875">
        <ele>1935</ele>
        <time>2024-06-05T22:17:20+00:00</time>
      </trkpt>
      <trkpt lat="45.19107" lon="5.96869">
        <ele>1931</ele>
        <time>2024-06-05T22:17:23+00:00</time>
      </trkpt>
      <trkpt lat="45.19109" lon="5.96867">
        <ele>1931</ele>
        <time>2024-06-05T22:17:26+00:00</time>
      </trkpt>
      <trkpt lat="45.19113" lon="5.96866">
        <ele>1934</ele>
        <time>2024-06-05T22:17:29+00:00</time>
      </trkpt>
      <trkpt lat="45.19119" lon="5.96864">
        <ele>1934</ele>
        <time>2024-06-05T22:17:32+00:00</time>
      </trkpt>
      <trkpt lat="45.19124" lon="5.96861">
        <ele>1938</ele>
        <time>2024-06-05T22:17:35+00:00</time>
      </trkpt>
      <trkpt lat="45.19128" lon="5.9686">
        <ele>1938</ele>
        <time>2024-06-05T22:17:38+00:00</time>
      </trkpt>
      <trkpt lat="45.19133" lon="5.96859">
        <ele>1935</ele>
        <time>2024-06-05T22:17:41+00:00</time>
      </trkpt>
      <trkpt lat="45.19139" lon="5.96858">
        <ele>1935</ele>
        <time>2024-06-05T22:17:44+00:00</time>
      </trkpt>
      <trkpt lat="45.19144" lon="5.96859">
        <ele>1937</ele>
        <time>2024-06-05T22:17:47+00:00</time>
      </trkpt>
      <trkpt lat="45.19148" lon="5.96856">
        <ele>1937</ele>
        <time>2024-06-05T22:17:50+00:00</time>
      </trkpt>
      <trkpt lat="45.1915" lon="5.96853">
        <ele>1939</ele>
        <time>2024-06-05T22:17:53+00:00</time>
      </trkpt>
      <trkpt lat="45.19155" lon="5.96851">
        <ele>1935</ele>
        <time>2024-06-05T22:17:56+00:00</time>
      </trkpt>
      <trkpt lat="45.19161" lon="5.96848">
        <ele>1934</ele>
        <time>2024-06-05T22:17:59+00:00</time>
      </trkpt>
      <trkpt lat="45.19168" lon="5.96845">
        <ele>1934</ele>
        <time>2024-06-05T22:18:02+00:00</time>
      </trkpt>
      <trkpt lat="45.19178" lon="5.96841">
        <ele>1935</ele>
        <time>2024-06-05T22:18:05+00:00</time>
      </trkpt>
      <trkpt lat="45.19183" lon="5.96841">
        <ele>1936</ele>
        <time>2024-06-05T22:18:08+00:00</time>
      </trkpt>
      <trkpt lat="45.19187" lon="5.96842">
        <ele>1936</ele>
        <time>2024-06-05T22:18:11+00:00</time>
      </trkpt>
      <trkpt lat="45.19188" lon="5.96842">
        <ele>1936</ele>
        <time>2024-06-05T22:18:14+00:00</time>
      </trkpt>
      <trkpt lat="45.19198" lon="5.96837">
        <ele>1934</ele>
        <time>2024-06-05T22:18:17+00:00</time>
      </trkpt>
      <trkpt lat="45.19204" lon="5.96837">
        <ele>1931</ele>
        <time>2024-06-05T22:18:20+00:00</time>
      </trkpt>
      <trkpt lat="45.19218" lon="5.9684">
        <ele>1934</ele>
        <time>2024-06-05T22:18:23+00:00</time>
      </trkpt>
      <trkpt lat="45.19225" lon="5.96833">
        <ele>1937</ele>
        <time>2024-06-05T22:18:26+00:00</time>
      </trkpt>
      <trkpt lat="45.19229" lon="5.9682">
        <ele>1934</ele>
        <time>2024-06-05T22:18:29+00:00</time>
      </trkpt>
      <trkpt lat="45.1923" lon="5.96803">
        <ele>1934</ele>
        <time>2024-06-05T22:18:32+00:00</time>
      </trkpt>
      <trkpt lat="45.19228" lon="5.96789">
        <ele>1933</ele>
        <time>2024-06-05T22:18:35+00:00</time>
      </trkpt>
      <trkpt lat="45.1923" lon="5.96772">
        <ele>1933</ele>
        <time>2024-06-05T22:18:38+00:00</time>
      </trkpt>
      <trkpt lat="45.19237" lon="5.96751">
        <ele>1936</ele>
        <time>2024-06-05T22:18:41+00:00</time>
      </trkpt>
      <trkpt lat="45.19237" lon="5.96738">
        <ele>1933</ele>
        <time>2024-06-05T22:18:44+00:00</time>
      </trkpt>
      <trkpt lat="45.19238" lon="5.96752">
        <ele>1936</ele>
        <time>2024-06-05T22:18:47+00:00</time>
      </trkpt>
      <trkpt lat="45.1923" lon="5.96773">
        <ele>1933</ele>
        <time>2024-06-05T22:18:50+00:00</time>
      </trkpt>
      <trkpt lat="45.19229" lon="5.96789">
        <ele>1933</ele>
        <time>2024-06-05T22:18:53+00:00</time>
      </trkpt>
      <trkpt lat="45.1923" lon="5.96803">
        <ele>1934</ele>
        <time>2024-06-05T22:18:56+00:00</time>
      </trkpt>
      <trkpt lat="45.19229" lon="5.9682">
        <ele>1934</ele>
        <time>2024-06-05T22:18:59+00:00</time>
      </trkpt>
      <trkpt lat="45.19224" lon="5.96834">
        <ele>1937</ele>
        <time>2024-06-05T22:19:02+00:00</time>
      </trkpt>
      <trkpt lat="45.19217" lon="5.96838">
        <ele>1934</ele>
        <time>2024-06-05T22:19:05+00:00</time>
      </trkpt>
      <trkpt lat="45.1921" lon="5.96844">
        <ele>1935</ele>
        <time>2024-06-05T22:19:08+00:00</time>
      </trkpt>
      <trkpt lat="45.19197" lon="5.96851">
        <ele>1943</ele>
        <time>2024-06-05T22:19:11+00:00</time>
      </trkpt>
      <trkpt lat="45.19193" lon="5.96853">
        <ele>1943</ele>
        <time>2024-06-05T22:19:14+00:00</time>
      </trkpt>
      <trkpt lat="45.19176" lon="5.96851">
        <ele>1943</ele>
        <time>2024-06-05T22:19:17+00:00</time>
      </trkpt>
      <trkpt lat="45.19159" lon="5.96864">
        <ele>1944</ele>
        <time>2024-06-05T22:19:20+00:00</time>
      </trkpt>
      <trkpt lat="45.19142" lon="5.96875">
        <ele>1946</ele>
        <time>2024-06-05T22:19:23+00:00</time>
      </trkpt>
      <trkpt lat="45.1914" lon="5.96876">
        <ele>1946</ele>
        <time>2024-06-05T22:19:26+00:00</time>
      </trkpt>
      <trkpt lat="45.1913" lon="5.96883">
        <ele>1949</ele>
        <time>2024-06-05T22:19:29+00:00</time>
      </trkpt>
      <trkpt lat="45.19111" lon="5.96904">
        <ele>1954</ele>
        <time>2024-06-05T22:19:32+00:00</time>
      </trkpt>
      <trkpt lat="45.19111" lon="5.96904">
        <ele>1954</ele>
        <time>2024-06-05T22:19:35+00:00</time>
      </trkpt>
      <trkpt lat="45.19093" lon="5.96922">
        <ele>1960</ele>
        <time>2024-06-05T22:19:38+00:00</time>
      </trkpt>
      <trkpt lat="45.19088" lon="5.96926">
        <ele>1958</ele>
        <time>2024-06-05T22:19:41+00:00</time>
      </trkpt>
      <trkpt lat="45.19081" lon="5.96927">
        <ele>1958</ele>
        <time>2024-06-05T22:19:44+00:00</time>
      </trkpt>
      <trkpt lat="45.19082" lon="5.96928">
        <ele>1958</ele>
        <time>2024-06-05T22:19:47+00:00</time>
      </trkpt>
      <trkpt lat="45.19091" lon="5.96929">
        <ele>1960</ele>
        <time>2024-06-05T22:19:50+00:00</time>
      </trkpt>
      <trkpt lat="45.19095" lon="5.96929">
        <ele>1960</ele>
        <time>2024-06-05T22:19:53+00:00</time>
      </trkpt>
      <trkpt lat="45.19119" lon="5.96919">
        <ele>1960</ele>
        <time>2024-06-05T22:19:56+00:00</time>
      </trkpt>
      <trkpt lat="45.1912" lon="5.9692">
        <ele>1965</ele>
        <time>2024-06-05T22:19:59+00:00</time>
      </trkpt>
      <trkpt lat="45.19097" lon="5.96948">
        <ele>1969</ele>
        <time>2024-06-05T22:20:02+00:00</time>
      </trkpt>
      <trkpt lat="45.19096" lon="5.96951">
        <ele>1973</ele>
        <time>2024-06-05T22:20:05+00:00</time>
      </trkpt>
      <trkpt lat="45.19121" lon="5.96938">
        <ele>1973</ele>
        <time>2024-06-05T22:20:08+00:00</time>
      </trkpt>
      <trkpt lat="45.19111" lon="5.96955">
        <ele>1977</ele>
        <time>2024-06-05T22:20:11+00:00</time>
      </trkpt>
      <trkpt lat="45.19109" lon="5.96959">
        <ele>1974</ele>
        <time>2024-06-05T22:20:14+00:00</time>
      </trkpt>
      <trkpt lat="45.191" lon="5.96995">
        <ele>1979</ele>
        <time>2024-06-05T22:20:17+00:00</time>
      </trkpt>
      <trkpt lat="45.19103" lon="5.96996">
        <ele>1986</ele>
        <time>2024-06-05T22:20:20+00:00</time>
      </trkpt>
      <trkpt lat="45.19104" lon="5.96995">
        <ele>1986</ele>
        <time>2024-06-05T22:20:23+00:00</time>
      </trkpt>
      <trkpt lat="45.19105" lon="5.96994">
        <ele>1986</ele>
        <time>2024-06-05T22:20:26+00:00</time>
      </trkpt>
      <trkpt lat="45.19112" lon="5.96981">
        <ele>1987</ele>
        <time>2024-06-05T22:20:29+00:00</time>
      </trkpt>
      <trkpt lat="45.19122" lon="5.96967">
        <ele>1986</ele>
        <time>2024-06-05T22:20:32+00:00</time>
      </trkpt>
      <trkpt lat="45.19125" lon="5.96964">
        <ele>1986</ele>
        <time>2024-06-05T22:20:35+00:00</time>
      </trkpt>
      <trkpt lat="45.19127" lon="5.96964">
        <ele>1986</ele>
        <time>2024-06-05T22:20:38+00:00</time>
      </trkpt>
      <trkpt lat="45.1913" lon="5.96965">
        <ele>1986</ele>
        <time>2024-06-05T22:20:41+00:00</time>
      </trkpt>
      <trkpt lat="45.19141" lon="5.9697">
        <ele>1995</ele>
        <time>2024-06-05T22:20:44+00:00</time>
      </trkpt>
      <trkpt lat="45.19146" lon="5.96972">
        <ele>1995</ele>
        <time>2024-06-05T22:20:47+00:00</time>
      </trkpt>
      <trkpt lat="45.19161" lon="5.96973">
        <ele>1997</ele>
        <time>2024-06-05T22:20:50+00:00</time>
      </trkpt>
      <trkpt lat="45.19165" lon="5.96973">
        <ele>1997</ele>
        <time>2024-06-05T22:20:53+00:00</time>
      </trkpt>
      <trkpt lat="45.1917" lon="5.96975">
        <ele>1997</ele>
        <time>2024-06-05T22:20:56+00:00</time>
      </trkpt>
      <trkpt lat="45.19173" lon="5.96977">
        <ele>1997</ele>
        <time>2024-06-05T22:20:59+00:00</time>
      </trkpt>
      <trkpt lat="45.19176" lon="5.96981">
        <ele>2000</ele>
        <time>2024-06-05T22:21:02+00:00</time>
      </trkpt>
      <trkpt lat="45.19193" lon="5.97">
        <ele>2001</ele>
        <time>2024-06-05T22:21:05+00:00</time>
      </trkpt>
      <trkpt lat="45.19197" lon="5.97002">
        <ele>2005</ele>
        <time>2024-06-05T22:21:08+00:00</time>
      </trkpt>
      <trkpt lat="45.19202" lon="5.97006">
        <ele>2004</ele>
        <time>2024-06-05T22:21:11+00:00</time>
      </trkpt>
      <trkpt lat="45.19207" lon="5.97008">
        <ele>2004</ele>
        <time>2024-06-05T22:21:14+00:00</time>
      </trkpt>
      <trkpt lat="45.19212" lon="5.9701">
        <ele>2005</ele>
        <time>2024-06-05T22:21:17+00:00</time>
      </trkpt>
      <trkpt lat="45.19216" lon="5.97011">
        <ele>2007</ele>
        <time>2024-06-05T22:21:20+00:00</time>
      </trkpt>
      <trkpt lat="45.19218" lon="5.97011">
        <ele>2007</ele>
        <time>2024-06-05T22:21:23+00:00</time>
      </trkpt>
      <trkpt lat="45.19219" lon="5.97013">
        <ele>2007</ele>
        <time>2024-06-05T22:21:26+00:00</time>
      </trkpt>
      <trkpt lat="45.19215" lon="5.97023">
        <ele>2009</ele>
        <time>2024-06-05T22:21:29+00:00</time>
      </trkpt>
      <trkpt lat="45.19213" lon="5.97024">
        <ele>2009</ele>
        <time>2024-06-05T22:21:32+00:00</time>
      </trkpt>
      <trkpt lat="45.19209" lon="5.97026">
        <ele>2009</ele>
        <time>2024-06-05T22:21:35+00:00</time>
      </trkpt>
      <trkpt lat="45.19204" lon="5.97027">
        <ele>2009</ele>
        <time>2024-06-05T22:21:38+00:00</time>
      </trkpt>
      <trkpt lat="45.19197" lon="5.97026">
        <ele>2010</ele>
        <time>2024-06-05T22:21:41+00:00</time>
      </trkpt>
      <trkpt lat="45.19189" lon="5.97026">
        <ele>2011</ele>
        <time>2024-06-05T22:21:44+00:00</time>
      </trkpt>
      <trkpt lat="45.19169" lon="5.97029">
        <ele>2011</ele>
        <time>2024-06-05T22:21:47+00:00</time>
      </trkpt>
      <trkpt lat="45.19165" lon="5.97029">
        <ele>2013</ele>
        <time>2024-06-05T22:21:50+00:00</time>
      </trkpt>
      <trkpt lat="45.19161" lon="5.97031">
        <ele>2016</ele>
        <time>2024-06-05T22:21:53+00:00</time>
      </trkpt>
      <trkpt lat="45.19145" lon="5.97039">
        <ele>2012</ele>
        <time>2024-06-05T22:21:56+00:00</time>
      </trkpt>
      <trkpt lat="45.19141" lon="5.97042">
        <ele>2014</ele>
        <time>2024-06-05T22:21:59+00:00</time>
      </trkpt>
      <trkpt lat="45.19138" lon="5.97048">
        <ele>2010</ele>
        <time>2024-06-05T22:22:02+00:00</time>
      </trkpt>
      <trkpt lat="45.19137" lon="5.97079">
        <ele>2014</ele>
        <time>2024-06-05T22:22:05+00:00</time>
      </trkpt>
      <trkpt lat="45.19138" lon="5.97085">
        <ele>2015</ele>
        <time>2024-06-05T22:22:08+00:00</time>
      </trkpt>
      <trkpt lat="45.1914" lon="5.97098">
        <ele>2015</ele>
        <time>2024-06-05T22:22:11+00:00</time>
      </trkpt>
      <trkpt lat="45.19144" lon="5.9712">
        <ele>2023</ele>
        <time>2024-06-05T22:22:14+00:00</time>
      </trkpt>
      <trkpt lat="45.19147" lon="5.9715">
        <ele>2026</ele>
        <time>2024-06-05T22:22:17+00:00</time>
      </trkpt>
      <trkpt lat="45.19148" lon="5.97165">
        <ele>2030</ele>
        <time>2024-06-05T22:22:20+00:00</time>
      </trkpt>
      <trkpt lat="45.1915" lon="5.97176">
        <ele>2037</ele>
        <time>2024-06-05T22:22:23+00:00</time>
      </trkpt>
      <trkpt lat="45.19154" lon="5.97186">
        <ele>2038</ele>
        <time>2024-06-05T22:22:26+00:00</time>
      </trkpt>
      <trkpt lat="45.19156" lon="5.97192">
        <ele>2039</ele>
        <time>2024-06-05T22:22:29+00:00</time>
      </trkpt>
      <trkpt lat="45.19158" lon="5.97203">
        <ele>2040</ele>
        <time>2024-06-05T22:22:32+00:00</time>
      </trkpt>
      <trkpt lat="45.19159" lon="5.9722">
        <ele>2042</ele>
        <time>2024-06-05T22:22:35+00:00</time>
      </trkpt>
      <trkpt lat="45.19165" lon="5.97233">
        <ele>2047</ele>
        <time>2024-06-05T22:22:38+00:00</time>
      </trkpt>
      <trkpt lat="45.19173" lon="5.97246">
        <ele>2050</ele>
        <time>2024-06-05T22:22:41+00:00</time>
      </trkpt>
      <trkpt lat="45.19185" lon="5.9726">
        <ele>2052</ele>
        <time>2024-06-05T22:22:44+00:00</time>
      </trkpt>
      <trkpt lat="45.19196" lon="5.9727">
        <ele>2053</ele>
        <time>2024-06-05T22:22:47+00:00</time>
      </trkpt>
      <trkpt lat="45.19203" lon="5.97283">
        <ele>2054</ele>
        <time>2024-06-05T22:22:50+00:00</time>
      </trkpt>
      <trkpt lat="45.19213" lon="5.97303">
        <ele>2054</ele>
        <time>2024-06-05T22:22:53+00:00</time>
      </trkpt>
      <trkpt lat="45.19215" lon="5.97308">
        <ele>2057</ele>
        <time>2024-06-05T22:22:56+00:00</time>
      </trkpt>
      <trkpt lat="45.19218" lon="5.97323">
        <ele>2056</ele>
        <time>2024-06-05T22:22:59+00:00</time>
      </trkpt>
      <trkpt lat="45.19218" lon="5.97334">
        <ele>2055</ele>
        <time>2024-06-05T22:23:02+00:00</time>
      </trkpt>
      <trkpt lat="45.19219" lon="5.97338">
        <ele>2055</ele>
        <time>2024-06-05T22:23:05+00:00</time>
      </trkpt>
      <trkpt lat="45.19219" lon="5.97338">
        <ele>2055</ele>
        <time>2024-06-05T22:23:08+00:00</time>
      </trkpt>
      <trkpt lat="45.1922" lon="5.97345">
        <ele>2057</ele>
        <time>2024-06-05T22:23:11+00:00</time>
      </trkpt>
      <trkpt lat="45.19224" lon="5.97353">
        <ele>2056</ele>
        <time>2024-06-05T22:23:14+00:00</time>
      </trkpt>
      <trkpt lat="45.1923" lon="5.9736">
        <ele>2056</ele>
        <time>2024-06-05T22:23:17+00:00</time>
      </trkpt>
      <trkpt lat="45.19236" lon="5.97366">
        <ele>2058</ele>
        <time>2024-06-05T22:23:20+00:00</time>
      </trkpt>
      <trkpt lat="45.19244" lon="5.97376">
        <ele>2059</ele>
        <time>2024-06-05T22:23:23+00:00</time>
      </trkpt>
      <trkpt lat="45.19251" lon="5.97385">
        <ele>2062</ele>
        <time>2024-06-05T22:23:26+00:00</time>
      </trkpt>
      <trkpt lat="45.19259" lon="5.97393">
        <ele>2062</ele>
        <time>2024-06-05T22:23:29+00:00</time>
      </trkpt>
      <trkpt lat="45.1927" lon="5.97401">
        <ele>2067</ele>
        <time>2024-06-05T22:23:32+00:00</time>
      </trkpt>
      <trkpt lat="45.1928" lon="5.97409">
        <ele>2069</ele>
        <time>2024-06-05T22:23:35+00:00</time>
      </trkpt>
      <trkpt lat="45.19283" lon="5.97412">
        <ele>2069</ele>
        <time>2024-06-05T22:23:38+00:00</time>
      </trkpt>
      <trkpt lat="45.19302" lon="5.9742">
        <ele>2071</ele>
        <time>2024-06-05T22:23:41+00:00</time>
      </trkpt>
      <trkpt lat="45.19321" lon="5.97435">
        <ele>2074</ele>
        <time>2024-06-05T22:23:44+00:00</time>
      </trkpt>
      <trkpt lat="45.19332" lon="5.97443">
        <ele>2078</ele>
        <time>2024-06-05T22:23:47+00:00</time>
      </trkpt>
      <trkpt lat="45.19336" lon="5.97473">
        <ele>2079</ele>
        <time>2024-06-05T22:23:50+00:00</time>
      </trkpt>
      <trkpt lat="45.19341" lon="5.9751">
        <ele>2085</ele>
        <time>2024-06-05T22:23:53+00:00</time>
      </trkpt>
      <trkpt lat="45.19366" lon="5.97528">
        <ele>2095</ele>
        <time>2024-06-05T22:23:56+00:00</time>
      </trkpt>
      <trkpt lat="45.19379" lon="5.97544">
        <ele>2100</ele>
        <time>2024-06-05T22:23:59+00:00</time>
      </trkpt>
      <trkpt lat="45.19389" lon="5.97557">
        <ele>2105</ele>
        <time>2024-06-05T22:24:02+00:00</time>
      </trkpt>
      <trkpt lat="45.19392" lon="5.97564">
        <ele>2108</ele>
        <time>2024-06-05T22:24:05+00:00</time>
      </trkpt>
      <trkpt lat="45.19397" lon="5.9757">
        <ele>2108</ele>
        <time>2024-06-05T22:24:08+00:00</time>
      </trkpt>
      <trkpt lat="45.194" lon="5.97573">
        <ele>2110</ele>
        <time>2024-06-05T22:24:11+00:00</time>
      </trkpt>
      <trkpt lat="45.19407" lon="5.97575">
        <ele>2110</ele>
        <time>2024-06-05T22:24:14+00:00</time>
      </trkpt>
      <trkpt lat="45.19412" lon="5.97573">
        <ele>2111</ele>
        <time>2024-06-05T22:24:17+00:00</time>
      </trkpt>
      <trkpt lat="45.19419" lon="5.97576">
        <ele>2111</ele>
        <time>2024-06-05T22:24:20+00:00</time>
      </trkpt>
      <trkpt lat="45.19423" lon="5.97579">
        <ele>2114</ele>
        <time>2024-06-05T22:24:23+00:00</time>
      </trkpt>
      <trkpt lat="45.19432" lon="5.97584">
        <ele>2119</ele>
        <time>2024-06-05T22:24:26+00:00</time>
      </trkpt>
      <trkpt lat="45.19438" lon="5.97585">
        <ele>2119</ele>
        <time>2024-06-05T22:24:29+00:00</time>
      </trkpt>
      <trkpt lat="45.19443" lon="5.97585">
        <ele>2121</ele>
        <time>2024-06-05T22:24:32+00:00</time>
      </trkpt>
      <trkpt lat="45.1945" lon="5.97587">
        <ele>2121</ele>
        <time>2024-06-05T22:24:35+00:00</time>
      </trkpt>
      <trkpt lat="45.19456" lon="5.97588">
        <ele>2123</ele>
        <time>2024-06-05T22:24:38+00:00</time>
      </trkpt>
      <trkpt lat="45.19464" lon="5.97594">
        <ele>2124</ele>
        <time>2024-06-05T22:24:41+00:00</time>
      </trkpt>
      <trkpt lat="45.19464" lon="5.97598">
        <ele>2124</ele>
        <time>2024-06-05T22:24:44+00:00</time>
      </trkpt>
      <trkpt lat="45.19462" lon="5.97605">
        <ele>2125</ele>
        <time>2024-06-05T22:24:47+00:00</time>
      </trkpt>
      <trkpt lat="45.19462" lon="5.97614">
        <ele>2126</ele>
        <time>2024-06-05T22:24:50+00:00</time>
      </trkpt>
      <trkpt lat="45.19465" lon="5.97617">
        <ele>2126</ele>
        <time>2024-06-05T22:24:53+00:00</time>
      </trkpt>
      <trkpt lat="45.19463" lon="5.9763">
        <ele>2128</ele>
        <time>2024-06-05T22:24:56+00:00</time>
      </trkpt>
      <trkpt lat="45.19466" lon="5.97633">
        <ele>2130</ele>
        <time>2024-06-05T22:24:59+00:00</time>
      </trkpt>
      <trkpt lat="45.19463" lon="5.9764">
        <ele>2130</ele>
        <time>2024-06-05T22:25:02+00:00</time>
      </trkpt>
      <trkpt lat="45.19461" lon="5.97656">
        <ele>2133</ele>
        <time>2024-06-05T22:25:05+00:00</time>
      </trkpt>
      <trkpt lat="45.19458" lon="5.97661">
        <ele>2134</ele>
        <time>2024-06-05T22:25:08+00:00</time>
      </trkpt>
      <trkpt lat="45.19462" lon="5.97663">
        <ele>2134</ele>
        <time>2024-06-05T22:25:11+00:00</time>
      </trkpt>
      <trkpt lat="45.19465" lon="5.97673">
        <ele>2134</ele>
        <time>2024-06-05T22:25:14+00:00</time>
      </trkpt>
      <trkpt lat="45.19475" lon="5.97679">
        <ele>2136</ele>
        <time>2024-06-05T22:25:17+00:00</time>
      </trkpt>
      <trkpt lat="45.19475" lon="5.97693">
        <ele>2134</ele>
        <time>2024-06-05T22:25:20+00:00</time>
      </trkpt>
      <trkpt lat="45.19475" lon="5.97711">
        <ele>2133</ele>
        <time>2024-06-05T22:25:23+00:00</time>
      </trkpt>
      <trkpt lat="45.19475" lon="5.97718">
        <ele>2133</ele>
        <time>2024-06-05T22:25:26+00:00</time>
      </trkpt>
      <trkpt lat="45.1947" lon="5.97748">
        <ele>2135</ele>
        <time>2024-06-05T22:25:29+00:00</time>
      </trkpt>
      <trkpt lat="45.19469" lon="5.97754">
        <ele>2134</ele>
        <time>2024-06-05T22:25:32+00:00</time>
      </trkpt>
      <trkpt lat="45.19466" lon="5.97765">
        <ele>2135</ele>
        <time>2024-06-05T22:25:35+00:00</time>
      </trkpt>
      <trkpt lat="45.19466" lon="5.97774">
        <ele>2136</ele>
        <time>2024-06-05T22:25:38+00:00</time>
      </trkpt>
      <trkpt lat="45.19466" lon="5.9778">
        <ele>2136</ele>
        <time>2024-06-05T22:25:41+00:00</time>
      </trkpt>
      <trkpt lat="45.19467" lon="5.97798">
        <ele>2137</ele>
        <time>2024-06-05T22:25:44+00:00</time>
      </trkpt>
      <trkpt lat="45.19467" lon="5.97806">
        <ele>2137</ele>
        <time>2024-06-05T22:25:47+00:00</time>
      </trkpt>
      <trkpt lat="45.19468" lon="5.9781">
        <ele>2138</ele>
        <time>2024-06-05T22:25:50+00:00</time>
      </trkpt>
      <trkpt lat="45.19472" lon="5.97828">
        <ele>2138</ele>
        <time>2024-06-05T22:25:53+00:00</time>
      </trkpt>
      <trkpt lat="45.19479" lon="5.97867">
        <ele>2142</ele>
        <time>2024-06-05T22:25:56+00:00</time>
      </trkpt>
      <trkpt lat="45.19483" lon="5.97891">
        <ele>2148</ele>
        <time>2024-06-05T22:25:59+00:00</time>
      </trkpt>
      <trkpt lat="45.19486" lon="5.97899">
        <ele>2148</ele>
        <time>2024-06-05T22:26:02+00:00</time>
      </trkpt>
      <trkpt lat="45.19494" lon="5.97904">
        <ele>2150</ele>
        <time>2024-06-05T22:26:05+00:00</time>
      </trkpt>
      <trkpt lat="45.19493" lon="5.97906">
        <ele>2150</ele>
        <time>2024-06-05T22:26:08+00:00</time>
      </trkpt>
      <trkpt lat="45.195" lon="5.97909">
        <ele>2150</ele>
        <time>2024-06-05T22:26:11+00:00</time>
      </trkpt>
      <trkpt lat="45.19507" lon="5.97918">
        <ele>2152</ele>
        <time>2024-06-05T22:26:14+00:00</time>
      </trkpt>
      <trkpt lat="45.19508" lon="5.97925">
        <ele>2153</ele>
        <time>2024-06-05T22:26:17+00:00</time>
      </trkpt>
      <trkpt lat="45.1951" lon="5.97928">
        <ele>2150</ele>
        <time>2024-06-05T22:26:20+00:00</time>
      </trkpt>
      <trkpt lat="45.19515" lon="5.9794">
        <ele>2152</ele>
        <time>2024-06-05T22:26:23+00:00</time>
      </trkpt>
      <trkpt lat="45.19521" lon="5.97953">
        <ele>2152</ele>
        <time>2024-06-05T22:26:26+00:00</time>
      </trkpt>
      <trkpt lat="45.19523" lon="5.97961">
        <ele>2154</ele>
        <time>2024-06-05T22:26:29+00:00</time>
      </trkpt>
      <trkpt lat="45.19529" lon="5.97968">
        <ele>2154</ele>
        <time>2024-06-05T22:26:32+00:00</time>
      </trkpt>
      <trkpt lat="45.19532" lon="5.97969">
        <ele>2152</ele>
        <time>2024-06-05T22:26:35+00:00</time>
      </trkpt>
      <trkpt lat="45.19543" lon="5.97973">
        <ele>2155</ele>
        <time>2024-06-05T22:26:38+00:00</time>
      </trkpt>
      <trkpt lat="45.19549" lon="5.97975">
        <ele>2155</ele>
        <time>2024-06-05T22:26:41+00:00</time>
      </trkpt>
      <trkpt lat="45.19557" lon="5.97979">
        <ele>2159</ele>
        <time>2024-06-05T22:26:44+00:00</time>
      </trkpt>
      <trkpt lat="45.19565" lon="5.97982">
        <ele>2163</ele>
        <time>2024-06-05T22:26:47+00:00</time>
      </trkpt>
      <trkpt lat="45.19568" lon="5.97986">
        <ele>2163</ele>
        <time>2024-06-05T22:26:50+00:00</time>
      </trkpt>
      <trkpt lat="45.19571" lon="5.97991">
        <ele>2169</ele>
        <time>2024-06-05T22:26:53+00:00</time>
      </trkpt>
      <trkpt lat="45.19575" lon="5.98004">
        <ele>2170</ele>
        <time>2024-06-05T22:26:56+00:00</time>
      </trkpt>
      <trkpt lat="45.19579" lon="5.98012">
        <ele>2171</ele>
        <time>2024-06-05T22:26:59+00:00</time>
      </trkpt>
      <trkpt lat="45.19581" lon="5.98018">
        <ele>2174</ele>
        <time>2024-06-05T22:27:02+00:00</time>
      </trkpt>
      <trkpt lat="45.19581" lon="5.98026">
        <ele>2175</ele>
        <time>2024-06-05T22:27:05+00:00</time>
      </trkpt>
      <trkpt lat="45.19583" lon="5.98035">
        <ele>2176</ele>
        <time>2024-06-05T22:27:08+00:00</time>
      </trkpt>
      <trkpt lat="45.19586" lon="5.9804">
        <ele>2176</ele>
        <time>2024-06-05T22:27:11+00:00</time>
      </trkpt>
      <trkpt lat="45.19591" lon="5.98048">
        <ele>2180</ele>
        <time>2024-06-05T22:27:14+00:00</time>
      </trkpt>
      <trkpt lat="45.19593" lon="5.98054">
        <ele>2181</ele>
        <time>2024-06-05T22:27:17+00:00</time>
      </trkpt>
      <trkpt lat="45.19594" lon="5.98062">
        <ele>2182</ele>
        <time>2024-06-05T22:27:20+00:00</time>
      </trkpt>
      <trkpt lat="45.19595" lon="5.98082">
        <ele>2185</ele>
        <time>2024-06-05T22:27:23+00:00</time>
      </trkpt>
      <trkpt lat="45.19594" lon="5.98093">
        <ele>2186</ele>
        <time>2024-06-05T22:27:26+00:00</time>
      </trkpt>
      <trkpt lat="45.19591" lon="5.98111">
        <ele>2189</ele>
        <time>2024-06-05T22:27:29+00:00</time>
      </trkpt>
      <trkpt lat="45.19591" lon="5.98122">
        <ele>2192</ele>
        <time>2024-06-05T22:27:32+00:00</time>
      </trkpt>
      <trkpt lat="45.19589" lon="5.98133">
        <ele>2190</ele>
        <time>2024-06-05T22:27:35+00:00</time>
      </trkpt>
      <trkpt lat="45.19587" lon="5.98143">
        <ele>2192</ele>
        <time>2024-06-05T22:27:38+00:00</time>
      </trkpt>
      <trkpt lat="45.19584" lon="5.98157">
        <ele>2196</ele>
        <time>2024-06-05T22:27:41+00:00</time>
      </trkpt>
      <trkpt lat="45.19579" lon="5.9818">
        <ele>2197</ele>
        <time>2024-06-05T22:27:44+00:00</time>
      </trkpt>
      <trkpt lat="45.19576" lon="5.98195">
        <ele>2202</ele>
        <time>2024-06-05T22:27:47+00:00</time>
      </trkpt>
      <trkpt lat="45.19574" lon="5.98215">
        <ele>2207</ele>
        <time>2024-06-05T22:27:50+00:00</time>
      </trkpt>
      <trkpt lat="45.19573" lon="5.98226">
        <ele>2209</ele>
        <time>2024-06-05T22:27:53+00:00</time>
      </trkpt>
      <trkpt lat="45.19572" lon="5.98234">
        <ele>2210</ele>
        <time>2024-06-05T22:27:56+00:00</time>
      </trkpt>
      <trkpt lat="45.19573" lon="5.98238">
        <ele>2210</ele>
        <time>2024-06-05T22:27:59+00:00</time>
      </trkpt>
      <trkpt lat="45.19573" lon="5.98249">
        <ele>2213</ele>
        <time>2024-06-05T22:28:02+00:00</time>
      </trkpt>
      <trkpt lat="45.19572" lon="5.98266">
        <ele>2216</ele>
        <time>2024-06-05T22:28:05+00:00</time>
      </trkpt>
      <trkpt lat="45.19573" lon="5.98273">
        <ele>2218</ele>
        <time>2024-06-05T22:28:08+00:00</time>
      </trkpt>
      <trkpt lat="45.19577" lon="5.98289">
        <ele>2218</ele>
        <time>2024-06-05T22:28:11+00:00</time>
      </trkpt>
      <trkpt lat="45.19577" lon="5.98294">
        <ele>2219</ele>
        <time>2024-06-05T22:28:14+00:00</time>
      </trkpt>
      <trkpt lat="45.19575" lon="5.98299">
        <ele>2219</ele>
        <time>2024-06-05T22:28:17+00:00</time>
      </trkpt>
      <trkpt lat="45.19571" lon="5.98303">
        <ele>2221</ele>
        <time>2024-06-05T22:28:20+00:00</time>
      </trkpt>
      <trkpt lat="45.19566" lon="5.98313">
        <ele>2218</ele>
        <time>2024-06-05T22:28:23+00:00</time>
      </trkpt>
      <trkpt lat="45.19562" lon="5.98318">
        <ele>2221</ele>
        <time>2024-06-05T22:28:26+00:00</time>
      </trkpt>
      <trkpt lat="45.19559" lon="5.9832">
        <ele>2221</ele>
        <time>2024-06-05T22:28:29+00:00</time>
      </trkpt>
      <trkpt lat="45.19553" lon="5.98322">
        <ele>2221</ele>
        <time>2024-06-05T22:28:32+00:00</time>
      </trkpt>
      <trkpt lat="45.1955" lon="5.98325">
        <ele>2221</ele>
        <time>2024-06-05T22:28:35+00:00</time>
      </trkpt>
      <trkpt lat="45.19549" lon="5.98329">
        <ele>2219</ele>
        <time>2024-06-05T22:28:38+00:00</time>
      </trkpt>
      <trkpt lat="45.19551" lon="5.98334">
        <ele>2224</ele>
        <time>2024-06-05T22:28:41+00:00</time>
      </trkpt>
      <trkpt lat="45.19551" lon="5.98337">
        <ele>2224</ele>
        <time>2024-06-05T22:28:44+00:00</time>
      </trkpt>
      <trkpt lat="45.19544" lon="5.98347">
        <ele>2226</ele>
        <time>2024-06-05T22:28:47+00:00</time>
      </trkpt>
      <trkpt lat="45.19543" lon="5.98351">
        <ele>2227</ele>
        <time>2024-06-05T22:28:50+00:00</time>
      </trkpt>
      <trkpt lat="45.19544" lon="5.98371">
        <ele>2231</ele>
        <time>2024-06-05T22:28:53+00:00</time>
      </trkpt>
      <trkpt lat="45.19544" lon="5.98378">
        <ele>2231</ele>
        <time>2024-06-05T22:28:56+00:00</time>
      </trkpt>
      <trkpt lat="45.1954" lon="5.98388">
        <ele>2233</ele>
        <time>2024-06-05T22:28:59+00:00</time>
      </trkpt>
      <trkpt lat="45.19536" lon="5.98398">
        <ele>2235</ele>
        <time>2024-06-05T22:29:02+00:00</time>
      </trkpt>
      <trkpt lat="45.19539" lon="5.98401">
        <ele>2240</ele>
        <time>2024-06-05T22:29:05+00:00</time>
      </trkpt>
      <trkpt lat="45.19539" lon="5.98408">
        <ele>2240</ele>
        <time>2024-06-05T22:29:08+00:00</time>
      </trkpt>
      <trkpt lat="45.19537" lon="5.98416">
        <ele>2242</ele>
        <time>2024-06-05T22:29:11+00:00</time>
      </trkpt>
      <trkpt lat="45.19539" lon="5.98417">
        <ele>2242</ele>
        <time>2024-06-05T22:29:14+00:00</time>
      </trkpt>
      <trkpt lat="45.19537" lon="5.98422">
        <ele>2245</ele>
        <time>2024-06-05T22:29:17+00:00</time>
      </trkpt>
      <trkpt lat="45.19541" lon="5.98425">
        <ele>2250</ele>
        <time>2024-06-05T22:29:20+00:00</time>
      </trkpt>
      <trkpt lat="45.19536" lon="5.98445">
        <ele>2254</ele>
        <time>2024-06-05T22:29:23+00:00</time>
      </trkpt>
      <trkpt lat="45.19535" lon="5.9845">
        <ele>2257</ele>
        <time>2024-06-05T22:29:26+00:00</time>
      </trkpt>
      <trkpt lat="45.19543" lon="5.98454">
        <ele>2262</ele>
        <time>2024-06-05T22:29:29+00:00</time>
      </trkpt>
      <trkpt lat="45.1955" lon="5.98454">
        <ele>2265</ele>
        <time>2024-06-05T22:29:32+00:00</time>
      </trkpt>
      <trkpt lat="45.19559" lon="5.98456">
        <ele>2265</ele>
        <time>2024-06-05T22:29:35+00:00</time>
      </trkpt>
      <trkpt lat="45.19566" lon="5.98465">
        <ele>2273</ele>
        <time>2024-06-05T22:29:38+00:00</time>
      </trkpt>
      <trkpt lat="45.19572" lon="5.98476">
        <ele>2281</ele>
        <time>2024-06-05T22:29:41+00:00</time>
      </trkpt>
      <trkpt lat="45.19578" lon="5.98482">
        <ele>2284</ele>
        <time>2024-06-05T22:29:44+00:00</time>
      </trkpt>
      <trkpt lat="45.19578" lon="5.98487">
        <ele>2284</ele>
        <time>2024-06-05T22:29:47+00:00</time>
      </trkpt>
      <trkpt lat="45.1957" lon="5.98499">
        <ele>2289</ele>
        <time>2024-06-05T22:29:50+00:00</time>
      </trkpt>
      <trkpt lat="45.19567" lon="5.98511">
        <ele>2290</ele>
        <time>2024-06-05T22:29:53+00:00</time>
      </trkpt>
      <trkpt lat="45.19565" lon="5.98521">
        <ele>2296</ele>
        <time>2024-06-05T22:29:56+00:00</time>
      </trkpt>
      <trkpt lat="45.19561" lon="5.98541">
        <ele>2302</ele>
        <time>2024-06-05T22:29:59+00:00</time>
      </trkpt>
      <trkpt lat="45.19557" lon="5.98562">
        <ele>2303</ele>
        <time>2024-06-05T22:30:02+00:00</time>
      </trkpt>
      <trkpt lat="45.19557" lon="5.98572">
        <ele>2305</ele>
        <time>2024-06-05T22:30:05+00:00</time>
      </trkpt>
      <trkpt lat="45.19561" lon="5.98587">
        <ele>2312</ele>
        <time>2024-06-05T22:30:08+00:00</time>
      </trkpt>
      <trkpt lat="45.19566" lon="5.98603">
        <ele>2313</ele>
        <time>2024-06-05T22:30:11+00:00</time>
      </trkpt>
      <trkpt lat="45.19572" lon="5.98615">
        <ele>2321</ele>
        <time>2024-06-05T22:30:14+00:00</time>
      </trkpt>
      <trkpt lat="45.19574" lon="5.98618">
        <ele>2321</ele>
        <time>2024-06-05T22:30:17+00:00</time>
      </trkpt>
      <trkpt lat="45.19574" lon="5.98618">
        <ele>2321</ele>
        <time>2024-06-05T22:30:20+00:00</time>
      </trkpt>
      <trkpt lat="45.19577" lon="5.98623">
        <ele>2321</ele>
        <time>2024-06-05T22:30:23+00:00</time>
      </trkpt>
      <trkpt lat="45.1958" lon="5.98629">
        <ele>2321</ele>
        <time>2024-06-05T22:30:26+00:00</time>
      </trkpt>
      <trkpt lat="45.19585" lon="5.98644">
        <ele>2325</ele>
        <time>2024-06-05T22:30:29+00:00</time>
      </trkpt>
      <trkpt lat="45.19588" lon="5.98653">
        <ele>2324</ele>
        <time>2024-06-05T22:30:32+00:00</time>
      </trkpt>
      <trkpt lat="45.1959" lon="5.9866">
        <ele>2323</ele>
        <time>2024-06-05T22:30:35+00:00</time>
      </trkpt>
      <trkpt lat="45.19594" lon="5.98691">
        <ele>2324</ele>
        <time>2024-06-05T22:30:38+00:00</time>
      </trkpt>
      <trkpt lat="45.196" lon="5.98737">
        <ele>2336</ele>
        <time>2024-06-05T22:30:41+00:00</time>
      </trkpt>
      <trkpt lat="45.19604" lon="5.98748">
        <ele>2337</ele>
        <time>2024-06-05T22:30:44+00:00</time>
      </trkpt>
      <trkpt lat="45.19608" lon="5.98751">
        <ele>2337</ele>
        <time>2024-06-05T22:30:47+00:00</time>
      </trkpt>
      <trkpt lat="45.19615" lon="5.98752">
        <ele>2342</ele>
        <time>2024-06-05T22:30:50+00:00</time>
      </trkpt>
      <trkpt lat="45.19623" lon="5.98753">
        <ele>2347</ele>
        <time>2024-06-05T22:30:53+00:00</time>
      </trkpt>
      <trkpt lat="45.1963" lon="5.98749">
        <ele>2347</ele>
        <time>2024-06-05T22:30:56+00:00</time>
      </trkpt>
      <trkpt lat="45.19633" lon="5.98751">
        <ele>2354</ele>
        <time>2024-06-05T22:30:59+00:00</time>
      </trkpt>
      <trkpt lat="45.19635" lon="5.98756">
        <ele>2354</ele>
        <time>2024-06-05T22:31:02+00:00</time>
      </trkpt>
      <trkpt lat="45.19632" lon="5.9877">
        <ele>2357</ele>
        <time>2024-06-05T22:31:05+00:00</time>
      </trkpt>
      <trkpt lat="45.19638" lon="5.98769">
        <ele>2354</ele>
        <time>2024-06-05T22:31:08+00:00</time>
      </trkpt>
      <trkpt lat="45.19639" lon="5.98772">
        <ele>2357</ele>
        <time>2024-06-05T22:31:11+00:00</time>
      </trkpt>
      <trkpt lat="45.19639" lon="5.98775">
        <ele>2357</ele>
        <time>2024-06-05T22:31:14+00:00</time>
      </trkpt>
      <trkpt lat="45.19638" lon="5.98779">
        <ele>2357</ele>
        <time>2024-06-05T22:31:17+00:00</time>
      </trkpt>
      <trkpt lat="45.19642" lon="5.98777">
        <ele>2363</ele>
        <time>2024-06-05T22:31:20+00:00</time>
      </trkpt>
      <trkpt lat="45.19642" lon="5.9878">
        <ele>2363</ele>
        <time>2024-06-05T22:31:23+00:00</time>
      </trkpt>
      <trkpt lat="45.19642" lon="5.98782">
        <ele>2366</ele>
        <time>2024-06-05T22:31:26+00:00</time>
      </trkpt>
      <trkpt lat="45.19644" lon="5.9878">
        <ele>2366</ele>
        <time>2024-06-05T22:31:29+00:00</time>
      </trkpt>
      <trkpt lat="45.19648" lon="5.98776">
        <ele>2363</ele>
        <time>2024-06-05T22:31:32+00:00</time>
      </trkpt>
      <trkpt lat="45.1965" lon="5.9878">
        <ele>2368</ele>
        <time>2024-06-05T22:31:35+00:00</time>
      </trkpt>
      <trkpt lat="45.19658" lon="5.98779">
        <ele>2368</ele>
        <time>2024-06-05T22:31:38+00:00</time>
      </trkpt>
      <trkpt lat="45.1967" lon="5.98776">
        <ele>2374</ele>
        <time>2024-06-05T22:31:41+00:00</time>
      </trkpt>
      <trkpt lat="45.19681" lon="5.98774">
        <ele>2384</ele>
        <time>2024-06-05T22:31:44+00:00</time>
      </trkpt>
      <trkpt lat="45.19686" lon="5.98775">
        <ele>2384</ele>
        <time>2024-06-05T22:31:47+00:00</time>
      </trkpt>
      <trkpt lat="45.19684" lon="5.98779">
        <ele>2384</ele>
        <time>2024-06-05T22:31:50+00:00</time>
      </trkpt>
      <trkpt lat="45.19687" lon="5.98783">
        <ele>2387</ele>
        <time>2024-06-05T22:31:53+00:00</time>
      </trkpt>
      <trkpt lat="45.19688" lon="5.98785">
        <ele>2387</ele>
        <time>2024-06-05T22:31:56+00:00</time>
      </trkpt>
      <trkpt lat="45.19691" lon="5.98785">
        <ele>2395</ele>
        <time>2024-06-05T22:31:59+00:00</time>
      </trkpt>
      <trkpt lat="45.19691" lon="5.98786">
        <ele>2395</ele>
        <time>2024-06-05T22:32:02+00:00</time>
      </trkpt>
      <trkpt lat="45.19692" lon="5.98787">
        <ele>2395</ele>
        <time>2024-06-05T22:32:05+00:00</time>
      </trkpt>
      <trkpt lat="45.19695" lon="5.98786">
        <ele>2395</ele>
        <time>2024-06-05T22:32:08+00:00</time>
      </trkpt>
      <trkpt lat="45.19699" lon="5.98785">
        <ele>2395</ele>
        <time>2024-06-05T22:32:11+00:00</time>
      </trkpt>
      <trkpt lat="45.19701" lon="5.98784">
        <ele>2400</ele>
        <time>2024-06-05T22:32:14+00:00</time>
      </trkpt>
      <trkpt lat="45.19701" lon="5.98787">
        <ele>2400</ele>
        <time>2024-06-05T22:32:17+00:00</time>
      </trkpt>
      <trkpt lat="45.19702" lon="5.98787">
        <ele>2400</ele>
        <time>2024-06-05T22:32:20+00:00</time>
      </trkpt>
      <trkpt lat="45.19703" lon="5.98785">
        <ele>2400</ele>
        <time>2024-06-05T22:32:23+00:00</time>
      </trkpt>
      <trkpt lat="45.19705" lon="5.98785">
        <ele>2400</ele>
        <time>2024-06-05T22:32:26+00:00</time>
      </trkpt>
      <trkpt lat="45.19705" lon="5.98786">
        <ele>2400</ele>
        <time>2024-06-05T22:32:29+00:00</time>
      </trkpt>
      <trkpt lat="45.19706" lon="5.9879">
        <ele>2400</ele>
        <time>2024-06-05T22:32:32+00:00</time>
      </trkpt>
      <trkpt lat="45.19707" lon="5.9879">
        <ele>2401</ele>
        <time>2024-06-05T22:32:35+00:00</time>
      </trkpt>
      <trkpt lat="45.19708" lon="5.98787">
        <ele>2400</ele>
        <time>2024-06-05T22:32:38+00:00</time>
      </trkpt>
      <trkpt lat="45.1971" lon="5.98787">
        <ele>2400</ele>
        <time>2024-06-05T22:32:41+00:00</time>
      </trkpt>
      <trkpt lat="45.19711" lon="5.98788">
        <ele>2405</ele>
        <time>2024-06-05T22:32:44+00:00</time>
      </trkpt>
      <trkpt lat="45.19716" lon="5.98793">
        <ele>2405</ele>
        <time>2024-06-05T22:32:47+00:00</time>
      </trkpt>
      <trkpt lat="45.19718" lon="5.98796">
        <ele>2405</ele>
        <time>2024-06-05T22:32:50+00:00</time>
      </trkpt>
      <trkpt lat="45.19721" lon="5.98802">
        <ele>2408</ele>
        <time>2024-06-05T22:32:53+00:00</time>
      </trkpt>
      <trkpt lat="45.19728" lon="5.98811">
        <ele>2407</ele>
        <time>2024-06-05T22:32:56+00:00</time>
      </trkpt>
      <trkpt lat="45.19731" lon="5.98815">
        <ele>2405</ele>
        <time>2024-06-05T22:32:59+00:00</time>
      </trkpt>
      <trkpt lat="45.19732" lon="5.98819">
        <ele>2408</ele>
        <time>2024-06-05T22:33:02+00:00</time>
      </trkpt>
      <trkpt lat="45.19737" lon="5.98827">
        <ele>2406</ele>
        <time>2024-06-05T22:33:05+00:00</time>
      </trkpt>
      <trkpt lat="45.19738" lon="5.98831">
        <ele>2405</ele>
        <time>2024-06-05T22:33:08+00:00</time>
      </trkpt>
      <trkpt lat="45.19737" lon="5.98835">
        <ele>2405</ele>
        <time>2024-06-05T22:33:11+00:00</time>
      </trkpt>
      <trkpt lat="45.19736" lon="5.98837">
        <ele>2405</ele>
        <time>2024-06-05T22:33:14+00:00</time>
      </trkpt>
      <trkpt lat="45.19736" lon="5.98838">
        <ele>2405</ele>
        <time>2024-06-05T22:33:17+00:00</time>
      </trkpt>
      <trkpt lat="45.19737" lon="5.98847">
        <ele>2404</ele>
        <time>2024-06-05T22:33:20+00:00</time>
      </trkpt>
      <trkpt lat="45.19745" lon="5.98865">
        <ele>2403</ele>
        <time>2024-06-05T22:33:23+00:00</time>
      </trkpt>
      <trkpt lat="45.19746" lon="5.98878">
        <ele>2401</ele>
        <time>2024-06-05T22:33:26+00:00</time>
      </trkpt>
      <trkpt lat="45.19743" lon="5.98881">
        <ele>2400</ele>
        <time>2024-06-05T22:33:29+00:00</time>
      </trkpt>
      <trkpt lat="45.19743" lon="5.98885">
        <ele>2400</ele>
        <time>2024-06-05T22:33:32+00:00</time>
      </trkpt>
      <trkpt lat="45.19746" lon="5.98896">
        <ele>2402</ele>
        <time>2024-06-05T22:33:35+00:00</time>
      </trkpt>
      <trkpt lat="45.19746" lon="5.98901">
        <ele>2402</ele>
        <time>2024-06-05T22:33:38+00:00</time>
      </trkpt>
      <trkpt lat="45.19748" lon="5.98907">
        <ele>2402</ele>
        <time>2024-06-05T22:33:41+00:00</time>
      </trkpt>
      <trkpt lat="45.19752" lon="5.98912">
        <ele>2402</ele>
        <time>2024-06-05T22:33:44+00:00</time>
      </trkpt>
      <trkpt lat="45.19754" lon="5.98917">
        <ele>2402</ele>
        <time>2024-06-05T22:33:47+00:00</time>
      </trkpt>
      <trkpt lat="45.19755" lon="5.98922">
        <ele>2401</ele>
        <time>2024-06-05T22:33:50+00:00</time>
      </trkpt>
      <trkpt lat="45.19757" lon="5.9893">
        <ele>2401</ele>
        <time>2024-06-05T22:33:53+00:00</time>
      </trkpt>
      <trkpt lat="45.19753" lon="5.98939">
        <ele>2400</ele>
        <time>2024-06-05T22:33:56+00:00</time>
      </trkpt>
      <trkpt lat="45.19755" lon="5.98948">
        <ele>2399</ele>
        <time>2024-06-05T22:33:59+00:00</time>
      </trkpt>
      <trkpt lat="45.19754" lon="5.98953">
        <ele>2399</ele>
        <time>2024-06-05T22:34:02+00:00</time>
      </trkpt>
      <trkpt lat="45.19756" lon="5.98957">
        <ele>2399</ele>
        <time>2024-06-05T22:34:05+00:00</time>
      </trkpt>
      <trkpt lat="45.19755" lon="5.98964">
        <ele>2399</ele>
        <time>2024-06-05T22:34:08+00:00</time>
      </trkpt>
      <trkpt lat="45.19755" lon="5.98967">
        <ele>2399</ele>
        <time>2024-06-05T22:34:11+00:00</time>
      </trkpt>
      <trkpt lat="45.19754" lon="5.98972">
        <ele>2398</ele>
        <time>2024-06-05T22:34:14+00:00</time>
      </trkpt>
      <trkpt lat="45.19753" lon="5.98975">
        <ele>2398</ele>
        <time>2024-06-05T22:34:17+00:00</time>
      </trkpt>
      <trkpt lat="45.19755" lon="5.98983">
        <ele>2397</ele>
        <time>2024-06-05T22:34:20+00:00</time>
      </trkpt>
      <trkpt lat="45.19752" lon="5.98995">
        <ele>2395</ele>
        <time>2024-06-05T22:34:23+00:00</time>
      </trkpt>
      <trkpt lat="45.19752" lon="5.99">
        <ele>2393</ele>
        <time>2024-06-05T22:34:26+00:00</time>
      </trkpt>
      <trkpt lat="45.19759" lon="5.9901">
        <ele>2392</ele>
        <time>2024-06-05T22:34:29+00:00</time>
      </trkpt>
      <trkpt lat="45.1976" lon="5.99017">
        <ele>2392</ele>
        <time>2024-06-05T22:34:32+00:00</time>
      </trkpt>
      <trkpt lat="45.19763" lon="5.99019">
        <ele>2391</ele>
        <time>2024-06-05T22:34:35+00:00</time>
      </trkpt>
      <trkpt lat="45.19764" lon="5.99025">
        <ele>2390</ele>
        <time>2024-06-05T22:34:38+00:00</time>
      </trkpt>
      <trkpt lat="45.19767" lon="5.99032">
        <ele>2389</ele>
        <time>2024-06-05T22:34:41+00:00</time>
      </trkpt>
      <trkpt lat="45.19773" lon="5.99039">
        <ele>2388</ele>
        <time>2024-06-05T22:34:44+00:00</time>
      </trkpt>
      <trkpt lat="45.19775" lon="5.99047">
        <ele>2387</ele>
        <time>2024-06-05T22:34:47+00:00</time>
      </trkpt>
      <trkpt lat="45.19776" lon="5.99049">
        <ele>2387</ele>
        <time>2024-06-05T22:34:50+00:00</time>
      </trkpt>
      <trkpt lat="45.19778" lon="5.99057">
        <ele>2387</ele>
        <time>2024-06-05T22:34:53+00:00</time>
      </trkpt>
      <trkpt lat="45.19778" lon="5.99069">
        <ele>2387</ele>
        <time>2024-06-05T22:34:56+00:00</time>
      </trkpt>
      <trkpt lat="45.19781" lon="5.99076">
        <ele>2384</ele>
        <time>2024-06-05T22:34:59+00:00</time>
      </trkpt>
      <trkpt lat="45.19783" lon="5.99078">
        <ele>2384</ele>
        <time>2024-06-05T22:35:02+00:00</time>
      </trkpt>
      <trkpt lat="45.19784" lon="5.99085">
        <ele>2386</ele>
        <time>2024-06-05T22:35:05+00:00</time>
      </trkpt>
      <trkpt lat="45.19785" lon="5.99087">
        <ele>2386</ele>
        <time>2024-06-05T22:35:08+00:00</time>
      </trkpt>
      <trkpt lat="45.19785" lon="5.99089">
        <ele>2386</ele>
        <time>2024-06-05T22:35:11+00:00</time>
      </trkpt>
      <trkpt lat="45.19785" lon="5.99089">
        <ele>2386</ele>
        <time>2024-06-05T22:35:14+00:00</time>
      </trkpt>
      <trkpt lat="45.19785" lon="5.99089">
        <ele>2386</ele>
        <time>2024-06-05T22:35:17+00:00</time>
      </trkpt>
      <trkpt lat="45.19787" lon="5.99091">
        <ele>2387</ele>
        <time>2024-06-05T22:35:20+00:00</time>
      </trkpt>
      <trkpt lat="45.1979" lon="5.99097">
        <ele>2384</ele>
        <time>2024-06-05T22:35:23+00:00</time>
      </trkpt>
      <trkpt lat="45.19791" lon="5.99099">
        <ele>2384</ele>
        <time>2024-06-05T22:35:26+00:00</time>
      </trkpt>
      <trkpt lat="45.19791" lon="5.99102">
        <ele>2385</ele>
        <time>2024-06-05T22:35:29+00:00</time>
      </trkpt>
      <trkpt lat="45.19792" lon="5.99112">
        <ele>2386</ele>
        <time>2024-06-05T22:35:32+00:00</time>
      </trkpt>
      <trkpt lat="45.19798" lon="5.99119">
        <ele>2386</ele>
        <time>2024-06-05T22:35:35+00:00</time>
      </trkpt>
      <trkpt lat="45.19801" lon="5.99122">
        <ele>2381</ele>
        <time>2024-06-05T22:35:38+00:00</time>
      </trkpt>
      <trkpt lat="45.19815" lon="5.99121">
        <ele>2381</ele>
        <time>2024-06-05T22:35:41+00:00</time>
      </trkpt>
      <trkpt lat="45.19821" lon="5.99122">
        <ele>2379</ele>
        <time>2024-06-05T22:35:44+00:00</time>
      </trkpt>
      <trkpt lat="45.19823" lon="5.99126">
        <ele>2379</ele>
        <time>2024-06-05T22:35:47+00:00</time>
      </trkpt>
      <trkpt lat="45.19829" lon="5.99126">
        <ele>2379</ele>
        <time>2024-06-05T22:35:50+00:00</time>
      </trkpt>
      <trkpt lat="45.19842" lon="5.99136">
        <ele>2378</ele>
        <time>2024-06-05T22:35:53+00:00</time>
      </trkpt>
      <trkpt lat="45.19849" lon="5.9914">
        <ele>2379</ele>
        <time>2024-06-05T22:35:56+00:00</time>
      </trkpt>
      <trkpt lat="45.19859" lon="5.99148">
        <ele>2376</ele>
        <time>2024-06-05T22:35:59+00:00</time>
      </trkpt>
      <trkpt lat="45.19863" lon="5.99161">
        <ele>2377</ele>
        <time>2024-06-05T22:36:02+00:00</time>
      </trkpt>
      <trkpt lat="45.19865" lon="5.99176">
        <ele>2377</ele>
        <time>2024-06-05T22:36:05+00:00</time>
      </trkpt>
      <trkpt lat="45.19869" lon="5.99188">
        <ele>2375</ele>
        <time>2024-06-05T22:36:08+00:00</time>
      </trkpt>
      <trkpt lat="45.19875" lon="5.99199">
        <ele>2367</ele>
        <time>2024-06-05T22:36:11+00:00</time>
      </trkpt>
      <trkpt lat="45.19876" lon="5.99203">
        <ele>2365</ele>
        <time>2024-06-05T22:36:14+00:00</time>
      </trkpt>
      <trkpt lat="45.1988" lon="5.9921">
        <ele>2365</ele>
        <time>2024-06-05T22:36:17+00:00</time>
      </trkpt>
      <trkpt lat="45.19878" lon="5.99216">
        <ele>2369</ele>
        <time>2024-06-05T22:36:20+00:00</time>
      </trkpt>
      <trkpt lat="45.19876" lon="5.99217">
        <ele>2363</ele>
        <time>2024-06-05T22:36:23+00:00</time>
      </trkpt>
      <trkpt lat="45.19874" lon="5.99217">
        <ele>2363</ele>
        <time>2024-06-05T22:36:26+00:00</time>
      </trkpt>
      <trkpt lat="45.1987" lon="5.9922">
        <ele>2363</ele>
        <time>2024-06-05T22:36:29+00:00</time>
      </trkpt>
      <trkpt lat="45.19867" lon="5.99231">
        <ele>2366</ele>
        <time>2024-06-05T22:36:32+00:00</time>
      </trkpt>
      <trkpt lat="45.19857" lon="5.99242">
        <ele>2364</ele>
        <time>2024-06-05T22:36:35+00:00</time>
      </trkpt>
      <trkpt lat="45.19853" lon="5.99251">
        <ele>2363</ele>
        <time>2024-06-05T22:36:38+00:00</time>
      </trkpt>
      <trkpt lat="45.19852" lon="5.99256">
        <ele>2363</ele>
        <time>2024-06-05T22:36:41+00:00</time>
      </trkpt>
      <trkpt lat="45.19852" lon="5.99256">
        <ele>2363</ele>
        <time>2024-06-05T22:36:44+00:00</time>
      </trkpt>
      <trkpt lat="45.19852" lon="5.99258">
        <ele>2363</ele>
        <time>2024-06-05T22:36:47+00:00</time>
      </trkpt>
      <trkpt lat="45.19855" lon="5.99267">
        <ele>2362</ele>
        <time>2024-06-05T22:36:50+00:00</time>
      </trkpt>
      <trkpt lat="45.19855" lon="5.99271">
        <ele>2361</ele>
        <time>2024-06-05T22:36:53+00:00</time>
      </trkpt>
      <trkpt lat="45.19857" lon="5.99275">
        <ele>2361</ele>
        <time>2024-06-05T22:36:56+00:00</time>
      </trkpt>
      <trkpt lat="45.1986" lon="5.99284">
        <ele>2357</ele>
        <time>2024-06-05T22:36:59+00:00</time>
      </trkpt>
      <trkpt lat="45.1986" lon="5.99287">
        <ele>2360</ele>
        <time>2024-06-05T22:37:02+00:00</time>
      </trkpt>
      <trkpt lat="45.19858" lon="5.99294">
        <ele>2361</ele>
        <time>2024-06-05T22:37:05+00:00</time>
      </trkpt>
      <trkpt lat="45.19856" lon="5.99299">
        <ele>2359</ele>
        <time>2024-06-05T22:37:08+00:00</time>
      </trkpt>
      <trkpt lat="45.19855" lon="5.99301">
        <ele>2358</ele>
        <time>2024-06-05T22:37:11+00:00</time>
      </trkpt>
      <trkpt lat="45.19854" lon="5.99304">
        <ele>2358</ele>
        <time>2024-06-05T22:37:14+00:00</time>
      </trkpt>
      <trkpt lat="45.19853" lon="5.99309">
        <ele>2358</ele>
        <time>2024-06-05T22:37:17+00:00</time>
      </trkpt>
      <trkpt lat="45.19852" lon="5.99314">
        <ele>2357</ele>
        <time>2024-06-05T22:37:20+00:00</time>
      </trkpt>
      <trkpt lat="45.1985" lon="5.99329">
        <ele>2360</ele>
        <time>2024-06-05T22:37:23+00:00</time>
      </trkpt>
      <trkpt lat="45.19851" lon="5.99332">
        <ele>2354</ele>
        <time>2024-06-05T22:37:26+00:00</time>
      </trkpt>
      <trkpt lat="45.19853" lon="5.99333">
        <ele>2354</ele>
        <time>2024-06-05T22:37:29+00:00</time>
      </trkpt>
      <trkpt lat="45.19853" lon="5.99335">
        <ele>2354</ele>
        <time>2024-06-05T22:37:32+00:00</time>
      </trkpt>
      <trkpt lat="45.19853" lon="5.99338">
        <ele>2354</ele>
        <time>2024-06-05T22:37:35+00:00</time>
      </trkpt>
      <trkpt lat="45.19849" lon="5.99342">
        <ele>2358</ele>
        <time>2024-06-05T22:37:38+00:00</time>
      </trkpt>
      <trkpt lat="45.19848" lon="5.99344">
        <ele>2358</ele>
        <time>2024-06-05T22:37:41+00:00</time>
      </trkpt>
      <trkpt lat="45.19849" lon="5.99346">
        <ele>2358</ele>
        <time>2024-06-05T22:37:44+00:00</time>
      </trkpt>
      <trkpt lat="45.19854" lon="5.99348">
        <ele>2353</ele>
        <time>2024-06-05T22:37:47+00:00</time>
      </trkpt>
      <trkpt lat="45.19855" lon="5.99352">
        <ele>2352</ele>
        <time>2024-06-05T22:37:50+00:00</time>
      </trkpt>
      <trkpt lat="45.19856" lon="5.99353">
        <ele>2352</ele>
        <time>2024-06-05T22:37:53+00:00</time>
      </trkpt>
      <trkpt lat="45.19858" lon="5.99353">
        <ele>2352</ele>
        <time>2024-06-05T22:37:56+00:00</time>
      </trkpt>
      <trkpt lat="45.19858" lon="5.99359">
        <ele>2352</ele>
        <time>2024-06-05T22:37:59+00:00</time>
      </trkpt>
      <trkpt lat="45.19859" lon="5.99367">
        <ele>2351</ele>
        <time>2024-06-05T22:38:02+00:00</time>
      </trkpt>
      <trkpt lat="45.19862" lon="5.99373">
        <ele>2344</ele>
        <time>2024-06-05T22:38:05+00:00</time>
      </trkpt>
      <trkpt lat="45.19864" lon="5.99377">
        <ele>2344</ele>
        <time>2024-06-05T22:38:08+00:00</time>
      </trkpt>
      <trkpt lat="45.19863" lon="5.99388">
        <ele>2344</ele>
        <time>2024-06-05T22:38:11+00:00</time>
      </trkpt>
      <trkpt lat="45.19861" lon="5.99395">
        <ele>2344</ele>
        <time>2024-06-05T22:38:14+00:00</time>
      </trkpt>
      <trkpt lat="45.19861" lon="5.99399">
        <ele>2344</ele>
        <time>2024-06-05T22:38:17+00:00</time>
      </trkpt>
      <trkpt lat="45.19869" lon="5.99417">
        <ele>2343</ele>
        <time>2024-06-05T22:38:20+00:00</time>
      </trkpt>
      <trkpt lat="45.19872" lon="5.99422">
        <ele>2336</ele>
        <time>2024-06-05T22:38:23+00:00</time>
      </trkpt>
      <trkpt lat="45.19875" lon="5.99431">
        <ele>2334</ele>
        <time>2024-06-05T22:38:26+00:00</time>
      </trkpt>
      <trkpt lat="45.19876" lon="5.99437">
        <ele>2334</ele>
        <time>2024-06-05T22:38:29+00:00</time>
      </trkpt>
      <trkpt lat="45.19875" lon="5.99447">
        <ele>2334</ele>
        <time>2024-06-05T22:38:32+00:00</time>
      </trkpt>
      <trkpt lat="45.19872" lon="5.99453">
        <ele>2336</ele>
        <time>2024-06-05T22:38:35+00:00</time>
      </trkpt>
      <trkpt lat="45.19871" lon="5.99456">
        <ele>2336</ele>
        <time>2024-06-05T22:38:38+00:00</time>
      </trkpt>
      <trkpt lat="45.19872" lon="5.99458">
        <ele>2336</ele>
        <time>2024-06-05T22:38:41+00:00</time>
      </trkpt>
      <trkpt lat="45.1988" lon="5.99463">
        <ele>2340</ele>
        <time>2024-06-05T22:38:44+00:00</time>
      </trkpt>
      <trkpt lat="45.19889" lon="5.99462">
        <ele>2334</ele>
        <time>2024-06-05T22:38:47+00:00</time>
      </trkpt>
      <trkpt lat="45.1989" lon="5.9946">
        <ele>2339</ele>
        <time>2024-06-05T22:38:50+00:00</time>
      </trkpt>
      <trkpt lat="45.19892" lon="5.99459">
        <ele>2332</ele>
        <time>2024-06-05T22:38:53+00:00</time>
      </trkpt>
      <trkpt lat="45.19893" lon="5.99459">
        <ele>2332</ele>
        <time>2024-06-05T22:38:56+00:00</time>
      </trkpt>
      <trkpt lat="45.19897" lon="5.99457">
        <ele>2332</ele>
        <time>2024-06-05T22:38:59+00:00</time>
      </trkpt>
      <trkpt lat="45.19899" lon="5.99457">
        <ele>2332</ele>
        <time>2024-06-05T22:39:02+00:00</time>
      </trkpt>
      <trkpt lat="45.19903" lon="5.99455">
        <ele>2334</ele>
        <time>2024-06-05T22:39:05+00:00</time>
      </trkpt>
      <trkpt lat="45.19904" lon="5.99452">
        <ele>2334</ele>
        <time>2024-06-05T22:39:08+00:00</time>
      </trkpt>
      <trkpt lat="45.19911" lon="5.99445">
        <ele>2332</ele>
        <time>2024-06-05T22:39:11+00:00</time>
      </trkpt>
      <trkpt lat="45.19916" lon="5.99444">
        <ele>2332</ele>
        <time>2024-06-05T22:39:14+00:00</time>
      </trkpt>
      <trkpt lat="45.19921" lon="5.99439">
        <ele>2331</ele>
        <time>2024-06-05T22:39:17+00:00</time>
      </trkpt>
      <trkpt lat="45.19931" lon="5.99426">
        <ele>2327</ele>
        <time>2024-06-05T22:39:20+00:00</time>
      </trkpt>
      <trkpt lat="45.19934" lon="5.99424">
        <ele>2327</ele>
        <time>2024-06-05T22:39:23+00:00</time>
      </trkpt>
      <trkpt lat="45.19941" lon="5.99423">
        <ele>2327</ele>
        <time>2024-06-05T22:39:26+00:00</time>
      </trkpt>
      <trkpt lat="45.19942" lon="5.99421">
        <ele>2327</ele>
        <time>2024-06-05T22:39:29+00:00</time>
      </trkpt>
      <trkpt lat="45.19944" lon="5.99419">
        <ele>2321</ele>
        <time>2024-06-05T22:39:32+00:00</time>
      </trkpt>
      <trkpt lat="45.19945" lon="5.99418">
        <ele>2321</ele>
        <time>2024-06-05T22:39:35+00:00</time>
      </trkpt>
      <trkpt lat="45.19947" lon="5.99418">
        <ele>2321</ele>
        <time>2024-06-05T22:39:38+00:00</time>
      </trkpt>
      <trkpt lat="45.1995" lon="5.99416">
        <ele>2328</ele>
        <time>2024-06-05T22:39:41+00:00</time>
      </trkpt>
      <trkpt lat="45.19955" lon="5.99416">
        <ele>2319</ele>
        <time>2024-06-05T22:39:44+00:00</time>
      </trkpt>
      <trkpt lat="45.19957" lon="5.99417">
        <ele>2319</ele>
        <time>2024-06-05T22:39:47+00:00</time>
      </trkpt>
      <trkpt lat="45.19958" lon="5.99421">
        <ele>2325</ele>
        <time>2024-06-05T22:39:50+00:00</time>
      </trkpt>
      <trkpt lat="45.19959" lon="5.99425">
        <ele>2325</ele>
        <time>2024-06-05T22:39:53+00:00</time>
      </trkpt>
      <trkpt lat="45.19961" lon="5.99431">
        <ele>2329</ele>
        <time>2024-06-05T22:39:56+00:00</time>
      </trkpt>
      <trkpt lat="45.19961" lon="5.99436">
        <ele>2329</ele>
        <time>2024-06-05T22:39:59+00:00</time>
      </trkpt>
      <trkpt lat="45.1996" lon="5.99437">
        <ele>2333</ele>
        <time>2024-06-05T22:40:02+00:00</time>
      </trkpt>
      <trkpt lat="45.19958" lon="5.99441">
        <ele>2338</ele>
        <time>2024-06-05T22:40:05+00:00</time>
      </trkpt>
      <trkpt lat="45.19957" lon="5.9945">
        <ele>2342</ele>
        <time>2024-06-05T22:40:08+00:00</time>
      </trkpt>
      <trkpt lat="45.19957" lon="5.99455">
        <ele>2342</ele>
        <time>2024-06-05T22:40:11+00:00</time>
      </trkpt>
      <trkpt lat="45.19958" lon="5.99456">
        <ele>2342</ele>
        <time>2024-06-05T22:40:14+00:00</time>
      </trkpt>
      <trkpt lat="45.1996" lon="5.99457">
        <ele>2342</ele>
        <time>2024-06-05T22:40:17+00:00</time>
      </trkpt>
      <trkpt lat="45.19961" lon="5.99458">
        <ele>2340</ele>
        <time>2024-06-05T22:40:20+00:00</time>
      </trkpt>
      <trkpt lat="45.19963" lon="5.99463">
        <ele>2347</ele>
        <time>2024-06-05T22:40:23+00:00</time>
      </trkpt>
      <trkpt lat="45.19963" lon="5.99465">
        <ele>2347</ele>
        <time>2024-06-05T22:40:26+00:00</time>
      </trkpt>
      <trkpt lat="45.19963" lon="5.99466">
        <ele>2347</ele>
        <time>2024-06-05T22:40:29+00:00</time>
      </trkpt>
      <trkpt lat="45.19965" lon="5.99467">
        <ele>2347</ele>
        <time>2024-06-05T22:40:32+00:00</time>
      </trkpt>
      <trkpt lat="45.19965" lon="5.99469">
        <ele>2347</ele>
        <time>2024-06-05T22:40:35+00:00</time>
      </trkpt>
      <trkpt lat="45.19965" lon="5.99475">
        <ele>2352</ele>
        <time>2024-06-05T22:40:38+00:00</time>
      </trkpt>
      <trkpt lat="45.19965" lon="5.99481">
        <ele>2356</ele>
        <time>2024-06-05T22:40:41+00:00</time>
      </trkpt>
      <trkpt lat="45.19966" lon="5.99483">
        <ele>2356</ele>
        <time>2024-06-05T22:40:44+00:00</time>
      </trkpt>
      <trkpt lat="45.19965" lon="5.99487">
        <ele>2356</ele>
        <time>2024-06-05T22:40:47+00:00</time>
      </trkpt>
      <trkpt lat="45.19966" lon="5.99488">
        <ele>2356</ele>
        <time>2024-06-05T22:40:50+00:00</time>
      </trkpt>
      <trkpt lat="45.19966" lon="5.99491">
        <ele>2361</ele>
        <time>2024-06-05T22:40:53+00:00</time>
      </trkpt>
      <trkpt lat="45.19968" lon="5.99493">
        <ele>2361</ele>
        <time>2024-06-05T22:40:56+00:00</time>
      </trkpt>
      <trkpt lat="45.19971" lon="5.99494">
        <ele>2364</ele>
        <time>2024-06-05T22:40:59+00:00</time>
      </trkpt>
      <trkpt lat="45.19973" lon="5.99495">
        <ele>2364</ele>
        <time>2024-06-05T22:41:02+00:00</time>
      </trkpt>
      <trkpt lat="45.19974" lon="5.99495">
        <ele>2364</ele>
        <time>2024-06-05T22:41:05+00:00</time>
      </trkpt>
      <trkpt lat="45.19975" lon="5.99497">
        <ele>2364</ele>
        <time>2024-06-05T22:41:08+00:00</time>
      </trkpt>
      <trkpt lat="45.19975" lon="5.99502">
        <ele>2368</ele>
        <time>2024-06-05T22:41:11+00:00</time>
      </trkpt>
      <trkpt lat="45.19975" lon="5.99506">
        <ele>2368</ele>
        <time>2024-06-05T22:41:14+00:00</time>
      </trkpt>
      <trkpt lat="45.19974" lon="5.99512">
        <ele>2371</ele>
        <time>2024-06-05T22:41:17+00:00</time>
      </trkpt>
      <trkpt lat="45.19974" lon="5.99514">
        <ele>2371</ele>
        <time>2024-06-05T22:41:20+00:00</time>
      </trkpt>
      <trkpt lat="45.19974" lon="5.99515">
        <ele>2371</ele>
        <time>2024-06-05T22:41:23+00:00</time>
      </trkpt>
      <trkpt lat="45.19975" lon="5.99515">
        <ele>2371</ele>
        <time>2024-06-05T22:41:26+00:00</time>
      </trkpt>
      <trkpt lat="45.19977" lon="5.99522">
        <ele>2374</ele>
        <time>2024-06-05T22:41:29+00:00</time>
      </trkpt>
      <trkpt lat="45.19978" lon="5.99525">
        <ele>2374</ele>
        <time>2024-06-05T22:41:32+00:00</time>
      </trkpt>
      <trkpt lat="45.1998" lon="5.99528">
        <ele>2379</ele>
        <time>2024-06-05T22:41:35+00:00</time>
      </trkpt>
      <trkpt lat="45.19982" lon="5.99531">
        <ele>2381</ele>
        <time>2024-06-05T22:41:38+00:00</time>
      </trkpt>
      <trkpt lat="45.19985" lon="5.99539">
        <ele>2381</ele>
        <time>2024-06-05T22:41:41+00:00</time>
      </trkpt>
      <trkpt lat="45.19986" lon="5.99539">
        <ele>2381</ele>
        <time>2024-06-05T22:41:44+00:00</time>
      </trkpt>
      <trkpt lat="45.19988" lon="5.99546">
        <ele>2381</ele>
        <time>2024-06-05T22:41:47+00:00</time>
      </trkpt>
      <trkpt lat="45.1999" lon="5.99548">
        <ele>2381</ele>
        <time>2024-06-05T22:41:50+00:00</time>
      </trkpt>
      <trkpt lat="45.1999" lon="5.99552">
        <ele>2380</ele>
        <time>2024-06-05T22:41:53+00:00</time>
      </trkpt>
      <trkpt lat="45.1999" lon="5.99554">
        <ele>2387</ele>
        <time>2024-06-05T22:41:56+00:00</time>
      </trkpt>
      <trkpt lat="45.19991" lon="5.99555">
        <ele>2387</ele>
        <time>2024-06-05T22:41:59+00:00</time>
      </trkpt>
      <trkpt lat="45.19992" lon="5.99557">
        <ele>2387</ele>
        <time>2024-06-05T22:42:02+00:00</time>
      </trkpt>
      <trkpt lat="45.19994" lon="5.99558">
        <ele>2387</ele>
        <time>2024-06-05T22:42:05+00:00</time>
      </trkpt>
      <trkpt lat="45.19995" lon="5.99561">
        <ele>2386</ele>
        <time>2024-06-05T22:42:08+00:00</time>
      </trkpt>
      <trkpt lat="45.19997" lon="5.99566">
        <ele>2386</ele>
        <time>2024-06-05T22:42:11+00:00</time>
      </trkpt>
      <trkpt lat="45.19999" lon="5.99568">
        <ele>2386</ele>
        <time>2024-06-05T22:42:14+00:00</time>
      </trkpt>
      <trkpt lat="45.20003" lon="5.99568">
        <ele>2392</ele>
        <time>2024-06-05T22:42:17+00:00</time>
      </trkpt>
      <trkpt lat="45.20004" lon="5.99572">
        <ele>2390</ele>
        <time>2024-06-05T22:42:20+00:00</time>
      </trkpt>
      <trkpt lat="45.20008" lon="5.99572">
        <ele>2390</ele>
        <time>2024-06-05T22:42:23+00:00</time>
      </trkpt>
      <trkpt lat="45.20011" lon="5.99576">
        <ele>2396</ele>
        <time>2024-06-05T22:42:26+00:00</time>
      </trkpt>
      <trkpt lat="45.20011" lon="5.99577">
        <ele>2396</ele>
        <time>2024-06-05T22:42:29+00:00</time>
      </trkpt>
      <trkpt lat="45.20013" lon="5.99577">
        <ele>2396</ele>
        <time>2024-06-05T22:42:32+00:00</time>
      </trkpt>
      <trkpt lat="45.20014" lon="5.99578">
        <ele>2396</ele>
        <time>2024-06-05T22:42:35+00:00</time>
      </trkpt>
      <trkpt lat="45.20015" lon="5.99579">
        <ele>2396</ele>
        <time>2024-06-05T22:42:38+00:00</time>
      </trkpt>
      <trkpt lat="45.20015" lon="5.9958">
        <ele>2396</ele>
        <time>2024-06-05T22:42:41+00:00</time>
      </trkpt>
      <trkpt lat="45.20017" lon="5.99582">
        <ele>2394</ele>
        <time>2024-06-05T22:42:44+00:00</time>
      </trkpt>
      <trkpt lat="45.20018" lon="5.99584">
        <ele>2394</ele>
        <time>2024-06-05T22:42:47+00:00</time>
      </trkpt>
      <trkpt lat="45.20019" lon="5.99585">
        <ele>2394</ele>
        <time>2024-06-05T22:42:50+00:00</time>
      </trkpt>
      <trkpt lat="45.2002" lon="5.99583">
        <ele>2394</ele>
        <time>2024-06-05T22:42:53+00:00</time>
      </trkpt>
      <trkpt lat="45.20021" lon="5.99582">
        <ele>2402</ele>
        <time>2024-06-05T22:42:56+00:00</time>
      </trkpt>
      <trkpt lat="45.20023" lon="5.99587">
        <ele>2402</ele>
        <time>2024-06-05T22:42:59+00:00</time>
      </trkpt>
      <trkpt lat="45.20024" lon="5.9959">
        <ele>2402</ele>
        <time>2024-06-05T22:43:02+00:00</time>
      </trkpt>
      <trkpt lat="45.20025" lon="5.9959">
        <ele>2402</ele>
        <time>2024-06-05T22:43:05+00:00</time>
      </trkpt>
      <trkpt lat="45.20027" lon="5.99587">
        <ele>2402</ele>
        <time>2024-06-05T22:43:08+00:00</time>
      </trkpt>
      <trkpt lat="45.20029" lon="5.99584">
        <ele>2402</ele>
        <time>2024-06-05T22:43:11+00:00</time>
      </trkpt>
      <trkpt lat="45.2003" lon="5.99586">
        <ele>2412</ele>
        <time>2024-06-05T22:43:14+00:00</time>
      </trkpt>
      <trkpt lat="45.20031" lon="5.99588">
        <ele>2412</ele>
        <time>2024-06-05T22:43:17+00:00</time>
      </trkpt>
      <trkpt lat="45.20031" lon="5.9959">
        <ele>2412</ele>
        <time>2024-06-05T22:43:20+00:00</time>
      </trkpt>
      <trkpt lat="45.20031" lon="5.99594">
        <ele>2411</ele>
        <time>2024-06-05T22:43:23+00:00</time>
      </trkpt>
      <trkpt lat="45.20032" lon="5.99596">
        <ele>2411</ele>
        <time>2024-06-05T22:43:26+00:00</time>
      </trkpt>
      <trkpt lat="45.20037" lon="5.99601">
        <ele>2410</ele>
        <time>2024-06-05T22:43:29+00:00</time>
      </trkpt>
      <trkpt lat="45.20039" lon="5.996">
        <ele>2410</ele>
        <time>2024-06-05T22:43:32+00:00</time>
      </trkpt>
      <trkpt lat="45.20041" lon="5.99603">
        <ele>2414</ele>
        <time>2024-06-05T22:43:35+00:00</time>
      </trkpt>
      <trkpt lat="45.20042" lon="5.99609">
        <ele>2414</ele>
        <time>2024-06-05T22:43:38+00:00</time>
      </trkpt>
      <trkpt lat="45.20046" lon="5.99619">
        <ele>2412</ele>
        <time>2024-06-05T22:43:41+00:00</time>
      </trkpt>
      <trkpt lat="45.20049" lon="5.99623">
        <ele>2411</ele>
        <time>2024-06-05T22:43:44+00:00</time>
      </trkpt>
      <trkpt lat="45.20053" lon="5.99628">
        <ele>2414</ele>
        <time>2024-06-05T22:43:47+00:00</time>
      </trkpt>
      <trkpt lat="45.20054" lon="5.99634">
        <ele>2413</ele>
        <time>2024-06-05T22:43:50+00:00</time>
      </trkpt>
      <trkpt lat="45.20054" lon="5.99636">
        <ele>2413</ele>
        <time>2024-06-05T22:43:53+00:00</time>
      </trkpt>
      <trkpt lat="45.20055" lon="5.99641">
        <ele>2414</ele>
        <time>2024-06-05T22:43:56+00:00</time>
      </trkpt>
      <trkpt lat="45.20057" lon="5.99644">
        <ele>2414</ele>
        <time>2024-06-05T22:43:59+00:00</time>
      </trkpt>
      <trkpt lat="45.20058" lon="5.99648">
        <ele>2414</ele>
        <time>2024-06-05T22:44:02+00:00</time>
      </trkpt>
      <trkpt lat="45.20057" lon="5.99654">
        <ele>2416</ele>
        <time>2024-06-05T22:44:05+00:00</time>
      </trkpt>
      <trkpt lat="45.20058" lon="5.99656">
        <ele>2416</ele>
        <time>2024-06-05T22:44:08+00:00</time>
      </trkpt>
      <trkpt lat="45.2006" lon="5.99656">
        <ele>2416</ele>
        <time>2024-06-05T22:44:11+00:00</time>
      </trkpt>
      <trkpt lat="45.20059" lon="5.99659">
        <ele>2416</ele>
        <time>2024-06-05T22:44:14+00:00</time>
      </trkpt>
      <trkpt lat="45.20067" lon="5.99681">
        <ele>2420</ele>
        <time>2024-06-05T22:44:17+00:00</time>
      </trkpt>
      <trkpt lat="45.20068" lon="5.99685">
        <ele>2420</ele>
        <time>2024-06-05T22:44:20+00:00</time>
      </trkpt>
      <trkpt lat="45.20068" lon="5.99686">
        <ele>2420</ele>
        <time>2024-06-05T22:44:23+00:00</time>
      </trkpt>
      <trkpt lat="45.2007" lon="5.99687">
        <ele>2420</ele>
        <time>2024-06-05T22:44:26+00:00</time>
      </trkpt>
      <trkpt lat="45.20071" lon="5.9969">
        <ele>2426</ele>
        <time>2024-06-05T22:44:29+00:00</time>
      </trkpt>
      <trkpt lat="45.2007" lon="5.99691">
        <ele>2425</ele>
        <time>2024-06-05T22:44:32+00:00</time>
      </trkpt>
      <trkpt lat="45.20069" lon="5.99692">
        <ele>2419</ele>
        <time>2024-06-05T22:44:35+00:00</time>
      </trkpt>
      <trkpt lat="45.20071" lon="5.99698">
        <ele>2425</ele>
        <time>2024-06-05T22:44:38+00:00</time>
      </trkpt>
      <trkpt lat="45.20073" lon="5.99703">
        <ele>2423</ele>
        <time>2024-06-05T22:44:41+00:00</time>
      </trkpt>
      <trkpt lat="45.20073" lon="5.99704">
        <ele>2423</ele>
        <time>2024-06-05T22:44:44+00:00</time>
      </trkpt>
      <trkpt lat="45.20073" lon="5.99706">
        <ele>2423</ele>
        <time>2024-06-05T22:44:47+00:00</time>
      </trkpt>
      <trkpt lat="45.20075" lon="5.99708">
        <ele>2423</ele>
        <time>2024-06-05T22:44:50+00:00</time>
      </trkpt>
      <trkpt lat="45.20078" lon="5.99714">
        <ele>2423</ele>
        <time>2024-06-05T22:44:53+00:00</time>
      </trkpt>
      <trkpt lat="45.20081" lon="5.9972">
        <ele>2429</ele>
        <time>2024-06-05T22:44:56+00:00</time>
      </trkpt>
      <trkpt lat="45.20082" lon="5.99725">
        <ele>2429</ele>
        <time>2024-06-05T22:44:59+00:00</time>
      </trkpt>
      <trkpt lat="45.20083" lon="5.99731">
        <ele>2429</ele>
        <time>2024-06-05T22:45:02+00:00</time>
      </trkpt>
      <trkpt lat="45.20083" lon="5.99734">
        <ele>2429</ele>
        <time>2024-06-05T22:45:05+00:00</time>
      </trkpt>
      <trkpt lat="45.20085" lon="5.99737">
        <ele>2429</ele>
        <time>2024-06-05T22:45:08+00:00</time>
      </trkpt>
      <trkpt lat="45.20086" lon="5.99739">
        <ele>2429</ele>
        <time>2024-06-05T22:45:11+00:00</time>
      </trkpt>
      <trkpt lat="45.20087" lon="5.9974">
        <ele>2429</ele>
        <time>2024-06-05T22:45:14+00:00</time>
      </trkpt>
      <trkpt lat="45.20088" lon="5.99743">
        <ele>2430</ele>
        <time>2024-06-05T22:45:17+00:00</time>
      </trkpt>
      <trkpt lat="45.2009" lon="5.99746">
        <ele>2436</ele>
        <time>2024-06-05T22:45:20+00:00</time>
      </trkpt>
      <trkpt lat="45.20096" lon="5.99758">
        <ele>2436</ele>
        <time>2024-06-05T22:45:23+00:00</time>
      </trkpt>
      <trkpt lat="45.201" lon="5.99758">
        <ele>2436</ele>
        <time>2024-06-05T22:45:26+00:00</time>
      </trkpt>
      <trkpt lat="45.20102" lon="5.99761">
        <ele>2439</ele>
        <time>2024-06-05T22:45:29+00:00</time>
      </trkpt>
      <trkpt lat="45.20108" lon="5.99763">
        <ele>2439</ele>
        <time>2024-06-05T22:45:32+00:00</time>
      </trkpt>
      <trkpt lat="45.20109" lon="5.99765">
        <ele>2439</ele>
        <time>2024-06-05T22:45:35+00:00</time>
      </trkpt>
      <trkpt lat="45.2011" lon="5.99769">
        <ele>2443</ele>
        <time>2024-06-05T22:45:38+00:00</time>
      </trkpt>
      <trkpt lat="45.20111" lon="5.99769">
        <ele>2443</ele>
        <time>2024-06-05T22:45:41+00:00</time>
      </trkpt>
      <trkpt lat="45.20115" lon="5.99771">
        <ele>2443</ele>
        <time>2024-06-05T22:45:44+00:00</time>
      </trkpt>
      <trkpt lat="45.20118" lon="5.99778">
        <ele>2443</ele>
        <time>2024-06-05T22:45:47+00:00</time>
      </trkpt>
      <trkpt lat="45.20118" lon="5.9978">
        <ele>2443</ele>
        <time>2024-06-05T22:45:50+00:00</time>
      </trkpt>
      <trkpt lat="45.20122" lon="5.99788">
        <ele>2448</ele>
        <time>2024-06-05T22:45:53+00:00</time>
      </trkpt>
      <trkpt lat="45.20124" lon="5.99795">
        <ele>2447</ele>
        <time>2024-06-05T22:45:56+00:00</time>
      </trkpt>
      <trkpt lat="45.20125" lon="5.99801">
        <ele>2449</ele>
        <time>2024-06-05T22:45:59+00:00</time>
      </trkpt>
      <trkpt lat="45.20128" lon="5.99809">
        <ele>2449</ele>
        <time>2024-06-05T22:46:02+00:00</time>
      </trkpt>
      <trkpt lat="45.2013" lon="5.99818">
        <ele>2455</ele>
        <time>2024-06-05T22:46:05+00:00</time>
      </trkpt>
      <trkpt lat="45.2013" lon="5.99818">
        <ele>2455</ele>
        <time>2024-06-05T22:46:08+00:00</time>
      </trkpt>
      <trkpt lat="45.2013" lon="5.99818">
        <ele>2455</ele>
        <time>2024-06-05T22:46:11+00:00</time>
      </trkpt>
      <trkpt lat="45.20131" lon="5.99823">
        <ele>2457</ele>
        <time>2024-06-05T22:46:14+00:00</time>
      </trkpt>
      <trkpt lat="45.20127" lon="5.99838">
        <ele>2455</ele>
        <time>2024-06-05T22:46:17+00:00</time>
      </trkpt>
      <trkpt lat="45.20127" lon="5.99854">
        <ele>2460</ele>
        <time>2024-06-05T22:46:20+00:00</time>
      </trkpt>
      <trkpt lat="45.20127" lon="5.99856">
        <ele>2460</ele>
        <time>2024-06-05T22:46:23+00:00</time>
      </trkpt>
      <trkpt lat="45.20128" lon="5.99862">
        <ele>2462</ele>
        <time>2024-06-05T22:46:26+00:00</time>
      </trkpt>
      <trkpt lat="45.2013" lon="5.99865">
        <ele>2462</ele>
        <time>2024-06-05T22:46:29+00:00</time>
      </trkpt>
      <trkpt lat="45.20133" lon="5.99868">
        <ele>2463</ele>
        <time>2024-06-05T22:46:32+00:00</time>
      </trkpt>
      <trkpt lat="45.20136" lon="5.99873">
        <ele>2464</ele>
        <time>2024-06-05T22:46:35+00:00</time>
      </trkpt>
      <trkpt lat="45.20134" lon="5.9988">
        <ele>2469</ele>
        <time>2024-06-05T22:46:38+00:00</time>
      </trkpt>
      <trkpt lat="45.20134" lon="5.99887">
        <ele>2469</ele>
        <time>2024-06-05T22:46:41+00:00</time>
      </trkpt>
      <trkpt lat="45.20136" lon="5.99895">
        <ele>2472</ele>
        <time>2024-06-05T22:46:44+00:00</time>
      </trkpt>
      <trkpt lat="45.20136" lon="5.99901">
        <ele>2475</ele>
        <time>2024-06-05T22:46:47+00:00</time>
      </trkpt>
      <trkpt lat="45.20136" lon="5.99904">
        <ele>2475</ele>
        <time>2024-06-05T22:46:50+00:00</time>
      </trkpt>
      <trkpt lat="45.20137" lon="5.99914">
        <ele>2478</ele>
        <time>2024-06-05T22:46:53+00:00</time>
      </trkpt>
      <trkpt lat="45.20137" lon="5.9993">
        <ele>2479</ele>
        <time>2024-06-05T22:46:56+00:00</time>
      </trkpt>
      <trkpt lat="45.20137" lon="5.99935">
        <ele>2479</ele>
        <time>2024-06-05T22:46:59+00:00</time>
      </trkpt>
      <trkpt lat="45.20138" lon="5.99939">
        <ele>2479</ele>
        <time>2024-06-05T22:47:02+00:00</time>
      </trkpt>
      <trkpt lat="45.2014" lon="5.99941">
        <ele>2478</ele>
        <time>2024-06-05T22:47:05+00:00</time>
      </trkpt>
      <trkpt lat="45.20142" lon="5.9995">
        <ele>2476</ele>
        <time>2024-06-05T22:47:08+00:00</time>
      </trkpt>
      <trkpt lat="45.20141" lon="5.99956">
        <ele>2476</ele>
        <time>2024-06-05T22:47:11+00:00</time>
      </trkpt>
      <trkpt lat="45.20142" lon="5.99957">
        <ele>2476</ele>
        <time>2024-06-05T22:47:14+00:00</time>
      </trkpt>
      <trkpt lat="45.20142" lon="5.99961">
        <ele>2474</ele>
        <time>2024-06-05T22:47:17+00:00</time>
      </trkpt>
      <trkpt lat="45.20144" lon="5.99969">
        <ele>2474</ele>
        <time>2024-06-05T22:47:20+00:00</time>
      </trkpt>
      <trkpt lat="45.20144" lon="5.99971">
        <ele>2472</ele>
        <time>2024-06-05T22:47:23+00:00</time>
      </trkpt>
      <trkpt lat="45.20146" lon="5.99974">
        <ele>2472</ele>
        <time>2024-06-05T22:47:26+00:00</time>
      </trkpt>
      <trkpt lat="45.20146" lon="5.99978">
        <ele>2472</ele>
        <time>2024-06-05T22:47:29+00:00</time>
      </trkpt>
      <trkpt lat="45.20145" lon="5.99979">
        <ele>2472</ele>
        <time>2024-06-05T22:47:32+00:00</time>
      </trkpt>
      <trkpt lat="45.20146" lon="5.99982">
        <ele>2471</ele>
        <time>2024-06-05T22:47:35+00:00</time>
      </trkpt>
      <trkpt lat="45.20147" lon="5.99984">
        <ele>2471</ele>
        <time>2024-06-05T22:47:38+00:00</time>
      </trkpt>
      <trkpt lat="45.20147" lon="5.99985">
        <ele>2471</ele>
        <time>2024-06-05T22:47:41+00:00</time>
      </trkpt>
      <trkpt lat="45.20153" lon="5.99997">
        <ele>2467</ele>
        <time>2024-06-05T22:47:44+00:00</time>
      </trkpt>
      <trkpt lat="45.20156" lon="6.00001">
        <ele>2463</ele>
        <time>2024-06-05T22:47:47+00:00</time>
      </trkpt>
      <trkpt lat="45.20161" lon="6.00008">
        <ele>2465</ele>
        <time>2024-06-05T22:47:50+00:00</time>
      </trkpt>
      <trkpt lat="45.20162" lon="6.00011">
        <ele>2461</ele>
        <time>2024-06-05T22:47:53+00:00</time>
      </trkpt>
      <trkpt lat="45.20162" lon="6.00012">
        <ele>2461</ele>
        <time>2024-06-05T22:47:56+00:00</time>
      </trkpt>
      <trkpt lat="45.20163" lon="6.00015">
        <ele>2461</ele>
        <time>2024-06-05T22:47:59+00:00</time>
      </trkpt>
      <trkpt lat="45.20165" lon="6.00018">
        <ele>2461</ele>
        <time>2024-06-05T22:48:02+00:00</time>
      </trkpt>
      <trkpt lat="45.20166" lon="6.00021">
        <ele>2457</ele>
        <time>2024-06-05T22:48:05+00:00</time>
      </trkpt>
      <trkpt lat="45.20169" lon="6.00027">
        <ele>2457</ele>
        <time>2024-06-05T22:48:08+00:00</time>
      </trkpt>
      <trkpt lat="45.20169" lon="6.00026">
        <ele>2457</ele>
        <time>2024-06-05T22:48:11+00:00</time>
      </trkpt>
      <trkpt lat="45.20172" lon="6.00033">
        <ele>2451</ele>
        <time>2024-06-05T22:48:14+00:00</time>
      </trkpt>
      <trkpt lat="45.20167" lon="6.00037">
        <ele>2450</ele>
        <time>2024-06-05T22:48:17+00:00</time>
      </trkpt>
      <trkpt lat="45.20171" lon="6.00043">
        <ele>2447</ele>
        <time>2024-06-05T22:48:20+00:00</time>
      </trkpt>
      <trkpt lat="45.20173" lon="6.00047">
        <ele>2447</ele>
        <time>2024-06-05T22:48:23+00:00</time>
      </trkpt>
      <trkpt lat="45.20176" lon="6.00048">
        <ele>2447</ele>
        <time>2024-06-05T22:48:26+00:00</time>
      </trkpt>
      <trkpt lat="45.20178" lon="6.0005">
        <ele>2447</ele>
        <time>2024-06-05T22:48:29+00:00</time>
      </trkpt>
      <trkpt lat="45.20177" lon="6.00052">
        <ele>2442</ele>
        <time>2024-06-05T22:48:32+00:00</time>
      </trkpt>
      <trkpt lat="45.20174" lon="6.00053">
        <ele>2442</ele>
        <time>2024-06-05T22:48:35+00:00</time>
      </trkpt>
      <trkpt lat="45.20173" lon="6.00054">
        <ele>2442</ele>
        <time>2024-06-05T22:48:38+00:00</time>
      </trkpt>
      <trkpt lat="45.20174" lon="6.00056">
        <ele>2442</ele>
        <time>2024-06-05T22:48:41+00:00</time>
      </trkpt>
      <trkpt lat="45.20177" lon="6.00058">
        <ele>2442</ele>
        <time>2024-06-05T22:48:44+00:00</time>
      </trkpt>
      <trkpt lat="45.20177" lon="6.0006">
        <ele>2438</ele>
        <time>2024-06-05T22:48:47+00:00</time>
      </trkpt>
      <trkpt lat="45.20175" lon="6.00064">
        <ele>2438</ele>
        <time>2024-06-05T22:48:50+00:00</time>
      </trkpt>
      <trkpt lat="45.20175" lon="6.00065">
        <ele>2438</ele>
        <time>2024-06-05T22:48:53+00:00</time>
      </trkpt>
      <trkpt lat="45.2018" lon="6.00068">
        <ele>2439</ele>
        <time>2024-06-05T22:48:56+00:00</time>
      </trkpt>
      <trkpt lat="45.20182" lon="6.00071">
        <ele>2436</ele>
        <time>2024-06-05T22:48:59+00:00</time>
      </trkpt>
      <trkpt lat="45.20182" lon="6.00074">
        <ele>2436</ele>
        <time>2024-06-05T22:49:02+00:00</time>
      </trkpt>
      <trkpt lat="45.20182" lon="6.00077">
        <ele>2436</ele>
        <time>2024-06-05T22:49:05+00:00</time>
      </trkpt>
      <trkpt lat="45.2018" lon="6.00078">
        <ele>2436</ele>
        <time>2024-06-05T22:49:08+00:00</time>
      </trkpt>
      <trkpt lat="45.20179" lon="6.00081">
        <ele>2435</ele>
        <time>2024-06-05T22:49:11+00:00</time>
      </trkpt>
      <trkpt lat="45.20183" lon="6.00085">
        <ele>2434</ele>
        <time>2024-06-05T22:49:14+00:00</time>
      </trkpt>
      <trkpt lat="45.20182" lon="6.00088">
        <ele>2434</ele>
        <time>2024-06-05T22:49:17+00:00</time>
      </trkpt>
      <trkpt lat="45.2018" lon="6.00089">
        <ele>2434</ele>
        <time>2024-06-05T22:49:20+00:00</time>
      </trkpt>
      <trkpt lat="45.20181" lon="6.00091">
        <ele>2431</ele>
        <time>2024-06-05T22:49:23+00:00</time>
      </trkpt>
      <trkpt lat="45.20188" lon="6.00095">
        <ele>2431</ele>
        <time>2024-06-05T22:49:26+00:00</time>
      </trkpt>
      <trkpt lat="45.20189" lon="6.00096">
        <ele>2431</ele>
        <time>2024-06-05T22:49:29+00:00</time>
      </trkpt>
      <trkpt lat="45.20192" lon="6.00097">
        <ele>2428</ele>
        <time>2024-06-05T22:49:32+00:00</time>
      </trkpt>
      <trkpt lat="45.20195" lon="6.001">
        <ele>2425</ele>
        <time>2024-06-05T22:49:35+00:00</time>
      </trkpt>
      <trkpt lat="45.20199" lon="6.00103">
        <ele>2425</ele>
        <time>2024-06-05T22:49:38+00:00</time>
      </trkpt>
      <trkpt lat="45.202" lon="6.0011">
        <ele>2424</ele>
        <time>2024-06-05T22:49:41+00:00</time>
      </trkpt>
      <trkpt lat="45.202" lon="6.00114">
        <ele>2424</ele>
        <time>2024-06-05T22:49:44+00:00</time>
      </trkpt>
      <trkpt lat="45.20201" lon="6.00119">
        <ele>2421</ele>
        <time>2024-06-05T22:49:47+00:00</time>
      </trkpt>
      <trkpt lat="45.20197" lon="6.0012">
        <ele>2424</ele>
        <time>2024-06-05T22:49:50+00:00</time>
      </trkpt>
      <trkpt lat="45.20194" lon="6.0012">
        <ele>2424</ele>
        <time>2024-06-05T22:49:53+00:00</time>
      </trkpt>
      <trkpt lat="45.20193" lon="6.00123">
        <ele>2421</ele>
        <time>2024-06-05T22:49:56+00:00</time>
      </trkpt>
      <trkpt lat="45.20194" lon="6.00125">
        <ele>2421</ele>
        <time>2024-06-05T22:49:59+00:00</time>
      </trkpt>
      <trkpt lat="45.20195" lon="6.00129">
        <ele>2421</ele>
        <time>2024-06-05T22:50:02+00:00</time>
      </trkpt>
      <trkpt lat="45.20194" lon="6.0013">
        <ele>2420</ele>
        <time>2024-06-05T22:50:05+00:00</time>
      </trkpt>
      <trkpt lat="45.20195" lon="6.00131">
        <ele>2420</ele>
        <time>2024-06-05T22:50:08+00:00</time>
      </trkpt>
      <trkpt lat="45.20196" lon="6.0013">
        <ele>2420</ele>
        <time>2024-06-05T22:50:11+00:00</time>
      </trkpt>
      <trkpt lat="45.20197" lon="6.00132">
        <ele>2420</ele>
        <time>2024-06-05T22:50:14+00:00</time>
      </trkpt>
      <trkpt lat="45.20196" lon="6.00135">
        <ele>2420</ele>
        <time>2024-06-05T22:50:17+00:00</time>
      </trkpt>
      <trkpt lat="45.20199" lon="6.00134">
        <ele>2420</ele>
        <time>2024-06-05T22:50:20+00:00</time>
      </trkpt>
      <trkpt lat="45.20202" lon="6.00137">
        <ele>2416</ele>
        <time>2024-06-05T22:50:23+00:00</time>
      </trkpt>
      <trkpt lat="45.202" lon="6.00146">
        <ele>2413</ele>
        <time>2024-06-05T22:50:26+00:00</time>
      </trkpt>
      <trkpt lat="45.20201" lon="6.00149">
        <ele>2413</ele>
        <time>2024-06-05T22:50:29+00:00</time>
      </trkpt>
      <trkpt lat="45.20203" lon="6.0015">
        <ele>2413</ele>
        <time>2024-06-05T22:50:32+00:00</time>
      </trkpt>
      <trkpt lat="45.20209" lon="6.00147">
        <ele>2413</ele>
        <time>2024-06-05T22:50:35+00:00</time>
      </trkpt>
      <trkpt lat="45.2021" lon="6.00148">
        <ele>2413</ele>
        <time>2024-06-05T22:50:38+00:00</time>
      </trkpt>
      <trkpt lat="45.20209" lon="6.00152">
        <ele>2410</ele>
        <time>2024-06-05T22:50:41+00:00</time>
      </trkpt>
      <trkpt lat="45.20211" lon="6.00152">
        <ele>2401</ele>
        <time>2024-06-05T22:50:44+00:00</time>
      </trkpt>
      <trkpt lat="45.20212" lon="6.00153">
        <ele>2401</ele>
        <time>2024-06-05T22:50:47+00:00</time>
      </trkpt>
      <trkpt lat="45.20212" lon="6.00156">
        <ele>2401</ele>
        <time>2024-06-05T22:50:50+00:00</time>
      </trkpt>
      <trkpt lat="45.20217" lon="6.00154">
        <ele>2401</ele>
        <time>2024-06-05T22:50:53+00:00</time>
      </trkpt>
      <trkpt lat="45.20218" lon="6.00156">
        <ele>2401</ele>
        <time>2024-06-05T22:50:56+00:00</time>
      </trkpt>
      <trkpt lat="45.20218" lon="6.00163">
        <ele>2395</ele>
        <time>2024-06-05T22:50:59+00:00</time>
      </trkpt>
      <trkpt lat="45.20219" lon="6.00164">
        <ele>2395</ele>
        <time>2024-06-05T22:51:02+00:00</time>
      </trkpt>
      <trkpt lat="45.20222" lon="6.00162">
        <ele>2390</ele>
        <time>2024-06-05T22:51:05+00:00</time>
      </trkpt>
      <trkpt lat="45.20223" lon="6.00163">
        <ele>2390</ele>
        <time>2024-06-05T22:51:08+00:00</time>
      </trkpt>
      <trkpt lat="45.20221" lon="6.00176">
        <ele>2386</ele>
        <time>2024-06-05T22:51:11+00:00</time>
      </trkpt>
      <trkpt lat="45.20221" lon="6.00179">
        <ele>2386</ele>
        <time>2024-06-05T22:51:14+00:00</time>
      </trkpt>
      <trkpt lat="45.20221" lon="6.00182">
        <ele>2384</ele>
        <time>2024-06-05T22:51:17+00:00</time>
      </trkpt>
      <trkpt lat="45.20221" lon="6.00193">
        <ele>2382</ele>
        <time>2024-06-05T22:51:20+00:00</time>
      </trkpt>
      <trkpt lat="45.20222" lon="6.00197">
        <ele>2382</ele>
        <time>2024-06-05T22:51:23+00:00</time>
      </trkpt>
      <trkpt lat="45.20222" lon="6.00198">
        <ele>2382</ele>
        <time>2024-06-05T22:51:26+00:00</time>
      </trkpt>
      <trkpt lat="45.20226" lon="6.00197">
        <ele>2382</ele>
        <time>2024-06-05T22:51:29+00:00</time>
      </trkpt>
      <trkpt lat="45.20227" lon="6.00198">
        <ele>2382</ele>
        <time>2024-06-05T22:51:32+00:00</time>
      </trkpt>
      <trkpt lat="45.20228" lon="6.002">
        <ele>2381</ele>
        <time>2024-06-05T22:51:35+00:00</time>
      </trkpt>
      <trkpt lat="45.2023" lon="6.00201">
        <ele>2381</ele>
        <time>2024-06-05T22:51:38+00:00</time>
      </trkpt>
      <trkpt lat="45.20231" lon="6.00199">
        <ele>2378</ele>
        <time>2024-06-05T22:51:41+00:00</time>
      </trkpt>
      <trkpt lat="45.20232" lon="6.00199">
        <ele>2378</ele>
        <time>2024-06-05T22:51:44+00:00</time>
      </trkpt>
      <trkpt lat="45.20232" lon="6.002">
        <ele>2376</ele>
        <time>2024-06-05T22:51:47+00:00</time>
      </trkpt>
      <trkpt lat="45.20232" lon="6.00203">
        <ele>2376</ele>
        <time>2024-06-05T22:51:50+00:00</time>
      </trkpt>
      <trkpt lat="45.20236" lon="6.00206">
        <ele>2376</ele>
        <time>2024-06-05T22:51:53+00:00</time>
      </trkpt>
      <trkpt lat="45.20235" lon="6.0021">
        <ele>2376</ele>
        <time>2024-06-05T22:51:56+00:00</time>
      </trkpt>
      <trkpt lat="45.20236" lon="6.00211">
        <ele>2372</ele>
        <time>2024-06-05T22:51:59+00:00</time>
      </trkpt>
      <trkpt lat="45.20238" lon="6.00215">
        <ele>2372</ele>
        <time>2024-06-05T22:52:02+00:00</time>
      </trkpt>
      <trkpt lat="45.20238" lon="6.00223">
        <ele>2371</ele>
        <time>2024-06-05T22:52:05+00:00</time>
      </trkpt>
      <trkpt lat="45.20237" lon="6.00227">
        <ele>2371</ele>
        <time>2024-06-05T22:52:08+00:00</time>
      </trkpt>
      <trkpt lat="45.20237" lon="6.00233">
        <ele>2369</ele>
        <time>2024-06-05T22:52:11+00:00</time>
      </trkpt>
      <trkpt lat="45.20238" lon="6.00244">
        <ele>2366</ele>
        <time>2024-06-05T22:52:14+00:00</time>
      </trkpt>
      <trkpt lat="45.20238" lon="6.00246">
        <ele>2366</ele>
        <time>2024-06-05T22:52:17+00:00</time>
      </trkpt>
      <trkpt lat="45.20239" lon="6.00248">
        <ele>2366</ele>
        <time>2024-06-05T22:52:20+00:00</time>
      </trkpt>
      <trkpt lat="45.20239" lon="6.00251">
        <ele>2362</ele>
        <time>2024-06-05T22:52:23+00:00</time>
      </trkpt>
      <trkpt lat="45.20241" lon="6.00251">
        <ele>2354</ele>
        <time>2024-06-05T22:52:26+00:00</time>
      </trkpt>
      <trkpt lat="45.20241" lon="6.00253">
        <ele>2354</ele>
        <time>2024-06-05T22:52:29+00:00</time>
      </trkpt>
      <trkpt lat="45.2024" lon="6.00261">
        <ele>2358</ele>
        <time>2024-06-05T22:52:32+00:00</time>
      </trkpt>
      <trkpt lat="45.20243" lon="6.00266">
        <ele>2351</ele>
        <time>2024-06-05T22:52:35+00:00</time>
      </trkpt>
      <trkpt lat="45.20243" lon="6.00268">
        <ele>2351</ele>
        <time>2024-06-05T22:52:38+00:00</time>
      </trkpt>
      <trkpt lat="45.20251" lon="6.00275">
        <ele>2345</ele>
        <time>2024-06-05T22:52:41+00:00</time>
      </trkpt>
      <trkpt lat="45.20253" lon="6.00275">
        <ele>2345</ele>
        <time>2024-06-05T22:52:44+00:00</time>
      </trkpt>
      <trkpt lat="45.20255" lon="6.00278">
        <ele>2345</ele>
        <time>2024-06-05T22:52:47+00:00</time>
      </trkpt>
      <trkpt lat="45.20255" lon="6.00282">
        <ele>2344</ele>
        <time>2024-06-05T22:52:50+00:00</time>
      </trkpt>
      <trkpt lat="45.20256" lon="6.00283">
        <ele>2344</ele>
        <time>2024-06-05T22:52:53+00:00</time>
      </trkpt>
      <trkpt lat="45.20257" lon="6.00287">
        <ele>2344</ele>
        <time>2024-06-05T22:52:56+00:00</time>
      </trkpt>
      <trkpt lat="45.20258" lon="6.00296">
        <ele>2343</ele>
        <time>2024-06-05T22:52:59+00:00</time>
      </trkpt>
      <trkpt lat="45.20262" lon="6.00298">
        <ele>2341</ele>
        <time>2024-06-05T22:53:02+00:00</time>
      </trkpt>
      <trkpt lat="45.20263" lon="6.003">
        <ele>2341</ele>
        <time>2024-06-05T22:53:05+00:00</time>
      </trkpt>
      <trkpt lat="45.20264" lon="6.00304">
        <ele>2339</ele>
        <time>2024-06-05T22:53:08+00:00</time>
      </trkpt>
      <trkpt lat="45.20265" lon="6.00307">
        <ele>2339</ele>
        <time>2024-06-05T22:53:11+00:00</time>
      </trkpt>
      <trkpt lat="45.20266" lon="6.00311">
        <ele>2338</ele>
        <time>2024-06-05T22:53:14+00:00</time>
      </trkpt>
      <trkpt lat="45.20261" lon="6.00323">
        <ele>2337</ele>
        <time>2024-06-05T22:53:17+00:00</time>
      </trkpt>
      <trkpt lat="45.20259" lon="6.00327">
        <ele>2339</ele>
        <time>2024-06-05T22:53:20+00:00</time>
      </trkpt>
      <trkpt lat="45.20256" lon="6.00329">
        <ele>2339</ele>
        <time>2024-06-05T22:53:23+00:00</time>
      </trkpt>
      <trkpt lat="45.20253" lon="6.00337">
        <ele>2335</ele>
        <time>2024-06-05T22:53:26+00:00</time>
      </trkpt>
      <trkpt lat="45.20254" lon="6.0034">
        <ele>2332</ele>
        <time>2024-06-05T22:53:29+00:00</time>
      </trkpt>
      <trkpt lat="45.20256" lon="6.00345">
        <ele>2332</ele>
        <time>2024-06-05T22:53:32+00:00</time>
      </trkpt>
      <trkpt lat="45.20263" lon="6.00346">
        <ele>2330</ele>
        <time>2024-06-05T22:53:35+00:00</time>
      </trkpt>
      <trkpt lat="45.20263" lon="6.00347">
        <ele>2330</ele>
        <time>2024-06-05T22:53:38+00:00</time>
      </trkpt>
      <trkpt lat="45.2026" lon="6.00349">
        <ele>2330</ele>
        <time>2024-06-05T22:53:41+00:00</time>
      </trkpt>
      <trkpt lat="45.2026" lon="6.0035">
        <ele>2330</ele>
        <time>2024-06-05T22:53:44+00:00</time>
      </trkpt>
      <trkpt lat="45.20264" lon="6.00351">
        <ele>2328</ele>
        <time>2024-06-05T22:53:47+00:00</time>
      </trkpt>
      <trkpt lat="45.20266" lon="6.00353">
        <ele>2328</ele>
        <time>2024-06-05T22:53:50+00:00</time>
      </trkpt>
      <trkpt lat="45.20267" lon="6.00355">
        <ele>2328</ele>
        <time>2024-06-05T22:53:53+00:00</time>
      </trkpt>
      <trkpt lat="45.20267" lon="6.00358">
        <ele>2328</ele>
        <time>2024-06-05T22:53:56+00:00</time>
      </trkpt>
      <trkpt lat="45.20271" lon="6.00358">
        <ele>2323</ele>
        <time>2024-06-05T22:53:59+00:00</time>
      </trkpt>
      <trkpt lat="45.20272" lon="6.00358">
        <ele>2323</ele>
        <time>2024-06-05T22:54:02+00:00</time>
      </trkpt>
      <trkpt lat="45.2027" lon="6.00361">
        <ele>2318</ele>
        <time>2024-06-05T22:54:05+00:00</time>
      </trkpt>
      <trkpt lat="45.20274" lon="6.00362">
        <ele>2318</ele>
        <time>2024-06-05T22:54:08+00:00</time>
      </trkpt>
      <trkpt lat="45.20275" lon="6.00364">
        <ele>2318</ele>
        <time>2024-06-05T22:54:11+00:00</time>
      </trkpt>
      <trkpt lat="45.20279" lon="6.00363">
        <ele>2318</ele>
        <time>2024-06-05T22:54:14+00:00</time>
      </trkpt>
      <trkpt lat="45.2028" lon="6.00364">
        <ele>2318</ele>
        <time>2024-06-05T22:54:17+00:00</time>
      </trkpt>
      <trkpt lat="45.20279" lon="6.00378">
        <ele>2314</ele>
        <time>2024-06-05T22:54:20+00:00</time>
      </trkpt>
      <trkpt lat="45.20282" lon="6.00378">
        <ele>2309</ele>
        <time>2024-06-05T22:54:23+00:00</time>
      </trkpt>
      <trkpt lat="45.20281" lon="6.0039">
        <ele>2305</ele>
        <time>2024-06-05T22:54:26+00:00</time>
      </trkpt>
      <trkpt lat="45.20276" lon="6.00396">
        <ele>2307</ele>
        <time>2024-06-05T22:54:29+00:00</time>
      </trkpt>
      <trkpt lat="45.20276" lon="6.004">
        <ele>2306</ele>
        <time>2024-06-05T22:54:32+00:00</time>
      </trkpt>
      <trkpt lat="45.20277" lon="6.00404">
        <ele>2306</ele>
        <time>2024-06-05T22:54:35+00:00</time>
      </trkpt>
      <trkpt lat="45.20278" lon="6.00405">
        <ele>2306</ele>
        <time>2024-06-05T22:54:38+00:00</time>
      </trkpt>
      <trkpt lat="45.20279" lon="6.00405">
        <ele>2306</ele>
        <time>2024-06-05T22:54:41+00:00</time>
      </trkpt>
      <trkpt lat="45.2028" lon="6.00405">
        <ele>2302</ele>
        <time>2024-06-05T22:54:44+00:00</time>
      </trkpt>
      <trkpt lat="45.20281" lon="6.00408">
        <ele>2302</ele>
        <time>2024-06-05T22:54:47+00:00</time>
      </trkpt>
      <trkpt lat="45.20283" lon="6.00407">
        <ele>2302</ele>
        <time>2024-06-05T22:54:50+00:00</time>
      </trkpt>
      <trkpt lat="45.20285" lon="6.00411">
        <ele>2302</ele>
        <time>2024-06-05T22:54:53+00:00</time>
      </trkpt>
      <trkpt lat="45.20286" lon="6.00411">
        <ele>2302</ele>
        <time>2024-06-05T22:54:56+00:00</time>
      </trkpt>
      <trkpt lat="45.20286" lon="6.00413">
        <ele>2302</ele>
        <time>2024-06-05T22:54:59+00:00</time>
      </trkpt>
      <trkpt lat="45.20286" lon="6.00415">
        <ele>2302</ele>
        <time>2024-06-05T22:55:02+00:00</time>
      </trkpt>
      <trkpt lat="45.20289" lon="6.00416">
        <ele>2302</ele>
        <time>2024-06-05T22:55:05+00:00</time>
      </trkpt>
      <trkpt lat="45.20288" lon="6.00424">
        <ele>2301</ele>
        <time>2024-06-05T22:55:08+00:00</time>
      </trkpt>
      <trkpt lat="45.20293" lon="6.00432">
        <ele>2294</ele>
        <time>2024-06-05T22:55:11+00:00</time>
      </trkpt>
      <trkpt lat="45.20294" lon="6.00436">
        <ele>2294</ele>
        <time>2024-06-05T22:55:14+00:00</time>
      </trkpt>
      <trkpt lat="45.20295" lon="6.00437">
        <ele>2294</ele>
        <time>2024-06-05T22:55:17+00:00</time>
      </trkpt>
      <trkpt lat="45.20296" lon="6.00443">
        <ele>2294</ele>
        <time>2024-06-05T22:55:20+00:00</time>
      </trkpt>
      <trkpt lat="45.20298" lon="6.00446">
        <ele>2294</ele>
        <time>2024-06-05T22:55:23+00:00</time>
      </trkpt>
      <trkpt lat="45.20297" lon="6.00451">
        <ele>2292</ele>
        <time>2024-06-05T22:55:26+00:00</time>
      </trkpt>
      <trkpt lat="45.20299" lon="6.00459">
        <ele>2292</ele>
        <time>2024-06-05T22:55:29+00:00</time>
      </trkpt>
      <trkpt lat="45.20299" lon="6.00462">
        <ele>2286</ele>
        <time>2024-06-05T22:55:32+00:00</time>
      </trkpt>
      <trkpt lat="45.203" lon="6.00462">
        <ele>2283</ele>
        <time>2024-06-05T22:55:35+00:00</time>
      </trkpt>
      <trkpt lat="45.203" lon="6.00467">
        <ele>2286</ele>
        <time>2024-06-05T22:55:38+00:00</time>
      </trkpt>
      <trkpt lat="45.20297" lon="6.00476">
        <ele>2284</ele>
        <time>2024-06-05T22:55:41+00:00</time>
      </trkpt>
      <trkpt lat="45.20297" lon="6.00481">
        <ele>2284</ele>
        <time>2024-06-05T22:55:44+00:00</time>
      </trkpt>
      <trkpt lat="45.20296" lon="6.00483">
        <ele>2284</ele>
        <time>2024-06-05T22:55:47+00:00</time>
      </trkpt>
      <trkpt lat="45.20295" lon="6.00488">
        <ele>2284</ele>
        <time>2024-06-05T22:55:50+00:00</time>
      </trkpt>
      <trkpt lat="45.20291" lon="6.00494">
        <ele>2279</ele>
        <time>2024-06-05T22:55:53+00:00</time>
      </trkpt>
      <trkpt lat="45.20289" lon="6.00498">
        <ele>2285</ele>
        <time>2024-06-05T22:55:56+00:00</time>
      </trkpt>
      <trkpt lat="45.2029" lon="6.005">
        <ele>2279</ele>
        <time>2024-06-05T22:55:59+00:00</time>
      </trkpt>
      <trkpt lat="45.20289" lon="6.00502">
        <ele>2280</ele>
        <time>2024-06-05T22:56:02+00:00</time>
      </trkpt>
      <trkpt lat="45.20288" lon="6.00505">
        <ele>2280</ele>
        <time>2024-06-05T22:56:05+00:00</time>
      </trkpt>
      <trkpt lat="45.20289" lon="6.00508">
        <ele>2280</ele>
        <time>2024-06-05T22:56:08+00:00</time>
      </trkpt>
      <trkpt lat="45.20288" lon="6.00512">
        <ele>2276</ele>
        <time>2024-06-05T22:56:11+00:00</time>
      </trkpt>
      <trkpt lat="45.20284" lon="6.00515">
        <ele>2276</ele>
        <time>2024-06-05T22:56:14+00:00</time>
      </trkpt>
      <trkpt lat="45.20283" lon="6.00519">
        <ele>2276</ele>
        <time>2024-06-05T22:56:17+00:00</time>
      </trkpt>
      <trkpt lat="45.20281" lon="6.00529">
        <ele>2268</ele>
        <time>2024-06-05T22:56:20+00:00</time>
      </trkpt>
      <trkpt lat="45.2028" lon="6.00532">
        <ele>2266</ele>
        <time>2024-06-05T22:56:23+00:00</time>
      </trkpt>
      <trkpt lat="45.20279" lon="6.00533">
        <ele>2266</ele>
        <time>2024-06-05T22:56:26+00:00</time>
      </trkpt>
      <trkpt lat="45.20279" lon="6.00539">
        <ele>2266</ele>
        <time>2024-06-05T22:56:29+00:00</time>
      </trkpt>
      <trkpt lat="45.2028" lon="6.00542">
        <ele>2260</ele>
        <time>2024-06-05T22:56:32+00:00</time>
      </trkpt>
      <trkpt lat="45.2028" lon="6.00548">
        <ele>2260</ele>
        <time>2024-06-05T22:56:35+00:00</time>
      </trkpt>
      <trkpt lat="45.20278" lon="6.00552">
        <ele>2261</ele>
        <time>2024-06-05T22:56:38+00:00</time>
      </trkpt>
      <trkpt lat="45.20278" lon="6.00556">
        <ele>2261</ele>
        <time>2024-06-05T22:56:41+00:00</time>
      </trkpt>
      <trkpt lat="45.20277" lon="6.00561">
        <ele>2260</ele>
        <time>2024-06-05T22:56:44+00:00</time>
      </trkpt>
      <trkpt lat="45.20281" lon="6.00566">
        <ele>2254</ele>
        <time>2024-06-05T22:56:47+00:00</time>
      </trkpt>
      <trkpt lat="45.20283" lon="6.00567">
        <ele>2254</ele>
        <time>2024-06-05T22:56:50+00:00</time>
      </trkpt>
      <trkpt lat="45.20291" lon="6.00583">
        <ele>2251</ele>
        <time>2024-06-05T22:56:53+00:00</time>
      </trkpt>
      <trkpt lat="45.20291" lon="6.00584">
        <ele>2251</ele>
        <time>2024-06-05T22:56:56+00:00</time>
      </trkpt>
      <trkpt lat="45.20289" lon="6.00586">
        <ele>2250</ele>
        <time>2024-06-05T22:56:59+00:00</time>
      </trkpt>
      <trkpt lat="45.20287" lon="6.00591">
        <ele>2248</ele>
        <time>2024-06-05T22:57:02+00:00</time>
      </trkpt>
      <trkpt lat="45.20286" lon="6.00597">
        <ele>2248</ele>
        <time>2024-06-05T22:57:05+00:00</time>
      </trkpt>
      <trkpt lat="45.20282" lon="6.00601">
        <ele>2245</ele>
        <time>2024-06-05T22:57:08+00:00</time>
      </trkpt>
      <trkpt lat="45.2028" lon="6.00604">
        <ele>2251</ele>
        <time>2024-06-05T22:57:11+00:00</time>
      </trkpt>
      <trkpt lat="45.20278" lon="6.00606">
        <ele>2248</ele>
        <time>2024-06-05T22:57:14+00:00</time>
      </trkpt>
      <trkpt lat="45.20277" lon="6.00609">
        <ele>2248</ele>
        <time>2024-06-05T22:57:17+00:00</time>
      </trkpt>
      <trkpt lat="45.20275" lon="6.00611">
        <ele>2242</ele>
        <time>2024-06-05T22:57:20+00:00</time>
      </trkpt>
      <trkpt lat="45.20272" lon="6.00611">
        <ele>2242</ele>
        <time>2024-06-05T22:57:23+00:00</time>
      </trkpt>
      <trkpt lat="45.20266" lon="6.00615">
        <ele>2251</ele>
        <time>2024-06-05T22:57:26+00:00</time>
      </trkpt>
      <trkpt lat="45.20265" lon="6.00618">
        <ele>2251</ele>
        <time>2024-06-05T22:57:29+00:00</time>
      </trkpt>
      <trkpt lat="45.20263" lon="6.00624">
        <ele>2246</ele>
        <time>2024-06-05T22:57:32+00:00</time>
      </trkpt>
      <trkpt lat="45.20265" lon="6.00628">
        <ele>2246</ele>
        <time>2024-06-05T22:57:35+00:00</time>
      </trkpt>
      <trkpt lat="45.20264" lon="6.00639">
        <ele>2238</ele>
        <time>2024-06-05T22:57:38+00:00</time>
      </trkpt>
      <trkpt lat="45.20267" lon="6.00643">
        <ele>2233</ele>
        <time>2024-06-05T22:57:41+00:00</time>
      </trkpt>
      <trkpt lat="45.20268" lon="6.00648">
        <ele>2233</ele>
        <time>2024-06-05T22:57:44+00:00</time>
      </trkpt>
      <trkpt lat="45.20266" lon="6.00654">
        <ele>2232</ele>
        <time>2024-06-05T22:57:47+00:00</time>
      </trkpt>
      <trkpt lat="45.20267" lon="6.00657">
        <ele>2232</ele>
        <time>2024-06-05T22:57:50+00:00</time>
      </trkpt>
      <trkpt lat="45.20266" lon="6.00662">
        <ele>2231</ele>
        <time>2024-06-05T22:57:53+00:00</time>
      </trkpt>
      <trkpt lat="45.20267" lon="6.00666">
        <ele>2231</ele>
        <time>2024-06-05T22:57:56+00:00</time>
      </trkpt>
      <trkpt lat="45.20266" lon="6.00669">
        <ele>2231</ele>
        <time>2024-06-05T22:57:59+00:00</time>
      </trkpt>
      <trkpt lat="45.20266" lon="6.0068">
        <ele>2226</ele>
        <time>2024-06-05T22:58:02+00:00</time>
      </trkpt>
      <trkpt lat="45.20268" lon="6.0068">
        <ele>2228</ele>
        <time>2024-06-05T22:58:05+00:00</time>
      </trkpt>
      <trkpt lat="45.20272" lon="6.00683">
        <ele>2227</ele>
        <time>2024-06-05T22:58:08+00:00</time>
      </trkpt>
      <trkpt lat="45.20281" lon="6.00696">
        <ele>2226</ele>
        <time>2024-06-05T22:58:11+00:00</time>
      </trkpt>
      <trkpt lat="45.20285" lon="6.00713">
        <ele>2220</ele>
        <time>2024-06-05T22:58:14+00:00</time>
      </trkpt>
      <trkpt lat="45.20282" lon="6.0072">
        <ele>2220</ele>
        <time>2024-06-05T22:58:17+00:00</time>
      </trkpt>
      <trkpt lat="45.20282" lon="6.00721">
        <ele>2218</ele>
        <time>2024-06-05T22:58:20+00:00</time>
      </trkpt>
      <trkpt lat="45.20288" lon="6.00732">
        <ele>2215</ele>
        <time>2024-06-05T22:58:23+00:00</time>
      </trkpt>
      <trkpt lat="45.20289" lon="6.00734">
        <ele>2215</ele>
        <time>2024-06-05T22:58:26+00:00</time>
      </trkpt>
      <trkpt lat="45.2029" lon="6.00738">
        <ele>2217</ele>
        <time>2024-06-05T22:58:29+00:00</time>
      </trkpt>
      <trkpt lat="45.20294" lon="6.00746">
        <ele>2215</ele>
        <time>2024-06-05T22:58:32+00:00</time>
      </trkpt>
      <trkpt lat="45.20297" lon="6.00753">
        <ele>2212</ele>
        <time>2024-06-05T22:58:35+00:00</time>
      </trkpt>
      <trkpt lat="45.20299" lon="6.00757">
        <ele>2212</ele>
        <time>2024-06-05T22:58:38+00:00</time>
      </trkpt>
      <trkpt lat="45.20302" lon="6.00767">
        <ele>2209</ele>
        <time>2024-06-05T22:58:41+00:00</time>
      </trkpt>
      <trkpt lat="45.20305" lon="6.00771">
        <ele>2205</ele>
        <time>2024-06-05T22:58:44+00:00</time>
      </trkpt>
      <trkpt lat="45.20304" lon="6.00783">
        <ele>2203</ele>
        <time>2024-06-05T22:58:47+00:00</time>
      </trkpt>
      <trkpt lat="45.20303" lon="6.00789">
        <ele>2203</ele>
        <time>2024-06-05T22:58:50+00:00</time>
      </trkpt>
      <trkpt lat="45.20302" lon="6.00801">
        <ele>2198</ele>
        <time>2024-06-05T22:58:53+00:00</time>
      </trkpt>
      <trkpt lat="45.20303" lon="6.00805">
        <ele>2198</ele>
        <time>2024-06-05T22:58:56+00:00</time>
      </trkpt>
      <trkpt lat="45.20302" lon="6.00809">
        <ele>2198</ele>
        <time>2024-06-05T22:58:59+00:00</time>
      </trkpt>
      <trkpt lat="45.20301" lon="6.00809">
        <ele>2198</ele>
        <time>2024-06-05T22:59:02+00:00</time>
      </trkpt>
      <trkpt lat="45.20301" lon="6.0082">
        <ele>2196</ele>
        <time>2024-06-05T22:59:05+00:00</time>
      </trkpt>
      <trkpt lat="45.20302" lon="6.00824">
        <ele>2193</ele>
        <time>2024-06-05T22:59:08+00:00</time>
      </trkpt>
      <trkpt lat="45.20302" lon="6.00831">
        <ele>2192</ele>
        <time>2024-06-05T22:59:11+00:00</time>
      </trkpt>
      <trkpt lat="45.20304" lon="6.00837">
        <ele>2192</ele>
        <time>2024-06-05T22:59:14+00:00</time>
      </trkpt>
      <trkpt lat="45.20305" lon="6.00844">
        <ele>2192</ele>
        <time>2024-06-05T22:59:17+00:00</time>
      </trkpt>
      <trkpt lat="45.20305" lon="6.00844">
        <ele>2192</ele>
        <time>2024-06-05T22:59:20+00:00</time>
      </trkpt>
      <trkpt lat="45.20308" lon="6.00843">
        <ele>2192</ele>
        <time>2024-06-05T22:59:23+00:00</time>
      </trkpt>
      <trkpt lat="45.20313" lon="6.00846">
        <ele>2190</ele>
        <time>2024-06-05T22:59:26+00:00</time>
      </trkpt>
      <trkpt lat="45.20314" lon="6.00848">
        <ele>2190</ele>
        <time>2024-06-05T22:59:29+00:00</time>
      </trkpt>
      <trkpt lat="45.2032" lon="6.00849">
        <ele>2189</ele>
        <time>2024-06-05T22:59:32+00:00</time>
      </trkpt>
      <trkpt lat="45.20329" lon="6.00843">
        <ele>2189</ele>
        <time>2024-06-05T22:59:35+00:00</time>
      </trkpt>
      <trkpt lat="45.20331" lon="6.00843">
        <ele>2189</ele>
        <time>2024-06-05T22:59:38+00:00</time>
      </trkpt>
      <trkpt lat="45.20338" lon="6.00846">
        <ele>2189</ele>
        <time>2024-06-05T22:59:41+00:00</time>
      </trkpt>
      <trkpt lat="45.2034" lon="6.00848">
        <ele>2188</ele>
        <time>2024-06-05T22:59:44+00:00</time>
      </trkpt>
      <trkpt lat="45.20348" lon="6.00849">
        <ele>2188</ele>
        <time>2024-06-05T22:59:47+00:00</time>
      </trkpt>
      <trkpt lat="45.20353" lon="6.00852">
        <ele>2186</ele>
        <time>2024-06-05T22:59:50+00:00</time>
      </trkpt>
      <trkpt lat="45.20359" lon="6.00863">
        <ele>2186</ele>
        <time>2024-06-05T22:59:53+00:00</time>
      </trkpt>
      <trkpt lat="45.20364" lon="6.00869">
        <ele>2186</ele>
        <time>2024-06-05T22:59:56+00:00</time>
      </trkpt>
      <trkpt lat="45.20365" lon="6.00874">
        <ele>2184</ele>
        <time>2024-06-05T22:59:59+00:00</time>
      </trkpt>
      <trkpt lat="45.20363" lon="6.00878">
        <ele>2184</ele>
        <time>2024-06-05T23:00:02+00:00</time>
      </trkpt>
      <trkpt lat="45.20362" lon="6.00884">
        <ele>2182</ele>
        <time>2024-06-05T23:00:05+00:00</time>
      </trkpt>
      <trkpt lat="45.20359" lon="6.00887">
        <ele>2183</ele>
        <time>2024-06-05T23:00:08+00:00</time>
      </trkpt>
      <trkpt lat="45.20358" lon="6.00887">
        <ele>2183</ele>
        <time>2024-06-05T23:00:11+00:00</time>
      </trkpt>
      <trkpt lat="45.20356" lon="6.00885">
        <ele>2183</ele>
        <time>2024-06-05T23:00:14+00:00</time>
      </trkpt>
      <trkpt lat="45.20353" lon="6.00887">
        <ele>2183</ele>
        <time>2024-06-05T23:00:17+00:00</time>
      </trkpt>
      <trkpt lat="45.20351" lon="6.0089">
        <ele>2180</ele>
        <time>2024-06-05T23:00:20+00:00</time>
      </trkpt>
      <trkpt lat="45.20349" lon="6.00892">
        <ele>2180</ele>
        <time>2024-06-05T23:00:23+00:00</time>
      </trkpt>
      <trkpt lat="45.20349" lon="6.00894">
        <ele>2180</ele>
        <time>2024-06-05T23:00:26+00:00</time>
      </trkpt>
      <trkpt lat="45.2035" lon="6.00896">
        <ele>2180</ele>
        <time>2024-06-05T23:00:29+00:00</time>
      </trkpt>
      <trkpt lat="45.20352" lon="6.00896">
        <ele>2180</ele>
        <time>2024-06-05T23:00:32+00:00</time>
      </trkpt>
      <trkpt lat="45.20351" lon="6.009">
        <ele>2177</ele>
        <time>2024-06-05T23:00:35+00:00</time>
      </trkpt>
      <trkpt lat="45.20352" lon="6.00904">
        <ele>2177</ele>
        <time>2024-06-05T23:00:38+00:00</time>
      </trkpt>
      <trkpt lat="45.20357" lon="6.0091">
        <ele>2177</ele>
        <time>2024-06-05T23:00:41+00:00</time>
      </trkpt>
      <trkpt lat="45.20357" lon="6.00912">
        <ele>2173</ele>
        <time>2024-06-05T23:00:44+00:00</time>
      </trkpt>
      <trkpt lat="45.20359" lon="6.00914">
        <ele>2173</ele>
        <time>2024-06-05T23:00:47+00:00</time>
      </trkpt>
      <trkpt lat="45.20361" lon="6.00921">
        <ele>2170</ele>
        <time>2024-06-05T23:00:50+00:00</time>
      </trkpt>
      <trkpt lat="45.20363" lon="6.00927">
        <ele>2170</ele>
        <time>2024-06-05T23:00:53+00:00</time>
      </trkpt>
      <trkpt lat="45.20365" lon="6.00928">
        <ele>2170</ele>
        <time>2024-06-05T23:00:56+00:00</time>
      </trkpt>
      <trkpt lat="45.20364" lon="6.0093">
        <ele>2167</ele>
        <time>2024-06-05T23:00:59+00:00</time>
      </trkpt>
      <trkpt lat="45.20364" lon="6.0094">
        <ele>2167</ele>
        <time>2024-06-05T23:01:02+00:00</time>
      </trkpt>
      <trkpt lat="45.20366" lon="6.00946">
        <ele>2163</ele>
        <time>2024-06-05T23:01:05+00:00</time>
      </trkpt>
      <trkpt lat="45.20369" lon="6.00947">
        <ele>2163</ele>
        <time>2024-06-05T23:01:08+00:00</time>
      </trkpt>
      <trkpt lat="45.20372" lon="6.00952">
        <ele>2161</ele>
        <time>2024-06-05T23:01:11+00:00</time>
      </trkpt>
      <trkpt lat="45.20373" lon="6.00953">
        <ele>2161</ele>
        <time>2024-06-05T23:01:14+00:00</time>
      </trkpt>
      <trkpt lat="45.20374" lon="6.00952">
        <ele>2161</ele>
        <time>2024-06-05T23:01:17+00:00</time>
      </trkpt>
      <trkpt lat="45.20375" lon="6.00952">
        <ele>2161</ele>
        <time>2024-06-05T23:01:20+00:00</time>
      </trkpt>
      <trkpt lat="45.20379" lon="6.00959">
        <ele>2161</ele>
        <time>2024-06-05T23:01:23+00:00</time>
      </trkpt>
      <trkpt lat="45.20382" lon="6.00963">
        <ele>2157</ele>
        <time>2024-06-05T23:01:26+00:00</time>
      </trkpt>
      <trkpt lat="45.20383" lon="6.00962">
        <ele>2157</ele>
        <time>2024-06-05T23:01:29+00:00</time>
      </trkpt>
      <trkpt lat="45.20383" lon="6.00972">
        <ele>2155</ele>
        <time>2024-06-05T23:01:32+00:00</time>
      </trkpt>
      <trkpt lat="45.20384" lon="6.0098">
        <ele>2155</ele>
        <time>2024-06-05T23:01:35+00:00</time>
      </trkpt>
      <trkpt lat="45.20384" lon="6.00985">
        <ele>2154</ele>
        <time>2024-06-05T23:01:38+00:00</time>
      </trkpt>
      <trkpt lat="45.20384" lon="6.0099">
        <ele>2154</ele>
        <time>2024-06-05T23:01:41+00:00</time>
      </trkpt>
      <trkpt lat="45.20387" lon="6.00994">
        <ele>2152</ele>
        <time>2024-06-05T23:01:44+00:00</time>
      </trkpt>
      <trkpt lat="45.20391" lon="6.01">
        <ele>2150</ele>
        <time>2024-06-05T23:01:47+00:00</time>
      </trkpt>
      <trkpt lat="45.20391" lon="6.01004">
        <ele>2150</ele>
        <time>2024-06-05T23:01:50+00:00</time>
      </trkpt>
      <trkpt lat="45.2039" lon="6.01008">
        <ele>2151</ele>
        <time>2024-06-05T23:01:53+00:00</time>
      </trkpt>
      <trkpt lat="45.20389" lon="6.01012">
        <ele>2150</ele>
        <time>2024-06-05T23:01:56+00:00</time>
      </trkpt>
      <trkpt lat="45.20388" lon="6.01015">
        <ele>2150</ele>
        <time>2024-06-05T23:01:59+00:00</time>
      </trkpt>
      <trkpt lat="45.20388" lon="6.01027">
        <ele>2150</ele>
        <time>2024-06-05T23:02:02+00:00</time>
      </trkpt>
      <trkpt lat="45.20386" lon="6.01033">
        <ele>2149</ele>
        <time>2024-06-05T23:02:05+00:00</time>
      </trkpt>
      <trkpt lat="45.20388" lon="6.01037">
        <ele>2149</ele>
        <time>2024-06-05T23:02:08+00:00</time>
      </trkpt>
      <trkpt lat="45.20387" lon="6.0104">
        <ele>2149</ele>
        <time>2024-06-05T23:02:11+00:00</time>
      </trkpt>
      <trkpt lat="45.20388" lon="6.01043">
        <ele>2148</ele>
        <time>2024-06-05T23:02:14+00:00</time>
      </trkpt>
      <trkpt lat="45.20388" lon="6.01049">
        <ele>2148</ele>
        <time>2024-06-05T23:02:17+00:00</time>
      </trkpt>
      <trkpt lat="45.20387" lon="6.01055">
        <ele>2146</ele>
        <time>2024-06-05T23:02:20+00:00</time>
      </trkpt>
      <trkpt lat="45.20386" lon="6.01072">
        <ele>2141</ele>
        <time>2024-06-05T23:02:23+00:00</time>
      </trkpt>
      <trkpt lat="45.20387" lon="6.01076">
        <ele>2141</ele>
        <time>2024-06-05T23:02:26+00:00</time>
      </trkpt>
      <trkpt lat="45.20388" lon="6.01081">
        <ele>2139</ele>
        <time>2024-06-05T23:02:29+00:00</time>
      </trkpt>
      <trkpt lat="45.20388" lon="6.01083">
        <ele>2139</ele>
        <time>2024-06-05T23:02:32+00:00</time>
      </trkpt>
      <trkpt lat="45.2039" lon="6.01087">
        <ele>2139</ele>
        <time>2024-06-05T23:02:35+00:00</time>
      </trkpt>
      <trkpt lat="45.2039" lon="6.01092">
        <ele>2138</ele>
        <time>2024-06-05T23:02:38+00:00</time>
      </trkpt>
      <trkpt lat="45.20392" lon="6.01098">
        <ele>2138</ele>
        <time>2024-06-05T23:02:41+00:00</time>
      </trkpt>
      <trkpt lat="45.20392" lon="6.011">
        <ele>2133</ele>
        <time>2024-06-05T23:02:44+00:00</time>
      </trkpt>
      <trkpt lat="45.20389" lon="6.01102">
        <ele>2132</ele>
        <time>2024-06-05T23:02:47+00:00</time>
      </trkpt>
      <trkpt lat="45.20389" lon="6.01104">
        <ele>2132</ele>
        <time>2024-06-05T23:02:50+00:00</time>
      </trkpt>
      <trkpt lat="45.2039" lon="6.01106">
        <ele>2133</ele>
        <time>2024-06-05T23:02:53+00:00</time>
      </trkpt>
      <trkpt lat="45.2039" lon="6.01108">
        <ele>2133</ele>
        <time>2024-06-05T23:02:56+00:00</time>
      </trkpt>
      <trkpt lat="45.20389" lon="6.0111">
        <ele>2132</ele>
        <time>2024-06-05T23:02:59+00:00</time>
      </trkpt>
      <trkpt lat="45.20391" lon="6.01121">
        <ele>2127</ele>
        <time>2024-06-05T23:03:02+00:00</time>
      </trkpt>
      <trkpt lat="45.20393" lon="6.01126">
        <ele>2127</ele>
        <time>2024-06-05T23:03:05+00:00</time>
      </trkpt>
      <trkpt lat="45.20395" lon="6.01133">
        <ele>2124</ele>
        <time>2024-06-05T23:03:08+00:00</time>
      </trkpt>
      <trkpt lat="45.20395" lon="6.01135">
        <ele>2124</ele>
        <time>2024-06-05T23:03:11+00:00</time>
      </trkpt>
      <trkpt lat="45.20398" lon="6.0114">
        <ele>2124</ele>
        <time>2024-06-05T23:03:14+00:00</time>
      </trkpt>
      <trkpt lat="45.20401" lon="6.01154">
        <ele>2120</ele>
        <time>2024-06-05T23:03:17+00:00</time>
      </trkpt>
      <trkpt lat="45.20403" lon="6.01169">
        <ele>2117</ele>
        <time>2024-06-05T23:03:20+00:00</time>
      </trkpt>
      <trkpt lat="45.20401" lon="6.01174">
        <ele>2114</ele>
        <time>2024-06-05T23:03:23+00:00</time>
      </trkpt>
      <trkpt lat="45.20401" lon="6.01182">
        <ele>2111</ele>
        <time>2024-06-05T23:03:26+00:00</time>
      </trkpt>
      <trkpt lat="45.20401" lon="6.01184">
        <ele>2111</ele>
        <time>2024-06-05T23:03:29+00:00</time>
      </trkpt>
      <trkpt lat="45.204" lon="6.01186">
        <ele>2110</ele>
        <time>2024-06-05T23:03:32+00:00</time>
      </trkpt>
      <trkpt lat="45.20397" lon="6.01186">
        <ele>2110</ele>
        <time>2024-06-05T23:03:35+00:00</time>
      </trkpt>
      <trkpt lat="45.204" lon="6.01193">
        <ele>2106</ele>
        <time>2024-06-05T23:03:38+00:00</time>
      </trkpt>
      <trkpt lat="45.204" lon="6.01196">
        <ele>2108</ele>
        <time>2024-06-05T23:03:41+00:00</time>
      </trkpt>
      <trkpt lat="45.204" lon="6.01199">
        <ele>2106</ele>
        <time>2024-06-05T23:03:44+00:00</time>
      </trkpt>
      <trkpt lat="45.20392" lon="6.01201">
        <ele>2103</ele>
        <time>2024-06-05T23:03:47+00:00</time>
      </trkpt>
      <trkpt lat="45.20392" lon="6.01204">
        <ele>2103</ele>
        <time>2024-06-05T23:03:50+00:00</time>
      </trkpt>
      <trkpt lat="45.20391" lon="6.01206">
        <ele>2103</ele>
        <time>2024-06-05T23:03:53+00:00</time>
      </trkpt>
      <trkpt lat="45.20392" lon="6.0121">
        <ele>2098</ele>
        <time>2024-06-05T23:03:56+00:00</time>
      </trkpt>
      <trkpt lat="45.2039" lon="6.01212">
        <ele>2098</ele>
        <time>2024-06-05T23:03:59+00:00</time>
      </trkpt>
      <trkpt lat="45.20388" lon="6.01211">
        <ele>2098</ele>
        <time>2024-06-05T23:04:02+00:00</time>
      </trkpt>
      <trkpt lat="45.20388" lon="6.01213">
        <ele>2098</ele>
        <time>2024-06-05T23:04:05+00:00</time>
      </trkpt>
      <trkpt lat="45.2039" lon="6.01222">
        <ele>2096</ele>
        <time>2024-06-05T23:04:08+00:00</time>
      </trkpt>
      <trkpt lat="45.20389" lon="6.01226">
        <ele>2096</ele>
        <time>2024-06-05T23:04:11+00:00</time>
      </trkpt>
      <trkpt lat="45.2039" lon="6.01228">
        <ele>2096</ele>
        <time>2024-06-05T23:04:14+00:00</time>
      </trkpt>
      <trkpt lat="45.20392" lon="6.01235">
        <ele>2094</ele>
        <time>2024-06-05T23:04:17+00:00</time>
      </trkpt>
      <trkpt lat="45.20391" lon="6.01237">
        <ele>2094</ele>
        <time>2024-06-05T23:04:20+00:00</time>
      </trkpt>
      <trkpt lat="45.20392" lon="6.01238">
        <ele>2094</ele>
        <time>2024-06-05T23:04:23+00:00</time>
      </trkpt>
      <trkpt lat="45.20394" lon="6.0124">
        <ele>2094</ele>
        <time>2024-06-05T23:04:26+00:00</time>
      </trkpt>
      <trkpt lat="45.20402" lon="6.01251">
        <ele>2089</ele>
        <time>2024-06-05T23:04:29+00:00</time>
      </trkpt>
      <trkpt lat="45.20403" lon="6.01255">
        <ele>2089</ele>
        <time>2024-06-05T23:04:32+00:00</time>
      </trkpt>
      <trkpt lat="45.20405" lon="6.01257">
        <ele>2089</ele>
        <time>2024-06-05T23:04:35+00:00</time>
      </trkpt>
      <trkpt lat="45.20405" lon="6.0126">
        <ele>2089</ele>
        <time>2024-06-05T23:04:38+00:00</time>
      </trkpt>
      <trkpt lat="45.20406" lon="6.01261">
        <ele>2087</ele>
        <time>2024-06-05T23:04:41+00:00</time>
      </trkpt>
      <trkpt lat="45.20406" lon="6.01263">
        <ele>2087</ele>
        <time>2024-06-05T23:04:44+00:00</time>
      </trkpt>
      <trkpt lat="45.20411" lon="6.01268">
        <ele>2090</ele>
        <time>2024-06-05T23:04:47+00:00</time>
      </trkpt>
      <trkpt lat="45.20413" lon="6.01275">
        <ele>2086</ele>
        <time>2024-06-05T23:04:50+00:00</time>
      </trkpt>
      <trkpt lat="45.2042" lon="6.01289">
        <ele>2089</ele>
        <time>2024-06-05T23:04:53+00:00</time>
      </trkpt>
      <trkpt lat="45.20423" lon="6.01291">
        <ele>2086</ele>
        <time>2024-06-05T23:04:56+00:00</time>
      </trkpt>
      <trkpt lat="45.20427" lon="6.01303">
        <ele>2082</ele>
        <time>2024-06-05T23:04:59+00:00</time>
      </trkpt>
      <trkpt lat="45.20427" lon="6.01309">
        <ele>2082</ele>
        <time>2024-06-05T23:05:02+00:00</time>
      </trkpt>
      <trkpt lat="45.20426" lon="6.01311">
        <ele>2081</ele>
        <time>2024-06-05T23:05:05+00:00</time>
      </trkpt>
      <trkpt lat="45.20428" lon="6.01316">
        <ele>2081</ele>
        <time>2024-06-05T23:05:08+00:00</time>
      </trkpt>
      <trkpt lat="45.20429" lon="6.01322">
        <ele>2079</ele>
        <time>2024-06-05T23:05:11+00:00</time>
      </trkpt>
      <trkpt lat="45.20428" lon="6.01326">
        <ele>2079</ele>
        <time>2024-06-05T23:05:14+00:00</time>
      </trkpt>
      <trkpt lat="45.20429" lon="6.01329">
        <ele>2079</ele>
        <time>2024-06-05T23:05:17+00:00</time>
      </trkpt>
      <trkpt lat="45.20428" lon="6.01333">
        <ele>2076</ele>
        <time>2024-06-05T23:05:20+00:00</time>
      </trkpt>
      <trkpt lat="45.20427" lon="6.01333">
        <ele>2076</ele>
        <time>2024-06-05T23:05:23+00:00</time>
      </trkpt>
      <trkpt lat="45.20428" lon="6.01337">
        <ele>2076</ele>
        <time>2024-06-05T23:05:26+00:00</time>
      </trkpt>
      <trkpt lat="45.20429" lon="6.0134">
        <ele>2074</ele>
        <time>2024-06-05T23:05:29+00:00</time>
      </trkpt>
      <trkpt lat="45.20433" lon="6.01357">
        <ele>2074</ele>
        <time>2024-06-05T23:05:32+00:00</time>
      </trkpt>
      <trkpt lat="45.20434" lon="6.01368">
        <ele>2070</ele>
        <time>2024-06-05T23:05:35+00:00</time>
      </trkpt>
      <trkpt lat="45.20434" lon="6.01369">
        <ele>2070</ele>
        <time>2024-06-05T23:05:38+00:00</time>
      </trkpt>
      <trkpt lat="45.20434" lon="6.01371">
        <ele>2068</ele>
        <time>2024-06-05T23:05:41+00:00</time>
      </trkpt>
      <trkpt lat="45.20436" lon="6.01383">
        <ele>2067</ele>
        <time>2024-06-05T23:05:44+00:00</time>
      </trkpt>
      <trkpt lat="45.20437" lon="6.01386">
        <ele>2067</ele>
        <time>2024-06-05T23:05:47+00:00</time>
      </trkpt>
      <trkpt lat="45.2044" lon="6.01391">
        <ele>2065</ele>
        <time>2024-06-05T23:05:50+00:00</time>
      </trkpt>
      <trkpt lat="45.20442" lon="6.01398">
        <ele>2067</ele>
        <time>2024-06-05T23:05:53+00:00</time>
      </trkpt>
      <trkpt lat="45.20441" lon="6.01402">
        <ele>2065</ele>
        <time>2024-06-05T23:05:56+00:00</time>
      </trkpt>
      <trkpt lat="45.20442" lon="6.01403">
        <ele>2065</ele>
        <time>2024-06-05T23:05:59+00:00</time>
      </trkpt>
      <trkpt lat="45.20443" lon="6.01405">
        <ele>2065</ele>
        <time>2024-06-05T23:06:02+00:00</time>
      </trkpt>
      <trkpt lat="45.20442" lon="6.01408">
        <ele>2065</ele>
        <time>2024-06-05T23:06:05+00:00</time>
      </trkpt>
      <trkpt lat="45.20441" lon="6.0141">
        <ele>2064</ele>
        <time>2024-06-05T23:06:08+00:00</time>
      </trkpt>
      <trkpt lat="45.20442" lon="6.01416">
        <ele>2064</ele>
        <time>2024-06-05T23:06:11+00:00</time>
      </trkpt>
      <trkpt lat="45.20441" lon="6.01421">
        <ele>2063</ele>
        <time>2024-06-05T23:06:14+00:00</time>
      </trkpt>
      <trkpt lat="45.20442" lon="6.01425">
        <ele>2063</ele>
        <time>2024-06-05T23:06:17+00:00</time>
      </trkpt>
      <trkpt lat="45.20442" lon="6.01426">
        <ele>2063</ele>
        <time>2024-06-05T23:06:20+00:00</time>
      </trkpt>
      <trkpt lat="45.20442" lon="6.01428">
        <ele>2063</ele>
        <time>2024-06-05T23:06:23+00:00</time>
      </trkpt>
      <trkpt lat="45.2044" lon="6.01433">
        <ele>2062</ele>
        <time>2024-06-05T23:06:26+00:00</time>
      </trkpt>
      <trkpt lat="45.2044" lon="6.01436">
        <ele>2061</ele>
        <time>2024-06-05T23:06:29+00:00</time>
      </trkpt>
      <trkpt lat="45.20441" lon="6.01438">
        <ele>2062</ele>
        <time>2024-06-05T23:06:32+00:00</time>
      </trkpt>
      <trkpt lat="45.2044" lon="6.01441">
        <ele>2060</ele>
        <time>2024-06-05T23:06:35+00:00</time>
      </trkpt>
      <trkpt lat="45.20438" lon="6.01442">
        <ele>2060</ele>
        <time>2024-06-05T23:06:38+00:00</time>
      </trkpt>
      <trkpt lat="45.20439" lon="6.01447">
        <ele>2060</ele>
        <time>2024-06-05T23:06:41+00:00</time>
      </trkpt>
      <trkpt lat="45.20441" lon="6.0145">
        <ele>2058</ele>
        <time>2024-06-05T23:06:44+00:00</time>
      </trkpt>
      <trkpt lat="45.20443" lon="6.01452">
        <ele>2058</ele>
        <time>2024-06-05T23:06:47+00:00</time>
      </trkpt>
      <trkpt lat="45.20443" lon="6.01453">
        <ele>2058</ele>
        <time>2024-06-05T23:06:50+00:00</time>
      </trkpt>
      <trkpt lat="45.20447" lon="6.01458">
        <ele>2058</ele>
        <time>2024-06-05T23:06:53+00:00</time>
      </trkpt>
      <trkpt lat="45.20451" lon="6.01462">
        <ele>2054</ele>
        <time>2024-06-05T23:06:56+00:00</time>
      </trkpt>
      <trkpt lat="45.20451" lon="6.01463">
        <ele>2054</ele>
        <time>2024-06-05T23:06:59+00:00</time>
      </trkpt>
      <trkpt lat="45.20453" lon="6.01464">
        <ele>2054</ele>
        <time>2024-06-05T23:07:02+00:00</time>
      </trkpt>
      <trkpt lat="45.2046" lon="6.01464">
        <ele>2054</ele>
        <time>2024-06-05T23:07:05+00:00</time>
      </trkpt>
      <trkpt lat="45.20463" lon="6.01464">
        <ele>2052</ele>
        <time>2024-06-05T23:07:08+00:00</time>
      </trkpt>
      <trkpt lat="45.20472" lon="6.01464">
        <ele>2056</ele>
        <time>2024-06-05T23:07:11+00:00</time>
      </trkpt>
      <trkpt lat="45.20476" lon="6.01464">
        <ele>2052</ele>
        <time>2024-06-05T23:07:14+00:00</time>
      </trkpt>
      <trkpt lat="45.20486" lon="6.01469">
        <ele>2054</ele>
        <time>2024-06-05T23:07:17+00:00</time>
      </trkpt>
      <trkpt lat="45.20493" lon="6.01469">
        <ele>2055</ele>
        <time>2024-06-05T23:07:20+00:00</time>
      </trkpt>
      <trkpt lat="45.20502" lon="6.01471">
        <ele>2052</ele>
        <time>2024-06-05T23:07:23+00:00</time>
      </trkpt>
      <trkpt lat="45.20508" lon="6.01475">
        <ele>2052</ele>
        <time>2024-06-05T23:07:26+00:00</time>
      </trkpt>
      <trkpt lat="45.20512" lon="6.01478">
        <ele>2055</ele>
        <time>2024-06-05T23:07:29+00:00</time>
      </trkpt>
      <trkpt lat="45.20525" lon="6.0148">
        <ele>2053</ele>
        <time>2024-06-05T23:07:32+00:00</time>
      </trkpt>
      <trkpt lat="45.20532" lon="6.01477">
        <ele>2057</ele>
        <time>2024-06-05T23:07:35+00:00</time>
      </trkpt>
      <trkpt lat="45.20535" lon="6.01473">
        <ele>2057</ele>
        <time>2024-06-05T23:07:38+00:00</time>
      </trkpt>
      <trkpt lat="45.20535" lon="6.0147">
        <ele>2057</ele>
        <time>2024-06-05T23:07:41+00:00</time>
      </trkpt>
      <trkpt lat="45.20536" lon="6.01469">
        <ele>2059</ele>
        <time>2024-06-05T23:07:44+00:00</time>
      </trkpt>
      <trkpt lat="45.20537" lon="6.0147">
        <ele>2059</ele>
        <time>2024-06-05T23:07:47+00:00</time>
      </trkpt>
      <trkpt lat="45.20542" lon="6.01464">
        <ele>2058</ele>
        <time>2024-06-05T23:07:50+00:00</time>
      </trkpt>
      <trkpt lat="45.20546" lon="6.01462">
        <ele>2058</ele>
        <time>2024-06-05T23:07:53+00:00</time>
      </trkpt>
      <trkpt lat="45.2055" lon="6.01462">
        <ele>2057</ele>
        <time>2024-06-05T23:07:56+00:00</time>
      </trkpt>
      <trkpt lat="45.20552" lon="6.01461">
        <ele>2057</ele>
        <time>2024-06-05T23:07:59+00:00</time>
      </trkpt>
      <trkpt lat="45.20558" lon="6.01465">
        <ele>2057</ele>
        <time>2024-06-05T23:08:02+00:00</time>
      </trkpt>
      <trkpt lat="45.20562" lon="6.01465">
        <ele>2056</ele>
        <time>2024-06-05T23:08:05+00:00</time>
      </trkpt>
      <trkpt lat="45.20565" lon="6.01467">
        <ele>2056</ele>
        <time>2024-06-05T23:08:08+00:00</time>
      </trkpt>
      <trkpt lat="45.20568" lon="6.01466">
        <ele>2056</ele>
        <time>2024-06-05T23:08:11+00:00</time>
      </trkpt>
      <trkpt lat="45.20572" lon="6.01469">
        <ele>2057</ele>
        <time>2024-06-05T23:08:14+00:00</time>
      </trkpt>
      <trkpt lat="45.20573" lon="6.01468">
        <ele>2056</ele>
        <time>2024-06-05T23:08:17+00:00</time>
      </trkpt>
      <trkpt lat="45.20575" lon="6.01468">
        <ele>2056</ele>
        <time>2024-06-05T23:08:20+00:00</time>
      </trkpt>
      <trkpt lat="45.20575" lon="6.01469">
        <ele>2056</ele>
        <time>2024-06-05T23:08:23+00:00</time>
      </trkpt>
      <trkpt lat="45.20577" lon="6.01467">
        <ele>2056</ele>
        <time>2024-06-05T23:08:26+00:00</time>
      </trkpt>
      <trkpt lat="45.20579" lon="6.01468">
        <ele>2056</ele>
        <time>2024-06-05T23:08:29+00:00</time>
      </trkpt>
      <trkpt lat="45.2058" lon="6.0147">
        <ele>2057</ele>
        <time>2024-06-05T23:08:32+00:00</time>
      </trkpt>
      <trkpt lat="45.20582" lon="6.01471">
        <ele>2055</ele>
        <time>2024-06-05T23:08:35+00:00</time>
      </trkpt>
      <trkpt lat="45.20582" lon="6.01472">
        <ele>2055</ele>
        <time>2024-06-05T23:08:38+00:00</time>
      </trkpt>
      <trkpt lat="45.2059" lon="6.01475">
        <ele>2057</ele>
        <time>2024-06-05T23:08:41+00:00</time>
      </trkpt>
      <trkpt lat="45.20594" lon="6.01478">
        <ele>2057</ele>
        <time>2024-06-05T23:08:44+00:00</time>
      </trkpt>
      <trkpt lat="45.20605" lon="6.01495">
        <ele>2057</ele>
        <time>2024-06-05T23:08:47+00:00</time>
      </trkpt>
      <trkpt lat="45.20605" lon="6.01497">
        <ele>2057</ele>
        <time>2024-06-05T23:08:50+00:00</time>
      </trkpt>
      <trkpt lat="45.20605" lon="6.01501">
        <ele>2056</ele>
        <time>2024-06-05T23:08:53+00:00</time>
      </trkpt>
      <trkpt lat="45.20607" lon="6.01508">
        <ele>2056</ele>
        <time>2024-06-05T23:08:56+00:00</time>
      </trkpt>
      <trkpt lat="45.20608" lon="6.01511">
        <ele>2055</ele>
        <time>2024-06-05T23:08:59+00:00</time>
      </trkpt>
      <trkpt lat="45.20609" lon="6.01513">
        <ele>2055</ele>
        <time>2024-06-05T23:09:02+00:00</time>
      </trkpt>
      <trkpt lat="45.20609" lon="6.01514">
        <ele>2055</ele>
        <time>2024-06-05T23:09:05+00:00</time>
      </trkpt>
      <trkpt lat="45.20608" lon="6.01517">
        <ele>2055</ele>
        <time>2024-06-05T23:09:08+00:00</time>
      </trkpt>
      <trkpt lat="45.20608" lon="6.01524">
        <ele>2056</ele>
        <time>2024-06-05T23:09:11+00:00</time>
      </trkpt>
      <trkpt lat="45.2061" lon="6.01529">
        <ele>2054</ele>
        <time>2024-06-05T23:09:14+00:00</time>
      </trkpt>
      <trkpt lat="45.20609" lon="6.01534">
        <ele>2055</ele>
        <time>2024-06-05T23:09:17+00:00</time>
      </trkpt>
      <trkpt lat="45.20608" lon="6.01538">
        <ele>2055</ele>
        <time>2024-06-05T23:09:20+00:00</time>
      </trkpt>
      <trkpt lat="45.20605" lon="6.01557">
        <ele>2056</ele>
        <time>2024-06-05T23:09:23+00:00</time>
      </trkpt>
      <trkpt lat="45.20603" lon="6.01567">
        <ele>2057</ele>
        <time>2024-06-05T23:09:26+00:00</time>
      </trkpt>
      <trkpt lat="45.20603" lon="6.01575">
        <ele>2058</ele>
        <time>2024-06-05T23:09:29+00:00</time>
      </trkpt>
      <trkpt lat="45.20604" lon="6.0158">
        <ele>2058</ele>
        <time>2024-06-05T23:09:32+00:00</time>
      </trkpt>
      <trkpt lat="45.20603" lon="6.01585">
        <ele>2058</ele>
        <time>2024-06-05T23:09:35+00:00</time>
      </trkpt>
      <trkpt lat="45.20604" lon="6.01589">
        <ele>2058</ele>
        <time>2024-06-05T23:09:38+00:00</time>
      </trkpt>
      <trkpt lat="45.20605" lon="6.01592">
        <ele>2058</ele>
        <time>2024-06-05T23:09:41+00:00</time>
      </trkpt>
      <trkpt lat="45.20605" lon="6.01599">
        <ele>2058</ele>
        <time>2024-06-05T23:09:44+00:00</time>
      </trkpt>
      <trkpt lat="45.20606" lon="6.016">
        <ele>2058</ele>
        <time>2024-06-05T23:09:47+00:00</time>
      </trkpt>
      <trkpt lat="45.20607" lon="6.01606">
        <ele>2058</ele>
        <time>2024-06-05T23:09:50+00:00</time>
      </trkpt>
      <trkpt lat="45.20607" lon="6.01613">
        <ele>2058</ele>
        <time>2024-06-05T23:09:53+00:00</time>
      </trkpt>
      <trkpt lat="45.20606" lon="6.01615">
        <ele>2058</ele>
        <time>2024-06-05T23:09:56+00:00</time>
      </trkpt>
      <trkpt lat="45.20607" lon="6.01622">
        <ele>2059</ele>
        <time>2024-06-05T23:09:59+00:00</time>
      </trkpt>
      <trkpt lat="45.20606" lon="6.01627">
        <ele>2059</ele>
        <time>2024-06-05T23:10:02+00:00</time>
      </trkpt>
      <trkpt lat="45.20609" lon="6.01635">
        <ele>2060</ele>
        <time>2024-06-05T23:10:05+00:00</time>
      </trkpt>
      <trkpt lat="45.20609" lon="6.01638">
        <ele>2060</ele>
        <time>2024-06-05T23:10:08+00:00</time>
      </trkpt>
      <trkpt lat="45.2061" lon="6.01639">
        <ele>2066</ele>
        <time>2024-06-05T23:10:11+00:00</time>
      </trkpt>
      <trkpt lat="45.20611" lon="6.01653">
        <ele>2069</ele>
        <time>2024-06-05T23:10:14+00:00</time>
      </trkpt>
      <trkpt lat="45.20612" lon="6.01653">
        <ele>2069</ele>
        <time>2024-06-05T23:10:17+00:00</time>
      </trkpt>
      <trkpt lat="45.20612" lon="6.01656">
        <ele>2069</ele>
        <time>2024-06-05T23:10:20+00:00</time>
      </trkpt>
      <trkpt lat="45.20611" lon="6.01657">
        <ele>2069</ele>
        <time>2024-06-05T23:10:23+00:00</time>
      </trkpt>
      <trkpt lat="45.20613" lon="6.01662">
        <ele>2071</ele>
        <time>2024-06-05T23:10:26+00:00</time>
      </trkpt>
      <trkpt lat="45.20613" lon="6.01664">
        <ele>2071</ele>
        <time>2024-06-05T23:10:29+00:00</time>
      </trkpt>
      <trkpt lat="45.20615" lon="6.01666">
        <ele>2071</ele>
        <time>2024-06-05T23:10:32+00:00</time>
      </trkpt>
      <trkpt lat="45.20616" lon="6.01668">
        <ele>2071</ele>
        <time>2024-06-05T23:10:35+00:00</time>
      </trkpt>
      <trkpt lat="45.20616" lon="6.01673">
        <ele>2073</ele>
        <time>2024-06-05T23:10:38+00:00</time>
      </trkpt>
      <trkpt lat="45.20619" lon="6.01678">
        <ele>2073</ele>
        <time>2024-06-05T23:10:41+00:00</time>
      </trkpt>
      <trkpt lat="45.20623" lon="6.01682">
        <ele>2076</ele>
        <time>2024-06-05T23:10:44+00:00</time>
      </trkpt>
      <trkpt lat="45.20625" lon="6.01682">
        <ele>2076</ele>
        <time>2024-06-05T23:10:47+00:00</time>
      </trkpt>
      <trkpt lat="45.20627" lon="6.01684">
        <ele>2076</ele>
        <time>2024-06-05T23:10:50+00:00</time>
      </trkpt>
      <trkpt lat="45.20629" lon="6.01688">
        <ele>2076</ele>
        <time>2024-06-05T23:10:53+00:00</time>
      </trkpt>
      <trkpt lat="45.2063" lon="6.01692">
        <ele>2081</ele>
        <time>2024-06-05T23:10:56+00:00</time>
      </trkpt>
      <trkpt lat="45.2063" lon="6.01694">
        <ele>2081</ele>
        <time>2024-06-05T23:10:59+00:00</time>
      </trkpt>
      <trkpt lat="45.20632" lon="6.01699">
        <ele>2081</ele>
        <time>2024-06-05T23:11:02+00:00</time>
      </trkpt>
      <trkpt lat="45.20633" lon="6.01704">
        <ele>2082</ele>
        <time>2024-06-05T23:11:05+00:00</time>
      </trkpt>
      <trkpt lat="45.20632" lon="6.01706">
        <ele>2082</ele>
        <time>2024-06-05T23:11:08+00:00</time>
      </trkpt>
      <trkpt lat="45.20633" lon="6.01707">
        <ele>2082</ele>
        <time>2024-06-05T23:11:11+00:00</time>
      </trkpt>
      <trkpt lat="45.20633" lon="6.01711">
        <ele>2082</ele>
        <time>2024-06-05T23:11:14+00:00</time>
      </trkpt>
      <trkpt lat="45.20635" lon="6.01717">
        <ele>2082</ele>
        <time>2024-06-05T23:11:17+00:00</time>
      </trkpt>
      <trkpt lat="45.20636" lon="6.0172">
        <ele>2082</ele>
        <time>2024-06-05T23:11:20+00:00</time>
      </trkpt>
      <trkpt lat="45.2064" lon="6.01727">
        <ele>2087</ele>
        <time>2024-06-05T23:11:23+00:00</time>
      </trkpt>
      <trkpt lat="45.20645" lon="6.0173">
        <ele>2087</ele>
        <time>2024-06-05T23:11:26+00:00</time>
      </trkpt>
      <trkpt lat="45.20646" lon="6.01733">
        <ele>2087</ele>
        <time>2024-06-05T23:11:29+00:00</time>
      </trkpt>
      <trkpt lat="45.20647" lon="6.01732">
        <ele>2087</ele>
        <time>2024-06-05T23:11:32+00:00</time>
      </trkpt>
      <trkpt lat="45.20648" lon="6.01733">
        <ele>2087</ele>
        <time>2024-06-05T23:11:35+00:00</time>
      </trkpt>
      <trkpt lat="45.20649" lon="6.01736">
        <ele>2087</ele>
        <time>2024-06-05T23:11:38+00:00</time>
      </trkpt>
      <trkpt lat="45.2065" lon="6.01737">
        <ele>2092</ele>
        <time>2024-06-05T23:11:41+00:00</time>
      </trkpt>
      <trkpt lat="45.20651" lon="6.01745">
        <ele>2091</ele>
        <time>2024-06-05T23:11:44+00:00</time>
      </trkpt>
      <trkpt lat="45.20652" lon="6.01749">
        <ele>2091</ele>
        <time>2024-06-05T23:11:47+00:00</time>
      </trkpt>
      <trkpt lat="45.20654" lon="6.01751">
        <ele>2091</ele>
        <time>2024-06-05T23:11:50+00:00</time>
      </trkpt>
      <trkpt lat="45.20655" lon="6.01755">
        <ele>2091</ele>
        <time>2024-06-05T23:11:53+00:00</time>
      </trkpt>
      <trkpt lat="45.20659" lon="6.01761">
        <ele>2091</ele>
        <time>2024-06-05T23:11:56+00:00</time>
      </trkpt>
      <trkpt lat="45.20659" lon="6.01768">
        <ele>2091</ele>
        <time>2024-06-05T23:11:59+00:00</time>
      </trkpt>
      <trkpt lat="45.20659" lon="6.01771">
        <ele>2090</ele>
        <time>2024-06-05T23:12:02+00:00</time>
      </trkpt>
      <trkpt lat="45.20661" lon="6.01773">
        <ele>2096</ele>
        <time>2024-06-05T23:12:05+00:00</time>
      </trkpt>
      <trkpt lat="45.20661" lon="6.01775">
        <ele>2096</ele>
        <time>2024-06-05T23:12:08+00:00</time>
      </trkpt>
      <trkpt lat="45.20664" lon="6.01776">
        <ele>2096</ele>
        <time>2024-06-05T23:12:11+00:00</time>
      </trkpt>
      <trkpt lat="45.20665" lon="6.01778">
        <ele>2096</ele>
        <time>2024-06-05T23:12:14+00:00</time>
      </trkpt>
      <trkpt lat="45.20665" lon="6.01781">
        <ele>2095</ele>
        <time>2024-06-05T23:12:17+00:00</time>
      </trkpt>
      <trkpt lat="45.20666" lon="6.01781">
        <ele>2095</ele>
        <time>2024-06-05T23:12:20+00:00</time>
      </trkpt>
      <trkpt lat="45.2067" lon="6.01782">
        <ele>2097</ele>
        <time>2024-06-05T23:12:23+00:00</time>
      </trkpt>
      <trkpt lat="45.20674" lon="6.01786">
        <ele>2097</ele>
        <time>2024-06-05T23:12:26+00:00</time>
      </trkpt>
      <trkpt lat="45.20679" lon="6.01788">
        <ele>2097</ele>
        <time>2024-06-05T23:12:29+00:00</time>
      </trkpt>
      <trkpt lat="45.20686" lon="6.01793">
        <ele>2097</ele>
        <time>2024-06-05T23:12:32+00:00</time>
      </trkpt>
      <trkpt lat="45.20688" lon="6.01794">
        <ele>2097</ele>
        <time>2024-06-05T23:12:35+00:00</time>
      </trkpt>
      <trkpt lat="45.20691" lon="6.01798">
        <ele>2100</ele>
        <time>2024-06-05T23:12:38+00:00</time>
      </trkpt>
      <trkpt lat="45.20697" lon="6.0181">
        <ele>2099</ele>
        <time>2024-06-05T23:12:41+00:00</time>
      </trkpt>
      <trkpt lat="45.20697" lon="6.01814">
        <ele>2099</ele>
        <time>2024-06-05T23:12:44+00:00</time>
      </trkpt>
      <trkpt lat="45.20702" lon="6.01816">
        <ele>2102</ele>
        <time>2024-06-05T23:12:47+00:00</time>
      </trkpt>
      <trkpt lat="45.20703" lon="6.01815">
        <ele>2102</ele>
        <time>2024-06-05T23:12:50+00:00</time>
      </trkpt>
      <trkpt lat="45.20705" lon="6.01816">
        <ele>2102</ele>
        <time>2024-06-05T23:12:53+00:00</time>
      </trkpt>
      <trkpt lat="45.20711" lon="6.01827">
        <ele>2105</ele>
        <time>2024-06-05T23:12:56+00:00</time>
      </trkpt>
      <trkpt lat="45.20712" lon="6.01831">
        <ele>2103</ele>
        <time>2024-06-05T23:12:59+00:00</time>
      </trkpt>
      <trkpt lat="45.20715" lon="6.01833">
        <ele>2103</ele>
        <time>2024-06-05T23:13:02+00:00</time>
      </trkpt>
      <trkpt lat="45.20716" lon="6.01837">
        <ele>2103</ele>
        <time>2024-06-05T23:13:05+00:00</time>
      </trkpt>
      <trkpt lat="45.20725" lon="6.01846">
        <ele>2105</ele>
        <time>2024-06-05T23:13:08+00:00</time>
      </trkpt>
      <trkpt lat="45.20731" lon="6.01851">
        <ele>2103</ele>
        <time>2024-06-05T23:13:11+00:00</time>
      </trkpt>
      <trkpt lat="45.20734" lon="6.01855">
        <ele>2103</ele>
        <time>2024-06-05T23:13:14+00:00</time>
      </trkpt>
      <trkpt lat="45.20742" lon="6.01862">
        <ele>2102</ele>
        <time>2024-06-05T23:13:17+00:00</time>
      </trkpt>
      <trkpt lat="45.20745" lon="6.01866">
        <ele>2102</ele>
        <time>2024-06-05T23:13:20+00:00</time>
      </trkpt>
      <trkpt lat="45.20748" lon="6.01866">
        <ele>2102</ele>
        <time>2024-06-05T23:13:23+00:00</time>
      </trkpt>
      <trkpt lat="45.20755" lon="6.01865">
        <ele>2104</ele>
        <time>2024-06-05T23:13:26+00:00</time>
      </trkpt>
      <trkpt lat="45.2076" lon="6.01866">
        <ele>2104</ele>
        <time>2024-06-05T23:13:29+00:00</time>
      </trkpt>
      <trkpt lat="45.20765" lon="6.01869">
        <ele>2104</ele>
        <time>2024-06-05T23:13:32+00:00</time>
      </trkpt>
      <trkpt lat="45.20768" lon="6.01871">
        <ele>2101</ele>
        <time>2024-06-05T23:13:35+00:00</time>
      </trkpt>
      <trkpt lat="45.20772" lon="6.01872">
        <ele>2100</ele>
        <time>2024-06-05T23:13:38+00:00</time>
      </trkpt>
      <trkpt lat="45.20773" lon="6.01874">
        <ele>2100</ele>
        <time>2024-06-05T23:13:41+00:00</time>
      </trkpt>
      <trkpt lat="45.20776" lon="6.01874">
        <ele>2100</ele>
        <time>2024-06-05T23:13:44+00:00</time>
      </trkpt>
      <trkpt lat="45.20778" lon="6.01879">
        <ele>2100</ele>
        <time>2024-06-05T23:13:47+00:00</time>
      </trkpt>
      <trkpt lat="45.20779" lon="6.01882">
        <ele>2096</ele>
        <time>2024-06-05T23:13:50+00:00</time>
      </trkpt>
      <trkpt lat="45.20781" lon="6.01886">
        <ele>2093</ele>
        <time>2024-06-05T23:13:53+00:00</time>
      </trkpt>
      <trkpt lat="45.20784" lon="6.01888">
        <ele>2093</ele>
        <time>2024-06-05T23:13:56+00:00</time>
      </trkpt>
      <trkpt lat="45.20785" lon="6.0189">
        <ele>2093</ele>
        <time>2024-06-05T23:13:59+00:00</time>
      </trkpt>
      <trkpt lat="45.20786" lon="6.01894">
        <ele>2091</ele>
        <time>2024-06-05T23:14:02+00:00</time>
      </trkpt>
      <trkpt lat="45.20784" lon="6.01897">
        <ele>2091</ele>
        <time>2024-06-05T23:14:05+00:00</time>
      </trkpt>
      <trkpt lat="45.20782" lon="6.01904">
        <ele>2088</ele>
        <time>2024-06-05T23:14:08+00:00</time>
      </trkpt>
      <trkpt lat="45.20779" lon="6.01909">
        <ele>2089</ele>
        <time>2024-06-05T23:14:11+00:00</time>
      </trkpt>
      <trkpt lat="45.20778" lon="6.01911">
        <ele>2084</ele>
        <time>2024-06-05T23:14:14+00:00</time>
      </trkpt>
      <trkpt lat="45.20778" lon="6.01915">
        <ele>2084</ele>
        <time>2024-06-05T23:14:17+00:00</time>
      </trkpt>
      <trkpt lat="45.20781" lon="6.01919">
        <ele>2085</ele>
        <time>2024-06-05T23:14:20+00:00</time>
      </trkpt>
      <trkpt lat="45.20782" lon="6.01926">
        <ele>2082</ele>
        <time>2024-06-05T23:14:23+00:00</time>
      </trkpt>
      <trkpt lat="45.20787" lon="6.01935">
        <ele>2080</ele>
        <time>2024-06-05T23:14:26+00:00</time>
      </trkpt>
      <trkpt lat="45.20792" lon="6.01942">
        <ele>2077</ele>
        <time>2024-06-05T23:14:29+00:00</time>
      </trkpt>
      <trkpt lat="45.20794" lon="6.01949">
        <ele>2077</ele>
        <time>2024-06-05T23:14:32+00:00</time>
      </trkpt>
      <trkpt lat="45.20796" lon="6.01951">
        <ele>2074</ele>
        <time>2024-06-05T23:14:35+00:00</time>
      </trkpt>
      <trkpt lat="45.20796" lon="6.01957">
        <ele>2074</ele>
        <time>2024-06-05T23:14:38+00:00</time>
      </trkpt>
      <trkpt lat="45.20795" lon="6.01958">
        <ele>2074</ele>
        <time>2024-06-05T23:14:41+00:00</time>
      </trkpt>
      <trkpt lat="45.20792" lon="6.01958">
        <ele>2074</ele>
        <time>2024-06-05T23:14:44+00:00</time>
      </trkpt>
      <trkpt lat="45.20791" lon="6.0196">
        <ele>2074</ele>
        <time>2024-06-05T23:14:47+00:00</time>
      </trkpt>
      <trkpt lat="45.20789" lon="6.01965">
        <ele>2071</ele>
        <time>2024-06-05T23:14:50+00:00</time>
      </trkpt>
      <trkpt lat="45.20787" lon="6.01967">
        <ele>2071</ele>
        <time>2024-06-05T23:14:53+00:00</time>
      </trkpt>
      <trkpt lat="45.20787" lon="6.01968">
        <ele>2071</ele>
        <time>2024-06-05T23:14:56+00:00</time>
      </trkpt>
      <trkpt lat="45.20788" lon="6.01971">
        <ele>2066</ele>
        <time>2024-06-05T23:14:59+00:00</time>
      </trkpt>
      <trkpt lat="45.20786" lon="6.01973">
        <ele>2066</ele>
        <time>2024-06-05T23:15:02+00:00</time>
      </trkpt>
      <trkpt lat="45.20786" lon="6.01977">
        <ele>2066</ele>
        <time>2024-06-05T23:15:05+00:00</time>
      </trkpt>
      <trkpt lat="45.20784" lon="6.01979">
        <ele>2066</ele>
        <time>2024-06-05T23:15:08+00:00</time>
      </trkpt>
      <trkpt lat="45.20784" lon="6.01981">
        <ele>2062</ele>
        <time>2024-06-05T23:15:11+00:00</time>
      </trkpt>
      <trkpt lat="45.20782" lon="6.01984">
        <ele>2062</ele>
        <time>2024-06-05T23:15:14+00:00</time>
      </trkpt>
      <trkpt lat="45.20782" lon="6.01986">
        <ele>2062</ele>
        <time>2024-06-05T23:15:17+00:00</time>
      </trkpt>
      <trkpt lat="45.20784" lon="6.01988">
        <ele>2062</ele>
        <time>2024-06-05T23:15:20+00:00</time>
      </trkpt>
      <trkpt lat="45.20784" lon="6.01993">
        <ele>2059</ele>
        <time>2024-06-05T23:15:23+00:00</time>
      </trkpt>
      <trkpt lat="45.20784" lon="6.01994">
        <ele>2059</ele>
        <time>2024-06-05T23:15:26+00:00</time>
      </trkpt>
      <trkpt lat="45.20783" lon="6.01996">
        <ele>2059</ele>
        <time>2024-06-05T23:15:29+00:00</time>
      </trkpt>
      <trkpt lat="45.20783" lon="6.01999">
        <ele>2059</ele>
        <time>2024-06-05T23:15:32+00:00</time>
      </trkpt>
      <trkpt lat="45.20783" lon="6.02">
        <ele>2053</ele>
        <time>2024-06-05T23:15:35+00:00</time>
      </trkpt>
      <trkpt lat="45.20784" lon="6.02004">
        <ele>2053</ele>
        <time>2024-06-05T23:15:38+00:00</time>
      </trkpt>
      <trkpt lat="45.20784" lon="6.02006">
        <ele>2053</ele>
        <time>2024-06-05T23:15:41+00:00</time>
      </trkpt>
      <trkpt lat="45.20786" lon="6.02008">
        <ele>2053</ele>
        <time>2024-06-05T23:15:44+00:00</time>
      </trkpt>
      <trkpt lat="45.20789" lon="6.02008">
        <ele>2053</ele>
        <time>2024-06-05T23:15:47+00:00</time>
      </trkpt>
      <trkpt lat="45.2079" lon="6.02007">
        <ele>2053</ele>
        <time>2024-06-05T23:15:50+00:00</time>
      </trkpt>
      <trkpt lat="45.20793" lon="6.02009">
        <ele>2053</ele>
        <time>2024-06-05T23:15:53+00:00</time>
      </trkpt>
      <trkpt lat="45.20793" lon="6.02012">
        <ele>2049</ele>
        <time>2024-06-05T23:15:56+00:00</time>
      </trkpt>
      <trkpt lat="45.20794" lon="6.02013">
        <ele>2049</ele>
        <time>2024-06-05T23:15:59+00:00</time>
      </trkpt>
      <trkpt lat="45.20793" lon="6.02015">
        <ele>2049</ele>
        <time>2024-06-05T23:16:02+00:00</time>
      </trkpt>
      <trkpt lat="45.20794" lon="6.02015">
        <ele>2049</ele>
        <time>2024-06-05T23:16:05+00:00</time>
      </trkpt>
      <trkpt lat="45.20794" lon="6.02015">
        <ele>2049</ele>
        <time>2024-06-05T23:16:08+00:00</time>
      </trkpt>
      <trkpt lat="45.20793" lon="6.02018">
        <ele>2049</ele>
        <time>2024-06-05T23:16:11+00:00</time>
      </trkpt>
      <trkpt lat="45.20794" lon="6.02021">
        <ele>2045</ele>
        <time>2024-06-05T23:16:14+00:00</time>
      </trkpt>
      <trkpt lat="45.20794" lon="6.02021">
        <ele>2045</ele>
        <time>2024-06-05T23:16:17+00:00</time>
      </trkpt>
      <trkpt lat="45.208" lon="6.02017">
        <ele>2049</ele>
        <time>2024-06-05T23:16:20+00:00</time>
      </trkpt>
      <trkpt lat="45.20802" lon="6.02018">
        <ele>2047</ele>
        <time>2024-06-05T23:16:23+00:00</time>
      </trkpt>
      <trkpt lat="45.20802" lon="6.0202">
        <ele>2047</ele>
        <time>2024-06-05T23:16:26+00:00</time>
      </trkpt>
      <trkpt lat="45.20797" lon="6.0203">
        <ele>2045</ele>
        <time>2024-06-05T23:16:29+00:00</time>
      </trkpt>
      <trkpt lat="45.20794" lon="6.02041">
        <ele>2036</ele>
        <time>2024-06-05T23:16:32+00:00</time>
      </trkpt>
      <trkpt lat="45.20793" lon="6.02042">
        <ele>2036</ele>
        <time>2024-06-05T23:16:35+00:00</time>
      </trkpt>
      <trkpt lat="45.20789" lon="6.02045">
        <ele>2037</ele>
        <time>2024-06-05T23:16:38+00:00</time>
      </trkpt>
      <trkpt lat="45.20789" lon="6.02047">
        <ele>2037</ele>
        <time>2024-06-05T23:16:41+00:00</time>
      </trkpt>
      <trkpt lat="45.20791" lon="6.0205">
        <ele>2033</ele>
        <time>2024-06-05T23:16:44+00:00</time>
      </trkpt>
      <trkpt lat="45.20794" lon="6.02052">
        <ele>2033</ele>
        <time>2024-06-05T23:16:47+00:00</time>
      </trkpt>
      <trkpt lat="45.20795" lon="6.02059">
        <ele>2033</ele>
        <time>2024-06-05T23:16:50+00:00</time>
      </trkpt>
      <trkpt lat="45.20792" lon="6.02064">
        <ele>2029</ele>
        <time>2024-06-05T23:16:53+00:00</time>
      </trkpt>
      <trkpt lat="45.20788" lon="6.02067">
        <ele>2029</ele>
        <time>2024-06-05T23:16:56+00:00</time>
      </trkpt>
      <trkpt lat="45.20785" lon="6.0207">
        <ele>2029</ele>
        <time>2024-06-05T23:16:59+00:00</time>
      </trkpt>
      <trkpt lat="45.20783" lon="6.02076">
        <ele>2026</ele>
        <time>2024-06-05T23:17:02+00:00</time>
      </trkpt>
      <trkpt lat="45.20783" lon="6.02079">
        <ele>2026</ele>
        <time>2024-06-05T23:17:05+00:00</time>
      </trkpt>
      <trkpt lat="45.20781" lon="6.02086">
        <ele>2024</ele>
        <time>2024-06-05T23:17:08+00:00</time>
      </trkpt>
      <trkpt lat="45.20779" lon="6.0209">
        <ele>2023</ele>
        <time>2024-06-05T23:17:11+00:00</time>
      </trkpt>
      <trkpt lat="45.20775" lon="6.02096">
        <ele>2020</ele>
        <time>2024-06-05T23:17:14+00:00</time>
      </trkpt>
      <trkpt lat="45.20774" lon="6.02099">
        <ele>2020</ele>
        <time>2024-06-05T23:17:17+00:00</time>
      </trkpt>
      <trkpt lat="45.20774" lon="6.021">
        <ele>2020</ele>
        <time>2024-06-05T23:17:20+00:00</time>
      </trkpt>
      <trkpt lat="45.20781" lon="6.02105">
        <ele>2018</ele>
        <time>2024-06-05T23:17:23+00:00</time>
      </trkpt>
      <trkpt lat="45.20788" lon="6.02109">
        <ele>2018</ele>
        <time>2024-06-05T23:17:26+00:00</time>
      </trkpt>
      <trkpt lat="45.20795" lon="6.02109">
        <ele>2018</ele>
        <time>2024-06-05T23:17:29+00:00</time>
      </trkpt>
      <trkpt lat="45.20802" lon="6.02111">
        <ele>2017</ele>
        <time>2024-06-05T23:17:32+00:00</time>
      </trkpt>
      <trkpt lat="45.20811" lon="6.02105">
        <ele>2013</ele>
        <time>2024-06-05T23:17:35+00:00</time>
      </trkpt>
      <trkpt lat="45.20817" lon="6.02099">
        <ele>2016</ele>
        <time>2024-06-05T23:17:38+00:00</time>
      </trkpt>
      <trkpt lat="45.2082" lon="6.02097">
        <ele>2016</ele>
        <time>2024-06-05T23:17:41+00:00</time>
      </trkpt>
      <trkpt lat="45.20825" lon="6.02092">
        <ele>2012</ele>
        <time>2024-06-05T23:17:44+00:00</time>
      </trkpt>
      <trkpt lat="45.2083" lon="6.02086">
        <ele>2017</ele>
        <time>2024-06-05T23:17:47+00:00</time>
      </trkpt>
      <trkpt lat="45.20835" lon="6.02081">
        <ele>2012</ele>
        <time>2024-06-05T23:17:50+00:00</time>
      </trkpt>
      <trkpt lat="45.2084" lon="6.02072">
        <ele>2015</ele>
        <time>2024-06-05T23:17:53+00:00</time>
      </trkpt>
      <trkpt lat="45.20845" lon="6.02067">
        <ele>2013</ele>
        <time>2024-06-05T23:17:56+00:00</time>
      </trkpt>
      <trkpt lat="45.20851" lon="6.02064">
        <ele>2010</ele>
        <time>2024-06-05T23:17:59+00:00</time>
      </trkpt>
      <trkpt lat="45.20854" lon="6.02061">
        <ele>2010</ele>
        <time>2024-06-05T23:18:02+00:00</time>
      </trkpt>
      <trkpt lat="45.20856" lon="6.0206">
        <ele>2010</ele>
        <time>2024-06-05T23:18:05+00:00</time>
      </trkpt>
      <trkpt lat="45.20858" lon="6.02057">
        <ele>2014</ele>
        <time>2024-06-05T23:18:08+00:00</time>
      </trkpt>
      <trkpt lat="45.20862" lon="6.02055">
        <ele>2012</ele>
        <time>2024-06-05T23:18:11+00:00</time>
      </trkpt>
      <trkpt lat="45.20865" lon="6.02054">
        <ele>2012</ele>
        <time>2024-06-05T23:18:14+00:00</time>
      </trkpt>
      <trkpt lat="45.2087" lon="6.0205">
        <ele>2012</ele>
        <time>2024-06-05T23:18:17+00:00</time>
      </trkpt>
      <trkpt lat="45.20872" lon="6.0205">
        <ele>2011</ele>
        <time>2024-06-05T23:18:20+00:00</time>
      </trkpt>
      <trkpt lat="45.20873" lon="6.02051">
        <ele>2011</ele>
        <time>2024-06-05T23:18:23+00:00</time>
      </trkpt>
      <trkpt lat="45.20877" lon="6.02052">
        <ele>2013</ele>
        <time>2024-06-05T23:18:26+00:00</time>
      </trkpt>
      <trkpt lat="45.2089" lon="6.02056">
        <ele>2012</ele>
        <time>2024-06-05T23:18:29+00:00</time>
      </trkpt>
      <trkpt lat="45.20901" lon="6.02058">
        <ele>2013</ele>
        <time>2024-06-05T23:18:32+00:00</time>
      </trkpt>
      <trkpt lat="45.20909" lon="6.02055">
        <ele>2013</ele>
        <time>2024-06-05T23:18:35+00:00</time>
      </trkpt>
      <trkpt lat="45.20918" lon="6.02052">
        <ele>2011</ele>
        <time>2024-06-05T23:18:38+00:00</time>
      </trkpt>
      <trkpt lat="45.20923" lon="6.0205">
        <ele>2013</ele>
        <time>2024-06-05T23:18:41+00:00</time>
      </trkpt>
      <trkpt lat="45.20926" lon="6.02047">
        <ele>2014</ele>
        <time>2024-06-05T23:18:44+00:00</time>
      </trkpt>
      <trkpt lat="45.20931" lon="6.02046">
        <ele>2013</ele>
        <time>2024-06-05T23:18:47+00:00</time>
      </trkpt>
      <trkpt lat="45.20936" lon="6.02044">
        <ele>2013</ele>
        <time>2024-06-05T23:18:50+00:00</time>
      </trkpt>
      <trkpt lat="45.20941" lon="6.02045">
        <ele>2013</ele>
        <time>2024-06-05T23:18:53+00:00</time>
      </trkpt>
      <trkpt lat="45.20943" lon="6.02045">
        <ele>2013</ele>
        <time>2024-06-05T23:18:56+00:00</time>
      </trkpt>
      <trkpt lat="45.20949" lon="6.02046">
        <ele>2013</ele>
        <time>2024-06-05T23:18:59+00:00</time>
      </trkpt>
      <trkpt lat="45.20953" lon="6.02045">
        <ele>2014</ele>
        <time>2024-06-05T23:19:02+00:00</time>
      </trkpt>
      <trkpt lat="45.20956" lon="6.02043">
        <ele>2014</ele>
        <time>2024-06-05T23:19:05+00:00</time>
      </trkpt>
      <trkpt lat="45.20967" lon="6.02044">
        <ele>2016</ele>
        <time>2024-06-05T23:19:08+00:00</time>
      </trkpt>
      <trkpt lat="45.20971" lon="6.02047">
        <ele>2016</ele>
        <time>2024-06-05T23:19:11+00:00</time>
      </trkpt>
      <trkpt lat="45.20974" lon="6.02045">
        <ele>2016</ele>
        <time>2024-06-05T23:19:14+00:00</time>
      </trkpt>
      <trkpt lat="45.20978" lon="6.02042">
        <ele>2016</ele>
        <time>2024-06-05T23:19:17+00:00</time>
      </trkpt>
      <trkpt lat="45.20983" lon="6.0204">
        <ele>2016</ele>
        <time>2024-06-05T23:19:20+00:00</time>
      </trkpt>
      <trkpt lat="45.20985" lon="6.02037">
        <ele>2018</ele>
        <time>2024-06-05T23:19:23+00:00</time>
      </trkpt>
      <trkpt lat="45.20987" lon="6.02036">
        <ele>2018</ele>
        <time>2024-06-05T23:19:26+00:00</time>
      </trkpt>
      <trkpt lat="45.20993" lon="6.0204">
        <ele>2018</ele>
        <time>2024-06-05T23:19:29+00:00</time>
      </trkpt>
      <trkpt lat="45.20996" lon="6.02042">
        <ele>2017</ele>
        <time>2024-06-05T23:19:32+00:00</time>
      </trkpt>
      <trkpt lat="45.21005" lon="6.02043">
        <ele>2018</ele>
        <time>2024-06-05T23:19:35+00:00</time>
      </trkpt>
      <trkpt lat="45.21011" lon="6.02042">
        <ele>2018</ele>
        <time>2024-06-05T23:19:38+00:00</time>
      </trkpt>
      <trkpt lat="45.21013" lon="6.02043">
        <ele>2018</ele>
        <time>2024-06-05T23:19:41+00:00</time>
      </trkpt>
      <trkpt lat="45.21014" lon="6.02043">
        <ele>2018</ele>
        <time>2024-06-05T23:19:44+00:00</time>
      </trkpt>
      <trkpt lat="45.21017" lon="6.02044">
        <ele>2018</ele>
        <time>2024-06-05T23:19:47+00:00</time>
      </trkpt>
      <trkpt lat="45.21019" lon="6.02046">
        <ele>2018</ele>
        <time>2024-06-05T23:19:50+00:00</time>
      </trkpt>
      <trkpt lat="45.21025" lon="6.02046">
        <ele>2017</ele>
        <time>2024-06-05T23:19:53+00:00</time>
      </trkpt>
      <trkpt lat="45.21028" lon="6.02048">
        <ele>2019</ele>
        <time>2024-06-05T23:19:56+00:00</time>
      </trkpt>
      <trkpt lat="45.21036" lon="6.02048">
        <ele>2019</ele>
        <time>2024-06-05T23:19:59+00:00</time>
      </trkpt>
      <trkpt lat="45.21039" lon="6.0205">
        <ele>2018</ele>
        <time>2024-06-05T23:20:02+00:00</time>
      </trkpt>
      <trkpt lat="45.21049" lon="6.02062">
        <ele>2016</ele>
        <time>2024-06-05T23:20:05+00:00</time>
      </trkpt>
      <trkpt lat="45.21052" lon="6.02064">
        <ele>2017</ele>
        <time>2024-06-05T23:20:08+00:00</time>
      </trkpt>
      <trkpt lat="45.21056" lon="6.02068">
        <ele>2017</ele>
        <time>2024-06-05T23:20:11+00:00</time>
      </trkpt>
      <trkpt lat="45.2106" lon="6.02071">
        <ele>2015</ele>
        <time>2024-06-05T23:20:14+00:00</time>
      </trkpt>
      <trkpt lat="45.21064" lon="6.02077">
        <ele>2015</ele>
        <time>2024-06-05T23:20:17+00:00</time>
      </trkpt>
      <trkpt lat="45.21066" lon="6.02079">
        <ele>2015</ele>
        <time>2024-06-05T23:20:20+00:00</time>
      </trkpt>
      <trkpt lat="45.2107" lon="6.02081">
        <ele>2016</ele>
        <time>2024-06-05T23:20:23+00:00</time>
      </trkpt>
      <trkpt lat="45.21073" lon="6.02086">
        <ele>2016</ele>
        <time>2024-06-05T23:20:26+00:00</time>
      </trkpt>
      <trkpt lat="45.21075" lon="6.02092">
        <ele>2013</ele>
        <time>2024-06-05T23:20:29+00:00</time>
      </trkpt>
      <trkpt lat="45.21079" lon="6.02104">
        <ele>2014</ele>
        <time>2024-06-05T23:20:32+00:00</time>
      </trkpt>
      <trkpt lat="45.2108" lon="6.02111">
        <ele>2009</ele>
        <time>2024-06-05T23:20:35+00:00</time>
      </trkpt>
      <trkpt lat="45.21082" lon="6.02117">
        <ele>2012</ele>
        <time>2024-06-05T23:20:38+00:00</time>
      </trkpt>
      <trkpt lat="45.21084" lon="6.02123">
        <ele>2010</ele>
        <time>2024-06-05T23:20:41+00:00</time>
      </trkpt>
      <trkpt lat="45.21085" lon="6.02128">
        <ele>2010</ele>
        <time>2024-06-05T23:20:44+00:00</time>
      </trkpt>
      <trkpt lat="45.21095" lon="6.02147">
        <ele>2013</ele>
        <time>2024-06-05T23:20:47+00:00</time>
      </trkpt>
      <trkpt lat="45.21103" lon="6.02156">
        <ele>2013</ele>
        <time>2024-06-05T23:20:50+00:00</time>
      </trkpt>
      <trkpt lat="45.21107" lon="6.02159">
        <ele>2013</ele>
        <time>2024-06-05T23:20:53+00:00</time>
      </trkpt>
      <trkpt lat="45.21109" lon="6.02161">
        <ele>2010</ele>
        <time>2024-06-05T23:20:56+00:00</time>
      </trkpt>
      <trkpt lat="45.21111" lon="6.02161">
        <ele>2013</ele>
        <time>2024-06-05T23:20:59+00:00</time>
      </trkpt>
      <trkpt lat="45.21113" lon="6.02161">
        <ele>2013</ele>
        <time>2024-06-05T23:21:02+00:00</time>
      </trkpt>
      <trkpt lat="45.21118" lon="6.02164">
        <ele>2013</ele>
        <time>2024-06-05T23:21:05+00:00</time>
      </trkpt>
      <trkpt lat="45.21125" lon="6.02173">
        <ele>2017</ele>
        <time>2024-06-05T23:21:08+00:00</time>
      </trkpt>
      <trkpt lat="45.21126" lon="6.02177">
        <ele>2017</ele>
        <time>2024-06-05T23:21:11+00:00</time>
      </trkpt>
      <trkpt lat="45.21129" lon="6.02183">
        <ele>2016</ele>
        <time>2024-06-05T23:21:14+00:00</time>
      </trkpt>
      <trkpt lat="45.21132" lon="6.02182">
        <ele>2021</ele>
        <time>2024-06-05T23:21:17+00:00</time>
      </trkpt>
      <trkpt lat="45.21133" lon="6.02183">
        <ele>2021</ele>
        <time>2024-06-05T23:21:20+00:00</time>
      </trkpt>
      <trkpt lat="45.21133" lon="6.02186">
        <ele>2021</ele>
        <time>2024-06-05T23:21:23+00:00</time>
      </trkpt>
      <trkpt lat="45.21135" lon="6.02191">
        <ele>2021</ele>
        <time>2024-06-05T23:21:26+00:00</time>
      </trkpt>
      <trkpt lat="45.21138" lon="6.02191">
        <ele>2021</ele>
        <time>2024-06-05T23:21:29+00:00</time>
      </trkpt>
      <trkpt lat="45.2114" lon="6.02194">
        <ele>2021</ele>
        <time>2024-06-05T23:21:32+00:00</time>
      </trkpt>
      <trkpt lat="45.2114" lon="6.02195">
        <ele>2021</ele>
        <time>2024-06-05T23:21:35+00:00</time>
      </trkpt>
      <trkpt lat="45.21144" lon="6.02204">
        <ele>2026</ele>
        <time>2024-06-05T23:21:38+00:00</time>
      </trkpt>
      <trkpt lat="45.21148" lon="6.02207">
        <ele>2026</ele>
        <time>2024-06-05T23:21:41+00:00</time>
      </trkpt>
      <trkpt lat="45.21151" lon="6.02208">
        <ele>2032</ele>
        <time>2024-06-05T23:21:44+00:00</time>
      </trkpt>
      <trkpt lat="45.21159" lon="6.02208">
        <ele>2032</ele>
        <time>2024-06-05T23:21:47+00:00</time>
      </trkpt>
      <trkpt lat="45.21171" lon="6.0221">
        <ele>2038</ele>
        <time>2024-06-05T23:21:50+00:00</time>
      </trkpt>
      <trkpt lat="45.21171" lon="6.02211">
        <ele>2038</ele>
        <time>2024-06-05T23:21:53+00:00</time>
      </trkpt>
      <trkpt lat="45.21172" lon="6.02213">
        <ele>2038</ele>
        <time>2024-06-05T23:21:56+00:00</time>
      </trkpt>
      <trkpt lat="45.21174" lon="6.02214">
        <ele>2038</ele>
        <time>2024-06-05T23:21:59+00:00</time>
      </trkpt>
      <trkpt lat="45.21176" lon="6.02213">
        <ele>2038</ele>
        <time>2024-06-05T23:22:02+00:00</time>
      </trkpt>
      <trkpt lat="45.21177" lon="6.02212">
        <ele>2038</ele>
        <time>2024-06-05T23:22:05+00:00</time>
      </trkpt>
      <trkpt lat="45.21178" lon="6.02211">
        <ele>2038</ele>
        <time>2024-06-05T23:22:08+00:00</time>
      </trkpt>
      <trkpt lat="45.21179" lon="6.02209">
        <ele>2039</ele>
        <time>2024-06-05T23:22:11+00:00</time>
      </trkpt>
      <trkpt lat="45.2118" lon="6.022">
        <ele>2046</ele>
        <time>2024-06-05T23:22:14+00:00</time>
      </trkpt>
      <trkpt lat="45.21183" lon="6.022">
        <ele>2046</ele>
        <time>2024-06-05T23:22:17+00:00</time>
      </trkpt>
      <trkpt lat="45.21185" lon="6.02201">
        <ele>2045</ele>
        <time>2024-06-05T23:22:20+00:00</time>
      </trkpt>
      <trkpt lat="45.21189" lon="6.02209">
        <ele>2045</ele>
        <time>2024-06-05T23:22:23+00:00</time>
      </trkpt>
      <trkpt lat="45.21192" lon="6.02211">
        <ele>2047</ele>
        <time>2024-06-05T23:22:26+00:00</time>
      </trkpt>
      <trkpt lat="45.21194" lon="6.02215">
        <ele>2047</ele>
        <time>2024-06-05T23:22:29+00:00</time>
      </trkpt>
      <trkpt lat="45.21196" lon="6.02218">
        <ele>2047</ele>
        <time>2024-06-05T23:22:32+00:00</time>
      </trkpt>
      <trkpt lat="45.21197" lon="6.0222">
        <ele>2047</ele>
        <time>2024-06-05T23:22:35+00:00</time>
      </trkpt>
      <trkpt lat="45.21201" lon="6.02221">
        <ele>2051</ele>
        <time>2024-06-05T23:22:38+00:00</time>
      </trkpt>
      <trkpt lat="45.21205" lon="6.02225">
        <ele>2051</ele>
        <time>2024-06-05T23:22:41+00:00</time>
      </trkpt>
      <trkpt lat="45.21207" lon="6.02225">
        <ele>2051</ele>
        <time>2024-06-05T23:22:44+00:00</time>
      </trkpt>
      <trkpt lat="45.21211" lon="6.02232">
        <ele>2059</ele>
        <time>2024-06-05T23:22:47+00:00</time>
      </trkpt>
      <trkpt lat="45.21211" lon="6.02234">
        <ele>2059</ele>
        <time>2024-06-05T23:22:50+00:00</time>
      </trkpt>
      <trkpt lat="45.2121" lon="6.02238">
        <ele>2059</ele>
        <time>2024-06-05T23:22:53+00:00</time>
      </trkpt>
      <trkpt lat="45.21211" lon="6.02239">
        <ele>2059</ele>
        <time>2024-06-05T23:22:56+00:00</time>
      </trkpt>
      <trkpt lat="45.21214" lon="6.02238">
        <ele>2059</ele>
        <time>2024-06-05T23:22:59+00:00</time>
      </trkpt>
      <trkpt lat="45.21215" lon="6.02238">
        <ele>2059</ele>
        <time>2024-06-05T23:23:02+00:00</time>
      </trkpt>
      <trkpt lat="45.21216" lon="6.02242">
        <ele>2060</ele>
        <time>2024-06-05T23:23:05+00:00</time>
      </trkpt>
      <trkpt lat="45.21215" lon="6.02246">
        <ele>2060</ele>
        <time>2024-06-05T23:23:08+00:00</time>
      </trkpt>
      <trkpt lat="45.21219" lon="6.02255">
        <ele>2061</ele>
        <time>2024-06-05T23:23:11+00:00</time>
      </trkpt>
      <trkpt lat="45.21221" lon="6.02258">
        <ele>2065</ele>
        <time>2024-06-05T23:23:14+00:00</time>
      </trkpt>
      <trkpt lat="45.21227" lon="6.02269">
        <ele>2065</ele>
        <time>2024-06-05T23:23:17+00:00</time>
      </trkpt>
      <trkpt lat="45.2123" lon="6.02276">
        <ele>2065</ele>
        <time>2024-06-05T23:23:20+00:00</time>
      </trkpt>
      <trkpt lat="45.21235" lon="6.02287">
        <ele>2068</ele>
        <time>2024-06-05T23:23:23+00:00</time>
      </trkpt>
      <trkpt lat="45.21237" lon="6.02291">
        <ele>2067</ele>
        <time>2024-06-05T23:23:26+00:00</time>
      </trkpt>
      <trkpt lat="45.21238" lon="6.02293">
        <ele>2063</ele>
        <time>2024-06-05T23:23:29+00:00</time>
      </trkpt>
      <trkpt lat="45.21238" lon="6.02296">
        <ele>2067</ele>
        <time>2024-06-05T23:23:32+00:00</time>
      </trkpt>
      <trkpt lat="45.21239" lon="6.02297">
        <ele>2067</ele>
        <time>2024-06-05T23:23:35+00:00</time>
      </trkpt>
      <trkpt lat="45.21239" lon="6.02303">
        <ele>2064</ele>
        <time>2024-06-05T23:23:38+00:00</time>
      </trkpt>
      <trkpt lat="45.21241" lon="6.02306">
        <ele>2069</ele>
        <time>2024-06-05T23:23:41+00:00</time>
      </trkpt>
      <trkpt lat="45.21242" lon="6.02315">
        <ele>2066</ele>
        <time>2024-06-05T23:23:44+00:00</time>
      </trkpt>
      <trkpt lat="45.21246" lon="6.02325">
        <ele>2062</ele>
        <time>2024-06-05T23:23:47+00:00</time>
      </trkpt>
      <trkpt lat="45.21247" lon="6.02328">
        <ele>2062</ele>
        <time>2024-06-05T23:23:50+00:00</time>
      </trkpt>
      <trkpt lat="45.21251" lon="6.02339">
        <ele>2065</ele>
        <time>2024-06-05T23:23:53+00:00</time>
      </trkpt>
      <trkpt lat="45.21252" lon="6.02341">
        <ele>2062</ele>
        <time>2024-06-05T23:23:56+00:00</time>
      </trkpt>
      <trkpt lat="45.21255" lon="6.02351">
        <ele>2059</ele>
        <time>2024-06-05T23:23:59+00:00</time>
      </trkpt>
      <trkpt lat="45.21256" lon="6.02356">
        <ele>2059</ele>
        <time>2024-06-05T23:24:02+00:00</time>
      </trkpt>
      <trkpt lat="45.21259" lon="6.02378">
        <ele>2061</ele>
        <time>2024-06-05T23:24:05+00:00</time>
      </trkpt>
      <trkpt lat="45.21261" lon="6.0238">
        <ele>2059</ele>
        <time>2024-06-05T23:24:08+00:00</time>
      </trkpt>
      <trkpt lat="45.21261" lon="6.02385">
        <ele>2059</ele>
        <time>2024-06-05T23:24:11+00:00</time>
      </trkpt>
      <trkpt lat="45.21262" lon="6.0239">
        <ele>2059</ele>
        <time>2024-06-05T23:24:14+00:00</time>
      </trkpt>
      <trkpt lat="45.21267" lon="6.02397">
        <ele>2057</ele>
        <time>2024-06-05T23:24:17+00:00</time>
      </trkpt>
      <trkpt lat="45.21269" lon="6.02398">
        <ele>2057</ele>
        <time>2024-06-05T23:24:20+00:00</time>
      </trkpt>
      <trkpt lat="45.21272" lon="6.02403">
        <ele>2063</ele>
        <time>2024-06-05T23:24:23+00:00</time>
      </trkpt>
      <trkpt lat="45.21272" lon="6.02406">
        <ele>2063</ele>
        <time>2024-06-05T23:24:26+00:00</time>
      </trkpt>
      <trkpt lat="45.21275" lon="6.02414">
        <ele>2061</ele>
        <time>2024-06-05T23:24:29+00:00</time>
      </trkpt>
      <trkpt lat="45.21285" lon="6.02424">
        <ele>2064</ele>
        <time>2024-06-05T23:24:32+00:00</time>
      </trkpt>
      <trkpt lat="45.21288" lon="6.02433">
        <ele>2063</ele>
        <time>2024-06-05T23:24:35+00:00</time>
      </trkpt>
      <trkpt lat="45.2129" lon="6.02441">
        <ele>2067</ele>
        <time>2024-06-05T23:24:38+00:00</time>
      </trkpt>
      <trkpt lat="45.21292" lon="6.02444">
        <ele>2067</ele>
        <time>2024-06-05T23:24:41+00:00</time>
      </trkpt>
      <trkpt lat="45.21295" lon="6.02446">
        <ele>2067</ele>
        <time>2024-06-05T23:24:44+00:00</time>
      </trkpt>
      <trkpt lat="45.21296" lon="6.02448">
        <ele>2067</ele>
        <time>2024-06-05T23:24:47+00:00</time>
      </trkpt>
      <trkpt lat="45.21298" lon="6.0245">
        <ele>2066</ele>
        <time>2024-06-05T23:24:50+00:00</time>
      </trkpt>
      <trkpt lat="45.21298" lon="6.02452">
        <ele>2066</ele>
        <time>2024-06-05T23:24:53+00:00</time>
      </trkpt>
      <trkpt lat="45.21299" lon="6.02452">
        <ele>2066</ele>
        <time>2024-06-05T23:24:56+00:00</time>
      </trkpt>
      <trkpt lat="45.213" lon="6.02455">
        <ele>2066</ele>
        <time>2024-06-05T23:24:59+00:00</time>
      </trkpt>
      <trkpt lat="45.21303" lon="6.02458">
        <ele>2074</ele>
        <time>2024-06-05T23:25:02+00:00</time>
      </trkpt>
      <trkpt lat="45.21303" lon="6.02461">
        <ele>2073</ele>
        <time>2024-06-05T23:25:05+00:00</time>
      </trkpt>
      <trkpt lat="45.21306" lon="6.02463">
        <ele>2073</ele>
        <time>2024-06-05T23:25:08+00:00</time>
      </trkpt>
      <trkpt lat="45.21307" lon="6.02468">
        <ele>2073</ele>
        <time>2024-06-05T23:25:11+00:00</time>
      </trkpt>
      <trkpt lat="45.21309" lon="6.0247">
        <ele>2072</ele>
        <time>2024-06-05T23:25:14+00:00</time>
      </trkpt>
      <trkpt lat="45.21312" lon="6.02473">
        <ele>2077</ele>
        <time>2024-06-05T23:25:17+00:00</time>
      </trkpt>
      <trkpt lat="45.21316" lon="6.02473">
        <ele>2077</ele>
        <time>2024-06-05T23:25:20+00:00</time>
      </trkpt>
      <trkpt lat="45.21319" lon="6.02475">
        <ele>2077</ele>
        <time>2024-06-05T23:25:23+00:00</time>
      </trkpt>
      <trkpt lat="45.21321" lon="6.02476">
        <ele>2081</ele>
        <time>2024-06-05T23:25:26+00:00</time>
      </trkpt>
      <trkpt lat="45.21322" lon="6.02476">
        <ele>2081</ele>
        <time>2024-06-05T23:25:29+00:00</time>
      </trkpt>
      <trkpt lat="45.2133" lon="6.02486">
        <ele>2087</ele>
        <time>2024-06-05T23:25:32+00:00</time>
      </trkpt>
      <trkpt lat="45.21331" lon="6.02489">
        <ele>2087</ele>
        <time>2024-06-05T23:25:35+00:00</time>
      </trkpt>
      <trkpt lat="45.21335" lon="6.0249">
        <ele>2086</ele>
        <time>2024-06-05T23:25:38+00:00</time>
      </trkpt>
      <trkpt lat="45.21338" lon="6.02495">
        <ele>2086</ele>
        <time>2024-06-05T23:25:41+00:00</time>
      </trkpt>
      <trkpt lat="45.21342" lon="6.025">
        <ele>2091</ele>
        <time>2024-06-05T23:25:44+00:00</time>
      </trkpt>
      <trkpt lat="45.21346" lon="6.02503">
        <ele>2089</ele>
        <time>2024-06-05T23:25:47+00:00</time>
      </trkpt>
      <trkpt lat="45.21347" lon="6.02506">
        <ele>2089</ele>
        <time>2024-06-05T23:25:50+00:00</time>
      </trkpt>
      <trkpt lat="45.21348" lon="6.02507">
        <ele>2089</ele>
        <time>2024-06-05T23:25:53+00:00</time>
      </trkpt>
      <trkpt lat="45.21352" lon="6.02507">
        <ele>2093</ele>
        <time>2024-06-05T23:25:56+00:00</time>
      </trkpt>
      <trkpt lat="45.21354" lon="6.02505">
        <ele>2093</ele>
        <time>2024-06-05T23:25:59+00:00</time>
      </trkpt>
      <trkpt lat="45.21355" lon="6.02505">
        <ele>2093</ele>
        <time>2024-06-05T23:26:02+00:00</time>
      </trkpt>
      <trkpt lat="45.21356" lon="6.02506">
        <ele>2093</ele>
        <time>2024-06-05T23:26:05+00:00</time>
      </trkpt>
      <trkpt lat="45.21359" lon="6.02509">
        <ele>2093</ele>
        <time>2024-06-05T23:26:08+00:00</time>
      </trkpt>
      <trkpt lat="45.2136" lon="6.02511">
        <ele>2097</ele>
        <time>2024-06-05T23:26:11+00:00</time>
      </trkpt>
      <trkpt lat="45.21362" lon="6.02512">
        <ele>2092</ele>
        <time>2024-06-05T23:26:14+00:00</time>
      </trkpt>
      <trkpt lat="45.21363" lon="6.02514">
        <ele>2097</ele>
        <time>2024-06-05T23:26:17+00:00</time>
      </trkpt>
      <trkpt lat="45.21362" lon="6.02523">
        <ele>2096</ele>
        <time>2024-06-05T23:26:20+00:00</time>
      </trkpt>
      <trkpt lat="45.21364" lon="6.02525">
        <ele>2096</ele>
        <time>2024-06-05T23:26:23+00:00</time>
      </trkpt>
      <trkpt lat="45.21368" lon="6.02524">
        <ele>2096</ele>
        <time>2024-06-05T23:26:26+00:00</time>
      </trkpt>
      <trkpt lat="45.2137" lon="6.02527">
        <ele>2098</ele>
        <time>2024-06-05T23:26:29+00:00</time>
      </trkpt>
      <trkpt lat="45.21367" lon="6.0253">
        <ele>2090</ele>
        <time>2024-06-05T23:26:32+00:00</time>
      </trkpt>
      <trkpt lat="45.21365" lon="6.02533">
        <ele>2094</ele>
        <time>2024-06-05T23:26:35+00:00</time>
      </trkpt>
      <trkpt lat="45.21365" lon="6.02535">
        <ele>2094</ele>
        <time>2024-06-05T23:26:38+00:00</time>
      </trkpt>
      <trkpt lat="45.21364" lon="6.02536">
        <ele>2094</ele>
        <time>2024-06-05T23:26:41+00:00</time>
      </trkpt>
      <trkpt lat="45.21365" lon="6.02539">
        <ele>2094</ele>
        <time>2024-06-05T23:26:44+00:00</time>
      </trkpt>
      <trkpt lat="45.21367" lon="6.02542">
        <ele>2092</ele>
        <time>2024-06-05T23:26:47+00:00</time>
      </trkpt>
      <trkpt lat="45.21371" lon="6.02545">
        <ele>2092</ele>
        <time>2024-06-05T23:26:50+00:00</time>
      </trkpt>
      <trkpt lat="45.21373" lon="6.02548">
        <ele>2092</ele>
        <time>2024-06-05T23:26:53+00:00</time>
      </trkpt>
      <trkpt lat="45.21377" lon="6.02553">
        <ele>2091</ele>
        <time>2024-06-05T23:26:56+00:00</time>
      </trkpt>
      <trkpt lat="45.21379" lon="6.02557">
        <ele>2089</ele>
        <time>2024-06-05T23:26:59+00:00</time>
      </trkpt>
      <trkpt lat="45.21385" lon="6.02562">
        <ele>2089</ele>
        <time>2024-06-05T23:27:02+00:00</time>
      </trkpt>
      <trkpt lat="45.21396" lon="6.02561">
        <ele>2092</ele>
        <time>2024-06-05T23:27:05+00:00</time>
      </trkpt>
      <trkpt lat="45.21399" lon="6.02563">
        <ele>2092</ele>
        <time>2024-06-05T23:27:08+00:00</time>
      </trkpt>
      <trkpt lat="45.21401" lon="6.02563">
        <ele>2094</ele>
        <time>2024-06-05T23:27:11+00:00</time>
      </trkpt>
      <trkpt lat="45.21412" lon="6.02569">
        <ele>2095</ele>
        <time>2024-06-05T23:27:14+00:00</time>
      </trkpt>
      <trkpt lat="45.21423" lon="6.02573">
        <ele>2091</ele>
        <time>2024-06-05T23:27:17+00:00</time>
      </trkpt>
      <trkpt lat="45.21425" lon="6.02574">
        <ele>2093</ele>
        <time>2024-06-05T23:27:20+00:00</time>
      </trkpt>
      <trkpt lat="45.21426" lon="6.02577">
        <ele>2093</ele>
        <time>2024-06-05T23:27:23+00:00</time>
      </trkpt>
      <trkpt lat="45.21431" lon="6.02578">
        <ele>2092</ele>
        <time>2024-06-05T23:27:26+00:00</time>
      </trkpt>
      <trkpt lat="45.21443" lon="6.02578">
        <ele>2091</ele>
        <time>2024-06-05T23:27:29+00:00</time>
      </trkpt>
      <trkpt lat="45.21449" lon="6.02577">
        <ele>2091</ele>
        <time>2024-06-05T23:27:32+00:00</time>
      </trkpt>
      <trkpt lat="45.21454" lon="6.02577">
        <ele>2092</ele>
        <time>2024-06-05T23:27:35+00:00</time>
      </trkpt>
      <trkpt lat="45.21458" lon="6.0258">
        <ele>2090</ele>
        <time>2024-06-05T23:27:38+00:00</time>
      </trkpt>
      <trkpt lat="45.21462" lon="6.0259">
        <ele>2090</ele>
        <time>2024-06-05T23:27:41+00:00</time>
      </trkpt>
      <trkpt lat="45.21469" lon="6.02595">
        <ele>2089</ele>
        <time>2024-06-05T23:27:44+00:00</time>
      </trkpt>
      <trkpt lat="45.21478" lon="6.02599">
        <ele>2089</ele>
        <time>2024-06-05T23:27:47+00:00</time>
      </trkpt>
      <trkpt lat="45.21485" lon="6.02604">
        <ele>2087</ele>
        <time>2024-06-05T23:27:50+00:00</time>
      </trkpt>
      <trkpt lat="45.21488" lon="6.02607">
        <ele>2087</ele>
        <time>2024-06-05T23:27:53+00:00</time>
      </trkpt>
      <trkpt lat="45.21495" lon="6.02619">
        <ele>2086</ele>
        <time>2024-06-05T23:27:56+00:00</time>
      </trkpt>
      <trkpt lat="45.21498" lon="6.02621">
        <ele>2087</ele>
        <time>2024-06-05T23:27:59+00:00</time>
      </trkpt>
      <trkpt lat="45.21508" lon="6.02635">
        <ele>2087</ele>
        <time>2024-06-05T23:28:02+00:00</time>
      </trkpt>
      <trkpt lat="45.21512" lon="6.02639">
        <ele>2087</ele>
        <time>2024-06-05T23:28:05+00:00</time>
      </trkpt>
      <trkpt lat="45.21514" lon="6.02644">
        <ele>2086</ele>
        <time>2024-06-05T23:28:08+00:00</time>
      </trkpt>
      <trkpt lat="45.21514" lon="6.02653">
        <ele>2084</ele>
        <time>2024-06-05T23:28:11+00:00</time>
      </trkpt>
      <trkpt lat="45.21515" lon="6.02656">
        <ele>2084</ele>
        <time>2024-06-05T23:28:14+00:00</time>
      </trkpt>
      <trkpt lat="45.21516" lon="6.02665">
        <ele>2083</ele>
        <time>2024-06-05T23:28:17+00:00</time>
      </trkpt>
      <trkpt lat="45.21518" lon="6.0267">
        <ele>2081</ele>
        <time>2024-06-05T23:28:20+00:00</time>
      </trkpt>
      <trkpt lat="45.21526" lon="6.02677">
        <ele>2081</ele>
        <time>2024-06-05T23:28:23+00:00</time>
      </trkpt>
      <trkpt lat="45.21529" lon="6.02678">
        <ele>2081</ele>
        <time>2024-06-05T23:28:26+00:00</time>
      </trkpt>
      <trkpt lat="45.21532" lon="6.02682">
        <ele>2078</ele>
        <time>2024-06-05T23:28:29+00:00</time>
      </trkpt>
      <trkpt lat="45.21533" lon="6.02683">
        <ele>2078</ele>
        <time>2024-06-05T23:28:32+00:00</time>
      </trkpt>
      <trkpt lat="45.21533" lon="6.02682">
        <ele>2078</ele>
        <time>2024-06-05T23:28:35+00:00</time>
      </trkpt>
      <trkpt lat="45.21536" lon="6.02686">
        <ele>2078</ele>
        <time>2024-06-05T23:28:38+00:00</time>
      </trkpt>
      <trkpt lat="45.21537" lon="6.02688">
        <ele>2078</ele>
        <time>2024-06-05T23:28:41+00:00</time>
      </trkpt>
      <trkpt lat="45.21537" lon="6.0269">
        <ele>2076</ele>
        <time>2024-06-05T23:28:44+00:00</time>
      </trkpt>
      <trkpt lat="45.21539" lon="6.02692">
        <ele>2076</ele>
        <time>2024-06-05T23:28:47+00:00</time>
      </trkpt>
      <trkpt lat="45.21542" lon="6.02692">
        <ele>2073</ele>
        <time>2024-06-05T23:28:50+00:00</time>
      </trkpt>
      <trkpt lat="45.21544" lon="6.02693">
        <ele>2073</ele>
        <time>2024-06-05T23:28:53+00:00</time>
      </trkpt>
      <trkpt lat="45.21545" lon="6.02695">
        <ele>2073</ele>
        <time>2024-06-05T23:28:56+00:00</time>
      </trkpt>
      <trkpt lat="45.21549" lon="6.02697">
        <ele>2073</ele>
        <time>2024-06-05T23:28:59+00:00</time>
      </trkpt>
      <trkpt lat="45.21549" lon="6.02701">
        <ele>2070</ele>
        <time>2024-06-05T23:29:02+00:00</time>
      </trkpt>
      <trkpt lat="45.21543" lon="6.02707">
        <ele>2070</ele>
        <time>2024-06-05T23:29:05+00:00</time>
      </trkpt>
      <trkpt lat="45.21542" lon="6.02714">
        <ele>2067</ele>
        <time>2024-06-05T23:29:08+00:00</time>
      </trkpt>
      <trkpt lat="45.21543" lon="6.02715">
        <ele>2067</ele>
        <time>2024-06-05T23:29:11+00:00</time>
      </trkpt>
      <trkpt lat="45.21545" lon="6.02715">
        <ele>2067</ele>
        <time>2024-06-05T23:29:14+00:00</time>
      </trkpt>
      <trkpt lat="45.21545" lon="6.02716">
        <ele>2067</ele>
        <time>2024-06-05T23:29:17+00:00</time>
      </trkpt>
      <trkpt lat="45.21546" lon="6.02729">
        <ele>2065</ele>
        <time>2024-06-05T23:29:20+00:00</time>
      </trkpt>
      <trkpt lat="45.21545" lon="6.02731">
        <ele>2061</ele>
        <time>2024-06-05T23:29:23+00:00</time>
      </trkpt>
      <trkpt lat="45.21546" lon="6.02733">
        <ele>2061</ele>
        <time>2024-06-05T23:29:26+00:00</time>
      </trkpt>
      <trkpt lat="45.21547" lon="6.02733">
        <ele>2061</ele>
        <time>2024-06-05T23:29:29+00:00</time>
      </trkpt>
      <trkpt lat="45.21547" lon="6.02738">
        <ele>2061</ele>
        <time>2024-06-05T23:29:32+00:00</time>
      </trkpt>
      <trkpt lat="45.21548" lon="6.02737">
        <ele>2061</ele>
        <time>2024-06-05T23:29:35+00:00</time>
      </trkpt>
      <trkpt lat="45.2155" lon="6.02734">
        <ele>2061</ele>
        <time>2024-06-05T23:29:38+00:00</time>
      </trkpt>
      <trkpt lat="45.21551" lon="6.02734">
        <ele>2057</ele>
        <time>2024-06-05T23:29:41+00:00</time>
      </trkpt>
      <trkpt lat="45.21553" lon="6.02739">
        <ele>2057</ele>
        <time>2024-06-05T23:29:44+00:00</time>
      </trkpt>
      <trkpt lat="45.21553" lon="6.02741">
        <ele>2055</ele>
        <time>2024-06-05T23:29:47+00:00</time>
      </trkpt>
      <trkpt lat="45.21557" lon="6.02748">
        <ele>2055</ele>
        <time>2024-06-05T23:29:50+00:00</time>
      </trkpt>
      <trkpt lat="45.21558" lon="6.0275">
        <ele>2054</ele>
        <time>2024-06-05T23:29:53+00:00</time>
      </trkpt>
      <trkpt lat="45.21561" lon="6.02746">
        <ele>2052</ele>
        <time>2024-06-05T23:29:56+00:00</time>
      </trkpt>
      <trkpt lat="45.21563" lon="6.02746">
        <ele>2052</ele>
        <time>2024-06-05T23:29:59+00:00</time>
      </trkpt>
      <trkpt lat="45.21563" lon="6.0275">
        <ele>2051</ele>
        <time>2024-06-05T23:30:02+00:00</time>
      </trkpt>
      <trkpt lat="45.21562" lon="6.02751">
        <ele>2051</ele>
        <time>2024-06-05T23:30:05+00:00</time>
      </trkpt>
      <trkpt lat="45.21564" lon="6.02756">
        <ele>2051</ele>
        <time>2024-06-05T23:30:08+00:00</time>
      </trkpt>
      <trkpt lat="45.21564" lon="6.02765">
        <ele>2049</ele>
        <time>2024-06-05T23:30:11+00:00</time>
      </trkpt>
      <trkpt lat="45.21567" lon="6.02767">
        <ele>2049</ele>
        <time>2024-06-05T23:30:14+00:00</time>
      </trkpt>
      <trkpt lat="45.21569" lon="6.02765">
        <ele>2049</ele>
        <time>2024-06-05T23:30:17+00:00</time>
      </trkpt>
      <trkpt lat="45.21572" lon="6.02768">
        <ele>2044</ele>
        <time>2024-06-05T23:30:20+00:00</time>
      </trkpt>
      <trkpt lat="45.21574" lon="6.02768">
        <ele>2044</ele>
        <time>2024-06-05T23:30:23+00:00</time>
      </trkpt>
      <trkpt lat="45.21575" lon="6.02768">
        <ele>2044</ele>
        <time>2024-06-05T23:30:26+00:00</time>
      </trkpt>
      <trkpt lat="45.21575" lon="6.0277">
        <ele>2042</ele>
        <time>2024-06-05T23:30:29+00:00</time>
      </trkpt>
      <trkpt lat="45.2158" lon="6.02776">
        <ele>2040</ele>
        <time>2024-06-05T23:30:32+00:00</time>
      </trkpt>
      <trkpt lat="45.21584" lon="6.02793">
        <ele>2038</ele>
        <time>2024-06-05T23:30:35+00:00</time>
      </trkpt>
      <trkpt lat="45.21591" lon="6.02806">
        <ele>2034</ele>
        <time>2024-06-05T23:30:38+00:00</time>
      </trkpt>
      <trkpt lat="45.21592" lon="6.02806">
        <ele>2034</ele>
        <time>2024-06-05T23:30:41+00:00</time>
      </trkpt>
      <trkpt lat="45.21595" lon="6.02804">
        <ele>2034</ele>
        <time>2024-06-05T23:30:44+00:00</time>
      </trkpt>
      <trkpt lat="45.21596" lon="6.02804">
        <ele>2034</ele>
        <time>2024-06-05T23:30:47+00:00</time>
      </trkpt>
      <trkpt lat="45.21599" lon="6.0281">
        <ele>2034</ele>
        <time>2024-06-05T23:30:50+00:00</time>
      </trkpt>
      <trkpt lat="45.21599" lon="6.02813">
        <ele>2032</ele>
        <time>2024-06-05T23:30:53+00:00</time>
      </trkpt>
      <trkpt lat="45.21598" lon="6.02816">
        <ele>2032</ele>
        <time>2024-06-05T23:30:56+00:00</time>
      </trkpt>
      <trkpt lat="45.21599" lon="6.0282">
        <ele>2032</ele>
        <time>2024-06-05T23:30:59+00:00</time>
      </trkpt>
      <trkpt lat="45.21598" lon="6.02823">
        <ele>2030</ele>
        <time>2024-06-05T23:31:02+00:00</time>
      </trkpt>
      <trkpt lat="45.21598" lon="6.02824">
        <ele>2030</ele>
        <time>2024-06-05T23:31:05+00:00</time>
      </trkpt>
      <trkpt lat="45.216" lon="6.02827">
        <ele>2025</ele>
        <time>2024-06-05T23:31:08+00:00</time>
      </trkpt>
      <trkpt lat="45.21603" lon="6.02827">
        <ele>2025</ele>
        <time>2024-06-05T23:31:11+00:00</time>
      </trkpt>
      <trkpt lat="45.21607" lon="6.02828">
        <ele>2025</ele>
        <time>2024-06-05T23:31:14+00:00</time>
      </trkpt>
      <trkpt lat="45.21616" lon="6.02846">
        <ele>2018</ele>
        <time>2024-06-05T23:31:17+00:00</time>
      </trkpt>
      <trkpt lat="45.2162" lon="6.02849">
        <ele>2018</ele>
        <time>2024-06-05T23:31:20+00:00</time>
      </trkpt>
      <trkpt lat="45.21623" lon="6.02855">
        <ele>2015</ele>
        <time>2024-06-05T23:31:23+00:00</time>
      </trkpt>
      <trkpt lat="45.21624" lon="6.02858">
        <ele>2015</ele>
        <time>2024-06-05T23:31:26+00:00</time>
      </trkpt>
      <trkpt lat="45.21628" lon="6.02861">
        <ele>2013</ele>
        <time>2024-06-05T23:31:29+00:00</time>
      </trkpt>
      <trkpt lat="45.21633" lon="6.02861">
        <ele>2012</ele>
        <time>2024-06-05T23:31:32+00:00</time>
      </trkpt>
      <trkpt lat="45.21635" lon="6.02863">
        <ele>2012</ele>
        <time>2024-06-05T23:31:35+00:00</time>
      </trkpt>
      <trkpt lat="45.21636" lon="6.02866">
        <ele>2012</ele>
        <time>2024-06-05T23:31:38+00:00</time>
      </trkpt>
      <trkpt lat="45.21637" lon="6.02863">
        <ele>2012</ele>
        <time>2024-06-05T23:31:41+00:00</time>
      </trkpt>
      <trkpt lat="45.21641" lon="6.02863">
        <ele>2011</ele>
        <time>2024-06-05T23:31:44+00:00</time>
      </trkpt>
      <trkpt lat="45.21643" lon="6.02865">
        <ele>2011</ele>
        <time>2024-06-05T23:31:47+00:00</time>
      </trkpt>
      <trkpt lat="45.21649" lon="6.02865">
        <ele>2011</ele>
        <time>2024-06-05T23:31:50+00:00</time>
      </trkpt>
      <trkpt lat="45.21653" lon="6.02867">
        <ele>2010</ele>
        <time>2024-06-05T23:31:53+00:00</time>
      </trkpt>
      <trkpt lat="45.21675" lon="6.02866">
        <ele>2011</ele>
        <time>2024-06-05T23:31:56+00:00</time>
      </trkpt>
      <trkpt lat="45.21681" lon="6.02866">
        <ele>2010</ele>
        <time>2024-06-05T23:31:59+00:00</time>
      </trkpt>
      <trkpt lat="45.21687" lon="6.02866">
        <ele>2010</ele>
        <time>2024-06-05T23:32:02+00:00</time>
      </trkpt>
      <trkpt lat="45.2169" lon="6.02868">
        <ele>2012</ele>
        <time>2024-06-05T23:32:05+00:00</time>
      </trkpt>
      <trkpt lat="45.21694" lon="6.02868">
        <ele>2012</ele>
        <time>2024-06-05T23:32:08+00:00</time>
      </trkpt>
      <trkpt lat="45.21696" lon="6.02869">
        <ele>2007</ele>
        <time>2024-06-05T23:32:11+00:00</time>
      </trkpt>
      <trkpt lat="45.21701" lon="6.02876">
        <ele>2009</ele>
        <time>2024-06-05T23:32:14+00:00</time>
      </trkpt>
      <trkpt lat="45.21702" lon="6.02878">
        <ele>2009</ele>
        <time>2024-06-05T23:32:17+00:00</time>
      </trkpt>
      <trkpt lat="45.21705" lon="6.02881">
        <ele>2004</ele>
        <time>2024-06-05T23:32:20+00:00</time>
      </trkpt>
      <trkpt lat="45.21711" lon="6.02883">
        <ele>2003</ele>
        <time>2024-06-05T23:32:23+00:00</time>
      </trkpt>
      <trkpt lat="45.21713" lon="6.02881">
        <ele>2003</ele>
        <time>2024-06-05T23:32:26+00:00</time>
      </trkpt>
      <trkpt lat="45.21714" lon="6.02878">
        <ele>2007</ele>
        <time>2024-06-05T23:32:29+00:00</time>
      </trkpt>
      <trkpt lat="45.21716" lon="6.02877">
        <ele>2007</ele>
        <time>2024-06-05T23:32:32+00:00</time>
      </trkpt>
      <trkpt lat="45.21718" lon="6.02878">
        <ele>2007</ele>
        <time>2024-06-05T23:32:35+00:00</time>
      </trkpt>
      <trkpt lat="45.21717" lon="6.02882">
        <ele>2003</ele>
        <time>2024-06-05T23:32:38+00:00</time>
      </trkpt>
      <trkpt lat="45.2172" lon="6.02886">
        <ele>2000</ele>
        <time>2024-06-05T23:32:41+00:00</time>
      </trkpt>
      <trkpt lat="45.21723" lon="6.02886">
        <ele>2000</ele>
        <time>2024-06-05T23:32:44+00:00</time>
      </trkpt>
      <trkpt lat="45.21724" lon="6.02887">
        <ele>2000</ele>
        <time>2024-06-05T23:32:47+00:00</time>
      </trkpt>
      <trkpt lat="45.21724" lon="6.02891">
        <ele>1998</ele>
        <time>2024-06-05T23:32:50+00:00</time>
      </trkpt>
      <trkpt lat="45.21727" lon="6.02892">
        <ele>1998</ele>
        <time>2024-06-05T23:32:53+00:00</time>
      </trkpt>
      <trkpt lat="45.21728" lon="6.02893">
        <ele>1998</ele>
        <time>2024-06-05T23:32:56+00:00</time>
      </trkpt>
      <trkpt lat="45.21728" lon="6.02897">
        <ele>1998</ele>
        <time>2024-06-05T23:32:59+00:00</time>
      </trkpt>
      <trkpt lat="45.21729" lon="6.02899">
        <ele>1998</ele>
        <time>2024-06-05T23:33:02+00:00</time>
      </trkpt>
      <trkpt lat="45.21732" lon="6.02899">
        <ele>1996</ele>
        <time>2024-06-05T23:33:05+00:00</time>
      </trkpt>
      <trkpt lat="45.21736" lon="6.02901">
        <ele>1994</ele>
        <time>2024-06-05T23:33:08+00:00</time>
      </trkpt>
      <trkpt lat="45.21739" lon="6.02911">
        <ele>1991</ele>
        <time>2024-06-05T23:33:11+00:00</time>
      </trkpt>
      <trkpt lat="45.21747" lon="6.02917">
        <ele>1990</ele>
        <time>2024-06-05T23:33:14+00:00</time>
      </trkpt>
      <trkpt lat="45.21754" lon="6.02926">
        <ele>1986</ele>
        <time>2024-06-05T23:33:17+00:00</time>
      </trkpt>
      <trkpt lat="45.21761" lon="6.02939">
        <ele>1988</ele>
        <time>2024-06-05T23:33:20+00:00</time>
      </trkpt>
      <trkpt lat="45.21768" lon="6.02946">
        <ele>1986</ele>
        <time>2024-06-05T23:33:23+00:00</time>
      </trkpt>
      <trkpt lat="45.21774" lon="6.02957">
        <ele>1987</ele>
        <time>2024-06-05T23:33:26+00:00</time>
      </trkpt>
      <trkpt lat="45.21774" lon="6.02948">
        <ele>1986</ele>
        <time>2024-06-05T23:33:29+00:00</time>
      </trkpt>
      <trkpt lat="45.21775" lon="6.02946">
        <ele>1986</ele>
        <time>2024-06-05T23:33:32+00:00</time>
      </trkpt>
      <trkpt lat="45.21774" lon="6.02944">
        <ele>1986</ele>
        <time>2024-06-05T23:33:35+00:00</time>
      </trkpt>
      <trkpt lat="45.21774" lon="6.02942">
        <ele>1986</ele>
        <time>2024-06-05T23:33:38+00:00</time>
      </trkpt>
      <trkpt lat="45.21776" lon="6.02937">
        <ele>1984</ele>
        <time>2024-06-05T23:33:41+00:00</time>
      </trkpt>
      <trkpt lat="45.21778" lon="6.02931">
        <ele>1984</ele>
        <time>2024-06-05T23:33:44+00:00</time>
      </trkpt>
      <trkpt lat="45.21783" lon="6.02921">
        <ele>1984</ele>
        <time>2024-06-05T23:33:47+00:00</time>
      </trkpt>
      <trkpt lat="45.21789" lon="6.02909">
        <ele>1980</ele>
        <time>2024-06-05T23:33:50+00:00</time>
      </trkpt>
      <trkpt lat="45.21794" lon="6.02904">
        <ele>1981</ele>
        <time>2024-06-05T23:33:53+00:00</time>
      </trkpt>
      <trkpt lat="45.21798" lon="6.02891">
        <ele>1979</ele>
        <time>2024-06-05T23:33:56+00:00</time>
      </trkpt>
      <trkpt lat="45.21805" lon="6.02884">
        <ele>1979</ele>
        <time>2024-06-05T23:33:59+00:00</time>
      </trkpt>
      <trkpt lat="45.21806" lon="6.0288">
        <ele>1974</ele>
        <time>2024-06-05T23:34:02+00:00</time>
      </trkpt>
      <trkpt lat="45.21805" lon="6.02878">
        <ele>1974</ele>
        <time>2024-06-05T23:34:05+00:00</time>
      </trkpt>
      <trkpt lat="45.218" lon="6.02876">
        <ele>1974</ele>
        <time>2024-06-05T23:34:08+00:00</time>
      </trkpt>
      <trkpt lat="45.21797" lon="6.02874">
        <ele>1972</ele>
        <time>2024-06-05T23:34:11+00:00</time>
      </trkpt>
      <trkpt lat="45.21798" lon="6.02869">
        <ele>1969</ele>
        <time>2024-06-05T23:34:14+00:00</time>
      </trkpt>
      <trkpt lat="45.21799" lon="6.02868">
        <ele>1969</ele>
        <time>2024-06-05T23:34:17+00:00</time>
      </trkpt>
      <trkpt lat="45.218" lon="6.02866">
        <ele>1971</ele>
        <time>2024-06-05T23:34:20+00:00</time>
      </trkpt>
      <trkpt lat="45.218" lon="6.02864">
        <ele>1971</ele>
        <time>2024-06-05T23:34:23+00:00</time>
      </trkpt>
      <trkpt lat="45.218" lon="6.02863">
        <ele>1969</ele>
        <time>2024-06-05T23:34:26+00:00</time>
      </trkpt>
      <trkpt lat="45.21801" lon="6.02861">
        <ele>1971</ele>
        <time>2024-06-05T23:34:29+00:00</time>
      </trkpt>
      <trkpt lat="45.21801" lon="6.02859">
        <ele>1969</ele>
        <time>2024-06-05T23:34:32+00:00</time>
      </trkpt>
      <trkpt lat="45.218" lon="6.02855">
        <ele>1969</ele>
        <time>2024-06-05T23:34:35+00:00</time>
      </trkpt>
      <trkpt lat="45.21801" lon="6.02852">
        <ele>1969</ele>
        <time>2024-06-05T23:34:38+00:00</time>
      </trkpt>
      <trkpt lat="45.21804" lon="6.02847">
        <ele>1966</ele>
        <time>2024-06-05T23:34:41+00:00</time>
      </trkpt>
      <trkpt lat="45.21804" lon="6.02838">
        <ele>1964</ele>
        <time>2024-06-05T23:34:44+00:00</time>
      </trkpt>
      <trkpt lat="45.21807" lon="6.0282">
        <ele>1965</ele>
        <time>2024-06-05T23:34:47+00:00</time>
      </trkpt>
      <trkpt lat="45.21809" lon="6.02817">
        <ele>1965</ele>
        <time>2024-06-05T23:34:50+00:00</time>
      </trkpt>
      <trkpt lat="45.21809" lon="6.02813">
        <ele>1965</ele>
        <time>2024-06-05T23:34:53+00:00</time>
      </trkpt>
      <trkpt lat="45.21811" lon="6.02808">
        <ele>1962</ele>
        <time>2024-06-05T23:34:56+00:00</time>
      </trkpt>
      <trkpt lat="45.21814" lon="6.02806">
        <ele>1962</ele>
        <time>2024-06-05T23:34:59+00:00</time>
      </trkpt>
      <trkpt lat="45.21817" lon="6.02799">
        <ele>1961</ele>
        <time>2024-06-05T23:35:02+00:00</time>
      </trkpt>
      <trkpt lat="45.2182" lon="6.02794">
        <ele>1963</ele>
        <time>2024-06-05T23:35:05+00:00</time>
      </trkpt>
      <trkpt lat="45.2182" lon="6.02788">
        <ele>1960</ele>
        <time>2024-06-05T23:35:08+00:00</time>
      </trkpt>
      <trkpt lat="45.21822" lon="6.02784">
        <ele>1960</ele>
        <time>2024-06-05T23:35:11+00:00</time>
      </trkpt>
      <trkpt lat="45.21822" lon="6.02778">
        <ele>1959</ele>
        <time>2024-06-05T23:35:14+00:00</time>
      </trkpt>
      <trkpt lat="45.2182" lon="6.02775">
        <ele>1959</ele>
        <time>2024-06-05T23:35:17+00:00</time>
      </trkpt>
      <trkpt lat="45.21822" lon="6.02754">
        <ele>1958</ele>
        <time>2024-06-05T23:35:20+00:00</time>
      </trkpt>
      <trkpt lat="45.21822" lon="6.02738">
        <ele>1955</ele>
        <time>2024-06-05T23:35:23+00:00</time>
      </trkpt>
      <trkpt lat="45.21828" lon="6.02725">
        <ele>1954</ele>
        <time>2024-06-05T23:35:26+00:00</time>
      </trkpt>
      <trkpt lat="45.21837" lon="6.02694">
        <ele>1952</ele>
        <time>2024-06-05T23:35:29+00:00</time>
      </trkpt>
      <trkpt lat="45.21845" lon="6.02675">
        <ele>1950</ele>
        <time>2024-06-05T23:35:32+00:00</time>
      </trkpt>
      <trkpt lat="45.21846" lon="6.02657">
        <ele>1955</ele>
        <time>2024-06-05T23:35:35+00:00</time>
      </trkpt>
      <trkpt lat="45.21844" lon="6.02653">
        <ele>1950</ele>
        <time>2024-06-05T23:35:38+00:00</time>
      </trkpt>
      <trkpt lat="45.21843" lon="6.02644">
        <ele>1952</ele>
        <time>2024-06-05T23:35:41+00:00</time>
      </trkpt>
      <trkpt lat="45.21842" lon="6.0264">
        <ele>1951</ele>
        <time>2024-06-05T23:35:44+00:00</time>
      </trkpt>
      <trkpt lat="45.2184" lon="6.02639">
        <ele>1955</ele>
        <time>2024-06-05T23:35:47+00:00</time>
      </trkpt>
      <trkpt lat="45.21839" lon="6.02636">
        <ele>1955</ele>
        <time>2024-06-05T23:35:50+00:00</time>
      </trkpt>
      <trkpt lat="45.2184" lon="6.02625">
        <ele>1951</ele>
        <time>2024-06-05T23:35:53+00:00</time>
      </trkpt>
      <trkpt lat="45.21841" lon="6.02616">
        <ele>1949</ele>
        <time>2024-06-05T23:35:56+00:00</time>
      </trkpt>
      <trkpt lat="45.21843" lon="6.02614">
        <ele>1949</ele>
        <time>2024-06-05T23:35:59+00:00</time>
      </trkpt>
      <trkpt lat="45.21844" lon="6.0261">
        <ele>1949</ele>
        <time>2024-06-05T23:36:02+00:00</time>
      </trkpt>
      <trkpt lat="45.21849" lon="6.02596">
        <ele>1948</ele>
        <time>2024-06-05T23:36:05+00:00</time>
      </trkpt>
      <trkpt lat="45.2185" lon="6.02591">
        <ele>1945</ele>
        <time>2024-06-05T23:36:08+00:00</time>
      </trkpt>
      <trkpt lat="45.21849" lon="6.02579">
        <ele>1945</ele>
        <time>2024-06-05T23:36:11+00:00</time>
      </trkpt>
      <trkpt lat="45.21848" lon="6.02578">
        <ele>1945</ele>
        <time>2024-06-05T23:36:14+00:00</time>
      </trkpt>
      <trkpt lat="45.21849" lon="6.02569">
        <ele>1944</ele>
        <time>2024-06-05T23:36:17+00:00</time>
      </trkpt>
      <trkpt lat="45.21847" lon="6.02565">
        <ele>1944</ele>
        <time>2024-06-05T23:36:20+00:00</time>
      </trkpt>
      <trkpt lat="45.21845" lon="6.02556">
        <ele>1943</ele>
        <time>2024-06-05T23:36:23+00:00</time>
      </trkpt>
      <trkpt lat="45.21846" lon="6.02554">
        <ele>1943</ele>
        <time>2024-06-05T23:36:26+00:00</time>
      </trkpt>
      <trkpt lat="45.21847" lon="6.02554">
        <ele>1943</ele>
        <time>2024-06-05T23:36:29+00:00</time>
      </trkpt>
      <trkpt lat="45.21848" lon="6.02556">
        <ele>1943</ele>
        <time>2024-06-05T23:36:32+00:00</time>
      </trkpt>
      <trkpt lat="45.21849" lon="6.02555">
        <ele>1943</ele>
        <time>2024-06-05T23:36:35+00:00</time>
      </trkpt>
      <trkpt lat="45.21847" lon="6.02543">
        <ele>1940</ele>
        <time>2024-06-05T23:36:38+00:00</time>
      </trkpt>
      <trkpt lat="45.21849" lon="6.02532">
        <ele>1939</ele>
        <time>2024-06-05T23:36:41+00:00</time>
      </trkpt>
      <trkpt lat="45.21848" lon="6.02528">
        <ele>1937</ele>
        <time>2024-06-05T23:36:44+00:00</time>
      </trkpt>
      <trkpt lat="45.21849" lon="6.02523">
        <ele>1937</ele>
        <time>2024-06-05T23:36:47+00:00</time>
      </trkpt>
      <trkpt lat="45.21851" lon="6.02521">
        <ele>1927</ele>
        <time>2024-06-05T23:36:50+00:00</time>
      </trkpt>
      <trkpt lat="45.21852" lon="6.02518">
        <ele>1926</ele>
        <time>2024-06-05T23:36:53+00:00</time>
      </trkpt>
      <trkpt lat="45.21852" lon="6.0251">
        <ele>1926</ele>
        <time>2024-06-05T23:36:56+00:00</time>
      </trkpt>
      <trkpt lat="45.2185" lon="6.02504">
        <ele>1931</ele>
        <time>2024-06-05T23:36:59+00:00</time>
      </trkpt>
      <trkpt lat="45.21851" lon="6.02497">
        <ele>1920</ele>
        <time>2024-06-05T23:37:02+00:00</time>
      </trkpt>
      <trkpt lat="45.21849" lon="6.02491">
        <ele>1928</ele>
        <time>2024-06-05T23:37:05+00:00</time>
      </trkpt>
      <trkpt lat="45.21851" lon="6.0249">
        <ele>1920</ele>
        <time>2024-06-05T23:37:08+00:00</time>
      </trkpt>
      <trkpt lat="45.21851" lon="6.02487">
        <ele>1917</ele>
        <time>2024-06-05T23:37:11+00:00</time>
      </trkpt>
      <trkpt lat="45.21851" lon="6.02485">
        <ele>1917</ele>
        <time>2024-06-05T23:37:14+00:00</time>
      </trkpt>
      <trkpt lat="45.21851" lon="6.02484">
        <ele>1917</ele>
        <time>2024-06-05T23:37:17+00:00</time>
      </trkpt>
      <trkpt lat="45.21852" lon="6.02484">
        <ele>1917</ele>
        <time>2024-06-05T23:37:20+00:00</time>
      </trkpt>
      <trkpt lat="45.21855" lon="6.02486">
        <ele>1917</ele>
        <time>2024-06-05T23:37:23+00:00</time>
      </trkpt>
      <trkpt lat="45.21857" lon="6.02489">
        <ele>1917</ele>
        <time>2024-06-05T23:37:26+00:00</time>
      </trkpt>
      <trkpt lat="45.2186" lon="6.02492">
        <ele>1915</ele>
        <time>2024-06-05T23:37:29+00:00</time>
      </trkpt>
      <trkpt lat="45.21862" lon="6.02496">
        <ele>1915</ele>
        <time>2024-06-05T23:37:32+00:00</time>
      </trkpt>
      <trkpt lat="45.21865" lon="6.02497">
        <ele>1915</ele>
        <time>2024-06-05T23:37:35+00:00</time>
      </trkpt>
      <trkpt lat="45.21867" lon="6.02497">
        <ele>1915</ele>
        <time>2024-06-05T23:37:38+00:00</time>
      </trkpt>
      <trkpt lat="45.21873" lon="6.02504">
        <ele>1909</ele>
        <time>2024-06-05T23:37:41+00:00</time>
      </trkpt>
      <trkpt lat="45.21877" lon="6.02507">
        <ele>1909</ele>
        <time>2024-06-05T23:37:44+00:00</time>
      </trkpt>
      <trkpt lat="45.21878" lon="6.02509">
        <ele>1909</ele>
        <time>2024-06-05T23:37:47+00:00</time>
      </trkpt>
      <trkpt lat="45.21884" lon="6.02513">
        <ele>1907</ele>
        <time>2024-06-05T23:37:50+00:00</time>
      </trkpt>
      <trkpt lat="45.21886" lon="6.02517">
        <ele>1907</ele>
        <time>2024-06-05T23:37:53+00:00</time>
      </trkpt>
      <trkpt lat="45.21888" lon="6.02523">
        <ele>1909</ele>
        <time>2024-06-05T23:37:56+00:00</time>
      </trkpt>
      <trkpt lat="45.21893" lon="6.02529">
        <ele>1904</ele>
        <time>2024-06-05T23:37:59+00:00</time>
      </trkpt>
      <trkpt lat="45.21898" lon="6.02533">
        <ele>1905</ele>
        <time>2024-06-05T23:38:02+00:00</time>
      </trkpt>
      <trkpt lat="45.219" lon="6.02536">
        <ele>1905</ele>
        <time>2024-06-05T23:38:05+00:00</time>
      </trkpt>
      <trkpt lat="45.21905" lon="6.0254">
        <ele>1901</ele>
        <time>2024-06-05T23:38:08+00:00</time>
      </trkpt>
      <trkpt lat="45.21906" lon="6.0254">
        <ele>1901</ele>
        <time>2024-06-05T23:38:11+00:00</time>
      </trkpt>
      <trkpt lat="45.21911" lon="6.02545">
        <ele>1898</ele>
        <time>2024-06-05T23:38:14+00:00</time>
      </trkpt>
      <trkpt lat="45.21913" lon="6.02546">
        <ele>1898</ele>
        <time>2024-06-05T23:38:17+00:00</time>
      </trkpt>
      <trkpt lat="45.21915" lon="6.02549">
        <ele>1898</ele>
        <time>2024-06-05T23:38:20+00:00</time>
      </trkpt>
      <trkpt lat="45.21919" lon="6.02552">
        <ele>1901</ele>
        <time>2024-06-05T23:38:23+00:00</time>
      </trkpt>
      <trkpt lat="45.21925" lon="6.02555">
        <ele>1899</ele>
        <time>2024-06-05T23:38:26+00:00</time>
      </trkpt>
      <trkpt lat="45.21926" lon="6.02554">
        <ele>1899</ele>
        <time>2024-06-05T23:38:29+00:00</time>
      </trkpt>
      <trkpt lat="45.21926" lon="6.02553">
        <ele>1899</ele>
        <time>2024-06-05T23:38:32+00:00</time>
      </trkpt>
      <trkpt lat="45.21923" lon="6.0255">
        <ele>1894</ele>
        <time>2024-06-05T23:38:35+00:00</time>
      </trkpt>
      <trkpt lat="45.21923" lon="6.02548">
        <ele>1894</ele>
        <time>2024-06-05T23:38:38+00:00</time>
      </trkpt>
      <trkpt lat="45.21923" lon="6.02545">
        <ele>1894</ele>
        <time>2024-06-05T23:38:41+00:00</time>
      </trkpt>
      <trkpt lat="45.21922" lon="6.02541">
        <ele>1894</ele>
        <time>2024-06-05T23:38:44+00:00</time>
      </trkpt>
      <trkpt lat="45.2192" lon="6.02538">
        <ele>1892</ele>
        <time>2024-06-05T23:38:47+00:00</time>
      </trkpt>
      <trkpt lat="45.21914" lon="6.02533">
        <ele>1895</ele>
        <time>2024-06-05T23:38:50+00:00</time>
      </trkpt>
      <trkpt lat="45.21912" lon="6.02527">
        <ele>1893</ele>
        <time>2024-06-05T23:38:53+00:00</time>
      </trkpt>
      <trkpt lat="45.21911" lon="6.02519">
        <ele>1891</ele>
        <time>2024-06-05T23:38:56+00:00</time>
      </trkpt>
      <trkpt lat="45.21909" lon="6.02515">
        <ele>1895</ele>
        <time>2024-06-05T23:38:59+00:00</time>
      </trkpt>
      <trkpt lat="45.21908" lon="6.02509">
        <ele>1892</ele>
        <time>2024-06-05T23:39:02+00:00</time>
      </trkpt>
      <trkpt lat="45.21906" lon="6.02505">
        <ele>1892</ele>
        <time>2024-06-05T23:39:05+00:00</time>
      </trkpt>
      <trkpt lat="45.21903" lon="6.02496">
        <ele>1889</ele>
        <time>2024-06-05T23:39:08+00:00</time>
      </trkpt>
      <trkpt lat="45.21902" lon="6.0249">
        <ele>1889</ele>
        <time>2024-06-05T23:39:11+00:00</time>
      </trkpt>
      <trkpt lat="45.21901" lon="6.02487">
        <ele>1886</ele>
        <time>2024-06-05T23:39:14+00:00</time>
      </trkpt>
      <trkpt lat="45.21901" lon="6.02484">
        <ele>1886</ele>
        <time>2024-06-05T23:39:17+00:00</time>
      </trkpt>
      <trkpt lat="45.219" lon="6.02481">
        <ele>1886</ele>
        <time>2024-06-05T23:39:20+00:00</time>
      </trkpt>
      <trkpt lat="45.21901" lon="6.02479">
        <ele>1882</ele>
        <time>2024-06-05T23:39:23+00:00</time>
      </trkpt>
      <trkpt lat="45.21902" lon="6.02477">
        <ele>1882</ele>
        <time>2024-06-05T23:39:26+00:00</time>
      </trkpt>
      <trkpt lat="45.21902" lon="6.02471">
        <ele>1882</ele>
        <time>2024-06-05T23:39:29+00:00</time>
      </trkpt>
      <trkpt lat="45.21899" lon="6.02468">
        <ele>1886</ele>
        <time>2024-06-05T23:39:32+00:00</time>
      </trkpt>
      <trkpt lat="45.21897" lon="6.02466">
        <ele>1886</ele>
        <time>2024-06-05T23:39:35+00:00</time>
      </trkpt>
      <trkpt lat="45.21894" lon="6.02458">
        <ele>1882</ele>
        <time>2024-06-05T23:39:38+00:00</time>
      </trkpt>
      <trkpt lat="45.2189" lon="6.02453">
        <ele>1882</ele>
        <time>2024-06-05T23:39:41+00:00</time>
      </trkpt>
      <trkpt lat="45.21883" lon="6.02448">
        <ele>1881</ele>
        <time>2024-06-05T23:39:44+00:00</time>
      </trkpt>
      <trkpt lat="45.21882" lon="6.02446">
        <ele>1881</ele>
        <time>2024-06-05T23:39:47+00:00</time>
      </trkpt>
      <trkpt lat="45.21882" lon="6.02441">
        <ele>1881</ele>
        <time>2024-06-05T23:39:50+00:00</time>
      </trkpt>
      <trkpt lat="45.21882" lon="6.02438">
        <ele>1878</ele>
        <time>2024-06-05T23:39:53+00:00</time>
      </trkpt>
      <trkpt lat="45.21881" lon="6.02434">
        <ele>1878</ele>
        <time>2024-06-05T23:39:56+00:00</time>
      </trkpt>
      <trkpt lat="45.21881" lon="6.0243">
        <ele>1876</ele>
        <time>2024-06-05T23:39:59+00:00</time>
      </trkpt>
      <trkpt lat="45.21881" lon="6.02426">
        <ele>1876</ele>
        <time>2024-06-05T23:40:02+00:00</time>
      </trkpt>
      <trkpt lat="45.21882" lon="6.02422">
        <ele>1876</ele>
        <time>2024-06-05T23:40:05+00:00</time>
      </trkpt>
      <trkpt lat="45.21883" lon="6.0242">
        <ele>1876</ele>
        <time>2024-06-05T23:40:08+00:00</time>
      </trkpt>
      <trkpt lat="45.21886" lon="6.02415">
        <ele>1874</ele>
        <time>2024-06-05T23:40:11+00:00</time>
      </trkpt>
      <trkpt lat="45.21888" lon="6.02416">
        <ele>1874</ele>
        <time>2024-06-05T23:40:14+00:00</time>
      </trkpt>
      <trkpt lat="45.21892" lon="6.02422">
        <ele>1871</ele>
        <time>2024-06-05T23:40:17+00:00</time>
      </trkpt>
      <trkpt lat="45.21898" lon="6.02426">
        <ele>1871</ele>
        <time>2024-06-05T23:40:20+00:00</time>
      </trkpt>
      <trkpt lat="45.21901" lon="6.02429">
        <ele>1864</ele>
        <time>2024-06-05T23:40:23+00:00</time>
      </trkpt>
      <trkpt lat="45.21906" lon="6.02433">
        <ele>1866</ele>
        <time>2024-06-05T23:40:26+00:00</time>
      </trkpt>
      <trkpt lat="45.21909" lon="6.02435">
        <ele>1866</ele>
        <time>2024-06-05T23:40:29+00:00</time>
      </trkpt>
      <trkpt lat="45.21912" lon="6.02439">
        <ele>1862</ele>
        <time>2024-06-05T23:40:32+00:00</time>
      </trkpt>
      <trkpt lat="45.21914" lon="6.02441">
        <ele>1864</ele>
        <time>2024-06-05T23:40:35+00:00</time>
      </trkpt>
      <trkpt lat="45.21919" lon="6.02444">
        <ele>1864</ele>
        <time>2024-06-05T23:40:38+00:00</time>
      </trkpt>
      <trkpt lat="45.21922" lon="6.02447">
        <ele>1860</ele>
        <time>2024-06-05T23:40:41+00:00</time>
      </trkpt>
      <trkpt lat="45.21923" lon="6.02447">
        <ele>1860</ele>
        <time>2024-06-05T23:40:44+00:00</time>
      </trkpt>
      <trkpt lat="45.21928" lon="6.02452">
        <ele>1865</ele>
        <time>2024-06-05T23:40:47+00:00</time>
      </trkpt>
      <trkpt lat="45.2194" lon="6.02457">
        <ele>1857</ele>
        <time>2024-06-05T23:40:50+00:00</time>
      </trkpt>
      <trkpt lat="45.21944" lon="6.02461">
        <ele>1855</ele>
        <time>2024-06-05T23:40:53+00:00</time>
      </trkpt>
      <trkpt lat="45.21951" lon="6.02467">
        <ele>1850</ele>
        <time>2024-06-05T23:40:56+00:00</time>
      </trkpt>
      <trkpt lat="45.21958" lon="6.0247">
        <ele>1850</ele>
        <time>2024-06-05T23:40:59+00:00</time>
      </trkpt>
      <trkpt lat="45.21964" lon="6.02475">
        <ele>1846</ele>
        <time>2024-06-05T23:41:02+00:00</time>
      </trkpt>
      <trkpt lat="45.21971" lon="6.02476">
        <ele>1842</ele>
        <time>2024-06-05T23:41:05+00:00</time>
      </trkpt>
      <trkpt lat="45.21974" lon="6.02476">
        <ele>1842</ele>
        <time>2024-06-05T23:41:08+00:00</time>
      </trkpt>
      <trkpt lat="45.2198" lon="6.02483">
        <ele>1843</ele>
        <time>2024-06-05T23:41:11+00:00</time>
      </trkpt>
      <trkpt lat="45.21983" lon="6.02483">
        <ele>1843</ele>
        <time>2024-06-05T23:41:14+00:00</time>
      </trkpt>
      <trkpt lat="45.2199" lon="6.02488">
        <ele>1843</ele>
        <time>2024-06-05T23:41:17+00:00</time>
      </trkpt>
      <trkpt lat="45.21992" lon="6.02492">
        <ele>1840</ele>
        <time>2024-06-05T23:41:20+00:00</time>
      </trkpt>
      <trkpt lat="45.22008" lon="6.025">
        <ele>1839</ele>
        <time>2024-06-05T23:41:23+00:00</time>
      </trkpt>
      <trkpt lat="45.22011" lon="6.02503">
        <ele>1836</ele>
        <time>2024-06-05T23:41:26+00:00</time>
      </trkpt>
      <trkpt lat="45.22016" lon="6.02504">
        <ele>1836</ele>
        <time>2024-06-05T23:41:29+00:00</time>
      </trkpt>
      <trkpt lat="45.22017" lon="6.02503">
        <ele>1836</ele>
        <time>2024-06-05T23:41:32+00:00</time>
      </trkpt>
      <trkpt lat="45.22017" lon="6.02501">
        <ele>1836</ele>
        <time>2024-06-05T23:41:35+00:00</time>
      </trkpt>
      <trkpt lat="45.22014" lon="6.02496">
        <ele>1833</ele>
        <time>2024-06-05T23:41:38+00:00</time>
      </trkpt>
      <trkpt lat="45.22011" lon="6.02486">
        <ele>1831</ele>
        <time>2024-06-05T23:41:41+00:00</time>
      </trkpt>
      <trkpt lat="45.22007" lon="6.02479">
        <ele>1830</ele>
        <time>2024-06-05T23:41:44+00:00</time>
      </trkpt>
      <trkpt lat="45.22002" lon="6.02465">
        <ele>1829</ele>
        <time>2024-06-05T23:41:47+00:00</time>
      </trkpt>
      <trkpt lat="45.22001" lon="6.02459">
        <ele>1827</ele>
        <time>2024-06-05T23:41:50+00:00</time>
      </trkpt>
      <trkpt lat="45.21999" lon="6.02454">
        <ele>1829</ele>
        <time>2024-06-05T23:41:53+00:00</time>
      </trkpt>
      <trkpt lat="45.21999" lon="6.02452">
        <ele>1829</ele>
        <time>2024-06-05T23:41:56+00:00</time>
      </trkpt>
      <trkpt lat="45.22" lon="6.02451">
        <ele>1827</ele>
        <time>2024-06-05T23:41:59+00:00</time>
      </trkpt>
      <trkpt lat="45.22003" lon="6.02451">
        <ele>1827</ele>
        <time>2024-06-05T23:42:02+00:00</time>
      </trkpt>
      <trkpt lat="45.22005" lon="6.02451">
        <ele>1827</ele>
        <time>2024-06-05T23:42:05+00:00</time>
      </trkpt>
      <trkpt lat="45.22011" lon="6.0245">
        <ele>1827</ele>
        <time>2024-06-05T23:42:08+00:00</time>
      </trkpt>
      <trkpt lat="45.22014" lon="6.0245">
        <ele>1826</ele>
        <time>2024-06-05T23:42:11+00:00</time>
      </trkpt>
      <trkpt lat="45.22018" lon="6.02449">
        <ele>1826</ele>
        <time>2024-06-05T23:42:14+00:00</time>
      </trkpt>
      <trkpt lat="45.22024" lon="6.02451">
        <ele>1824</ele>
        <time>2024-06-05T23:42:17+00:00</time>
      </trkpt>
      <trkpt lat="45.22027" lon="6.02457">
        <ele>1824</ele>
        <time>2024-06-05T23:42:20+00:00</time>
      </trkpt>
      <trkpt lat="45.2203" lon="6.02462">
        <ele>1824</ele>
        <time>2024-06-05T23:42:23+00:00</time>
      </trkpt>
      <trkpt lat="45.22032" lon="6.02466">
        <ele>1820</ele>
        <time>2024-06-05T23:42:26+00:00</time>
      </trkpt>
      <trkpt lat="45.22038" lon="6.02469">
        <ele>1820</ele>
        <time>2024-06-05T23:42:29+00:00</time>
      </trkpt>
      <trkpt lat="45.22042" lon="6.02473">
        <ele>1819</ele>
        <time>2024-06-05T23:42:32+00:00</time>
      </trkpt>
      <trkpt lat="45.22051" lon="6.02475">
        <ele>1820</ele>
        <time>2024-06-05T23:42:35+00:00</time>
      </trkpt>
      <trkpt lat="45.22055" lon="6.02475">
        <ele>1815</ele>
        <time>2024-06-05T23:42:38+00:00</time>
      </trkpt>
      <trkpt lat="45.22069" lon="6.02484">
        <ele>1816</ele>
        <time>2024-06-05T23:42:41+00:00</time>
      </trkpt>
      <trkpt lat="45.22072" lon="6.02489">
        <ele>1812</ele>
        <time>2024-06-05T23:42:44+00:00</time>
      </trkpt>
      <trkpt lat="45.2208" lon="6.02496">
        <ele>1810</ele>
        <time>2024-06-05T23:42:47+00:00</time>
      </trkpt>
      <trkpt lat="45.22085" lon="6.02499">
        <ele>1810</ele>
        <time>2024-06-05T23:42:50+00:00</time>
      </trkpt>
      <trkpt lat="45.22088" lon="6.02499">
        <ele>1810</ele>
        <time>2024-06-05T23:42:53+00:00</time>
      </trkpt>
      <trkpt lat="45.22089" lon="6.02501">
        <ele>1813</ele>
        <time>2024-06-05T23:42:56+00:00</time>
      </trkpt>
      <trkpt lat="45.22092" lon="6.025">
        <ele>1810</ele>
        <time>2024-06-05T23:42:59+00:00</time>
      </trkpt>
      <trkpt lat="45.22098" lon="6.02503">
        <ele>1810</ele>
        <time>2024-06-05T23:43:02+00:00</time>
      </trkpt>
      <trkpt lat="45.22102" lon="6.02504">
        <ele>1807</ele>
        <time>2024-06-05T23:43:05+00:00</time>
      </trkpt>
      <trkpt lat="45.22104" lon="6.02503">
        <ele>1807</ele>
        <time>2024-06-05T23:43:08+00:00</time>
      </trkpt>
      <trkpt lat="45.22104" lon="6.025">
        <ele>1804</ele>
        <time>2024-06-05T23:43:11+00:00</time>
      </trkpt>
      <trkpt lat="45.22098" lon="6.02494">
        <ele>1807</ele>
        <time>2024-06-05T23:43:14+00:00</time>
      </trkpt>
      <trkpt lat="45.22095" lon="6.02488">
        <ele>1804</ele>
        <time>2024-06-05T23:43:17+00:00</time>
      </trkpt>
      <trkpt lat="45.22092" lon="6.0248">
        <ele>1799</ele>
        <time>2024-06-05T23:43:20+00:00</time>
      </trkpt>
      <trkpt lat="45.22084" lon="6.02461">
        <ele>1799</ele>
        <time>2024-06-05T23:43:23+00:00</time>
      </trkpt>
      <trkpt lat="45.22084" lon="6.02458">
        <ele>1796</ele>
        <time>2024-06-05T23:43:26+00:00</time>
      </trkpt>
      <trkpt lat="45.2208" lon="6.02448">
        <ele>1792</ele>
        <time>2024-06-05T23:43:29+00:00</time>
      </trkpt>
      <trkpt lat="45.22078" lon="6.0244">
        <ele>1797</ele>
        <time>2024-06-05T23:43:32+00:00</time>
      </trkpt>
      <trkpt lat="45.22076" lon="6.02431">
        <ele>1795</ele>
        <time>2024-06-05T23:43:35+00:00</time>
      </trkpt>
      <trkpt lat="45.22076" lon="6.02427">
        <ele>1793</ele>
        <time>2024-06-05T23:43:38+00:00</time>
      </trkpt>
      <trkpt lat="45.22075" lon="6.02425">
        <ele>1793</ele>
        <time>2024-06-05T23:43:41+00:00</time>
      </trkpt>
      <trkpt lat="45.22076" lon="6.02416">
        <ele>1790</ele>
        <time>2024-06-05T23:43:44+00:00</time>
      </trkpt>
      <trkpt lat="45.22078" lon="6.02416">
        <ele>1790</ele>
        <time>2024-06-05T23:43:47+00:00</time>
      </trkpt>
      <trkpt lat="45.2208" lon="6.02419">
        <ele>1790</ele>
        <time>2024-06-05T23:43:50+00:00</time>
      </trkpt>
      <trkpt lat="45.22084" lon="6.02423">
        <ele>1788</ele>
        <time>2024-06-05T23:43:53+00:00</time>
      </trkpt>
      <trkpt lat="45.2209" lon="6.02423">
        <ele>1786</ele>
        <time>2024-06-05T23:43:56+00:00</time>
      </trkpt>
      <trkpt lat="45.22093" lon="6.02425">
        <ele>1786</ele>
        <time>2024-06-05T23:43:59+00:00</time>
      </trkpt>
      <trkpt lat="45.22101" lon="6.02425">
        <ele>1784</ele>
        <time>2024-06-05T23:44:02+00:00</time>
      </trkpt>
      <trkpt lat="45.22103" lon="6.02424">
        <ele>1784</ele>
        <time>2024-06-05T23:44:05+00:00</time>
      </trkpt>
      <trkpt lat="45.22104" lon="6.02423">
        <ele>1784</ele>
        <time>2024-06-05T23:44:08+00:00</time>
      </trkpt>
      <trkpt lat="45.22105" lon="6.02422">
        <ele>1784</ele>
        <time>2024-06-05T23:44:11+00:00</time>
      </trkpt>
      <trkpt lat="45.22102" lon="6.02414">
        <ele>1780</ele>
        <time>2024-06-05T23:44:14+00:00</time>
      </trkpt>
      <trkpt lat="45.22101" lon="6.02408">
        <ele>1777</ele>
        <time>2024-06-05T23:44:17+00:00</time>
      </trkpt>
      <trkpt lat="45.22099" lon="6.02401">
        <ele>1781</ele>
        <time>2024-06-05T23:44:20+00:00</time>
      </trkpt>
      <trkpt lat="45.22098" lon="6.02395">
        <ele>1780</ele>
        <time>2024-06-05T23:44:23+00:00</time>
      </trkpt>
      <trkpt lat="45.22099" lon="6.0239">
        <ele>1782</ele>
        <time>2024-06-05T23:44:26+00:00</time>
      </trkpt>
      <trkpt lat="45.22101" lon="6.02389">
        <ele>1779</ele>
        <time>2024-06-05T23:44:29+00:00</time>
      </trkpt>
      <trkpt lat="45.22105" lon="6.02388">
        <ele>1779</ele>
        <time>2024-06-05T23:44:32+00:00</time>
      </trkpt>
      <trkpt lat="45.22106" lon="6.02385">
        <ele>1779</ele>
        <time>2024-06-05T23:44:35+00:00</time>
      </trkpt>
      <trkpt lat="45.22108" lon="6.02385">
        <ele>1779</ele>
        <time>2024-06-05T23:44:38+00:00</time>
      </trkpt>
      <trkpt lat="45.22109" lon="6.02382">
        <ele>1779</ele>
        <time>2024-06-05T23:44:41+00:00</time>
      </trkpt>
      <trkpt lat="45.22114" lon="6.02375">
        <ele>1773</ele>
        <time>2024-06-05T23:44:44+00:00</time>
      </trkpt>
      <trkpt lat="45.22123" lon="6.02367">
        <ele>1770</ele>
        <time>2024-06-05T23:44:47+00:00</time>
      </trkpt>
      <trkpt lat="45.22134" lon="6.02356">
        <ele>1766</ele>
        <time>2024-06-05T23:44:50+00:00</time>
      </trkpt>
      <trkpt lat="45.22135" lon="6.02356">
        <ele>1766</ele>
        <time>2024-06-05T23:44:53+00:00</time>
      </trkpt>
      <trkpt lat="45.22138" lon="6.02351">
        <ele>1766</ele>
        <time>2024-06-05T23:44:56+00:00</time>
      </trkpt>
      <trkpt lat="45.22138" lon="6.02348">
        <ele>1767</ele>
        <time>2024-06-05T23:44:59+00:00</time>
      </trkpt>
      <trkpt lat="45.22139" lon="6.02347">
        <ele>1767</ele>
        <time>2024-06-05T23:45:02+00:00</time>
      </trkpt>
      <trkpt lat="45.22142" lon="6.02346">
        <ele>1762</ele>
        <time>2024-06-05T23:45:05+00:00</time>
      </trkpt>
      <trkpt lat="45.22148" lon="6.0234">
        <ele>1762</ele>
        <time>2024-06-05T23:45:08+00:00</time>
      </trkpt>
      <trkpt lat="45.2215" lon="6.02336">
        <ele>1756</ele>
        <time>2024-06-05T23:45:11+00:00</time>
      </trkpt>
      <trkpt lat="45.22153" lon="6.02333">
        <ele>1756</ele>
        <time>2024-06-05T23:45:14+00:00</time>
      </trkpt>
      <trkpt lat="45.22155" lon="6.02331">
        <ele>1756</ele>
        <time>2024-06-05T23:45:17+00:00</time>
      </trkpt>
      <trkpt lat="45.22157" lon="6.02327">
        <ele>1757</ele>
        <time>2024-06-05T23:45:20+00:00</time>
      </trkpt>
      <trkpt lat="45.22159" lon="6.02324">
        <ele>1757</ele>
        <time>2024-06-05T23:45:23+00:00</time>
      </trkpt>
      <trkpt lat="45.22162" lon="6.0232">
        <ele>1753</ele>
        <time>2024-06-05T23:45:26+00:00</time>
      </trkpt>
      <trkpt lat="45.22167" lon="6.02316">
        <ele>1753</ele>
        <time>2024-06-05T23:45:29+00:00</time>
      </trkpt>
      <trkpt lat="45.22169" lon="6.02312">
        <ele>1753</ele>
        <time>2024-06-05T23:45:32+00:00</time>
      </trkpt>
      <trkpt lat="45.22172" lon="6.02309">
        <ele>1750</ele>
        <time>2024-06-05T23:45:35+00:00</time>
      </trkpt>
      <trkpt lat="45.2218" lon="6.02302">
        <ele>1746</ele>
        <time>2024-06-05T23:45:38+00:00</time>
      </trkpt>
      <trkpt lat="45.22187" lon="6.02292">
        <ele>1746</ele>
        <time>2024-06-05T23:45:41+00:00</time>
      </trkpt>
      <trkpt lat="45.2219" lon="6.02289">
        <ele>1745</ele>
        <time>2024-06-05T23:45:44+00:00</time>
      </trkpt>
      <trkpt lat="45.22192" lon="6.02284">
        <ele>1743</ele>
        <time>2024-06-05T23:45:47+00:00</time>
      </trkpt>
      <trkpt lat="45.22193" lon="6.02281">
        <ele>1743</ele>
        <time>2024-06-05T23:45:50+00:00</time>
      </trkpt>
      <trkpt lat="45.22198" lon="6.0227">
        <ele>1740</ele>
        <time>2024-06-05T23:45:53+00:00</time>
      </trkpt>
      <trkpt lat="45.222" lon="6.02266">
        <ele>1740</ele>
        <time>2024-06-05T23:45:56+00:00</time>
      </trkpt>
      <trkpt lat="45.22203" lon="6.0226">
        <ele>1737</ele>
        <time>2024-06-05T23:45:59+00:00</time>
      </trkpt>
      <trkpt lat="45.2221" lon="6.0224">
        <ele>1732</ele>
        <time>2024-06-05T23:46:02+00:00</time>
      </trkpt>
      <trkpt lat="45.22212" lon="6.02229">
        <ele>1731</ele>
        <time>2024-06-05T23:46:05+00:00</time>
      </trkpt>
      <trkpt lat="45.22215" lon="6.02223">
        <ele>1731</ele>
        <time>2024-06-05T23:46:08+00:00</time>
      </trkpt>
      <trkpt lat="45.22215" lon="6.02223">
        <ele>1731</ele>
        <time>2024-06-05T23:46:11+00:00</time>
      </trkpt>
      <trkpt lat="45.22215" lon="6.02223">
        <ele>1731</ele>
        <time>2024-06-05T23:46:14+00:00</time>
      </trkpt>
      <trkpt lat="45.22215" lon="6.0221">
        <ele>1729</ele>
        <time>2024-06-05T23:46:17+00:00</time>
      </trkpt>
      <trkpt lat="45.22214" lon="6.02204">
        <ele>1729</ele>
        <time>2024-06-05T23:46:20+00:00</time>
      </trkpt>
      <trkpt lat="45.22216" lon="6.02193">
        <ele>1728</ele>
        <time>2024-06-05T23:46:23+00:00</time>
      </trkpt>
      <trkpt lat="45.22219" lon="6.02189">
        <ele>1727</ele>
        <time>2024-06-05T23:46:26+00:00</time>
      </trkpt>
      <trkpt lat="45.22228" lon="6.02177">
        <ele>1725</ele>
        <time>2024-06-05T23:46:29+00:00</time>
      </trkpt>
      <trkpt lat="45.2224" lon="6.02166">
        <ele>1725</ele>
        <time>2024-06-05T23:46:32+00:00</time>
      </trkpt>
      <trkpt lat="45.22241" lon="6.02161">
        <ele>1725</ele>
        <time>2024-06-05T23:46:35+00:00</time>
      </trkpt>
      <trkpt lat="45.22243" lon="6.02166">
        <ele>1725</ele>
        <time>2024-06-05T23:46:38+00:00</time>
      </trkpt>
      <trkpt lat="45.22245" lon="6.0217">
        <ele>1725</ele>
        <time>2024-06-05T23:46:41+00:00</time>
      </trkpt>
      <trkpt lat="45.22249" lon="6.02172">
        <ele>1726</ele>
        <time>2024-06-05T23:46:44+00:00</time>
      </trkpt>
      <trkpt lat="45.22253" lon="6.02173">
        <ele>1726</ele>
        <time>2024-06-05T23:46:47+00:00</time>
      </trkpt>
      <trkpt lat="45.22263" lon="6.02172">
        <ele>1727</ele>
        <time>2024-06-05T23:46:50+00:00</time>
      </trkpt>
      <trkpt lat="45.2227" lon="6.0217">
        <ele>1727</ele>
        <time>2024-06-05T23:46:53+00:00</time>
      </trkpt>
      <trkpt lat="45.22287" lon="6.0217">
        <ele>1729</ele>
        <time>2024-06-05T23:46:56+00:00</time>
      </trkpt>
      <trkpt lat="45.22301" lon="6.02166">
        <ele>1732</ele>
        <time>2024-06-05T23:46:59+00:00</time>
      </trkpt>
      <trkpt lat="45.22312" lon="6.02167">
        <ele>1729</ele>
        <time>2024-06-05T23:47:02+00:00</time>
      </trkpt>
      <trkpt lat="45.22317" lon="6.02167">
        <ele>1732</ele>
        <time>2024-06-05T23:47:05+00:00</time>
      </trkpt>
      <trkpt lat="45.22321" lon="6.02165">
        <ele>1731</ele>
        <time>2024-06-05T23:47:08+00:00</time>
      </trkpt>
      <trkpt lat="45.22325" lon="6.02159">
        <ele>1730</ele>
        <time>2024-06-05T23:47:11+00:00</time>
      </trkpt>
      <trkpt lat="45.22329" lon="6.0215">
        <ele>1729</ele>
        <time>2024-06-05T23:47:14+00:00</time>
      </trkpt>
      <trkpt lat="45.22331" lon="6.02143">
        <ele>1730</ele>
        <time>2024-06-05T23:47:17+00:00</time>
      </trkpt>
      <trkpt lat="45.22335" lon="6.02136">
        <ele>1730</ele>
        <time>2024-06-05T23:47:20+00:00</time>
      </trkpt>
      <trkpt lat="45.22336" lon="6.02133">
        <ele>1730</ele>
        <time>2024-06-05T23:47:23+00:00</time>
      </trkpt>
      <trkpt lat="45.22339" lon="6.02128">
        <ele>1730</ele>
        <time>2024-06-05T23:47:26+00:00</time>
      </trkpt>
      <trkpt lat="45.22345" lon="6.02118">
        <ele>1731</ele>
        <time>2024-06-05T23:47:29+00:00</time>
      </trkpt>
      <trkpt lat="45.22347" lon="6.02112">
        <ele>1731</ele>
        <time>2024-06-05T23:47:32+00:00</time>
      </trkpt>
      <trkpt lat="45.22348" lon="6.02108">
        <ele>1732</ele>
        <time>2024-06-05T23:47:35+00:00</time>
      </trkpt>
      <trkpt lat="45.2235" lon="6.02099">
        <ele>1735</ele>
        <time>2024-06-05T23:47:38+00:00</time>
      </trkpt>
      <trkpt lat="45.22351" lon="6.02093">
        <ele>1735</ele>
        <time>2024-06-05T23:47:41+00:00</time>
      </trkpt>
      <trkpt lat="45.22359" lon="6.02095">
        <ele>1735</ele>
        <time>2024-06-05T23:47:44+00:00</time>
      </trkpt>
      <trkpt lat="45.22364" lon="6.02101">
        <ele>1736</ele>
        <time>2024-06-05T23:47:47+00:00</time>
      </trkpt>
      <trkpt lat="45.22366" lon="6.02107">
        <ele>1736</ele>
        <time>2024-06-05T23:47:50+00:00</time>
      </trkpt>
      <trkpt lat="45.22368" lon="6.02111">
        <ele>1736</ele>
        <time>2024-06-05T23:47:53+00:00</time>
      </trkpt>
      <trkpt lat="45.22371" lon="6.02114">
        <ele>1740</ele>
        <time>2024-06-05T23:47:56+00:00</time>
      </trkpt>
      <trkpt lat="45.22373" lon="6.02119">
        <ele>1740</ele>
        <time>2024-06-05T23:47:59+00:00</time>
      </trkpt>
      <trkpt lat="45.22373" lon="6.02123">
        <ele>1739</ele>
        <time>2024-06-05T23:48:02+00:00</time>
      </trkpt>
      <trkpt lat="45.22376" lon="6.02127">
        <ele>1739</ele>
        <time>2024-06-05T23:48:05+00:00</time>
      </trkpt>
      <trkpt lat="45.22378" lon="6.02132">
        <ele>1740</ele>
        <time>2024-06-05T23:48:08+00:00</time>
      </trkpt>
      <trkpt lat="45.22381" lon="6.02138">
        <ele>1744</ele>
        <time>2024-06-05T23:48:11+00:00</time>
      </trkpt>
      <trkpt lat="45.22381" lon="6.0214">
        <ele>1744</ele>
        <time>2024-06-05T23:48:14+00:00</time>
      </trkpt>
      <trkpt lat="45.22383" lon="6.02144">
        <ele>1744</ele>
        <time>2024-06-05T23:48:17+00:00</time>
      </trkpt>
      <trkpt lat="45.22384" lon="6.02152">
        <ele>1745</ele>
        <time>2024-06-05T23:48:20+00:00</time>
      </trkpt>
      <trkpt lat="45.22385" lon="6.02159">
        <ele>1745</ele>
        <time>2024-06-05T23:48:23+00:00</time>
      </trkpt>
      <trkpt lat="45.22384" lon="6.02165">
        <ele>1746</ele>
        <time>2024-06-05T23:48:26+00:00</time>
      </trkpt>
      <trkpt lat="45.22385" lon="6.02167">
        <ele>1746</ele>
        <time>2024-06-05T23:48:29+00:00</time>
      </trkpt>
      <trkpt lat="45.22383" lon="6.02175">
        <ele>1747</ele>
        <time>2024-06-05T23:48:32+00:00</time>
      </trkpt>
      <trkpt lat="45.22385" lon="6.02189">
        <ele>1748</ele>
        <time>2024-06-05T23:48:35+00:00</time>
      </trkpt>
      <trkpt lat="45.22386" lon="6.022">
        <ele>1749</ele>
        <time>2024-06-05T23:48:38+00:00</time>
      </trkpt>
      <trkpt lat="45.22388" lon="6.02208">
        <ele>1749</ele>
        <time>2024-06-05T23:48:41+00:00</time>
      </trkpt>
      <trkpt lat="45.22388" lon="6.02213">
        <ele>1751</ele>
        <time>2024-06-05T23:48:44+00:00</time>
      </trkpt>
      <trkpt lat="45.2239" lon="6.02216">
        <ele>1751</ele>
        <time>2024-06-05T23:48:47+00:00</time>
      </trkpt>
      <trkpt lat="45.22391" lon="6.02228">
        <ele>1759</ele>
        <time>2024-06-05T23:48:50+00:00</time>
      </trkpt>
      <trkpt lat="45.22392" lon="6.02243">
        <ele>1761</ele>
        <time>2024-06-05T23:48:53+00:00</time>
      </trkpt>
      <trkpt lat="45.22392" lon="6.02245">
        <ele>1761</ele>
        <time>2024-06-05T23:48:56+00:00</time>
      </trkpt>
      <trkpt lat="45.22392" lon="6.0225">
        <ele>1761</ele>
        <time>2024-06-05T23:48:59+00:00</time>
      </trkpt>
      <trkpt lat="45.22393" lon="6.02257">
        <ele>1762</ele>
        <time>2024-06-05T23:49:02+00:00</time>
      </trkpt>
      <trkpt lat="45.22394" lon="6.02267">
        <ele>1764</ele>
        <time>2024-06-05T23:49:05+00:00</time>
      </trkpt>
      <trkpt lat="45.22396" lon="6.02268">
        <ele>1764</ele>
        <time>2024-06-05T23:49:08+00:00</time>
      </trkpt>
      <trkpt lat="45.22396" lon="6.0227">
        <ele>1764</ele>
        <time>2024-06-05T23:49:11+00:00</time>
      </trkpt>
      <trkpt lat="45.22395" lon="6.02272">
        <ele>1766</ele>
        <time>2024-06-05T23:49:14+00:00</time>
      </trkpt>
      <trkpt lat="45.22395" lon="6.02274">
        <ele>1766</ele>
        <time>2024-06-05T23:49:17+00:00</time>
      </trkpt>
      <trkpt lat="45.22397" lon="6.02275">
        <ele>1766</ele>
        <time>2024-06-05T23:49:20+00:00</time>
      </trkpt>
      <trkpt lat="45.22399" lon="6.02284">
        <ele>1767</ele>
        <time>2024-06-05T23:49:23+00:00</time>
      </trkpt>
      <trkpt lat="45.22398" lon="6.02285">
        <ele>1767</ele>
        <time>2024-06-05T23:49:26+00:00</time>
      </trkpt>
      <trkpt lat="45.224" lon="6.0229">
        <ele>1769</ele>
        <time>2024-06-05T23:49:29+00:00</time>
      </trkpt>
      <trkpt lat="45.22401" lon="6.02292">
        <ele>1773</ele>
        <time>2024-06-05T23:49:32+00:00</time>
      </trkpt>
      <trkpt lat="45.22402" lon="6.02291">
        <ele>1773</ele>
        <time>2024-06-05T23:49:35+00:00</time>
      </trkpt>
      <trkpt lat="45.22404" lon="6.02293">
        <ele>1773</ele>
        <time>2024-06-05T23:49:38+00:00</time>
      </trkpt>
      <trkpt lat="45.22404" lon="6.02297">
        <ele>1773</ele>
        <time>2024-06-05T23:49:41+00:00</time>
      </trkpt>
      <trkpt lat="45.22406" lon="6.02312">
        <ele>1776</ele>
        <time>2024-06-05T23:49:44+00:00</time>
      </trkpt>
      <trkpt lat="45.22407" lon="6.02313">
        <ele>1776</ele>
        <time>2024-06-05T23:49:47+00:00</time>
      </trkpt>
      <trkpt lat="45.22408" lon="6.02314">
        <ele>1776</ele>
        <time>2024-06-05T23:49:50+00:00</time>
      </trkpt>
      <trkpt lat="45.22411" lon="6.02322">
        <ele>1782</ele>
        <time>2024-06-05T23:49:53+00:00</time>
      </trkpt>
      <trkpt lat="45.22413" lon="6.02326">
        <ele>1782</ele>
        <time>2024-06-05T23:49:56+00:00</time>
      </trkpt>
      <trkpt lat="45.22414" lon="6.02329">
        <ele>1782</ele>
        <time>2024-06-05T23:49:59+00:00</time>
      </trkpt>
      <trkpt lat="45.22416" lon="6.02333">
        <ele>1783</ele>
        <time>2024-06-05T23:50:02+00:00</time>
      </trkpt>
      <trkpt lat="45.22417" lon="6.02337">
        <ele>1783</ele>
        <time>2024-06-05T23:50:05+00:00</time>
      </trkpt>
      <trkpt lat="45.22417" lon="6.02339">
        <ele>1783</ele>
        <time>2024-06-05T23:50:08+00:00</time>
      </trkpt>
      <trkpt lat="45.2242" lon="6.02348">
        <ele>1791</ele>
        <time>2024-06-05T23:50:11+00:00</time>
      </trkpt>
      <trkpt lat="45.22422" lon="6.02355">
        <ele>1791</ele>
        <time>2024-06-05T23:50:14+00:00</time>
      </trkpt>
      <trkpt lat="45.22423" lon="6.02358">
        <ele>1791</ele>
        <time>2024-06-05T23:50:17+00:00</time>
      </trkpt>
      <trkpt lat="45.22427" lon="6.02374">
        <ele>1793</ele>
        <time>2024-06-05T23:50:20+00:00</time>
      </trkpt>
      <trkpt lat="45.22431" lon="6.02383">
        <ele>1797</ele>
        <time>2024-06-05T23:50:23+00:00</time>
      </trkpt>
      <trkpt lat="45.22432" lon="6.02385">
        <ele>1797</ele>
        <time>2024-06-05T23:50:26+00:00</time>
      </trkpt>
      <trkpt lat="45.22433" lon="6.02388">
        <ele>1797</ele>
        <time>2024-06-05T23:50:29+00:00</time>
      </trkpt>
      <trkpt lat="45.22435" lon="6.02391">
        <ele>1798</ele>
        <time>2024-06-05T23:50:32+00:00</time>
      </trkpt>
      <trkpt lat="45.22436" lon="6.0239">
        <ele>1798</ele>
        <time>2024-06-05T23:50:35+00:00</time>
      </trkpt>
      <trkpt lat="45.22437" lon="6.0239">
        <ele>1797</ele>
        <time>2024-06-05T23:50:38+00:00</time>
      </trkpt>
      <trkpt lat="45.22438" lon="6.0239">
        <ele>1797</ele>
        <time>2024-06-05T23:50:41+00:00</time>
      </trkpt>
      <trkpt lat="45.2244" lon="6.02395">
        <ele>1801</ele>
        <time>2024-06-05T23:50:44+00:00</time>
      </trkpt>
      <trkpt lat="45.22441" lon="6.024">
        <ele>1801</ele>
        <time>2024-06-05T23:50:47+00:00</time>
      </trkpt>
      <trkpt lat="45.22443" lon="6.02401">
        <ele>1802</ele>
        <time>2024-06-05T23:50:50+00:00</time>
      </trkpt>
      <trkpt lat="45.22446" lon="6.02401">
        <ele>1802</ele>
        <time>2024-06-05T23:50:53+00:00</time>
      </trkpt>
      <trkpt lat="45.22448" lon="6.02399">
        <ele>1801</ele>
        <time>2024-06-05T23:50:56+00:00</time>
      </trkpt>
      <trkpt lat="45.22448" lon="6.02396">
        <ele>1801</ele>
        <time>2024-06-05T23:50:59+00:00</time>
      </trkpt>
      <trkpt lat="45.22449" lon="6.02396">
        <ele>1801</ele>
        <time>2024-06-05T23:51:02+00:00</time>
      </trkpt>
      <trkpt lat="45.2245" lon="6.02396">
        <ele>1801</ele>
        <time>2024-06-05T23:51:05+00:00</time>
      </trkpt>
      <trkpt lat="45.2245" lon="6.02392">
        <ele>1807</ele>
        <time>2024-06-05T23:51:08+00:00</time>
      </trkpt>
      <trkpt lat="45.22451" lon="6.02391">
        <ele>1807</ele>
        <time>2024-06-05T23:51:11+00:00</time>
      </trkpt>
      <trkpt lat="45.22452" lon="6.02392">
        <ele>1807</ele>
        <time>2024-06-05T23:51:14+00:00</time>
      </trkpt>
      <trkpt lat="45.22456" lon="6.024">
        <ele>1807</ele>
        <time>2024-06-05T23:51:17+00:00</time>
      </trkpt>
      <trkpt lat="45.22457" lon="6.02403">
        <ele>1807</ele>
        <time>2024-06-05T23:51:20+00:00</time>
      </trkpt>
      <trkpt lat="45.22458" lon="6.02404">
        <ele>1807</ele>
        <time>2024-06-05T23:51:23+00:00</time>
      </trkpt>
      <trkpt lat="45.22459" lon="6.02407">
        <ele>1807</ele>
        <time>2024-06-05T23:51:26+00:00</time>
      </trkpt>
      <trkpt lat="45.22463" lon="6.02414">
        <ele>1812</ele>
        <time>2024-06-05T23:51:29+00:00</time>
      </trkpt>
      <trkpt lat="45.22464" lon="6.02415">
        <ele>1812</ele>
        <time>2024-06-05T23:51:32+00:00</time>
      </trkpt>
      <trkpt lat="45.22465" lon="6.02418">
        <ele>1812</ele>
        <time>2024-06-05T23:51:35+00:00</time>
      </trkpt>
      <trkpt lat="45.22466" lon="6.0242">
        <ele>1812</ele>
        <time>2024-06-05T23:51:38+00:00</time>
      </trkpt>
      <trkpt lat="45.22467" lon="6.02419">
        <ele>1812</ele>
        <time>2024-06-05T23:51:41+00:00</time>
      </trkpt>
      <trkpt lat="45.22468" lon="6.02415">
        <ele>1812</ele>
        <time>2024-06-05T23:51:44+00:00</time>
      </trkpt>
      <trkpt lat="45.22468" lon="6.0241">
        <ele>1812</ele>
        <time>2024-06-05T23:51:47+00:00</time>
      </trkpt>
      <trkpt lat="45.22469" lon="6.02405">
        <ele>1812</ele>
        <time>2024-06-05T23:51:50+00:00</time>
      </trkpt>
      <trkpt lat="45.22469" lon="6.02399">
        <ele>1812</ele>
        <time>2024-06-05T23:51:53+00:00</time>
      </trkpt>
      <trkpt lat="45.2247" lon="6.02398">
        <ele>1812</ele>
        <time>2024-06-05T23:51:56+00:00</time>
      </trkpt>
      <trkpt lat="45.22472" lon="6.02401">
        <ele>1817</ele>
        <time>2024-06-05T23:51:59+00:00</time>
      </trkpt>
      <trkpt lat="45.22476" lon="6.02422">
        <ele>1817</ele>
        <time>2024-06-05T23:52:02+00:00</time>
      </trkpt>
      <trkpt lat="45.22477" lon="6.02425">
        <ele>1817</ele>
        <time>2024-06-05T23:52:05+00:00</time>
      </trkpt>
      <trkpt lat="45.22476" lon="6.0243">
        <ele>1817</ele>
        <time>2024-06-05T23:52:08+00:00</time>
      </trkpt>
      <trkpt lat="45.22478" lon="6.02431">
        <ele>1818</ele>
        <time>2024-06-05T23:52:11+00:00</time>
      </trkpt>
      <trkpt lat="45.22479" lon="6.02432">
        <ele>1818</ele>
        <time>2024-06-05T23:52:14+00:00</time>
      </trkpt>
      <trkpt lat="45.2248" lon="6.02431">
        <ele>1818</ele>
        <time>2024-06-05T23:52:17+00:00</time>
      </trkpt>
      <trkpt lat="45.22483" lon="6.02432">
        <ele>1824</ele>
        <time>2024-06-05T23:52:20+00:00</time>
      </trkpt>
      <trkpt lat="45.22484" lon="6.02432">
        <ele>1824</ele>
        <time>2024-06-05T23:52:23+00:00</time>
      </trkpt>
      <trkpt lat="45.22485" lon="6.02431">
        <ele>1824</ele>
        <time>2024-06-05T23:52:26+00:00</time>
      </trkpt>
      <trkpt lat="45.22486" lon="6.02431">
        <ele>1824</ele>
        <time>2024-06-05T23:52:29+00:00</time>
      </trkpt>
      <trkpt lat="45.22487" lon="6.02434">
        <ele>1824</ele>
        <time>2024-06-05T23:52:32+00:00</time>
      </trkpt>
      <trkpt lat="45.22489" lon="6.02436">
        <ele>1824</ele>
        <time>2024-06-05T23:52:35+00:00</time>
      </trkpt>
      <trkpt lat="45.22491" lon="6.0244">
        <ele>1828</ele>
        <time>2024-06-05T23:52:38+00:00</time>
      </trkpt>
      <trkpt lat="45.22492" lon="6.02441">
        <ele>1828</ele>
        <time>2024-06-05T23:52:41+00:00</time>
      </trkpt>
      <trkpt lat="45.22497" lon="6.02443">
        <ele>1828</ele>
        <time>2024-06-05T23:52:44+00:00</time>
      </trkpt>
      <trkpt lat="45.22499" lon="6.02441">
        <ele>1828</ele>
        <time>2024-06-05T23:52:47+00:00</time>
      </trkpt>
      <trkpt lat="45.22502" lon="6.02443">
        <ele>1830</ele>
        <time>2024-06-05T23:52:50+00:00</time>
      </trkpt>
      <trkpt lat="45.22504" lon="6.02447">
        <ele>1830</ele>
        <time>2024-06-05T23:52:53+00:00</time>
      </trkpt>
      <trkpt lat="45.22513" lon="6.02452">
        <ele>1832</ele>
        <time>2024-06-05T23:52:56+00:00</time>
      </trkpt>
      <trkpt lat="45.22518" lon="6.02454">
        <ele>1832</ele>
        <time>2024-06-05T23:52:59+00:00</time>
      </trkpt>
      <trkpt lat="45.22521" lon="6.02459">
        <ele>1834</ele>
        <time>2024-06-05T23:53:02+00:00</time>
      </trkpt>
      <trkpt lat="45.2253" lon="6.02466">
        <ele>1836</ele>
        <time>2024-06-05T23:53:05+00:00</time>
      </trkpt>
      <trkpt lat="45.22532" lon="6.02467">
        <ele>1836</ele>
        <time>2024-06-05T23:53:08+00:00</time>
      </trkpt>
      <trkpt lat="45.22531" lon="6.02475">
        <ele>1836</ele>
        <time>2024-06-05T23:53:11+00:00</time>
      </trkpt>
      <trkpt lat="45.22532" lon="6.02479">
        <ele>1836</ele>
        <time>2024-06-05T23:53:14+00:00</time>
      </trkpt>
      <trkpt lat="45.22534" lon="6.02479">
        <ele>1836</ele>
        <time>2024-06-05T23:53:17+00:00</time>
      </trkpt>
      <trkpt lat="45.22536" lon="6.02478">
        <ele>1836</ele>
        <time>2024-06-05T23:53:20+00:00</time>
      </trkpt>
      <trkpt lat="45.22539" lon="6.02479">
        <ele>1836</ele>
        <time>2024-06-05T23:53:23+00:00</time>
      </trkpt>
      <trkpt lat="45.2254" lon="6.02482">
        <ele>1840</ele>
        <time>2024-06-05T23:53:26+00:00</time>
      </trkpt>
      <trkpt lat="45.22542" lon="6.02483">
        <ele>1840</ele>
        <time>2024-06-05T23:53:29+00:00</time>
      </trkpt>
      <trkpt lat="45.22545" lon="6.02482">
        <ele>1840</ele>
        <time>2024-06-05T23:53:32+00:00</time>
      </trkpt>
      <trkpt lat="45.22546" lon="6.02482">
        <ele>1840</ele>
        <time>2024-06-05T23:53:35+00:00</time>
      </trkpt>
      <trkpt lat="45.22548" lon="6.02482">
        <ele>1840</ele>
        <time>2024-06-05T23:53:38+00:00</time>
      </trkpt>
      <trkpt lat="45.22551" lon="6.02484">
        <ele>1842</ele>
        <time>2024-06-05T23:53:41+00:00</time>
      </trkpt>
      <trkpt lat="45.22555" lon="6.02492">
        <ele>1842</ele>
        <time>2024-06-05T23:53:44+00:00</time>
      </trkpt>
      <trkpt lat="45.22561" lon="6.02497">
        <ele>1844</ele>
        <time>2024-06-05T23:53:47+00:00</time>
      </trkpt>
      <trkpt lat="45.22565" lon="6.02498">
        <ele>1844</ele>
        <time>2024-06-05T23:53:50+00:00</time>
      </trkpt>
      <trkpt lat="45.22567" lon="6.025">
        <ele>1844</ele>
        <time>2024-06-05T23:53:53+00:00</time>
      </trkpt>
      <trkpt lat="45.2258" lon="6.02501">
        <ele>1846</ele>
        <time>2024-06-05T23:53:56+00:00</time>
      </trkpt>
      <trkpt lat="45.22586" lon="6.02502">
        <ele>1847</ele>
        <time>2024-06-05T23:53:59+00:00</time>
      </trkpt>
      <trkpt lat="45.22591" lon="6.02502">
        <ele>1849</ele>
        <time>2024-06-05T23:54:02+00:00</time>
      </trkpt>
      <trkpt lat="45.22596" lon="6.02501">
        <ele>1849</ele>
        <time>2024-06-05T23:54:05+00:00</time>
      </trkpt>
      <trkpt lat="45.22598" lon="6.02499">
        <ele>1849</ele>
        <time>2024-06-05T23:54:08+00:00</time>
      </trkpt>
      <trkpt lat="45.22601" lon="6.02501">
        <ele>1852</ele>
        <time>2024-06-05T23:54:11+00:00</time>
      </trkpt>
      <trkpt lat="45.22603" lon="6.02504">
        <ele>1852</ele>
        <time>2024-06-05T23:54:14+00:00</time>
      </trkpt>
      <trkpt lat="45.22607" lon="6.02505">
        <ele>1852</ele>
        <time>2024-06-05T23:54:17+00:00</time>
      </trkpt>
      <trkpt lat="45.22609" lon="6.02504">
        <ele>1852</ele>
        <time>2024-06-05T23:54:20+00:00</time>
      </trkpt>
      <trkpt lat="45.22611" lon="6.02506">
        <ele>1854</ele>
        <time>2024-06-05T23:54:23+00:00</time>
      </trkpt>
      <trkpt lat="45.22612" lon="6.02504">
        <ele>1854</ele>
        <time>2024-06-05T23:54:26+00:00</time>
      </trkpt>
      <trkpt lat="45.22617" lon="6.02506">
        <ele>1854</ele>
        <time>2024-06-05T23:54:29+00:00</time>
      </trkpt>
      <trkpt lat="45.22618" lon="6.02509">
        <ele>1854</ele>
        <time>2024-06-05T23:54:32+00:00</time>
      </trkpt>
      <trkpt lat="45.2262" lon="6.02513">
        <ele>1855</ele>
        <time>2024-06-05T23:54:35+00:00</time>
      </trkpt>
      <trkpt lat="45.22624" lon="6.02517">
        <ele>1858</ele>
        <time>2024-06-05T23:54:38+00:00</time>
      </trkpt>
      <trkpt lat="45.22625" lon="6.02518">
        <ele>1858</ele>
        <time>2024-06-05T23:54:41+00:00</time>
      </trkpt>
      <trkpt lat="45.22628" lon="6.02518">
        <ele>1858</ele>
        <time>2024-06-05T23:54:44+00:00</time>
      </trkpt>
      <trkpt lat="45.2263" lon="6.02519">
        <ele>1862</ele>
        <time>2024-06-05T23:54:47+00:00</time>
      </trkpt>
      <trkpt lat="45.22632" lon="6.02521">
        <ele>1863</ele>
        <time>2024-06-05T23:54:50+00:00</time>
      </trkpt>
      <trkpt lat="45.22635" lon="6.02522">
        <ele>1863</ele>
        <time>2024-06-05T23:54:53+00:00</time>
      </trkpt>
      <trkpt lat="45.22639" lon="6.02521">
        <ele>1863</ele>
        <time>2024-06-05T23:54:56+00:00</time>
      </trkpt>
      <trkpt lat="45.22642" lon="6.02518">
        <ele>1865</ele>
        <time>2024-06-05T23:54:59+00:00</time>
      </trkpt>
      <trkpt lat="45.22644" lon="6.02517">
        <ele>1865</ele>
        <time>2024-06-05T23:55:02+00:00</time>
      </trkpt>
      <trkpt lat="45.22646" lon="6.02515">
        <ele>1865</ele>
        <time>2024-06-05T23:55:05+00:00</time>
      </trkpt>
      <trkpt lat="45.22651" lon="6.02515">
        <ele>1868</ele>
        <time>2024-06-05T23:55:08+00:00</time>
      </trkpt>
      <trkpt lat="45.22655" lon="6.02514">
        <ele>1868</ele>
        <time>2024-06-05T23:55:11+00:00</time>
      </trkpt>
      <trkpt lat="45.22659" lon="6.0251">
        <ele>1868</ele>
        <time>2024-06-05T23:55:14+00:00</time>
      </trkpt>
      <trkpt lat="45.22661" lon="6.02512">
        <ele>1872</ele>
        <time>2024-06-05T23:55:17+00:00</time>
      </trkpt>
      <trkpt lat="45.22661" lon="6.02514">
        <ele>1872</ele>
        <time>2024-06-05T23:55:20+00:00</time>
      </trkpt>
      <trkpt lat="45.22662" lon="6.02514">
        <ele>1872</ele>
        <time>2024-06-05T23:55:23+00:00</time>
      </trkpt>
      <trkpt lat="45.22663" lon="6.02514">
        <ele>1872</ele>
        <time>2024-06-05T23:55:26+00:00</time>
      </trkpt>
      <trkpt lat="45.22664" lon="6.02512">
        <ele>1872</ele>
        <time>2024-06-05T23:55:29+00:00</time>
      </trkpt>
      <trkpt lat="45.22665" lon="6.02511">
        <ele>1872</ele>
        <time>2024-06-05T23:55:32+00:00</time>
      </trkpt>
      <trkpt lat="45.22666" lon="6.02515">
        <ele>1872</ele>
        <time>2024-06-05T23:55:35+00:00</time>
      </trkpt>
      <trkpt lat="45.22666" lon="6.02516">
        <ele>1872</ele>
        <time>2024-06-05T23:55:38+00:00</time>
      </trkpt>
      <trkpt lat="45.22668" lon="6.02517">
        <ele>1872</ele>
        <time>2024-06-05T23:55:41+00:00</time>
      </trkpt>
      <trkpt lat="45.2267" lon="6.0252">
        <ele>1872</ele>
        <time>2024-06-05T23:55:44+00:00</time>
      </trkpt>
      <trkpt lat="45.22672" lon="6.02519">
        <ele>1875</ele>
        <time>2024-06-05T23:55:47+00:00</time>
      </trkpt>
      <trkpt lat="45.22674" lon="6.0252">
        <ele>1876</ele>
        <time>2024-06-05T23:55:50+00:00</time>
      </trkpt>
      <trkpt lat="45.22676" lon="6.0252">
        <ele>1875</ele>
        <time>2024-06-05T23:55:53+00:00</time>
      </trkpt>
      <trkpt lat="45.2268" lon="6.02516">
        <ele>1875</ele>
        <time>2024-06-05T23:55:56+00:00</time>
      </trkpt>
      <trkpt lat="45.22681" lon="6.02514">
        <ele>1879</ele>
        <time>2024-06-05T23:55:59+00:00</time>
      </trkpt>
      <trkpt lat="45.22684" lon="6.02511">
        <ele>1879</ele>
        <time>2024-06-05T23:56:02+00:00</time>
      </trkpt>
      <trkpt lat="45.22685" lon="6.0251">
        <ele>1878</ele>
        <time>2024-06-05T23:56:05+00:00</time>
      </trkpt>
      <trkpt lat="45.22687" lon="6.02508">
        <ele>1878</ele>
        <time>2024-06-05T23:56:08+00:00</time>
      </trkpt>
      <trkpt lat="45.22689" lon="6.0251">
        <ele>1878</ele>
        <time>2024-06-05T23:56:11+00:00</time>
      </trkpt>
      <trkpt lat="45.22691" lon="6.02513">
        <ele>1883</ele>
        <time>2024-06-05T23:56:14+00:00</time>
      </trkpt>
      <trkpt lat="45.22692" lon="6.02513">
        <ele>1883</ele>
        <time>2024-06-05T23:56:17+00:00</time>
      </trkpt>
      <trkpt lat="45.22694" lon="6.02512">
        <ele>1883</ele>
        <time>2024-06-05T23:56:20+00:00</time>
      </trkpt>
      <trkpt lat="45.22695" lon="6.0251">
        <ele>1883</ele>
        <time>2024-06-05T23:56:23+00:00</time>
      </trkpt>
      <trkpt lat="45.22699" lon="6.02508">
        <ele>1883</ele>
        <time>2024-06-05T23:56:26+00:00</time>
      </trkpt>
      <trkpt lat="45.22704" lon="6.02508">
        <ele>1885</ele>
        <time>2024-06-05T23:56:29+00:00</time>
      </trkpt>
      <trkpt lat="45.22705" lon="6.02509">
        <ele>1885</ele>
        <time>2024-06-05T23:56:32+00:00</time>
      </trkpt>
      <trkpt lat="45.22708" lon="6.02509">
        <ele>1885</ele>
        <time>2024-06-05T23:56:35+00:00</time>
      </trkpt>
      <trkpt lat="45.22709" lon="6.02507">
        <ele>1885</ele>
        <time>2024-06-05T23:56:38+00:00</time>
      </trkpt>
      <trkpt lat="45.2271" lon="6.02507">
        <ele>1887</ele>
        <time>2024-06-05T23:56:41+00:00</time>
      </trkpt>
      <trkpt lat="45.22713" lon="6.02509">
        <ele>1887</ele>
        <time>2024-06-05T23:56:44+00:00</time>
      </trkpt>
      <trkpt lat="45.22717" lon="6.02508">
        <ele>1887</ele>
        <time>2024-06-05T23:56:47+00:00</time>
      </trkpt>
      <trkpt lat="45.22719" lon="6.0251">
        <ele>1887</ele>
        <time>2024-06-05T23:56:50+00:00</time>
      </trkpt>
      <trkpt lat="45.22721" lon="6.02509">
        <ele>1892</ele>
        <time>2024-06-05T23:56:53+00:00</time>
      </trkpt>
      <trkpt lat="45.22725" lon="6.02511">
        <ele>1891</ele>
        <time>2024-06-05T23:56:56+00:00</time>
      </trkpt>
      <trkpt lat="45.22726" lon="6.02513">
        <ele>1891</ele>
        <time>2024-06-05T23:56:59+00:00</time>
      </trkpt>
      <trkpt lat="45.22729" lon="6.02512">
        <ele>1891</ele>
        <time>2024-06-05T23:57:02+00:00</time>
      </trkpt>
      <trkpt lat="45.22732" lon="6.02514">
        <ele>1894</ele>
        <time>2024-06-05T23:57:05+00:00</time>
      </trkpt>
      <trkpt lat="45.22734" lon="6.02512">
        <ele>1894</ele>
        <time>2024-06-05T23:57:08+00:00</time>
      </trkpt>
      <trkpt lat="45.22736" lon="6.02506">
        <ele>1895</ele>
        <time>2024-06-05T23:57:11+00:00</time>
      </trkpt>
      <trkpt lat="45.22737" lon="6.02506">
        <ele>1895</ele>
        <time>2024-06-05T23:57:14+00:00</time>
      </trkpt>
      <trkpt lat="45.22739" lon="6.02509">
        <ele>1895</ele>
        <time>2024-06-05T23:57:17+00:00</time>
      </trkpt>
      <trkpt lat="45.2274" lon="6.0251">
        <ele>1897</ele>
        <time>2024-06-05T23:57:20+00:00</time>
      </trkpt>
      <trkpt lat="45.22744" lon="6.02511">
        <ele>1897</ele>
        <time>2024-06-05T23:57:23+00:00</time>
      </trkpt>
      <trkpt lat="45.22745" lon="6.0251">
        <ele>1897</ele>
        <time>2024-06-05T23:57:26+00:00</time>
      </trkpt>
      <trkpt lat="45.22747" lon="6.02513">
        <ele>1897</ele>
        <time>2024-06-05T23:57:29+00:00</time>
      </trkpt>
      <trkpt lat="45.2275" lon="6.02515">
        <ele>1897</ele>
        <time>2024-06-05T23:57:32+00:00</time>
      </trkpt>
      <trkpt lat="45.22755" lon="6.02518">
        <ele>1903</ele>
        <time>2024-06-05T23:57:35+00:00</time>
      </trkpt>
      <trkpt lat="45.22758" lon="6.02521">
        <ele>1902</ele>
        <time>2024-06-05T23:57:38+00:00</time>
      </trkpt>
      <trkpt lat="45.2276" lon="6.02523">
        <ele>1902</ele>
        <time>2024-06-05T23:57:41+00:00</time>
      </trkpt>
      <trkpt lat="45.22763" lon="6.02527">
        <ele>1900</ele>
        <time>2024-06-05T23:57:44+00:00</time>
      </trkpt>
      <trkpt lat="45.22765" lon="6.02528">
        <ele>1905</ele>
        <time>2024-06-05T23:57:47+00:00</time>
      </trkpt>
      <trkpt lat="45.22766" lon="6.0253">
        <ele>1905</ele>
        <time>2024-06-05T23:57:50+00:00</time>
      </trkpt>
      <trkpt lat="45.22772" lon="6.02533">
        <ele>1906</ele>
        <time>2024-06-05T23:57:53+00:00</time>
      </trkpt>
      <trkpt lat="45.22776" lon="6.02539">
        <ele>1906</ele>
        <time>2024-06-05T23:57:56+00:00</time>
      </trkpt>
      <trkpt lat="45.2278" lon="6.02541">
        <ele>1904</ele>
        <time>2024-06-05T23:57:59+00:00</time>
      </trkpt>
      <trkpt lat="45.22782" lon="6.0254">
        <ele>1908</ele>
        <time>2024-06-05T23:58:02+00:00</time>
      </trkpt>
      <trkpt lat="45.22783" lon="6.02541">
        <ele>1908</ele>
        <time>2024-06-05T23:58:05+00:00</time>
      </trkpt>
      <trkpt lat="45.22789" lon="6.02548">
        <ele>1908</ele>
        <time>2024-06-05T23:58:08+00:00</time>
      </trkpt>
      <trkpt lat="45.2279" lon="6.02551">
        <ele>1908</ele>
        <time>2024-06-05T23:58:11+00:00</time>
      </trkpt>
      <trkpt lat="45.22791" lon="6.02551">
        <ele>1908</ele>
        <time>2024-06-05T23:58:14+00:00</time>
      </trkpt>
      <trkpt lat="45.22792" lon="6.0255">
        <ele>1908</ele>
        <time>2024-06-05T23:58:17+00:00</time>
      </trkpt>
      <trkpt lat="45.22794" lon="6.0255">
        <ele>1908</ele>
        <time>2024-06-05T23:58:20+00:00</time>
      </trkpt>
      <trkpt lat="45.22795" lon="6.02553">
        <ele>1908</ele>
        <time>2024-06-05T23:58:23+00:00</time>
      </trkpt>
      <trkpt lat="45.228" lon="6.02562">
        <ele>1907</ele>
        <time>2024-06-05T23:58:26+00:00</time>
      </trkpt>
      <trkpt lat="45.22802" lon="6.02564">
        <ele>1910</ele>
        <time>2024-06-05T23:58:29+00:00</time>
      </trkpt>
      <trkpt lat="45.22805" lon="6.02573">
        <ele>1909</ele>
        <time>2024-06-05T23:58:32+00:00</time>
      </trkpt>
      <trkpt lat="45.22813" lon="6.02588">
        <ele>1913</ele>
        <time>2024-06-05T23:58:35+00:00</time>
      </trkpt>
      <trkpt lat="45.22815" lon="6.0259">
        <ele>1912</ele>
        <time>2024-06-05T23:58:38+00:00</time>
      </trkpt>
      <trkpt lat="45.22816" lon="6.02591">
        <ele>1912</ele>
        <time>2024-06-05T23:58:41+00:00</time>
      </trkpt>
      <trkpt lat="45.22819" lon="6.02597">
        <ele>1912</ele>
        <time>2024-06-05T23:58:44+00:00</time>
      </trkpt>
      <trkpt lat="45.22824" lon="6.02605">
        <ele>1915</ele>
        <time>2024-06-05T23:58:47+00:00</time>
      </trkpt>
      <trkpt lat="45.22826" lon="6.0261">
        <ele>1914</ele>
        <time>2024-06-05T23:58:50+00:00</time>
      </trkpt>
      <trkpt lat="45.22828" lon="6.02611">
        <ele>1914</ele>
        <time>2024-06-05T23:58:53+00:00</time>
      </trkpt>
      <trkpt lat="45.22829" lon="6.02612">
        <ele>1914</ele>
        <time>2024-06-05T23:58:56+00:00</time>
      </trkpt>
      <trkpt lat="45.22831" lon="6.02612">
        <ele>1918</ele>
        <time>2024-06-05T23:58:59+00:00</time>
      </trkpt>
      <trkpt lat="45.22832" lon="6.02617">
        <ele>1918</ele>
        <time>2024-06-05T23:59:02+00:00</time>
      </trkpt>
      <trkpt lat="45.22836" lon="6.02623">
        <ele>1917</ele>
        <time>2024-06-05T23:59:05+00:00</time>
      </trkpt>
      <trkpt lat="45.22837" lon="6.02624">
        <ele>1917</ele>
        <time>2024-06-05T23:59:08+00:00</time>
      </trkpt>
      <trkpt lat="45.22838" lon="6.02626">
        <ele>1917</ele>
        <time>2024-06-05T23:59:11+00:00</time>
      </trkpt>
      <trkpt lat="45.22842" lon="6.02627">
        <ele>1923</ele>
        <time>2024-06-05T23:59:14+00:00</time>
      </trkpt>
      <trkpt lat="45.22845" lon="6.02627">
        <ele>1923</ele>
        <time>2024-06-05T23:59:17+00:00</time>
      </trkpt>
      <trkpt lat="45.22846" lon="6.02628">
        <ele>1923</ele>
        <time>2024-06-05T23:59:20+00:00</time>
      </trkpt>
      <trkpt lat="45.22848" lon="6.02632">
        <ele>1922</ele>
        <time>2024-06-05T23:59:23+00:00</time>
      </trkpt>
      <trkpt lat="45.22848" lon="6.02643">
        <ele>1922</ele>
        <time>2024-06-05T23:59:26+00:00</time>
      </trkpt>
      <trkpt lat="45.22847" lon="6.0265">
        <ele>1923</ele>
        <time>2024-06-05T23:59:29+00:00</time>
      </trkpt>
      <trkpt lat="45.22847" lon="6.02653">
        <ele>1923</ele>
        <time>2024-06-05T23:59:32+00:00</time>
      </trkpt>
      <trkpt lat="45.22845" lon="6.02656">
        <ele>1923</ele>
        <time>2024-06-05T23:59:35+00:00</time>
      </trkpt>
      <trkpt lat="45.22845" lon="6.0266">
        <ele>1925</ele>
        <time>2024-06-05T23:59:38+00:00</time>
      </trkpt>
      <trkpt lat="45.22846" lon="6.02662">
        <ele>1925</ele>
        <time>2024-06-05T23:59:41+00:00</time>
      </trkpt>
      <trkpt lat="45.22848" lon="6.02663">
        <ele>1925</ele>
        <time>2024-06-05T23:59:44+00:00</time>
      </trkpt>
      <trkpt lat="45.22848" lon="6.02665">
        <ele>1925</ele>
        <time>2024-06-05T23:59:47+00:00</time>
      </trkpt>
      <trkpt lat="45.22845" lon="6.02674">
        <ele>1928</ele>
        <time>2024-06-05T23:59:50+00:00</time>
      </trkpt>
      <trkpt lat="45.22845" lon="6.02677">
        <ele>1928</ele>
        <time>2024-06-05T23:59:53+00:00</time>
      </trkpt>
      <trkpt lat="45.22847" lon="6.02679">
        <ele>1928</ele>
        <time>2024-06-05T23:59:56+00:00</time>
      </trkpt>
      <trkpt lat="45.22846" lon="6.02681">
        <ele>1930</ele>
        <time>2024-06-05T23:59:59+00:00</time>
      </trkpt>
      <trkpt lat="45.22845" lon="6.02684">
        <ele>1930</ele>
        <time>2024-06-06T00:00:02+00:00</time>
      </trkpt>
      <trkpt lat="45.22845" lon="6.02688">
        <ele>1930</ele>
        <time>2024-06-06T00:00:05+00:00</time>
      </trkpt>
      <trkpt lat="45.22844" lon="6.02694">
        <ele>1933</ele>
        <time>2024-06-06T00:00:08+00:00</time>
      </trkpt>
      <trkpt lat="45.22844" lon="6.02695">
        <ele>1933</ele>
        <time>2024-06-06T00:00:11+00:00</time>
      </trkpt>
      <trkpt lat="45.22842" lon="6.02698">
        <ele>1933</ele>
        <time>2024-06-06T00:00:14+00:00</time>
      </trkpt>
      <trkpt lat="45.22843" lon="6.02701">
        <ele>1938</ele>
        <time>2024-06-06T00:00:17+00:00</time>
      </trkpt>
      <trkpt lat="45.22844" lon="6.02703">
        <ele>1938</ele>
        <time>2024-06-06T00:00:20+00:00</time>
      </trkpt>
      <trkpt lat="45.22846" lon="6.02702">
        <ele>1938</ele>
        <time>2024-06-06T00:00:23+00:00</time>
      </trkpt>
      <trkpt lat="45.22847" lon="6.027">
        <ele>1938</ele>
        <time>2024-06-06T00:00:26+00:00</time>
      </trkpt>
      <trkpt lat="45.22848" lon="6.02699">
        <ele>1933</ele>
        <time>2024-06-06T00:00:29+00:00</time>
      </trkpt>
      <trkpt lat="45.22849" lon="6.027">
        <ele>1938</ele>
        <time>2024-06-06T00:00:32+00:00</time>
      </trkpt>
      <trkpt lat="45.22851" lon="6.02701">
        <ele>1942</ele>
        <time>2024-06-06T00:00:35+00:00</time>
      </trkpt>
      <trkpt lat="45.22853" lon="6.02699">
        <ele>1937</ele>
        <time>2024-06-06T00:00:38+00:00</time>
      </trkpt>
      <trkpt lat="45.22854" lon="6.02701">
        <ele>1942</ele>
        <time>2024-06-06T00:00:41+00:00</time>
      </trkpt>
      <trkpt lat="45.22852" lon="6.02707">
        <ele>1942</ele>
        <time>2024-06-06T00:00:44+00:00</time>
      </trkpt>
      <trkpt lat="45.2285" lon="6.02712">
        <ele>1945</ele>
        <time>2024-06-06T00:00:47+00:00</time>
      </trkpt>
      <trkpt lat="45.22848" lon="6.02716">
        <ele>1941</ele>
        <time>2024-06-06T00:00:50+00:00</time>
      </trkpt>
      <trkpt lat="45.22848" lon="6.02719">
        <ele>1941</ele>
        <time>2024-06-06T00:00:53+00:00</time>
      </trkpt>
      <trkpt lat="45.22847" lon="6.02724">
        <ele>1945</ele>
        <time>2024-06-06T00:00:56+00:00</time>
      </trkpt>
      <trkpt lat="45.22847" lon="6.02725">
        <ele>1945</ele>
        <time>2024-06-06T00:00:59+00:00</time>
      </trkpt>
      <trkpt lat="45.22845" lon="6.02725">
        <ele>1945</ele>
        <time>2024-06-06T00:01:02+00:00</time>
      </trkpt>
      <trkpt lat="45.22845" lon="6.02728">
        <ele>1945</ele>
        <time>2024-06-06T00:01:05+00:00</time>
      </trkpt>
      <trkpt lat="45.22846" lon="6.02728">
        <ele>1945</ele>
        <time>2024-06-06T00:01:08+00:00</time>
      </trkpt>
      <trkpt lat="45.22847" lon="6.02727">
        <ele>1945</ele>
        <time>2024-06-06T00:01:11+00:00</time>
      </trkpt>
      <trkpt lat="45.22847" lon="6.02729">
        <ele>1945</ele>
        <time>2024-06-06T00:01:14+00:00</time>
      </trkpt>
      <trkpt lat="45.22845" lon="6.02736">
        <ele>1949</ele>
        <time>2024-06-06T00:01:17+00:00</time>
      </trkpt>
      <trkpt lat="45.22846" lon="6.02738">
        <ele>1949</ele>
        <time>2024-06-06T00:01:20+00:00</time>
      </trkpt>
      <trkpt lat="45.22849" lon="6.02739">
        <ele>1949</ele>
        <time>2024-06-06T00:01:23+00:00</time>
      </trkpt>
      <trkpt lat="45.2285" lon="6.02736">
        <ele>1954</ele>
        <time>2024-06-06T00:01:26+00:00</time>
      </trkpt>
      <trkpt lat="45.22852" lon="6.02734">
        <ele>1954</ele>
        <time>2024-06-06T00:01:29+00:00</time>
      </trkpt>
      <trkpt lat="45.22858" lon="6.02732">
        <ele>1954</ele>
        <time>2024-06-06T00:01:32+00:00</time>
      </trkpt>
      <trkpt lat="45.22861" lon="6.02733">
        <ele>1958</ele>
        <time>2024-06-06T00:01:35+00:00</time>
      </trkpt>
      <trkpt lat="45.22863" lon="6.02733">
        <ele>1958</ele>
        <time>2024-06-06T00:01:38+00:00</time>
      </trkpt>
      <trkpt lat="45.22865" lon="6.02733">
        <ele>1958</ele>
        <time>2024-06-06T00:01:41+00:00</time>
      </trkpt>
      <trkpt lat="45.22866" lon="6.02732">
        <ele>1958</ele>
        <time>2024-06-06T00:01:44+00:00</time>
      </trkpt>
      <trkpt lat="45.22874" lon="6.02729">
        <ele>1957</ele>
        <time>2024-06-06T00:01:47+00:00</time>
      </trkpt>
      <trkpt lat="45.22877" lon="6.02728">
        <ele>1957</ele>
        <time>2024-06-06T00:01:50+00:00</time>
      </trkpt>
      <trkpt lat="45.22878" lon="6.02727">
        <ele>1957</ele>
        <time>2024-06-06T00:01:53+00:00</time>
      </trkpt>
      <trkpt lat="45.22879" lon="6.02725">
        <ele>1957</ele>
        <time>2024-06-06T00:01:56+00:00</time>
      </trkpt>
      <trkpt lat="45.22886" lon="6.02725">
        <ele>1960</ele>
        <time>2024-06-06T00:01:59+00:00</time>
      </trkpt>
      <trkpt lat="45.22891" lon="6.02728">
        <ele>1963</ele>
        <time>2024-06-06T00:02:02+00:00</time>
      </trkpt>
      <trkpt lat="45.22896" lon="6.02727">
        <ele>1963</ele>
        <time>2024-06-06T00:02:05+00:00</time>
      </trkpt>
      <trkpt lat="45.22903" lon="6.02723">
        <ele>1967</ele>
        <time>2024-06-06T00:02:08+00:00</time>
      </trkpt>
      <trkpt lat="45.22914" lon="6.02723">
        <ele>1970</ele>
        <time>2024-06-06T00:02:11+00:00</time>
      </trkpt>
      <trkpt lat="45.22919" lon="6.02722">
        <ele>1970</ele>
        <time>2024-06-06T00:02:14+00:00</time>
      </trkpt>
      <trkpt lat="45.22923" lon="6.02723">
        <ele>1973</ele>
        <time>2024-06-06T00:02:17+00:00</time>
      </trkpt>
      <trkpt lat="45.22925" lon="6.02724">
        <ele>1973</ele>
        <time>2024-06-06T00:02:20+00:00</time>
      </trkpt>
      <trkpt lat="45.22932" lon="6.02725">
        <ele>1978</ele>
        <time>2024-06-06T00:02:23+00:00</time>
      </trkpt>
      <trkpt lat="45.22934" lon="6.02724">
        <ele>1978</ele>
        <time>2024-06-06T00:02:26+00:00</time>
      </trkpt>
      <trkpt lat="45.22937" lon="6.02725">
        <ele>1978</ele>
        <time>2024-06-06T00:02:29+00:00</time>
      </trkpt>
      <trkpt lat="45.22943" lon="6.02724">
        <ele>1980</ele>
        <time>2024-06-06T00:02:32+00:00</time>
      </trkpt>
      <trkpt lat="45.22946" lon="6.02722">
        <ele>1980</ele>
        <time>2024-06-06T00:02:35+00:00</time>
      </trkpt>
      <trkpt lat="45.2295" lon="6.0272">
        <ele>1980</ele>
        <time>2024-06-06T00:02:38+00:00</time>
      </trkpt>
      <trkpt lat="45.22966" lon="6.02702">
        <ele>1985</ele>
        <time>2024-06-06T00:02:41+00:00</time>
      </trkpt>
      <trkpt lat="45.2297" lon="6.02695">
        <ele>1986</ele>
        <time>2024-06-06T00:02:44+00:00</time>
      </trkpt>
      <trkpt lat="45.22975" lon="6.02691">
        <ele>1986</ele>
        <time>2024-06-06T00:02:47+00:00</time>
      </trkpt>
      <trkpt lat="45.2298" lon="6.02685">
        <ele>1985</ele>
        <time>2024-06-06T00:02:50+00:00</time>
      </trkpt>
      <trkpt lat="45.22983" lon="6.02682">
        <ele>1989</ele>
        <time>2024-06-06T00:02:53+00:00</time>
      </trkpt>
      <trkpt lat="45.22986" lon="6.02675">
        <ele>1989</ele>
        <time>2024-06-06T00:02:56+00:00</time>
      </trkpt>
      <trkpt lat="45.22987" lon="6.0267">
        <ele>1990</ele>
        <time>2024-06-06T00:02:59+00:00</time>
      </trkpt>
      <trkpt lat="45.22984" lon="6.02652">
        <ele>1992</ele>
        <time>2024-06-06T00:03:02+00:00</time>
      </trkpt>
      <trkpt lat="45.22983" lon="6.02646">
        <ele>1994</ele>
        <time>2024-06-06T00:03:05+00:00</time>
      </trkpt>
      <trkpt lat="45.22979" lon="6.02632">
        <ele>1992</ele>
        <time>2024-06-06T00:03:08+00:00</time>
      </trkpt>
      <trkpt lat="45.22979" lon="6.02632">
        <ele>1992</ele>
        <time>2024-06-06T00:03:11+00:00</time>
      </trkpt>
      <trkpt lat="45.22979" lon="6.02632">
        <ele>1992</ele>
        <time>2024-06-06T00:03:14+00:00</time>
      </trkpt>
      <trkpt lat="45.22976" lon="6.02625">
        <ele>1995</ele>
        <time>2024-06-06T00:03:17+00:00</time>
      </trkpt>
      <trkpt lat="45.22976" lon="6.02624">
        <ele>1995</ele>
        <time>2024-06-06T00:03:20+00:00</time>
      </trkpt>
      <trkpt lat="45.22982" lon="6.02629">
        <ele>1999</ele>
        <time>2024-06-06T00:03:23+00:00</time>
      </trkpt>
      <trkpt lat="45.22989" lon="6.02638">
        <ele>1997</ele>
        <time>2024-06-06T00:03:26+00:00</time>
      </trkpt>
      <trkpt lat="45.22996" lon="6.02651">
        <ele>2000</ele>
        <time>2024-06-06T00:03:29+00:00</time>
      </trkpt>
      <trkpt lat="45.23" lon="6.02658">
        <ele>2000</ele>
        <time>2024-06-06T00:03:32+00:00</time>
      </trkpt>
      <trkpt lat="45.23003" lon="6.02667">
        <ele>2004</ele>
        <time>2024-06-06T00:03:35+00:00</time>
      </trkpt>
      <trkpt lat="45.23008" lon="6.02677">
        <ele>2002</ele>
        <time>2024-06-06T00:03:38+00:00</time>
      </trkpt>
      <trkpt lat="45.23011" lon="6.02687">
        <ele>2007</ele>
        <time>2024-06-06T00:03:41+00:00</time>
      </trkpt>
      <trkpt lat="45.23011" lon="6.02693">
        <ele>2007</ele>
        <time>2024-06-06T00:03:44+00:00</time>
      </trkpt>
      <trkpt lat="45.23011" lon="6.02694">
        <ele>2007</ele>
        <time>2024-06-06T00:03:47+00:00</time>
      </trkpt>
      <trkpt lat="45.23011" lon="6.02694">
        <ele>2007</ele>
        <time>2024-06-06T00:03:50+00:00</time>
      </trkpt>
      <trkpt lat="45.23014" lon="6.02695">
        <ele>2007</ele>
        <time>2024-06-06T00:03:53+00:00</time>
      </trkpt>
      <trkpt lat="45.23017" lon="6.02691">
        <ele>2007</ele>
        <time>2024-06-06T00:03:56+00:00</time>
      </trkpt>
      <trkpt lat="45.23018" lon="6.02688">
        <ele>2007</ele>
        <time>2024-06-06T00:03:59+00:00</time>
      </trkpt>
      <trkpt lat="45.23018" lon="6.02686">
        <ele>2007</ele>
        <time>2024-06-06T00:04:02+00:00</time>
      </trkpt>
      <trkpt lat="45.23019" lon="6.02676">
        <ele>2008</ele>
        <time>2024-06-06T00:04:05+00:00</time>
      </trkpt>
      <trkpt lat="45.23018" lon="6.02674">
        <ele>2008</ele>
        <time>2024-06-06T00:04:08+00:00</time>
      </trkpt>
      <trkpt lat="45.23019" lon="6.02671">
        <ele>2008</ele>
        <time>2024-06-06T00:04:11+00:00</time>
      </trkpt>
      <trkpt lat="45.23016" lon="6.02665">
        <ele>2010</ele>
        <time>2024-06-06T00:04:14+00:00</time>
      </trkpt>
      <trkpt lat="45.23015" lon="6.02656">
        <ele>2012</ele>
        <time>2024-06-06T00:04:17+00:00</time>
      </trkpt>
      <trkpt lat="45.23014" lon="6.02649">
        <ele>2014</ele>
        <time>2024-06-06T00:04:20+00:00</time>
      </trkpt>
      <trkpt lat="45.23014" lon="6.02645">
        <ele>2014</ele>
        <time>2024-06-06T00:04:23+00:00</time>
      </trkpt>
      <trkpt lat="45.23013" lon="6.02643">
        <ele>2014</ele>
        <time>2024-06-06T00:04:26+00:00</time>
      </trkpt>
      <trkpt lat="45.2301" lon="6.02631">
        <ele>2016</ele>
        <time>2024-06-06T00:04:29+00:00</time>
      </trkpt>
      <trkpt lat="45.23012" lon="6.02622">
        <ele>2016</ele>
        <time>2024-06-06T00:04:32+00:00</time>
      </trkpt>
      <trkpt lat="45.23015" lon="6.02616">
        <ele>2016</ele>
        <time>2024-06-06T00:04:35+00:00</time>
      </trkpt>
      <trkpt lat="45.23022" lon="6.02609">
        <ele>2022</ele>
        <time>2024-06-06T00:04:38+00:00</time>
      </trkpt>
      <trkpt lat="45.23025" lon="6.0261">
        <ele>2022</ele>
        <time>2024-06-06T00:04:41+00:00</time>
      </trkpt>
      <trkpt lat="45.23026" lon="6.02609">
        <ele>2022</ele>
        <time>2024-06-06T00:04:44+00:00</time>
      </trkpt>
      <trkpt lat="45.23029" lon="6.02613">
        <ele>2023</ele>
        <time>2024-06-06T00:04:47+00:00</time>
      </trkpt>
      <trkpt lat="45.23031" lon="6.02616">
        <ele>2027</ele>
        <time>2024-06-06T00:04:50+00:00</time>
      </trkpt>
      <trkpt lat="45.23033" lon="6.02618">
        <ele>2027</ele>
        <time>2024-06-06T00:04:53+00:00</time>
      </trkpt>
      <trkpt lat="45.23035" lon="6.02623">
        <ele>2027</ele>
        <time>2024-06-06T00:04:56+00:00</time>
      </trkpt>
      <trkpt lat="45.23036" lon="6.02626">
        <ele>2027</ele>
        <time>2024-06-06T00:04:59+00:00</time>
      </trkpt>
      <trkpt lat="45.23036" lon="6.0263">
        <ele>2027</ele>
        <time>2024-06-06T00:05:02+00:00</time>
      </trkpt>
      <trkpt lat="45.23038" lon="6.02632">
        <ele>2027</ele>
        <time>2024-06-06T00:05:05+00:00</time>
      </trkpt>
      <trkpt lat="45.23038" lon="6.02635">
        <ele>2027</ele>
        <time>2024-06-06T00:05:08+00:00</time>
      </trkpt>
      <trkpt lat="45.23042" lon="6.02643">
        <ele>2030</ele>
        <time>2024-06-06T00:05:11+00:00</time>
      </trkpt>
      <trkpt lat="45.23048" lon="6.02651">
        <ele>2029</ele>
        <time>2024-06-06T00:05:14+00:00</time>
      </trkpt>
      <trkpt lat="45.23051" lon="6.02653">
        <ele>2035</ele>
        <time>2024-06-06T00:05:17+00:00</time>
      </trkpt>
      <trkpt lat="45.23058" lon="6.02655">
        <ele>2035</ele>
        <time>2024-06-06T00:05:20+00:00</time>
      </trkpt>
      <trkpt lat="45.23062" lon="6.02654">
        <ele>2039</ele>
        <time>2024-06-06T00:05:23+00:00</time>
      </trkpt>
      <trkpt lat="45.23068" lon="6.02661">
        <ele>2038</ele>
        <time>2024-06-06T00:05:26+00:00</time>
      </trkpt>
      <trkpt lat="45.2307" lon="6.02664">
        <ele>2038</ele>
        <time>2024-06-06T00:05:29+00:00</time>
      </trkpt>
      <trkpt lat="45.23072" lon="6.02666">
        <ele>2042</ele>
        <time>2024-06-06T00:05:32+00:00</time>
      </trkpt>
      <trkpt lat="45.23072" lon="6.0267">
        <ele>2042</ele>
        <time>2024-06-06T00:05:35+00:00</time>
      </trkpt>
      <trkpt lat="45.23074" lon="6.02676">
        <ele>2041</ele>
        <time>2024-06-06T00:05:38+00:00</time>
      </trkpt>
      <trkpt lat="45.23076" lon="6.02681">
        <ele>2040</ele>
        <time>2024-06-06T00:05:41+00:00</time>
      </trkpt>
      <trkpt lat="45.23078" lon="6.02686">
        <ele>2040</ele>
        <time>2024-06-06T00:05:44+00:00</time>
      </trkpt>
      <trkpt lat="45.23079" lon="6.02698">
        <ele>2040</ele>
        <time>2024-06-06T00:05:47+00:00</time>
      </trkpt>
      <trkpt lat="45.23078" lon="6.02708">
        <ele>2040</ele>
        <time>2024-06-06T00:05:50+00:00</time>
      </trkpt>
      <trkpt lat="45.23074" lon="6.02722">
        <ele>2044</ele>
        <time>2024-06-06T00:05:53+00:00</time>
      </trkpt>
      <trkpt lat="45.23065" lon="6.02742">
        <ele>2047</ele>
        <time>2024-06-06T00:05:56+00:00</time>
      </trkpt>
      <trkpt lat="45.23063" lon="6.02749">
        <ele>2047</ele>
        <time>2024-06-06T00:05:59+00:00</time>
      </trkpt>
      <trkpt lat="45.23063" lon="6.0275">
        <ele>2050</ele>
        <time>2024-06-06T00:06:02+00:00</time>
      </trkpt>
      <trkpt lat="45.23065" lon="6.02749">
        <ele>2047</ele>
        <time>2024-06-06T00:06:05+00:00</time>
      </trkpt>
      <trkpt lat="45.23072" lon="6.02743">
        <ele>2051</ele>
        <time>2024-06-06T00:06:08+00:00</time>
      </trkpt>
      <trkpt lat="45.23077" lon="6.02737">
        <ele>2048</ele>
        <time>2024-06-06T00:06:11+00:00</time>
      </trkpt>
      <trkpt lat="45.23083" lon="6.02733">
        <ele>2054</ele>
        <time>2024-06-06T00:06:14+00:00</time>
      </trkpt>
      <trkpt lat="45.23088" lon="6.02731">
        <ele>2054</ele>
        <time>2024-06-06T00:06:17+00:00</time>
      </trkpt>
      <trkpt lat="45.23094" lon="6.02726">
        <ele>2054</ele>
        <time>2024-06-06T00:06:20+00:00</time>
      </trkpt>
      <trkpt lat="45.23095" lon="6.02728">
        <ele>2054</ele>
        <time>2024-06-06T00:06:23+00:00</time>
      </trkpt>
      <trkpt lat="45.23094" lon="6.02735">
        <ele>2058</ele>
        <time>2024-06-06T00:06:26+00:00</time>
      </trkpt>
      <trkpt lat="45.23092" lon="6.02738">
        <ele>2058</ele>
        <time>2024-06-06T00:06:29+00:00</time>
      </trkpt>
      <trkpt lat="45.23092" lon="6.02738">
        <ele>2058</ele>
        <time>2024-06-06T00:06:32+00:00</time>
      </trkpt>
      <trkpt lat="45.23089" lon="6.02744">
        <ele>2057</ele>
        <time>2024-06-06T00:06:35+00:00</time>
      </trkpt>
      <trkpt lat="45.23085" lon="6.02754">
        <ele>2061</ele>
        <time>2024-06-06T00:06:38+00:00</time>
      </trkpt>
      <trkpt lat="45.23083" lon="6.0276">
        <ele>2061</ele>
        <time>2024-06-06T00:06:41+00:00</time>
      </trkpt>
      <trkpt lat="45.23078" lon="6.0277">
        <ele>2058</ele>
        <time>2024-06-06T00:06:44+00:00</time>
      </trkpt>
      <trkpt lat="45.23077" lon="6.02772">
        <ele>2062</ele>
        <time>2024-06-06T00:06:47+00:00</time>
      </trkpt>
      <trkpt lat="45.23077" lon="6.02776">
        <ele>2062</ele>
        <time>2024-06-06T00:06:50+00:00</time>
      </trkpt>
      <trkpt lat="45.23076" lon="6.0278">
        <ele>2065</ele>
        <time>2024-06-06T00:06:53+00:00</time>
      </trkpt>
      <trkpt lat="45.23073" lon="6.02785">
        <ele>2065</ele>
        <time>2024-06-06T00:06:56+00:00</time>
      </trkpt>
      <trkpt lat="45.23068" lon="6.02794">
        <ele>2065</ele>
        <time>2024-06-06T00:06:59+00:00</time>
      </trkpt>
      <trkpt lat="45.23064" lon="6.02799">
        <ele>2065</ele>
        <time>2024-06-06T00:07:02+00:00</time>
      </trkpt>
      <trkpt lat="45.23063" lon="6.02801">
        <ele>2069</ele>
        <time>2024-06-06T00:07:05+00:00</time>
      </trkpt>
      <trkpt lat="45.23064" lon="6.02802">
        <ele>2069</ele>
        <time>2024-06-06T00:07:08+00:00</time>
      </trkpt>
      <trkpt lat="45.23064" lon="6.02802">
        <ele>2069</ele>
        <time>2024-06-06T00:07:11+00:00</time>
      </trkpt>
      <trkpt lat="45.23067" lon="6.02799">
        <ele>2065</ele>
        <time>2024-06-06T00:07:14+00:00</time>
      </trkpt>
      <trkpt lat="45.23068" lon="6.02799">
        <ele>2065</ele>
        <time>2024-06-06T00:07:17+00:00</time>
      </trkpt>
      <trkpt lat="45.23068" lon="6.028">
        <ele>2069</ele>
        <time>2024-06-06T00:07:20+00:00</time>
      </trkpt>
      <trkpt lat="45.23066" lon="6.02806">
        <ele>2069</ele>
        <time>2024-06-06T00:07:23+00:00</time>
      </trkpt>
      <trkpt lat="45.23064" lon="6.02812">
        <ele>2072</ele>
        <time>2024-06-06T00:07:26+00:00</time>
      </trkpt>
      <trkpt lat="45.23062" lon="6.02819">
        <ele>2072</ele>
        <time>2024-06-06T00:07:29+00:00</time>
      </trkpt>
      <trkpt lat="45.2306" lon="6.02822">
        <ele>2074</ele>
        <time>2024-06-06T00:07:32+00:00</time>
      </trkpt>
      <trkpt lat="45.2306" lon="6.02823">
        <ele>2078</ele>
        <time>2024-06-06T00:07:35+00:00</time>
      </trkpt>
      <trkpt lat="45.23063" lon="6.02822">
        <ele>2078</ele>
        <time>2024-06-06T00:07:38+00:00</time>
      </trkpt>
      <trkpt lat="45.2307" lon="6.02813">
        <ele>2077</ele>
        <time>2024-06-06T00:07:41+00:00</time>
      </trkpt>
      <trkpt lat="45.23072" lon="6.02813">
        <ele>2077</ele>
        <time>2024-06-06T00:07:44+00:00</time>
      </trkpt>
      <trkpt lat="45.23072" lon="6.02814">
        <ele>2077</ele>
        <time>2024-06-06T00:07:47+00:00</time>
      </trkpt>
      <trkpt lat="45.23067" lon="6.02827">
        <ele>2078</ele>
        <time>2024-06-06T00:07:50+00:00</time>
      </trkpt>
      <trkpt lat="45.23063" lon="6.02835">
        <ele>2081</ele>
        <time>2024-06-06T00:07:53+00:00</time>
      </trkpt>
      <trkpt lat="45.23061" lon="6.02839">
        <ele>2081</ele>
        <time>2024-06-06T00:07:56+00:00</time>
      </trkpt>
      <trkpt lat="45.23058" lon="6.02844">
        <ele>2081</ele>
        <time>2024-06-06T00:07:59+00:00</time>
      </trkpt>
      <trkpt lat="45.23056" lon="6.0285">
        <ele>2084</ele>
        <time>2024-06-06T00:08:02+00:00</time>
      </trkpt>
      <trkpt lat="45.23054" lon="6.0286">
        <ele>2084</ele>
        <time>2024-06-06T00:08:05+00:00</time>
      </trkpt>
      <trkpt lat="45.23054" lon="6.02866">
        <ele>2085</ele>
        <time>2024-06-06T00:08:08+00:00</time>
      </trkpt>
      <trkpt lat="45.23054" lon="6.02869">
        <ele>2085</ele>
        <time>2024-06-06T00:08:11+00:00</time>
      </trkpt>
      <trkpt lat="45.23054" lon="6.02873">
        <ele>2086</ele>
        <time>2024-06-06T00:08:14+00:00</time>
      </trkpt>
      <trkpt lat="45.23057" lon="6.02875">
        <ele>2086</ele>
        <time>2024-06-06T00:08:17+00:00</time>
      </trkpt>
      <trkpt lat="45.2306" lon="6.02875">
        <ele>2086</ele>
        <time>2024-06-06T00:08:20+00:00</time>
      </trkpt>
      <trkpt lat="45.23066" lon="6.02883">
        <ele>2088</ele>
        <time>2024-06-06T00:08:23+00:00</time>
      </trkpt>
      <trkpt lat="45.23066" lon="6.02885">
        <ele>2088</ele>
        <time>2024-06-06T00:08:26+00:00</time>
      </trkpt>
      <trkpt lat="45.23065" lon="6.02897">
        <ele>2087</ele>
        <time>2024-06-06T00:08:29+00:00</time>
      </trkpt>
      <trkpt lat="45.2307" lon="6.0291">
        <ele>2088</ele>
        <time>2024-06-06T00:08:32+00:00</time>
      </trkpt>
      <trkpt lat="45.23071" lon="6.02917">
        <ele>2087</ele>
        <time>2024-06-06T00:08:35+00:00</time>
      </trkpt>
      <trkpt lat="45.2307" lon="6.02921">
        <ele>2084</ele>
        <time>2024-06-06T00:08:38+00:00</time>
      </trkpt>
      <trkpt lat="45.2307" lon="6.02927">
        <ele>2087</ele>
        <time>2024-06-06T00:08:41+00:00</time>
      </trkpt>
      <trkpt lat="45.23071" lon="6.02933">
        <ele>2087</ele>
        <time>2024-06-06T00:08:44+00:00</time>
      </trkpt>
      <trkpt lat="45.2307" lon="6.02937">
        <ele>2087</ele>
        <time>2024-06-06T00:08:47+00:00</time>
      </trkpt>
      <trkpt lat="45.2307" lon="6.02942">
        <ele>2087</ele>
        <time>2024-06-06T00:08:50+00:00</time>
      </trkpt>
      <trkpt lat="45.23074" lon="6.02952">
        <ele>2086</ele>
        <time>2024-06-06T00:08:53+00:00</time>
      </trkpt>
      <trkpt lat="45.23074" lon="6.02962">
        <ele>2085</ele>
        <time>2024-06-06T00:08:56+00:00</time>
      </trkpt>
      <trkpt lat="45.23074" lon="6.02973">
        <ele>2084</ele>
        <time>2024-06-06T00:08:59+00:00</time>
      </trkpt>
      <trkpt lat="45.23073" lon="6.02975">
        <ele>2084</ele>
        <time>2024-06-06T00:09:02+00:00</time>
      </trkpt>
      <trkpt lat="45.23071" lon="6.02979">
        <ele>2084</ele>
        <time>2024-06-06T00:09:05+00:00</time>
      </trkpt>
      <trkpt lat="45.23071" lon="6.02985">
        <ele>2084</ele>
        <time>2024-06-06T00:09:08+00:00</time>
      </trkpt>
      <trkpt lat="45.2307" lon="6.02989">
        <ele>2084</ele>
        <time>2024-06-06T00:09:11+00:00</time>
      </trkpt>
      <trkpt lat="45.23065" lon="6.02995">
        <ele>2083</ele>
        <time>2024-06-06T00:09:14+00:00</time>
      </trkpt>
      <trkpt lat="45.23061" lon="6.02998">
        <ele>2081</ele>
        <time>2024-06-06T00:09:17+00:00</time>
      </trkpt>
      <trkpt lat="45.23057" lon="6.03">
        <ele>2079</ele>
        <time>2024-06-06T00:09:20+00:00</time>
      </trkpt>
      <trkpt lat="45.23052" lon="6.03005">
        <ele>2083</ele>
        <time>2024-06-06T00:09:23+00:00</time>
      </trkpt>
      <trkpt lat="45.23049" lon="6.03007">
        <ele>2080</ele>
        <time>2024-06-06T00:09:26+00:00</time>
      </trkpt>
      <trkpt lat="45.23045" lon="6.03013">
        <ele>2083</ele>
        <time>2024-06-06T00:09:29+00:00</time>
      </trkpt>
      <trkpt lat="45.23041" lon="6.03016">
        <ele>2083</ele>
        <time>2024-06-06T00:09:32+00:00</time>
      </trkpt>
      <trkpt lat="45.23035" lon="6.0302">
        <ele>2084</ele>
        <time>2024-06-06T00:09:35+00:00</time>
      </trkpt>
      <trkpt lat="45.23026" lon="6.03029">
        <ele>2085</ele>
        <time>2024-06-06T00:09:38+00:00</time>
      </trkpt>
      <trkpt lat="45.23024" lon="6.03032">
        <ele>2086</ele>
        <time>2024-06-06T00:09:41+00:00</time>
      </trkpt>
      <trkpt lat="45.2302" lon="6.03035">
        <ele>2086</ele>
        <time>2024-06-06T00:09:44+00:00</time>
      </trkpt>
      <trkpt lat="45.23016" lon="6.0304">
        <ele>2080</ele>
        <time>2024-06-06T00:09:47+00:00</time>
      </trkpt>
      <trkpt lat="45.23015" lon="6.03046">
        <ele>2083</ele>
        <time>2024-06-06T00:09:50+00:00</time>
      </trkpt>
      <trkpt lat="45.23011" lon="6.03055">
        <ele>2087</ele>
        <time>2024-06-06T00:09:53+00:00</time>
      </trkpt>
      <trkpt lat="45.23004" lon="6.03066">
        <ele>2087</ele>
        <time>2024-06-06T00:09:56+00:00</time>
      </trkpt>
      <trkpt lat="45.22998" lon="6.0307">
        <ele>2087</ele>
        <time>2024-06-06T00:09:59+00:00</time>
      </trkpt>
      <trkpt lat="45.22995" lon="6.03074">
        <ele>2087</ele>
        <time>2024-06-06T00:10:02+00:00</time>
      </trkpt>
      <trkpt lat="45.22988" lon="6.03081">
        <ele>2085</ele>
        <time>2024-06-06T00:10:05+00:00</time>
      </trkpt>
      <trkpt lat="45.22978" lon="6.03088">
        <ele>2087</ele>
        <time>2024-06-06T00:10:08+00:00</time>
      </trkpt>
      <trkpt lat="45.22972" lon="6.03091">
        <ele>2089</ele>
        <time>2024-06-06T00:10:11+00:00</time>
      </trkpt>
      <trkpt lat="45.22966" lon="6.03097">
        <ele>2086</ele>
        <time>2024-06-06T00:10:14+00:00</time>
      </trkpt>
      <trkpt lat="45.22964" lon="6.031">
        <ele>2086</ele>
        <time>2024-06-06T00:10:17+00:00</time>
      </trkpt>
      <trkpt lat="45.22955" lon="6.03106">
        <ele>2087</ele>
        <time>2024-06-06T00:10:20+00:00</time>
      </trkpt>
      <trkpt lat="45.22948" lon="6.0311">
        <ele>2084</ele>
        <time>2024-06-06T00:10:23+00:00</time>
      </trkpt>
      <trkpt lat="45.22945" lon="6.03113">
        <ele>2089</ele>
        <time>2024-06-06T00:10:26+00:00</time>
      </trkpt>
      <trkpt lat="45.22944" lon="6.03116">
        <ele>2089</ele>
        <time>2024-06-06T00:10:29+00:00</time>
      </trkpt>
      <trkpt lat="45.22944" lon="6.03122">
        <ele>2098</ele>
        <time>2024-06-06T00:10:32+00:00</time>
      </trkpt>
      <trkpt lat="45.22943" lon="6.03127">
        <ele>2098</ele>
        <time>2024-06-06T00:10:35+00:00</time>
      </trkpt>
      <trkpt lat="45.22942" lon="6.0314">
        <ele>2103</ele>
        <time>2024-06-06T00:10:38+00:00</time>
      </trkpt>
      <trkpt lat="45.22939" lon="6.03142">
        <ele>2105</ele>
        <time>2024-06-06T00:10:41+00:00</time>
      </trkpt>
      <trkpt lat="45.22936" lon="6.03147">
        <ele>2105</ele>
        <time>2024-06-06T00:10:44+00:00</time>
      </trkpt>
      <trkpt lat="45.22936" lon="6.03151">
        <ele>2113</ele>
        <time>2024-06-06T00:10:47+00:00</time>
      </trkpt>
      <trkpt lat="45.22934" lon="6.03152">
        <ele>2113</ele>
        <time>2024-06-06T00:10:50+00:00</time>
      </trkpt>
      <trkpt lat="45.22934" lon="6.03155">
        <ele>2113</ele>
        <time>2024-06-06T00:10:53+00:00</time>
      </trkpt>
      <trkpt lat="45.22937" lon="6.03156">
        <ele>2113</ele>
        <time>2024-06-06T00:10:56+00:00</time>
      </trkpt>
      <trkpt lat="45.22937" lon="6.03156">
        <ele>2113</ele>
        <time>2024-06-06T00:10:59+00:00</time>
      </trkpt>
      <trkpt lat="45.22938" lon="6.03157">
        <ele>2113</ele>
        <time>2024-06-06T00:11:02+00:00</time>
      </trkpt>
      <trkpt lat="45.22942" lon="6.03161">
        <ele>2122</ele>
        <time>2024-06-06T00:11:05+00:00</time>
      </trkpt>
      <trkpt lat="45.22943" lon="6.03165">
        <ele>2122</ele>
        <time>2024-06-06T00:11:08+00:00</time>
      </trkpt>
      <trkpt lat="45.22943" lon="6.03168">
        <ele>2122</ele>
        <time>2024-06-06T00:11:11+00:00</time>
      </trkpt>
      <trkpt lat="45.22942" lon="6.0317">
        <ele>2122</ele>
        <time>2024-06-06T00:11:14+00:00</time>
      </trkpt>
      <trkpt lat="45.22942" lon="6.03174">
        <ele>2126</ele>
        <time>2024-06-06T00:11:17+00:00</time>
      </trkpt>
      <trkpt lat="45.2294" lon="6.03177">
        <ele>2126</ele>
        <time>2024-06-06T00:11:20+00:00</time>
      </trkpt>
      <trkpt lat="45.2294" lon="6.03179">
        <ele>2122</ele>
        <time>2024-06-06T00:11:23+00:00</time>
      </trkpt>
      <trkpt lat="45.2294" lon="6.03181">
        <ele>2132</ele>
        <time>2024-06-06T00:11:26+00:00</time>
      </trkpt>
      <trkpt lat="45.22937" lon="6.03184">
        <ele>2128</ele>
        <time>2024-06-06T00:11:29+00:00</time>
      </trkpt>
      <trkpt lat="45.22938" lon="6.03186">
        <ele>2128</ele>
        <time>2024-06-06T00:11:32+00:00</time>
      </trkpt>
      <trkpt lat="45.22938" lon="6.03188">
        <ele>2128</ele>
        <time>2024-06-06T00:11:35+00:00</time>
      </trkpt>
      <trkpt lat="45.22937" lon="6.03191">
        <ele>2132</ele>
        <time>2024-06-06T00:11:38+00:00</time>
      </trkpt>
      <trkpt lat="45.2294" lon="6.03193">
        <ele>2136</ele>
        <time>2024-06-06T00:11:41+00:00</time>
      </trkpt>
      <trkpt lat="45.2294" lon="6.03195">
        <ele>2132</ele>
        <time>2024-06-06T00:11:44+00:00</time>
      </trkpt>
      <trkpt lat="45.22938" lon="6.03196">
        <ele>2132</ele>
        <time>2024-06-06T00:11:47+00:00</time>
      </trkpt>
      <trkpt lat="45.22941" lon="6.03198">
        <ele>2136</ele>
        <time>2024-06-06T00:11:50+00:00</time>
      </trkpt>
      <trkpt lat="45.22944" lon="6.03198">
        <ele>2136</ele>
        <time>2024-06-06T00:11:53+00:00</time>
      </trkpt>
      <trkpt lat="45.22948" lon="6.032">
        <ele>2139</ele>
        <time>2024-06-06T00:11:56+00:00</time>
      </trkpt>
      <trkpt lat="45.22952" lon="6.03205">
        <ele>2143</ele>
        <time>2024-06-06T00:11:59+00:00</time>
      </trkpt>
      <trkpt lat="45.22952" lon="6.03206">
        <ele>2143</ele>
        <time>2024-06-06T00:12:02+00:00</time>
      </trkpt>
      <trkpt lat="45.22953" lon="6.03214">
        <ele>2148</ele>
        <time>2024-06-06T00:12:05+00:00</time>
      </trkpt>
      <trkpt lat="45.22952" lon="6.03218">
        <ele>2148</ele>
        <time>2024-06-06T00:12:08+00:00</time>
      </trkpt>
      <trkpt lat="45.22953" lon="6.03223">
        <ele>2152</ele>
        <time>2024-06-06T00:12:11+00:00</time>
      </trkpt>
      <trkpt lat="45.22955" lon="6.03223">
        <ele>2152</ele>
        <time>2024-06-06T00:12:14+00:00</time>
      </trkpt>
      <trkpt lat="45.22956" lon="6.03224">
        <ele>2152</ele>
        <time>2024-06-06T00:12:17+00:00</time>
      </trkpt>
      <trkpt lat="45.22957" lon="6.03233">
        <ele>2155</ele>
        <time>2024-06-06T00:12:20+00:00</time>
      </trkpt>
      <trkpt lat="45.22956" lon="6.03235">
        <ele>2155</ele>
        <time>2024-06-06T00:12:23+00:00</time>
      </trkpt>
      <trkpt lat="45.22955" lon="6.03239">
        <ele>2155</ele>
        <time>2024-06-06T00:12:26+00:00</time>
      </trkpt>
      <trkpt lat="45.22956" lon="6.03245">
        <ele>2158</ele>
        <time>2024-06-06T00:12:29+00:00</time>
      </trkpt>
      <trkpt lat="45.22955" lon="6.03249">
        <ele>2158</ele>
        <time>2024-06-06T00:12:32+00:00</time>
      </trkpt>
      <trkpt lat="45.22955" lon="6.03253">
        <ele>2160</ele>
        <time>2024-06-06T00:12:35+00:00</time>
      </trkpt>
      <trkpt lat="45.22958" lon="6.03265">
        <ele>2161</ele>
        <time>2024-06-06T00:12:38+00:00</time>
      </trkpt>
      <trkpt lat="45.22961" lon="6.03268">
        <ele>2170</ele>
        <time>2024-06-06T00:12:41+00:00</time>
      </trkpt>
      <trkpt lat="45.2296" lon="6.03274">
        <ele>2172</ele>
        <time>2024-06-06T00:12:44+00:00</time>
      </trkpt>
      <trkpt lat="45.2296" lon="6.03277">
        <ele>2172</ele>
        <time>2024-06-06T00:12:47+00:00</time>
      </trkpt>
      <trkpt lat="45.22964" lon="6.03277">
        <ele>2172</ele>
        <time>2024-06-06T00:12:50+00:00</time>
      </trkpt>
      <trkpt lat="45.22966" lon="6.03276">
        <ele>2172</ele>
        <time>2024-06-06T00:12:53+00:00</time>
      </trkpt>
      <trkpt lat="45.22968" lon="6.03277">
        <ele>2172</ele>
        <time>2024-06-06T00:12:56+00:00</time>
      </trkpt>
      <trkpt lat="45.22969" lon="6.03279">
        <ele>2172</ele>
        <time>2024-06-06T00:12:59+00:00</time>
      </trkpt>
      <trkpt lat="45.22972" lon="6.03281">
        <ele>2180</ele>
        <time>2024-06-06T00:13:02+00:00</time>
      </trkpt>
      <trkpt lat="45.22976" lon="6.03288">
        <ele>2180</ele>
        <time>2024-06-06T00:13:05+00:00</time>
      </trkpt>
      <trkpt lat="45.22977" lon="6.03291">
        <ele>2181</ele>
        <time>2024-06-06T00:13:08+00:00</time>
      </trkpt>
      <trkpt lat="45.22977" lon="6.03296">
        <ele>2181</ele>
        <time>2024-06-06T00:13:11+00:00</time>
      </trkpt>
      <trkpt lat="45.2298" lon="6.03314">
        <ele>2190</ele>
        <time>2024-06-06T00:13:14+00:00</time>
      </trkpt>
      <trkpt lat="45.22985" lon="6.03326">
        <ele>2191</ele>
        <time>2024-06-06T00:13:17+00:00</time>
      </trkpt>
      <trkpt lat="45.22986" lon="6.03332">
        <ele>2192</ele>
        <time>2024-06-06T00:13:20+00:00</time>
      </trkpt>
      <trkpt lat="45.22986" lon="6.03335">
        <ele>2192</ele>
        <time>2024-06-06T00:13:23+00:00</time>
      </trkpt>
      <trkpt lat="45.22988" lon="6.03341">
        <ele>2192</ele>
        <time>2024-06-06T00:13:26+00:00</time>
      </trkpt>
      <trkpt lat="45.2299" lon="6.03343">
        <ele>2200</ele>
        <time>2024-06-06T00:13:29+00:00</time>
      </trkpt>
      <trkpt lat="45.22995" lon="6.03358">
        <ele>2198</ele>
        <time>2024-06-06T00:13:32+00:00</time>
      </trkpt>
      <trkpt lat="45.22997" lon="6.03376">
        <ele>2196</ele>
        <time>2024-06-06T00:13:35+00:00</time>
      </trkpt>
      <trkpt lat="45.22996" lon="6.03382">
        <ele>2196</ele>
        <time>2024-06-06T00:13:38+00:00</time>
      </trkpt>
      <trkpt lat="45.22997" lon="6.03395">
        <ele>2195</ele>
        <time>2024-06-06T00:13:41+00:00</time>
      </trkpt>
      <trkpt lat="45.22997" lon="6.03403">
        <ele>2194</ele>
        <time>2024-06-06T00:13:44+00:00</time>
      </trkpt>
      <trkpt lat="45.23" lon="6.03411">
        <ele>2197</ele>
        <time>2024-06-06T00:13:47+00:00</time>
      </trkpt>
      <trkpt lat="45.23" lon="6.03424">
        <ele>2193</ele>
        <time>2024-06-06T00:13:50+00:00</time>
      </trkpt>
      <trkpt lat="45.23003" lon="6.03438">
        <ele>2198</ele>
        <time>2024-06-06T00:13:53+00:00</time>
      </trkpt>
      <trkpt lat="45.23005" lon="6.03442">
        <ele>2197</ele>
        <time>2024-06-06T00:13:56+00:00</time>
      </trkpt>
      <trkpt lat="45.23014" lon="6.03457">
        <ele>2201</ele>
        <time>2024-06-06T00:13:59+00:00</time>
      </trkpt>
      <trkpt lat="45.23018" lon="6.03465">
        <ele>2200</ele>
        <time>2024-06-06T00:14:02+00:00</time>
      </trkpt>
      <trkpt lat="45.23021" lon="6.03472">
        <ele>2206</ele>
        <time>2024-06-06T00:14:05+00:00</time>
      </trkpt>
      <trkpt lat="45.23026" lon="6.03477">
        <ele>2206</ele>
        <time>2024-06-06T00:14:08+00:00</time>
      </trkpt>
      <trkpt lat="45.23031" lon="6.03485">
        <ele>2210</ele>
        <time>2024-06-06T00:14:11+00:00</time>
      </trkpt>
      <trkpt lat="45.23034" lon="6.03493">
        <ele>2208</ele>
        <time>2024-06-06T00:14:14+00:00</time>
      </trkpt>
      <trkpt lat="45.23042" lon="6.03513">
        <ele>2212</ele>
        <time>2024-06-06T00:14:17+00:00</time>
      </trkpt>
      <trkpt lat="45.23044" lon="6.03522">
        <ele>2213</ele>
        <time>2024-06-06T00:14:20+00:00</time>
      </trkpt>
      <trkpt lat="45.23046" lon="6.03536">
        <ele>2214</ele>
        <time>2024-06-06T00:14:23+00:00</time>
      </trkpt>
      <trkpt lat="45.23046" lon="6.03539">
        <ele>2214</ele>
        <time>2024-06-06T00:14:26+00:00</time>
      </trkpt>
      <trkpt lat="45.23047" lon="6.0354">
        <ele>2214</ele>
        <time>2024-06-06T00:14:29+00:00</time>
      </trkpt>
      <trkpt lat="45.23047" lon="6.03552">
        <ele>2219</ele>
        <time>2024-06-06T00:14:32+00:00</time>
      </trkpt>
      <trkpt lat="45.23046" lon="6.03562">
        <ele>2222</ele>
        <time>2024-06-06T00:14:35+00:00</time>
      </trkpt>
      <trkpt lat="45.23045" lon="6.03574">
        <ele>2227</ele>
        <time>2024-06-06T00:14:38+00:00</time>
      </trkpt>
      <trkpt lat="45.23054" lon="6.03574">
        <ele>2232</ele>
        <time>2024-06-06T00:14:41+00:00</time>
      </trkpt>
      <trkpt lat="45.23061" lon="6.03577">
        <ele>2236</ele>
        <time>2024-06-06T00:14:44+00:00</time>
      </trkpt>
      <trkpt lat="45.23061" lon="6.03588">
        <ele>2238</ele>
        <time>2024-06-06T00:14:47+00:00</time>
      </trkpt>
      <trkpt lat="45.23056" lon="6.03597">
        <ele>2236</ele>
        <time>2024-06-06T00:14:50+00:00</time>
      </trkpt>
      <trkpt lat="45.2305" lon="6.03606">
        <ele>2238</ele>
        <time>2024-06-06T00:14:53+00:00</time>
      </trkpt>
      <trkpt lat="45.23051" lon="6.03616">
        <ele>2248</ele>
        <time>2024-06-06T00:14:56+00:00</time>
      </trkpt>
      <trkpt lat="45.23055" lon="6.03622">
        <ele>2252</ele>
        <time>2024-06-06T00:14:59+00:00</time>
      </trkpt>
      <trkpt lat="45.23065" lon="6.03619">
        <ele>2252</ele>
        <time>2024-06-06T00:15:02+00:00</time>
      </trkpt>
      <trkpt lat="45.2307" lon="6.03624">
        <ele>2256</ele>
        <time>2024-06-06T00:15:05+00:00</time>
      </trkpt>
      <trkpt lat="45.2307" lon="6.03641">
        <ele>2260</ele>
        <time>2024-06-06T00:15:08+00:00</time>
      </trkpt>
      <trkpt lat="45.23071" lon="6.03658">
        <ele>2262</ele>
        <time>2024-06-06T00:15:11+00:00</time>
      </trkpt>
      <trkpt lat="45.2308" lon="6.03669">
        <ele>2263</ele>
        <time>2024-06-06T00:15:14+00:00</time>
      </trkpt>
      <trkpt lat="45.23084" lon="6.03681">
        <ele>2263</ele>
        <time>2024-06-06T00:15:17+00:00</time>
      </trkpt>
      <trkpt lat="45.23088" lon="6.03692">
        <ele>2263</ele>
        <time>2024-06-06T00:15:20+00:00</time>
      </trkpt>
      <trkpt lat="45.23093" lon="6.03706">
        <ele>2263</ele>
        <time>2024-06-06T00:15:23+00:00</time>
      </trkpt>
      <trkpt lat="45.231" lon="6.03712">
        <ele>2263</ele>
        <time>2024-06-06T00:15:26+00:00</time>
      </trkpt>
      <trkpt lat="45.23113" lon="6.03712">
        <ele>2259</ele>
        <time>2024-06-06T00:15:29+00:00</time>
      </trkpt>
      <trkpt lat="45.23123" lon="6.03712">
        <ele>2258</ele>
        <time>2024-06-06T00:15:32+00:00</time>
      </trkpt>
      <trkpt lat="45.23133" lon="6.03718">
        <ele>2256</ele>
        <time>2024-06-06T00:15:35+00:00</time>
      </trkpt>
      <trkpt lat="45.23137" lon="6.03733">
        <ele>2250</ele>
        <time>2024-06-06T00:15:38+00:00</time>
      </trkpt>
      <trkpt lat="45.2315" lon="6.03742">
        <ele>2252</ele>
        <time>2024-06-06T00:15:41+00:00</time>
      </trkpt>
      <trkpt lat="45.23159" lon="6.03745">
        <ele>2248</ele>
        <time>2024-06-06T00:15:44+00:00</time>
      </trkpt>
      <trkpt lat="45.23168" lon="6.03747">
        <ele>2249</ele>
        <time>2024-06-06T00:15:47+00:00</time>
      </trkpt>
      <trkpt lat="45.23175" lon="6.03752">
        <ele>2249</ele>
        <time>2024-06-06T00:15:50+00:00</time>
      </trkpt>
      <trkpt lat="45.23182" lon="6.03757">
        <ele>2250</ele>
        <time>2024-06-06T00:15:53+00:00</time>
      </trkpt>
      <trkpt lat="45.23185" lon="6.0377">
        <ele>2242</ele>
        <time>2024-06-06T00:15:56+00:00</time>
      </trkpt>
      <trkpt lat="45.23186" lon="6.03783">
        <ele>2239</ele>
        <time>2024-06-06T00:15:59+00:00</time>
      </trkpt>
      <trkpt lat="45.23185" lon="6.038">
        <ele>2235</ele>
        <time>2024-06-06T00:16:02+00:00</time>
      </trkpt>
      <trkpt lat="45.23186" lon="6.03812">
        <ele>2229</ele>
        <time>2024-06-06T00:16:05+00:00</time>
      </trkpt>
      <trkpt lat="45.23189" lon="6.03823">
        <ele>2225</ele>
        <time>2024-06-06T00:16:08+00:00</time>
      </trkpt>
      <trkpt lat="45.23195" lon="6.03833">
        <ele>2222</ele>
        <time>2024-06-06T00:16:11+00:00</time>
      </trkpt>
      <trkpt lat="45.23198" lon="6.03844">
        <ele>2220</ele>
        <time>2024-06-06T00:16:14+00:00</time>
      </trkpt>
      <trkpt lat="45.23199" lon="6.03859">
        <ele>2216</ele>
        <time>2024-06-06T00:16:17+00:00</time>
      </trkpt>
      <trkpt lat="45.23204" lon="6.03873">
        <ele>2212</ele>
        <time>2024-06-06T00:16:20+00:00</time>
      </trkpt>
      <trkpt lat="45.23206" lon="6.03888">
        <ele>2210</ele>
        <time>2024-06-06T00:16:23+00:00</time>
      </trkpt>
      <trkpt lat="45.2321" lon="6.03903">
        <ele>2203</ele>
        <time>2024-06-06T00:16:26+00:00</time>
      </trkpt>
      <trkpt lat="45.23211" lon="6.03917">
        <ele>2199</ele>
        <time>2024-06-06T00:16:29+00:00</time>
      </trkpt>
      <trkpt lat="45.23213" lon="6.03931">
        <ele>2194</ele>
        <time>2024-06-06T00:16:32+00:00</time>
      </trkpt>
      <trkpt lat="45.23214" lon="6.03944">
        <ele>2189</ele>
        <time>2024-06-06T00:16:35+00:00</time>
      </trkpt>
      <trkpt lat="45.23215" lon="6.03957">
        <ele>2187</ele>
        <time>2024-06-06T00:16:38+00:00</time>
      </trkpt>
      <trkpt lat="45.23216" lon="6.03972">
        <ele>2182</ele>
        <time>2024-06-06T00:16:41+00:00</time>
      </trkpt>
      <trkpt lat="45.23217" lon="6.03986">
        <ele>2180</ele>
        <time>2024-06-06T00:16:44+00:00</time>
      </trkpt>
      <trkpt lat="45.23217" lon="6.03996">
        <ele>2179</ele>
        <time>2024-06-06T00:16:47+00:00</time>
      </trkpt>
      <trkpt lat="45.23211" lon="6.04005">
        <ele>2176</ele>
        <time>2024-06-06T00:16:50+00:00</time>
      </trkpt>
      <trkpt lat="45.23204" lon="6.0401">
        <ele>2170</ele>
        <time>2024-06-06T00:16:53+00:00</time>
      </trkpt>
      <trkpt lat="45.23192" lon="6.04007">
        <ele>2170</ele>
        <time>2024-06-06T00:16:56+00:00</time>
      </trkpt>
      <trkpt lat="45.23182" lon="6.04007">
        <ele>2170</ele>
        <time>2024-06-06T00:16:59+00:00</time>
      </trkpt>
      <trkpt lat="45.23174" lon="6.04026">
        <ele>2164</ele>
        <time>2024-06-06T00:17:02+00:00</time>
      </trkpt>
      <trkpt lat="45.23171" lon="6.04028">
        <ele>2164</ele>
        <time>2024-06-06T00:17:05+00:00</time>
      </trkpt>
      <trkpt lat="45.23164" lon="6.04033">
        <ele>2158</ele>
        <time>2024-06-06T00:17:08+00:00</time>
      </trkpt>
      <trkpt lat="45.23153" lon="6.04045">
        <ele>2156</ele>
        <time>2024-06-06T00:17:11+00:00</time>
      </trkpt>
      <trkpt lat="45.23148" lon="6.04058">
        <ele>2153</ele>
        <time>2024-06-06T00:17:14+00:00</time>
      </trkpt>
      <trkpt lat="45.23145" lon="6.04069">
        <ele>2150</ele>
        <time>2024-06-06T00:17:17+00:00</time>
      </trkpt>
      <trkpt lat="45.23131" lon="6.04081">
        <ele>2144</ele>
        <time>2024-06-06T00:17:20+00:00</time>
      </trkpt>
      <trkpt lat="45.23119" lon="6.04095">
        <ele>2137</ele>
        <time>2024-06-06T00:17:23+00:00</time>
      </trkpt>
      <trkpt lat="45.23095" lon="6.04111">
        <ele>2131</ele>
        <time>2024-06-06T00:17:26+00:00</time>
      </trkpt>
      <trkpt lat="45.23083" lon="6.04115">
        <ele>2130</ele>
        <time>2024-06-06T00:17:29+00:00</time>
      </trkpt>
      <trkpt lat="45.23076" lon="6.04117">
        <ele>2127</ele>
        <time>2024-06-06T00:17:32+00:00</time>
      </trkpt>
      <trkpt lat="45.23061" lon="6.04112">
        <ele>2127</ele>
        <time>2024-06-06T00:17:35+00:00</time>
      </trkpt>
      <trkpt lat="45.23049" lon="6.04108">
        <ele>2127</ele>
        <time>2024-06-06T00:17:38+00:00</time>
      </trkpt>
      <trkpt lat="45.23041" lon="6.04105">
        <ele>2126</ele>
        <time>2024-06-06T00:17:41+00:00</time>
      </trkpt>
      <trkpt lat="45.23032" lon="6.04098">
        <ele>2127</ele>
        <time>2024-06-06T00:17:44+00:00</time>
      </trkpt>
      <trkpt lat="45.23014" lon="6.04085">
        <ele>2123</ele>
        <time>2024-06-06T00:17:47+00:00</time>
      </trkpt>
      <trkpt lat="45.23" lon="6.04079">
        <ele>2122</ele>
        <time>2024-06-06T00:17:50+00:00</time>
      </trkpt>
      <trkpt lat="45.22985" lon="6.04078">
        <ele>2119</ele>
        <time>2024-06-06T00:17:53+00:00</time>
      </trkpt>
      <trkpt lat="45.22968" lon="6.04083">
        <ele>2113</ele>
        <time>2024-06-06T00:17:56+00:00</time>
      </trkpt>
      <trkpt lat="45.22953" lon="6.04089">
        <ele>2110</ele>
        <time>2024-06-06T00:17:59+00:00</time>
      </trkpt>
      <trkpt lat="45.22938" lon="6.04087">
        <ele>2105</ele>
        <time>2024-06-06T00:18:02+00:00</time>
      </trkpt>
      <trkpt lat="45.22925" lon="6.04096">
        <ele>2098</ele>
        <time>2024-06-06T00:18:05+00:00</time>
      </trkpt>
      <trkpt lat="45.22907" lon="6.04094">
        <ele>2092</ele>
        <time>2024-06-06T00:18:08+00:00</time>
      </trkpt>
      <trkpt lat="45.22889" lon="6.04088">
        <ele>2089</ele>
        <time>2024-06-06T00:18:11+00:00</time>
      </trkpt>
      <trkpt lat="45.22878" lon="6.04089">
        <ele>2086</ele>
        <time>2024-06-06T00:18:14+00:00</time>
      </trkpt>
      <trkpt lat="45.22871" lon="6.04098">
        <ele>2086</ele>
        <time>2024-06-06T00:18:17+00:00</time>
      </trkpt>
      <trkpt lat="45.22865" lon="6.04096">
        <ele>2084</ele>
        <time>2024-06-06T00:18:20+00:00</time>
      </trkpt>
      <trkpt lat="45.22858" lon="6.04092">
        <ele>2083</ele>
        <time>2024-06-06T00:18:23+00:00</time>
      </trkpt>
      <trkpt lat="45.22851" lon="6.04088">
        <ele>2085</ele>
        <time>2024-06-06T00:18:26+00:00</time>
      </trkpt>
      <trkpt lat="45.22845" lon="6.04093">
        <ele>2082</ele>
        <time>2024-06-06T00:18:29+00:00</time>
      </trkpt>
      <trkpt lat="45.22842" lon="6.04099">
        <ele>2082</ele>
        <time>2024-06-06T00:18:32+00:00</time>
      </trkpt>
      <trkpt lat="45.22841" lon="6.04106">
        <ele>2083</ele>
        <time>2024-06-06T00:18:35+00:00</time>
      </trkpt>
      <trkpt lat="45.22841" lon="6.04112">
        <ele>2089</ele>
        <time>2024-06-06T00:18:38+00:00</time>
      </trkpt>
      <trkpt lat="45.2284" lon="6.04124">
        <ele>2084</ele>
        <time>2024-06-06T00:18:41+00:00</time>
      </trkpt>
      <trkpt lat="45.22832" lon="6.04133">
        <ele>2086</ele>
        <time>2024-06-06T00:18:44+00:00</time>
      </trkpt>
      <trkpt lat="45.22817" lon="6.04156">
        <ele>2094</ele>
        <time>2024-06-06T00:18:47+00:00</time>
      </trkpt>
      <trkpt lat="45.22817" lon="6.04156">
        <ele>2094</ele>
        <time>2024-06-06T00:18:50+00:00</time>
      </trkpt>
      <trkpt lat="45.22813" lon="6.0416">
        <ele>2094</ele>
        <time>2024-06-06T00:18:53+00:00</time>
      </trkpt>
      <trkpt lat="45.22806" lon="6.0417">
        <ele>2097</ele>
        <time>2024-06-06T00:18:56+00:00</time>
      </trkpt>
      <trkpt lat="45.22804" lon="6.04174">
        <ele>2097</ele>
        <time>2024-06-06T00:18:59+00:00</time>
      </trkpt>
      <trkpt lat="45.22804" lon="6.04181">
        <ele>2100</ele>
        <time>2024-06-06T00:19:02+00:00</time>
      </trkpt>
      <trkpt lat="45.22804" lon="6.04186">
        <ele>2100</ele>
        <time>2024-06-06T00:19:05+00:00</time>
      </trkpt>
      <trkpt lat="45.22804" lon="6.04194">
        <ele>2102</ele>
        <time>2024-06-06T00:19:08+00:00</time>
      </trkpt>
      <trkpt lat="45.22803" lon="6.04199">
        <ele>2102</ele>
        <time>2024-06-06T00:19:11+00:00</time>
      </trkpt>
      <trkpt lat="45.22801" lon="6.04203">
        <ele>2104</ele>
        <time>2024-06-06T00:19:14+00:00</time>
      </trkpt>
      <trkpt lat="45.22799" lon="6.04208">
        <ele>2102</ele>
        <time>2024-06-06T00:19:17+00:00</time>
      </trkpt>
      <trkpt lat="45.22797" lon="6.04217">
        <ele>2105</ele>
        <time>2024-06-06T00:19:20+00:00</time>
      </trkpt>
      <trkpt lat="45.22796" lon="6.04221">
        <ele>2108</ele>
        <time>2024-06-06T00:19:23+00:00</time>
      </trkpt>
      <trkpt lat="45.22792" lon="6.04224">
        <ele>2108</ele>
        <time>2024-06-06T00:19:26+00:00</time>
      </trkpt>
      <trkpt lat="45.22786" lon="6.04222">
        <ele>2108</ele>
        <time>2024-06-06T00:19:29+00:00</time>
      </trkpt>
      <trkpt lat="45.22785" lon="6.04221">
        <ele>2108</ele>
        <time>2024-06-06T00:19:32+00:00</time>
      </trkpt>
      <trkpt lat="45.22782" lon="6.04221">
        <ele>2108</ele>
        <time>2024-06-06T00:19:35+00:00</time>
      </trkpt>
      <trkpt lat="45.22778" lon="6.04223">
        <ele>2106</ele>
        <time>2024-06-06T00:19:38+00:00</time>
      </trkpt>
      <trkpt lat="45.22774" lon="6.04227">
        <ele>2106</ele>
        <time>2024-06-06T00:19:41+00:00</time>
      </trkpt>
      <trkpt lat="45.2277" lon="6.04234">
        <ele>2108</ele>
        <time>2024-06-06T00:19:44+00:00</time>
      </trkpt>
      <trkpt lat="45.22768" lon="6.04241">
        <ele>2108</ele>
        <time>2024-06-06T00:19:47+00:00</time>
      </trkpt>
      <trkpt lat="45.22767" lon="6.04249">
        <ele>2108</ele>
        <time>2024-06-06T00:19:50+00:00</time>
      </trkpt>
      <trkpt lat="45.22767" lon="6.04255">
        <ele>2109</ele>
        <time>2024-06-06T00:19:53+00:00</time>
      </trkpt>
      <trkpt lat="45.22768" lon="6.04261">
        <ele>2108</ele>
        <time>2024-06-06T00:19:56+00:00</time>
      </trkpt>
      <trkpt lat="45.22774" lon="6.04277">
        <ele>2110</ele>
        <time>2024-06-06T00:19:59+00:00</time>
      </trkpt>
      <trkpt lat="45.22781" lon="6.04295">
        <ele>2109</ele>
        <time>2024-06-06T00:20:02+00:00</time>
      </trkpt>
      <trkpt lat="45.22784" lon="6.04308">
        <ele>2112</ele>
        <time>2024-06-06T00:20:05+00:00</time>
      </trkpt>
      <trkpt lat="45.22786" lon="6.04317">
        <ele>2111</ele>
        <time>2024-06-06T00:20:08+00:00</time>
      </trkpt>
      <trkpt lat="45.22788" lon="6.04323">
        <ele>2111</ele>
        <time>2024-06-06T00:20:11+00:00</time>
      </trkpt>
      <trkpt lat="45.22787" lon="6.0433">
        <ele>2111</ele>
        <time>2024-06-06T00:20:14+00:00</time>
      </trkpt>
      <trkpt lat="45.22785" lon="6.04334">
        <ele>2111</ele>
        <time>2024-06-06T00:20:17+00:00</time>
      </trkpt>
      <trkpt lat="45.22784" lon="6.04337">
        <ele>2111</ele>
        <time>2024-06-06T00:20:20+00:00</time>
      </trkpt>
      <trkpt lat="45.22784" lon="6.04343">
        <ele>2112</ele>
        <time>2024-06-06T00:20:23+00:00</time>
      </trkpt>
      <trkpt lat="45.22784" lon="6.04348">
        <ele>2112</ele>
        <time>2024-06-06T00:20:26+00:00</time>
      </trkpt>
      <trkpt lat="45.22792" lon="6.04369">
        <ele>2110</ele>
        <time>2024-06-06T00:20:29+00:00</time>
      </trkpt>
      <trkpt lat="45.22794" lon="6.04372">
        <ele>2111</ele>
        <time>2024-06-06T00:20:32+00:00</time>
      </trkpt>
      <trkpt lat="45.22795" lon="6.04374">
        <ele>2111</ele>
        <time>2024-06-06T00:20:35+00:00</time>
      </trkpt>
      <trkpt lat="45.22793" lon="6.04384">
        <ele>2111</ele>
        <time>2024-06-06T00:20:38+00:00</time>
      </trkpt>
      <trkpt lat="45.22792" lon="6.04387">
        <ele>2111</ele>
        <time>2024-06-06T00:20:41+00:00</time>
      </trkpt>
      <trkpt lat="45.22789" lon="6.04399">
        <ele>2110</ele>
        <time>2024-06-06T00:20:44+00:00</time>
      </trkpt>
      <trkpt lat="45.22785" lon="6.04407">
        <ele>2113</ele>
        <time>2024-06-06T00:20:47+00:00</time>
      </trkpt>
      <trkpt lat="45.22783" lon="6.04413">
        <ele>2116</ele>
        <time>2024-06-06T00:20:50+00:00</time>
      </trkpt>
      <trkpt lat="45.22781" lon="6.04416">
        <ele>2116</ele>
        <time>2024-06-06T00:20:53+00:00</time>
      </trkpt>
      <trkpt lat="45.22778" lon="6.04418">
        <ele>2110</ele>
        <time>2024-06-06T00:20:56+00:00</time>
      </trkpt>
      <trkpt lat="45.22779" lon="6.0442">
        <ele>2110</ele>
        <time>2024-06-06T00:20:59+00:00</time>
      </trkpt>
      <trkpt lat="45.2278" lon="6.04421">
        <ele>2122</ele>
        <time>2024-06-06T00:21:02+00:00</time>
      </trkpt>
      <trkpt lat="45.2278" lon="6.04426">
        <ele>2115</ele>
        <time>2024-06-06T00:21:05+00:00</time>
      </trkpt>
      <trkpt lat="45.2278" lon="6.04429">
        <ele>2115</ele>
        <time>2024-06-06T00:21:08+00:00</time>
      </trkpt>
      <trkpt lat="45.22777" lon="6.04432">
        <ele>2117</ele>
        <time>2024-06-06T00:21:11+00:00</time>
      </trkpt>
      <trkpt lat="45.22777" lon="6.04433">
        <ele>2117</ele>
        <time>2024-06-06T00:21:14+00:00</time>
      </trkpt>
      <trkpt lat="45.22778" lon="6.04434">
        <ele>2117</ele>
        <time>2024-06-06T00:21:17+00:00</time>
      </trkpt>
      <trkpt lat="45.2278" lon="6.04433">
        <ele>2117</ele>
        <time>2024-06-06T00:21:20+00:00</time>
      </trkpt>
      <trkpt lat="45.22781" lon="6.04434">
        <ele>2124</ele>
        <time>2024-06-06T00:21:23+00:00</time>
      </trkpt>
      <trkpt lat="45.22782" lon="6.04437">
        <ele>2124</ele>
        <time>2024-06-06T00:21:26+00:00</time>
      </trkpt>
      <trkpt lat="45.22782" lon="6.04438">
        <ele>2124</ele>
        <time>2024-06-06T00:21:29+00:00</time>
      </trkpt>
      <trkpt lat="45.22783" lon="6.0444">
        <ele>2124</ele>
        <time>2024-06-06T00:21:32+00:00</time>
      </trkpt>
      <trkpt lat="45.22781" lon="6.04443">
        <ele>2127</ele>
        <time>2024-06-06T00:21:35+00:00</time>
      </trkpt>
      <trkpt lat="45.2278" lon="6.04457">
        <ele>2129</ele>
        <time>2024-06-06T00:21:38+00:00</time>
      </trkpt>
      <trkpt lat="45.2278" lon="6.04458">
        <ele>2129</ele>
        <time>2024-06-06T00:21:41+00:00</time>
      </trkpt>
      <trkpt lat="45.22773" lon="6.04466">
        <ele>2125</ele>
        <time>2024-06-06T00:21:44+00:00</time>
      </trkpt>
      <trkpt lat="45.2277" lon="6.04471">
        <ele>2128</ele>
        <time>2024-06-06T00:21:47+00:00</time>
      </trkpt>
      <trkpt lat="45.22769" lon="6.04474">
        <ele>2124</ele>
        <time>2024-06-06T00:21:50+00:00</time>
      </trkpt>
      <trkpt lat="45.2277" lon="6.0448">
        <ele>2128</ele>
        <time>2024-06-06T00:21:53+00:00</time>
      </trkpt>
      <trkpt lat="45.2277" lon="6.04483">
        <ele>2133</ele>
        <time>2024-06-06T00:21:56+00:00</time>
      </trkpt>
      <trkpt lat="45.2277" lon="6.04485">
        <ele>2130</ele>
        <time>2024-06-06T00:21:59+00:00</time>
      </trkpt>
      <trkpt lat="45.22769" lon="6.04487">
        <ele>2130</ele>
        <time>2024-06-06T00:22:02+00:00</time>
      </trkpt>
      <trkpt lat="45.22768" lon="6.0449">
        <ele>2130</ele>
        <time>2024-06-06T00:22:05+00:00</time>
      </trkpt>
      <trkpt lat="45.22766" lon="6.04493">
        <ele>2134</ele>
        <time>2024-06-06T00:22:08+00:00</time>
      </trkpt>
      <trkpt lat="45.22764" lon="6.04495">
        <ele>2134</ele>
        <time>2024-06-06T00:22:11+00:00</time>
      </trkpt>
      <trkpt lat="45.22764" lon="6.04496">
        <ele>2134</ele>
        <time>2024-06-06T00:22:14+00:00</time>
      </trkpt>
      <trkpt lat="45.22763" lon="6.04499">
        <ele>2134</ele>
        <time>2024-06-06T00:22:17+00:00</time>
      </trkpt>
      <trkpt lat="45.22762" lon="6.04501">
        <ele>2137</ele>
        <time>2024-06-06T00:22:20+00:00</time>
      </trkpt>
      <trkpt lat="45.22762" lon="6.04506">
        <ele>2137</ele>
        <time>2024-06-06T00:22:23+00:00</time>
      </trkpt>
      <trkpt lat="45.2276" lon="6.04507">
        <ele>2137</ele>
        <time>2024-06-06T00:22:26+00:00</time>
      </trkpt>
      <trkpt lat="45.2276" lon="6.04509">
        <ele>2137</ele>
        <time>2024-06-06T00:22:29+00:00</time>
      </trkpt>
      <trkpt lat="45.22763" lon="6.04509">
        <ele>2137</ele>
        <time>2024-06-06T00:22:32+00:00</time>
      </trkpt>
      <trkpt lat="45.22764" lon="6.0451">
        <ele>2141</ele>
        <time>2024-06-06T00:22:35+00:00</time>
      </trkpt>
      <trkpt lat="45.22765" lon="6.04512">
        <ele>2141</ele>
        <time>2024-06-06T00:22:38+00:00</time>
      </trkpt>
      <trkpt lat="45.22762" lon="6.04519">
        <ele>2141</ele>
        <time>2024-06-06T00:22:41+00:00</time>
      </trkpt>
      <trkpt lat="45.22762" lon="6.04523">
        <ele>2143</ele>
        <time>2024-06-06T00:22:44+00:00</time>
      </trkpt>
      <trkpt lat="45.2276" lon="6.04528">
        <ele>2140</ele>
        <time>2024-06-06T00:22:47+00:00</time>
      </trkpt>
      <trkpt lat="45.2276" lon="6.04532">
        <ele>2143</ele>
        <time>2024-06-06T00:22:50+00:00</time>
      </trkpt>
      <trkpt lat="45.22759" lon="6.04533">
        <ele>2143</ele>
        <time>2024-06-06T00:22:53+00:00</time>
      </trkpt>
      <trkpt lat="45.22759" lon="6.04535">
        <ele>2143</ele>
        <time>2024-06-06T00:22:56+00:00</time>
      </trkpt>
      <trkpt lat="45.22755" lon="6.04536">
        <ele>2143</ele>
        <time>2024-06-06T00:22:59+00:00</time>
      </trkpt>
      <trkpt lat="45.22749" lon="6.04538">
        <ele>2139</ele>
        <time>2024-06-06T00:23:02+00:00</time>
      </trkpt>
      <trkpt lat="45.22747" lon="6.0454">
        <ele>2139</ele>
        <time>2024-06-06T00:23:05+00:00</time>
      </trkpt>
      <trkpt lat="45.22746" lon="6.04543">
        <ele>2143</ele>
        <time>2024-06-06T00:23:08+00:00</time>
      </trkpt>
      <trkpt lat="45.22745" lon="6.04545">
        <ele>2143</ele>
        <time>2024-06-06T00:23:11+00:00</time>
      </trkpt>
      <trkpt lat="45.22743" lon="6.0455">
        <ele>2143</ele>
        <time>2024-06-06T00:23:14+00:00</time>
      </trkpt>
      <trkpt lat="45.22738" lon="6.04555">
        <ele>2143</ele>
        <time>2024-06-06T00:23:17+00:00</time>
      </trkpt>
      <trkpt lat="45.22734" lon="6.04559">
        <ele>2143</ele>
        <time>2024-06-06T00:23:20+00:00</time>
      </trkpt>
      <trkpt lat="45.22733" lon="6.04563">
        <ele>2145</ele>
        <time>2024-06-06T00:23:23+00:00</time>
      </trkpt>
      <trkpt lat="45.22732" lon="6.04571">
        <ele>2149</ele>
        <time>2024-06-06T00:23:26+00:00</time>
      </trkpt>
      <trkpt lat="45.22728" lon="6.04583">
        <ele>2147</ele>
        <time>2024-06-06T00:23:29+00:00</time>
      </trkpt>
      <trkpt lat="45.22722" lon="6.04592">
        <ele>2151</ele>
        <time>2024-06-06T00:23:32+00:00</time>
      </trkpt>
      <trkpt lat="45.22716" lon="6.04598">
        <ele>2147</ele>
        <time>2024-06-06T00:23:35+00:00</time>
      </trkpt>
      <trkpt lat="45.22705" lon="6.04603">
        <ele>2152</ele>
        <time>2024-06-06T00:23:38+00:00</time>
      </trkpt>
      <trkpt lat="45.22699" lon="6.04608">
        <ele>2151</ele>
        <time>2024-06-06T00:23:41+00:00</time>
      </trkpt>
      <trkpt lat="45.22692" lon="6.04619">
        <ele>2154</ele>
        <time>2024-06-06T00:23:44+00:00</time>
      </trkpt>
      <trkpt lat="45.22692" lon="6.04622">
        <ele>2157</ele>
        <time>2024-06-06T00:23:47+00:00</time>
      </trkpt>
      <trkpt lat="45.22692" lon="6.04629">
        <ele>2157</ele>
        <time>2024-06-06T00:23:50+00:00</time>
      </trkpt>
      <trkpt lat="45.22694" lon="6.04632">
        <ele>2161</ele>
        <time>2024-06-06T00:23:53+00:00</time>
      </trkpt>
      <trkpt lat="45.22694" lon="6.04636">
        <ele>2161</ele>
        <time>2024-06-06T00:23:56+00:00</time>
      </trkpt>
      <trkpt lat="45.22691" lon="6.04644">
        <ele>2163</ele>
        <time>2024-06-06T00:23:59+00:00</time>
      </trkpt>
      <trkpt lat="45.22689" lon="6.04647">
        <ele>2160</ele>
        <time>2024-06-06T00:24:02+00:00</time>
      </trkpt>
      <trkpt lat="45.22689" lon="6.04648">
        <ele>2160</ele>
        <time>2024-06-06T00:24:05+00:00</time>
      </trkpt>
      <trkpt lat="45.22688" lon="6.04653">
        <ele>2161</ele>
        <time>2024-06-06T00:24:08+00:00</time>
      </trkpt>
      <trkpt lat="45.22687" lon="6.04667">
        <ele>2162</ele>
        <time>2024-06-06T00:24:11+00:00</time>
      </trkpt>
      <trkpt lat="45.22687" lon="6.04668">
        <ele>2162</ele>
        <time>2024-06-06T00:24:14+00:00</time>
      </trkpt>
      <trkpt lat="45.22689" lon="6.04671">
        <ele>2162</ele>
        <time>2024-06-06T00:24:17+00:00</time>
      </trkpt>
      <trkpt lat="45.22694" lon="6.04676">
        <ele>2167</ele>
        <time>2024-06-06T00:24:20+00:00</time>
      </trkpt>
      <trkpt lat="45.22697" lon="6.04682">
        <ele>2168</ele>
        <time>2024-06-06T00:24:23+00:00</time>
      </trkpt>
      <trkpt lat="45.227" lon="6.04685">
        <ele>2168</ele>
        <time>2024-06-06T00:24:26+00:00</time>
      </trkpt>
      <trkpt lat="45.22704" lon="6.0469">
        <ele>2172</ele>
        <time>2024-06-06T00:24:29+00:00</time>
      </trkpt>
      <trkpt lat="45.22705" lon="6.04695">
        <ele>2172</ele>
        <time>2024-06-06T00:24:32+00:00</time>
      </trkpt>
      <trkpt lat="45.2271" lon="6.04704">
        <ele>2176</ele>
        <time>2024-06-06T00:24:35+00:00</time>
      </trkpt>
      <trkpt lat="45.22712" lon="6.04707">
        <ele>2176</ele>
        <time>2024-06-06T00:24:38+00:00</time>
      </trkpt>
      <trkpt lat="45.22713" lon="6.04709">
        <ele>2176</ele>
        <time>2024-06-06T00:24:41+00:00</time>
      </trkpt>
      <trkpt lat="45.22715" lon="6.04713">
        <ele>2176</ele>
        <time>2024-06-06T00:24:44+00:00</time>
      </trkpt>
      <trkpt lat="45.22715" lon="6.04715">
        <ele>2176</ele>
        <time>2024-06-06T00:24:47+00:00</time>
      </trkpt>
      <trkpt lat="45.22721" lon="6.04721">
        <ele>2182</ele>
        <time>2024-06-06T00:24:50+00:00</time>
      </trkpt>
      <trkpt lat="45.22725" lon="6.04727">
        <ele>2182</ele>
        <time>2024-06-06T00:24:53+00:00</time>
      </trkpt>
      <trkpt lat="45.22727" lon="6.04729">
        <ele>2182</ele>
        <time>2024-06-06T00:24:56+00:00</time>
      </trkpt>
      <trkpt lat="45.22729" lon="6.0473">
        <ele>2182</ele>
        <time>2024-06-06T00:24:59+00:00</time>
      </trkpt>
      <trkpt lat="45.22731" lon="6.04732">
        <ele>2185</ele>
        <time>2024-06-06T00:25:02+00:00</time>
      </trkpt>
      <trkpt lat="45.22732" lon="6.04732">
        <ele>2185</ele>
        <time>2024-06-06T00:25:05+00:00</time>
      </trkpt>
      <trkpt lat="45.22733" lon="6.04726">
        <ele>2187</ele>
        <time>2024-06-06T00:25:08+00:00</time>
      </trkpt>
      <trkpt lat="45.22735" lon="6.04727">
        <ele>2187</ele>
        <time>2024-06-06T00:25:11+00:00</time>
      </trkpt>
      <trkpt lat="45.22744" lon="6.04732">
        <ele>2190</ele>
        <time>2024-06-06T00:25:14+00:00</time>
      </trkpt>
      <trkpt lat="45.22747" lon="6.04732">
        <ele>2190</ele>
        <time>2024-06-06T00:25:17+00:00</time>
      </trkpt>
      <trkpt lat="45.2275" lon="6.04732">
        <ele>2197</ele>
        <time>2024-06-06T00:25:20+00:00</time>
      </trkpt>
      <trkpt lat="45.22754" lon="6.04739">
        <ele>2197</ele>
        <time>2024-06-06T00:25:23+00:00</time>
      </trkpt>
      <trkpt lat="45.22755" lon="6.0474">
        <ele>2196</ele>
        <time>2024-06-06T00:25:26+00:00</time>
      </trkpt>
      <trkpt lat="45.22757" lon="6.04745">
        <ele>2196</ele>
        <time>2024-06-06T00:25:29+00:00</time>
      </trkpt>
      <trkpt lat="45.22759" lon="6.04748">
        <ele>2196</ele>
        <time>2024-06-06T00:25:32+00:00</time>
      </trkpt>
      <trkpt lat="45.2276" lon="6.04751">
        <ele>2195</ele>
        <time>2024-06-06T00:25:35+00:00</time>
      </trkpt>
      <trkpt lat="45.22764" lon="6.04762">
        <ele>2200</ele>
        <time>2024-06-06T00:25:38+00:00</time>
      </trkpt>
      <trkpt lat="45.22766" lon="6.04768">
        <ele>2200</ele>
        <time>2024-06-06T00:25:41+00:00</time>
      </trkpt>
      <trkpt lat="45.2277" lon="6.04775">
        <ele>2205</ele>
        <time>2024-06-06T00:25:44+00:00</time>
      </trkpt>
      <trkpt lat="45.22773" lon="6.04777">
        <ele>2205</ele>
        <time>2024-06-06T00:25:47+00:00</time>
      </trkpt>
      <trkpt lat="45.22775" lon="6.04776">
        <ele>2205</ele>
        <time>2024-06-06T00:25:50+00:00</time>
      </trkpt>
      <trkpt lat="45.22775" lon="6.04774">
        <ele>2205</ele>
        <time>2024-06-06T00:25:53+00:00</time>
      </trkpt>
      <trkpt lat="45.22775" lon="6.04771">
        <ele>2205</ele>
        <time>2024-06-06T00:25:56+00:00</time>
      </trkpt>
      <trkpt lat="45.22777" lon="6.04764">
        <ele>2206</ele>
        <time>2024-06-06T00:25:59+00:00</time>
      </trkpt>
      <trkpt lat="45.2278" lon="6.04758">
        <ele>2207</ele>
        <time>2024-06-06T00:26:02+00:00</time>
      </trkpt>
      <trkpt lat="45.22783" lon="6.04751">
        <ele>2214</ele>
        <time>2024-06-06T00:26:05+00:00</time>
      </trkpt>
      <trkpt lat="45.22784" lon="6.04745">
        <ele>2214</ele>
        <time>2024-06-06T00:26:08+00:00</time>
      </trkpt>
      <trkpt lat="45.22786" lon="6.04745">
        <ele>2214</ele>
        <time>2024-06-06T00:26:11+00:00</time>
      </trkpt>
      <trkpt lat="45.22787" lon="6.04747">
        <ele>2214</ele>
        <time>2024-06-06T00:26:14+00:00</time>
      </trkpt>
      <trkpt lat="45.22791" lon="6.04751">
        <ele>2219</ele>
        <time>2024-06-06T00:26:17+00:00</time>
      </trkpt>
      <trkpt lat="45.22793" lon="6.04754">
        <ele>2219</ele>
        <time>2024-06-06T00:26:20+00:00</time>
      </trkpt>
      <trkpt lat="45.22793" lon="6.04758">
        <ele>2219</ele>
        <time>2024-06-06T00:26:23+00:00</time>
      </trkpt>
      <trkpt lat="45.22795" lon="6.04761">
        <ele>2219</ele>
        <time>2024-06-06T00:26:26+00:00</time>
      </trkpt>
      <trkpt lat="45.22797" lon="6.04761">
        <ele>2219</ele>
        <time>2024-06-06T00:26:29+00:00</time>
      </trkpt>
      <trkpt lat="45.228" lon="6.04763">
        <ele>2223</ele>
        <time>2024-06-06T00:26:32+00:00</time>
      </trkpt>
      <trkpt lat="45.22801" lon="6.04761">
        <ele>2223</ele>
        <time>2024-06-06T00:26:35+00:00</time>
      </trkpt>
      <trkpt lat="45.22803" lon="6.04763">
        <ele>2223</ele>
        <time>2024-06-06T00:26:38+00:00</time>
      </trkpt>
      <trkpt lat="45.22805" lon="6.04762">
        <ele>2223</ele>
        <time>2024-06-06T00:26:41+00:00</time>
      </trkpt>
      <trkpt lat="45.22805" lon="6.0476">
        <ele>2223</ele>
        <time>2024-06-06T00:26:44+00:00</time>
      </trkpt>
      <trkpt lat="45.22806" lon="6.0476">
        <ele>2223</ele>
        <time>2024-06-06T00:26:47+00:00</time>
      </trkpt>
      <trkpt lat="45.22807" lon="6.04761">
        <ele>2223</ele>
        <time>2024-06-06T00:26:50+00:00</time>
      </trkpt>
      <trkpt lat="45.22811" lon="6.04764">
        <ele>2230</ele>
        <time>2024-06-06T00:26:53+00:00</time>
      </trkpt>
      <trkpt lat="45.22811" lon="6.04761">
        <ele>2230</ele>
        <time>2024-06-06T00:26:56+00:00</time>
      </trkpt>
      <trkpt lat="45.22812" lon="6.0476">
        <ele>2230</ele>
        <time>2024-06-06T00:26:59+00:00</time>
      </trkpt>
      <trkpt lat="45.22817" lon="6.04763">
        <ele>2230</ele>
        <time>2024-06-06T00:27:02+00:00</time>
      </trkpt>
      <trkpt lat="45.22824" lon="6.04764">
        <ele>2234</ele>
        <time>2024-06-06T00:27:05+00:00</time>
      </trkpt>
      <trkpt lat="45.22825" lon="6.04765">
        <ele>2234</ele>
        <time>2024-06-06T00:27:08+00:00</time>
      </trkpt>
      <trkpt lat="45.22824" lon="6.04761">
        <ele>2234</ele>
        <time>2024-06-06T00:27:11+00:00</time>
      </trkpt>
      <trkpt lat="45.22825" lon="6.04761">
        <ele>2234</ele>
        <time>2024-06-06T00:27:14+00:00</time>
      </trkpt>
      <trkpt lat="45.22828" lon="6.04762">
        <ele>2234</ele>
        <time>2024-06-06T00:27:17+00:00</time>
      </trkpt>
      <trkpt lat="45.22828" lon="6.0476">
        <ele>2234</ele>
        <time>2024-06-06T00:27:20+00:00</time>
      </trkpt>
      <trkpt lat="45.22829" lon="6.0476">
        <ele>2233</ele>
        <time>2024-06-06T00:27:23+00:00</time>
      </trkpt>
      <trkpt lat="45.22832" lon="6.04761">
        <ele>2238</ele>
        <time>2024-06-06T00:27:26+00:00</time>
      </trkpt>
      <trkpt lat="45.22835" lon="6.04759">
        <ele>2237</ele>
        <time>2024-06-06T00:27:29+00:00</time>
      </trkpt>
      <trkpt lat="45.22837" lon="6.04759">
        <ele>2237</ele>
        <time>2024-06-06T00:27:32+00:00</time>
      </trkpt>
      <trkpt lat="45.22838" lon="6.0476">
        <ele>2238</ele>
        <time>2024-06-06T00:27:35+00:00</time>
      </trkpt>
      <trkpt lat="45.22839" lon="6.0476">
        <ele>2237</ele>
        <time>2024-06-06T00:27:38+00:00</time>
      </trkpt>
      <trkpt lat="45.22841" lon="6.04761">
        <ele>2244</ele>
        <time>2024-06-06T00:27:41+00:00</time>
      </trkpt>
      <trkpt lat="45.22841" lon="6.0476">
        <ele>2244</ele>
        <time>2024-06-06T00:27:44+00:00</time>
      </trkpt>
      <trkpt lat="45.22848" lon="6.04762">
        <ele>2244</ele>
        <time>2024-06-06T00:27:47+00:00</time>
      </trkpt>
      <trkpt lat="45.22848" lon="6.04761">
        <ele>2244</ele>
        <time>2024-06-06T00:27:50+00:00</time>
      </trkpt>
      <trkpt lat="45.22848" lon="6.04759">
        <ele>2243</ele>
        <time>2024-06-06T00:27:53+00:00</time>
      </trkpt>
      <trkpt lat="45.2285" lon="6.04757">
        <ele>2247</ele>
        <time>2024-06-06T00:27:56+00:00</time>
      </trkpt>
      <trkpt lat="45.22852" lon="6.04758">
        <ele>2247</ele>
        <time>2024-06-06T00:27:59+00:00</time>
      </trkpt>
      <trkpt lat="45.22853" lon="6.04759">
        <ele>2247</ele>
        <time>2024-06-06T00:28:02+00:00</time>
      </trkpt>
      <trkpt lat="45.22854" lon="6.0476">
        <ele>2247</ele>
        <time>2024-06-06T00:28:05+00:00</time>
      </trkpt>
      <trkpt lat="45.22857" lon="6.04759">
        <ele>2247</ele>
        <time>2024-06-06T00:28:08+00:00</time>
      </trkpt>
      <trkpt lat="45.22861" lon="6.04761">
        <ele>2252</ele>
        <time>2024-06-06T00:28:11+00:00</time>
      </trkpt>
      <trkpt lat="45.22866" lon="6.04762">
        <ele>2252</ele>
        <time>2024-06-06T00:28:14+00:00</time>
      </trkpt>
      <trkpt lat="45.22871" lon="6.04765">
        <ele>2258</ele>
        <time>2024-06-06T00:28:17+00:00</time>
      </trkpt>
      <trkpt lat="45.22874" lon="6.0477">
        <ele>2258</ele>
        <time>2024-06-06T00:28:20+00:00</time>
      </trkpt>
      <trkpt lat="45.22882" lon="6.04785">
        <ele>2260</ele>
        <time>2024-06-06T00:28:23+00:00</time>
      </trkpt>
      <trkpt lat="45.22886" lon="6.04788">
        <ele>2260</ele>
        <time>2024-06-06T00:28:26+00:00</time>
      </trkpt>
      <trkpt lat="45.22895" lon="6.04809">
        <ele>2261</ele>
        <time>2024-06-06T00:28:29+00:00</time>
      </trkpt>
      <trkpt lat="45.22901" lon="6.04818">
        <ele>2268</ele>
        <time>2024-06-06T00:28:32+00:00</time>
      </trkpt>
      <trkpt lat="45.22902" lon="6.04822">
        <ele>2266</ele>
        <time>2024-06-06T00:28:35+00:00</time>
      </trkpt>
      <trkpt lat="45.22905" lon="6.04826">
        <ele>2266</ele>
        <time>2024-06-06T00:28:38+00:00</time>
      </trkpt>
      <trkpt lat="45.22907" lon="6.04829">
        <ele>2266</ele>
        <time>2024-06-06T00:28:41+00:00</time>
      </trkpt>
      <trkpt lat="45.2291" lon="6.04832">
        <ele>2266</ele>
        <time>2024-06-06T00:28:44+00:00</time>
      </trkpt>
      <trkpt lat="45.22911" lon="6.04835">
        <ele>2271</ele>
        <time>2024-06-06T00:28:47+00:00</time>
      </trkpt>
      <trkpt lat="45.22911" lon="6.04834">
        <ele>2271</ele>
        <time>2024-06-06T00:28:50+00:00</time>
      </trkpt>
      <trkpt lat="45.22912" lon="6.04832">
        <ele>2271</ele>
        <time>2024-06-06T00:28:53+00:00</time>
      </trkpt>
      <trkpt lat="45.22913" lon="6.04831">
        <ele>2271</ele>
        <time>2024-06-06T00:28:56+00:00</time>
      </trkpt>
      <trkpt lat="45.22914" lon="6.04835">
        <ele>2271</ele>
        <time>2024-06-06T00:28:59+00:00</time>
      </trkpt>
      <trkpt lat="45.22915" lon="6.04836">
        <ele>2271</ele>
        <time>2024-06-06T00:29:02+00:00</time>
      </trkpt>
      <trkpt lat="45.22919" lon="6.04841">
        <ele>2271</ele>
        <time>2024-06-06T00:29:05+00:00</time>
      </trkpt>
      <trkpt lat="45.22918" lon="6.04847">
        <ele>2271</ele>
        <time>2024-06-06T00:29:08+00:00</time>
      </trkpt>
      <trkpt lat="45.22922" lon="6.04855">
        <ele>2276</ele>
        <time>2024-06-06T00:29:11+00:00</time>
      </trkpt>
      <trkpt lat="45.22922" lon="6.04865">
        <ele>2277</ele>
        <time>2024-06-06T00:29:14+00:00</time>
      </trkpt>
      <trkpt lat="45.22923" lon="6.04866">
        <ele>2277</ele>
        <time>2024-06-06T00:29:17+00:00</time>
      </trkpt>
      <trkpt lat="45.22922" lon="6.0487">
        <ele>2277</ele>
        <time>2024-06-06T00:29:20+00:00</time>
      </trkpt>
      <trkpt lat="45.22923" lon="6.04874">
        <ele>2279</ele>
        <time>2024-06-06T00:29:23+00:00</time>
      </trkpt>
      <trkpt lat="45.22923" lon="6.04875">
        <ele>2279</ele>
        <time>2024-06-06T00:29:26+00:00</time>
      </trkpt>
      <trkpt lat="45.22925" lon="6.04881">
        <ele>2282</ele>
        <time>2024-06-06T00:29:29+00:00</time>
      </trkpt>
      <trkpt lat="45.22927" lon="6.0489">
        <ele>2283</ele>
        <time>2024-06-06T00:29:32+00:00</time>
      </trkpt>
      <trkpt lat="45.2293" lon="6.04895">
        <ele>2287</ele>
        <time>2024-06-06T00:29:35+00:00</time>
      </trkpt>
      <trkpt lat="45.22932" lon="6.04896">
        <ele>2287</ele>
        <time>2024-06-06T00:29:38+00:00</time>
      </trkpt>
      <trkpt lat="45.22935" lon="6.04892">
        <ele>2287</ele>
        <time>2024-06-06T00:29:41+00:00</time>
      </trkpt>
      <trkpt lat="45.22935" lon="6.04886">
        <ele>2286</ele>
        <time>2024-06-06T00:29:44+00:00</time>
      </trkpt>
      <trkpt lat="45.22936" lon="6.04883">
        <ele>2286</ele>
        <time>2024-06-06T00:29:47+00:00</time>
      </trkpt>
      <trkpt lat="45.22938" lon="6.04883">
        <ele>2286</ele>
        <time>2024-06-06T00:29:50+00:00</time>
      </trkpt>
      <trkpt lat="45.22941" lon="6.04888">
        <ele>2289</ele>
        <time>2024-06-06T00:29:53+00:00</time>
      </trkpt>
      <trkpt lat="45.2295" lon="6.04899">
        <ele>2292</ele>
        <time>2024-06-06T00:29:56+00:00</time>
      </trkpt>
      <trkpt lat="45.22953" lon="6.04899">
        <ele>2292</ele>
        <time>2024-06-06T00:29:59+00:00</time>
      </trkpt>
      <trkpt lat="45.22954" lon="6.04902">
        <ele>2293</ele>
        <time>2024-06-06T00:30:02+00:00</time>
      </trkpt>
      <trkpt lat="45.22957" lon="6.04904">
        <ele>2293</ele>
        <time>2024-06-06T00:30:05+00:00</time>
      </trkpt>
      <trkpt lat="45.2296" lon="6.04909">
        <ele>2296</ele>
        <time>2024-06-06T00:30:08+00:00</time>
      </trkpt>
      <trkpt lat="45.22963" lon="6.04911">
        <ele>2298</ele>
        <time>2024-06-06T00:30:11+00:00</time>
      </trkpt>
      <trkpt lat="45.22964" lon="6.04916">
        <ele>2298</ele>
        <time>2024-06-06T00:30:14+00:00</time>
      </trkpt>
      <trkpt lat="45.2297" lon="6.04926">
        <ele>2299</ele>
        <time>2024-06-06T00:30:17+00:00</time>
      </trkpt>
      <trkpt lat="45.22973" lon="6.0493">
        <ele>2301</ele>
        <time>2024-06-06T00:30:20+00:00</time>
      </trkpt>
      <trkpt lat="45.22974" lon="6.04933">
        <ele>2302</ele>
        <time>2024-06-06T00:30:23+00:00</time>
      </trkpt>
      <trkpt lat="45.22974" lon="6.04953">
        <ele>2303</ele>
        <time>2024-06-06T00:30:26+00:00</time>
      </trkpt>
      <trkpt lat="45.22975" lon="6.04961">
        <ele>2302</ele>
        <time>2024-06-06T00:30:29+00:00</time>
      </trkpt>
      <trkpt lat="45.22977" lon="6.04965">
        <ele>2302</ele>
        <time>2024-06-06T00:30:32+00:00</time>
      </trkpt>
      <trkpt lat="45.22978" lon="6.04968">
        <ele>2302</ele>
        <time>2024-06-06T00:30:35+00:00</time>
      </trkpt>
      <trkpt lat="45.22982" lon="6.04971">
        <ele>2305</ele>
        <time>2024-06-06T00:30:38+00:00</time>
      </trkpt>
      <trkpt lat="45.22984" lon="6.04975">
        <ele>2305</ele>
        <time>2024-06-06T00:30:41+00:00</time>
      </trkpt>
      <trkpt lat="45.23001" lon="6.04988">
        <ele>2310</ele>
        <time>2024-06-06T00:30:44+00:00</time>
      </trkpt>
      <trkpt lat="45.23003" lon="6.04992">
        <ele>2310</ele>
        <time>2024-06-06T00:30:47+00:00</time>
      </trkpt>
      <trkpt lat="45.23009" lon="6.04998">
        <ele>2310</ele>
        <time>2024-06-06T00:30:50+00:00</time>
      </trkpt>
      <trkpt lat="45.23013" lon="6.05">
        <ele>2311</ele>
        <time>2024-06-06T00:30:53+00:00</time>
      </trkpt>
      <trkpt lat="45.23021" lon="6.05008">
        <ele>2313</ele>
        <time>2024-06-06T00:30:56+00:00</time>
      </trkpt>
      <trkpt lat="45.23023" lon="6.05008">
        <ele>2313</ele>
        <time>2024-06-06T00:30:59+00:00</time>
      </trkpt>
      <trkpt lat="45.23024" lon="6.0501">
        <ele>2314</ele>
        <time>2024-06-06T00:31:02+00:00</time>
      </trkpt>
      <trkpt lat="45.23028" lon="6.05018">
        <ele>2314</ele>
        <time>2024-06-06T00:31:05+00:00</time>
      </trkpt>
      <trkpt lat="45.23032" lon="6.05026">
        <ele>2315</ele>
        <time>2024-06-06T00:31:08+00:00</time>
      </trkpt>
      <trkpt lat="45.23037" lon="6.05032">
        <ele>2317</ele>
        <time>2024-06-06T00:31:11+00:00</time>
      </trkpt>
      <trkpt lat="45.2304" lon="6.05037">
        <ele>2317</ele>
        <time>2024-06-06T00:31:14+00:00</time>
      </trkpt>
      <trkpt lat="45.23042" lon="6.05043">
        <ele>2318</ele>
        <time>2024-06-06T00:31:17+00:00</time>
      </trkpt>
      <trkpt lat="45.23044" lon="6.05047">
        <ele>2318</ele>
        <time>2024-06-06T00:31:20+00:00</time>
      </trkpt>
      <trkpt lat="45.23046" lon="6.0505">
        <ele>2319</ele>
        <time>2024-06-06T00:31:23+00:00</time>
      </trkpt>
      <trkpt lat="45.2305" lon="6.05054">
        <ele>2318</ele>
        <time>2024-06-06T00:31:26+00:00</time>
      </trkpt>
      <trkpt lat="45.23054" lon="6.05062">
        <ele>2320</ele>
        <time>2024-06-06T00:31:29+00:00</time>
      </trkpt>
      <trkpt lat="45.23054" lon="6.05067">
        <ele>2320</ele>
        <time>2024-06-06T00:31:32+00:00</time>
      </trkpt>
      <trkpt lat="45.23056" lon="6.0507">
        <ele>2321</ele>
        <time>2024-06-06T00:31:35+00:00</time>
      </trkpt>
      <trkpt lat="45.2306" lon="6.05082">
        <ele>2319</ele>
        <time>2024-06-06T00:31:38+00:00</time>
      </trkpt>
      <trkpt lat="45.23058" lon="6.05088">
        <ele>2322</ele>
        <time>2024-06-06T00:31:41+00:00</time>
      </trkpt>
      <trkpt lat="45.23055" lon="6.05096">
        <ele>2321</ele>
        <time>2024-06-06T00:31:44+00:00</time>
      </trkpt>
      <trkpt lat="45.23054" lon="6.05101">
        <ele>2321</ele>
        <time>2024-06-06T00:31:47+00:00</time>
      </trkpt>
      <trkpt lat="45.23057" lon="6.0511">
        <ele>2321</ele>
        <time>2024-06-06T00:31:50+00:00</time>
      </trkpt>
      <trkpt lat="45.23064" lon="6.05118">
        <ele>2321</ele>
        <time>2024-06-06T00:31:53+00:00</time>
      </trkpt>
      <trkpt lat="45.23072" lon="6.05123">
        <ele>2321</ele>
        <time>2024-06-06T00:31:56+00:00</time>
      </trkpt>
      <trkpt lat="45.23075" lon="6.05126">
        <ele>2321</ele>
        <time>2024-06-06T00:31:59+00:00</time>
      </trkpt>
      <trkpt lat="45.2308" lon="6.05139">
        <ele>2323</ele>
        <time>2024-06-06T00:32:02+00:00</time>
      </trkpt>
      <trkpt lat="45.23081" lon="6.05151">
        <ele>2325</ele>
        <time>2024-06-06T00:32:05+00:00</time>
      </trkpt>
      <trkpt lat="45.23081" lon="6.05153">
        <ele>2325</ele>
        <time>2024-06-06T00:32:08+00:00</time>
      </trkpt>
      <trkpt lat="45.23082" lon="6.05155">
        <ele>2325</ele>
        <time>2024-06-06T00:32:11+00:00</time>
      </trkpt>
      <trkpt lat="45.23082" lon="6.05158">
        <ele>2325</ele>
        <time>2024-06-06T00:32:14+00:00</time>
      </trkpt>
      <trkpt lat="45.23085" lon="6.05161">
        <ele>2326</ele>
        <time>2024-06-06T00:32:17+00:00</time>
      </trkpt>
      <trkpt lat="45.23086" lon="6.05169">
        <ele>2326</ele>
        <time>2024-06-06T00:32:20+00:00</time>
      </trkpt>
      <trkpt lat="45.23087" lon="6.05187">
        <ele>2327</ele>
        <time>2024-06-06T00:32:23+00:00</time>
      </trkpt>
      <trkpt lat="45.23086" lon="6.05194">
        <ele>2328</ele>
        <time>2024-06-06T00:32:26+00:00</time>
      </trkpt>
      <trkpt lat="45.2309" lon="6.0521">
        <ele>2328</ele>
        <time>2024-06-06T00:32:29+00:00</time>
      </trkpt>
      <trkpt lat="45.23094" lon="6.05219">
        <ele>2329</ele>
        <time>2024-06-06T00:32:32+00:00</time>
      </trkpt>
      <trkpt lat="45.23095" lon="6.05224">
        <ele>2330</ele>
        <time>2024-06-06T00:32:35+00:00</time>
      </trkpt>
      <trkpt lat="45.23103" lon="6.05237">
        <ele>2332</ele>
        <time>2024-06-06T00:32:38+00:00</time>
      </trkpt>
      <trkpt lat="45.23106" lon="6.05256">
        <ele>2333</ele>
        <time>2024-06-06T00:32:41+00:00</time>
      </trkpt>
      <trkpt lat="45.23107" lon="6.05262">
        <ele>2333</ele>
        <time>2024-06-06T00:32:44+00:00</time>
      </trkpt>
      <trkpt lat="45.23111" lon="6.05269">
        <ele>2338</ele>
        <time>2024-06-06T00:32:47+00:00</time>
      </trkpt>
      <trkpt lat="45.23111" lon="6.05275">
        <ele>2338</ele>
        <time>2024-06-06T00:32:50+00:00</time>
      </trkpt>
      <trkpt lat="45.23111" lon="6.05276">
        <ele>2338</ele>
        <time>2024-06-06T00:32:53+00:00</time>
      </trkpt>
      <trkpt lat="45.23114" lon="6.05275">
        <ele>2338</ele>
        <time>2024-06-06T00:32:56+00:00</time>
      </trkpt>
      <trkpt lat="45.23115" lon="6.05277">
        <ele>2338</ele>
        <time>2024-06-06T00:32:59+00:00</time>
      </trkpt>
      <trkpt lat="45.23114" lon="6.05279">
        <ele>2338</ele>
        <time>2024-06-06T00:33:02+00:00</time>
      </trkpt>
      <trkpt lat="45.23115" lon="6.0528">
        <ele>2339</ele>
        <time>2024-06-06T00:33:05+00:00</time>
      </trkpt>
      <trkpt lat="45.23119" lon="6.05278">
        <ele>2338</ele>
        <time>2024-06-06T00:33:08+00:00</time>
      </trkpt>
      <trkpt lat="45.23119" lon="6.05278">
        <ele>2338</ele>
        <time>2024-06-06T00:33:11+00:00</time>
      </trkpt>
      <trkpt lat="45.23121" lon="6.05287">
        <ele>2342</ele>
        <time>2024-06-06T00:33:14+00:00</time>
      </trkpt>
      <trkpt lat="45.23123" lon="6.05287">
        <ele>2342</ele>
        <time>2024-06-06T00:33:17+00:00</time>
      </trkpt>
      <trkpt lat="45.23124" lon="6.05286">
        <ele>2342</ele>
        <time>2024-06-06T00:33:20+00:00</time>
      </trkpt>
      <trkpt lat="45.23125" lon="6.05282">
        <ele>2342</ele>
        <time>2024-06-06T00:33:23+00:00</time>
      </trkpt>
      <trkpt lat="45.23126" lon="6.05281">
        <ele>2342</ele>
        <time>2024-06-06T00:33:26+00:00</time>
      </trkpt>
      <trkpt lat="45.23127" lon="6.05282">
        <ele>2342</ele>
        <time>2024-06-06T00:33:29+00:00</time>
      </trkpt>
      <trkpt lat="45.23128" lon="6.05293">
        <ele>2343</ele>
        <time>2024-06-06T00:33:32+00:00</time>
      </trkpt>
      <trkpt lat="45.23128" lon="6.05296">
        <ele>2343</ele>
        <time>2024-06-06T00:33:35+00:00</time>
      </trkpt>
      <trkpt lat="45.23129" lon="6.05298">
        <ele>2343</ele>
        <time>2024-06-06T00:33:38+00:00</time>
      </trkpt>
      <trkpt lat="45.2313" lon="6.05303">
        <ele>2348</ele>
        <time>2024-06-06T00:33:41+00:00</time>
      </trkpt>
      <trkpt lat="45.2313" lon="6.05311">
        <ele>2349</ele>
        <time>2024-06-06T00:33:44+00:00</time>
      </trkpt>
      <trkpt lat="45.23131" lon="6.05312">
        <ele>2349</ele>
        <time>2024-06-06T00:33:47+00:00</time>
      </trkpt>
      <trkpt lat="45.23132" lon="6.0531">
        <ele>2349</ele>
        <time>2024-06-06T00:33:50+00:00</time>
      </trkpt>
      <trkpt lat="45.23133" lon="6.0531">
        <ele>2349</ele>
        <time>2024-06-06T00:33:53+00:00</time>
      </trkpt>
      <trkpt lat="45.23134" lon="6.05313">
        <ele>2349</ele>
        <time>2024-06-06T00:33:56+00:00</time>
      </trkpt>
      <trkpt lat="45.23136" lon="6.05312">
        <ele>2349</ele>
        <time>2024-06-06T00:33:59+00:00</time>
      </trkpt>
      <trkpt lat="45.23137" lon="6.05314">
        <ele>2349</ele>
        <time>2024-06-06T00:34:02+00:00</time>
      </trkpt>
      <trkpt lat="45.23139" lon="6.05313">
        <ele>2349</ele>
        <time>2024-06-06T00:34:05+00:00</time>
      </trkpt>
      <trkpt lat="45.23141" lon="6.05318">
        <ele>2355</ele>
        <time>2024-06-06T00:34:08+00:00</time>
      </trkpt>
      <trkpt lat="45.23141" lon="6.05324">
        <ele>2356</ele>
        <time>2024-06-06T00:34:11+00:00</time>
      </trkpt>
      <trkpt lat="45.23142" lon="6.05328">
        <ele>2356</ele>
        <time>2024-06-06T00:34:14+00:00</time>
      </trkpt>
      <trkpt lat="45.2314" lon="6.05352">
        <ele>2363</ele>
        <time>2024-06-06T00:34:17+00:00</time>
      </trkpt>
      <trkpt lat="45.23141" lon="6.05355">
        <ele>2363</ele>
        <time>2024-06-06T00:34:20+00:00</time>
      </trkpt>
      <trkpt lat="45.2314" lon="6.0536">
        <ele>2363</ele>
        <time>2024-06-06T00:34:23+00:00</time>
      </trkpt>
      <trkpt lat="45.2314" lon="6.05375">
        <ele>2368</ele>
        <time>2024-06-06T00:34:26+00:00</time>
      </trkpt>
      <trkpt lat="45.2314" lon="6.05387">
        <ele>2371</ele>
        <time>2024-06-06T00:34:29+00:00</time>
      </trkpt>
      <trkpt lat="45.2314" lon="6.05394">
        <ele>2368</ele>
        <time>2024-06-06T00:34:32+00:00</time>
      </trkpt>
      <trkpt lat="45.23139" lon="6.05396">
        <ele>2368</ele>
        <time>2024-06-06T00:34:35+00:00</time>
      </trkpt>
      <trkpt lat="45.2314" lon="6.05398">
        <ele>2368</ele>
        <time>2024-06-06T00:34:38+00:00</time>
      </trkpt>
      <trkpt lat="45.23138" lon="6.05401">
        <ele>2370</ele>
        <time>2024-06-06T00:34:41+00:00</time>
      </trkpt>
      <trkpt lat="45.23139" lon="6.05401">
        <ele>2370</ele>
        <time>2024-06-06T00:34:44+00:00</time>
      </trkpt>
      <trkpt lat="45.23137" lon="6.05409">
        <ele>2370</ele>
        <time>2024-06-06T00:34:47+00:00</time>
      </trkpt>
      <trkpt lat="45.23138" lon="6.05415">
        <ele>2372</ele>
        <time>2024-06-06T00:34:50+00:00</time>
      </trkpt>
      <trkpt lat="45.23139" lon="6.05415">
        <ele>2372</ele>
        <time>2024-06-06T00:34:53+00:00</time>
      </trkpt>
      <trkpt lat="45.2314" lon="6.05414">
        <ele>2379</ele>
        <time>2024-06-06T00:34:56+00:00</time>
      </trkpt>
      <trkpt lat="45.2314" lon="6.05424">
        <ele>2375</ele>
        <time>2024-06-06T00:34:59+00:00</time>
      </trkpt>
      <trkpt lat="45.23139" lon="6.05427">
        <ele>2375</ele>
        <time>2024-06-06T00:35:02+00:00</time>
      </trkpt>
      <trkpt lat="45.23139" lon="6.0543">
        <ele>2377</ele>
        <time>2024-06-06T00:35:05+00:00</time>
      </trkpt>
      <trkpt lat="45.23136" lon="6.0544">
        <ele>2377</ele>
        <time>2024-06-06T00:35:08+00:00</time>
      </trkpt>
      <trkpt lat="45.23137" lon="6.05443">
        <ele>2379</ele>
        <time>2024-06-06T00:35:11+00:00</time>
      </trkpt>
      <trkpt lat="45.23135" lon="6.05445">
        <ele>2379</ele>
        <time>2024-06-06T00:35:14+00:00</time>
      </trkpt>
      <trkpt lat="45.23136" lon="6.05447">
        <ele>2379</ele>
        <time>2024-06-06T00:35:17+00:00</time>
      </trkpt>
      <trkpt lat="45.23135" lon="6.05449">
        <ele>2379</ele>
        <time>2024-06-06T00:35:20+00:00</time>
      </trkpt>
      <trkpt lat="45.23134" lon="6.0545">
        <ele>2379</ele>
        <time>2024-06-06T00:35:23+00:00</time>
      </trkpt>
      <trkpt lat="45.23133" lon="6.05449">
        <ele>2379</ele>
        <time>2024-06-06T00:35:26+00:00</time>
      </trkpt>
      <trkpt lat="45.23131" lon="6.05452">
        <ele>2383</ele>
        <time>2024-06-06T00:35:29+00:00</time>
      </trkpt>
      <trkpt lat="45.23131" lon="6.05454">
        <ele>2383</ele>
        <time>2024-06-06T00:35:32+00:00</time>
      </trkpt>
      <trkpt lat="45.2313" lon="6.05455">
        <ele>2383</ele>
        <time>2024-06-06T00:35:35+00:00</time>
      </trkpt>
      <trkpt lat="45.2313" lon="6.05457">
        <ele>2383</ele>
        <time>2024-06-06T00:35:38+00:00</time>
      </trkpt>
      <trkpt lat="45.23131" lon="6.05458">
        <ele>2383</ele>
        <time>2024-06-06T00:35:41+00:00</time>
      </trkpt>
      <trkpt lat="45.23131" lon="6.05459">
        <ele>2383</ele>
        <time>2024-06-06T00:35:44+00:00</time>
      </trkpt>
      <trkpt lat="45.23132" lon="6.05459">
        <ele>2383</ele>
        <time>2024-06-06T00:35:47+00:00</time>
      </trkpt>
      <trkpt lat="45.23133" lon="6.05463">
        <ele>2385</ele>
        <time>2024-06-06T00:35:50+00:00</time>
      </trkpt>
      <trkpt lat="45.23135" lon="6.05464">
        <ele>2385</ele>
        <time>2024-06-06T00:35:53+00:00</time>
      </trkpt>
      <trkpt lat="45.23136" lon="6.05465">
        <ele>2385</ele>
        <time>2024-06-06T00:35:56+00:00</time>
      </trkpt>
      <trkpt lat="45.23133" lon="6.05468">
        <ele>2385</ele>
        <time>2024-06-06T00:35:59+00:00</time>
      </trkpt>
      <trkpt lat="45.23133" lon="6.05469">
        <ele>2385</ele>
        <time>2024-06-06T00:36:02+00:00</time>
      </trkpt>
      <trkpt lat="45.23133" lon="6.0547">
        <ele>2386</ele>
        <time>2024-06-06T00:36:05+00:00</time>
      </trkpt>
      <trkpt lat="45.23138" lon="6.0547">
        <ele>2385</ele>
        <time>2024-06-06T00:36:08+00:00</time>
      </trkpt>
      <trkpt lat="45.23137" lon="6.05473">
        <ele>2386</ele>
        <time>2024-06-06T00:36:11+00:00</time>
      </trkpt>
      <trkpt lat="45.23138" lon="6.05476">
        <ele>2386</ele>
        <time>2024-06-06T00:36:14+00:00</time>
      </trkpt>
      <trkpt lat="45.23141" lon="6.05476">
        <ele>2392</ele>
        <time>2024-06-06T00:36:17+00:00</time>
      </trkpt>
      <trkpt lat="45.23145" lon="6.05474">
        <ele>2392</ele>
        <time>2024-06-06T00:36:20+00:00</time>
      </trkpt>
      <trkpt lat="45.23146" lon="6.05476">
        <ele>2392</ele>
        <time>2024-06-06T00:36:23+00:00</time>
      </trkpt>
      <trkpt lat="45.23146" lon="6.05476">
        <ele>2392</ele>
        <time>2024-06-06T00:36:26+00:00</time>
      </trkpt>
      <trkpt lat="45.23147" lon="6.05483">
        <ele>2396</ele>
        <time>2024-06-06T00:36:29+00:00</time>
      </trkpt>
      <trkpt lat="45.23147" lon="6.05483">
        <ele>2396</ele>
        <time>2024-06-06T00:36:32+00:00</time>
      </trkpt>
      <trkpt lat="45.23148" lon="6.05482">
        <ele>2396</ele>
        <time>2024-06-06T00:36:35+00:00</time>
      </trkpt>
      <trkpt lat="45.2315" lon="6.05482">
        <ele>2396</ele>
        <time>2024-06-06T00:36:38+00:00</time>
      </trkpt>
      <trkpt lat="45.2315" lon="6.05485">
        <ele>2400</ele>
        <time>2024-06-06T00:36:41+00:00</time>
      </trkpt>
      <trkpt lat="45.2315" lon="6.0549">
        <ele>2396</ele>
        <time>2024-06-06T00:36:44+00:00</time>
      </trkpt>
      <trkpt lat="45.23151" lon="6.05493">
        <ele>2402</ele>
        <time>2024-06-06T00:36:47+00:00</time>
      </trkpt>
      <trkpt lat="45.23151" lon="6.05494">
        <ele>2402</ele>
        <time>2024-06-06T00:36:50+00:00</time>
      </trkpt>
      <trkpt lat="45.23153" lon="6.055">
        <ele>2402</ele>
        <time>2024-06-06T00:36:53+00:00</time>
      </trkpt>
      <trkpt lat="45.23155" lon="6.05499">
        <ele>2402</ele>
        <time>2024-06-06T00:36:56+00:00</time>
      </trkpt>
      <trkpt lat="45.23157" lon="6.05501">
        <ele>2404</ele>
        <time>2024-06-06T00:36:59+00:00</time>
      </trkpt>
      <trkpt lat="45.23157" lon="6.05505">
        <ele>2404</ele>
        <time>2024-06-06T00:37:02+00:00</time>
      </trkpt>
      <trkpt lat="45.23158" lon="6.05507">
        <ele>2404</ele>
        <time>2024-06-06T00:37:05+00:00</time>
      </trkpt>
      <trkpt lat="45.23159" lon="6.05506">
        <ele>2404</ele>
        <time>2024-06-06T00:37:08+00:00</time>
      </trkpt>
      <trkpt lat="45.2316" lon="6.05508">
        <ele>2408</ele>
        <time>2024-06-06T00:37:11+00:00</time>
      </trkpt>
      <trkpt lat="45.2316" lon="6.05511">
        <ele>2407</ele>
        <time>2024-06-06T00:37:14+00:00</time>
      </trkpt>
      <trkpt lat="45.23159" lon="6.05513">
        <ele>2407</ele>
        <time>2024-06-06T00:37:17+00:00</time>
      </trkpt>
      <trkpt lat="45.23152" lon="6.05535">
        <ele>2412</ele>
        <time>2024-06-06T00:37:20+00:00</time>
      </trkpt>
      <trkpt lat="45.2315" lon="6.05538">
        <ele>2412</ele>
        <time>2024-06-06T00:37:23+00:00</time>
      </trkpt>
      <trkpt lat="45.2315" lon="6.05541">
        <ele>2417</ele>
        <time>2024-06-06T00:37:26+00:00</time>
      </trkpt>
      <trkpt lat="45.23149" lon="6.05544">
        <ele>2414</ele>
        <time>2024-06-06T00:37:29+00:00</time>
      </trkpt>
      <trkpt lat="45.23144" lon="6.0555">
        <ele>2417</ele>
        <time>2024-06-06T00:37:32+00:00</time>
      </trkpt>
      <trkpt lat="45.23144" lon="6.05553">
        <ele>2417</ele>
        <time>2024-06-06T00:37:35+00:00</time>
      </trkpt>
      <trkpt lat="45.23141" lon="6.05558">
        <ele>2417</ele>
        <time>2024-06-06T00:37:38+00:00</time>
      </trkpt>
      <trkpt lat="45.2314" lon="6.05562">
        <ele>2417</ele>
        <time>2024-06-06T00:37:41+00:00</time>
      </trkpt>
      <trkpt lat="45.23139" lon="6.05562">
        <ele>2417</ele>
        <time>2024-06-06T00:37:44+00:00</time>
      </trkpt>
      <trkpt lat="45.23138" lon="6.05563">
        <ele>2417</ele>
        <time>2024-06-06T00:37:47+00:00</time>
      </trkpt>
      <trkpt lat="45.23136" lon="6.05565">
        <ele>2417</ele>
        <time>2024-06-06T00:37:50+00:00</time>
      </trkpt>
      <trkpt lat="45.23135" lon="6.05567">
        <ele>2417</ele>
        <time>2024-06-06T00:37:53+00:00</time>
      </trkpt>
      <trkpt lat="45.23133" lon="6.05569">
        <ele>2417</ele>
        <time>2024-06-06T00:37:56+00:00</time>
      </trkpt>
      <trkpt lat="45.23131" lon="6.05576">
        <ele>2421</ele>
        <time>2024-06-06T00:37:59+00:00</time>
      </trkpt>
      <trkpt lat="45.2313" lon="6.05579">
        <ele>2421</ele>
        <time>2024-06-06T00:38:02+00:00</time>
      </trkpt>
      <trkpt lat="45.23131" lon="6.05579">
        <ele>2421</ele>
        <time>2024-06-06T00:38:05+00:00</time>
      </trkpt>
      <trkpt lat="45.2313" lon="6.05581">
        <ele>2423</ele>
        <time>2024-06-06T00:38:08+00:00</time>
      </trkpt>
      <trkpt lat="45.2313" lon="6.05581">
        <ele>2420</ele>
        <time>2024-06-06T00:38:11+00:00</time>
      </trkpt>
      <trkpt lat="45.23129" lon="6.05582">
        <ele>2420</ele>
        <time>2024-06-06T00:38:14+00:00</time>
      </trkpt>
      <trkpt lat="45.2313" lon="6.05586">
        <ele>2420</ele>
        <time>2024-06-06T00:38:17+00:00</time>
      </trkpt>
      <trkpt lat="45.23127" lon="6.05595">
        <ele>2422</ele>
        <time>2024-06-06T00:38:20+00:00</time>
      </trkpt>
      <trkpt lat="45.23126" lon="6.05598">
        <ele>2422</ele>
        <time>2024-06-06T00:38:23+00:00</time>
      </trkpt>
      <trkpt lat="45.23125" lon="6.056">
        <ele>2426</ele>
        <time>2024-06-06T00:38:26+00:00</time>
      </trkpt>
      <trkpt lat="45.23124" lon="6.05603">
        <ele>2426</ele>
        <time>2024-06-06T00:38:29+00:00</time>
      </trkpt>
      <trkpt lat="45.23122" lon="6.05609">
        <ele>2426</ele>
        <time>2024-06-06T00:38:32+00:00</time>
      </trkpt>
      <trkpt lat="45.23122" lon="6.05611">
        <ele>2428</ele>
        <time>2024-06-06T00:38:35+00:00</time>
      </trkpt>
      <trkpt lat="45.23123" lon="6.05618">
        <ele>2428</ele>
        <time>2024-06-06T00:38:38+00:00</time>
      </trkpt>
      <trkpt lat="45.23122" lon="6.05621">
        <ele>2430</ele>
        <time>2024-06-06T00:38:41+00:00</time>
      </trkpt>
      <trkpt lat="45.23123" lon="6.0563">
        <ele>2430</ele>
        <time>2024-06-06T00:38:44+00:00</time>
      </trkpt>
      <trkpt lat="45.23121" lon="6.05632">
        <ele>2433</ele>
        <time>2024-06-06T00:38:47+00:00</time>
      </trkpt>
      <trkpt lat="45.23119" lon="6.05633">
        <ele>2429</ele>
        <time>2024-06-06T00:38:50+00:00</time>
      </trkpt>
      <trkpt lat="45.23117" lon="6.05641">
        <ele>2431</ele>
        <time>2024-06-06T00:38:53+00:00</time>
      </trkpt>
      <trkpt lat="45.23116" lon="6.05647">
        <ele>2431</ele>
        <time>2024-06-06T00:38:56+00:00</time>
      </trkpt>
      <trkpt lat="45.23118" lon="6.05656">
        <ele>2433</ele>
        <time>2024-06-06T00:38:59+00:00</time>
      </trkpt>
      <trkpt lat="45.2312" lon="6.05659">
        <ele>2433</ele>
        <time>2024-06-06T00:39:02+00:00</time>
      </trkpt>
      <trkpt lat="45.23117" lon="6.05671">
        <ele>2438</ele>
        <time>2024-06-06T00:39:05+00:00</time>
      </trkpt>
      <trkpt lat="45.23116" lon="6.05672">
        <ele>2438</ele>
        <time>2024-06-06T00:39:08+00:00</time>
      </trkpt>
      <trkpt lat="45.23115" lon="6.05677">
        <ele>2438</ele>
        <time>2024-06-06T00:39:11+00:00</time>
      </trkpt>
      <trkpt lat="45.23115" lon="6.05678">
        <ele>2438</ele>
        <time>2024-06-06T00:39:14+00:00</time>
      </trkpt>
      <trkpt lat="45.23115" lon="6.05685">
        <ele>2441</ele>
        <time>2024-06-06T00:39:17+00:00</time>
      </trkpt>
      <trkpt lat="45.23116" lon="6.05685">
        <ele>2441</ele>
        <time>2024-06-06T00:39:20+00:00</time>
      </trkpt>
      <trkpt lat="45.23119" lon="6.05685">
        <ele>2441</ele>
        <time>2024-06-06T00:39:23+00:00</time>
      </trkpt>
      <trkpt lat="45.2312" lon="6.05689">
        <ele>2445</ele>
        <time>2024-06-06T00:39:26+00:00</time>
      </trkpt>
      <trkpt lat="45.23123" lon="6.05688">
        <ele>2445</ele>
        <time>2024-06-06T00:39:29+00:00</time>
      </trkpt>
      <trkpt lat="45.23124" lon="6.0569">
        <ele>2448</ele>
        <time>2024-06-06T00:39:32+00:00</time>
      </trkpt>
      <trkpt lat="45.23123" lon="6.05696">
        <ele>2448</ele>
        <time>2024-06-06T00:39:35+00:00</time>
      </trkpt>
      <trkpt lat="45.23121" lon="6.05698">
        <ele>2448</ele>
        <time>2024-06-06T00:39:38+00:00</time>
      </trkpt>
      <trkpt lat="45.23118" lon="6.057">
        <ele>2443</ele>
        <time>2024-06-06T00:39:41+00:00</time>
      </trkpt>
      <trkpt lat="45.23115" lon="6.05704">
        <ele>2447</ele>
        <time>2024-06-06T00:39:44+00:00</time>
      </trkpt>
      <trkpt lat="45.23115" lon="6.05707">
        <ele>2447</ele>
        <time>2024-06-06T00:39:47+00:00</time>
      </trkpt>
      <trkpt lat="45.23116" lon="6.05708">
        <ele>2447</ele>
        <time>2024-06-06T00:39:50+00:00</time>
      </trkpt>
      <trkpt lat="45.23117" lon="6.05719">
        <ele>2449</ele>
        <time>2024-06-06T00:39:53+00:00</time>
      </trkpt>
      <trkpt lat="45.23117" lon="6.05723">
        <ele>2452</ele>
        <time>2024-06-06T00:39:56+00:00</time>
      </trkpt>
      <trkpt lat="45.23116" lon="6.05727">
        <ele>2452</ele>
        <time>2024-06-06T00:39:59+00:00</time>
      </trkpt>
      <trkpt lat="45.23116" lon="6.05728">
        <ele>2452</ele>
        <time>2024-06-06T00:40:02+00:00</time>
      </trkpt>
      <trkpt lat="45.23114" lon="6.0573">
        <ele>2455</ele>
        <time>2024-06-06T00:40:05+00:00</time>
      </trkpt>
      <trkpt lat="45.23115" lon="6.05733">
        <ele>2455</ele>
        <time>2024-06-06T00:40:08+00:00</time>
      </trkpt>
      <trkpt lat="45.23114" lon="6.05735">
        <ele>2455</ele>
        <time>2024-06-06T00:40:11+00:00</time>
      </trkpt>
      <trkpt lat="45.23111" lon="6.05737">
        <ele>2455</ele>
        <time>2024-06-06T00:40:14+00:00</time>
      </trkpt>
      <trkpt lat="45.23111" lon="6.0574">
        <ele>2455</ele>
        <time>2024-06-06T00:40:17+00:00</time>
      </trkpt>
      <trkpt lat="45.23109" lon="6.05742">
        <ele>2451</ele>
        <time>2024-06-06T00:40:20+00:00</time>
      </trkpt>
      <trkpt lat="45.23108" lon="6.05746">
        <ele>2451</ele>
        <time>2024-06-06T00:40:23+00:00</time>
      </trkpt>
      <trkpt lat="45.23107" lon="6.05749">
        <ele>2451</ele>
        <time>2024-06-06T00:40:26+00:00</time>
      </trkpt>
      <trkpt lat="45.23105" lon="6.05753">
        <ele>2454</ele>
        <time>2024-06-06T00:40:29+00:00</time>
      </trkpt>
      <trkpt lat="45.23106" lon="6.05755">
        <ele>2454</ele>
        <time>2024-06-06T00:40:32+00:00</time>
      </trkpt>
      <trkpt lat="45.23106" lon="6.05759">
        <ele>2454</ele>
        <time>2024-06-06T00:40:35+00:00</time>
      </trkpt>
      <trkpt lat="45.23106" lon="6.05759">
        <ele>2454</ele>
        <time>2024-06-06T00:40:38+00:00</time>
      </trkpt>
      <trkpt lat="45.23106" lon="6.05761">
        <ele>2459</ele>
        <time>2024-06-06T00:40:41+00:00</time>
      </trkpt>
      <trkpt lat="45.23104" lon="6.05767">
        <ele>2459</ele>
        <time>2024-06-06T00:40:44+00:00</time>
      </trkpt>
      <trkpt lat="45.23101" lon="6.05767">
        <ele>2459</ele>
        <time>2024-06-06T00:40:47+00:00</time>
      </trkpt>
      <trkpt lat="45.23098" lon="6.0577">
        <ele>2458</ele>
        <time>2024-06-06T00:40:50+00:00</time>
      </trkpt>
      <trkpt lat="45.23087" lon="6.05772">
        <ele>2462</ele>
        <time>2024-06-06T00:40:53+00:00</time>
      </trkpt>
      <trkpt lat="45.23085" lon="6.05771">
        <ele>2462</ele>
        <time>2024-06-06T00:40:56+00:00</time>
      </trkpt>
      <trkpt lat="45.23084" lon="6.0577">
        <ele>2462</ele>
        <time>2024-06-06T00:40:59+00:00</time>
      </trkpt>
      <trkpt lat="45.23078" lon="6.05774">
        <ele>2466</ele>
        <time>2024-06-06T00:41:02+00:00</time>
      </trkpt>
      <trkpt lat="45.23076" lon="6.05776">
        <ele>2466</ele>
        <time>2024-06-06T00:41:05+00:00</time>
      </trkpt>
      <trkpt lat="45.23076" lon="6.05778">
        <ele>2466</ele>
        <time>2024-06-06T00:41:08+00:00</time>
      </trkpt>
      <trkpt lat="45.23077" lon="6.05781">
        <ele>2468</ele>
        <time>2024-06-06T00:41:11+00:00</time>
      </trkpt>
      <trkpt lat="45.23077" lon="6.05783">
        <ele>2468</ele>
        <time>2024-06-06T00:41:14+00:00</time>
      </trkpt>
      <trkpt lat="45.23078" lon="6.05793">
        <ele>2472</ele>
        <time>2024-06-06T00:41:17+00:00</time>
      </trkpt>
      <trkpt lat="45.23071" lon="6.05804">
        <ele>2474</ele>
        <time>2024-06-06T00:41:20+00:00</time>
      </trkpt>
      <trkpt lat="45.23067" lon="6.05808">
        <ele>2477</ele>
        <time>2024-06-06T00:41:23+00:00</time>
      </trkpt>
      <trkpt lat="45.23062" lon="6.05806">
        <ele>2477</ele>
        <time>2024-06-06T00:41:26+00:00</time>
      </trkpt>
      <trkpt lat="45.23063" lon="6.05815">
        <ele>2481</ele>
        <time>2024-06-06T00:41:29+00:00</time>
      </trkpt>
      <trkpt lat="45.23066" lon="6.05822">
        <ele>2484</ele>
        <time>2024-06-06T00:41:32+00:00</time>
      </trkpt>
      <trkpt lat="45.2307" lon="6.05831">
        <ele>2485</ele>
        <time>2024-06-06T00:41:35+00:00</time>
      </trkpt>
      <trkpt lat="45.2307" lon="6.05836">
        <ele>2482</ele>
        <time>2024-06-06T00:41:38+00:00</time>
      </trkpt>
      <trkpt lat="45.23068" lon="6.05841">
        <ele>2487</ele>
        <time>2024-06-06T00:41:41+00:00</time>
      </trkpt>
      <trkpt lat="45.2307" lon="6.05847">
        <ele>2487</ele>
        <time>2024-06-06T00:41:44+00:00</time>
      </trkpt>
      <trkpt lat="45.23076" lon="6.05861">
        <ele>2491</ele>
        <time>2024-06-06T00:41:47+00:00</time>
      </trkpt>
      <trkpt lat="45.23074" lon="6.05866">
        <ele>2491</ele>
        <time>2024-06-06T00:41:50+00:00</time>
      </trkpt>
      <trkpt lat="45.23074" lon="6.05869">
        <ele>2491</ele>
        <time>2024-06-06T00:41:53+00:00</time>
      </trkpt>
      <trkpt lat="45.23072" lon="6.05873">
        <ele>2494</ele>
        <time>2024-06-06T00:41:56+00:00</time>
      </trkpt>
      <trkpt lat="45.23072" lon="6.05875">
        <ele>2494</ele>
        <time>2024-06-06T00:41:59+00:00</time>
      </trkpt>
      <trkpt lat="45.23069" lon="6.05876">
        <ele>2494</ele>
        <time>2024-06-06T00:42:02+00:00</time>
      </trkpt>
      <trkpt lat="45.23067" lon="6.05875">
        <ele>2494</ele>
        <time>2024-06-06T00:42:05+00:00</time>
      </trkpt>
      <trkpt lat="45.23064" lon="6.05878">
        <ele>2494</ele>
        <time>2024-06-06T00:42:08+00:00</time>
      </trkpt>
      <trkpt lat="45.23066" lon="6.05882">
        <ele>2500</ele>
        <time>2024-06-06T00:42:11+00:00</time>
      </trkpt>
      <trkpt lat="45.23064" lon="6.05883">
        <ele>2500</ele>
        <time>2024-06-06T00:42:14+00:00</time>
      </trkpt>
      <trkpt lat="45.23061" lon="6.05883">
        <ele>2500</ele>
        <time>2024-06-06T00:42:17+00:00</time>
      </trkpt>
      <trkpt lat="45.23062" lon="6.05888">
        <ele>2500</ele>
        <time>2024-06-06T00:42:20+00:00</time>
      </trkpt>
      <trkpt lat="45.23061" lon="6.0589">
        <ele>2500</ele>
        <time>2024-06-06T00:42:23+00:00</time>
      </trkpt>
      <trkpt lat="45.2306" lon="6.0589">
        <ele>2504</ele>
        <time>2024-06-06T00:42:26+00:00</time>
      </trkpt>
      <trkpt lat="45.2306" lon="6.05891">
        <ele>2505</ele>
        <time>2024-06-06T00:42:29+00:00</time>
      </trkpt>
      <trkpt lat="45.23061" lon="6.05894">
        <ele>2503</ele>
        <time>2024-06-06T00:42:32+00:00</time>
      </trkpt>
      <trkpt lat="45.2306" lon="6.05896">
        <ele>2503</ele>
        <time>2024-06-06T00:42:35+00:00</time>
      </trkpt>
      <trkpt lat="45.23059" lon="6.05896">
        <ele>2505</ele>
        <time>2024-06-06T00:42:38+00:00</time>
      </trkpt>
      <trkpt lat="45.2306" lon="6.05897">
        <ele>2503</ele>
        <time>2024-06-06T00:42:41+00:00</time>
      </trkpt>
      <trkpt lat="45.2306" lon="6.05899">
        <ele>2505</ele>
        <time>2024-06-06T00:42:44+00:00</time>
      </trkpt>
      <trkpt lat="45.23057" lon="6.05899">
        <ele>2505</ele>
        <time>2024-06-06T00:42:47+00:00</time>
      </trkpt>
      <trkpt lat="45.23055" lon="6.05902">
        <ele>2507</ele>
        <time>2024-06-06T00:42:50+00:00</time>
      </trkpt>
      <trkpt lat="45.23055" lon="6.05904">
        <ele>2507</ele>
        <time>2024-06-06T00:42:53+00:00</time>
      </trkpt>
      <trkpt lat="45.23056" lon="6.05907">
        <ele>2507</ele>
        <time>2024-06-06T00:42:56+00:00</time>
      </trkpt>
      <trkpt lat="45.23054" lon="6.05908">
        <ele>2507</ele>
        <time>2024-06-06T00:42:59+00:00</time>
      </trkpt>
      <trkpt lat="45.23051" lon="6.05906">
        <ele>2507</ele>
        <time>2024-06-06T00:43:02+00:00</time>
      </trkpt>
      <trkpt lat="45.23051" lon="6.05907">
        <ele>2507</ele>
        <time>2024-06-06T00:43:05+00:00</time>
      </trkpt>
      <trkpt lat="45.23051" lon="6.05909">
        <ele>2507</ele>
        <time>2024-06-06T00:43:08+00:00</time>
      </trkpt>
      <trkpt lat="45.23051" lon="6.0591">
        <ele>2512</ele>
        <time>2024-06-06T00:43:11+00:00</time>
      </trkpt>
      <trkpt lat="45.23049" lon="6.05911">
        <ele>2517</ele>
        <time>2024-06-06T00:43:14+00:00</time>
      </trkpt>
      <trkpt lat="45.2305" lon="6.05913">
        <ele>2512</ele>
        <time>2024-06-06T00:43:17+00:00</time>
      </trkpt>
      <trkpt lat="45.23049" lon="6.05915">
        <ele>2517</ele>
        <time>2024-06-06T00:43:20+00:00</time>
      </trkpt>
      <trkpt lat="45.23047" lon="6.05913">
        <ele>2517</ele>
        <time>2024-06-06T00:43:23+00:00</time>
      </trkpt>
      <trkpt lat="45.23047" lon="6.05916">
        <ele>2517</ele>
        <time>2024-06-06T00:43:26+00:00</time>
      </trkpt>
      <trkpt lat="45.23047" lon="6.05916">
        <ele>2517</ele>
        <time>2024-06-06T00:43:29+00:00</time>
      </trkpt>
      <trkpt lat="45.23045" lon="6.05916">
        <ele>2517</ele>
        <time>2024-06-06T00:43:32+00:00</time>
      </trkpt>
      <trkpt lat="45.23045" lon="6.05918">
        <ele>2517</ele>
        <time>2024-06-06T00:43:35+00:00</time>
      </trkpt>
      <trkpt lat="45.23044" lon="6.05919">
        <ele>2517</ele>
        <time>2024-06-06T00:43:38+00:00</time>
      </trkpt>
      <trkpt lat="45.23039" lon="6.05917">
        <ele>2524</ele>
        <time>2024-06-06T00:43:41+00:00</time>
      </trkpt>
      <trkpt lat="45.23038" lon="6.05922">
        <ele>2525</ele>
        <time>2024-06-06T00:43:44+00:00</time>
      </trkpt>
      <trkpt lat="45.23039" lon="6.05928">
        <ele>2525</ele>
        <time>2024-06-06T00:43:47+00:00</time>
      </trkpt>
      <trkpt lat="45.23038" lon="6.05929">
        <ele>2525</ele>
        <time>2024-06-06T00:43:50+00:00</time>
      </trkpt>
      <trkpt lat="45.23039" lon="6.0593">
        <ele>2527</ele>
        <time>2024-06-06T00:43:53+00:00</time>
      </trkpt>
      <trkpt lat="45.23039" lon="6.05934">
        <ele>2527</ele>
        <time>2024-06-06T00:43:56+00:00</time>
      </trkpt>
      <trkpt lat="45.23041" lon="6.05937">
        <ele>2521</ele>
        <time>2024-06-06T00:43:59+00:00</time>
      </trkpt>
      <trkpt lat="45.2304" lon="6.05938">
        <ele>2521</ele>
        <time>2024-06-06T00:44:02+00:00</time>
      </trkpt>
      <trkpt lat="45.23035" lon="6.0594">
        <ele>2527</ele>
        <time>2024-06-06T00:44:05+00:00</time>
      </trkpt>
      <trkpt lat="45.23036" lon="6.05943">
        <ele>2530</ele>
        <time>2024-06-06T00:44:08+00:00</time>
      </trkpt>
      <trkpt lat="45.23037" lon="6.05943">
        <ele>2530</ele>
        <time>2024-06-06T00:44:11+00:00</time>
      </trkpt>
      <trkpt lat="45.23039" lon="6.05947">
        <ele>2530</ele>
        <time>2024-06-06T00:44:14+00:00</time>
      </trkpt>
      <trkpt lat="45.23036" lon="6.05947">
        <ele>2530</ele>
        <time>2024-06-06T00:44:17+00:00</time>
      </trkpt>
      <trkpt lat="45.23035" lon="6.05948">
        <ele>2530</ele>
        <time>2024-06-06T00:44:20+00:00</time>
      </trkpt>
      <trkpt lat="45.23035" lon="6.05951">
        <ele>2533</ele>
        <time>2024-06-06T00:44:23+00:00</time>
      </trkpt>
      <trkpt lat="45.23039" lon="6.05954">
        <ele>2533</ele>
        <time>2024-06-06T00:44:26+00:00</time>
      </trkpt>
      <trkpt lat="45.23039" lon="6.05956">
        <ele>2533</ele>
        <time>2024-06-06T00:44:29+00:00</time>
      </trkpt>
      <trkpt lat="45.23039" lon="6.05957">
        <ele>2533</ele>
        <time>2024-06-06T00:44:32+00:00</time>
      </trkpt>
      <trkpt lat="45.23038" lon="6.05959">
        <ele>2533</ele>
        <time>2024-06-06T00:44:35+00:00</time>
      </trkpt>
      <trkpt lat="45.23036" lon="6.05959">
        <ele>2533</ele>
        <time>2024-06-06T00:44:38+00:00</time>
      </trkpt>
      <trkpt lat="45.23034" lon="6.05959">
        <ele>2533</ele>
        <time>2024-06-06T00:44:41+00:00</time>
      </trkpt>
      <trkpt lat="45.23033" lon="6.0596">
        <ele>2533</ele>
        <time>2024-06-06T00:44:44+00:00</time>
      </trkpt>
      <trkpt lat="45.23035" lon="6.05964">
        <ele>2538</ele>
        <time>2024-06-06T00:44:47+00:00</time>
      </trkpt>
      <trkpt lat="45.23035" lon="6.05965">
        <ele>2538</ele>
        <time>2024-06-06T00:44:50+00:00</time>
      </trkpt>
      <trkpt lat="45.23033" lon="6.05964">
        <ele>2538</ele>
        <time>2024-06-06T00:44:53+00:00</time>
      </trkpt>
      <trkpt lat="45.23032" lon="6.05965">
        <ele>2538</ele>
        <time>2024-06-06T00:44:56+00:00</time>
      </trkpt>
      <trkpt lat="45.23033" lon="6.05967">
        <ele>2538</ele>
        <time>2024-06-06T00:44:59+00:00</time>
      </trkpt>
      <trkpt lat="45.23032" lon="6.05968">
        <ele>2538</ele>
        <time>2024-06-06T00:45:02+00:00</time>
      </trkpt>
      <trkpt lat="45.23031" lon="6.05968">
        <ele>2538</ele>
        <time>2024-06-06T00:45:05+00:00</time>
      </trkpt>
      <trkpt lat="45.2303" lon="6.05969">
        <ele>2538</ele>
        <time>2024-06-06T00:45:08+00:00</time>
      </trkpt>
      <trkpt lat="45.23031" lon="6.05971">
        <ele>2542</ele>
        <time>2024-06-06T00:45:11+00:00</time>
      </trkpt>
      <trkpt lat="45.23031" lon="6.05974">
        <ele>2542</ele>
        <time>2024-06-06T00:45:14+00:00</time>
      </trkpt>
      <trkpt lat="45.23032" lon="6.05976">
        <ele>2542</ele>
        <time>2024-06-06T00:45:17+00:00</time>
      </trkpt>
      <trkpt lat="45.23032" lon="6.05977">
        <ele>2542</ele>
        <time>2024-06-06T00:45:20+00:00</time>
      </trkpt>
      <trkpt lat="45.23031" lon="6.05979">
        <ele>2542</ele>
        <time>2024-06-06T00:45:23+00:00</time>
      </trkpt>
      <trkpt lat="45.23026" lon="6.05978">
        <ele>2546</ele>
        <time>2024-06-06T00:45:26+00:00</time>
      </trkpt>
      <trkpt lat="45.23026" lon="6.05979">
        <ele>2546</ele>
        <time>2024-06-06T00:45:29+00:00</time>
      </trkpt>
      <trkpt lat="45.23028" lon="6.05984">
        <ele>2549</ele>
        <time>2024-06-06T00:45:32+00:00</time>
      </trkpt>
      <trkpt lat="45.23026" lon="6.05986">
        <ele>2549</ele>
        <time>2024-06-06T00:45:35+00:00</time>
      </trkpt>
      <trkpt lat="45.23026" lon="6.05987">
        <ele>2549</ele>
        <time>2024-06-06T00:45:38+00:00</time>
      </trkpt>
      <trkpt lat="45.23029" lon="6.05995">
        <ele>2546</ele>
        <time>2024-06-06T00:45:41+00:00</time>
      </trkpt>
      <trkpt lat="45.2303" lon="6.06004">
        <ele>2554</ele>
        <time>2024-06-06T00:45:44+00:00</time>
      </trkpt>
      <trkpt lat="45.23034" lon="6.06012">
        <ele>2551</ele>
        <time>2024-06-06T00:45:47+00:00</time>
      </trkpt>
      <trkpt lat="45.23033" lon="6.06015">
        <ele>2551</ele>
        <time>2024-06-06T00:45:50+00:00</time>
      </trkpt>
      <trkpt lat="45.23032" lon="6.06017">
        <ele>2551</ele>
        <time>2024-06-06T00:45:53+00:00</time>
      </trkpt>
      <trkpt lat="45.23033" lon="6.0602">
        <ele>2544</ele>
        <time>2024-06-06T00:45:56+00:00</time>
      </trkpt>
      <trkpt lat="45.23032" lon="6.06022">
        <ele>2548</ele>
        <time>2024-06-06T00:45:59+00:00</time>
      </trkpt>
      <trkpt lat="45.2303" lon="6.06025">
        <ele>2548</ele>
        <time>2024-06-06T00:46:02+00:00</time>
      </trkpt>
      <trkpt lat="45.23031" lon="6.06027">
        <ele>2548</ele>
        <time>2024-06-06T00:46:05+00:00</time>
      </trkpt>
      <trkpt lat="45.23034" lon="6.06028">
        <ele>2548</ele>
        <time>2024-06-06T00:46:08+00:00</time>
      </trkpt>
      <trkpt lat="45.23034" lon="6.06031">
        <ele>2543</ele>
        <time>2024-06-06T00:46:11+00:00</time>
      </trkpt>
      <trkpt lat="45.23031" lon="6.06036">
        <ele>2543</ele>
        <time>2024-06-06T00:46:14+00:00</time>
      </trkpt>
      <trkpt lat="45.23032" lon="6.06037">
        <ele>2543</ele>
        <time>2024-06-06T00:46:17+00:00</time>
      </trkpt>
      <trkpt lat="45.23036" lon="6.06038">
        <ele>2543</ele>
        <time>2024-06-06T00:46:20+00:00</time>
      </trkpt>
      <trkpt lat="45.23036" lon="6.0604">
        <ele>2540</ele>
        <time>2024-06-06T00:46:23+00:00</time>
      </trkpt>
      <trkpt lat="45.23034" lon="6.06046">
        <ele>2540</ele>
        <time>2024-06-06T00:46:26+00:00</time>
      </trkpt>
      <trkpt lat="45.23035" lon="6.06047">
        <ele>2540</ele>
        <time>2024-06-06T00:46:29+00:00</time>
      </trkpt>
      <trkpt lat="45.23036" lon="6.06046">
        <ele>2540</ele>
        <time>2024-06-06T00:46:32+00:00</time>
      </trkpt>
      <trkpt lat="45.2304" lon="6.06047">
        <ele>2540</ele>
        <time>2024-06-06T00:46:35+00:00</time>
      </trkpt>
      <trkpt lat="45.23042" lon="6.06048">
        <ele>2540</ele>
        <time>2024-06-06T00:46:38+00:00</time>
      </trkpt>
      <trkpt lat="45.23041" lon="6.06049">
        <ele>2540</ele>
        <time>2024-06-06T00:46:41+00:00</time>
      </trkpt>
      <trkpt lat="45.2304" lon="6.06049">
        <ele>2540</ele>
        <time>2024-06-06T00:46:44+00:00</time>
      </trkpt>
      <trkpt lat="45.23038" lon="6.06051">
        <ele>2535</ele>
        <time>2024-06-06T00:46:47+00:00</time>
      </trkpt>
      <trkpt lat="45.23042" lon="6.06053">
        <ele>2535</ele>
        <time>2024-06-06T00:46:50+00:00</time>
      </trkpt>
      <trkpt lat="45.23044" lon="6.06056">
        <ele>2535</ele>
        <time>2024-06-06T00:46:53+00:00</time>
      </trkpt>
      <trkpt lat="45.23044" lon="6.06059">
        <ele>2535</ele>
        <time>2024-06-06T00:46:56+00:00</time>
      </trkpt>
      <trkpt lat="45.23043" lon="6.06062">
        <ele>2528</ele>
        <time>2024-06-06T00:46:59+00:00</time>
      </trkpt>
      <trkpt lat="45.23042" lon="6.06062">
        <ele>2528</ele>
        <time>2024-06-06T00:47:02+00:00</time>
      </trkpt>
      <trkpt lat="45.23042" lon="6.06065">
        <ele>2528</ele>
        <time>2024-06-06T00:47:05+00:00</time>
      </trkpt>
      <trkpt lat="45.23042" lon="6.06066">
        <ele>2528</ele>
        <time>2024-06-06T00:47:08+00:00</time>
      </trkpt>
      <trkpt lat="45.23045" lon="6.06067">
        <ele>2528</ele>
        <time>2024-06-06T00:47:11+00:00</time>
      </trkpt>
      <trkpt lat="45.23047" lon="6.06073">
        <ele>2523</ele>
        <time>2024-06-06T00:47:14+00:00</time>
      </trkpt>
      <trkpt lat="45.23047" lon="6.06074">
        <ele>2523</ele>
        <time>2024-06-06T00:47:17+00:00</time>
      </trkpt>
      <trkpt lat="45.23053" lon="6.06085">
        <ele>2522</ele>
        <time>2024-06-06T00:47:20+00:00</time>
      </trkpt>
      <trkpt lat="45.23053" lon="6.06087">
        <ele>2522</ele>
        <time>2024-06-06T00:47:23+00:00</time>
      </trkpt>
      <trkpt lat="45.23052" lon="6.06088">
        <ele>2522</ele>
        <time>2024-06-06T00:47:26+00:00</time>
      </trkpt>
      <trkpt lat="45.23053" lon="6.0609">
        <ele>2515</ele>
        <time>2024-06-06T00:47:29+00:00</time>
      </trkpt>
      <trkpt lat="45.23053" lon="6.06093">
        <ele>2515</ele>
        <time>2024-06-06T00:47:32+00:00</time>
      </trkpt>
      <trkpt lat="45.23055" lon="6.06095">
        <ele>2515</ele>
        <time>2024-06-06T00:47:35+00:00</time>
      </trkpt>
      <trkpt lat="45.23055" lon="6.06097">
        <ele>2515</ele>
        <time>2024-06-06T00:47:38+00:00</time>
      </trkpt>
      <trkpt lat="45.23058" lon="6.061">
        <ele>2510</ele>
        <time>2024-06-06T00:47:41+00:00</time>
      </trkpt>
      <trkpt lat="45.23058" lon="6.06102">
        <ele>2510</ele>
        <time>2024-06-06T00:47:44+00:00</time>
      </trkpt>
      <trkpt lat="45.23056" lon="6.06103">
        <ele>2510</ele>
        <time>2024-06-06T00:47:47+00:00</time>
      </trkpt>
      <trkpt lat="45.23058" lon="6.06105">
        <ele>2510</ele>
        <time>2024-06-06T00:47:50+00:00</time>
      </trkpt>
      <trkpt lat="45.23057" lon="6.06106">
        <ele>2510</ele>
        <time>2024-06-06T00:47:53+00:00</time>
      </trkpt>
      <trkpt lat="45.23056" lon="6.06107">
        <ele>2510</ele>
        <time>2024-06-06T00:47:56+00:00</time>
      </trkpt>
      <trkpt lat="45.23059" lon="6.06114">
        <ele>2507</ele>
        <time>2024-06-06T00:47:59+00:00</time>
      </trkpt>
      <trkpt lat="45.23058" lon="6.06115">
        <ele>2507</ele>
        <time>2024-06-06T00:48:02+00:00</time>
      </trkpt>
      <trkpt lat="45.23062" lon="6.0612">
        <ele>2510</ele>
        <time>2024-06-06T00:48:05+00:00</time>
      </trkpt>
      <trkpt lat="45.23064" lon="6.06126">
        <ele>2504</ele>
        <time>2024-06-06T00:48:08+00:00</time>
      </trkpt>
      <trkpt lat="45.23063" lon="6.06127">
        <ele>2504</ele>
        <time>2024-06-06T00:48:11+00:00</time>
      </trkpt>
      <trkpt lat="45.23063" lon="6.06129">
        <ele>2504</ele>
        <time>2024-06-06T00:48:14+00:00</time>
      </trkpt>
      <trkpt lat="45.23064" lon="6.06131">
        <ele>2500</ele>
        <time>2024-06-06T00:48:17+00:00</time>
      </trkpt>
      <trkpt lat="45.23064" lon="6.06138">
        <ele>2500</ele>
        <time>2024-06-06T00:48:20+00:00</time>
      </trkpt>
      <trkpt lat="45.23063" lon="6.06139">
        <ele>2500</ele>
        <time>2024-06-06T00:48:23+00:00</time>
      </trkpt>
      <trkpt lat="45.23065" lon="6.06141">
        <ele>2495</ele>
        <time>2024-06-06T00:48:26+00:00</time>
      </trkpt>
      <trkpt lat="45.23065" lon="6.06144">
        <ele>2495</ele>
        <time>2024-06-06T00:48:29+00:00</time>
      </trkpt>
      <trkpt lat="45.23067" lon="6.06149">
        <ele>2495</ele>
        <time>2024-06-06T00:48:32+00:00</time>
      </trkpt>
      <trkpt lat="45.23067" lon="6.06153">
        <ele>2490</ele>
        <time>2024-06-06T00:48:35+00:00</time>
      </trkpt>
      <trkpt lat="45.23068" lon="6.06156">
        <ele>2490</ele>
        <time>2024-06-06T00:48:38+00:00</time>
      </trkpt>
      <trkpt lat="45.2307" lon="6.06165">
        <ele>2487</ele>
        <time>2024-06-06T00:48:41+00:00</time>
      </trkpt>
      <trkpt lat="45.23071" lon="6.06166">
        <ele>2491</ele>
        <time>2024-06-06T00:48:44+00:00</time>
      </trkpt>
      <trkpt lat="45.23069" lon="6.06169">
        <ele>2487</ele>
        <time>2024-06-06T00:48:47+00:00</time>
      </trkpt>
      <trkpt lat="45.2307" lon="6.06171">
        <ele>2488</ele>
        <time>2024-06-06T00:48:50+00:00</time>
      </trkpt>
      <trkpt lat="45.23074" lon="6.06176">
        <ele>2488</ele>
        <time>2024-06-06T00:48:53+00:00</time>
      </trkpt>
      <trkpt lat="45.23078" lon="6.06179">
        <ele>2488</ele>
        <time>2024-06-06T00:48:56+00:00</time>
      </trkpt>
      <trkpt lat="45.23088" lon="6.0619">
        <ele>2481</ele>
        <time>2024-06-06T00:48:59+00:00</time>
      </trkpt>
      <trkpt lat="45.23092" lon="6.06193">
        <ele>2485</ele>
        <time>2024-06-06T00:49:02+00:00</time>
      </trkpt>
      <trkpt lat="45.23092" lon="6.06194">
        <ele>2485</ele>
        <time>2024-06-06T00:49:05+00:00</time>
      </trkpt>
      <trkpt lat="45.23092" lon="6.06196">
        <ele>2485</ele>
        <time>2024-06-06T00:49:08+00:00</time>
      </trkpt>
      <trkpt lat="45.23096" lon="6.06204">
        <ele>2480</ele>
        <time>2024-06-06T00:49:11+00:00</time>
      </trkpt>
      <trkpt lat="45.23096" lon="6.06208">
        <ele>2480</ele>
        <time>2024-06-06T00:49:14+00:00</time>
      </trkpt>
      <trkpt lat="45.23095" lon="6.0621">
        <ele>2480</ele>
        <time>2024-06-06T00:49:17+00:00</time>
      </trkpt>
      <trkpt lat="45.23098" lon="6.06215">
        <ele>2472</ele>
        <time>2024-06-06T00:49:20+00:00</time>
      </trkpt>
      <trkpt lat="45.23099" lon="6.06218">
        <ele>2472</ele>
        <time>2024-06-06T00:49:23+00:00</time>
      </trkpt>
      <trkpt lat="45.23099" lon="6.06219">
        <ele>2472</ele>
        <time>2024-06-06T00:49:26+00:00</time>
      </trkpt>
      <trkpt lat="45.23102" lon="6.06222">
        <ele>2471</ele>
        <time>2024-06-06T00:49:29+00:00</time>
      </trkpt>
      <trkpt lat="45.231" lon="6.06224">
        <ele>2468</ele>
        <time>2024-06-06T00:49:32+00:00</time>
      </trkpt>
      <trkpt lat="45.23098" lon="6.06225">
        <ele>2468</ele>
        <time>2024-06-06T00:49:35+00:00</time>
      </trkpt>
      <trkpt lat="45.23096" lon="6.06227">
        <ele>2468</ele>
        <time>2024-06-06T00:49:38+00:00</time>
      </trkpt>
      <trkpt lat="45.23094" lon="6.06229">
        <ele>2468</ele>
        <time>2024-06-06T00:49:41+00:00</time>
      </trkpt>
      <trkpt lat="45.23094" lon="6.0623">
        <ele>2468</ele>
        <time>2024-06-06T00:49:44+00:00</time>
      </trkpt>
      <trkpt lat="45.23099" lon="6.06239">
        <ele>2464</ele>
        <time>2024-06-06T00:49:47+00:00</time>
      </trkpt>
      <trkpt lat="45.23102" lon="6.06242">
        <ele>2459</ele>
        <time>2024-06-06T00:49:50+00:00</time>
      </trkpt>
      <trkpt lat="45.23104" lon="6.06243">
        <ele>2459</ele>
        <time>2024-06-06T00:49:53+00:00</time>
      </trkpt>
      <trkpt lat="45.23107" lon="6.06245">
        <ele>2459</ele>
        <time>2024-06-06T00:49:56+00:00</time>
      </trkpt>
      <trkpt lat="45.23108" lon="6.06248">
        <ele>2459</ele>
        <time>2024-06-06T00:49:59+00:00</time>
      </trkpt>
      <trkpt lat="45.2311" lon="6.06248">
        <ele>2459</ele>
        <time>2024-06-06T00:50:02+00:00</time>
      </trkpt>
      <trkpt lat="45.23111" lon="6.06251">
        <ele>2456</ele>
        <time>2024-06-06T00:50:05+00:00</time>
      </trkpt>
      <trkpt lat="45.23114" lon="6.06252">
        <ele>2456</ele>
        <time>2024-06-06T00:50:08+00:00</time>
      </trkpt>
      <trkpt lat="45.23116" lon="6.06264">
        <ele>2449</ele>
        <time>2024-06-06T00:50:11+00:00</time>
      </trkpt>
      <trkpt lat="45.23117" lon="6.0627">
        <ele>2449</ele>
        <time>2024-06-06T00:50:14+00:00</time>
      </trkpt>
      <trkpt lat="45.23121" lon="6.06282">
        <ele>2440</ele>
        <time>2024-06-06T00:50:17+00:00</time>
      </trkpt>
      <trkpt lat="45.23122" lon="6.06284">
        <ele>2440</ele>
        <time>2024-06-06T00:50:20+00:00</time>
      </trkpt>
      <trkpt lat="45.23124" lon="6.06285">
        <ele>2440</ele>
        <time>2024-06-06T00:50:23+00:00</time>
      </trkpt>
      <trkpt lat="45.23128" lon="6.06285">
        <ele>2440</ele>
        <time>2024-06-06T00:50:26+00:00</time>
      </trkpt>
      <trkpt lat="45.2313" lon="6.06287">
        <ele>2441</ele>
        <time>2024-06-06T00:50:29+00:00</time>
      </trkpt>
      <trkpt lat="45.23141" lon="6.06305">
        <ele>2439</ele>
        <time>2024-06-06T00:50:32+00:00</time>
      </trkpt>
      <trkpt lat="45.23142" lon="6.06316">
        <ele>2438</ele>
        <time>2024-06-06T00:50:35+00:00</time>
      </trkpt>
      <trkpt lat="45.23146" lon="6.06324">
        <ele>2436</ele>
        <time>2024-06-06T00:50:38+00:00</time>
      </trkpt>
      <trkpt lat="45.23147" lon="6.06329">
        <ele>2436</ele>
        <time>2024-06-06T00:50:41+00:00</time>
      </trkpt>
      <trkpt lat="45.23152" lon="6.06339">
        <ele>2434</ele>
        <time>2024-06-06T00:50:44+00:00</time>
      </trkpt>
      <trkpt lat="45.23156" lon="6.06345">
        <ele>2431</ele>
        <time>2024-06-06T00:50:47+00:00</time>
      </trkpt>
      <trkpt lat="45.23155" lon="6.06348">
        <ele>2431</ele>
        <time>2024-06-06T00:50:50+00:00</time>
      </trkpt>
      <trkpt lat="45.23153" lon="6.06353">
        <ele>2427</ele>
        <time>2024-06-06T00:50:53+00:00</time>
      </trkpt>
      <trkpt lat="45.23155" lon="6.06355">
        <ele>2427</ele>
        <time>2024-06-06T00:50:56+00:00</time>
      </trkpt>
      <trkpt lat="45.23164" lon="6.06356">
        <ele>2431</ele>
        <time>2024-06-06T00:50:59+00:00</time>
      </trkpt>
      <trkpt lat="45.23167" lon="6.06359">
        <ele>2431</ele>
        <time>2024-06-06T00:51:02+00:00</time>
      </trkpt>
      <trkpt lat="45.23169" lon="6.06362">
        <ele>2425</ele>
        <time>2024-06-06T00:51:05+00:00</time>
      </trkpt>
      <trkpt lat="45.2317" lon="6.06366">
        <ele>2425</ele>
        <time>2024-06-06T00:51:08+00:00</time>
      </trkpt>
      <trkpt lat="45.23175" lon="6.06374">
        <ele>2428</ele>
        <time>2024-06-06T00:51:11+00:00</time>
      </trkpt>
      <trkpt lat="45.23176" lon="6.06377">
        <ele>2428</ele>
        <time>2024-06-06T00:51:14+00:00</time>
      </trkpt>
      <trkpt lat="45.2318" lon="6.06384">
        <ele>2424</ele>
        <time>2024-06-06T00:51:17+00:00</time>
      </trkpt>
      <trkpt lat="45.23183" lon="6.06397">
        <ele>2420</ele>
        <time>2024-06-06T00:51:20+00:00</time>
      </trkpt>
      <trkpt lat="45.23187" lon="6.06398">
        <ele>2420</ele>
        <time>2024-06-06T00:51:23+00:00</time>
      </trkpt>
      <trkpt lat="45.23188" lon="6.06408">
        <ele>2416</ele>
        <time>2024-06-06T00:51:26+00:00</time>
      </trkpt>
      <trkpt lat="45.23186" lon="6.06415">
        <ele>2412</ele>
        <time>2024-06-06T00:51:29+00:00</time>
      </trkpt>
      <trkpt lat="45.23188" lon="6.06418">
        <ele>2412</ele>
        <time>2024-06-06T00:51:32+00:00</time>
      </trkpt>
      <trkpt lat="45.23188" lon="6.06423">
        <ele>2406</ele>
        <time>2024-06-06T00:51:35+00:00</time>
      </trkpt>
      <trkpt lat="45.2319" lon="6.06427">
        <ele>2406</ele>
        <time>2024-06-06T00:51:38+00:00</time>
      </trkpt>
      <trkpt lat="45.232" lon="6.06433">
        <ele>2407</ele>
        <time>2024-06-06T00:51:41+00:00</time>
      </trkpt>
      <trkpt lat="45.23204" lon="6.06432">
        <ele>2408</ele>
        <time>2024-06-06T00:51:44+00:00</time>
      </trkpt>
      <trkpt lat="45.23206" lon="6.06432">
        <ele>2408</ele>
        <time>2024-06-06T00:51:47+00:00</time>
      </trkpt>
      <trkpt lat="45.23209" lon="6.06441">
        <ele>2405</ele>
        <time>2024-06-06T00:51:50+00:00</time>
      </trkpt>
      <trkpt lat="45.23214" lon="6.06458">
        <ele>2400</ele>
        <time>2024-06-06T00:51:53+00:00</time>
      </trkpt>
      <trkpt lat="45.23213" lon="6.06461">
        <ele>2397</ele>
        <time>2024-06-06T00:51:56+00:00</time>
      </trkpt>
      <trkpt lat="45.23213" lon="6.06468">
        <ele>2397</ele>
        <time>2024-06-06T00:51:59+00:00</time>
      </trkpt>
      <trkpt lat="45.23215" lon="6.06474">
        <ele>2394</ele>
        <time>2024-06-06T00:52:02+00:00</time>
      </trkpt>
      <trkpt lat="45.23218" lon="6.06475">
        <ele>2394</ele>
        <time>2024-06-06T00:52:05+00:00</time>
      </trkpt>
      <trkpt lat="45.2322" lon="6.06475">
        <ele>2394</ele>
        <time>2024-06-06T00:52:08+00:00</time>
      </trkpt>
      <trkpt lat="45.23221" lon="6.06479">
        <ele>2394</ele>
        <time>2024-06-06T00:52:11+00:00</time>
      </trkpt>
      <trkpt lat="45.2322" lon="6.06485">
        <ele>2390</ele>
        <time>2024-06-06T00:52:14+00:00</time>
      </trkpt>
      <trkpt lat="45.23221" lon="6.0649">
        <ele>2390</ele>
        <time>2024-06-06T00:52:17+00:00</time>
      </trkpt>
      <trkpt lat="45.23221" lon="6.06496">
        <ele>2388</ele>
        <time>2024-06-06T00:52:20+00:00</time>
      </trkpt>
      <trkpt lat="45.2322" lon="6.06499">
        <ele>2388</ele>
        <time>2024-06-06T00:52:23+00:00</time>
      </trkpt>
      <trkpt lat="45.23219" lon="6.06502">
        <ele>2385</ele>
        <time>2024-06-06T00:52:26+00:00</time>
      </trkpt>
      <trkpt lat="45.23217" lon="6.0651">
        <ele>2383</ele>
        <time>2024-06-06T00:52:29+00:00</time>
      </trkpt>
      <trkpt lat="45.23217" lon="6.06513">
        <ele>2383</ele>
        <time>2024-06-06T00:52:32+00:00</time>
      </trkpt>
      <trkpt lat="45.23219" lon="6.06515">
        <ele>2383</ele>
        <time>2024-06-06T00:52:35+00:00</time>
      </trkpt>
      <trkpt lat="45.2322" lon="6.06526">
        <ele>2381</ele>
        <time>2024-06-06T00:52:38+00:00</time>
      </trkpt>
      <trkpt lat="45.23218" lon="6.06532">
        <ele>2379</ele>
        <time>2024-06-06T00:52:41+00:00</time>
      </trkpt>
      <trkpt lat="45.23218" lon="6.06543">
        <ele>2377</ele>
        <time>2024-06-06T00:52:44+00:00</time>
      </trkpt>
      <trkpt lat="45.23216" lon="6.06547">
        <ele>2377</ele>
        <time>2024-06-06T00:52:47+00:00</time>
      </trkpt>
      <trkpt lat="45.23216" lon="6.06551">
        <ele>2375</ele>
        <time>2024-06-06T00:52:50+00:00</time>
      </trkpt>
      <trkpt lat="45.23217" lon="6.06555">
        <ele>2375</ele>
        <time>2024-06-06T00:52:53+00:00</time>
      </trkpt>
      <trkpt lat="45.23218" lon="6.06575">
        <ele>2371</ele>
        <time>2024-06-06T00:52:56+00:00</time>
      </trkpt>
      <trkpt lat="45.23218" lon="6.06584">
        <ele>2369</ele>
        <time>2024-06-06T00:52:59+00:00</time>
      </trkpt>
      <trkpt lat="45.23221" lon="6.06587">
        <ele>2369</ele>
        <time>2024-06-06T00:53:02+00:00</time>
      </trkpt>
      <trkpt lat="45.23221" lon="6.06591">
        <ele>2367</ele>
        <time>2024-06-06T00:53:05+00:00</time>
      </trkpt>
      <trkpt lat="45.23221" lon="6.06595">
        <ele>2367</ele>
        <time>2024-06-06T00:53:08+00:00</time>
      </trkpt>
      <trkpt lat="45.23223" lon="6.066">
        <ele>2367</ele>
        <time>2024-06-06T00:53:11+00:00</time>
      </trkpt>
      <trkpt lat="45.23224" lon="6.06604">
        <ele>2365</ele>
        <time>2024-06-06T00:53:14+00:00</time>
      </trkpt>
      <trkpt lat="45.2322" lon="6.06612">
        <ele>2362</ele>
        <time>2024-06-06T00:53:17+00:00</time>
      </trkpt>
      <trkpt lat="45.2322" lon="6.06615">
        <ele>2363</ele>
        <time>2024-06-06T00:53:20+00:00</time>
      </trkpt>
      <trkpt lat="45.23218" lon="6.06618">
        <ele>2363</ele>
        <time>2024-06-06T00:53:23+00:00</time>
      </trkpt>
      <trkpt lat="45.23218" lon="6.06622">
        <ele>2361</ele>
        <time>2024-06-06T00:53:26+00:00</time>
      </trkpt>
      <trkpt lat="45.23217" lon="6.06627">
        <ele>2361</ele>
        <time>2024-06-06T00:53:29+00:00</time>
      </trkpt>
      <trkpt lat="45.23218" lon="6.06634">
        <ele>2359</ele>
        <time>2024-06-06T00:53:32+00:00</time>
      </trkpt>
      <trkpt lat="45.23219" lon="6.06637">
        <ele>2359</ele>
        <time>2024-06-06T00:53:35+00:00</time>
      </trkpt>
      <trkpt lat="45.2322" lon="6.06641">
        <ele>2357</ele>
        <time>2024-06-06T00:53:38+00:00</time>
      </trkpt>
      <trkpt lat="45.23221" lon="6.06643">
        <ele>2355</ele>
        <time>2024-06-06T00:53:41+00:00</time>
      </trkpt>
      <trkpt lat="45.23223" lon="6.06643">
        <ele>2355</ele>
        <time>2024-06-06T00:53:44+00:00</time>
      </trkpt>
      <trkpt lat="45.23224" lon="6.06644">
        <ele>2355</ele>
        <time>2024-06-06T00:53:47+00:00</time>
      </trkpt>
      <trkpt lat="45.23223" lon="6.06645">
        <ele>2355</ele>
        <time>2024-06-06T00:53:50+00:00</time>
      </trkpt>
      <trkpt lat="45.2322" lon="6.06649">
        <ele>2357</ele>
        <time>2024-06-06T00:53:53+00:00</time>
      </trkpt>
      <trkpt lat="45.23219" lon="6.06658">
        <ele>2355</ele>
        <time>2024-06-06T00:53:56+00:00</time>
      </trkpt>
      <trkpt lat="45.23221" lon="6.06661">
        <ele>2350</ele>
        <time>2024-06-06T00:53:59+00:00</time>
      </trkpt>
      <trkpt lat="45.23224" lon="6.06668">
        <ele>2350</ele>
        <time>2024-06-06T00:54:02+00:00</time>
      </trkpt>
      <trkpt lat="45.23225" lon="6.0667">
        <ele>2350</ele>
        <time>2024-06-06T00:54:05+00:00</time>
      </trkpt>
      <trkpt lat="45.23226" lon="6.06675">
        <ele>2347</ele>
        <time>2024-06-06T00:54:08+00:00</time>
      </trkpt>
      <trkpt lat="45.2322" lon="6.06697">
        <ele>2342</ele>
        <time>2024-06-06T00:54:11+00:00</time>
      </trkpt>
      <trkpt lat="45.23216" lon="6.06706">
        <ele>2339</ele>
        <time>2024-06-06T00:54:14+00:00</time>
      </trkpt>
      <trkpt lat="45.23215" lon="6.06713">
        <ele>2336</ele>
        <time>2024-06-06T00:54:17+00:00</time>
      </trkpt>
      <trkpt lat="45.23212" lon="6.06717">
        <ele>2336</ele>
        <time>2024-06-06T00:54:20+00:00</time>
      </trkpt>
      <trkpt lat="45.23213" lon="6.0672">
        <ele>2336</ele>
        <time>2024-06-06T00:54:23+00:00</time>
      </trkpt>
      <trkpt lat="45.23212" lon="6.06722">
        <ele>2331</ele>
        <time>2024-06-06T00:54:26+00:00</time>
      </trkpt>
      <trkpt lat="45.23213" lon="6.06727">
        <ele>2331</ele>
        <time>2024-06-06T00:54:29+00:00</time>
      </trkpt>
      <trkpt lat="45.23214" lon="6.06732">
        <ele>2329</ele>
        <time>2024-06-06T00:54:32+00:00</time>
      </trkpt>
      <trkpt lat="45.23213" lon="6.06735">
        <ele>2329</ele>
        <time>2024-06-06T00:54:35+00:00</time>
      </trkpt>
      <trkpt lat="45.23213" lon="6.06738">
        <ele>2329</ele>
        <time>2024-06-06T00:54:38+00:00</time>
      </trkpt>
      <trkpt lat="45.23214" lon="6.06748">
        <ele>2326</ele>
        <time>2024-06-06T00:54:41+00:00</time>
      </trkpt>
      <trkpt lat="45.23212" lon="6.06754">
        <ele>2323</ele>
        <time>2024-06-06T00:54:44+00:00</time>
      </trkpt>
      <trkpt lat="45.2321" lon="6.0676">
        <ele>2319</ele>
        <time>2024-06-06T00:54:47+00:00</time>
      </trkpt>
      <trkpt lat="45.2321" lon="6.06764">
        <ele>2319</ele>
        <time>2024-06-06T00:54:50+00:00</time>
      </trkpt>
      <trkpt lat="45.23208" lon="6.06773">
        <ele>2319</ele>
        <time>2024-06-06T00:54:53+00:00</time>
      </trkpt>
      <trkpt lat="45.23208" lon="6.06777">
        <ele>2319</ele>
        <time>2024-06-06T00:54:56+00:00</time>
      </trkpt>
      <trkpt lat="45.2321" lon="6.06779">
        <ele>2315</ele>
        <time>2024-06-06T00:54:59+00:00</time>
      </trkpt>
      <trkpt lat="45.23211" lon="6.06781">
        <ele>2313</ele>
        <time>2024-06-06T00:55:02+00:00</time>
      </trkpt>
      <trkpt lat="45.23211" lon="6.06788">
        <ele>2313</ele>
        <time>2024-06-06T00:55:05+00:00</time>
      </trkpt>
      <trkpt lat="45.23208" lon="6.06795">
        <ele>2311</ele>
        <time>2024-06-06T00:55:08+00:00</time>
      </trkpt>
      <trkpt lat="45.23208" lon="6.068">
        <ele>2311</ele>
        <time>2024-06-06T00:55:11+00:00</time>
      </trkpt>
      <trkpt lat="45.23208" lon="6.06802">
        <ele>2307</ele>
        <time>2024-06-06T00:55:14+00:00</time>
      </trkpt>
      <trkpt lat="45.23209" lon="6.06808">
        <ele>2307</ele>
        <time>2024-06-06T00:55:17+00:00</time>
      </trkpt>
      <trkpt lat="45.23209" lon="6.06816">
        <ele>2304</ele>
        <time>2024-06-06T00:55:20+00:00</time>
      </trkpt>
      <trkpt lat="45.23211" lon="6.06819">
        <ele>2305</ele>
        <time>2024-06-06T00:55:23+00:00</time>
      </trkpt>
      <trkpt lat="45.23213" lon="6.0682">
        <ele>2302</ele>
        <time>2024-06-06T00:55:26+00:00</time>
      </trkpt>
      <trkpt lat="45.23213" lon="6.06826">
        <ele>2302</ele>
        <time>2024-06-06T00:55:29+00:00</time>
      </trkpt>
      <trkpt lat="45.23215" lon="6.06833">
        <ele>2300</ele>
        <time>2024-06-06T00:55:32+00:00</time>
      </trkpt>
      <trkpt lat="45.23214" lon="6.06838">
        <ele>2300</ele>
        <time>2024-06-06T00:55:35+00:00</time>
      </trkpt>
      <trkpt lat="45.23215" lon="6.06842">
        <ele>2297</ele>
        <time>2024-06-06T00:55:38+00:00</time>
      </trkpt>
      <trkpt lat="45.23209" lon="6.06854">
        <ele>2293</ele>
        <time>2024-06-06T00:55:41+00:00</time>
      </trkpt>
      <trkpt lat="45.23204" lon="6.06868">
        <ele>2291</ele>
        <time>2024-06-06T00:55:44+00:00</time>
      </trkpt>
      <trkpt lat="45.23203" lon="6.06874">
        <ele>2289</ele>
        <time>2024-06-06T00:55:47+00:00</time>
      </trkpt>
      <trkpt lat="45.23204" lon="6.06876">
        <ele>2289</ele>
        <time>2024-06-06T00:55:50+00:00</time>
      </trkpt>
      <trkpt lat="45.23203" lon="6.06879">
        <ele>2289</ele>
        <time>2024-06-06T00:55:53+00:00</time>
      </trkpt>
      <trkpt lat="45.23206" lon="6.06897">
        <ele>2285</ele>
        <time>2024-06-06T00:55:56+00:00</time>
      </trkpt>
      <trkpt lat="45.23204" lon="6.06909">
        <ele>2284</ele>
        <time>2024-06-06T00:55:59+00:00</time>
      </trkpt>
      <trkpt lat="45.23204" lon="6.06916">
        <ele>2282</ele>
        <time>2024-06-06T00:56:02+00:00</time>
      </trkpt>
      <trkpt lat="45.23206" lon="6.06922">
        <ele>2281</ele>
        <time>2024-06-06T00:56:05+00:00</time>
      </trkpt>
      <trkpt lat="45.23209" lon="6.06926">
        <ele>2281</ele>
        <time>2024-06-06T00:56:08+00:00</time>
      </trkpt>
      <trkpt lat="45.23212" lon="6.06927">
        <ele>2279</ele>
        <time>2024-06-06T00:56:11+00:00</time>
      </trkpt>
      <trkpt lat="45.23213" lon="6.0693">
        <ele>2278</ele>
        <time>2024-06-06T00:56:14+00:00</time>
      </trkpt>
      <trkpt lat="45.23216" lon="6.06933">
        <ele>2278</ele>
        <time>2024-06-06T00:56:17+00:00</time>
      </trkpt>
      <trkpt lat="45.23221" lon="6.06937">
        <ele>2275</ele>
        <time>2024-06-06T00:56:20+00:00</time>
      </trkpt>
      <trkpt lat="45.23221" lon="6.06941">
        <ele>2273</ele>
        <time>2024-06-06T00:56:23+00:00</time>
      </trkpt>
      <trkpt lat="45.23221" lon="6.06944">
        <ele>2273</ele>
        <time>2024-06-06T00:56:26+00:00</time>
      </trkpt>
      <trkpt lat="45.23222" lon="6.06945">
        <ele>2273</ele>
        <time>2024-06-06T00:56:29+00:00</time>
      </trkpt>
      <trkpt lat="45.23222" lon="6.06948">
        <ele>2273</ele>
        <time>2024-06-06T00:56:32+00:00</time>
      </trkpt>
      <trkpt lat="45.2322" lon="6.06953">
        <ele>2271</ele>
        <time>2024-06-06T00:56:35+00:00</time>
      </trkpt>
      <trkpt lat="45.23222" lon="6.06954">
        <ele>2271</ele>
        <time>2024-06-06T00:56:38+00:00</time>
      </trkpt>
      <trkpt lat="45.23223" lon="6.06957">
        <ele>2271</ele>
        <time>2024-06-06T00:56:41+00:00</time>
      </trkpt>
      <trkpt lat="45.23225" lon="6.06958">
        <ele>2271</ele>
        <time>2024-06-06T00:56:44+00:00</time>
      </trkpt>
      <trkpt lat="45.23226" lon="6.0696">
        <ele>2271</ele>
        <time>2024-06-06T00:56:47+00:00</time>
      </trkpt>
      <trkpt lat="45.23224" lon="6.06964">
        <ele>2269</ele>
        <time>2024-06-06T00:56:50+00:00</time>
      </trkpt>
      <trkpt lat="45.23223" lon="6.06966">
        <ele>2269</ele>
        <time>2024-06-06T00:56:53+00:00</time>
      </trkpt>
      <trkpt lat="45.23223" lon="6.06967">
        <ele>2269</ele>
        <time>2024-06-06T00:56:56+00:00</time>
      </trkpt>
      <trkpt lat="45.23225" lon="6.0697">
        <ele>2269</ele>
        <time>2024-06-06T00:56:59+00:00</time>
      </trkpt>
      <trkpt lat="45.23224" lon="6.06982">
        <ele>2262</ele>
        <time>2024-06-06T00:57:02+00:00</time>
      </trkpt>
      <trkpt lat="45.23222" lon="6.06988">
        <ele>2262</ele>
        <time>2024-06-06T00:57:05+00:00</time>
      </trkpt>
      <trkpt lat="45.23221" lon="6.06998">
        <ele>2259</ele>
        <time>2024-06-06T00:57:08+00:00</time>
      </trkpt>
      <trkpt lat="45.23222" lon="6.07">
        <ele>2259</ele>
        <time>2024-06-06T00:57:11+00:00</time>
      </trkpt>
      <trkpt lat="45.2322" lon="6.07012">
        <ele>2256</ele>
        <time>2024-06-06T00:57:14+00:00</time>
      </trkpt>
      <trkpt lat="45.23221" lon="6.07013">
        <ele>2256</ele>
        <time>2024-06-06T00:57:17+00:00</time>
      </trkpt>
      <trkpt lat="45.23221" lon="6.0702">
        <ele>2254</ele>
        <time>2024-06-06T00:57:20+00:00</time>
      </trkpt>
      <trkpt lat="45.23222" lon="6.07029">
        <ele>2254</ele>
        <time>2024-06-06T00:57:23+00:00</time>
      </trkpt>
      <trkpt lat="45.23222" lon="6.0704">
        <ele>2251</ele>
        <time>2024-06-06T00:57:26+00:00</time>
      </trkpt>
      <trkpt lat="45.23225" lon="6.07059">
        <ele>2249</ele>
        <time>2024-06-06T00:57:29+00:00</time>
      </trkpt>
      <trkpt lat="45.23226" lon="6.07062">
        <ele>2247</ele>
        <time>2024-06-06T00:57:32+00:00</time>
      </trkpt>
      <trkpt lat="45.23226" lon="6.07066">
        <ele>2247</ele>
        <time>2024-06-06T00:57:35+00:00</time>
      </trkpt>
      <trkpt lat="45.23225" lon="6.07073">
        <ele>2245</ele>
        <time>2024-06-06T00:57:38+00:00</time>
      </trkpt>
      <trkpt lat="45.23221" lon="6.0708">
        <ele>2243</ele>
        <time>2024-06-06T00:57:41+00:00</time>
      </trkpt>
      <trkpt lat="45.23219" lon="6.07085">
        <ele>2248</ele>
        <time>2024-06-06T00:57:44+00:00</time>
      </trkpt>
      <trkpt lat="45.23212" lon="6.07095">
        <ele>2244</ele>
        <time>2024-06-06T00:57:47+00:00</time>
      </trkpt>
      <trkpt lat="45.23212" lon="6.07098">
        <ele>2244</ele>
        <time>2024-06-06T00:57:50+00:00</time>
      </trkpt>
      <trkpt lat="45.23214" lon="6.07111">
        <ele>2241</ele>
        <time>2024-06-06T00:57:53+00:00</time>
      </trkpt>
      <trkpt lat="45.23214" lon="6.07114">
        <ele>2241</ele>
        <time>2024-06-06T00:57:56+00:00</time>
      </trkpt>
      <trkpt lat="45.23216" lon="6.07126">
        <ele>2239</ele>
        <time>2024-06-06T00:57:59+00:00</time>
      </trkpt>
      <trkpt lat="45.23217" lon="6.0713">
        <ele>2239</ele>
        <time>2024-06-06T00:58:02+00:00</time>
      </trkpt>
      <trkpt lat="45.23218" lon="6.07136">
        <ele>2238</ele>
        <time>2024-06-06T00:58:05+00:00</time>
      </trkpt>
      <trkpt lat="45.23223" lon="6.07149">
        <ele>2235</ele>
        <time>2024-06-06T00:58:08+00:00</time>
      </trkpt>
      <trkpt lat="45.23224" lon="6.07159">
        <ele>2234</ele>
        <time>2024-06-06T00:58:11+00:00</time>
      </trkpt>
      <trkpt lat="45.23224" lon="6.07165">
        <ele>2233</ele>
        <time>2024-06-06T00:58:14+00:00</time>
      </trkpt>
      <trkpt lat="45.23226" lon="6.07186">
        <ele>2230</ele>
        <time>2024-06-06T00:58:17+00:00</time>
      </trkpt>
      <trkpt lat="45.23226" lon="6.0719">
        <ele>2230</ele>
        <time>2024-06-06T00:58:20+00:00</time>
      </trkpt>
      <trkpt lat="45.23223" lon="6.07196">
        <ele>2228</ele>
        <time>2024-06-06T00:58:23+00:00</time>
      </trkpt>
      <trkpt lat="45.23225" lon="6.07205">
        <ele>2227</ele>
        <time>2024-06-06T00:58:26+00:00</time>
      </trkpt>
      <trkpt lat="45.23226" lon="6.07214">
        <ele>2224</ele>
        <time>2024-06-06T00:58:29+00:00</time>
      </trkpt>
      <trkpt lat="45.23228" lon="6.07221">
        <ele>2226</ele>
        <time>2024-06-06T00:58:32+00:00</time>
      </trkpt>
      <trkpt lat="45.23228" lon="6.0723">
        <ele>2224</ele>
        <time>2024-06-06T00:58:35+00:00</time>
      </trkpt>
      <trkpt lat="45.23227" lon="6.07239">
        <ele>2224</ele>
        <time>2024-06-06T00:58:38+00:00</time>
      </trkpt>
      <trkpt lat="45.23225" lon="6.07245">
        <ele>2220</ele>
        <time>2024-06-06T00:58:41+00:00</time>
      </trkpt>
      <trkpt lat="45.23223" lon="6.07248">
        <ele>2220</ele>
        <time>2024-06-06T00:58:44+00:00</time>
      </trkpt>
      <trkpt lat="45.23221" lon="6.07258">
        <ele>2218</ele>
        <time>2024-06-06T00:58:47+00:00</time>
      </trkpt>
      <trkpt lat="45.23222" lon="6.07265">
        <ele>2218</ele>
        <time>2024-06-06T00:58:50+00:00</time>
      </trkpt>
      <trkpt lat="45.23223" lon="6.07269">
        <ele>2218</ele>
        <time>2024-06-06T00:58:53+00:00</time>
      </trkpt>
      <trkpt lat="45.23225" lon="6.07279">
        <ele>2219</ele>
        <time>2024-06-06T00:58:56+00:00</time>
      </trkpt>
      <trkpt lat="45.23226" lon="6.07296">
        <ele>2218</ele>
        <time>2024-06-06T00:58:59+00:00</time>
      </trkpt>
      <trkpt lat="45.23227" lon="6.07302">
        <ele>2215</ele>
        <time>2024-06-06T00:59:02+00:00</time>
      </trkpt>
      <trkpt lat="45.23228" lon="6.07314">
        <ele>2213</ele>
        <time>2024-06-06T00:59:05+00:00</time>
      </trkpt>
      <trkpt lat="45.23228" lon="6.07317">
        <ele>2213</ele>
        <time>2024-06-06T00:59:08+00:00</time>
      </trkpt>
      <trkpt lat="45.23232" lon="6.0732">
        <ele>2209</ele>
        <time>2024-06-06T00:59:11+00:00</time>
      </trkpt>
      <trkpt lat="45.23232" lon="6.07322">
        <ele>2209</ele>
        <time>2024-06-06T00:59:14+00:00</time>
      </trkpt>
      <trkpt lat="45.23228" lon="6.07328">
        <ele>2212</ele>
        <time>2024-06-06T00:59:17+00:00</time>
      </trkpt>
      <trkpt lat="45.23227" lon="6.07331">
        <ele>2209</ele>
        <time>2024-06-06T00:59:20+00:00</time>
      </trkpt>
      <trkpt lat="45.23227" lon="6.07335">
        <ele>2209</ele>
        <time>2024-06-06T00:59:23+00:00</time>
      </trkpt>
      <trkpt lat="45.23229" lon="6.07338">
        <ele>2209</ele>
        <time>2024-06-06T00:59:26+00:00</time>
      </trkpt>
      <trkpt lat="45.23229" lon="6.07339">
        <ele>2209</ele>
        <time>2024-06-06T00:59:29+00:00</time>
      </trkpt>
      <trkpt lat="45.23224" lon="6.07351">
        <ele>2205</ele>
        <time>2024-06-06T00:59:32+00:00</time>
      </trkpt>
      <trkpt lat="45.23224" lon="6.07357">
        <ele>2205</ele>
        <time>2024-06-06T00:59:35+00:00</time>
      </trkpt>
      <trkpt lat="45.23224" lon="6.0736">
        <ele>2205</ele>
        <time>2024-06-06T00:59:38+00:00</time>
      </trkpt>
      <trkpt lat="45.23224" lon="6.07361">
        <ele>2203</ele>
        <time>2024-06-06T00:59:41+00:00</time>
      </trkpt>
      <trkpt lat="45.23225" lon="6.07365">
        <ele>2203</ele>
        <time>2024-06-06T00:59:44+00:00</time>
      </trkpt>
      <trkpt lat="45.23217" lon="6.07388">
        <ele>2201</ele>
        <time>2024-06-06T00:59:47+00:00</time>
      </trkpt>
      <trkpt lat="45.23217" lon="6.07394">
        <ele>2199</ele>
        <time>2024-06-06T00:59:50+00:00</time>
      </trkpt>
      <trkpt lat="45.23215" lon="6.07399">
        <ele>2199</ele>
        <time>2024-06-06T00:59:53+00:00</time>
      </trkpt>
      <trkpt lat="45.23209" lon="6.07415">
        <ele>2198</ele>
        <time>2024-06-06T00:59:56+00:00</time>
      </trkpt>
      <trkpt lat="45.23212" lon="6.07415">
        <ele>2197</ele>
        <time>2024-06-06T00:59:59+00:00</time>
      </trkpt>
      <trkpt lat="45.23217" lon="6.07425">
        <ele>2196</ele>
        <time>2024-06-06T01:00:02+00:00</time>
      </trkpt>
      <trkpt lat="45.2322" lon="6.07439">
        <ele>2195</ele>
        <time>2024-06-06T01:00:05+00:00</time>
      </trkpt>
      <trkpt lat="45.23226" lon="6.07445">
        <ele>2194</ele>
        <time>2024-06-06T01:00:08+00:00</time>
      </trkpt>
      <trkpt lat="45.23232" lon="6.07456">
        <ele>2192</ele>
        <time>2024-06-06T01:00:11+00:00</time>
      </trkpt>
      <trkpt lat="45.23238" lon="6.07461">
        <ele>2191</ele>
        <time>2024-06-06T01:00:14+00:00</time>
      </trkpt>
      <trkpt lat="45.23241" lon="6.07469">
        <ele>2191</ele>
        <time>2024-06-06T01:00:17+00:00</time>
      </trkpt>
      <trkpt lat="45.2324" lon="6.0748">
        <ele>2188</ele>
        <time>2024-06-06T01:00:20+00:00</time>
      </trkpt>
      <trkpt lat="45.23239" lon="6.07492">
        <ele>2188</ele>
        <time>2024-06-06T01:00:23+00:00</time>
      </trkpt>
      <trkpt lat="45.23241" lon="6.07505">
        <ele>2187</ele>
        <time>2024-06-06T01:00:26+00:00</time>
      </trkpt>
      <trkpt lat="45.23245" lon="6.07506">
        <ele>2187</ele>
        <time>2024-06-06T01:00:29+00:00</time>
      </trkpt>
      <trkpt lat="45.23253" lon="6.07512">
        <ele>2186</ele>
        <time>2024-06-06T01:00:32+00:00</time>
      </trkpt>
      <trkpt lat="45.23262" lon="6.07517">
        <ele>2186</ele>
        <time>2024-06-06T01:00:35+00:00</time>
      </trkpt>
      <trkpt lat="45.23272" lon="6.07523">
        <ele>2186</ele>
        <time>2024-06-06T01:00:38+00:00</time>
      </trkpt>
      <trkpt lat="45.23279" lon="6.07526">
        <ele>2186</ele>
        <time>2024-06-06T01:00:41+00:00</time>
      </trkpt>
      <trkpt lat="45.23289" lon="6.07532">
        <ele>2186</ele>
        <time>2024-06-06T01:00:44+00:00</time>
      </trkpt>
      <trkpt lat="45.23296" lon="6.07538">
        <ele>2186</ele>
        <time>2024-06-06T01:00:47+00:00</time>
      </trkpt>
      <trkpt lat="45.23303" lon="6.0755">
        <ele>2186</ele>
        <time>2024-06-06T01:00:50+00:00</time>
      </trkpt>
      <trkpt lat="45.23304" lon="6.07564">
        <ele>2185</ele>
        <time>2024-06-06T01:00:53+00:00</time>
      </trkpt>
      <trkpt lat="45.2331" lon="6.07574">
        <ele>2184</ele>
        <time>2024-06-06T01:00:56+00:00</time>
      </trkpt>
      <trkpt lat="45.23316" lon="6.07582">
        <ele>2181</ele>
        <time>2024-06-06T01:00:59+00:00</time>
      </trkpt>
      <trkpt lat="45.23323" lon="6.0759">
        <ele>2185</ele>
        <time>2024-06-06T01:01:02+00:00</time>
      </trkpt>
      <trkpt lat="45.23328" lon="6.07603">
        <ele>2180</ele>
        <time>2024-06-06T01:01:05+00:00</time>
      </trkpt>
      <trkpt lat="45.23333" lon="6.07614">
        <ele>2186</ele>
        <time>2024-06-06T01:01:08+00:00</time>
      </trkpt>
      <trkpt lat="45.2334" lon="6.07624">
        <ele>2185</ele>
        <time>2024-06-06T01:01:11+00:00</time>
      </trkpt>
      <trkpt lat="45.23343" lon="6.07637">
        <ele>2187</ele>
        <time>2024-06-06T01:01:14+00:00</time>
      </trkpt>
      <trkpt lat="45.23352" lon="6.0764">
        <ele>2188</ele>
        <time>2024-06-06T01:01:17+00:00</time>
      </trkpt>
      <trkpt lat="45.2336" lon="6.07646">
        <ele>2190</ele>
        <time>2024-06-06T01:01:20+00:00</time>
      </trkpt>
      <trkpt lat="45.23371" lon="6.07654">
        <ele>2190</ele>
        <time>2024-06-06T01:01:23+00:00</time>
      </trkpt>
      <trkpt lat="45.23378" lon="6.07662">
        <ele>2189</ele>
        <time>2024-06-06T01:01:26+00:00</time>
      </trkpt>
      <trkpt lat="45.23381" lon="6.07665">
        <ele>2191</ele>
        <time>2024-06-06T01:01:29+00:00</time>
      </trkpt>
      <trkpt lat="45.23405" lon="6.07686">
        <ele>2194</ele>
        <time>2024-06-06T01:01:32+00:00</time>
      </trkpt>
      <trkpt lat="45.23428" lon="6.07721">
        <ele>2195</ele>
        <time>2024-06-06T01:01:35+00:00</time>
      </trkpt>
      <trkpt lat="45.23439" lon="6.07758">
        <ele>2196</ele>
        <time>2024-06-06T01:01:38+00:00</time>
      </trkpt>
      <trkpt lat="45.23455" lon="6.0781">
        <ele>2195</ele>
        <time>2024-06-06T01:01:41+00:00</time>
      </trkpt>
      <trkpt lat="45.23475" lon="6.07843">
        <ele>2194</ele>
        <time>2024-06-06T01:01:44+00:00</time>
      </trkpt>
      <trkpt lat="45.23492" lon="6.07872">
        <ele>2194</ele>
        <time>2024-06-06T01:01:47+00:00</time>
      </trkpt>
      <trkpt lat="45.23506" lon="6.07896">
        <ele>2193</ele>
        <time>2024-06-06T01:01:50+00:00</time>
      </trkpt>
      <trkpt lat="45.23508" lon="6.07898">
        <ele>2190</ele>
        <time>2024-06-06T01:01:53+00:00</time>
      </trkpt>
      <trkpt lat="45.23511" lon="6.07902">
        <ele>2194</ele>
        <time>2024-06-06T01:01:56+00:00</time>
      </trkpt>
      <trkpt lat="45.23523" lon="6.07916">
        <ele>2193</ele>
        <time>2024-06-06T01:01:59+00:00</time>
      </trkpt>
      <trkpt lat="45.23534" lon="6.07926">
        <ele>2193</ele>
        <time>2024-06-06T01:02:02+00:00</time>
      </trkpt>
      <trkpt lat="45.23544" lon="6.0794">
        <ele>2196</ele>
        <time>2024-06-06T01:02:05+00:00</time>
      </trkpt>
      <trkpt lat="45.23551" lon="6.07945">
        <ele>2195</ele>
        <time>2024-06-06T01:02:08+00:00</time>
      </trkpt>
      <trkpt lat="45.23557" lon="6.07949">
        <ele>2195</ele>
        <time>2024-06-06T01:02:11+00:00</time>
      </trkpt>
      <trkpt lat="45.23563" lon="6.07955">
        <ele>2194</ele>
        <time>2024-06-06T01:02:14+00:00</time>
      </trkpt>
      <trkpt lat="45.23568" lon="6.07965">
        <ele>2194</ele>
        <time>2024-06-06T01:02:17+00:00</time>
      </trkpt>
      <trkpt lat="45.23574" lon="6.07975">
        <ele>2196</ele>
        <time>2024-06-06T01:02:20+00:00</time>
      </trkpt>
      <trkpt lat="45.23579" lon="6.07985">
        <ele>2193</ele>
        <time>2024-06-06T01:02:23+00:00</time>
      </trkpt>
      <trkpt lat="45.23586" lon="6.07994">
        <ele>2193</ele>
        <time>2024-06-06T01:02:26+00:00</time>
      </trkpt>
      <trkpt lat="45.23607" lon="6.08012">
        <ele>2191</ele>
        <time>2024-06-06T01:02:29+00:00</time>
      </trkpt>
      <trkpt lat="45.23614" lon="6.08021">
        <ele>2191</ele>
        <time>2024-06-06T01:02:32+00:00</time>
      </trkpt>
      <trkpt lat="45.23624" lon="6.08038">
        <ele>2190</ele>
        <time>2024-06-06T01:02:35+00:00</time>
      </trkpt>
      <trkpt lat="45.23636" lon="6.08057">
        <ele>2189</ele>
        <time>2024-06-06T01:02:38+00:00</time>
      </trkpt>
      <trkpt lat="45.23642" lon="6.08068">
        <ele>2188</ele>
        <time>2024-06-06T01:02:41+00:00</time>
      </trkpt>
      <trkpt lat="45.23646" lon="6.08079">
        <ele>2186</ele>
        <time>2024-06-06T01:02:44+00:00</time>
      </trkpt>
      <trkpt lat="45.23646" lon="6.08085">
        <ele>2185</ele>
        <time>2024-06-06T01:02:47+00:00</time>
      </trkpt>
      <trkpt lat="45.23649" lon="6.08091">
        <ele>2183</ele>
        <time>2024-06-06T01:02:50+00:00</time>
      </trkpt>
      <trkpt lat="45.23656" lon="6.081">
        <ele>2184</ele>
        <time>2024-06-06T01:02:53+00:00</time>
      </trkpt>
      <trkpt lat="45.23661" lon="6.08112">
        <ele>2186</ele>
        <time>2024-06-06T01:02:56+00:00</time>
      </trkpt>
      <trkpt lat="45.23669" lon="6.08131">
        <ele>2181</ele>
        <time>2024-06-06T01:02:59+00:00</time>
      </trkpt>
      <trkpt lat="45.23675" lon="6.08144">
        <ele>2182</ele>
        <time>2024-06-06T01:03:02+00:00</time>
      </trkpt>
      <trkpt lat="45.23675" lon="6.08151">
        <ele>2180</ele>
        <time>2024-06-06T01:03:05+00:00</time>
      </trkpt>
      <trkpt lat="45.23675" lon="6.0817">
        <ele>2179</ele>
        <time>2024-06-06T01:03:08+00:00</time>
      </trkpt>
      <trkpt lat="45.23673" lon="6.08182">
        <ele>2178</ele>
        <time>2024-06-06T01:03:11+00:00</time>
      </trkpt>
      <trkpt lat="45.2367" lon="6.08194">
        <ele>2177</ele>
        <time>2024-06-06T01:03:14+00:00</time>
      </trkpt>
      <trkpt lat="45.23669" lon="6.08206">
        <ele>2177</ele>
        <time>2024-06-06T01:03:17+00:00</time>
      </trkpt>
      <trkpt lat="45.23674" lon="6.08218">
        <ele>2176</ele>
        <time>2024-06-06T01:03:20+00:00</time>
      </trkpt>
      <trkpt lat="45.23678" lon="6.08229">
        <ele>2175</ele>
        <time>2024-06-06T01:03:23+00:00</time>
      </trkpt>
      <trkpt lat="45.23678" lon="6.08241">
        <ele>2175</ele>
        <time>2024-06-06T01:03:26+00:00</time>
      </trkpt>
      <trkpt lat="45.23685" lon="6.08247">
        <ele>2174</ele>
        <time>2024-06-06T01:03:29+00:00</time>
      </trkpt>
      <trkpt lat="45.23693" lon="6.08255">
        <ele>2173</ele>
        <time>2024-06-06T01:03:32+00:00</time>
      </trkpt>
      <trkpt lat="45.23698" lon="6.08266">
        <ele>2173</ele>
        <time>2024-06-06T01:03:35+00:00</time>
      </trkpt>
      <trkpt lat="45.23704" lon="6.08273">
        <ele>2173</ele>
        <time>2024-06-06T01:03:38+00:00</time>
      </trkpt>
      <trkpt lat="45.23713" lon="6.08277">
        <ele>2172</ele>
        <time>2024-06-06T01:03:41+00:00</time>
      </trkpt>
      <trkpt lat="45.23722" lon="6.08283">
        <ele>2171</ele>
        <time>2024-06-06T01:03:44+00:00</time>
      </trkpt>
      <trkpt lat="45.23729" lon="6.0829">
        <ele>2171</ele>
        <time>2024-06-06T01:03:47+00:00</time>
      </trkpt>
      <trkpt lat="45.23738" lon="6.08292">
        <ele>2171</ele>
        <time>2024-06-06T01:03:50+00:00</time>
      </trkpt>
      <trkpt lat="45.23747" lon="6.08294">
        <ele>2171</ele>
        <time>2024-06-06T01:03:53+00:00</time>
      </trkpt>
      <trkpt lat="45.23752" lon="6.08304">
        <ele>2171</ele>
        <time>2024-06-06T01:03:56+00:00</time>
      </trkpt>
      <trkpt lat="45.23755" lon="6.08315">
        <ele>2171</ele>
        <time>2024-06-06T01:03:59+00:00</time>
      </trkpt>
      <trkpt lat="45.23761" lon="6.08317">
        <ele>2171</ele>
        <time>2024-06-06T01:04:02+00:00</time>
      </trkpt>
      <trkpt lat="45.23765" lon="6.08316">
        <ele>2171</ele>
        <time>2024-06-06T01:04:05+00:00</time>
      </trkpt>
      <trkpt lat="45.23771" lon="6.08317">
        <ele>2171</ele>
        <time>2024-06-06T01:04:08+00:00</time>
      </trkpt>
      <trkpt lat="45.23776" lon="6.08318">
        <ele>2171</ele>
        <time>2024-06-06T01:04:11+00:00</time>
      </trkpt>
      <trkpt lat="45.2378" lon="6.08318">
        <ele>2172</ele>
        <time>2024-06-06T01:04:14+00:00</time>
      </trkpt>
      <trkpt lat="45.23785" lon="6.08319">
        <ele>2172</ele>
        <time>2024-06-06T01:04:17+00:00</time>
      </trkpt>
      <trkpt lat="45.23791" lon="6.08322">
        <ele>2172</ele>
        <time>2024-06-06T01:04:20+00:00</time>
      </trkpt>
      <trkpt lat="45.23797" lon="6.08329">
        <ele>2172</ele>
        <time>2024-06-06T01:04:23+00:00</time>
      </trkpt>
      <trkpt lat="45.23803" lon="6.08333">
        <ele>2172</ele>
        <time>2024-06-06T01:04:26+00:00</time>
      </trkpt>
      <trkpt lat="45.23805" lon="6.08336">
        <ele>2172</ele>
        <time>2024-06-06T01:04:29+00:00</time>
      </trkpt>
      <trkpt lat="45.2381" lon="6.08338">
        <ele>2171</ele>
        <time>2024-06-06T01:04:32+00:00</time>
      </trkpt>
      <trkpt lat="45.23816" lon="6.08339">
        <ele>2171</ele>
        <time>2024-06-06T01:04:35+00:00</time>
      </trkpt>
      <trkpt lat="45.2382" lon="6.08341">
        <ele>2172</ele>
        <time>2024-06-06T01:04:38+00:00</time>
      </trkpt>
      <trkpt lat="45.23825" lon="6.08341">
        <ele>2172</ele>
        <time>2024-06-06T01:04:41+00:00</time>
      </trkpt>
      <trkpt lat="45.23829" lon="6.08339">
        <ele>2171</ele>
        <time>2024-06-06T01:04:44+00:00</time>
      </trkpt>
      <trkpt lat="45.23832" lon="6.08337">
        <ele>2171</ele>
        <time>2024-06-06T01:04:47+00:00</time>
      </trkpt>
      <trkpt lat="45.23837" lon="6.08334">
        <ele>2171</ele>
        <time>2024-06-06T01:04:50+00:00</time>
      </trkpt>
      <trkpt lat="45.23843" lon="6.08333">
        <ele>2171</ele>
        <time>2024-06-06T01:04:53+00:00</time>
      </trkpt>
      <trkpt lat="45.23848" lon="6.08334">
        <ele>2171</ele>
        <time>2024-06-06T01:04:56+00:00</time>
      </trkpt>
      <trkpt lat="45.23853" lon="6.08333">
        <ele>2171</ele>
        <time>2024-06-06T01:04:59+00:00</time>
      </trkpt>
      <trkpt lat="45.2386" lon="6.08333">
        <ele>2171</ele>
        <time>2024-06-06T01:05:02+00:00</time>
      </trkpt>
      <trkpt lat="45.23864" lon="6.08334">
        <ele>2171</ele>
        <time>2024-06-06T01:05:05+00:00</time>
      </trkpt>
      <trkpt lat="45.23867" lon="6.08336">
        <ele>2171</ele>
        <time>2024-06-06T01:05:08+00:00</time>
      </trkpt>
      <trkpt lat="45.2387" lon="6.08338">
        <ele>2171</ele>
        <time>2024-06-06T01:05:11+00:00</time>
      </trkpt>
      <trkpt lat="45.23876" lon="6.08341">
        <ele>2171</ele>
        <time>2024-06-06T01:05:14+00:00</time>
      </trkpt>
      <trkpt lat="45.23881" lon="6.08343">
        <ele>2170</ele>
        <time>2024-06-06T01:05:17+00:00</time>
      </trkpt>
      <trkpt lat="45.23886" lon="6.08343">
        <ele>2170</ele>
        <time>2024-06-06T01:05:20+00:00</time>
      </trkpt>
      <trkpt lat="45.23892" lon="6.08343">
        <ele>2169</ele>
        <time>2024-06-06T01:05:23+00:00</time>
      </trkpt>
      <trkpt lat="45.23896" lon="6.08342">
        <ele>2169</ele>
        <time>2024-06-06T01:05:26+00:00</time>
      </trkpt>
      <trkpt lat="45.23899" lon="6.08341">
        <ele>2169</ele>
        <time>2024-06-06T01:05:29+00:00</time>
      </trkpt>
      <trkpt lat="45.23901" lon="6.08338">
        <ele>2168</ele>
        <time>2024-06-06T01:05:32+00:00</time>
      </trkpt>
      <trkpt lat="45.23905" lon="6.08336">
        <ele>2168</ele>
        <time>2024-06-06T01:05:35+00:00</time>
      </trkpt>
      <trkpt lat="45.23909" lon="6.08336">
        <ele>2168</ele>
        <time>2024-06-06T01:05:38+00:00</time>
      </trkpt>
      <trkpt lat="45.23913" lon="6.08336">
        <ele>2168</ele>
        <time>2024-06-06T01:05:41+00:00</time>
      </trkpt>
      <trkpt lat="45.23919" lon="6.08338">
        <ele>2168</ele>
        <time>2024-06-06T01:05:44+00:00</time>
      </trkpt>
      <trkpt lat="45.23927" lon="6.08341">
        <ele>2168</ele>
        <time>2024-06-06T01:05:47+00:00</time>
      </trkpt>
      <trkpt lat="45.2393" lon="6.08344">
        <ele>2167</ele>
        <time>2024-06-06T01:05:50+00:00</time>
      </trkpt>
      <trkpt lat="45.23936" lon="6.08352">
        <ele>2167</ele>
        <time>2024-06-06T01:05:53+00:00</time>
      </trkpt>
      <trkpt lat="45.23939" lon="6.08354">
        <ele>2167</ele>
        <time>2024-06-06T01:05:56+00:00</time>
      </trkpt>
      <trkpt lat="45.23941" lon="6.08357">
        <ele>2166</ele>
        <time>2024-06-06T01:05:59+00:00</time>
      </trkpt>
      <trkpt lat="45.23944" lon="6.08359">
        <ele>2166</ele>
        <time>2024-06-06T01:06:02+00:00</time>
      </trkpt>
      <trkpt lat="45.23947" lon="6.08361">
        <ele>2166</ele>
        <time>2024-06-06T01:06:05+00:00</time>
      </trkpt>
      <trkpt lat="45.23954" lon="6.08366">
        <ele>2165</ele>
        <time>2024-06-06T01:06:08+00:00</time>
      </trkpt>
      <trkpt lat="45.23957" lon="6.08372">
        <ele>2165</ele>
        <time>2024-06-06T01:06:11+00:00</time>
      </trkpt>
      <trkpt lat="45.23966" lon="6.08377">
        <ele>2163</ele>
        <time>2024-06-06T01:06:14+00:00</time>
      </trkpt>
      <trkpt lat="45.23977" lon="6.0838">
        <ele>2162</ele>
        <time>2024-06-06T01:06:17+00:00</time>
      </trkpt>
      <trkpt lat="45.23983" lon="6.08383">
        <ele>2160</ele>
        <time>2024-06-06T01:06:20+00:00</time>
      </trkpt>
      <trkpt lat="45.23987" lon="6.08385">
        <ele>2160</ele>
        <time>2024-06-06T01:06:23+00:00</time>
      </trkpt>
      <trkpt lat="45.2399" lon="6.08386">
        <ele>2160</ele>
        <time>2024-06-06T01:06:26+00:00</time>
      </trkpt>
      <trkpt lat="45.23994" lon="6.08385">
        <ele>2158</ele>
        <time>2024-06-06T01:06:29+00:00</time>
      </trkpt>
      <trkpt lat="45.23997" lon="6.08385">
        <ele>2158</ele>
        <time>2024-06-06T01:06:32+00:00</time>
      </trkpt>
      <trkpt lat="45.24" lon="6.08384">
        <ele>2158</ele>
        <time>2024-06-06T01:06:35+00:00</time>
      </trkpt>
      <trkpt lat="45.24006" lon="6.08383">
        <ele>2158</ele>
        <time>2024-06-06T01:06:38+00:00</time>
      </trkpt>
      <trkpt lat="45.2401" lon="6.08383">
        <ele>2158</ele>
        <time>2024-06-06T01:06:41+00:00</time>
      </trkpt>
      <trkpt lat="45.24013" lon="6.08385">
        <ele>2158</ele>
        <time>2024-06-06T01:06:44+00:00</time>
      </trkpt>
      <trkpt lat="45.24018" lon="6.08387">
        <ele>2158</ele>
        <time>2024-06-06T01:06:47+00:00</time>
      </trkpt>
      <trkpt lat="45.24024" lon="6.08386">
        <ele>2157</ele>
        <time>2024-06-06T01:06:50+00:00</time>
      </trkpt>
      <trkpt lat="45.2403" lon="6.08386">
        <ele>2158</ele>
        <time>2024-06-06T01:06:53+00:00</time>
      </trkpt>
      <trkpt lat="45.24036" lon="6.08388">
        <ele>2156</ele>
        <time>2024-06-06T01:06:56+00:00</time>
      </trkpt>
      <trkpt lat="45.2404" lon="6.08391">
        <ele>2159</ele>
        <time>2024-06-06T01:06:59+00:00</time>
      </trkpt>
      <trkpt lat="45.24045" lon="6.08392">
        <ele>2159</ele>
        <time>2024-06-06T01:07:02+00:00</time>
      </trkpt>
      <trkpt lat="45.24048" lon="6.08391">
        <ele>2159</ele>
        <time>2024-06-06T01:07:05+00:00</time>
      </trkpt>
      <trkpt lat="45.2405" lon="6.08393">
        <ele>2158</ele>
        <time>2024-06-06T01:07:08+00:00</time>
      </trkpt>
      <trkpt lat="45.24053" lon="6.08395">
        <ele>2158</ele>
        <time>2024-06-06T01:07:11+00:00</time>
      </trkpt>
      <trkpt lat="45.24055" lon="6.08398">
        <ele>2158</ele>
        <time>2024-06-06T01:07:14+00:00</time>
      </trkpt>
      <trkpt lat="45.2406" lon="6.08399">
        <ele>2158</ele>
        <time>2024-06-06T01:07:17+00:00</time>
      </trkpt>
      <trkpt lat="45.24062" lon="6.08399">
        <ele>2156</ele>
        <time>2024-06-06T01:07:20+00:00</time>
      </trkpt>
      <trkpt lat="45.24064" lon="6.08399">
        <ele>2156</ele>
        <time>2024-06-06T01:07:23+00:00</time>
      </trkpt>
      <trkpt lat="45.24066" lon="6.08399">
        <ele>2156</ele>
        <time>2024-06-06T01:07:26+00:00</time>
      </trkpt>
      <trkpt lat="45.24068" lon="6.08401">
        <ele>2159</ele>
        <time>2024-06-06T01:07:29+00:00</time>
      </trkpt>
      <trkpt lat="45.2407" lon="6.08405">
        <ele>2157</ele>
        <time>2024-06-06T01:07:32+00:00</time>
      </trkpt>
      <trkpt lat="45.24071" lon="6.08409">
        <ele>2156</ele>
        <time>2024-06-06T01:07:35+00:00</time>
      </trkpt>
      <trkpt lat="45.24074" lon="6.08414">
        <ele>2158</ele>
        <time>2024-06-06T01:07:38+00:00</time>
      </trkpt>
      <trkpt lat="45.2408" lon="6.08419">
        <ele>2158</ele>
        <time>2024-06-06T01:07:41+00:00</time>
      </trkpt>
      <trkpt lat="45.24083" lon="6.08422">
        <ele>2157</ele>
        <time>2024-06-06T01:07:44+00:00</time>
      </trkpt>
      <trkpt lat="45.24089" lon="6.08423">
        <ele>2157</ele>
        <time>2024-06-06T01:07:47+00:00</time>
      </trkpt>
      <trkpt lat="45.24092" lon="6.08422">
        <ele>2157</ele>
        <time>2024-06-06T01:07:50+00:00</time>
      </trkpt>
      <trkpt lat="45.24097" lon="6.0842">
        <ele>2157</ele>
        <time>2024-06-06T01:07:53+00:00</time>
      </trkpt>
      <trkpt lat="45.24103" lon="6.08422">
        <ele>2156</ele>
        <time>2024-06-06T01:07:56+00:00</time>
      </trkpt>
      <trkpt lat="45.24109" lon="6.08427">
        <ele>2157</ele>
        <time>2024-06-06T01:07:59+00:00</time>
      </trkpt>
      <trkpt lat="45.24115" lon="6.08428">
        <ele>2157</ele>
        <time>2024-06-06T01:08:02+00:00</time>
      </trkpt>
      <trkpt lat="45.24119" lon="6.08426">
        <ele>2157</ele>
        <time>2024-06-06T01:08:05+00:00</time>
      </trkpt>
      <trkpt lat="45.24122" lon="6.08425">
        <ele>2157</ele>
        <time>2024-06-06T01:08:08+00:00</time>
      </trkpt>
      <trkpt lat="45.24125" lon="6.08426">
        <ele>2157</ele>
        <time>2024-06-06T01:08:11+00:00</time>
      </trkpt>
      <trkpt lat="45.2413" lon="6.08428">
        <ele>2157</ele>
        <time>2024-06-06T01:08:14+00:00</time>
      </trkpt>
      <trkpt lat="45.24134" lon="6.0843">
        <ele>2158</ele>
        <time>2024-06-06T01:08:17+00:00</time>
      </trkpt>
      <trkpt lat="45.24137" lon="6.0843">
        <ele>2158</ele>
        <time>2024-06-06T01:08:20+00:00</time>
      </trkpt>
      <trkpt lat="45.2414" lon="6.08428">
        <ele>2158</ele>
        <time>2024-06-06T01:08:23+00:00</time>
      </trkpt>
      <trkpt lat="45.24144" lon="6.08427">
        <ele>2159</ele>
        <time>2024-06-06T01:08:26+00:00</time>
      </trkpt>
      <trkpt lat="45.24149" lon="6.08426">
        <ele>2159</ele>
        <time>2024-06-06T01:08:29+00:00</time>
      </trkpt>
      <trkpt lat="45.24152" lon="6.08428">
        <ele>2158</ele>
        <time>2024-06-06T01:08:32+00:00</time>
      </trkpt>
      <trkpt lat="45.24155" lon="6.0843">
        <ele>2160</ele>
        <time>2024-06-06T01:08:35+00:00</time>
      </trkpt>
      <trkpt lat="45.24158" lon="6.08435">
        <ele>2160</ele>
        <time>2024-06-06T01:08:38+00:00</time>
      </trkpt>
      <trkpt lat="45.2416" lon="6.0844">
        <ele>2161</ele>
        <time>2024-06-06T01:08:41+00:00</time>
      </trkpt>
      <trkpt lat="45.24162" lon="6.08443">
        <ele>2161</ele>
        <time>2024-06-06T01:08:44+00:00</time>
      </trkpt>
      <trkpt lat="45.24164" lon="6.08445">
        <ele>2161</ele>
        <time>2024-06-06T01:08:47+00:00</time>
      </trkpt>
      <trkpt lat="45.24166" lon="6.08446">
        <ele>2161</ele>
        <time>2024-06-06T01:08:50+00:00</time>
      </trkpt>
      <trkpt lat="45.24169" lon="6.08449">
        <ele>2161</ele>
        <time>2024-06-06T01:08:53+00:00</time>
      </trkpt>
      <trkpt lat="45.2417" lon="6.08451">
        <ele>2164</ele>
        <time>2024-06-06T01:08:56+00:00</time>
      </trkpt>
      <trkpt lat="45.24173" lon="6.08452">
        <ele>2164</ele>
        <time>2024-06-06T01:08:59+00:00</time>
      </trkpt>
      <trkpt lat="45.24177" lon="6.08452">
        <ele>2164</ele>
        <time>2024-06-06T01:09:02+00:00</time>
      </trkpt>
      <trkpt lat="45.24181" lon="6.08454">
        <ele>2163</ele>
        <time>2024-06-06T01:09:05+00:00</time>
      </trkpt>
      <trkpt lat="45.24183" lon="6.08456">
        <ele>2163</ele>
        <time>2024-06-06T01:09:08+00:00</time>
      </trkpt>
      <trkpt lat="45.24185" lon="6.08461">
        <ele>2166</ele>
        <time>2024-06-06T01:09:11+00:00</time>
      </trkpt>
      <trkpt lat="45.24189" lon="6.08466">
        <ele>2166</ele>
        <time>2024-06-06T01:09:14+00:00</time>
      </trkpt>
      <trkpt lat="45.2419" lon="6.08468">
        <ele>2166</ele>
        <time>2024-06-06T01:09:17+00:00</time>
      </trkpt>
      <trkpt lat="45.24192" lon="6.08471">
        <ele>2168</ele>
        <time>2024-06-06T01:09:20+00:00</time>
      </trkpt>
      <trkpt lat="45.24194" lon="6.08472">
        <ele>2168</ele>
        <time>2024-06-06T01:09:23+00:00</time>
      </trkpt>
      <trkpt lat="45.24198" lon="6.08473">
        <ele>2164</ele>
        <time>2024-06-06T01:09:26+00:00</time>
      </trkpt>
      <trkpt lat="45.242" lon="6.08472">
        <ele>2167</ele>
        <time>2024-06-06T01:09:29+00:00</time>
      </trkpt>
      <trkpt lat="45.24206" lon="6.08471">
        <ele>2167</ele>
        <time>2024-06-06T01:09:32+00:00</time>
      </trkpt>
      <trkpt lat="45.24207" lon="6.0847">
        <ele>2167</ele>
        <time>2024-06-06T01:09:35+00:00</time>
      </trkpt>
      <trkpt lat="45.24215" lon="6.08468">
        <ele>2165</ele>
        <time>2024-06-06T01:09:38+00:00</time>
      </trkpt>
      <trkpt lat="45.24219" lon="6.08465">
        <ele>2165</ele>
        <time>2024-06-06T01:09:41+00:00</time>
      </trkpt>
      <trkpt lat="45.24223" lon="6.08463">
        <ele>2166</ele>
        <time>2024-06-06T01:09:44+00:00</time>
      </trkpt>
      <trkpt lat="45.24226" lon="6.08463">
        <ele>2166</ele>
        <time>2024-06-06T01:09:47+00:00</time>
      </trkpt>
      <trkpt lat="45.24228" lon="6.08464">
        <ele>2166</ele>
        <time>2024-06-06T01:09:50+00:00</time>
      </trkpt>
      <trkpt lat="45.2423" lon="6.08466">
        <ele>2166</ele>
        <time>2024-06-06T01:09:53+00:00</time>
      </trkpt>
      <trkpt lat="45.24232" lon="6.08467">
        <ele>2167</ele>
        <time>2024-06-06T01:09:56+00:00</time>
      </trkpt>
      <trkpt lat="45.24237" lon="6.08469">
        <ele>2167</ele>
        <time>2024-06-06T01:09:59+00:00</time>
      </trkpt>
      <trkpt lat="45.2424" lon="6.0847">
        <ele>2167</ele>
        <time>2024-06-06T01:10:02+00:00</time>
      </trkpt>
      <trkpt lat="45.24242" lon="6.08471">
        <ele>2170</ele>
        <time>2024-06-06T01:10:05+00:00</time>
      </trkpt>
      <trkpt lat="45.24246" lon="6.08472">
        <ele>2170</ele>
        <time>2024-06-06T01:10:08+00:00</time>
      </trkpt>
      <trkpt lat="45.24252" lon="6.08475">
        <ele>2169</ele>
        <time>2024-06-06T01:10:11+00:00</time>
      </trkpt>
      <trkpt lat="45.24255" lon="6.08478">
        <ele>2169</ele>
        <time>2024-06-06T01:10:14+00:00</time>
      </trkpt>
      <trkpt lat="45.24259" lon="6.08479">
        <ele>2169</ele>
        <time>2024-06-06T01:10:17+00:00</time>
      </trkpt>
      <trkpt lat="45.24263" lon="6.08481">
        <ele>2174</ele>
        <time>2024-06-06T01:10:20+00:00</time>
      </trkpt>
      <trkpt lat="45.24266" lon="6.08482">
        <ele>2174</ele>
        <time>2024-06-06T01:10:23+00:00</time>
      </trkpt>
      <trkpt lat="45.2427" lon="6.08483">
        <ele>2174</ele>
        <time>2024-06-06T01:10:26+00:00</time>
      </trkpt>
      <trkpt lat="45.24271" lon="6.08484">
        <ele>2174</ele>
        <time>2024-06-06T01:10:29+00:00</time>
      </trkpt>
      <trkpt lat="45.24274" lon="6.08486">
        <ele>2174</ele>
        <time>2024-06-06T01:10:32+00:00</time>
      </trkpt>
      <trkpt lat="45.24278" lon="6.08487">
        <ele>2174</ele>
        <time>2024-06-06T01:10:35+00:00</time>
      </trkpt>
      <trkpt lat="45.24282" lon="6.08487">
        <ele>2175</ele>
        <time>2024-06-06T01:10:38+00:00</time>
      </trkpt>
      <trkpt lat="45.24286" lon="6.08488">
        <ele>2175</ele>
        <time>2024-06-06T01:10:41+00:00</time>
      </trkpt>
      <trkpt lat="45.24289" lon="6.08487">
        <ele>2175</ele>
        <time>2024-06-06T01:10:44+00:00</time>
      </trkpt>
      <trkpt lat="45.24292" lon="6.08486">
        <ele>2176</ele>
        <time>2024-06-06T01:10:47+00:00</time>
      </trkpt>
      <trkpt lat="45.24294" lon="6.08484">
        <ele>2176</ele>
        <time>2024-06-06T01:10:50+00:00</time>
      </trkpt>
      <trkpt lat="45.24298" lon="6.08484">
        <ele>2176</ele>
        <time>2024-06-06T01:10:53+00:00</time>
      </trkpt>
      <trkpt lat="45.243" lon="6.08482">
        <ele>2176</ele>
        <time>2024-06-06T01:10:56+00:00</time>
      </trkpt>
      <trkpt lat="45.24301" lon="6.08481">
        <ele>2178</ele>
        <time>2024-06-06T01:10:59+00:00</time>
      </trkpt>
      <trkpt lat="45.24304" lon="6.08478">
        <ele>2173</ele>
        <time>2024-06-06T01:11:02+00:00</time>
      </trkpt>
      <trkpt lat="45.24306" lon="6.08477">
        <ele>2173</ele>
        <time>2024-06-06T01:11:05+00:00</time>
      </trkpt>
      <trkpt lat="45.24308" lon="6.08477">
        <ele>2173</ele>
        <time>2024-06-06T01:11:08+00:00</time>
      </trkpt>
      <trkpt lat="45.24309" lon="6.08478">
        <ele>2173</ele>
        <time>2024-06-06T01:11:11+00:00</time>
      </trkpt>
      <trkpt lat="45.24312" lon="6.0848">
        <ele>2180</ele>
        <time>2024-06-06T01:11:14+00:00</time>
      </trkpt>
      <trkpt lat="45.24314" lon="6.08481">
        <ele>2180</ele>
        <time>2024-06-06T01:11:17+00:00</time>
      </trkpt>
      <trkpt lat="45.24316" lon="6.08482">
        <ele>2176</ele>
        <time>2024-06-06T01:11:20+00:00</time>
      </trkpt>
      <trkpt lat="45.24319" lon="6.08481">
        <ele>2180</ele>
        <time>2024-06-06T01:11:23+00:00</time>
      </trkpt>
      <trkpt lat="45.24327" lon="6.08474">
        <ele>2178</ele>
        <time>2024-06-06T01:11:26+00:00</time>
      </trkpt>
      <trkpt lat="45.2433" lon="6.08471">
        <ele>2178</ele>
        <time>2024-06-06T01:11:29+00:00</time>
      </trkpt>
      <trkpt lat="45.24333" lon="6.08468">
        <ele>2177</ele>
        <time>2024-06-06T01:11:32+00:00</time>
      </trkpt>
      <trkpt lat="45.24337" lon="6.08467">
        <ele>2177</ele>
        <time>2024-06-06T01:11:35+00:00</time>
      </trkpt>
      <trkpt lat="45.24343" lon="6.08466">
        <ele>2177</ele>
        <time>2024-06-06T01:11:38+00:00</time>
      </trkpt>
      <trkpt lat="45.24348" lon="6.08467">
        <ele>2177</ele>
        <time>2024-06-06T01:11:41+00:00</time>
      </trkpt>
      <trkpt lat="45.24352" lon="6.08467">
        <ele>2177</ele>
        <time>2024-06-06T01:11:44+00:00</time>
      </trkpt>
      <trkpt lat="45.24356" lon="6.08467">
        <ele>2177</ele>
        <time>2024-06-06T01:11:47+00:00</time>
      </trkpt>
      <trkpt lat="45.24361" lon="6.08464">
        <ele>2176</ele>
        <time>2024-06-06T01:11:50+00:00</time>
      </trkpt>
      <trkpt lat="45.24368" lon="6.08463">
        <ele>2176</ele>
        <time>2024-06-06T01:11:53+00:00</time>
      </trkpt>
      <trkpt lat="45.24376" lon="6.0846">
        <ele>2176</ele>
        <time>2024-06-06T01:11:56+00:00</time>
      </trkpt>
      <trkpt lat="45.24385" lon="6.08457">
        <ele>2173</ele>
        <time>2024-06-06T01:11:59+00:00</time>
      </trkpt>
      <trkpt lat="45.24392" lon="6.08455">
        <ele>2175</ele>
        <time>2024-06-06T01:12:02+00:00</time>
      </trkpt>
      <trkpt lat="45.24399" lon="6.08451">
        <ele>2175</ele>
        <time>2024-06-06T01:12:05+00:00</time>
      </trkpt>
      <trkpt lat="45.24405" lon="6.0845">
        <ele>2177</ele>
        <time>2024-06-06T01:12:08+00:00</time>
      </trkpt>
      <trkpt lat="45.24413" lon="6.08449">
        <ele>2173</ele>
        <time>2024-06-06T01:12:11+00:00</time>
      </trkpt>
      <trkpt lat="45.24421" lon="6.08449">
        <ele>2175</ele>
        <time>2024-06-06T01:12:14+00:00</time>
      </trkpt>
      <trkpt lat="45.2443" lon="6.08449">
        <ele>2174</ele>
        <time>2024-06-06T01:12:17+00:00</time>
      </trkpt>
      <trkpt lat="45.24436" lon="6.08448">
        <ele>2174</ele>
        <time>2024-06-06T01:12:20+00:00</time>
      </trkpt>
      <trkpt lat="45.24442" lon="6.08447">
        <ele>2175</ele>
        <time>2024-06-06T01:12:23+00:00</time>
      </trkpt>
      <trkpt lat="45.24446" lon="6.08444">
        <ele>2175</ele>
        <time>2024-06-06T01:12:26+00:00</time>
      </trkpt>
      <trkpt lat="45.24448" lon="6.08441">
        <ele>2175</ele>
        <time>2024-06-06T01:12:29+00:00</time>
      </trkpt>
      <trkpt lat="45.24458" lon="6.08436">
        <ele>2172</ele>
        <time>2024-06-06T01:12:32+00:00</time>
      </trkpt>
      <trkpt lat="45.24466" lon="6.08432">
        <ele>2175</ele>
        <time>2024-06-06T01:12:35+00:00</time>
      </trkpt>
      <trkpt lat="45.24473" lon="6.08428">
        <ele>2172</ele>
        <time>2024-06-06T01:12:38+00:00</time>
      </trkpt>
      <trkpt lat="45.24477" lon="6.08426">
        <ele>2172</ele>
        <time>2024-06-06T01:12:41+00:00</time>
      </trkpt>
      <trkpt lat="45.24486" lon="6.08423">
        <ele>2174</ele>
        <time>2024-06-06T01:12:44+00:00</time>
      </trkpt>
      <trkpt lat="45.24497" lon="6.08419">
        <ele>2169</ele>
        <time>2024-06-06T01:12:47+00:00</time>
      </trkpt>
      <trkpt lat="45.24504" lon="6.08416">
        <ele>2171</ele>
        <time>2024-06-06T01:12:50+00:00</time>
      </trkpt>
      <trkpt lat="45.24508" lon="6.08414">
        <ele>2171</ele>
        <time>2024-06-06T01:12:53+00:00</time>
      </trkpt>
      <trkpt lat="45.24509" lon="6.08413">
        <ele>2171</ele>
        <time>2024-06-06T01:12:56+00:00</time>
      </trkpt>
      <trkpt lat="45.2451" lon="6.08411">
        <ele>2174</ele>
        <time>2024-06-06T01:12:59+00:00</time>
      </trkpt>
      <trkpt lat="45.24511" lon="6.08409">
        <ele>2170</ele>
        <time>2024-06-06T01:13:02+00:00</time>
      </trkpt>
      <trkpt lat="45.24513" lon="6.08407">
        <ele>2170</ele>
        <time>2024-06-06T01:13:05+00:00</time>
      </trkpt>
      <trkpt lat="45.2452" lon="6.084">
        <ele>2170</ele>
        <time>2024-06-06T01:13:08+00:00</time>
      </trkpt>
      <trkpt lat="45.24526" lon="6.08394">
        <ele>2168</ele>
        <time>2024-06-06T01:13:11+00:00</time>
      </trkpt>
      <trkpt lat="45.24529" lon="6.0839">
        <ele>2168</ele>
        <time>2024-06-06T01:13:14+00:00</time>
      </trkpt>
      <trkpt lat="45.2453" lon="6.08386">
        <ele>2165</ele>
        <time>2024-06-06T01:13:17+00:00</time>
      </trkpt>
      <trkpt lat="45.24533" lon="6.08382">
        <ele>2165</ele>
        <time>2024-06-06T01:13:20+00:00</time>
      </trkpt>
      <trkpt lat="45.24541" lon="6.08374">
        <ele>2166</ele>
        <time>2024-06-06T01:13:23+00:00</time>
      </trkpt>
      <trkpt lat="45.2455" lon="6.08364">
        <ele>2166</ele>
        <time>2024-06-06T01:13:26+00:00</time>
      </trkpt>
      <trkpt lat="45.24559" lon="6.08355">
        <ele>2157</ele>
        <time>2024-06-06T01:13:29+00:00</time>
      </trkpt>
      <trkpt lat="45.24568" lon="6.08345">
        <ele>2156</ele>
        <time>2024-06-06T01:13:32+00:00</time>
      </trkpt>
      <trkpt lat="45.24577" lon="6.08333">
        <ele>2157</ele>
        <time>2024-06-06T01:13:35+00:00</time>
      </trkpt>
      <trkpt lat="45.24585" lon="6.08325">
        <ele>2153</ele>
        <time>2024-06-06T01:13:38+00:00</time>
      </trkpt>
      <trkpt lat="45.24587" lon="6.08323">
        <ele>2153</ele>
        <time>2024-06-06T01:13:41+00:00</time>
      </trkpt>
      <trkpt lat="45.24588" lon="6.08322">
        <ele>2153</ele>
        <time>2024-06-06T01:13:44+00:00</time>
      </trkpt>
      <trkpt lat="45.2459" lon="6.08321">
        <ele>2156</ele>
        <time>2024-06-06T01:13:47+00:00</time>
      </trkpt>
      <trkpt lat="45.24592" lon="6.08321">
        <ele>2156</ele>
        <time>2024-06-06T01:13:50+00:00</time>
      </trkpt>
      <trkpt lat="45.24596" lon="6.08322">
        <ele>2157</ele>
        <time>2024-06-06T01:13:53+00:00</time>
      </trkpt>
      <trkpt lat="45.246" lon="6.08323">
        <ele>2157</ele>
        <time>2024-06-06T01:13:56+00:00</time>
      </trkpt>
      <trkpt lat="45.24605" lon="6.08324">
        <ele>2157</ele>
        <time>2024-06-06T01:13:59+00:00</time>
      </trkpt>
      <trkpt lat="45.24608" lon="6.08324">
        <ele>2157</ele>
        <time>2024-06-06T01:14:02+00:00</time>
      </trkpt>
      <trkpt lat="45.2461" lon="6.08325">
        <ele>2158</ele>
        <time>2024-06-06T01:14:05+00:00</time>
      </trkpt>
      <trkpt lat="45.24612" lon="6.08324">
        <ele>2158</ele>
        <time>2024-06-06T01:14:08+00:00</time>
      </trkpt>
      <trkpt lat="45.24616" lon="6.08322">
        <ele>2157</ele>
        <time>2024-06-06T01:14:11+00:00</time>
      </trkpt>
      <trkpt lat="45.24621" lon="6.08317">
        <ele>2156</ele>
        <time>2024-06-06T01:14:14+00:00</time>
      </trkpt>
      <trkpt lat="45.24625" lon="6.08315">
        <ele>2156</ele>
        <time>2024-06-06T01:14:17+00:00</time>
      </trkpt>
      <trkpt lat="45.24628" lon="6.08314">
        <ele>2156</ele>
        <time>2024-06-06T01:14:20+00:00</time>
      </trkpt>
      <trkpt lat="45.2463" lon="6.08314">
        <ele>2157</ele>
        <time>2024-06-06T01:14:23+00:00</time>
      </trkpt>
      <trkpt lat="45.24633" lon="6.08316">
        <ele>2157</ele>
        <time>2024-06-06T01:14:26+00:00</time>
      </trkpt>
      <trkpt lat="45.24637" lon="6.08317">
        <ele>2157</ele>
        <time>2024-06-06T01:14:29+00:00</time>
      </trkpt>
      <trkpt lat="45.24641" lon="6.08318">
        <ele>2157</ele>
        <time>2024-06-06T01:14:32+00:00</time>
      </trkpt>
      <trkpt lat="45.24645" lon="6.08318">
        <ele>2157</ele>
        <time>2024-06-06T01:14:35+00:00</time>
      </trkpt>
      <trkpt lat="45.2465" lon="6.08317">
        <ele>2159</ele>
        <time>2024-06-06T01:14:38+00:00</time>
      </trkpt>
      <trkpt lat="45.24652" lon="6.08318">
        <ele>2159</ele>
        <time>2024-06-06T01:14:41+00:00</time>
      </trkpt>
      <trkpt lat="45.24654" lon="6.08316">
        <ele>2159</ele>
        <time>2024-06-06T01:14:44+00:00</time>
      </trkpt>
      <trkpt lat="45.24657" lon="6.08313">
        <ele>2159</ele>
        <time>2024-06-06T01:14:47+00:00</time>
      </trkpt>
      <trkpt lat="45.24658" lon="6.08311">
        <ele>2159</ele>
        <time>2024-06-06T01:14:50+00:00</time>
      </trkpt>
      <trkpt lat="45.24664" lon="6.08309">
        <ele>2158</ele>
        <time>2024-06-06T01:14:53+00:00</time>
      </trkpt>
      <trkpt lat="45.24669" lon="6.08307">
        <ele>2158</ele>
        <time>2024-06-06T01:14:56+00:00</time>
      </trkpt>
      <trkpt lat="45.24674" lon="6.08305">
        <ele>2160</ele>
        <time>2024-06-06T01:14:59+00:00</time>
      </trkpt>
      <trkpt lat="45.24677" lon="6.08303">
        <ele>2158</ele>
        <time>2024-06-06T01:15:02+00:00</time>
      </trkpt>
      <trkpt lat="45.2468" lon="6.08302">
        <ele>2160</ele>
        <time>2024-06-06T01:15:05+00:00</time>
      </trkpt>
      <trkpt lat="45.24682" lon="6.08302">
        <ele>2160</ele>
        <time>2024-06-06T01:15:08+00:00</time>
      </trkpt>
      <trkpt lat="45.24684" lon="6.08302">
        <ele>2160</ele>
        <time>2024-06-06T01:15:11+00:00</time>
      </trkpt>
      <trkpt lat="45.24689" lon="6.08303">
        <ele>2160</ele>
        <time>2024-06-06T01:15:14+00:00</time>
      </trkpt>
      <trkpt lat="45.24697" lon="6.08303">
        <ele>2158</ele>
        <time>2024-06-06T01:15:17+00:00</time>
      </trkpt>
      <trkpt lat="45.247" lon="6.08301">
        <ele>2156</ele>
        <time>2024-06-06T01:15:20+00:00</time>
      </trkpt>
      <trkpt lat="45.24704" lon="6.08298">
        <ele>2152</ele>
        <time>2024-06-06T01:15:23+00:00</time>
      </trkpt>
      <trkpt lat="45.24708" lon="6.08292">
        <ele>2152</ele>
        <time>2024-06-06T01:15:26+00:00</time>
      </trkpt>
      <trkpt lat="45.24711" lon="6.08286">
        <ele>2152</ele>
        <time>2024-06-06T01:15:29+00:00</time>
      </trkpt>
      <trkpt lat="45.24712" lon="6.0828">
        <ele>2152</ele>
        <time>2024-06-06T01:15:32+00:00</time>
      </trkpt>
      <trkpt lat="45.24715" lon="6.08274">
        <ele>2149</ele>
        <time>2024-06-06T01:15:35+00:00</time>
      </trkpt>
      <trkpt lat="45.24721" lon="6.08269">
        <ele>2150</ele>
        <time>2024-06-06T01:15:38+00:00</time>
      </trkpt>
      <trkpt lat="45.24725" lon="6.08264">
        <ele>2150</ele>
        <time>2024-06-06T01:15:41+00:00</time>
      </trkpt>
      <trkpt lat="45.24726" lon="6.08262">
        <ele>2150</ele>
        <time>2024-06-06T01:15:44+00:00</time>
      </trkpt>
      <trkpt lat="45.24727" lon="6.0826">
        <ele>2150</ele>
        <time>2024-06-06T01:15:47+00:00</time>
      </trkpt>
      <trkpt lat="45.24729" lon="6.08258">
        <ele>2147</ele>
        <time>2024-06-06T01:15:50+00:00</time>
      </trkpt>
      <trkpt lat="45.24732" lon="6.0825">
        <ele>2148</ele>
        <time>2024-06-06T01:15:53+00:00</time>
      </trkpt>
      <trkpt lat="45.24734" lon="6.08246">
        <ele>2148</ele>
        <time>2024-06-06T01:15:56+00:00</time>
      </trkpt>
      <trkpt lat="45.24736" lon="6.08244">
        <ele>2148</ele>
        <time>2024-06-06T01:15:59+00:00</time>
      </trkpt>
      <trkpt lat="45.24739" lon="6.08242">
        <ele>2148</ele>
        <time>2024-06-06T01:16:02+00:00</time>
      </trkpt>
      <trkpt lat="45.24744" lon="6.0824">
        <ele>2149</ele>
        <time>2024-06-06T01:16:05+00:00</time>
      </trkpt>
      <trkpt lat="45.24755" lon="6.0824">
        <ele>2146</ele>
        <time>2024-06-06T01:16:08+00:00</time>
      </trkpt>
      <trkpt lat="45.24758" lon="6.0824">
        <ele>2146</ele>
        <time>2024-06-06T01:16:11+00:00</time>
      </trkpt>
      <trkpt lat="45.2476" lon="6.08239">
        <ele>2149</ele>
        <time>2024-06-06T01:16:14+00:00</time>
      </trkpt>
      <trkpt lat="45.24761" lon="6.08239">
        <ele>2145</ele>
        <time>2024-06-06T01:16:17+00:00</time>
      </trkpt>
      <trkpt lat="45.24763" lon="6.08241">
        <ele>2149</ele>
        <time>2024-06-06T01:16:20+00:00</time>
      </trkpt>
      <trkpt lat="45.24766" lon="6.08245">
        <ele>2149</ele>
        <time>2024-06-06T01:16:23+00:00</time>
      </trkpt>
      <trkpt lat="45.24768" lon="6.08258">
        <ele>2151</ele>
        <time>2024-06-06T01:16:26+00:00</time>
      </trkpt>
      <trkpt lat="45.24771" lon="6.08264">
        <ele>2149</ele>
        <time>2024-06-06T01:16:29+00:00</time>
      </trkpt>
      <trkpt lat="45.24773" lon="6.08269">
        <ele>2151</ele>
        <time>2024-06-06T01:16:32+00:00</time>
      </trkpt>
      <trkpt lat="45.24775" lon="6.08272">
        <ele>2154</ele>
        <time>2024-06-06T01:16:35+00:00</time>
      </trkpt>
      <trkpt lat="45.24778" lon="6.08273">
        <ele>2154</ele>
        <time>2024-06-06T01:16:38+00:00</time>
      </trkpt>
      <trkpt lat="45.24785" lon="6.08276">
        <ele>2150</ele>
        <time>2024-06-06T01:16:41+00:00</time>
      </trkpt>
      <trkpt lat="45.2479" lon="6.08276">
        <ele>2144</ele>
        <time>2024-06-06T01:16:44+00:00</time>
      </trkpt>
      <trkpt lat="45.24792" lon="6.08274">
        <ele>2150</ele>
        <time>2024-06-06T01:16:47+00:00</time>
      </trkpt>
      <trkpt lat="45.24793" lon="6.08271">
        <ele>2150</ele>
        <time>2024-06-06T01:16:50+00:00</time>
      </trkpt>
      <trkpt lat="45.24796" lon="6.08265">
        <ele>2147</ele>
        <time>2024-06-06T01:16:53+00:00</time>
      </trkpt>
      <trkpt lat="45.24812" lon="6.08229">
        <ele>2140</ele>
        <time>2024-06-06T01:16:56+00:00</time>
      </trkpt>
      <trkpt lat="45.24816" lon="6.08223">
        <ele>2140</ele>
        <time>2024-06-06T01:16:59+00:00</time>
      </trkpt>
      <trkpt lat="45.24819" lon="6.0822">
        <ele>2140</ele>
        <time>2024-06-06T01:17:02+00:00</time>
      </trkpt>
      <trkpt lat="45.24822" lon="6.08219">
        <ele>2140</ele>
        <time>2024-06-06T01:17:05+00:00</time>
      </trkpt>
      <trkpt lat="45.24826" lon="6.08218">
        <ele>2140</ele>
        <time>2024-06-06T01:17:08+00:00</time>
      </trkpt>
      <trkpt lat="45.2483" lon="6.08218">
        <ele>2140</ele>
        <time>2024-06-06T01:17:11+00:00</time>
      </trkpt>
      <trkpt lat="45.24834" lon="6.08217">
        <ele>2142</ele>
        <time>2024-06-06T01:17:14+00:00</time>
      </trkpt>
      <trkpt lat="45.2484" lon="6.08217">
        <ele>2142</ele>
        <time>2024-06-06T01:17:17+00:00</time>
      </trkpt>
      <trkpt lat="45.24843" lon="6.08214">
        <ele>2142</ele>
        <time>2024-06-06T01:17:20+00:00</time>
      </trkpt>
      <trkpt lat="45.24846" lon="6.08214">
        <ele>2142</ele>
        <time>2024-06-06T01:17:23+00:00</time>
      </trkpt>
      <trkpt lat="45.2485" lon="6.08218">
        <ele>2140</ele>
        <time>2024-06-06T01:17:26+00:00</time>
      </trkpt>
      <trkpt lat="45.24853" lon="6.08218">
        <ele>2141</ele>
        <time>2024-06-06T01:17:29+00:00</time>
      </trkpt>
      <trkpt lat="45.24857" lon="6.08221">
        <ele>2143</ele>
        <time>2024-06-06T01:17:32+00:00</time>
      </trkpt>
      <trkpt lat="45.24858" lon="6.08222">
        <ele>2143</ele>
        <time>2024-06-06T01:17:35+00:00</time>
      </trkpt>
      <trkpt lat="45.24862" lon="6.08224">
        <ele>2141</ele>
        <time>2024-06-06T01:17:38+00:00</time>
      </trkpt>
      <trkpt lat="45.24862" lon="6.08219">
        <ele>2139</ele>
        <time>2024-06-06T01:17:41+00:00</time>
      </trkpt>
      <trkpt lat="45.2486" lon="6.08213">
        <ele>2137</ele>
        <time>2024-06-06T01:17:44+00:00</time>
      </trkpt>
      <trkpt lat="45.24863" lon="6.08211">
        <ele>2139</ele>
        <time>2024-06-06T01:17:47+00:00</time>
      </trkpt>
      <trkpt lat="45.24867" lon="6.08212">
        <ele>2139</ele>
        <time>2024-06-06T01:17:50+00:00</time>
      </trkpt>
      <trkpt lat="45.2487" lon="6.08213">
        <ele>2139</ele>
        <time>2024-06-06T01:17:53+00:00</time>
      </trkpt>
      <trkpt lat="45.24873" lon="6.08217">
        <ele>2135</ele>
        <time>2024-06-06T01:17:56+00:00</time>
      </trkpt>
      <trkpt lat="45.24876" lon="6.08212">
        <ele>2135</ele>
        <time>2024-06-06T01:17:59+00:00</time>
      </trkpt>
      <trkpt lat="45.24879" lon="6.0821">
        <ele>2135</ele>
        <time>2024-06-06T01:18:02+00:00</time>
      </trkpt>
      <trkpt lat="45.2488" lon="6.08209">
        <ele>2132</ele>
        <time>2024-06-06T01:18:05+00:00</time>
      </trkpt>
      <trkpt lat="45.24882" lon="6.08208">
        <ele>2132</ele>
        <time>2024-06-06T01:18:08+00:00</time>
      </trkpt>
      <trkpt lat="45.24884" lon="6.08207">
        <ele>2132</ele>
        <time>2024-06-06T01:18:11+00:00</time>
      </trkpt>
      <trkpt lat="45.24885" lon="6.08206">
        <ele>2132</ele>
        <time>2024-06-06T01:18:14+00:00</time>
      </trkpt>
      <trkpt lat="45.24886" lon="6.08205">
        <ele>2132</ele>
        <time>2024-06-06T01:18:17+00:00</time>
      </trkpt>
      <trkpt lat="45.24887" lon="6.08203">
        <ele>2132</ele>
        <time>2024-06-06T01:18:20+00:00</time>
      </trkpt>
      <trkpt lat="45.24888" lon="6.08196">
        <ele>2133</ele>
        <time>2024-06-06T01:18:23+00:00</time>
      </trkpt>
      <trkpt lat="45.24889" lon="6.08195">
        <ele>2133</ele>
        <time>2024-06-06T01:18:26+00:00</time>
      </trkpt>
      <trkpt lat="45.24897" lon="6.08185">
        <ele>2135</ele>
        <time>2024-06-06T01:18:29+00:00</time>
      </trkpt>
      <trkpt lat="45.24922" lon="6.08193">
        <ele>2133</ele>
        <time>2024-06-06T01:18:32+00:00</time>
      </trkpt>
      <trkpt lat="45.2493" lon="6.08193">
        <ele>2137</ele>
        <time>2024-06-06T01:18:35+00:00</time>
      </trkpt>
      <trkpt lat="45.2493" lon="6.08195">
        <ele>2137</ele>
        <time>2024-06-06T01:18:38+00:00</time>
      </trkpt>
      <trkpt lat="45.24932" lon="6.08201">
        <ele>2135</ele>
        <time>2024-06-06T01:18:41+00:00</time>
      </trkpt>
      <trkpt lat="45.24936" lon="6.08199">
        <ele>2135</ele>
        <time>2024-06-06T01:18:44+00:00</time>
      </trkpt>
      <trkpt lat="45.24959" lon="6.08193">
        <ele>2132</ele>
        <time>2024-06-06T01:18:47+00:00</time>
      </trkpt>
      <trkpt lat="45.24961" lon="6.08196">
        <ele>2132</ele>
        <time>2024-06-06T01:18:50+00:00</time>
      </trkpt>
      <trkpt lat="45.24963" lon="6.082">
        <ele>2132</ele>
        <time>2024-06-06T01:18:53+00:00</time>
      </trkpt>
      <trkpt lat="45.24965" lon="6.08203">
        <ele>2132</ele>
        <time>2024-06-06T01:18:56+00:00</time>
      </trkpt>
      <trkpt lat="45.24967" lon="6.08207">
        <ele>2132</ele>
        <time>2024-06-06T01:18:59+00:00</time>
      </trkpt>
      <trkpt lat="45.2497" lon="6.0821">
        <ele>2132</ele>
        <time>2024-06-06T01:19:02+00:00</time>
      </trkpt>
      <trkpt lat="45.24972" lon="6.0821">
        <ele>2132</ele>
        <time>2024-06-06T01:19:05+00:00</time>
      </trkpt>
      <trkpt lat="45.24974" lon="6.0821">
        <ele>2132</ele>
        <time>2024-06-06T01:19:08+00:00</time>
      </trkpt>
      <trkpt lat="45.24982" lon="6.08214">
        <ele>2132</ele>
        <time>2024-06-06T01:19:11+00:00</time>
      </trkpt>
      <trkpt lat="45.24984" lon="6.08216">
        <ele>2132</ele>
        <time>2024-06-06T01:19:14+00:00</time>
      </trkpt>
      <trkpt lat="45.24986" lon="6.08216">
        <ele>2132</ele>
        <time>2024-06-06T01:19:17+00:00</time>
      </trkpt>
      <trkpt lat="45.24993" lon="6.08213">
        <ele>2132</ele>
        <time>2024-06-06T01:19:20+00:00</time>
      </trkpt>
      <trkpt lat="45.24996" lon="6.08213">
        <ele>2132</ele>
        <time>2024-06-06T01:19:23+00:00</time>
      </trkpt>
      <trkpt lat="45.24999" lon="6.08214">
        <ele>2132</ele>
        <time>2024-06-06T01:19:26+00:00</time>
      </trkpt>
      <trkpt lat="45.25004" lon="6.08214">
        <ele>2133</ele>
        <time>2024-06-06T01:19:29+00:00</time>
      </trkpt>
      <trkpt lat="45.25005" lon="6.08213">
        <ele>2133</ele>
        <time>2024-06-06T01:19:32+00:00</time>
      </trkpt>
      <trkpt lat="45.25008" lon="6.08211">
        <ele>2133</ele>
        <time>2024-06-06T01:19:35+00:00</time>
      </trkpt>
      <trkpt lat="45.2501" lon="6.08208">
        <ele>2132</ele>
        <time>2024-06-06T01:19:38+00:00</time>
      </trkpt>
      <trkpt lat="45.25013" lon="6.08203">
        <ele>2132</ele>
        <time>2024-06-06T01:19:41+00:00</time>
      </trkpt>
      <trkpt lat="45.25015" lon="6.08194">
        <ele>2132</ele>
        <time>2024-06-06T01:19:44+00:00</time>
      </trkpt>
      <trkpt lat="45.25016" lon="6.08188">
        <ele>2132</ele>
        <time>2024-06-06T01:19:47+00:00</time>
      </trkpt>
      <trkpt lat="45.2502" lon="6.08175">
        <ele>2132</ele>
        <time>2024-06-06T01:19:50+00:00</time>
      </trkpt>
      <trkpt lat="45.25021" lon="6.08167">
        <ele>2135</ele>
        <time>2024-06-06T01:19:53+00:00</time>
      </trkpt>
      <trkpt lat="45.25022" lon="6.08162">
        <ele>2135</ele>
        <time>2024-06-06T01:19:56+00:00</time>
      </trkpt>
      <trkpt lat="45.25022" lon="6.08156">
        <ele>2135</ele>
        <time>2024-06-06T01:19:59+00:00</time>
      </trkpt>
      <trkpt lat="45.25022" lon="6.0815">
        <ele>2136</ele>
        <time>2024-06-06T01:20:02+00:00</time>
      </trkpt>
      <trkpt lat="45.25021" lon="6.08137">
        <ele>2136</ele>
        <time>2024-06-06T01:20:05+00:00</time>
      </trkpt>
      <trkpt lat="45.25021" lon="6.08133">
        <ele>2136</ele>
        <time>2024-06-06T01:20:08+00:00</time>
      </trkpt>
      <trkpt lat="45.25022" lon="6.08129">
        <ele>2136</ele>
        <time>2024-06-06T01:20:11+00:00</time>
      </trkpt>
      <trkpt lat="45.25024" lon="6.08123">
        <ele>2136</ele>
        <time>2024-06-06T01:20:14+00:00</time>
      </trkpt>
      <trkpt lat="45.25027" lon="6.08115">
        <ele>2136</ele>
        <time>2024-06-06T01:20:17+00:00</time>
      </trkpt>
      <trkpt lat="45.25028" lon="6.08112">
        <ele>2136</ele>
        <time>2024-06-06T01:20:20+00:00</time>
      </trkpt>
      <trkpt lat="45.2503" lon="6.08107">
        <ele>2138</ele>
        <time>2024-06-06T01:20:23+00:00</time>
      </trkpt>
      <trkpt lat="45.25032" lon="6.08101">
        <ele>2138</ele>
        <time>2024-06-06T01:20:26+00:00</time>
      </trkpt>
      <trkpt lat="45.25034" lon="6.08095">
        <ele>2138</ele>
        <time>2024-06-06T01:20:29+00:00</time>
      </trkpt>
      <trkpt lat="45.25036" lon="6.08089">
        <ele>2138</ele>
        <time>2024-06-06T01:20:32+00:00</time>
      </trkpt>
      <trkpt lat="45.25037" lon="6.08087">
        <ele>2134</ele>
        <time>2024-06-06T01:20:35+00:00</time>
      </trkpt>
      <trkpt lat="45.25039" lon="6.08084">
        <ele>2138</ele>
        <time>2024-06-06T01:20:38+00:00</time>
      </trkpt>
      <trkpt lat="45.25041" lon="6.08082">
        <ele>2136</ele>
        <time>2024-06-06T01:20:41+00:00</time>
      </trkpt>
      <trkpt lat="45.25044" lon="6.0808">
        <ele>2135</ele>
        <time>2024-06-06T01:20:44+00:00</time>
      </trkpt>
      <trkpt lat="45.25046" lon="6.08077">
        <ele>2135</ele>
        <time>2024-06-06T01:20:47+00:00</time>
      </trkpt>
      <trkpt lat="45.25051" lon="6.08069">
        <ele>2132</ele>
        <time>2024-06-06T01:20:50+00:00</time>
      </trkpt>
      <trkpt lat="45.25052" lon="6.08068">
        <ele>2133</ele>
        <time>2024-06-06T01:20:53+00:00</time>
      </trkpt>
      <trkpt lat="45.25056" lon="6.08067">
        <ele>2132</ele>
        <time>2024-06-06T01:20:56+00:00</time>
      </trkpt>
      <trkpt lat="45.25058" lon="6.08064">
        <ele>2132</ele>
        <time>2024-06-06T01:20:59+00:00</time>
      </trkpt>
      <trkpt lat="45.25062" lon="6.08061">
        <ele>2133</ele>
        <time>2024-06-06T01:21:02+00:00</time>
      </trkpt>
      <trkpt lat="45.25076" lon="6.08043">
        <ele>2133</ele>
        <time>2024-06-06T01:21:05+00:00</time>
      </trkpt>
      <trkpt lat="45.25078" lon="6.08038">
        <ele>2130</ele>
        <time>2024-06-06T01:21:08+00:00</time>
      </trkpt>
      <trkpt lat="45.2508" lon="6.08032">
        <ele>2137</ele>
        <time>2024-06-06T01:21:11+00:00</time>
      </trkpt>
      <trkpt lat="45.25085" lon="6.08027">
        <ele>2130</ele>
        <time>2024-06-06T01:21:14+00:00</time>
      </trkpt>
      <trkpt lat="45.25089" lon="6.08025">
        <ele>2130</ele>
        <time>2024-06-06T01:21:17+00:00</time>
      </trkpt>
      <trkpt lat="45.25092" lon="6.08022">
        <ele>2131</ele>
        <time>2024-06-06T01:21:20+00:00</time>
      </trkpt>
      <trkpt lat="45.25095" lon="6.08019">
        <ele>2130</ele>
        <time>2024-06-06T01:21:23+00:00</time>
      </trkpt>
      <trkpt lat="45.251" lon="6.08016">
        <ele>2135</ele>
        <time>2024-06-06T01:21:26+00:00</time>
      </trkpt>
      <trkpt lat="45.25103" lon="6.08013">
        <ele>2135</ele>
        <time>2024-06-06T01:21:29+00:00</time>
      </trkpt>
      <trkpt lat="45.25105" lon="6.08011">
        <ele>2135</ele>
        <time>2024-06-06T01:21:32+00:00</time>
      </trkpt>
      <trkpt lat="45.25106" lon="6.0801">
        <ele>2135</ele>
        <time>2024-06-06T01:21:35+00:00</time>
      </trkpt>
      <trkpt lat="45.25106" lon="6.0801">
        <ele>2135</ele>
        <time>2024-06-06T01:21:38+00:00</time>
      </trkpt>
      <trkpt lat="45.25108" lon="6.08003">
        <ele>2130</ele>
        <time>2024-06-06T01:21:41+00:00</time>
      </trkpt>
      <trkpt lat="45.25109" lon="6.08001">
        <ele>2130</ele>
        <time>2024-06-06T01:21:44+00:00</time>
      </trkpt>
      <trkpt lat="45.25113" lon="6.08">
        <ele>2122</ele>
        <time>2024-06-06T01:21:47+00:00</time>
      </trkpt>
      <trkpt lat="45.25115" lon="6.07999">
        <ele>2122</ele>
        <time>2024-06-06T01:21:50+00:00</time>
      </trkpt>
      <trkpt lat="45.25118" lon="6.07996">
        <ele>2122</ele>
        <time>2024-06-06T01:21:53+00:00</time>
      </trkpt>
      <trkpt lat="45.25121" lon="6.07993">
        <ele>2130</ele>
        <time>2024-06-06T01:21:56+00:00</time>
      </trkpt>
      <trkpt lat="45.25123" lon="6.07991">
        <ele>2130</ele>
        <time>2024-06-06T01:21:59+00:00</time>
      </trkpt>
      <trkpt lat="45.25128" lon="6.0799">
        <ele>2130</ele>
        <time>2024-06-06T01:22:02+00:00</time>
      </trkpt>
      <trkpt lat="45.25135" lon="6.07989">
        <ele>2129</ele>
        <time>2024-06-06T01:22:05+00:00</time>
      </trkpt>
      <trkpt lat="45.25141" lon="6.07987">
        <ele>2134</ele>
        <time>2024-06-06T01:22:08+00:00</time>
      </trkpt>
      <trkpt lat="45.25145" lon="6.07986">
        <ele>2134</ele>
        <time>2024-06-06T01:22:11+00:00</time>
      </trkpt>
      <trkpt lat="45.25148" lon="6.07986">
        <ele>2134</ele>
        <time>2024-06-06T01:22:14+00:00</time>
      </trkpt>
      <trkpt lat="45.25151" lon="6.07986">
        <ele>2135</ele>
        <time>2024-06-06T01:22:17+00:00</time>
      </trkpt>
      <trkpt lat="45.25154" lon="6.07986">
        <ele>2135</ele>
        <time>2024-06-06T01:22:20+00:00</time>
      </trkpt>
      <trkpt lat="45.25159" lon="6.07987">
        <ele>2135</ele>
        <time>2024-06-06T01:22:23+00:00</time>
      </trkpt>
      <trkpt lat="45.25165" lon="6.07987">
        <ele>2134</ele>
        <time>2024-06-06T01:22:26+00:00</time>
      </trkpt>
      <trkpt lat="45.25174" lon="6.07986">
        <ele>2134</ele>
        <time>2024-06-06T01:22:29+00:00</time>
      </trkpt>
      <trkpt lat="45.25178" lon="6.07986">
        <ele>2134</ele>
        <time>2024-06-06T01:22:32+00:00</time>
      </trkpt>
      <trkpt lat="45.25182" lon="6.07988">
        <ele>2133</ele>
        <time>2024-06-06T01:22:35+00:00</time>
      </trkpt>
      <trkpt lat="45.25185" lon="6.07988">
        <ele>2133</ele>
        <time>2024-06-06T01:22:38+00:00</time>
      </trkpt>
      <trkpt lat="45.25187" lon="6.07991">
        <ele>2135</ele>
        <time>2024-06-06T01:22:41+00:00</time>
      </trkpt>
      <trkpt lat="45.25188" lon="6.07994">
        <ele>2135</ele>
        <time>2024-06-06T01:22:44+00:00</time>
      </trkpt>
      <trkpt lat="45.2519" lon="6.07995">
        <ele>2135</ele>
        <time>2024-06-06T01:22:47+00:00</time>
      </trkpt>
      <trkpt lat="45.25193" lon="6.07998">
        <ele>2132</ele>
        <time>2024-06-06T01:22:50+00:00</time>
      </trkpt>
      <trkpt lat="45.25201" lon="6.07998">
        <ele>2129</ele>
        <time>2024-06-06T01:22:53+00:00</time>
      </trkpt>
      <trkpt lat="45.25204" lon="6.07998">
        <ele>2129</ele>
        <time>2024-06-06T01:22:56+00:00</time>
      </trkpt>
      <trkpt lat="45.2521" lon="6.07998">
        <ele>2129</ele>
        <time>2024-06-06T01:22:59+00:00</time>
      </trkpt>
      <trkpt lat="45.25213" lon="6.07999">
        <ele>2131</ele>
        <time>2024-06-06T01:23:02+00:00</time>
      </trkpt>
      <trkpt lat="45.25215" lon="6.07999">
        <ele>2128</ele>
        <time>2024-06-06T01:23:05+00:00</time>
      </trkpt>
      <trkpt lat="45.2522" lon="6.08001">
        <ele>2132</ele>
        <time>2024-06-06T01:23:08+00:00</time>
      </trkpt>
      <trkpt lat="45.25226" lon="6.08006">
        <ele>2131</ele>
        <time>2024-06-06T01:23:11+00:00</time>
      </trkpt>
      <trkpt lat="45.25228" lon="6.08008">
        <ele>2131</ele>
        <time>2024-06-06T01:23:14+00:00</time>
      </trkpt>
      <trkpt lat="45.25231" lon="6.08012">
        <ele>2130</ele>
        <time>2024-06-06T01:23:17+00:00</time>
      </trkpt>
      <trkpt lat="45.25234" lon="6.08025">
        <ele>2133</ele>
        <time>2024-06-06T01:23:20+00:00</time>
      </trkpt>
      <trkpt lat="45.25234" lon="6.08008">
        <ele>2128</ele>
        <time>2024-06-06T01:23:23+00:00</time>
      </trkpt>
      <trkpt lat="45.25233" lon="6.07996">
        <ele>2125</ele>
        <time>2024-06-06T01:23:26+00:00</time>
      </trkpt>
      <trkpt lat="45.25231" lon="6.07989">
        <ele>2123</ele>
        <time>2024-06-06T01:23:29+00:00</time>
      </trkpt>
      <trkpt lat="45.25231" lon="6.07979">
        <ele>2121</ele>
        <time>2024-06-06T01:23:32+00:00</time>
      </trkpt>
      <trkpt lat="45.25236" lon="6.07976">
        <ele>2121</ele>
        <time>2024-06-06T01:23:35+00:00</time>
      </trkpt>
      <trkpt lat="45.25238" lon="6.07978">
        <ele>2121</ele>
        <time>2024-06-06T01:23:38+00:00</time>
      </trkpt>
      <trkpt lat="45.2524" lon="6.07981">
        <ele>2123</ele>
        <time>2024-06-06T01:23:41+00:00</time>
      </trkpt>
      <trkpt lat="45.25242" lon="6.07984">
        <ele>2120</ele>
        <time>2024-06-06T01:23:44+00:00</time>
      </trkpt>
      <trkpt lat="45.25244" lon="6.07983">
        <ele>2120</ele>
        <time>2024-06-06T01:23:47+00:00</time>
      </trkpt>
      <trkpt lat="45.25246" lon="6.07981">
        <ele>2120</ele>
        <time>2024-06-06T01:23:50+00:00</time>
      </trkpt>
      <trkpt lat="45.25249" lon="6.0798">
        <ele>2120</ele>
        <time>2024-06-06T01:23:53+00:00</time>
      </trkpt>
      <trkpt lat="45.25251" lon="6.07982">
        <ele>2117</ele>
        <time>2024-06-06T01:23:56+00:00</time>
      </trkpt>
      <trkpt lat="45.25253" lon="6.07985">
        <ele>2117</ele>
        <time>2024-06-06T01:23:59+00:00</time>
      </trkpt>
      <trkpt lat="45.25255" lon="6.07989">
        <ele>2117</ele>
        <time>2024-06-06T01:24:02+00:00</time>
      </trkpt>
      <trkpt lat="45.25257" lon="6.07992">
        <ele>2119</ele>
        <time>2024-06-06T01:24:05+00:00</time>
      </trkpt>
      <trkpt lat="45.25259" lon="6.07995">
        <ele>2119</ele>
        <time>2024-06-06T01:24:08+00:00</time>
      </trkpt>
      <trkpt lat="45.25262" lon="6.07999">
        <ele>2115</ele>
        <time>2024-06-06T01:24:11+00:00</time>
      </trkpt>
      <trkpt lat="45.25266" lon="6.08002">
        <ele>2115</ele>
        <time>2024-06-06T01:24:14+00:00</time>
      </trkpt>
      <trkpt lat="45.25269" lon="6.08007">
        <ele>2115</ele>
        <time>2024-06-06T01:24:17+00:00</time>
      </trkpt>
      <trkpt lat="45.25271" lon="6.0801">
        <ele>2114</ele>
        <time>2024-06-06T01:24:20+00:00</time>
      </trkpt>
      <trkpt lat="45.25273" lon="6.08013">
        <ele>2114</ele>
        <time>2024-06-06T01:24:23+00:00</time>
      </trkpt>
      <trkpt lat="45.25276" lon="6.08015">
        <ele>2114</ele>
        <time>2024-06-06T01:24:26+00:00</time>
      </trkpt>
      <trkpt lat="45.25278" lon="6.08016">
        <ele>2114</ele>
        <time>2024-06-06T01:24:29+00:00</time>
      </trkpt>
      <trkpt lat="45.25282" lon="6.08016">
        <ele>2113</ele>
        <time>2024-06-06T01:24:32+00:00</time>
      </trkpt>
      <trkpt lat="45.25292" lon="6.08009">
        <ele>2112</ele>
        <time>2024-06-06T01:24:35+00:00</time>
      </trkpt>
      <trkpt lat="45.25299" lon="6.08001">
        <ele>2112</ele>
        <time>2024-06-06T01:24:38+00:00</time>
      </trkpt>
      <trkpt lat="45.25311" lon="6.08003">
        <ele>2112</ele>
        <time>2024-06-06T01:24:41+00:00</time>
      </trkpt>
      <trkpt lat="45.25316" lon="6.08">
        <ele>2112</ele>
        <time>2024-06-06T01:24:44+00:00</time>
      </trkpt>
      <trkpt lat="45.25325" lon="6.07981">
        <ele>2110</ele>
        <time>2024-06-06T01:24:47+00:00</time>
      </trkpt>
      <trkpt lat="45.25333" lon="6.07977">
        <ele>2109</ele>
        <time>2024-06-06T01:24:50+00:00</time>
      </trkpt>
      <trkpt lat="45.25335" lon="6.07973">
        <ele>2109</ele>
        <time>2024-06-06T01:24:53+00:00</time>
      </trkpt>
      <trkpt lat="45.25334" lon="6.07961">
        <ele>2108</ele>
        <time>2024-06-06T01:24:56+00:00</time>
      </trkpt>
      <trkpt lat="45.2534" lon="6.07946">
        <ele>2107</ele>
        <time>2024-06-06T01:24:59+00:00</time>
      </trkpt>
      <trkpt lat="45.25342" lon="6.07934">
        <ele>2108</ele>
        <time>2024-06-06T01:25:02+00:00</time>
      </trkpt>
      <trkpt lat="45.25345" lon="6.07921">
        <ele>2107</ele>
        <time>2024-06-06T01:25:05+00:00</time>
      </trkpt>
      <trkpt lat="45.25349" lon="6.07911">
        <ele>2107</ele>
        <time>2024-06-06T01:25:08+00:00</time>
      </trkpt>
      <trkpt lat="45.25353" lon="6.07905">
        <ele>2110</ele>
        <time>2024-06-06T01:25:11+00:00</time>
      </trkpt>
      <trkpt lat="45.25361" lon="6.07888">
        <ele>2111</ele>
        <time>2024-06-06T01:25:14+00:00</time>
      </trkpt>
      <trkpt lat="45.2536" lon="6.0787">
        <ele>2112</ele>
        <time>2024-06-06T01:25:17+00:00</time>
      </trkpt>
      <trkpt lat="45.25363" lon="6.07858">
        <ele>2113</ele>
        <time>2024-06-06T01:25:20+00:00</time>
      </trkpt>
      <trkpt lat="45.25363" lon="6.07858">
        <ele>2113</ele>
        <time>2024-06-06T01:25:23+00:00</time>
      </trkpt>
      <trkpt lat="45.25362" lon="6.07848">
        <ele>2113</ele>
        <time>2024-06-06T01:25:26+00:00</time>
      </trkpt>
      <trkpt lat="45.25362" lon="6.07831">
        <ele>2114</ele>
        <time>2024-06-06T01:25:29+00:00</time>
      </trkpt>
      <trkpt lat="45.2536" lon="6.07814">
        <ele>2116</ele>
        <time>2024-06-06T01:25:32+00:00</time>
      </trkpt>
      <trkpt lat="45.25363" lon="6.07807">
        <ele>2115</ele>
        <time>2024-06-06T01:25:35+00:00</time>
      </trkpt>
      <trkpt lat="45.25368" lon="6.07795">
        <ele>2113</ele>
        <time>2024-06-06T01:25:38+00:00</time>
      </trkpt>
      <trkpt lat="45.25375" lon="6.07787">
        <ele>2115</ele>
        <time>2024-06-06T01:25:41+00:00</time>
      </trkpt>
      <trkpt lat="45.25382" lon="6.07773">
        <ele>2113</ele>
        <time>2024-06-06T01:25:44+00:00</time>
      </trkpt>
      <trkpt lat="45.25391" lon="6.07764">
        <ele>2112</ele>
        <time>2024-06-06T01:25:47+00:00</time>
      </trkpt>
      <trkpt lat="45.25392" lon="6.07763">
        <ele>2112</ele>
        <time>2024-06-06T01:25:50+00:00</time>
      </trkpt>
      <trkpt lat="45.25403" lon="6.07757">
        <ele>2109</ele>
        <time>2024-06-06T01:25:53+00:00</time>
      </trkpt>
      <trkpt lat="45.25411" lon="6.07754">
        <ele>2109</ele>
        <time>2024-06-06T01:25:56+00:00</time>
      </trkpt>
      <trkpt lat="45.25414" lon="6.07753">
        <ele>2109</ele>
        <time>2024-06-06T01:25:59+00:00</time>
      </trkpt>
      <trkpt lat="45.25416" lon="6.07752">
        <ele>2109</ele>
        <time>2024-06-06T01:26:02+00:00</time>
      </trkpt>
      <trkpt lat="45.25418" lon="6.07752">
        <ele>2109</ele>
        <time>2024-06-06T01:26:05+00:00</time>
      </trkpt>
      <trkpt lat="45.25425" lon="6.07755">
        <ele>2108</ele>
        <time>2024-06-06T01:26:08+00:00</time>
      </trkpt>
      <trkpt lat="45.25428" lon="6.07755">
        <ele>2108</ele>
        <time>2024-06-06T01:26:11+00:00</time>
      </trkpt>
      <trkpt lat="45.25449" lon="6.07752">
        <ele>2107</ele>
        <time>2024-06-06T01:26:14+00:00</time>
      </trkpt>
      <trkpt lat="45.25451" lon="6.07753">
        <ele>2106</ele>
        <time>2024-06-06T01:26:17+00:00</time>
      </trkpt>
      <trkpt lat="45.25453" lon="6.07754">
        <ele>2106</ele>
        <time>2024-06-06T01:26:20+00:00</time>
      </trkpt>
      <trkpt lat="45.25454" lon="6.07756">
        <ele>2106</ele>
        <time>2024-06-06T01:26:23+00:00</time>
      </trkpt>
      <trkpt lat="45.25455" lon="6.07758">
        <ele>2106</ele>
        <time>2024-06-06T01:26:26+00:00</time>
      </trkpt>
      <trkpt lat="45.25456" lon="6.07759">
        <ele>2106</ele>
        <time>2024-06-06T01:26:29+00:00</time>
      </trkpt>
      <trkpt lat="45.25458" lon="6.07759">
        <ele>2106</ele>
        <time>2024-06-06T01:26:32+00:00</time>
      </trkpt>
      <trkpt lat="45.25463" lon="6.07758">
        <ele>2105</ele>
        <time>2024-06-06T01:26:35+00:00</time>
      </trkpt>
      <trkpt lat="45.2547" lon="6.07756">
        <ele>2104</ele>
        <time>2024-06-06T01:26:38+00:00</time>
      </trkpt>
      <trkpt lat="45.25473" lon="6.07754">
        <ele>2104</ele>
        <time>2024-06-06T01:26:41+00:00</time>
      </trkpt>
      <trkpt lat="45.25481" lon="6.07741">
        <ele>2101</ele>
        <time>2024-06-06T01:26:44+00:00</time>
      </trkpt>
      <trkpt lat="45.25483" lon="6.07737">
        <ele>2097</ele>
        <time>2024-06-06T01:26:47+00:00</time>
      </trkpt>
      <trkpt lat="45.25485" lon="6.07735">
        <ele>2097</ele>
        <time>2024-06-06T01:26:50+00:00</time>
      </trkpt>
      <trkpt lat="45.25486" lon="6.07734">
        <ele>2097</ele>
        <time>2024-06-06T01:26:53+00:00</time>
      </trkpt>
      <trkpt lat="45.25492" lon="6.07734">
        <ele>2097</ele>
        <time>2024-06-06T01:26:56+00:00</time>
      </trkpt>
      <trkpt lat="45.25507" lon="6.07735">
        <ele>2096</ele>
        <time>2024-06-06T01:26:59+00:00</time>
      </trkpt>
      <trkpt lat="45.25516" lon="6.07739">
        <ele>2096</ele>
        <time>2024-06-06T01:27:02+00:00</time>
      </trkpt>
      <trkpt lat="45.25517" lon="6.07722">
        <ele>2094</ele>
        <time>2024-06-06T01:27:05+00:00</time>
      </trkpt>
      <trkpt lat="45.25516" lon="6.07709">
        <ele>2093</ele>
        <time>2024-06-06T01:27:08+00:00</time>
      </trkpt>
      <trkpt lat="45.25518" lon="6.07697">
        <ele>2093</ele>
        <time>2024-06-06T01:27:11+00:00</time>
      </trkpt>
      <trkpt lat="45.2552" lon="6.07687">
        <ele>2092</ele>
        <time>2024-06-06T01:27:14+00:00</time>
      </trkpt>
      <trkpt lat="45.25518" lon="6.07671">
        <ele>2092</ele>
        <time>2024-06-06T01:27:17+00:00</time>
      </trkpt>
      <trkpt lat="45.25515" lon="6.07649">
        <ele>2091</ele>
        <time>2024-06-06T01:27:20+00:00</time>
      </trkpt>
      <trkpt lat="45.25516" lon="6.07644">
        <ele>2091</ele>
        <time>2024-06-06T01:27:23+00:00</time>
      </trkpt>
      <trkpt lat="45.2552" lon="6.07638">
        <ele>2092</ele>
        <time>2024-06-06T01:27:26+00:00</time>
      </trkpt>
      <trkpt lat="45.25529" lon="6.07636">
        <ele>2092</ele>
        <time>2024-06-06T01:27:29+00:00</time>
      </trkpt>
      <trkpt lat="45.25537" lon="6.07646">
        <ele>2091</ele>
        <time>2024-06-06T01:27:32+00:00</time>
      </trkpt>
      <trkpt lat="45.25534" lon="6.07653">
        <ele>2090</ele>
        <time>2024-06-06T01:27:35+00:00</time>
      </trkpt>
      <trkpt lat="45.25541" lon="6.07657">
        <ele>2090</ele>
        <time>2024-06-06T01:27:38+00:00</time>
      </trkpt>
      <trkpt lat="45.25553" lon="6.07647">
        <ele>2089</ele>
        <time>2024-06-06T01:27:41+00:00</time>
      </trkpt>
      <trkpt lat="45.25558" lon="6.0765">
        <ele>2089</ele>
        <time>2024-06-06T01:27:44+00:00</time>
      </trkpt>
      <trkpt lat="45.25566" lon="6.07657">
        <ele>2086</ele>
        <time>2024-06-06T01:27:47+00:00</time>
      </trkpt>
      <trkpt lat="45.25572" lon="6.07651">
        <ele>2082</ele>
        <time>2024-06-06T01:27:50+00:00</time>
      </trkpt>
      <trkpt lat="45.25578" lon="6.07652">
        <ele>2082</ele>
        <time>2024-06-06T01:27:53+00:00</time>
      </trkpt>
      <trkpt lat="45.25581" lon="6.0765">
        <ele>2079</ele>
        <time>2024-06-06T01:27:56+00:00</time>
      </trkpt>
      <trkpt lat="45.25583" lon="6.07646">
        <ele>2079</ele>
        <time>2024-06-06T01:27:59+00:00</time>
      </trkpt>
      <trkpt lat="45.25584" lon="6.07642">
        <ele>2079</ele>
        <time>2024-06-06T01:28:02+00:00</time>
      </trkpt>
      <trkpt lat="45.25587" lon="6.07639">
        <ele>2080</ele>
        <time>2024-06-06T01:28:05+00:00</time>
      </trkpt>
      <trkpt lat="45.25589" lon="6.07643">
        <ele>2079</ele>
        <time>2024-06-06T01:28:08+00:00</time>
      </trkpt>
      <trkpt lat="45.25591" lon="6.07647">
        <ele>2076</ele>
        <time>2024-06-06T01:28:11+00:00</time>
      </trkpt>
      <trkpt lat="45.25592" lon="6.07647">
        <ele>2076</ele>
        <time>2024-06-06T01:28:14+00:00</time>
      </trkpt>
      <trkpt lat="45.25593" lon="6.07642">
        <ele>2076</ele>
        <time>2024-06-06T01:28:17+00:00</time>
      </trkpt>
      <trkpt lat="45.25593" lon="6.07636">
        <ele>2076</ele>
        <time>2024-06-06T01:28:20+00:00</time>
      </trkpt>
      <trkpt lat="45.25594" lon="6.07633">
        <ele>2076</ele>
        <time>2024-06-06T01:28:23+00:00</time>
      </trkpt>
      <trkpt lat="45.25595" lon="6.07629">
        <ele>2076</ele>
        <time>2024-06-06T01:28:26+00:00</time>
      </trkpt>
      <trkpt lat="45.25596" lon="6.07627">
        <ele>2076</ele>
        <time>2024-06-06T01:28:29+00:00</time>
      </trkpt>
      <trkpt lat="45.25598" lon="6.07624">
        <ele>2076</ele>
        <time>2024-06-06T01:28:32+00:00</time>
      </trkpt>
      <trkpt lat="45.25601" lon="6.07621">
        <ele>2067</ele>
        <time>2024-06-06T01:28:35+00:00</time>
      </trkpt>
      <trkpt lat="45.25604" lon="6.07617">
        <ele>2067</ele>
        <time>2024-06-06T01:28:38+00:00</time>
      </trkpt>
      <trkpt lat="45.25605" lon="6.07612">
        <ele>2067</ele>
        <time>2024-06-06T01:28:41+00:00</time>
      </trkpt>
      <trkpt lat="45.25605" lon="6.07609">
        <ele>2067</ele>
        <time>2024-06-06T01:28:44+00:00</time>
      </trkpt>
      <trkpt lat="45.25607" lon="6.07605">
        <ele>2067</ele>
        <time>2024-06-06T01:28:47+00:00</time>
      </trkpt>
      <trkpt lat="45.25609" lon="6.07604">
        <ele>2067</ele>
        <time>2024-06-06T01:28:50+00:00</time>
      </trkpt>
      <trkpt lat="45.25611" lon="6.07602">
        <ele>2061</ele>
        <time>2024-06-06T01:28:53+00:00</time>
      </trkpt>
      <trkpt lat="45.25611" lon="6.07598">
        <ele>2060</ele>
        <time>2024-06-06T01:28:56+00:00</time>
      </trkpt>
      <trkpt lat="45.25611" lon="6.07591">
        <ele>2060</ele>
        <time>2024-06-06T01:28:59+00:00</time>
      </trkpt>
      <trkpt lat="45.25613" lon="6.07591">
        <ele>2060</ele>
        <time>2024-06-06T01:29:02+00:00</time>
      </trkpt>
      <trkpt lat="45.25615" lon="6.07593">
        <ele>2060</ele>
        <time>2024-06-06T01:29:05+00:00</time>
      </trkpt>
      <trkpt lat="45.25617" lon="6.07597">
        <ele>2060</ele>
        <time>2024-06-06T01:29:08+00:00</time>
      </trkpt>
      <trkpt lat="45.25621" lon="6.07607">
        <ele>2056</ele>
        <time>2024-06-06T01:29:11+00:00</time>
      </trkpt>
      <trkpt lat="45.25623" lon="6.0761">
        <ele>2056</ele>
        <time>2024-06-06T01:29:14+00:00</time>
      </trkpt>
      <trkpt lat="45.25623" lon="6.07605">
        <ele>2056</ele>
        <time>2024-06-06T01:29:17+00:00</time>
      </trkpt>
      <trkpt lat="45.25624" lon="6.07601">
        <ele>2056</ele>
        <time>2024-06-06T01:29:20+00:00</time>
      </trkpt>
      <trkpt lat="45.25625" lon="6.07596">
        <ele>2055</ele>
        <time>2024-06-06T01:29:23+00:00</time>
      </trkpt>
      <trkpt lat="45.25626" lon="6.07588">
        <ele>2055</ele>
        <time>2024-06-06T01:29:26+00:00</time>
      </trkpt>
      <trkpt lat="45.25637" lon="6.07607">
        <ele>2048</ele>
        <time>2024-06-06T01:29:29+00:00</time>
      </trkpt>
      <trkpt lat="45.25651" lon="6.07571">
        <ele>2038</ele>
        <time>2024-06-06T01:29:32+00:00</time>
      </trkpt>
      <trkpt lat="45.25668" lon="6.07618">
        <ele>2025</ele>
        <time>2024-06-06T01:29:35+00:00</time>
      </trkpt>
      <trkpt lat="45.25675" lon="6.07582">
        <ele>2019</ele>
        <time>2024-06-06T01:29:38+00:00</time>
      </trkpt>
      <trkpt lat="45.25675" lon="6.07582">
        <ele>2019</ele>
        <time>2024-06-06T01:29:41+00:00</time>
      </trkpt>
      <trkpt lat="45.25676" lon="6.07583">
        <ele>2019</ele>
        <time>2024-06-06T01:29:44+00:00</time>
      </trkpt>
      <trkpt lat="45.25684" lon="6.07597">
        <ele>2013</ele>
        <time>2024-06-06T01:29:47+00:00</time>
      </trkpt>
      <trkpt lat="45.25692" lon="6.07607">
        <ele>2004</ele>
        <time>2024-06-06T01:29:50+00:00</time>
      </trkpt>
      <trkpt lat="45.25693" lon="6.07612">
        <ele>2005</ele>
        <time>2024-06-06T01:29:53+00:00</time>
      </trkpt>
      <trkpt lat="45.25695" lon="6.07617">
        <ele>2005</ele>
        <time>2024-06-06T01:29:56+00:00</time>
      </trkpt>
      <trkpt lat="45.257" lon="6.07628">
        <ele>2005</ele>
        <time>2024-06-06T01:29:59+00:00</time>
      </trkpt>
      <trkpt lat="45.25701" lon="6.0763">
        <ele>1998</ele>
        <time>2024-06-06T01:30:02+00:00</time>
      </trkpt>
      <trkpt lat="45.25701" lon="6.07627">
        <ele>1998</ele>
        <time>2024-06-06T01:30:05+00:00</time>
      </trkpt>
      <trkpt lat="45.25701" lon="6.07623">
        <ele>1998</ele>
        <time>2024-06-06T01:30:08+00:00</time>
      </trkpt>
      <trkpt lat="45.25701" lon="6.0761">
        <ele>1997</ele>
        <time>2024-06-06T01:30:11+00:00</time>
      </trkpt>
      <trkpt lat="45.25701" lon="6.07609">
        <ele>1997</ele>
        <time>2024-06-06T01:30:14+00:00</time>
      </trkpt>
      <trkpt lat="45.25706" lon="6.07617">
        <ele>1998</ele>
        <time>2024-06-06T01:30:17+00:00</time>
      </trkpt>
      <trkpt lat="45.25707" lon="6.07616">
        <ele>1998</ele>
        <time>2024-06-06T01:30:20+00:00</time>
      </trkpt>
      <trkpt lat="45.25707" lon="6.07608">
        <ele>1997</ele>
        <time>2024-06-06T01:30:23+00:00</time>
      </trkpt>
      <trkpt lat="45.25709" lon="6.07607">
        <ele>1997</ele>
        <time>2024-06-06T01:30:26+00:00</time>
      </trkpt>
      <trkpt lat="45.25711" lon="6.07612">
        <ele>1989</ele>
        <time>2024-06-06T01:30:29+00:00</time>
      </trkpt>
      <trkpt lat="45.2571" lon="6.07597">
        <ele>1986</ele>
        <time>2024-06-06T01:30:32+00:00</time>
      </trkpt>
      <trkpt lat="45.25711" lon="6.07589">
        <ele>1985</ele>
        <time>2024-06-06T01:30:35+00:00</time>
      </trkpt>
      <trkpt lat="45.25714" lon="6.07585">
        <ele>1985</ele>
        <time>2024-06-06T01:30:38+00:00</time>
      </trkpt>
      <trkpt lat="45.25716" lon="6.07579">
        <ele>1986</ele>
        <time>2024-06-06T01:30:41+00:00</time>
      </trkpt>
      <trkpt lat="45.25717" lon="6.07574">
        <ele>1986</ele>
        <time>2024-06-06T01:30:44+00:00</time>
      </trkpt>
      <trkpt lat="45.25718" lon="6.07577">
        <ele>1986</ele>
        <time>2024-06-06T01:30:47+00:00</time>
      </trkpt>
      <trkpt lat="45.25721" lon="6.07585">
        <ele>1972</ele>
        <time>2024-06-06T01:30:50+00:00</time>
      </trkpt>
      <trkpt lat="45.25725" lon="6.07581">
        <ele>1972</ele>
        <time>2024-06-06T01:30:53+00:00</time>
      </trkpt>
      <trkpt lat="45.25727" lon="6.07587">
        <ele>1972</ele>
        <time>2024-06-06T01:30:56+00:00</time>
      </trkpt>
      <trkpt lat="45.25728" lon="6.07585">
        <ele>1972</ele>
        <time>2024-06-06T01:30:59+00:00</time>
      </trkpt>
      <trkpt lat="45.25728" lon="6.07581">
        <ele>1972</ele>
        <time>2024-06-06T01:31:02+00:00</time>
      </trkpt>
      <trkpt lat="45.25728" lon="6.07576">
        <ele>1972</ele>
        <time>2024-06-06T01:31:05+00:00</time>
      </trkpt>
      <trkpt lat="45.25724" lon="6.07566">
        <ele>1972</ele>
        <time>2024-06-06T01:31:08+00:00</time>
      </trkpt>
      <trkpt lat="45.25725" lon="6.07562">
        <ele>1972</ele>
        <time>2024-06-06T01:31:11+00:00</time>
      </trkpt>
      <trkpt lat="45.25728" lon="6.07562">
        <ele>1972</ele>
        <time>2024-06-06T01:31:14+00:00</time>
      </trkpt>
      <trkpt lat="45.25732" lon="6.07566">
        <ele>1963</ele>
        <time>2024-06-06T01:31:17+00:00</time>
      </trkpt>
      <trkpt lat="45.25737" lon="6.07567">
        <ele>1963</ele>
        <time>2024-06-06T01:31:20+00:00</time>
      </trkpt>
      <trkpt lat="45.25737" lon="6.07564">
        <ele>1963</ele>
        <time>2024-06-06T01:31:23+00:00</time>
      </trkpt>
      <trkpt lat="45.25735" lon="6.07559">
        <ele>1960</ele>
        <time>2024-06-06T01:31:26+00:00</time>
      </trkpt>
      <trkpt lat="45.25733" lon="6.07547">
        <ele>1957</ele>
        <time>2024-06-06T01:31:29+00:00</time>
      </trkpt>
      <trkpt lat="45.25733" lon="6.0754">
        <ele>1957</ele>
        <time>2024-06-06T01:31:32+00:00</time>
      </trkpt>
      <trkpt lat="45.25734" lon="6.07537">
        <ele>1957</ele>
        <time>2024-06-06T01:31:35+00:00</time>
      </trkpt>
      <trkpt lat="45.25735" lon="6.07534">
        <ele>1957</ele>
        <time>2024-06-06T01:31:38+00:00</time>
      </trkpt>
      <trkpt lat="45.25745" lon="6.07544">
        <ele>1955</ele>
        <time>2024-06-06T01:31:41+00:00</time>
      </trkpt>
      <trkpt lat="45.2575" lon="6.07546">
        <ele>1935</ele>
        <time>2024-06-06T01:31:44+00:00</time>
      </trkpt>
      <trkpt lat="45.25752" lon="6.07545">
        <ele>1935</ele>
        <time>2024-06-06T01:31:47+00:00</time>
      </trkpt>
      <trkpt lat="45.25751" lon="6.0754">
        <ele>1938</ele>
        <time>2024-06-06T01:31:50+00:00</time>
      </trkpt>
      <trkpt lat="45.25751" lon="6.07536">
        <ele>1938</ele>
        <time>2024-06-06T01:31:53+00:00</time>
      </trkpt>
      <trkpt lat="45.25749" lon="6.0753">
        <ele>1954</ele>
        <time>2024-06-06T01:31:56+00:00</time>
      </trkpt>
      <trkpt lat="45.25749" lon="6.07526">
        <ele>1954</ele>
        <time>2024-06-06T01:31:59+00:00</time>
      </trkpt>
      <trkpt lat="45.25752" lon="6.07524">
        <ele>1944</ele>
        <time>2024-06-06T01:32:02+00:00</time>
      </trkpt>
      <trkpt lat="45.25762" lon="6.07518">
        <ele>1949</ele>
        <time>2024-06-06T01:32:05+00:00</time>
      </trkpt>
      <trkpt lat="45.25766" lon="6.07521">
        <ele>1938</ele>
        <time>2024-06-06T01:32:08+00:00</time>
      </trkpt>
      <trkpt lat="45.2577" lon="6.07523">
        <ele>1931</ele>
        <time>2024-06-06T01:32:11+00:00</time>
      </trkpt>
      <trkpt lat="45.25773" lon="6.07525">
        <ele>1931</ele>
        <time>2024-06-06T01:32:14+00:00</time>
      </trkpt>
      <trkpt lat="45.25775" lon="6.07524">
        <ele>1931</ele>
        <time>2024-06-06T01:32:17+00:00</time>
      </trkpt>
      <trkpt lat="45.25778" lon="6.07518">
        <ele>1940</ele>
        <time>2024-06-06T01:32:20+00:00</time>
      </trkpt>
      <trkpt lat="45.25781" lon="6.07515">
        <ele>1925</ele>
        <time>2024-06-06T01:32:23+00:00</time>
      </trkpt>
      <trkpt lat="45.25783" lon="6.07513">
        <ele>1925</ele>
        <time>2024-06-06T01:32:26+00:00</time>
      </trkpt>
      <trkpt lat="45.25784" lon="6.07518">
        <ele>1925</ele>
        <time>2024-06-06T01:32:29+00:00</time>
      </trkpt>
      <trkpt lat="45.25785" lon="6.07527">
        <ele>1919</ele>
        <time>2024-06-06T01:32:32+00:00</time>
      </trkpt>
      <trkpt lat="45.25787" lon="6.07537">
        <ele>1915</ele>
        <time>2024-06-06T01:32:35+00:00</time>
      </trkpt>
      <trkpt lat="45.25789" lon="6.07537">
        <ele>1915</ele>
        <time>2024-06-06T01:32:38+00:00</time>
      </trkpt>
      <trkpt lat="45.25792" lon="6.07531">
        <ele>1908</ele>
        <time>2024-06-06T01:32:41+00:00</time>
      </trkpt>
      <trkpt lat="45.25796" lon="6.07524">
        <ele>1911</ele>
        <time>2024-06-06T01:32:44+00:00</time>
      </trkpt>
      <trkpt lat="45.258" lon="6.07516">
        <ele>1915</ele>
        <time>2024-06-06T01:32:47+00:00</time>
      </trkpt>
      <trkpt lat="45.25803" lon="6.07508">
        <ele>1907</ele>
        <time>2024-06-06T01:32:50+00:00</time>
      </trkpt>
      <trkpt lat="45.25802" lon="6.07499">
        <ele>1911</ele>
        <time>2024-06-06T01:32:53+00:00</time>
      </trkpt>
      <trkpt lat="45.25802" lon="6.07495">
        <ele>1911</ele>
        <time>2024-06-06T01:32:56+00:00</time>
      </trkpt>
      <trkpt lat="45.25805" lon="6.07491">
        <ele>1911</ele>
        <time>2024-06-06T01:32:59+00:00</time>
      </trkpt>
      <trkpt lat="45.25807" lon="6.07493">
        <ele>1911</ele>
        <time>2024-06-06T01:33:02+00:00</time>
      </trkpt>
      <trkpt lat="45.2581" lon="6.07496">
        <ele>1886</ele>
        <time>2024-06-06T01:33:05+00:00</time>
      </trkpt>
      <trkpt lat="45.25815" lon="6.075">
        <ele>1886</ele>
        <time>2024-06-06T01:33:08+00:00</time>
      </trkpt>
      <trkpt lat="45.25817" lon="6.07503">
        <ele>1887</ele>
        <time>2024-06-06T01:33:11+00:00</time>
      </trkpt>
      <trkpt lat="45.2582" lon="6.07514">
        <ele>1883</ele>
        <time>2024-06-06T01:33:14+00:00</time>
      </trkpt>
      <trkpt lat="45.25822" lon="6.07521">
        <ele>1885</ele>
        <time>2024-06-06T01:33:17+00:00</time>
      </trkpt>
      <trkpt lat="45.25825" lon="6.07512">
        <ele>1883</ele>
        <time>2024-06-06T01:33:20+00:00</time>
      </trkpt>
      <trkpt lat="45.25829" lon="6.07501">
        <ele>1880</ele>
        <time>2024-06-06T01:33:23+00:00</time>
      </trkpt>
      <trkpt lat="45.2583" lon="6.07495">
        <ele>1877</ele>
        <time>2024-06-06T01:33:26+00:00</time>
      </trkpt>
      <trkpt lat="45.25829" lon="6.07484">
        <ele>1881</ele>
        <time>2024-06-06T01:33:29+00:00</time>
      </trkpt>
      <trkpt lat="45.25827" lon="6.07477">
        <ele>1876</ele>
        <time>2024-06-06T01:33:32+00:00</time>
      </trkpt>
      <trkpt lat="45.25827" lon="6.0747">
        <ele>1878</ele>
        <time>2024-06-06T01:33:35+00:00</time>
      </trkpt>
      <trkpt lat="45.25829" lon="6.07462">
        <ele>1878</ele>
        <time>2024-06-06T01:33:38+00:00</time>
      </trkpt>
      <trkpt lat="45.25829" lon="6.07458">
        <ele>1880</ele>
        <time>2024-06-06T01:33:41+00:00</time>
      </trkpt>
      <trkpt lat="45.25829" lon="6.07451">
        <ele>1880</ele>
        <time>2024-06-06T01:33:44+00:00</time>
      </trkpt>
      <trkpt lat="45.25828" lon="6.07445">
        <ele>1879</ele>
        <time>2024-06-06T01:33:47+00:00</time>
      </trkpt>
      <trkpt lat="45.25829" lon="6.07436">
        <ele>1876</ele>
        <time>2024-06-06T01:33:50+00:00</time>
      </trkpt>
      <trkpt lat="45.25832" lon="6.07432">
        <ele>1873</ele>
        <time>2024-06-06T01:33:53+00:00</time>
      </trkpt>
      <trkpt lat="45.25835" lon="6.07429">
        <ele>1868</ele>
        <time>2024-06-06T01:33:56+00:00</time>
      </trkpt>
      <trkpt lat="45.2584" lon="6.07426">
        <ele>1868</ele>
        <time>2024-06-06T01:33:59+00:00</time>
      </trkpt>
      <trkpt lat="45.25844" lon="6.07422">
        <ele>1862</ele>
        <time>2024-06-06T01:34:02+00:00</time>
      </trkpt>
      <trkpt lat="45.25849" lon="6.07419">
        <ele>1866</ele>
        <time>2024-06-06T01:34:05+00:00</time>
      </trkpt>
      <trkpt lat="45.25853" lon="6.07415">
        <ele>1862</ele>
        <time>2024-06-06T01:34:08+00:00</time>
      </trkpt>
      <trkpt lat="45.25858" lon="6.07411">
        <ele>1862</ele>
        <time>2024-06-06T01:34:11+00:00</time>
      </trkpt>
      <trkpt lat="45.25861" lon="6.07411">
        <ele>1857</ele>
        <time>2024-06-06T01:34:14+00:00</time>
      </trkpt>
      <trkpt lat="45.25861" lon="6.07417">
        <ele>1857</ele>
        <time>2024-06-06T01:34:17+00:00</time>
      </trkpt>
      <trkpt lat="45.25862" lon="6.07419">
        <ele>1857</ele>
        <time>2024-06-06T01:34:20+00:00</time>
      </trkpt>
      <trkpt lat="45.25865" lon="6.07419">
        <ele>1857</ele>
        <time>2024-06-06T01:34:23+00:00</time>
      </trkpt>
      <trkpt lat="45.25868" lon="6.07414">
        <ele>1857</ele>
        <time>2024-06-06T01:34:26+00:00</time>
      </trkpt>
      <trkpt lat="45.25879" lon="6.07396">
        <ele>1855</ele>
        <time>2024-06-06T01:34:29+00:00</time>
      </trkpt>
      <trkpt lat="45.2588" lon="6.07393">
        <ele>1851</ele>
        <time>2024-06-06T01:34:32+00:00</time>
      </trkpt>
      <trkpt lat="45.25884" lon="6.0739">
        <ele>1854</ele>
        <time>2024-06-06T01:34:35+00:00</time>
      </trkpt>
      <trkpt lat="45.25889" lon="6.07384">
        <ele>1854</ele>
        <time>2024-06-06T01:34:38+00:00</time>
      </trkpt>
      <trkpt lat="45.25891" lon="6.07377">
        <ele>1851</ele>
        <time>2024-06-06T01:34:41+00:00</time>
      </trkpt>
      <trkpt lat="45.25891" lon="6.07375">
        <ele>1851</ele>
        <time>2024-06-06T01:34:44+00:00</time>
      </trkpt>
      <trkpt lat="45.25896" lon="6.07367">
        <ele>1852</ele>
        <time>2024-06-06T01:34:47+00:00</time>
      </trkpt>
      <trkpt lat="45.259" lon="6.07363">
        <ele>1844</ele>
        <time>2024-06-06T01:34:50+00:00</time>
      </trkpt>
      <trkpt lat="45.25903" lon="6.0736">
        <ele>1844</ele>
        <time>2024-06-06T01:34:53+00:00</time>
      </trkpt>
      <trkpt lat="45.25907" lon="6.07354">
        <ele>1847</ele>
        <time>2024-06-06T01:34:56+00:00</time>
      </trkpt>
      <trkpt lat="45.2591" lon="6.07349">
        <ele>1849</ele>
        <time>2024-06-06T01:34:59+00:00</time>
      </trkpt>
      <trkpt lat="45.25911" lon="6.07346">
        <ele>1843</ele>
        <time>2024-06-06T01:35:02+00:00</time>
      </trkpt>
      <trkpt lat="45.25913" lon="6.07343">
        <ele>1843</ele>
        <time>2024-06-06T01:35:05+00:00</time>
      </trkpt>
      <trkpt lat="45.25914" lon="6.07337">
        <ele>1844</ele>
        <time>2024-06-06T01:35:08+00:00</time>
      </trkpt>
      <trkpt lat="45.25915" lon="6.07332">
        <ele>1844</ele>
        <time>2024-06-06T01:35:11+00:00</time>
      </trkpt>
      <trkpt lat="45.25916" lon="6.07326">
        <ele>1846</ele>
        <time>2024-06-06T01:35:14+00:00</time>
      </trkpt>
      <trkpt lat="45.25917" lon="6.0732">
        <ele>1846</ele>
        <time>2024-06-06T01:35:17+00:00</time>
      </trkpt>
      <trkpt lat="45.2592" lon="6.07316">
        <ele>1846</ele>
        <time>2024-06-06T01:35:20+00:00</time>
      </trkpt>
      <trkpt lat="45.2592" lon="6.07313">
        <ele>1846</ele>
        <time>2024-06-06T01:35:23+00:00</time>
      </trkpt>
      <trkpt lat="45.2592" lon="6.07308">
        <ele>1841</ele>
        <time>2024-06-06T01:35:26+00:00</time>
      </trkpt>
      <trkpt lat="45.25921" lon="6.07304">
        <ele>1841</ele>
        <time>2024-06-06T01:35:29+00:00</time>
      </trkpt>
      <trkpt lat="45.25926" lon="6.07298">
        <ele>1840</ele>
        <time>2024-06-06T01:35:32+00:00</time>
      </trkpt>
      <trkpt lat="45.25928" lon="6.07294">
        <ele>1840</ele>
        <time>2024-06-06T01:35:35+00:00</time>
      </trkpt>
      <trkpt lat="45.25929" lon="6.07288">
        <ele>1840</ele>
        <time>2024-06-06T01:35:38+00:00</time>
      </trkpt>
      <trkpt lat="45.2593" lon="6.07275">
        <ele>1831</ele>
        <time>2024-06-06T01:35:41+00:00</time>
      </trkpt>
      <trkpt lat="45.25931" lon="6.0727">
        <ele>1831</ele>
        <time>2024-06-06T01:35:44+00:00</time>
      </trkpt>
      <trkpt lat="45.25932" lon="6.07266">
        <ele>1831</ele>
        <time>2024-06-06T01:35:47+00:00</time>
      </trkpt>
      <trkpt lat="45.25934" lon="6.07262">
        <ele>1831</ele>
        <time>2024-06-06T01:35:50+00:00</time>
      </trkpt>
      <trkpt lat="45.25934" lon="6.07257">
        <ele>1831</ele>
        <time>2024-06-06T01:35:53+00:00</time>
      </trkpt>
      <trkpt lat="45.25936" lon="6.07253">
        <ele>1831</ele>
        <time>2024-06-06T01:35:56+00:00</time>
      </trkpt>
      <trkpt lat="45.25941" lon="6.07242">
        <ele>1826</ele>
        <time>2024-06-06T01:35:59+00:00</time>
      </trkpt>
      <trkpt lat="45.2595" lon="6.07223">
        <ele>1822</ele>
        <time>2024-06-06T01:36:02+00:00</time>
      </trkpt>
      <trkpt lat="45.25958" lon="6.07216">
        <ele>1823</ele>
        <time>2024-06-06T01:36:05+00:00</time>
      </trkpt>
      <trkpt lat="45.25962" lon="6.07209">
        <ele>1817</ele>
        <time>2024-06-06T01:36:08+00:00</time>
      </trkpt>
      <trkpt lat="45.25964" lon="6.07204">
        <ele>1817</ele>
        <time>2024-06-06T01:36:11+00:00</time>
      </trkpt>
      <trkpt lat="45.25966" lon="6.07201">
        <ele>1817</ele>
        <time>2024-06-06T01:36:14+00:00</time>
      </trkpt>
      <trkpt lat="45.2597" lon="6.07194">
        <ele>1813</ele>
        <time>2024-06-06T01:36:17+00:00</time>
      </trkpt>
      <trkpt lat="45.25981" lon="6.07183">
        <ele>1809</ele>
        <time>2024-06-06T01:36:20+00:00</time>
      </trkpt>
      <trkpt lat="45.25983" lon="6.0718">
        <ele>1812</ele>
        <time>2024-06-06T01:36:23+00:00</time>
      </trkpt>
      <trkpt lat="45.25985" lon="6.07177">
        <ele>1812</ele>
        <time>2024-06-06T01:36:26+00:00</time>
      </trkpt>
      <trkpt lat="45.25988" lon="6.07177">
        <ele>1812</ele>
        <time>2024-06-06T01:36:29+00:00</time>
      </trkpt>
      <trkpt lat="45.25993" lon="6.07169">
        <ele>1805</ele>
        <time>2024-06-06T01:36:32+00:00</time>
      </trkpt>
      <trkpt lat="45.25996" lon="6.07164">
        <ele>1805</ele>
        <time>2024-06-06T01:36:35+00:00</time>
      </trkpt>
      <trkpt lat="45.25999" lon="6.07159">
        <ele>1806</ele>
        <time>2024-06-06T01:36:38+00:00</time>
      </trkpt>
      <trkpt lat="45.26001" lon="6.07157">
        <ele>1800</ele>
        <time>2024-06-06T01:36:41+00:00</time>
      </trkpt>
      <trkpt lat="45.26004" lon="6.07153">
        <ele>1800</ele>
        <time>2024-06-06T01:36:44+00:00</time>
      </trkpt>
      <trkpt lat="45.26006" lon="6.07153">
        <ele>1800</ele>
        <time>2024-06-06T01:36:47+00:00</time>
      </trkpt>
      <trkpt lat="45.26006" lon="6.07158">
        <ele>1800</ele>
        <time>2024-06-06T01:36:50+00:00</time>
      </trkpt>
      <trkpt lat="45.26007" lon="6.07163">
        <ele>1799</ele>
        <time>2024-06-06T01:36:53+00:00</time>
      </trkpt>
      <trkpt lat="45.26008" lon="6.07166">
        <ele>1799</ele>
        <time>2024-06-06T01:36:56+00:00</time>
      </trkpt>
      <trkpt lat="45.26011" lon="6.07163">
        <ele>1793</ele>
        <time>2024-06-06T01:36:59+00:00</time>
      </trkpt>
      <trkpt lat="45.26015" lon="6.07158">
        <ele>1794</ele>
        <time>2024-06-06T01:37:02+00:00</time>
      </trkpt>
      <trkpt lat="45.2602" lon="6.07151">
        <ele>1786</ele>
        <time>2024-06-06T01:37:05+00:00</time>
      </trkpt>
      <trkpt lat="45.26023" lon="6.07145">
        <ele>1787</ele>
        <time>2024-06-06T01:37:08+00:00</time>
      </trkpt>
      <trkpt lat="45.26024" lon="6.07142">
        <ele>1787</ele>
        <time>2024-06-06T01:37:11+00:00</time>
      </trkpt>
      <trkpt lat="45.26024" lon="6.07139">
        <ele>1788</ele>
        <time>2024-06-06T01:37:14+00:00</time>
      </trkpt>
      <trkpt lat="45.26025" lon="6.07134">
        <ele>1788</ele>
        <time>2024-06-06T01:37:17+00:00</time>
      </trkpt>
      <trkpt lat="45.26025" lon="6.07131">
        <ele>1788</ele>
        <time>2024-06-06T01:37:20+00:00</time>
      </trkpt>
      <trkpt lat="45.26027" lon="6.0713">
        <ele>1789</ele>
        <time>2024-06-06T01:37:23+00:00</time>
      </trkpt>
      <trkpt lat="45.26029" lon="6.07128">
        <ele>1789</ele>
        <time>2024-06-06T01:37:26+00:00</time>
      </trkpt>
      <trkpt lat="45.26035" lon="6.07123">
        <ele>1783</ele>
        <time>2024-06-06T01:37:29+00:00</time>
      </trkpt>
      <trkpt lat="45.26037" lon="6.07118">
        <ele>1786</ele>
        <time>2024-06-06T01:37:32+00:00</time>
      </trkpt>
      <trkpt lat="45.2604" lon="6.0712">
        <ele>1777</ele>
        <time>2024-06-06T01:37:35+00:00</time>
      </trkpt>
      <trkpt lat="45.26047" lon="6.07111">
        <ele>1780</ele>
        <time>2024-06-06T01:37:38+00:00</time>
      </trkpt>
      <trkpt lat="45.26061" lon="6.07091">
        <ele>1777</ele>
        <time>2024-06-06T01:37:41+00:00</time>
      </trkpt>
      <trkpt lat="45.26064" lon="6.07082">
        <ele>1770</ele>
        <time>2024-06-06T01:37:44+00:00</time>
      </trkpt>
      <trkpt lat="45.26068" lon="6.07068">
        <ele>1770</ele>
        <time>2024-06-06T01:37:47+00:00</time>
      </trkpt>
      <trkpt lat="45.26069" lon="6.07059">
        <ele>1774</ele>
        <time>2024-06-06T01:37:50+00:00</time>
      </trkpt>
      <trkpt lat="45.26075" lon="6.07036">
        <ele>1766</ele>
        <time>2024-06-06T01:37:53+00:00</time>
      </trkpt>
      <trkpt lat="45.26079" lon="6.0703">
        <ele>1772</ele>
        <time>2024-06-06T01:37:56+00:00</time>
      </trkpt>
      <trkpt lat="45.26084" lon="6.07025">
        <ele>1757</ele>
        <time>2024-06-06T01:37:59+00:00</time>
      </trkpt>
      <trkpt lat="45.26097" lon="6.07016">
        <ele>1763</ele>
        <time>2024-06-06T01:38:02+00:00</time>
      </trkpt>
      <trkpt lat="45.26099" lon="6.07011">
        <ele>1753</ele>
        <time>2024-06-06T01:38:05+00:00</time>
      </trkpt>
      <trkpt lat="45.26101" lon="6.07005">
        <ele>1748</ele>
        <time>2024-06-06T01:38:08+00:00</time>
      </trkpt>
      <trkpt lat="45.26105" lon="6.06989">
        <ele>1755</ele>
        <time>2024-06-06T01:38:11+00:00</time>
      </trkpt>
      <trkpt lat="45.26107" lon="6.06982">
        <ele>1755</ele>
        <time>2024-06-06T01:38:14+00:00</time>
      </trkpt>
      <trkpt lat="45.26109" lon="6.06981">
        <ele>1755</ele>
        <time>2024-06-06T01:38:17+00:00</time>
      </trkpt>
      <trkpt lat="45.26113" lon="6.0698">
        <ele>1742</ele>
        <time>2024-06-06T01:38:20+00:00</time>
      </trkpt>
      <trkpt lat="45.26119" lon="6.06976">
        <ele>1746</ele>
        <time>2024-06-06T01:38:23+00:00</time>
      </trkpt>
      <trkpt lat="45.26123" lon="6.0697">
        <ele>1749</ele>
        <time>2024-06-06T01:38:26+00:00</time>
      </trkpt>
      <trkpt lat="45.26127" lon="6.06962">
        <ele>1744</ele>
        <time>2024-06-06T01:38:29+00:00</time>
      </trkpt>
      <trkpt lat="45.26131" lon="6.06954">
        <ele>1741</ele>
        <time>2024-06-06T01:38:32+00:00</time>
      </trkpt>
      <trkpt lat="45.26137" lon="6.06948">
        <ele>1744</ele>
        <time>2024-06-06T01:38:35+00:00</time>
      </trkpt>
      <trkpt lat="45.26139" lon="6.06945">
        <ele>1744</ele>
        <time>2024-06-06T01:38:38+00:00</time>
      </trkpt>
      <trkpt lat="45.26147" lon="6.06946">
        <ele>1735</ele>
        <time>2024-06-06T01:38:41+00:00</time>
      </trkpt>
      <trkpt lat="45.26149" lon="6.06948">
        <ele>1735</ele>
        <time>2024-06-06T01:38:44+00:00</time>
      </trkpt>
      <trkpt lat="45.26149" lon="6.06951">
        <ele>1730</ele>
        <time>2024-06-06T01:38:47+00:00</time>
      </trkpt>
      <trkpt lat="45.2615" lon="6.06953">
        <ele>1726</ele>
        <time>2024-06-06T01:38:50+00:00</time>
      </trkpt>
      <trkpt lat="45.26155" lon="6.06952">
        <ele>1726</ele>
        <time>2024-06-06T01:38:53+00:00</time>
      </trkpt>
      <trkpt lat="45.26161" lon="6.06948">
        <ele>1724</ele>
        <time>2024-06-06T01:38:56+00:00</time>
      </trkpt>
      <trkpt lat="45.26165" lon="6.06945">
        <ele>1724</ele>
        <time>2024-06-06T01:38:59+00:00</time>
      </trkpt>
      <trkpt lat="45.26169" lon="6.06943">
        <ele>1724</ele>
        <time>2024-06-06T01:39:02+00:00</time>
      </trkpt>
      <trkpt lat="45.26172" lon="6.06941">
        <ele>1715</ele>
        <time>2024-06-06T01:39:05+00:00</time>
      </trkpt>
      <trkpt lat="45.26179" lon="6.06935">
        <ele>1721</ele>
        <time>2024-06-06T01:39:08+00:00</time>
      </trkpt>
      <trkpt lat="45.26192" lon="6.06928">
        <ele>1716</ele>
        <time>2024-06-06T01:39:11+00:00</time>
      </trkpt>
      <trkpt lat="45.26195" lon="6.06927">
        <ele>1716</ele>
        <time>2024-06-06T01:39:14+00:00</time>
      </trkpt>
      <trkpt lat="45.26197" lon="6.06924">
        <ele>1716</ele>
        <time>2024-06-06T01:39:17+00:00</time>
      </trkpt>
      <trkpt lat="45.262" lon="6.06913">
        <ele>1719</ele>
        <time>2024-06-06T01:39:20+00:00</time>
      </trkpt>
      <trkpt lat="45.26201" lon="6.06908">
        <ele>1715</ele>
        <time>2024-06-06T01:39:23+00:00</time>
      </trkpt>
      <trkpt lat="45.26203" lon="6.06907">
        <ele>1715</ele>
        <time>2024-06-06T01:39:26+00:00</time>
      </trkpt>
      <trkpt lat="45.26207" lon="6.06908">
        <ele>1715</ele>
        <time>2024-06-06T01:39:29+00:00</time>
      </trkpt>
      <trkpt lat="45.26211" lon="6.06907">
        <ele>1711</ele>
        <time>2024-06-06T01:39:32+00:00</time>
      </trkpt>
      <trkpt lat="45.26216" lon="6.06904">
        <ele>1711</ele>
        <time>2024-06-06T01:39:35+00:00</time>
      </trkpt>
      <trkpt lat="45.26219" lon="6.06899">
        <ele>1714</ele>
        <time>2024-06-06T01:39:38+00:00</time>
      </trkpt>
      <trkpt lat="45.26224" lon="6.06893">
        <ele>1709</ele>
        <time>2024-06-06T01:39:41+00:00</time>
      </trkpt>
      <trkpt lat="45.26229" lon="6.06887">
        <ele>1711</ele>
        <time>2024-06-06T01:39:44+00:00</time>
      </trkpt>
      <trkpt lat="45.26235" lon="6.06881">
        <ele>1703</ele>
        <time>2024-06-06T01:39:47+00:00</time>
      </trkpt>
      <trkpt lat="45.26242" lon="6.06876">
        <ele>1702</ele>
        <time>2024-06-06T01:39:50+00:00</time>
      </trkpt>
      <trkpt lat="45.26247" lon="6.06873">
        <ele>1702</ele>
        <time>2024-06-06T01:39:53+00:00</time>
      </trkpt>
      <trkpt lat="45.26251" lon="6.06871">
        <ele>1697</ele>
        <time>2024-06-06T01:39:56+00:00</time>
      </trkpt>
      <trkpt lat="45.26255" lon="6.06868">
        <ele>1699</ele>
        <time>2024-06-06T01:39:59+00:00</time>
      </trkpt>
      <trkpt lat="45.26263" lon="6.06862">
        <ele>1693</ele>
        <time>2024-06-06T01:40:02+00:00</time>
      </trkpt>
      <trkpt lat="45.26268" lon="6.06859">
        <ele>1694</ele>
        <time>2024-06-06T01:40:05+00:00</time>
      </trkpt>
      <trkpt lat="45.26274" lon="6.06855">
        <ele>1690</ele>
        <time>2024-06-06T01:40:08+00:00</time>
      </trkpt>
      <trkpt lat="45.26278" lon="6.0685">
        <ele>1690</ele>
        <time>2024-06-06T01:40:11+00:00</time>
      </trkpt>
      <trkpt lat="45.26282" lon="6.06846">
        <ele>1687</ele>
        <time>2024-06-06T01:40:14+00:00</time>
      </trkpt>
      <trkpt lat="45.26296" lon="6.06836">
        <ele>1682</ele>
        <time>2024-06-06T01:40:17+00:00</time>
      </trkpt>
      <trkpt lat="45.26301" lon="6.06833">
        <ele>1677</ele>
        <time>2024-06-06T01:40:20+00:00</time>
      </trkpt>
      <trkpt lat="45.26305" lon="6.06827">
        <ele>1679</ele>
        <time>2024-06-06T01:40:23+00:00</time>
      </trkpt>
      <trkpt lat="45.26328" lon="6.06805">
        <ele>1673</ele>
        <time>2024-06-06T01:40:26+00:00</time>
      </trkpt>
      <trkpt lat="45.26344" lon="6.06791">
        <ele>1666</ele>
        <time>2024-06-06T01:40:29+00:00</time>
      </trkpt>
      <trkpt lat="45.26349" lon="6.06786">
        <ele>1670</ele>
        <time>2024-06-06T01:40:32+00:00</time>
      </trkpt>
      <trkpt lat="45.26352" lon="6.06782">
        <ele>1666</ele>
        <time>2024-06-06T01:40:35+00:00</time>
      </trkpt>
      <trkpt lat="45.26355" lon="6.0678">
        <ele>1666</ele>
        <time>2024-06-06T01:40:38+00:00</time>
      </trkpt>
      <trkpt lat="45.26359" lon="6.06779">
        <ele>1669</ele>
        <time>2024-06-06T01:40:41+00:00</time>
      </trkpt>
      <trkpt lat="45.26363" lon="6.06776">
        <ele>1665</ele>
        <time>2024-06-06T01:40:44+00:00</time>
      </trkpt>
      <trkpt lat="45.26367" lon="6.06774">
        <ele>1665</ele>
        <time>2024-06-06T01:40:47+00:00</time>
      </trkpt>
      <trkpt lat="45.2637" lon="6.0677">
        <ele>1665</ele>
        <time>2024-06-06T01:40:50+00:00</time>
      </trkpt>
      <trkpt lat="45.26374" lon="6.06769">
        <ele>1667</ele>
        <time>2024-06-06T01:40:53+00:00</time>
      </trkpt>
      <trkpt lat="45.26378" lon="6.0677">
        <ele>1667</ele>
        <time>2024-06-06T01:40:56+00:00</time>
      </trkpt>
      <trkpt lat="45.26386" lon="6.06773">
        <ele>1661</ele>
        <time>2024-06-06T01:40:59+00:00</time>
      </trkpt>
      <trkpt lat="45.26391" lon="6.06774">
        <ele>1660</ele>
        <time>2024-06-06T01:41:02+00:00</time>
      </trkpt>
      <trkpt lat="45.26397" lon="6.06775">
        <ele>1660</ele>
        <time>2024-06-06T01:41:05+00:00</time>
      </trkpt>
      <trkpt lat="45.264" lon="6.06774">
        <ele>1660</ele>
        <time>2024-06-06T01:41:08+00:00</time>
      </trkpt>
      <trkpt lat="45.26406" lon="6.06772">
        <ele>1660</ele>
        <time>2024-06-06T01:41:11+00:00</time>
      </trkpt>
      <trkpt lat="45.26413" lon="6.06772">
        <ele>1656</ele>
        <time>2024-06-06T01:41:14+00:00</time>
      </trkpt>
      <trkpt lat="45.26423" lon="6.06771">
        <ele>1655</ele>
        <time>2024-06-06T01:41:17+00:00</time>
      </trkpt>
      <trkpt lat="45.26433" lon="6.06769">
        <ele>1659</ele>
        <time>2024-06-06T01:41:20+00:00</time>
      </trkpt>
      <trkpt lat="45.26438" lon="6.06768">
        <ele>1659</ele>
        <time>2024-06-06T01:41:23+00:00</time>
      </trkpt>
      <trkpt lat="45.26443" lon="6.06767">
        <ele>1658</ele>
        <time>2024-06-06T01:41:26+00:00</time>
      </trkpt>
      <trkpt lat="45.26448" lon="6.06768">
        <ele>1658</ele>
        <time>2024-06-06T01:41:29+00:00</time>
      </trkpt>
      <trkpt lat="45.26451" lon="6.0677">
        <ele>1654</ele>
        <time>2024-06-06T01:41:32+00:00</time>
      </trkpt>
      <trkpt lat="45.26456" lon="6.06772">
        <ele>1651</ele>
        <time>2024-06-06T01:41:35+00:00</time>
      </trkpt>
      <trkpt lat="45.2646" lon="6.06774">
        <ele>1651</ele>
        <time>2024-06-06T01:41:38+00:00</time>
      </trkpt>
      <trkpt lat="45.26464" lon="6.06776">
        <ele>1649</ele>
        <time>2024-06-06T01:41:41+00:00</time>
      </trkpt>
      <trkpt lat="45.26486" lon="6.06782">
        <ele>1641</ele>
        <time>2024-06-06T01:41:44+00:00</time>
      </trkpt>
      <trkpt lat="45.26494" lon="6.06789">
        <ele>1639</ele>
        <time>2024-06-06T01:41:47+00:00</time>
      </trkpt>
      <trkpt lat="45.26502" lon="6.06799">
        <ele>1635</ele>
        <time>2024-06-06T01:41:50+00:00</time>
      </trkpt>
      <trkpt lat="45.26513" lon="6.06807">
        <ele>1630</ele>
        <time>2024-06-06T01:41:53+00:00</time>
      </trkpt>
      <trkpt lat="45.26517" lon="6.0681">
        <ele>1630</ele>
        <time>2024-06-06T01:41:56+00:00</time>
      </trkpt>
      <trkpt lat="45.26521" lon="6.06811">
        <ele>1626</ele>
        <time>2024-06-06T01:41:59+00:00</time>
      </trkpt>
      <trkpt lat="45.26527" lon="6.06812">
        <ele>1626</ele>
        <time>2024-06-06T01:42:02+00:00</time>
      </trkpt>
      <trkpt lat="45.26532" lon="6.06811">
        <ele>1623</ele>
        <time>2024-06-06T01:42:05+00:00</time>
      </trkpt>
      <trkpt lat="45.26536" lon="6.06812">
        <ele>1623</ele>
        <time>2024-06-06T01:42:08+00:00</time>
      </trkpt>
      <trkpt lat="45.2654" lon="6.06814">
        <ele>1623</ele>
        <time>2024-06-06T01:42:11+00:00</time>
      </trkpt>
      <trkpt lat="45.26546" lon="6.06816">
        <ele>1620</ele>
        <time>2024-06-06T01:42:14+00:00</time>
      </trkpt>
      <trkpt lat="45.26549" lon="6.06818">
        <ele>1620</ele>
        <time>2024-06-06T01:42:17+00:00</time>
      </trkpt>
      <trkpt lat="45.26567" lon="6.06823">
        <ele>1619</ele>
        <time>2024-06-06T01:42:20+00:00</time>
      </trkpt>
      <trkpt lat="45.2657" lon="6.06803">
        <ele>1615</ele>
        <time>2024-06-06T01:42:23+00:00</time>
      </trkpt>
      <trkpt lat="45.26572" lon="6.06795">
        <ele>1618</ele>
        <time>2024-06-06T01:42:26+00:00</time>
      </trkpt>
      <trkpt lat="45.26573" lon="6.06788">
        <ele>1616</ele>
        <time>2024-06-06T01:42:29+00:00</time>
      </trkpt>
      <trkpt lat="45.26574" lon="6.06779">
        <ele>1617</ele>
        <time>2024-06-06T01:42:32+00:00</time>
      </trkpt>
      <trkpt lat="45.26574" lon="6.06768">
        <ele>1617</ele>
        <time>2024-06-06T01:42:35+00:00</time>
      </trkpt>
      <trkpt lat="45.26575" lon="6.06761">
        <ele>1618</ele>
        <time>2024-06-06T01:42:38+00:00</time>
      </trkpt>
      <trkpt lat="45.26577" lon="6.06758">
        <ele>1619</ele>
        <time>2024-06-06T01:42:41+00:00</time>
      </trkpt>
      <trkpt lat="45.26579" lon="6.06746">
        <ele>1620</ele>
        <time>2024-06-06T01:42:44+00:00</time>
      </trkpt>
      <trkpt lat="45.26588" lon="6.06737">
        <ele>1616</ele>
        <time>2024-06-06T01:42:47+00:00</time>
      </trkpt>
      <trkpt lat="45.2659" lon="6.06733">
        <ele>1616</ele>
        <time>2024-06-06T01:42:50+00:00</time>
      </trkpt>
      <trkpt lat="45.26594" lon="6.06729">
        <ele>1617</ele>
        <time>2024-06-06T01:42:53+00:00</time>
      </trkpt>
      <trkpt lat="45.26597" lon="6.06726">
        <ele>1617</ele>
        <time>2024-06-06T01:42:56+00:00</time>
      </trkpt>
      <trkpt lat="45.26602" lon="6.06719">
        <ele>1615</ele>
        <time>2024-06-06T01:42:59+00:00</time>
      </trkpt>
      <trkpt lat="45.26602" lon="6.06716">
        <ele>1617</ele>
        <time>2024-06-06T01:43:02+00:00</time>
      </trkpt>
      <trkpt lat="45.26601" lon="6.0671">
        <ele>1616</ele>
        <time>2024-06-06T01:43:05+00:00</time>
      </trkpt>
      <trkpt lat="45.26597" lon="6.06703">
        <ele>1618</ele>
        <time>2024-06-06T01:43:08+00:00</time>
      </trkpt>
      <trkpt lat="45.26596" lon="6.06694">
        <ele>1619</ele>
        <time>2024-06-06T01:43:11+00:00</time>
      </trkpt>
      <trkpt lat="45.26591" lon="6.06692">
        <ele>1619</ele>
        <time>2024-06-06T01:43:14+00:00</time>
      </trkpt>
      <trkpt lat="45.26593" lon="6.06686">
        <ele>1622</ele>
        <time>2024-06-06T01:43:17+00:00</time>
      </trkpt>
      <trkpt lat="45.26585" lon="6.06682">
        <ele>1623</ele>
        <time>2024-06-06T01:43:20+00:00</time>
      </trkpt>
      <trkpt lat="45.26588" lon="6.06677">
        <ele>1625</ele>
        <time>2024-06-06T01:43:23+00:00</time>
      </trkpt>
      <trkpt lat="45.26588" lon="6.06669">
        <ele>1627</ele>
        <time>2024-06-06T01:43:26+00:00</time>
      </trkpt>
      <trkpt lat="45.26586" lon="6.06665">
        <ele>1627</ele>
        <time>2024-06-06T01:43:29+00:00</time>
      </trkpt>
      <trkpt lat="45.26583" lon="6.06661">
        <ele>1627</ele>
        <time>2024-06-06T01:43:32+00:00</time>
      </trkpt>
      <trkpt lat="45.26582" lon="6.06656">
        <ele>1629</ele>
        <time>2024-06-06T01:43:35+00:00</time>
      </trkpt>
      <trkpt lat="45.2658" lon="6.06651">
        <ele>1631</ele>
        <time>2024-06-06T01:43:38+00:00</time>
      </trkpt>
      <trkpt lat="45.26576" lon="6.06641">
        <ele>1633</ele>
        <time>2024-06-06T01:43:41+00:00</time>
      </trkpt>
      <trkpt lat="45.26577" lon="6.06638">
        <ele>1636</ele>
        <time>2024-06-06T01:43:44+00:00</time>
      </trkpt>
      <trkpt lat="45.26579" lon="6.06633">
        <ele>1636</ele>
        <time>2024-06-06T01:43:47+00:00</time>
      </trkpt>
      <trkpt lat="45.26582" lon="6.06624">
        <ele>1637</ele>
        <time>2024-06-06T01:43:50+00:00</time>
      </trkpt>
      <trkpt lat="45.26589" lon="6.06604">
        <ele>1643</ele>
        <time>2024-06-06T01:43:53+00:00</time>
      </trkpt>
      <trkpt lat="45.26594" lon="6.06586">
        <ele>1647</ele>
        <time>2024-06-06T01:43:56+00:00</time>
      </trkpt>
      <trkpt lat="45.26602" lon="6.06564">
        <ele>1647</ele>
        <time>2024-06-06T01:43:59+00:00</time>
      </trkpt>
      <trkpt lat="45.26611" lon="6.06541">
        <ele>1650</ele>
        <time>2024-06-06T01:44:02+00:00</time>
      </trkpt>
      <trkpt lat="45.26614" lon="6.06534">
        <ele>1657</ele>
        <time>2024-06-06T01:44:05+00:00</time>
      </trkpt>
      <trkpt lat="45.26619" lon="6.06525">
        <ele>1660</ele>
        <time>2024-06-06T01:44:08+00:00</time>
      </trkpt>
      <trkpt lat="45.26622" lon="6.06517">
        <ele>1658</ele>
        <time>2024-06-06T01:44:11+00:00</time>
      </trkpt>
      <trkpt lat="45.26628" lon="6.065">
        <ele>1660</ele>
        <time>2024-06-06T01:44:14+00:00</time>
      </trkpt>
      <trkpt lat="45.26629" lon="6.06497">
        <ele>1661</ele>
        <time>2024-06-06T01:44:17+00:00</time>
      </trkpt>
      <trkpt lat="45.2663" lon="6.06491">
        <ele>1661</ele>
        <time>2024-06-06T01:44:20+00:00</time>
      </trkpt>
      <trkpt lat="45.2663" lon="6.06486">
        <ele>1661</ele>
        <time>2024-06-06T01:44:23+00:00</time>
      </trkpt>
      <trkpt lat="45.26628" lon="6.06483">
        <ele>1661</ele>
        <time>2024-06-06T01:44:26+00:00</time>
      </trkpt>
      <trkpt lat="45.26627" lon="6.06481">
        <ele>1661</ele>
        <time>2024-06-06T01:44:29+00:00</time>
      </trkpt>
      <trkpt lat="45.26625" lon="6.06479">
        <ele>1660</ele>
        <time>2024-06-06T01:44:32+00:00</time>
      </trkpt>
      <trkpt lat="45.2662" lon="6.06471">
        <ele>1660</ele>
        <time>2024-06-06T01:44:35+00:00</time>
      </trkpt>
      <trkpt lat="45.26618" lon="6.06468">
        <ele>1661</ele>
        <time>2024-06-06T01:44:38+00:00</time>
      </trkpt>
      <trkpt lat="45.26616" lon="6.06463">
        <ele>1663</ele>
        <time>2024-06-06T01:44:41+00:00</time>
      </trkpt>
      <trkpt lat="45.26603" lon="6.06446">
        <ele>1661</ele>
        <time>2024-06-06T01:44:44+00:00</time>
      </trkpt>
      <trkpt lat="45.26588" lon="6.06429">
        <ele>1660</ele>
        <time>2024-06-06T01:44:47+00:00</time>
      </trkpt>
      <trkpt lat="45.26585" lon="6.06426">
        <ele>1663</ele>
        <time>2024-06-06T01:44:50+00:00</time>
      </trkpt>
      <trkpt lat="45.26581" lon="6.06422">
        <ele>1663</ele>
        <time>2024-06-06T01:44:53+00:00</time>
      </trkpt>
      <trkpt lat="45.26575" lon="6.06417">
        <ele>1660</ele>
        <time>2024-06-06T01:44:56+00:00</time>
      </trkpt>
      <trkpt lat="45.26568" lon="6.0641">
        <ele>1660</ele>
        <time>2024-06-06T01:44:59+00:00</time>
      </trkpt>
      <trkpt lat="45.26558" lon="6.06403">
        <ele>1663</ele>
        <time>2024-06-06T01:45:02+00:00</time>
      </trkpt>
      <trkpt lat="45.2655" lon="6.06399">
        <ele>1657</ele>
        <time>2024-06-06T01:45:05+00:00</time>
      </trkpt>
      <trkpt lat="45.26545" lon="6.06396">
        <ele>1661</ele>
        <time>2024-06-06T01:45:08+00:00</time>
      </trkpt>
      <trkpt lat="45.26536" lon="6.06394">
        <ele>1666</ele>
        <time>2024-06-06T01:45:11+00:00</time>
      </trkpt>
      <trkpt lat="45.2653" lon="6.06393">
        <ele>1666</ele>
        <time>2024-06-06T01:45:14+00:00</time>
      </trkpt>
      <trkpt lat="45.26525" lon="6.06391">
        <ele>1664</ele>
        <time>2024-06-06T01:45:17+00:00</time>
      </trkpt>
      <trkpt lat="45.2652" lon="6.06388">
        <ele>1665</ele>
        <time>2024-06-06T01:45:20+00:00</time>
      </trkpt>
      <trkpt lat="45.26513" lon="6.06385">
        <ele>1665</ele>
        <time>2024-06-06T01:45:23+00:00</time>
      </trkpt>
      <trkpt lat="45.26508" lon="6.06382">
        <ele>1673</ele>
        <time>2024-06-06T01:45:26+00:00</time>
      </trkpt>
      <trkpt lat="45.26504" lon="6.06379">
        <ele>1668</ele>
        <time>2024-06-06T01:45:29+00:00</time>
      </trkpt>
      <trkpt lat="45.265" lon="6.06376">
        <ele>1673</ele>
        <time>2024-06-06T01:45:32+00:00</time>
      </trkpt>
      <trkpt lat="45.26496" lon="6.06372">
        <ele>1673</ele>
        <time>2024-06-06T01:45:35+00:00</time>
      </trkpt>
      <trkpt lat="45.26491" lon="6.06366">
        <ele>1669</ele>
        <time>2024-06-06T01:45:38+00:00</time>
      </trkpt>
      <trkpt lat="45.26484" lon="6.06356">
        <ele>1669</ele>
        <time>2024-06-06T01:45:41+00:00</time>
      </trkpt>
      <trkpt lat="45.26478" lon="6.06351">
        <ele>1678</ele>
        <time>2024-06-06T01:45:44+00:00</time>
      </trkpt>
      <trkpt lat="45.26473" lon="6.06349">
        <ele>1674</ele>
        <time>2024-06-06T01:45:47+00:00</time>
      </trkpt>
      <trkpt lat="45.26466" lon="6.06343">
        <ele>1674</ele>
        <time>2024-06-06T01:45:50+00:00</time>
      </trkpt>
      <trkpt lat="45.26461" lon="6.0634">
        <ele>1681</ele>
        <time>2024-06-06T01:45:53+00:00</time>
      </trkpt>
      <trkpt lat="45.26457" lon="6.06333">
        <ele>1683</ele>
        <time>2024-06-06T01:45:56+00:00</time>
      </trkpt>
      <trkpt lat="45.26452" lon="6.0633">
        <ele>1683</ele>
        <time>2024-06-06T01:45:59+00:00</time>
      </trkpt>
      <trkpt lat="45.2645" lon="6.06322">
        <ele>1676</ele>
        <time>2024-06-06T01:46:02+00:00</time>
      </trkpt>
      <trkpt lat="45.26444" lon="6.06314">
        <ele>1684</ele>
        <time>2024-06-06T01:46:05+00:00</time>
      </trkpt>
      <trkpt lat="45.26433" lon="6.06288">
        <ele>1678</ele>
        <time>2024-06-06T01:46:08+00:00</time>
      </trkpt>
      <trkpt lat="45.26413" lon="6.06284">
        <ele>1688</ele>
        <time>2024-06-06T01:46:11+00:00</time>
      </trkpt>
      <trkpt lat="45.26401" lon="6.06287">
        <ele>1691</ele>
        <time>2024-06-06T01:46:14+00:00</time>
      </trkpt>
      <trkpt lat="45.26391" lon="6.06289">
        <ele>1693</ele>
        <time>2024-06-06T01:46:17+00:00</time>
      </trkpt>
      <trkpt lat="45.26383" lon="6.06291">
        <ele>1699</ele>
        <time>2024-06-06T01:46:20+00:00</time>
      </trkpt>
      <trkpt lat="45.26372" lon="6.063">
        <ele>1700</ele>
        <time>2024-06-06T01:46:23+00:00</time>
      </trkpt>
      <trkpt lat="45.26357" lon="6.06298">
        <ele>1702</ele>
        <time>2024-06-06T01:46:26+00:00</time>
      </trkpt>
      <trkpt lat="45.2635" lon="6.063">
        <ele>1702</ele>
        <time>2024-06-06T01:46:29+00:00</time>
      </trkpt>
      <trkpt lat="45.26335" lon="6.06298">
        <ele>1703</ele>
        <time>2024-06-06T01:46:32+00:00</time>
      </trkpt>
      <trkpt lat="45.26325" lon="6.06292">
        <ele>1704</ele>
        <time>2024-06-06T01:46:35+00:00</time>
      </trkpt>
      <trkpt lat="45.26319" lon="6.06291">
        <ele>1706</ele>
        <time>2024-06-06T01:46:38+00:00</time>
      </trkpt>
      <trkpt lat="45.26313" lon="6.0629">
        <ele>1706</ele>
        <time>2024-06-06T01:46:41+00:00</time>
      </trkpt>
      <trkpt lat="45.26308" lon="6.06288">
        <ele>1704</ele>
        <time>2024-06-06T01:46:44+00:00</time>
      </trkpt>
      <trkpt lat="45.26303" lon="6.06288">
        <ele>1704</ele>
        <time>2024-06-06T01:46:47+00:00</time>
      </trkpt>
      <trkpt lat="45.26298" lon="6.06286">
        <ele>1705</ele>
        <time>2024-06-06T01:46:50+00:00</time>
      </trkpt>
      <trkpt lat="45.26291" lon="6.06282">
        <ele>1705</ele>
        <time>2024-06-06T01:46:53+00:00</time>
      </trkpt>
      <trkpt lat="45.26288" lon="6.0628">
        <ele>1703</ele>
        <time>2024-06-06T01:46:56+00:00</time>
      </trkpt>
      <trkpt lat="45.26284" lon="6.06276">
        <ele>1703</ele>
        <time>2024-06-06T01:46:59+00:00</time>
      </trkpt>
      <trkpt lat="45.26278" lon="6.06271">
        <ele>1704</ele>
        <time>2024-06-06T01:47:02+00:00</time>
      </trkpt>
      <trkpt lat="45.26273" lon="6.06268">
        <ele>1698</ele>
        <time>2024-06-06T01:47:05+00:00</time>
      </trkpt>
      <trkpt lat="45.26266" lon="6.06266">
        <ele>1702</ele>
        <time>2024-06-06T01:47:08+00:00</time>
      </trkpt>
      <trkpt lat="45.26259" lon="6.06267">
        <ele>1701</ele>
        <time>2024-06-06T01:47:11+00:00</time>
      </trkpt>
      <trkpt lat="45.26253" lon="6.06268">
        <ele>1701</ele>
        <time>2024-06-06T01:47:14+00:00</time>
      </trkpt>
      <trkpt lat="45.26247" lon="6.0627">
        <ele>1702</ele>
        <time>2024-06-06T01:47:17+00:00</time>
      </trkpt>
      <trkpt lat="45.26241" lon="6.0627">
        <ele>1708</ele>
        <time>2024-06-06T01:47:20+00:00</time>
      </trkpt>
      <trkpt lat="45.26234" lon="6.0627">
        <ele>1708</ele>
        <time>2024-06-06T01:47:23+00:00</time>
      </trkpt>
      <trkpt lat="45.26228" lon="6.0627">
        <ele>1703</ele>
        <time>2024-06-06T01:47:26+00:00</time>
      </trkpt>
      <trkpt lat="45.26221" lon="6.06267">
        <ele>1698</ele>
        <time>2024-06-06T01:47:29+00:00</time>
      </trkpt>
      <trkpt lat="45.26196" lon="6.06247">
        <ele>1697</ele>
        <time>2024-06-06T01:47:32+00:00</time>
      </trkpt>
      <trkpt lat="45.26179" lon="6.06256">
        <ele>1696</ele>
        <time>2024-06-06T01:47:35+00:00</time>
      </trkpt>
      <trkpt lat="45.2617" lon="6.06255">
        <ele>1696</ele>
        <time>2024-06-06T01:47:38+00:00</time>
      </trkpt>
      <trkpt lat="45.26165" lon="6.06256">
        <ele>1695</ele>
        <time>2024-06-06T01:47:41+00:00</time>
      </trkpt>
      <trkpt lat="45.26158" lon="6.06256">
        <ele>1694</ele>
        <time>2024-06-06T01:47:44+00:00</time>
      </trkpt>
      <trkpt lat="45.2615" lon="6.06257">
        <ele>1694</ele>
        <time>2024-06-06T01:47:47+00:00</time>
      </trkpt>
      <trkpt lat="45.26144" lon="6.06256">
        <ele>1693</ele>
        <time>2024-06-06T01:47:50+00:00</time>
      </trkpt>
      <trkpt lat="45.2614" lon="6.06255">
        <ele>1694</ele>
        <time>2024-06-06T01:47:53+00:00</time>
      </trkpt>
      <trkpt lat="45.26137" lon="6.0625">
        <ele>1689</ele>
        <time>2024-06-06T01:47:56+00:00</time>
      </trkpt>
      <trkpt lat="45.26135" lon="6.06245">
        <ele>1689</ele>
        <time>2024-06-06T01:47:59+00:00</time>
      </trkpt>
      <trkpt lat="45.2613" lon="6.0624">
        <ele>1682</ele>
        <time>2024-06-06T01:48:02+00:00</time>
      </trkpt>
      <trkpt lat="45.26127" lon="6.06236">
        <ele>1684</ele>
        <time>2024-06-06T01:48:05+00:00</time>
      </trkpt>
      <trkpt lat="45.26123" lon="6.06231">
        <ele>1684</ele>
        <time>2024-06-06T01:48:08+00:00</time>
      </trkpt>
      <trkpt lat="45.2612" lon="6.06227">
        <ele>1682</ele>
        <time>2024-06-06T01:48:11+00:00</time>
      </trkpt>
      <trkpt lat="45.26115" lon="6.06222">
        <ele>1682</ele>
        <time>2024-06-06T01:48:14+00:00</time>
      </trkpt>
      <trkpt lat="45.26112" lon="6.06215">
        <ele>1678</ele>
        <time>2024-06-06T01:48:17+00:00</time>
      </trkpt>
      <trkpt lat="45.2611" lon="6.06211">
        <ele>1685</ele>
        <time>2024-06-06T01:48:20+00:00</time>
      </trkpt>
      <trkpt lat="45.26106" lon="6.06204">
        <ele>1679</ele>
        <time>2024-06-06T01:48:23+00:00</time>
      </trkpt>
      <trkpt lat="45.26092" lon="6.06183">
        <ele>1677</ele>
        <time>2024-06-06T01:48:26+00:00</time>
      </trkpt>
      <trkpt lat="45.26072" lon="6.06161">
        <ele>1677</ele>
        <time>2024-06-06T01:48:29+00:00</time>
      </trkpt>
      <trkpt lat="45.26058" lon="6.06151">
        <ele>1676</ele>
        <time>2024-06-06T01:48:32+00:00</time>
      </trkpt>
      <trkpt lat="45.26036" lon="6.06151">
        <ele>1676</ele>
        <time>2024-06-06T01:48:35+00:00</time>
      </trkpt>
      <trkpt lat="45.26024" lon="6.0615">
        <ele>1675</ele>
        <time>2024-06-06T01:48:38+00:00</time>
      </trkpt>
      <trkpt lat="45.26016" lon="6.06152">
        <ele>1673</ele>
        <time>2024-06-06T01:48:41+00:00</time>
      </trkpt>
      <trkpt lat="45.26007" lon="6.06156">
        <ele>1670</ele>
        <time>2024-06-06T01:48:44+00:00</time>
      </trkpt>
      <trkpt lat="45.25991" lon="6.06149">
        <ele>1661</ele>
        <time>2024-06-06T01:48:47+00:00</time>
      </trkpt>
      <trkpt lat="45.25988" lon="6.06155">
        <ele>1666</ele>
        <time>2024-06-06T01:48:50+00:00</time>
      </trkpt>
      <trkpt lat="45.25982" lon="6.06155">
        <ele>1666</ele>
        <time>2024-06-06T01:48:53+00:00</time>
      </trkpt>
      <trkpt lat="45.25972" lon="6.0614">
        <ele>1653</ele>
        <time>2024-06-06T01:48:56+00:00</time>
      </trkpt>
      <trkpt lat="45.25961" lon="6.06129">
        <ele>1647</ele>
        <time>2024-06-06T01:48:59+00:00</time>
      </trkpt>
      <trkpt lat="45.25954" lon="6.0613">
        <ele>1647</ele>
        <time>2024-06-06T01:49:02+00:00</time>
      </trkpt>
      <trkpt lat="45.25949" lon="6.06131">
        <ele>1652</ele>
        <time>2024-06-06T01:49:05+00:00</time>
      </trkpt>
      <trkpt lat="45.25918" lon="6.06134">
        <ele>1645</ele>
        <time>2024-06-06T01:49:08+00:00</time>
      </trkpt>
      <trkpt lat="45.25912" lon="6.06133">
        <ele>1645</ele>
        <time>2024-06-06T01:49:11+00:00</time>
      </trkpt>
      <trkpt lat="45.25903" lon="6.06133">
        <ele>1642</ele>
        <time>2024-06-06T01:49:14+00:00</time>
      </trkpt>
      <trkpt lat="45.25899" lon="6.06133">
        <ele>1638</ele>
        <time>2024-06-06T01:49:17+00:00</time>
      </trkpt>
      <trkpt lat="45.25888" lon="6.06137">
        <ele>1635</ele>
        <time>2024-06-06T01:49:20+00:00</time>
      </trkpt>
      <trkpt lat="45.25884" lon="6.06138">
        <ele>1635</ele>
        <time>2024-06-06T01:49:23+00:00</time>
      </trkpt>
      <trkpt lat="45.25881" lon="6.06137">
        <ele>1635</ele>
        <time>2024-06-06T01:49:26+00:00</time>
      </trkpt>
      <trkpt lat="45.25878" lon="6.06134">
        <ele>1633</ele>
        <time>2024-06-06T01:49:29+00:00</time>
      </trkpt>
      <trkpt lat="45.25874" lon="6.06134">
        <ele>1633</ele>
        <time>2024-06-06T01:49:32+00:00</time>
      </trkpt>
      <trkpt lat="45.25871" lon="6.06136">
        <ele>1633</ele>
        <time>2024-06-06T01:49:35+00:00</time>
      </trkpt>
      <trkpt lat="45.25869" lon="6.06139">
        <ele>1631</ele>
        <time>2024-06-06T01:49:38+00:00</time>
      </trkpt>
      <trkpt lat="45.25868" lon="6.06143">
        <ele>1635</ele>
        <time>2024-06-06T01:49:41+00:00</time>
      </trkpt>
      <trkpt lat="45.25867" lon="6.06144">
        <ele>1635</ele>
        <time>2024-06-06T01:49:44+00:00</time>
      </trkpt>
      <trkpt lat="45.25865" lon="6.06143">
        <ele>1635</ele>
        <time>2024-06-06T01:49:47+00:00</time>
      </trkpt>
      <trkpt lat="45.25863" lon="6.06142">
        <ele>1635</ele>
        <time>2024-06-06T01:49:50+00:00</time>
      </trkpt>
      <trkpt lat="45.25859" lon="6.0614">
        <ele>1629</ele>
        <time>2024-06-06T01:49:53+00:00</time>
      </trkpt>
      <trkpt lat="45.25856" lon="6.06138">
        <ele>1629</ele>
        <time>2024-06-06T01:49:56+00:00</time>
      </trkpt>
      <trkpt lat="45.25853" lon="6.06138">
        <ele>1629</ele>
        <time>2024-06-06T01:49:59+00:00</time>
      </trkpt>
      <trkpt lat="45.2585" lon="6.0614">
        <ele>1628</ele>
        <time>2024-06-06T01:50:02+00:00</time>
      </trkpt>
      <trkpt lat="45.25847" lon="6.06142">
        <ele>1633</ele>
        <time>2024-06-06T01:50:05+00:00</time>
      </trkpt>
      <trkpt lat="45.25844" lon="6.06142">
        <ele>1633</ele>
        <time>2024-06-06T01:50:08+00:00</time>
      </trkpt>
      <trkpt lat="45.25841" lon="6.06141">
        <ele>1633</ele>
        <time>2024-06-06T01:50:11+00:00</time>
      </trkpt>
      <trkpt lat="45.2584" lon="6.0614">
        <ele>1628</ele>
        <time>2024-06-06T01:50:14+00:00</time>
      </trkpt>
      <trkpt lat="45.25838" lon="6.06137">
        <ele>1628</ele>
        <time>2024-06-06T01:50:17+00:00</time>
      </trkpt>
      <trkpt lat="45.25835" lon="6.06135">
        <ele>1628</ele>
        <time>2024-06-06T01:50:20+00:00</time>
      </trkpt>
      <trkpt lat="45.25828" lon="6.06135">
        <ele>1627</ele>
        <time>2024-06-06T01:50:23+00:00</time>
      </trkpt>
      <trkpt lat="45.25826" lon="6.06135">
        <ele>1627</ele>
        <time>2024-06-06T01:50:26+00:00</time>
      </trkpt>
      <trkpt lat="45.25822" lon="6.06139">
        <ele>1627</ele>
        <time>2024-06-06T01:50:29+00:00</time>
      </trkpt>
      <trkpt lat="45.2582" lon="6.0614">
        <ele>1626</ele>
        <time>2024-06-06T01:50:32+00:00</time>
      </trkpt>
      <trkpt lat="45.25817" lon="6.0614">
        <ele>1626</ele>
        <time>2024-06-06T01:50:35+00:00</time>
      </trkpt>
      <trkpt lat="45.25813" lon="6.0614">
        <ele>1626</ele>
        <time>2024-06-06T01:50:38+00:00</time>
      </trkpt>
      <trkpt lat="45.25808" lon="6.06139">
        <ele>1625</ele>
        <time>2024-06-06T01:50:41+00:00</time>
      </trkpt>
      <trkpt lat="45.25798" lon="6.06137">
        <ele>1625</ele>
        <time>2024-06-06T01:50:44+00:00</time>
      </trkpt>
      <trkpt lat="45.25767" lon="6.06124">
        <ele>1624</ele>
        <time>2024-06-06T01:50:47+00:00</time>
      </trkpt>
      <trkpt lat="45.25737" lon="6.06112">
        <ele>1623</ele>
        <time>2024-06-06T01:50:50+00:00</time>
      </trkpt>
      <trkpt lat="45.25729" lon="6.06104">
        <ele>1624</ele>
        <time>2024-06-06T01:50:53+00:00</time>
      </trkpt>
      <trkpt lat="45.25727" lon="6.06099">
        <ele>1621</ele>
        <time>2024-06-06T01:50:56+00:00</time>
      </trkpt>
      <trkpt lat="45.25717" lon="6.06079">
        <ele>1621</ele>
        <time>2024-06-06T01:50:59+00:00</time>
      </trkpt>
      <trkpt lat="45.25707" lon="6.0606">
        <ele>1617</ele>
        <time>2024-06-06T01:51:02+00:00</time>
      </trkpt>
      <trkpt lat="45.25701" lon="6.06052">
        <ele>1617</ele>
        <time>2024-06-06T01:51:05+00:00</time>
      </trkpt>
      <trkpt lat="45.25699" lon="6.06046">
        <ele>1618</ele>
        <time>2024-06-06T01:51:08+00:00</time>
      </trkpt>
      <trkpt lat="45.25698" lon="6.06039">
        <ele>1615</ele>
        <time>2024-06-06T01:51:11+00:00</time>
      </trkpt>
      <trkpt lat="45.25696" lon="6.06034">
        <ele>1615</ele>
        <time>2024-06-06T01:51:14+00:00</time>
      </trkpt>
      <trkpt lat="45.25681" lon="6.06016">
        <ele>1613</ele>
        <time>2024-06-06T01:51:17+00:00</time>
      </trkpt>
      <trkpt lat="45.25679" lon="6.06012">
        <ele>1617</ele>
        <time>2024-06-06T01:51:20+00:00</time>
      </trkpt>
      <trkpt lat="45.25676" lon="6.06007">
        <ele>1615</ele>
        <time>2024-06-06T01:51:23+00:00</time>
      </trkpt>
      <trkpt lat="45.25673" lon="6.05998">
        <ele>1613</ele>
        <time>2024-06-06T01:51:26+00:00</time>
      </trkpt>
      <trkpt lat="45.25671" lon="6.05991">
        <ele>1613</ele>
        <time>2024-06-06T01:51:29+00:00</time>
      </trkpt>
      <trkpt lat="45.25669" lon="6.05984">
        <ele>1616</ele>
        <time>2024-06-06T01:51:32+00:00</time>
      </trkpt>
      <trkpt lat="45.25667" lon="6.05977">
        <ele>1614</ele>
        <time>2024-06-06T01:51:35+00:00</time>
      </trkpt>
      <trkpt lat="45.25665" lon="6.05973">
        <ele>1614</ele>
        <time>2024-06-06T01:51:38+00:00</time>
      </trkpt>
      <trkpt lat="45.25661" lon="6.05967">
        <ele>1615</ele>
        <time>2024-06-06T01:51:41+00:00</time>
      </trkpt>
      <trkpt lat="45.25657" lon="6.05962">
        <ele>1617</ele>
        <time>2024-06-06T01:51:44+00:00</time>
      </trkpt>
      <trkpt lat="45.25653" lon="6.05959">
        <ele>1615</ele>
        <time>2024-06-06T01:51:47+00:00</time>
      </trkpt>
      <trkpt lat="45.2565" lon="6.05958">
        <ele>1615</ele>
        <time>2024-06-06T01:51:50+00:00</time>
      </trkpt>
      <trkpt lat="45.25647" lon="6.05955">
        <ele>1619</ele>
        <time>2024-06-06T01:51:53+00:00</time>
      </trkpt>
      <trkpt lat="45.25647" lon="6.05952">
        <ele>1619</ele>
        <time>2024-06-06T01:51:56+00:00</time>
      </trkpt>
      <trkpt lat="45.25646" lon="6.05947">
        <ele>1618</ele>
        <time>2024-06-06T01:51:59+00:00</time>
      </trkpt>
      <trkpt lat="45.25645" lon="6.05942">
        <ele>1618</ele>
        <time>2024-06-06T01:52:02+00:00</time>
      </trkpt>
      <trkpt lat="45.25643" lon="6.05937">
        <ele>1616</ele>
        <time>2024-06-06T01:52:05+00:00</time>
      </trkpt>
      <trkpt lat="45.25641" lon="6.05933">
        <ele>1616</ele>
        <time>2024-06-06T01:52:08+00:00</time>
      </trkpt>
      <trkpt lat="45.25637" lon="6.05928">
        <ele>1620</ele>
        <time>2024-06-06T01:52:11+00:00</time>
      </trkpt>
      <trkpt lat="45.25635" lon="6.05925">
        <ele>1620</ele>
        <time>2024-06-06T01:52:14+00:00</time>
      </trkpt>
      <trkpt lat="45.25635" lon="6.05922">
        <ele>1620</ele>
        <time>2024-06-06T01:52:17+00:00</time>
      </trkpt>
      <trkpt lat="45.25636" lon="6.05912">
        <ele>1621</ele>
        <time>2024-06-06T01:52:20+00:00</time>
      </trkpt>
      <trkpt lat="45.25636" lon="6.05906">
        <ele>1621</ele>
        <time>2024-06-06T01:52:23+00:00</time>
      </trkpt>
      <trkpt lat="45.25636" lon="6.059">
        <ele>1620</ele>
        <time>2024-06-06T01:52:26+00:00</time>
      </trkpt>
      <trkpt lat="45.25634" lon="6.05895">
        <ele>1620</ele>
        <time>2024-06-06T01:52:29+00:00</time>
      </trkpt>
      <trkpt lat="45.25622" lon="6.05881">
        <ele>1622</ele>
        <time>2024-06-06T01:52:32+00:00</time>
      </trkpt>
      <trkpt lat="45.25621" lon="6.05876">
        <ele>1620</ele>
        <time>2024-06-06T01:52:35+00:00</time>
      </trkpt>
      <trkpt lat="45.25615" lon="6.05846">
        <ele>1619</ele>
        <time>2024-06-06T01:52:38+00:00</time>
      </trkpt>
      <trkpt lat="45.25613" lon="6.05841">
        <ele>1616</ele>
        <time>2024-06-06T01:52:41+00:00</time>
      </trkpt>
      <trkpt lat="45.2561" lon="6.05837">
        <ele>1620</ele>
        <time>2024-06-06T01:52:44+00:00</time>
      </trkpt>
      <trkpt lat="45.25608" lon="6.0583">
        <ele>1619</ele>
        <time>2024-06-06T01:52:47+00:00</time>
      </trkpt>
      <trkpt lat="45.25607" lon="6.05825">
        <ele>1619</ele>
        <time>2024-06-06T01:52:50+00:00</time>
      </trkpt>
      <trkpt lat="45.25605" lon="6.0582">
        <ele>1619</ele>
        <time>2024-06-06T01:52:53+00:00</time>
      </trkpt>
      <trkpt lat="45.25604" lon="6.05816">
        <ele>1619</ele>
        <time>2024-06-06T01:52:56+00:00</time>
      </trkpt>
      <trkpt lat="45.25603" lon="6.05812">
        <ele>1619</ele>
        <time>2024-06-06T01:52:59+00:00</time>
      </trkpt>
      <trkpt lat="45.25603" lon="6.05807">
        <ele>1619</ele>
        <time>2024-06-06T01:53:02+00:00</time>
      </trkpt>
      <trkpt lat="45.25606" lon="6.05789">
        <ele>1624</ele>
        <time>2024-06-06T01:53:05+00:00</time>
      </trkpt>
      <trkpt lat="45.25606" lon="6.05762">
        <ele>1628</ele>
        <time>2024-06-06T01:53:08+00:00</time>
      </trkpt>
      <trkpt lat="45.25608" lon="6.05749">
        <ele>1637</ele>
        <time>2024-06-06T01:53:11+00:00</time>
      </trkpt>
      <trkpt lat="45.25611" lon="6.05743">
        <ele>1631</ele>
        <time>2024-06-06T01:53:14+00:00</time>
      </trkpt>
      <trkpt lat="45.25614" lon="6.05739">
        <ele>1634</ele>
        <time>2024-06-06T01:53:17+00:00</time>
      </trkpt>
      <trkpt lat="45.25615" lon="6.05732">
        <ele>1634</ele>
        <time>2024-06-06T01:53:20+00:00</time>
      </trkpt>
      <trkpt lat="45.25615" lon="6.05721">
        <ele>1638</ele>
        <time>2024-06-06T01:53:23+00:00</time>
      </trkpt>
      <trkpt lat="45.2562" lon="6.0571">
        <ele>1643</ele>
        <time>2024-06-06T01:53:26+00:00</time>
      </trkpt>
      <trkpt lat="45.25621" lon="6.05705">
        <ele>1639</ele>
        <time>2024-06-06T01:53:29+00:00</time>
      </trkpt>
      <trkpt lat="45.25621" lon="6.05701">
        <ele>1639</ele>
        <time>2024-06-06T01:53:32+00:00</time>
      </trkpt>
      <trkpt lat="45.25618" lon="6.05697">
        <ele>1646</ele>
        <time>2024-06-06T01:53:35+00:00</time>
      </trkpt>
      <trkpt lat="45.25615" lon="6.05694">
        <ele>1646</ele>
        <time>2024-06-06T01:53:38+00:00</time>
      </trkpt>
      <trkpt lat="45.25615" lon="6.05691">
        <ele>1646</ele>
        <time>2024-06-06T01:53:41+00:00</time>
      </trkpt>
      <trkpt lat="45.25616" lon="6.05688">
        <ele>1647</ele>
        <time>2024-06-06T01:53:44+00:00</time>
      </trkpt>
      <trkpt lat="45.25616" lon="6.05685">
        <ele>1647</ele>
        <time>2024-06-06T01:53:47+00:00</time>
      </trkpt>
      <trkpt lat="45.25614" lon="6.05683">
        <ele>1647</ele>
        <time>2024-06-06T01:53:50+00:00</time>
      </trkpt>
      <trkpt lat="45.25611" lon="6.05681">
        <ele>1647</ele>
        <time>2024-06-06T01:53:53+00:00</time>
      </trkpt>
      <trkpt lat="45.25607" lon="6.05676">
        <ele>1653</ele>
        <time>2024-06-06T01:53:56+00:00</time>
      </trkpt>
      <trkpt lat="45.25605" lon="6.05673">
        <ele>1653</ele>
        <time>2024-06-06T01:53:59+00:00</time>
      </trkpt>
      <trkpt lat="45.256" lon="6.05668">
        <ele>1658</ele>
        <time>2024-06-06T01:54:02+00:00</time>
      </trkpt>
      <trkpt lat="45.25597" lon="6.05663">
        <ele>1658</ele>
        <time>2024-06-06T01:54:05+00:00</time>
      </trkpt>
      <trkpt lat="45.25593" lon="6.05659">
        <ele>1660</ele>
        <time>2024-06-06T01:54:08+00:00</time>
      </trkpt>
      <trkpt lat="45.2559" lon="6.05658">
        <ele>1660</ele>
        <time>2024-06-06T01:54:11+00:00</time>
      </trkpt>
      <trkpt lat="45.25587" lon="6.05656">
        <ele>1663</ele>
        <time>2024-06-06T01:54:14+00:00</time>
      </trkpt>
      <trkpt lat="45.25584" lon="6.05651">
        <ele>1663</ele>
        <time>2024-06-06T01:54:17+00:00</time>
      </trkpt>
      <trkpt lat="45.25584" lon="6.05647">
        <ele>1664</ele>
        <time>2024-06-06T01:54:20+00:00</time>
      </trkpt>
      <trkpt lat="45.25584" lon="6.05639">
        <ele>1665</ele>
        <time>2024-06-06T01:54:23+00:00</time>
      </trkpt>
      <trkpt lat="45.25585" lon="6.05634">
        <ele>1665</ele>
        <time>2024-06-06T01:54:26+00:00</time>
      </trkpt>
      <trkpt lat="45.25583" lon="6.05629">
        <ele>1666</ele>
        <time>2024-06-06T01:54:29+00:00</time>
      </trkpt>
      <trkpt lat="45.2558" lon="6.05624">
        <ele>1669</ele>
        <time>2024-06-06T01:54:32+00:00</time>
      </trkpt>
      <trkpt lat="45.25576" lon="6.05614">
        <ele>1670</ele>
        <time>2024-06-06T01:54:35+00:00</time>
      </trkpt>
      <trkpt lat="45.25574" lon="6.05609">
        <ele>1671</ele>
        <time>2024-06-06T01:54:38+00:00</time>
      </trkpt>
      <trkpt lat="45.25572" lon="6.056">
        <ele>1671</ele>
        <time>2024-06-06T01:54:41+00:00</time>
      </trkpt>
      <trkpt lat="45.2557" lon="6.05595">
        <ele>1679</ele>
        <time>2024-06-06T01:54:44+00:00</time>
      </trkpt>
      <trkpt lat="45.25568" lon="6.05586">
        <ele>1672</ele>
        <time>2024-06-06T01:54:47+00:00</time>
      </trkpt>
      <trkpt lat="45.25567" lon="6.05582">
        <ele>1679</ele>
        <time>2024-06-06T01:54:50+00:00</time>
      </trkpt>
      <trkpt lat="45.25567" lon="6.05574">
        <ele>1678</ele>
        <time>2024-06-06T01:54:53+00:00</time>
      </trkpt>
      <trkpt lat="45.25566" lon="6.05569">
        <ele>1675</ele>
        <time>2024-06-06T01:54:56+00:00</time>
      </trkpt>
      <trkpt lat="45.25565" lon="6.05562">
        <ele>1675</ele>
        <time>2024-06-06T01:54:59+00:00</time>
      </trkpt>
      <trkpt lat="45.25564" lon="6.05555">
        <ele>1674</ele>
        <time>2024-06-06T01:55:02+00:00</time>
      </trkpt>
      <trkpt lat="45.25563" lon="6.05546">
        <ele>1672</ele>
        <time>2024-06-06T01:55:05+00:00</time>
      </trkpt>
      <trkpt lat="45.25556" lon="6.05534">
        <ele>1676</ele>
        <time>2024-06-06T01:55:08+00:00</time>
      </trkpt>
      <trkpt lat="45.25554" lon="6.05529">
        <ele>1677</ele>
        <time>2024-06-06T01:55:11+00:00</time>
      </trkpt>
      <trkpt lat="45.25553" lon="6.05524">
        <ele>1677</ele>
        <time>2024-06-06T01:55:14+00:00</time>
      </trkpt>
      <trkpt lat="45.25551" lon="6.05519">
        <ele>1678</ele>
        <time>2024-06-06T01:55:17+00:00</time>
      </trkpt>
      <trkpt lat="45.25549" lon="6.05516">
        <ele>1682</ele>
        <time>2024-06-06T01:55:20+00:00</time>
      </trkpt>
      <trkpt lat="45.25548" lon="6.0551">
        <ele>1683</ele>
        <time>2024-06-06T01:55:23+00:00</time>
      </trkpt>
      <trkpt lat="45.25549" lon="6.05505">
        <ele>1678</ele>
        <time>2024-06-06T01:55:26+00:00</time>
      </trkpt>
      <trkpt lat="45.25549" lon="6.055">
        <ele>1683</ele>
        <time>2024-06-06T01:55:29+00:00</time>
      </trkpt>
      <trkpt lat="45.25549" lon="6.05492">
        <ele>1683</ele>
        <time>2024-06-06T01:55:32+00:00</time>
      </trkpt>
      <trkpt lat="45.25548" lon="6.05484">
        <ele>1682</ele>
        <time>2024-06-06T01:55:35+00:00</time>
      </trkpt>
      <trkpt lat="45.25547" lon="6.05474">
        <ele>1674</ele>
        <time>2024-06-06T01:55:38+00:00</time>
      </trkpt>
      <trkpt lat="45.25546" lon="6.05466">
        <ele>1678</ele>
        <time>2024-06-06T01:55:41+00:00</time>
      </trkpt>
      <trkpt lat="45.25545" lon="6.05461">
        <ele>1678</ele>
        <time>2024-06-06T01:55:44+00:00</time>
      </trkpt>
      <trkpt lat="45.25544" lon="6.05455">
        <ele>1675</ele>
        <time>2024-06-06T01:55:47+00:00</time>
      </trkpt>
      <trkpt lat="45.25542" lon="6.0545">
        <ele>1675</ele>
        <time>2024-06-06T01:55:50+00:00</time>
      </trkpt>
      <trkpt lat="45.2554" lon="6.05445">
        <ele>1673</ele>
        <time>2024-06-06T01:55:53+00:00</time>
      </trkpt>
      <trkpt lat="45.25538" lon="6.05436">
        <ele>1677</ele>
        <time>2024-06-06T01:55:56+00:00</time>
      </trkpt>
      <trkpt lat="45.25537" lon="6.05431">
        <ele>1677</ele>
        <time>2024-06-06T01:55:59+00:00</time>
      </trkpt>
      <trkpt lat="45.25535" lon="6.05421">
        <ele>1676</ele>
        <time>2024-06-06T01:56:02+00:00</time>
      </trkpt>
      <trkpt lat="45.25535" lon="6.05415">
        <ele>1673</ele>
        <time>2024-06-06T01:56:05+00:00</time>
      </trkpt>
      <trkpt lat="45.25536" lon="6.05407">
        <ele>1671</ele>
        <time>2024-06-06T01:56:08+00:00</time>
      </trkpt>
      <trkpt lat="45.25536" lon="6.05399">
        <ele>1668</ele>
        <time>2024-06-06T01:56:11+00:00</time>
      </trkpt>
      <trkpt lat="45.25535" lon="6.05395">
        <ele>1668</ele>
        <time>2024-06-06T01:56:14+00:00</time>
      </trkpt>
      <trkpt lat="45.25533" lon="6.05389">
        <ele>1669</ele>
        <time>2024-06-06T01:56:17+00:00</time>
      </trkpt>
      <trkpt lat="45.2553" lon="6.05384">
        <ele>1667</ele>
        <time>2024-06-06T01:56:20+00:00</time>
      </trkpt>
      <trkpt lat="45.25527" lon="6.0538">
        <ele>1667</ele>
        <time>2024-06-06T01:56:23+00:00</time>
      </trkpt>
      <trkpt lat="45.25522" lon="6.05376">
        <ele>1663</ele>
        <time>2024-06-06T01:56:26+00:00</time>
      </trkpt>
      <trkpt lat="45.25519" lon="6.05373">
        <ele>1668</ele>
        <time>2024-06-06T01:56:29+00:00</time>
      </trkpt>
      <trkpt lat="45.25516" lon="6.05368">
        <ele>1667</ele>
        <time>2024-06-06T01:56:32+00:00</time>
      </trkpt>
      <trkpt lat="45.25515" lon="6.05363">
        <ele>1665</ele>
        <time>2024-06-06T01:56:35+00:00</time>
      </trkpt>
      <trkpt lat="45.25514" lon="6.05359">
        <ele>1661</ele>
        <time>2024-06-06T01:56:38+00:00</time>
      </trkpt>
      <trkpt lat="45.25509" lon="6.05346">
        <ele>1666</ele>
        <time>2024-06-06T01:56:41+00:00</time>
      </trkpt>
      <trkpt lat="45.25508" lon="6.05344">
        <ele>1666</ele>
        <time>2024-06-06T01:56:44+00:00</time>
      </trkpt>
      <trkpt lat="45.25508" lon="6.05344">
        <ele>1666</ele>
        <time>2024-06-06T01:56:47+00:00</time>
      </trkpt>
      <trkpt lat="45.25507" lon="6.05342">
        <ele>1666</ele>
        <time>2024-06-06T01:56:50+00:00</time>
      </trkpt>
      <trkpt lat="45.25503" lon="6.05337">
        <ele>1663</ele>
        <time>2024-06-06T01:56:53+00:00</time>
      </trkpt>
      <trkpt lat="45.25499" lon="6.05332">
        <ele>1669</ele>
        <time>2024-06-06T01:56:56+00:00</time>
      </trkpt>
      <trkpt lat="45.25496" lon="6.05317">
        <ele>1663</ele>
        <time>2024-06-06T01:56:59+00:00</time>
      </trkpt>
      <trkpt lat="45.25494" lon="6.05313">
        <ele>1663</ele>
        <time>2024-06-06T01:57:02+00:00</time>
      </trkpt>
      <trkpt lat="45.25491" lon="6.05307">
        <ele>1662</ele>
        <time>2024-06-06T01:57:05+00:00</time>
      </trkpt>
      <trkpt lat="45.25487" lon="6.05301">
        <ele>1666</ele>
        <time>2024-06-06T01:57:08+00:00</time>
      </trkpt>
      <trkpt lat="45.25483" lon="6.05293">
        <ele>1663</ele>
        <time>2024-06-06T01:57:11+00:00</time>
      </trkpt>
      <trkpt lat="45.2548" lon="6.05284">
        <ele>1662</ele>
        <time>2024-06-06T01:57:14+00:00</time>
      </trkpt>
      <trkpt lat="45.25481" lon="6.05278">
        <ele>1661</ele>
        <time>2024-06-06T01:57:17+00:00</time>
      </trkpt>
      <trkpt lat="45.25481" lon="6.05273">
        <ele>1661</ele>
        <time>2024-06-06T01:57:20+00:00</time>
      </trkpt>
      <trkpt lat="45.25483" lon="6.05269">
        <ele>1661</ele>
        <time>2024-06-06T01:57:23+00:00</time>
      </trkpt>
      <trkpt lat="45.25483" lon="6.05262">
        <ele>1661</ele>
        <time>2024-06-06T01:57:26+00:00</time>
      </trkpt>
      <trkpt lat="45.25481" lon="6.05256">
        <ele>1660</ele>
        <time>2024-06-06T01:57:29+00:00</time>
      </trkpt>
      <trkpt lat="45.25474" lon="6.05241">
        <ele>1664</ele>
        <time>2024-06-06T01:57:32+00:00</time>
      </trkpt>
      <trkpt lat="45.25471" lon="6.05234">
        <ele>1661</ele>
        <time>2024-06-06T01:57:35+00:00</time>
      </trkpt>
      <trkpt lat="45.25465" lon="6.05219">
        <ele>1662</ele>
        <time>2024-06-06T01:57:38+00:00</time>
      </trkpt>
      <trkpt lat="45.25463" lon="6.05214">
        <ele>1662</ele>
        <time>2024-06-06T01:57:41+00:00</time>
      </trkpt>
      <trkpt lat="45.25462" lon="6.05209">
        <ele>1660</ele>
        <time>2024-06-06T01:57:44+00:00</time>
      </trkpt>
      <trkpt lat="45.25464" lon="6.05204">
        <ele>1662</ele>
        <time>2024-06-06T01:57:47+00:00</time>
      </trkpt>
      <trkpt lat="45.25467" lon="6.05197">
        <ele>1663</ele>
        <time>2024-06-06T01:57:50+00:00</time>
      </trkpt>
      <trkpt lat="45.25469" lon="6.0519">
        <ele>1663</ele>
        <time>2024-06-06T01:57:53+00:00</time>
      </trkpt>
      <trkpt lat="45.25471" lon="6.05185">
        <ele>1661</ele>
        <time>2024-06-06T01:57:56+00:00</time>
      </trkpt>
      <trkpt lat="45.25472" lon="6.05177">
        <ele>1659</ele>
        <time>2024-06-06T01:57:59+00:00</time>
      </trkpt>
      <trkpt lat="45.25473" lon="6.05167">
        <ele>1658</ele>
        <time>2024-06-06T01:58:02+00:00</time>
      </trkpt>
      <trkpt lat="45.25472" lon="6.05162">
        <ele>1658</ele>
        <time>2024-06-06T01:58:05+00:00</time>
      </trkpt>
      <trkpt lat="45.25469" lon="6.05156">
        <ele>1661</ele>
        <time>2024-06-06T01:58:08+00:00</time>
      </trkpt>
      <trkpt lat="45.25467" lon="6.0515">
        <ele>1660</ele>
        <time>2024-06-06T01:58:11+00:00</time>
      </trkpt>
      <trkpt lat="45.25468" lon="6.05143">
        <ele>1660</ele>
        <time>2024-06-06T01:58:14+00:00</time>
      </trkpt>
      <trkpt lat="45.25468" lon="6.05138">
        <ele>1660</ele>
        <time>2024-06-06T01:58:17+00:00</time>
      </trkpt>
      <trkpt lat="45.25469" lon="6.05129">
        <ele>1661</ele>
        <time>2024-06-06T01:58:20+00:00</time>
      </trkpt>
      <trkpt lat="45.2547" lon="6.05121">
        <ele>1661</ele>
        <time>2024-06-06T01:58:23+00:00</time>
      </trkpt>
      <trkpt lat="45.25471" lon="6.05115">
        <ele>1660</ele>
        <time>2024-06-06T01:58:26+00:00</time>
      </trkpt>
      <trkpt lat="45.25474" lon="6.0511">
        <ele>1660</ele>
        <time>2024-06-06T01:58:29+00:00</time>
      </trkpt>
      <trkpt lat="45.25477" lon="6.05108">
        <ele>1663</ele>
        <time>2024-06-06T01:58:32+00:00</time>
      </trkpt>
      <trkpt lat="45.25481" lon="6.05103">
        <ele>1660</ele>
        <time>2024-06-06T01:58:35+00:00</time>
      </trkpt>
      <trkpt lat="45.25485" lon="6.05098">
        <ele>1659</ele>
        <time>2024-06-06T01:58:38+00:00</time>
      </trkpt>
      <trkpt lat="45.25491" lon="6.05087">
        <ele>1659</ele>
        <time>2024-06-06T01:58:41+00:00</time>
      </trkpt>
      <trkpt lat="45.25494" lon="6.0508">
        <ele>1659</ele>
        <time>2024-06-06T01:58:44+00:00</time>
      </trkpt>
      <trkpt lat="45.25498" lon="6.0507">
        <ele>1660</ele>
        <time>2024-06-06T01:58:47+00:00</time>
      </trkpt>
      <trkpt lat="45.25498" lon="6.05065">
        <ele>1660</ele>
        <time>2024-06-06T01:58:50+00:00</time>
      </trkpt>
      <trkpt lat="45.25499" lon="6.05059">
        <ele>1658</ele>
        <time>2024-06-06T01:58:53+00:00</time>
      </trkpt>
      <trkpt lat="45.25497" lon="6.05054">
        <ele>1658</ele>
        <time>2024-06-06T01:58:56+00:00</time>
      </trkpt>
      <trkpt lat="45.25494" lon="6.0505">
        <ele>1656</ele>
        <time>2024-06-06T01:58:59+00:00</time>
      </trkpt>
      <trkpt lat="45.25491" lon="6.05045">
        <ele>1656</ele>
        <time>2024-06-06T01:59:02+00:00</time>
      </trkpt>
      <trkpt lat="45.2549" lon="6.05041">
        <ele>1656</ele>
        <time>2024-06-06T01:59:05+00:00</time>
      </trkpt>
      <trkpt lat="45.25489" lon="6.05035">
        <ele>1657</ele>
        <time>2024-06-06T01:59:08+00:00</time>
      </trkpt>
      <trkpt lat="45.25489" lon="6.05029">
        <ele>1654</ele>
        <time>2024-06-06T01:59:11+00:00</time>
      </trkpt>
      <trkpt lat="45.25488" lon="6.05026">
        <ele>1654</ele>
        <time>2024-06-06T01:59:14+00:00</time>
      </trkpt>
      <trkpt lat="45.25486" lon="6.05021">
        <ele>1654</ele>
        <time>2024-06-06T01:59:17+00:00</time>
      </trkpt>
      <trkpt lat="45.25484" lon="6.05005">
        <ele>1653</ele>
        <time>2024-06-06T01:59:20+00:00</time>
      </trkpt>
      <trkpt lat="45.25483" lon="6.04998">
        <ele>1655</ele>
        <time>2024-06-06T01:59:23+00:00</time>
      </trkpt>
      <trkpt lat="45.25482" lon="6.04991">
        <ele>1652</ele>
        <time>2024-06-06T01:59:26+00:00</time>
      </trkpt>
      <trkpt lat="45.25479" lon="6.04983">
        <ele>1656</ele>
        <time>2024-06-06T01:59:29+00:00</time>
      </trkpt>
      <trkpt lat="45.25478" lon="6.0498">
        <ele>1656</ele>
        <time>2024-06-06T01:59:32+00:00</time>
      </trkpt>
      <trkpt lat="45.25477" lon="6.04977">
        <ele>1656</ele>
        <time>2024-06-06T01:59:35+00:00</time>
      </trkpt>
      <trkpt lat="45.25479" lon="6.04971">
        <ele>1653</ele>
        <time>2024-06-06T01:59:38+00:00</time>
      </trkpt>
      <trkpt lat="45.2548" lon="6.04969">
        <ele>1655</ele>
        <time>2024-06-06T01:59:41+00:00</time>
      </trkpt>
      <trkpt lat="45.25479" lon="6.04966">
        <ele>1655</ele>
        <time>2024-06-06T01:59:44+00:00</time>
      </trkpt>
      <trkpt lat="45.25478" lon="6.04959">
        <ele>1656</ele>
        <time>2024-06-06T01:59:47+00:00</time>
      </trkpt>
      <trkpt lat="45.25477" lon="6.04953">
        <ele>1656</ele>
        <time>2024-06-06T01:59:50+00:00</time>
      </trkpt>
      <trkpt lat="45.25477" lon="6.0495">
        <ele>1656</ele>
        <time>2024-06-06T01:59:53+00:00</time>
      </trkpt>
      <trkpt lat="45.2548" lon="6.04947">
        <ele>1656</ele>
        <time>2024-06-06T01:59:56+00:00</time>
      </trkpt>
      <trkpt lat="45.25482" lon="6.04946">
        <ele>1653</ele>
        <time>2024-06-06T01:59:59+00:00</time>
      </trkpt>
      <trkpt lat="45.25486" lon="6.04943">
        <ele>1652</ele>
        <time>2024-06-06T02:00:02+00:00</time>
      </trkpt>
      <trkpt lat="45.2549" lon="6.04938">
        <ele>1651</ele>
        <time>2024-06-06T02:00:05+00:00</time>
      </trkpt>
      <trkpt lat="45.25491" lon="6.04934">
        <ele>1651</ele>
        <time>2024-06-06T02:00:08+00:00</time>
      </trkpt>
      <trkpt lat="45.2549" lon="6.04928">
        <ele>1654</ele>
        <time>2024-06-06T02:00:11+00:00</time>
      </trkpt>
      <trkpt lat="45.25488" lon="6.04922">
        <ele>1654</ele>
        <time>2024-06-06T02:00:14+00:00</time>
      </trkpt>
      <trkpt lat="45.25488" lon="6.04917">
        <ele>1655</ele>
        <time>2024-06-06T02:00:17+00:00</time>
      </trkpt>
      <trkpt lat="45.25488" lon="6.0491">
        <ele>1655</ele>
        <time>2024-06-06T02:00:20+00:00</time>
      </trkpt>
      <trkpt lat="45.25493" lon="6.04884">
        <ele>1654</ele>
        <time>2024-06-06T02:00:23+00:00</time>
      </trkpt>
      <trkpt lat="45.25495" lon="6.04873">
        <ele>1656</ele>
        <time>2024-06-06T02:00:26+00:00</time>
      </trkpt>
      <trkpt lat="45.25498" lon="6.04867">
        <ele>1657</ele>
        <time>2024-06-06T02:00:29+00:00</time>
      </trkpt>
      <trkpt lat="45.255" lon="6.04863">
        <ele>1657</ele>
        <time>2024-06-06T02:00:32+00:00</time>
      </trkpt>
      <trkpt lat="45.25502" lon="6.04859">
        <ele>1656</ele>
        <time>2024-06-06T02:00:35+00:00</time>
      </trkpt>
      <trkpt lat="45.25505" lon="6.04853">
        <ele>1656</ele>
        <time>2024-06-06T02:00:38+00:00</time>
      </trkpt>
      <trkpt lat="45.25523" lon="6.04836">
        <ele>1659</ele>
        <time>2024-06-06T02:00:41+00:00</time>
      </trkpt>
      <trkpt lat="45.25525" lon="6.04831">
        <ele>1659</ele>
        <time>2024-06-06T02:00:44+00:00</time>
      </trkpt>
      <trkpt lat="45.25526" lon="6.04825">
        <ele>1660</ele>
        <time>2024-06-06T02:00:47+00:00</time>
      </trkpt>
      <trkpt lat="45.25525" lon="6.04819">
        <ele>1662</ele>
        <time>2024-06-06T02:00:50+00:00</time>
      </trkpt>
      <trkpt lat="45.25525" lon="6.04815">
        <ele>1662</ele>
        <time>2024-06-06T02:00:53+00:00</time>
      </trkpt>
      <trkpt lat="45.25524" lon="6.0481">
        <ele>1660</ele>
        <time>2024-06-06T02:00:56+00:00</time>
      </trkpt>
      <trkpt lat="45.25524" lon="6.048">
        <ele>1662</ele>
        <time>2024-06-06T02:00:59+00:00</time>
      </trkpt>
      <trkpt lat="45.25523" lon="6.04793">
        <ele>1662</ele>
        <time>2024-06-06T02:01:02+00:00</time>
      </trkpt>
      <trkpt lat="45.25522" lon="6.04787">
        <ele>1661</ele>
        <time>2024-06-06T02:01:05+00:00</time>
      </trkpt>
      <trkpt lat="45.25521" lon="6.04781">
        <ele>1660</ele>
        <time>2024-06-06T02:01:08+00:00</time>
      </trkpt>
      <trkpt lat="45.2552" lon="6.04775">
        <ele>1665</ele>
        <time>2024-06-06T02:01:11+00:00</time>
      </trkpt>
      <trkpt lat="45.25519" lon="6.0477">
        <ele>1666</ele>
        <time>2024-06-06T02:01:14+00:00</time>
      </trkpt>
      <trkpt lat="45.25523" lon="6.04769">
        <ele>1664</ele>
        <time>2024-06-06T02:01:17+00:00</time>
      </trkpt>
      <trkpt lat="45.25527" lon="6.04771">
        <ele>1661</ele>
        <time>2024-06-06T02:01:20+00:00</time>
      </trkpt>
      <trkpt lat="45.25533" lon="6.04773">
        <ele>1660</ele>
        <time>2024-06-06T02:01:23+00:00</time>
      </trkpt>
      <trkpt lat="45.25537" lon="6.04776">
        <ele>1660</ele>
        <time>2024-06-06T02:01:26+00:00</time>
      </trkpt>
      <trkpt lat="45.25543" lon="6.04781">
        <ele>1657</ele>
        <time>2024-06-06T02:01:29+00:00</time>
      </trkpt>
      <trkpt lat="45.2555" lon="6.04787">
        <ele>1661</ele>
        <time>2024-06-06T02:01:32+00:00</time>
      </trkpt>
      <trkpt lat="45.25557" lon="6.04791">
        <ele>1656</ele>
        <time>2024-06-06T02:01:35+00:00</time>
      </trkpt>
      <trkpt lat="45.25562" lon="6.04791">
        <ele>1658</ele>
        <time>2024-06-06T02:01:38+00:00</time>
      </trkpt>
      <trkpt lat="45.25569" lon="6.04786">
        <ele>1661</ele>
        <time>2024-06-06T02:01:41+00:00</time>
      </trkpt>
      <trkpt lat="45.25578" lon="6.04782">
        <ele>1662</ele>
        <time>2024-06-06T02:01:44+00:00</time>
      </trkpt>
      <trkpt lat="45.25593" lon="6.04782">
        <ele>1661</ele>
        <time>2024-06-06T02:01:47+00:00</time>
      </trkpt>
      <trkpt lat="45.256" lon="6.04781">
        <ele>1660</ele>
        <time>2024-06-06T02:01:50+00:00</time>
      </trkpt>
      <trkpt lat="45.25605" lon="6.04775">
        <ele>1661</ele>
        <time>2024-06-06T02:01:53+00:00</time>
      </trkpt>
      <trkpt lat="45.25612" lon="6.04759">
        <ele>1664</ele>
        <time>2024-06-06T02:01:56+00:00</time>
      </trkpt>
      <trkpt lat="45.25618" lon="6.04752">
        <ele>1664</ele>
        <time>2024-06-06T02:01:59+00:00</time>
      </trkpt>
      <trkpt lat="45.25629" lon="6.04751">
        <ele>1664</ele>
        <time>2024-06-06T02:02:02+00:00</time>
      </trkpt>
      <trkpt lat="45.25636" lon="6.04755">
        <ele>1663</ele>
        <time>2024-06-06T02:02:05+00:00</time>
      </trkpt>
      <trkpt lat="45.25644" lon="6.0476">
        <ele>1667</ele>
        <time>2024-06-06T02:02:08+00:00</time>
      </trkpt>
      <trkpt lat="45.25654" lon="6.04765">
        <ele>1663</ele>
        <time>2024-06-06T02:02:11+00:00</time>
      </trkpt>
      <trkpt lat="45.25666" lon="6.04769">
        <ele>1665</ele>
        <time>2024-06-06T02:02:14+00:00</time>
      </trkpt>
      <trkpt lat="45.25674" lon="6.04772">
        <ele>1663</ele>
        <time>2024-06-06T02:02:17+00:00</time>
      </trkpt>
      <trkpt lat="45.25682" lon="6.04776">
        <ele>1665</ele>
        <time>2024-06-06T02:02:20+00:00</time>
      </trkpt>
      <trkpt lat="45.25689" lon="6.04781">
        <ele>1662</ele>
        <time>2024-06-06T02:02:23+00:00</time>
      </trkpt>
      <trkpt lat="45.25697" lon="6.04785">
        <ele>1663</ele>
        <time>2024-06-06T02:02:26+00:00</time>
      </trkpt>
      <trkpt lat="45.25705" lon="6.04785">
        <ele>1663</ele>
        <time>2024-06-06T02:02:29+00:00</time>
      </trkpt>
      <trkpt lat="45.25712" lon="6.04786">
        <ele>1663</ele>
        <time>2024-06-06T02:02:32+00:00</time>
      </trkpt>
      <trkpt lat="45.25719" lon="6.04784">
        <ele>1663</ele>
        <time>2024-06-06T02:02:35+00:00</time>
      </trkpt>
      <trkpt lat="45.25724" lon="6.04781">
        <ele>1661</ele>
        <time>2024-06-06T02:02:38+00:00</time>
      </trkpt>
      <trkpt lat="45.25732" lon="6.04776">
        <ele>1663</ele>
        <time>2024-06-06T02:02:41+00:00</time>
      </trkpt>
      <trkpt lat="45.25741" lon="6.04774">
        <ele>1662</ele>
        <time>2024-06-06T02:02:44+00:00</time>
      </trkpt>
      <trkpt lat="45.25747" lon="6.04773">
        <ele>1662</ele>
        <time>2024-06-06T02:02:47+00:00</time>
      </trkpt>
      <trkpt lat="45.25773" lon="6.0478">
        <ele>1661</ele>
        <time>2024-06-06T02:02:50+00:00</time>
      </trkpt>
      <trkpt lat="45.25807" lon="6.04787">
        <ele>1658</ele>
        <time>2024-06-06T02:02:53+00:00</time>
      </trkpt>
      <trkpt lat="45.25832" lon="6.04793">
        <ele>1655</ele>
        <time>2024-06-06T02:02:56+00:00</time>
      </trkpt>
      <trkpt lat="45.2584" lon="6.04793">
        <ele>1654</ele>
        <time>2024-06-06T02:02:59+00:00</time>
      </trkpt>
      <trkpt lat="45.25842" lon="6.04793">
        <ele>1654</ele>
        <time>2024-06-06T02:03:02+00:00</time>
      </trkpt>
      <trkpt lat="45.25854" lon="6.04792">
        <ele>1656</ele>
        <time>2024-06-06T02:03:05+00:00</time>
      </trkpt>
      <trkpt lat="45.25859" lon="6.04787">
        <ele>1658</ele>
        <time>2024-06-06T02:03:08+00:00</time>
      </trkpt>
      <trkpt lat="45.25862" lon="6.04783">
        <ele>1656</ele>
        <time>2024-06-06T02:03:11+00:00</time>
      </trkpt>
      <trkpt lat="45.25867" lon="6.04779">
        <ele>1660</ele>
        <time>2024-06-06T02:03:14+00:00</time>
      </trkpt>
      <trkpt lat="45.25871" lon="6.04779">
        <ele>1653</ele>
        <time>2024-06-06T02:03:17+00:00</time>
      </trkpt>
      <trkpt lat="45.25878" lon="6.04782">
        <ele>1654</ele>
        <time>2024-06-06T02:03:20+00:00</time>
      </trkpt>
      <trkpt lat="45.25886" lon="6.04784">
        <ele>1652</ele>
        <time>2024-06-06T02:03:23+00:00</time>
      </trkpt>
      <trkpt lat="45.25898" lon="6.04784">
        <ele>1651</ele>
        <time>2024-06-06T02:03:26+00:00</time>
      </trkpt>
      <trkpt lat="45.2591" lon="6.04786">
        <ele>1651</ele>
        <time>2024-06-06T02:03:29+00:00</time>
      </trkpt>
      <trkpt lat="45.25924" lon="6.04794">
        <ele>1644</ele>
        <time>2024-06-06T02:03:32+00:00</time>
      </trkpt>
      <trkpt lat="45.25951" lon="6.04807">
        <ele>1644</ele>
        <time>2024-06-06T02:03:35+00:00</time>
      </trkpt>
      <trkpt lat="45.25964" lon="6.0482">
        <ele>1643</ele>
        <time>2024-06-06T02:03:38+00:00</time>
      </trkpt>
      <trkpt lat="45.2598" lon="6.04828">
        <ele>1639</ele>
        <time>2024-06-06T02:03:41+00:00</time>
      </trkpt>
      <trkpt lat="45.25996" lon="6.04838">
        <ele>1639</ele>
        <time>2024-06-06T02:03:44+00:00</time>
      </trkpt>
      <trkpt lat="45.26" lon="6.0484">
        <ele>1638</ele>
        <time>2024-06-06T02:03:47+00:00</time>
      </trkpt>
      <trkpt lat="45.26004" lon="6.04839">
        <ele>1637</ele>
        <time>2024-06-06T02:03:50+00:00</time>
      </trkpt>
      <trkpt lat="45.26008" lon="6.04837">
        <ele>1637</ele>
        <time>2024-06-06T02:03:53+00:00</time>
      </trkpt>
      <trkpt lat="45.26011" lon="6.04833">
        <ele>1636</ele>
        <time>2024-06-06T02:03:56+00:00</time>
      </trkpt>
      <trkpt lat="45.26026" lon="6.0481">
        <ele>1639</ele>
        <time>2024-06-06T02:03:59+00:00</time>
      </trkpt>
      <trkpt lat="45.2603" lon="6.04804">
        <ele>1639</ele>
        <time>2024-06-06T02:04:02+00:00</time>
      </trkpt>
      <trkpt lat="45.26034" lon="6.04799">
        <ele>1641</ele>
        <time>2024-06-06T02:04:05+00:00</time>
      </trkpt>
      <trkpt lat="45.26038" lon="6.04798">
        <ele>1641</ele>
        <time>2024-06-06T02:04:08+00:00</time>
      </trkpt>
      <trkpt lat="45.26044" lon="6.04797">
        <ele>1639</ele>
        <time>2024-06-06T02:04:11+00:00</time>
      </trkpt>
      <trkpt lat="45.26052" lon="6.04799">
        <ele>1636</ele>
        <time>2024-06-06T02:04:14+00:00</time>
      </trkpt>
      <trkpt lat="45.26063" lon="6.04804">
        <ele>1633</ele>
        <time>2024-06-06T02:04:17+00:00</time>
      </trkpt>
      <trkpt lat="45.26073" lon="6.04814">
        <ele>1632</ele>
        <time>2024-06-06T02:04:20+00:00</time>
      </trkpt>
      <trkpt lat="45.26082" lon="6.0483">
        <ele>1633</ele>
        <time>2024-06-06T02:04:23+00:00</time>
      </trkpt>
      <trkpt lat="45.26083" lon="6.04834">
        <ele>1630</ele>
        <time>2024-06-06T02:04:26+00:00</time>
      </trkpt>
      <trkpt lat="45.26093" lon="6.04874">
        <ele>1621</ele>
        <time>2024-06-06T02:04:29+00:00</time>
      </trkpt>
      <trkpt lat="45.26108" lon="6.04908">
        <ele>1616</ele>
        <time>2024-06-06T02:04:32+00:00</time>
      </trkpt>
      <trkpt lat="45.26122" lon="6.04952">
        <ele>1608</ele>
        <time>2024-06-06T02:04:35+00:00</time>
      </trkpt>
      <trkpt lat="45.26138" lon="6.04977">
        <ele>1604</ele>
        <time>2024-06-06T02:04:38+00:00</time>
      </trkpt>
      <trkpt lat="45.26167" lon="6.05004">
        <ele>1604</ele>
        <time>2024-06-06T02:04:41+00:00</time>
      </trkpt>
      <trkpt lat="45.26186" lon="6.05011">
        <ele>1603</ele>
        <time>2024-06-06T02:04:44+00:00</time>
      </trkpt>
      <trkpt lat="45.26212" lon="6.05009">
        <ele>1603</ele>
        <time>2024-06-06T02:04:47+00:00</time>
      </trkpt>
      <trkpt lat="45.26238" lon="6.04999">
        <ele>1602</ele>
        <time>2024-06-06T02:04:50+00:00</time>
      </trkpt>
      <trkpt lat="45.2624" lon="6.04999">
        <ele>1606</ele>
        <time>2024-06-06T02:04:53+00:00</time>
      </trkpt>
      <trkpt lat="45.26246" lon="6.04997">
        <ele>1604</ele>
        <time>2024-06-06T02:04:56+00:00</time>
      </trkpt>
      <trkpt lat="45.26257" lon="6.04991">
        <ele>1602</ele>
        <time>2024-06-06T02:04:59+00:00</time>
      </trkpt>
      <trkpt lat="45.26263" lon="6.04989">
        <ele>1605</ele>
        <time>2024-06-06T02:05:02+00:00</time>
      </trkpt>
      <trkpt lat="45.26269" lon="6.04989">
        <ele>1605</ele>
        <time>2024-06-06T02:05:05+00:00</time>
      </trkpt>
      <trkpt lat="45.26275" lon="6.04993">
        <ele>1599</ele>
        <time>2024-06-06T02:05:08+00:00</time>
      </trkpt>
      <trkpt lat="45.26283" lon="6.04994">
        <ele>1598</ele>
        <time>2024-06-06T02:05:11+00:00</time>
      </trkpt>
      <trkpt lat="45.2629" lon="6.04994">
        <ele>1598</ele>
        <time>2024-06-06T02:05:14+00:00</time>
      </trkpt>
      <trkpt lat="45.26297" lon="6.04991">
        <ele>1596</ele>
        <time>2024-06-06T02:05:17+00:00</time>
      </trkpt>
      <trkpt lat="45.26305" lon="6.04989">
        <ele>1599</ele>
        <time>2024-06-06T02:05:20+00:00</time>
      </trkpt>
      <trkpt lat="45.26311" lon="6.04987">
        <ele>1597</ele>
        <time>2024-06-06T02:05:23+00:00</time>
      </trkpt>
      <trkpt lat="45.26333" lon="6.04989">
        <ele>1592</ele>
        <time>2024-06-06T02:05:26+00:00</time>
      </trkpt>
      <trkpt lat="45.26344" lon="6.0499">
        <ele>1590</ele>
        <time>2024-06-06T02:05:29+00:00</time>
      </trkpt>
      <trkpt lat="45.26354" lon="6.04988">
        <ele>1587</ele>
        <time>2024-06-06T02:05:32+00:00</time>
      </trkpt>
      <trkpt lat="45.26376" lon="6.04979">
        <ele>1585</ele>
        <time>2024-06-06T02:05:35+00:00</time>
      </trkpt>
      <trkpt lat="45.26389" lon="6.04975">
        <ele>1582</ele>
        <time>2024-06-06T02:05:38+00:00</time>
      </trkpt>
      <trkpt lat="45.26399" lon="6.04973">
        <ele>1583</ele>
        <time>2024-06-06T02:05:41+00:00</time>
      </trkpt>
      <trkpt lat="45.26407" lon="6.04969">
        <ele>1583</ele>
        <time>2024-06-06T02:05:44+00:00</time>
      </trkpt>
      <trkpt lat="45.26413" lon="6.04965">
        <ele>1582</ele>
        <time>2024-06-06T02:05:47+00:00</time>
      </trkpt>
      <trkpt lat="45.26419" lon="6.04964">
        <ele>1582</ele>
        <time>2024-06-06T02:05:50+00:00</time>
      </trkpt>
      <trkpt lat="45.26425" lon="6.04964">
        <ele>1582</ele>
        <time>2024-06-06T02:05:53+00:00</time>
      </trkpt>
      <trkpt lat="45.2643" lon="6.04968">
        <ele>1583</ele>
        <time>2024-06-06T02:05:56+00:00</time>
      </trkpt>
      <trkpt lat="45.26449" lon="6.04989">
        <ele>1572</ele>
        <time>2024-06-06T02:05:59+00:00</time>
      </trkpt>
      <trkpt lat="45.26458" lon="6.04997">
        <ele>1569</ele>
        <time>2024-06-06T02:06:02+00:00</time>
      </trkpt>
      <trkpt lat="45.26471" lon="6.05002">
        <ele>1569</ele>
        <time>2024-06-06T02:06:05+00:00</time>
      </trkpt>
      <trkpt lat="45.26488" lon="6.05006">
        <ele>1565</ele>
        <time>2024-06-06T02:06:08+00:00</time>
      </trkpt>
      <trkpt lat="45.2651" lon="6.05007">
        <ele>1569</ele>
        <time>2024-06-06T02:06:11+00:00</time>
      </trkpt>
      <trkpt lat="45.26541" lon="6.05006">
        <ele>1568</ele>
        <time>2024-06-06T02:06:14+00:00</time>
      </trkpt>
      <trkpt lat="45.26551" lon="6.05005">
        <ele>1571</ele>
        <time>2024-06-06T02:06:17+00:00</time>
      </trkpt>
      <trkpt lat="45.26559" lon="6.05006">
        <ele>1571</ele>
        <time>2024-06-06T02:06:20+00:00</time>
      </trkpt>
      <trkpt lat="45.26563" lon="6.0501">
        <ele>1567</ele>
        <time>2024-06-06T02:06:23+00:00</time>
      </trkpt>
      <trkpt lat="45.26571" lon="6.05022">
        <ele>1563</ele>
        <time>2024-06-06T02:06:26+00:00</time>
      </trkpt>
      <trkpt lat="45.26589" lon="6.05044">
        <ele>1554</ele>
        <time>2024-06-06T02:06:29+00:00</time>
      </trkpt>
      <trkpt lat="45.26594" lon="6.0505">
        <ele>1554</ele>
        <time>2024-06-06T02:06:32+00:00</time>
      </trkpt>
      <trkpt lat="45.26599" lon="6.05054">
        <ele>1551</ele>
        <time>2024-06-06T02:06:35+00:00</time>
      </trkpt>
      <trkpt lat="45.26606" lon="6.05058">
        <ele>1551</ele>
        <time>2024-06-06T02:06:38+00:00</time>
      </trkpt>
      <trkpt lat="45.26605" lon="6.05063">
        <ele>1546</ele>
        <time>2024-06-06T02:06:41+00:00</time>
      </trkpt>
      <trkpt lat="45.26606" lon="6.05068">
        <ele>1546</ele>
        <time>2024-06-06T02:06:44+00:00</time>
      </trkpt>
      <trkpt lat="45.26608" lon="6.05073">
        <ele>1542</ele>
        <time>2024-06-06T02:06:47+00:00</time>
      </trkpt>
      <trkpt lat="45.26622" lon="6.05076">
        <ele>1543</ele>
        <time>2024-06-06T02:06:50+00:00</time>
      </trkpt>
      <trkpt lat="45.26641" lon="6.05079">
        <ele>1542</ele>
        <time>2024-06-06T02:06:53+00:00</time>
      </trkpt>
      <trkpt lat="45.26657" lon="6.05078">
        <ele>1541</ele>
        <time>2024-06-06T02:06:56+00:00</time>
      </trkpt>
      <trkpt lat="45.26679" lon="6.05075">
        <ele>1538</ele>
        <time>2024-06-06T02:06:59+00:00</time>
      </trkpt>
      <trkpt lat="45.26695" lon="6.05072">
        <ele>1535</ele>
        <time>2024-06-06T02:07:02+00:00</time>
      </trkpt>
      <trkpt lat="45.2671" lon="6.05072">
        <ele>1534</ele>
        <time>2024-06-06T02:07:05+00:00</time>
      </trkpt>
      <trkpt lat="45.26724" lon="6.05076">
        <ele>1532</ele>
        <time>2024-06-06T02:07:08+00:00</time>
      </trkpt>
      <trkpt lat="45.26734" lon="6.05084">
        <ele>1529</ele>
        <time>2024-06-06T02:07:11+00:00</time>
      </trkpt>
      <trkpt lat="45.26743" lon="6.05094">
        <ele>1525</ele>
        <time>2024-06-06T02:07:14+00:00</time>
      </trkpt>
      <trkpt lat="45.26749" lon="6.05106">
        <ele>1522</ele>
        <time>2024-06-06T02:07:17+00:00</time>
      </trkpt>
      <trkpt lat="45.26749" lon="6.05114">
        <ele>1520</ele>
        <time>2024-06-06T02:07:20+00:00</time>
      </trkpt>
      <trkpt lat="45.26748" lon="6.0512">
        <ele>1516</ele>
        <time>2024-06-06T02:07:23+00:00</time>
      </trkpt>
      <trkpt lat="45.26746" lon="6.05124">
        <ele>1516</ele>
        <time>2024-06-06T02:07:26+00:00</time>
      </trkpt>
      <trkpt lat="45.26742" lon="6.05126">
        <ele>1516</ele>
        <time>2024-06-06T02:07:29+00:00</time>
      </trkpt>
      <trkpt lat="45.26736" lon="6.05126">
        <ele>1519</ele>
        <time>2024-06-06T02:07:32+00:00</time>
      </trkpt>
      <trkpt lat="45.26724" lon="6.05126">
        <ele>1516</ele>
        <time>2024-06-06T02:07:35+00:00</time>
      </trkpt>
      <trkpt lat="45.26715" lon="6.05128">
        <ele>1517</ele>
        <time>2024-06-06T02:07:38+00:00</time>
      </trkpt>
      <trkpt lat="45.2671" lon="6.05132">
        <ele>1515</ele>
        <time>2024-06-06T02:07:41+00:00</time>
      </trkpt>
      <trkpt lat="45.26707" lon="6.05138">
        <ele>1515</ele>
        <time>2024-06-06T02:07:44+00:00</time>
      </trkpt>
      <trkpt lat="45.26706" lon="6.05144">
        <ele>1512</ele>
        <time>2024-06-06T02:07:47+00:00</time>
      </trkpt>
      <trkpt lat="45.26705" lon="6.05151">
        <ele>1508</ele>
        <time>2024-06-06T02:07:50+00:00</time>
      </trkpt>
      <trkpt lat="45.26707" lon="6.0516">
        <ele>1508</ele>
        <time>2024-06-06T02:07:53+00:00</time>
      </trkpt>
      <trkpt lat="45.26714" lon="6.05169">
        <ele>1505</ele>
        <time>2024-06-06T02:07:56+00:00</time>
      </trkpt>
      <trkpt lat="45.26726" lon="6.05174">
        <ele>1502</ele>
        <time>2024-06-06T02:07:59+00:00</time>
      </trkpt>
      <trkpt lat="45.26743" lon="6.05176">
        <ele>1502</ele>
        <time>2024-06-06T02:08:02+00:00</time>
      </trkpt>
      <trkpt lat="45.26767" lon="6.05177">
        <ele>1502</ele>
        <time>2024-06-06T02:08:05+00:00</time>
      </trkpt>
      <trkpt lat="45.26778" lon="6.05177">
        <ele>1503</ele>
        <time>2024-06-06T02:08:08+00:00</time>
      </trkpt>
      <trkpt lat="45.26786" lon="6.05181">
        <ele>1500</ele>
        <time>2024-06-06T02:08:11+00:00</time>
      </trkpt>
      <trkpt lat="45.26802" lon="6.05193">
        <ele>1499</ele>
        <time>2024-06-06T02:08:14+00:00</time>
      </trkpt>
      <trkpt lat="45.26816" lon="6.05202">
        <ele>1497</ele>
        <time>2024-06-06T02:08:17+00:00</time>
      </trkpt>
      <trkpt lat="45.26832" lon="6.05213">
        <ele>1495</ele>
        <time>2024-06-06T02:08:20+00:00</time>
      </trkpt>
      <trkpt lat="45.26853" lon="6.05228">
        <ele>1494</ele>
        <time>2024-06-06T02:08:23+00:00</time>
      </trkpt>
      <trkpt lat="45.26876" lon="6.05245">
        <ele>1486</ele>
        <time>2024-06-06T02:08:26+00:00</time>
      </trkpt>
      <trkpt lat="45.26896" lon="6.05254">
        <ele>1486</ele>
        <time>2024-06-06T02:08:29+00:00</time>
      </trkpt>
      <trkpt lat="45.26908" lon="6.05257">
        <ele>1485</ele>
        <time>2024-06-06T02:08:32+00:00</time>
      </trkpt>
      <trkpt lat="45.26919" lon="6.05257">
        <ele>1486</ele>
        <time>2024-06-06T02:08:35+00:00</time>
      </trkpt>
      <trkpt lat="45.26931" lon="6.0526">
        <ele>1486</ele>
        <time>2024-06-06T02:08:38+00:00</time>
      </trkpt>
      <trkpt lat="45.26941" lon="6.05264">
        <ele>1483</ele>
        <time>2024-06-06T02:08:41+00:00</time>
      </trkpt>
      <trkpt lat="45.26948" lon="6.05272">
        <ele>1482</ele>
        <time>2024-06-06T02:08:44+00:00</time>
      </trkpt>
      <trkpt lat="45.26958" lon="6.05284">
        <ele>1480</ele>
        <time>2024-06-06T02:08:47+00:00</time>
      </trkpt>
      <trkpt lat="45.26962" lon="6.0529">
        <ele>1479</ele>
        <time>2024-06-06T02:08:50+00:00</time>
      </trkpt>
      <trkpt lat="45.26977" lon="6.05315">
        <ele>1472</ele>
        <time>2024-06-06T02:08:53+00:00</time>
      </trkpt>
      <trkpt lat="45.26986" lon="6.05332">
        <ele>1467</ele>
        <time>2024-06-06T02:08:56+00:00</time>
      </trkpt>
      <trkpt lat="45.26996" lon="6.05348">
        <ele>1467</ele>
        <time>2024-06-06T02:08:59+00:00</time>
      </trkpt>
      <trkpt lat="45.26999" lon="6.05354">
        <ele>1464</ele>
        <time>2024-06-06T02:09:02+00:00</time>
      </trkpt>
      <trkpt lat="45.27004" lon="6.05358">
        <ele>1466</ele>
        <time>2024-06-06T02:09:05+00:00</time>
      </trkpt>
      <trkpt lat="45.27004" lon="6.05358">
        <ele>1466</ele>
        <time>2024-06-06T02:09:08+00:00</time>
      </trkpt>
      <trkpt lat="45.27011" lon="6.05366">
        <ele>1464</ele>
        <time>2024-06-06T02:09:11+00:00</time>
      </trkpt>
      <trkpt lat="45.27024" lon="6.05369">
        <ele>1466</ele>
        <time>2024-06-06T02:09:14+00:00</time>
      </trkpt>
      <trkpt lat="45.2703" lon="6.05389">
        <ele>1463</ele>
        <time>2024-06-06T02:09:17+00:00</time>
      </trkpt>
      <trkpt lat="45.27029" lon="6.05404">
        <ele>1460</ele>
        <time>2024-06-06T02:09:20+00:00</time>
      </trkpt>
      <trkpt lat="45.27023" lon="6.05425">
        <ele>1457</ele>
        <time>2024-06-06T02:09:23+00:00</time>
      </trkpt>
      <trkpt lat="45.2702" lon="6.0544">
        <ele>1453</ele>
        <time>2024-06-06T02:09:26+00:00</time>
      </trkpt>
      <trkpt lat="45.27023" lon="6.05468">
        <ele>1452</ele>
        <time>2024-06-06T02:09:29+00:00</time>
      </trkpt>
      <trkpt lat="45.2703" lon="6.055">
        <ele>1447</ele>
        <time>2024-06-06T02:09:32+00:00</time>
      </trkpt>
      <trkpt lat="45.27031" lon="6.05501">
        <ele>1447</ele>
        <time>2024-06-06T02:09:35+00:00</time>
      </trkpt>
      <trkpt lat="45.27038" lon="6.05505">
        <ele>1447</ele>
        <time>2024-06-06T02:09:38+00:00</time>
      </trkpt>
      <trkpt lat="45.27066" lon="6.05517">
        <ele>1447</ele>
        <time>2024-06-06T02:09:41+00:00</time>
      </trkpt>
      <trkpt lat="45.27088" lon="6.05525">
        <ele>1446</ele>
        <time>2024-06-06T02:09:44+00:00</time>
      </trkpt>
      <trkpt lat="45.27126" lon="6.05533">
        <ele>1445</ele>
        <time>2024-06-06T02:09:47+00:00</time>
      </trkpt>
      <trkpt lat="45.27159" lon="6.05537">
        <ele>1443</ele>
        <time>2024-06-06T02:09:50+00:00</time>
      </trkpt>
      <trkpt lat="45.27147" lon="6.0556">
        <ele>1440</ele>
        <time>2024-06-06T02:09:53+00:00</time>
      </trkpt>
      <trkpt lat="45.27129" lon="6.05576">
        <ele>1437</ele>
        <time>2024-06-06T02:09:56+00:00</time>
      </trkpt>
      <trkpt lat="45.27123" lon="6.05582">
        <ele>1435</ele>
        <time>2024-06-06T02:09:59+00:00</time>
      </trkpt>
      <trkpt lat="45.27146" lon="6.05587">
        <ele>1435</ele>
        <time>2024-06-06T02:10:02+00:00</time>
      </trkpt>
      <trkpt lat="45.27165" lon="6.05602">
        <ele>1430</ele>
        <time>2024-06-06T02:10:05+00:00</time>
      </trkpt>
      <trkpt lat="45.27164" lon="6.05609">
        <ele>1430</ele>
        <time>2024-06-06T02:10:08+00:00</time>
      </trkpt>
      <trkpt lat="45.27167" lon="6.05644">
        <ele>1420</ele>
        <time>2024-06-06T02:10:11+00:00</time>
      </trkpt>
      <trkpt lat="45.27169" lon="6.05652">
        <ele>1418</ele>
        <time>2024-06-06T02:10:14+00:00</time>
      </trkpt>
      <trkpt lat="45.27169" lon="6.05652">
        <ele>1418</ele>
        <time>2024-06-06T02:10:17+00:00</time>
      </trkpt>
      <trkpt lat="45.27177" lon="6.05683">
        <ele>1411</ele>
        <time>2024-06-06T02:10:20+00:00</time>
      </trkpt>
      <trkpt lat="45.27186" lon="6.05721">
        <ele>1402</ele>
        <time>2024-06-06T02:10:23+00:00</time>
      </trkpt>
      <trkpt lat="45.27199" lon="6.05766">
        <ele>1391</ele>
        <time>2024-06-06T02:10:26+00:00</time>
      </trkpt>
      <trkpt lat="45.27219" lon="6.0579">
        <ele>1391</ele>
        <time>2024-06-06T02:10:29+00:00</time>
      </trkpt>
      <trkpt lat="45.27233" lon="6.05799">
        <ele>1393</ele>
        <time>2024-06-06T02:10:32+00:00</time>
      </trkpt>
      <trkpt lat="45.2724" lon="6.05817">
        <ele>1391</ele>
        <time>2024-06-06T02:10:35+00:00</time>
      </trkpt>
      <trkpt lat="45.27242" lon="6.0583">
        <ele>1384</ele>
        <time>2024-06-06T02:10:38+00:00</time>
      </trkpt>
      <trkpt lat="45.27247" lon="6.05858">
        <ele>1377</ele>
        <time>2024-06-06T02:10:41+00:00</time>
      </trkpt>
      <trkpt lat="45.27252" lon="6.05888">
        <ele>1371</ele>
        <time>2024-06-06T02:10:44+00:00</time>
      </trkpt>
      <trkpt lat="45.27268" lon="6.05925">
        <ele>1360</ele>
        <time>2024-06-06T02:10:47+00:00</time>
      </trkpt>
      <trkpt lat="45.27306" lon="6.05955">
        <ele>1354</ele>
        <time>2024-06-06T02:10:50+00:00</time>
      </trkpt>
      <trkpt lat="45.2733" lon="6.05969">
        <ele>1354</ele>
        <time>2024-06-06T02:10:53+00:00</time>
      </trkpt>
      <trkpt lat="45.27357" lon="6.05986">
        <ele>1348</ele>
        <time>2024-06-06T02:10:56+00:00</time>
      </trkpt>
      <trkpt lat="45.27378" lon="6.06005">
        <ele>1340</ele>
        <time>2024-06-06T02:10:59+00:00</time>
      </trkpt>
      <trkpt lat="45.274" lon="6.06025">
        <ele>1335</ele>
        <time>2024-06-06T02:11:02+00:00</time>
      </trkpt>
      <trkpt lat="45.27434" lon="6.06049">
        <ele>1331</ele>
        <time>2024-06-06T02:11:05+00:00</time>
      </trkpt>
      <trkpt lat="45.27458" lon="6.06088">
        <ele>1322</ele>
        <time>2024-06-06T02:11:08+00:00</time>
      </trkpt>
      <trkpt lat="45.27474" lon="6.06118">
        <ele>1316</ele>
        <time>2024-06-06T02:11:11+00:00</time>
      </trkpt>
      <trkpt lat="45.27496" lon="6.06158">
        <ele>1305</ele>
        <time>2024-06-06T02:11:14+00:00</time>
      </trkpt>
      <trkpt lat="45.27516" lon="6.06176">
        <ele>1303</ele>
        <time>2024-06-06T02:11:17+00:00</time>
      </trkpt>
      <trkpt lat="45.27537" lon="6.06195">
        <ele>1298</ele>
        <time>2024-06-06T02:11:20+00:00</time>
      </trkpt>
      <trkpt lat="45.27551" lon="6.06221">
        <ele>1290</ele>
        <time>2024-06-06T02:11:23+00:00</time>
      </trkpt>
      <trkpt lat="45.27557" lon="6.06254">
        <ele>1278</ele>
        <time>2024-06-06T02:11:26+00:00</time>
      </trkpt>
      <trkpt lat="45.27561" lon="6.0629">
        <ele>1266</ele>
        <time>2024-06-06T02:11:29+00:00</time>
      </trkpt>
      <trkpt lat="45.27568" lon="6.06326">
        <ele>1255</ele>
        <time>2024-06-06T02:11:32+00:00</time>
      </trkpt>
      <trkpt lat="45.27596" lon="6.06343">
        <ele>1254</ele>
        <time>2024-06-06T02:11:35+00:00</time>
      </trkpt>
      <trkpt lat="45.27612" lon="6.06363">
        <ele>1252</ele>
        <time>2024-06-06T02:11:38+00:00</time>
      </trkpt>
      <trkpt lat="45.27601" lon="6.064">
        <ele>1240</ele>
        <time>2024-06-06T02:11:41+00:00</time>
      </trkpt>
      <trkpt lat="45.27616" lon="6.06448">
        <ele>1234</ele>
        <time>2024-06-06T02:11:44+00:00</time>
      </trkpt>
      <trkpt lat="45.27625" lon="6.06496">
        <ele>1228</ele>
        <time>2024-06-06T02:11:47+00:00</time>
      </trkpt>
      <trkpt lat="45.27637" lon="6.06539">
        <ele>1225</ele>
        <time>2024-06-06T02:11:50+00:00</time>
      </trkpt>
      <trkpt lat="45.27648" lon="6.06582">
        <ele>1215</ele>
        <time>2024-06-06T02:11:53+00:00</time>
      </trkpt>
      <trkpt lat="45.27662" lon="6.06632">
        <ele>1204</ele>
        <time>2024-06-06T02:11:56+00:00</time>
      </trkpt>
      <trkpt lat="45.2768" lon="6.06691">
        <ele>1191</ele>
        <time>2024-06-06T02:11:59+00:00</time>
      </trkpt>
      <trkpt lat="45.27682" lon="6.06708">
        <ele>1191</ele>
        <time>2024-06-06T02:12:02+00:00</time>
      </trkpt>
      <trkpt lat="45.27676" lon="6.06755">
        <ele>1180</ele>
        <time>2024-06-06T02:12:05+00:00</time>
      </trkpt>
      <trkpt lat="45.27674" lon="6.0677">
        <ele>1176</ele>
        <time>2024-06-06T02:12:08+00:00</time>
      </trkpt>
      <trkpt lat="45.27692" lon="6.0681">
        <ele>1171</ele>
        <time>2024-06-06T02:12:11+00:00</time>
      </trkpt>
      <trkpt lat="45.2771" lon="6.06834">
        <ele>1169</ele>
        <time>2024-06-06T02:12:14+00:00</time>
      </trkpt>
      <trkpt lat="45.27729" lon="6.06858">
        <ele>1165</ele>
        <time>2024-06-06T02:12:17+00:00</time>
      </trkpt>
      <trkpt lat="45.27736" lon="6.06882">
        <ele>1158</ele>
        <time>2024-06-06T02:12:20+00:00</time>
      </trkpt>
      <trkpt lat="45.27738" lon="6.06912">
        <ele>1149</ele>
        <time>2024-06-06T02:12:23+00:00</time>
      </trkpt>
      <trkpt lat="45.2775" lon="6.06952">
        <ele>1141</ele>
        <time>2024-06-06T02:12:26+00:00</time>
      </trkpt>
      <trkpt lat="45.27764" lon="6.06982">
        <ele>1138</ele>
        <time>2024-06-06T02:12:29+00:00</time>
      </trkpt>
      <trkpt lat="45.2778" lon="6.07018">
        <ele>1134</ele>
        <time>2024-06-06T02:12:32+00:00</time>
      </trkpt>
      <trkpt lat="45.2779" lon="6.07052">
        <ele>1129</ele>
        <time>2024-06-06T02:12:35+00:00</time>
      </trkpt>
      <trkpt lat="45.27797" lon="6.0706">
        <ele>1126</ele>
        <time>2024-06-06T02:12:38+00:00</time>
      </trkpt>
      <trkpt lat="45.27793" lon="6.07062">
        <ele>1126</ele>
        <time>2024-06-06T02:12:41+00:00</time>
      </trkpt>
      <trkpt lat="45.27784" lon="6.07063">
        <ele>1128</ele>
        <time>2024-06-06T02:12:44+00:00</time>
      </trkpt>
      <trkpt lat="45.27775" lon="6.07063">
        <ele>1125</ele>
        <time>2024-06-06T02:12:47+00:00</time>
      </trkpt>
      <trkpt lat="45.27765" lon="6.07059">
        <ele>1127</ele>
        <time>2024-06-06T02:12:50+00:00</time>
      </trkpt>
      <trkpt lat="45.27755" lon="6.07056">
        <ele>1129</ele>
        <time>2024-06-06T02:12:53+00:00</time>
      </trkpt>
      <trkpt lat="45.2775" lon="6.07054">
        <ele>1127</ele>
        <time>2024-06-06T02:12:56+00:00</time>
      </trkpt>
      <trkpt lat="45.2774" lon="6.07051">
        <ele>1130</ele>
        <time>2024-06-06T02:12:59+00:00</time>
      </trkpt>
      <trkpt lat="45.27731" lon="6.07046">
        <ele>1130</ele>
        <time>2024-06-06T02:13:02+00:00</time>
      </trkpt>
      <trkpt lat="45.27723" lon="6.07047">
        <ele>1132</ele>
        <time>2024-06-06T02:13:05+00:00</time>
      </trkpt>
      <trkpt lat="45.2772" lon="6.07048">
        <ele>1136</ele>
        <time>2024-06-06T02:13:08+00:00</time>
      </trkpt>
      <trkpt lat="45.27719" lon="6.07052">
        <ele>1136</ele>
        <time>2024-06-06T02:13:11+00:00</time>
      </trkpt>
      <trkpt lat="45.2772" lon="6.07056">
        <ele>1136</ele>
        <time>2024-06-06T02:13:14+00:00</time>
      </trkpt>
      <trkpt lat="45.27725" lon="6.07067">
        <ele>1133</ele>
        <time>2024-06-06T02:13:17+00:00</time>
      </trkpt>
      <trkpt lat="45.27727" lon="6.07073">
        <ele>1134</ele>
        <time>2024-06-06T02:13:20+00:00</time>
      </trkpt>
      <trkpt lat="45.27728" lon="6.07079">
        <ele>1134</ele>
        <time>2024-06-06T02:13:23+00:00</time>
      </trkpt>
      <trkpt lat="45.2773" lon="6.07095">
        <ele>1132</ele>
        <time>2024-06-06T02:13:26+00:00</time>
      </trkpt>
      <trkpt lat="45.27732" lon="6.07101">
        <ele>1133</ele>
        <time>2024-06-06T02:13:29+00:00</time>
      </trkpt>
      <trkpt lat="45.27735" lon="6.07108">
        <ele>1133</ele>
        <time>2024-06-06T02:13:32+00:00</time>
      </trkpt>
      <trkpt lat="45.27743" lon="6.07126">
        <ele>1132</ele>
        <time>2024-06-06T02:13:35+00:00</time>
      </trkpt>
      <trkpt lat="45.27751" lon="6.07144">
        <ele>1128</ele>
        <time>2024-06-06T02:13:38+00:00</time>
      </trkpt>
      <trkpt lat="45.27755" lon="6.07154">
        <ele>1131</ele>
        <time>2024-06-06T02:13:41+00:00</time>
      </trkpt>
      <trkpt lat="45.27757" lon="6.0716">
        <ele>1132</ele>
        <time>2024-06-06T02:13:44+00:00</time>
      </trkpt>
      <trkpt lat="45.27759" lon="6.07167">
        <ele>1132</ele>
        <time>2024-06-06T02:13:47+00:00</time>
      </trkpt>
      <trkpt lat="45.27762" lon="6.07184">
        <ele>1131</ele>
        <time>2024-06-06T02:13:50+00:00</time>
      </trkpt>
      <trkpt lat="45.27762" lon="6.0719">
        <ele>1133</ele>
        <time>2024-06-06T02:13:53+00:00</time>
      </trkpt>
      <trkpt lat="45.27763" lon="6.07195">
        <ele>1133</ele>
        <time>2024-06-06T02:13:56+00:00</time>
      </trkpt>
      <trkpt lat="45.27763" lon="6.07201">
        <ele>1134</ele>
        <time>2024-06-06T02:13:59+00:00</time>
      </trkpt>
      <trkpt lat="45.27763" lon="6.07215">
        <ele>1137</ele>
        <time>2024-06-06T02:14:02+00:00</time>
      </trkpt>
      <trkpt lat="45.27761" lon="6.07248">
        <ele>1141</ele>
        <time>2024-06-06T02:14:05+00:00</time>
      </trkpt>
      <trkpt lat="45.27756" lon="6.07302">
        <ele>1150</ele>
        <time>2024-06-06T02:14:08+00:00</time>
      </trkpt>
      <trkpt lat="45.27755" lon="6.07308">
        <ele>1150</ele>
        <time>2024-06-06T02:14:11+00:00</time>
      </trkpt>
      <trkpt lat="45.27754" lon="6.0731">
        <ele>1150</ele>
        <time>2024-06-06T02:14:14+00:00</time>
      </trkpt>
      <trkpt lat="45.27748" lon="6.07322">
        <ele>1158</ele>
        <time>2024-06-06T02:14:17+00:00</time>
      </trkpt>
      <trkpt lat="45.27747" lon="6.07328">
        <ele>1150</ele>
        <time>2024-06-06T02:14:20+00:00</time>
      </trkpt>
      <trkpt lat="45.27746" lon="6.07335">
        <ele>1158</ele>
        <time>2024-06-06T02:14:23+00:00</time>
      </trkpt>
      <trkpt lat="45.27747" lon="6.07342">
        <ele>1158</ele>
        <time>2024-06-06T02:14:26+00:00</time>
      </trkpt>
      <trkpt lat="45.27751" lon="6.07365">
        <ele>1151</ele>
        <time>2024-06-06T02:14:29+00:00</time>
      </trkpt>
      <trkpt lat="45.27751" lon="6.0737">
        <ele>1151</ele>
        <time>2024-06-06T02:14:32+00:00</time>
      </trkpt>
      <trkpt lat="45.27751" lon="6.07377">
        <ele>1151</ele>
        <time>2024-06-06T02:14:35+00:00</time>
      </trkpt>
      <trkpt lat="45.27749" lon="6.07381">
        <ele>1158</ele>
        <time>2024-06-06T02:14:38+00:00</time>
      </trkpt>
      <trkpt lat="45.27749" lon="6.07381">
        <ele>1158</ele>
        <time>2024-06-06T02:14:41+00:00</time>
      </trkpt>
      <trkpt lat="45.27749" lon="6.07381">
        <ele>1158</ele>
        <time>2024-06-06T02:14:44+00:00</time>
      </trkpt>
      <trkpt lat="45.27747" lon="6.07384">
        <ele>1158</ele>
        <time>2024-06-06T02:14:47+00:00</time>
      </trkpt>
      <trkpt lat="45.27743" lon="6.07388">
        <ele>1158</ele>
        <time>2024-06-06T02:14:50+00:00</time>
      </trkpt>
      <trkpt lat="45.27738" lon="6.07398">
        <ele>1162</ele>
        <time>2024-06-06T02:14:53+00:00</time>
      </trkpt>
      <trkpt lat="45.27733" lon="6.074">
        <ele>1162</ele>
        <time>2024-06-06T02:14:56+00:00</time>
      </trkpt>
      <trkpt lat="45.27726" lon="6.07404">
        <ele>1166</ele>
        <time>2024-06-06T02:14:59+00:00</time>
      </trkpt>
      <trkpt lat="45.27719" lon="6.07408">
        <ele>1172</ele>
        <time>2024-06-06T02:15:02+00:00</time>
      </trkpt>
      <trkpt lat="45.27716" lon="6.07413">
        <ele>1172</ele>
        <time>2024-06-06T02:15:05+00:00</time>
      </trkpt>
      <trkpt lat="45.27716" lon="6.07416">
        <ele>1172</ele>
        <time>2024-06-06T02:15:08+00:00</time>
      </trkpt>
      <trkpt lat="45.27715" lon="6.07428">
        <ele>1168</ele>
        <time>2024-06-06T02:15:11+00:00</time>
      </trkpt>
      <trkpt lat="45.27716" lon="6.07445">
        <ele>1171</ele>
        <time>2024-06-06T02:15:14+00:00</time>
      </trkpt>
      <trkpt lat="45.27718" lon="6.07454">
        <ele>1171</ele>
        <time>2024-06-06T02:15:17+00:00</time>
      </trkpt>
      <trkpt lat="45.2772" lon="6.07466">
        <ele>1170</ele>
        <time>2024-06-06T02:15:20+00:00</time>
      </trkpt>
      <trkpt lat="45.27717" lon="6.07479">
        <ele>1170</ele>
        <time>2024-06-06T02:15:23+00:00</time>
      </trkpt>
      <trkpt lat="45.27713" lon="6.0749">
        <ele>1169</ele>
        <time>2024-06-06T02:15:26+00:00</time>
      </trkpt>
      <trkpt lat="45.27707" lon="6.075">
        <ele>1175</ele>
        <time>2024-06-06T02:15:29+00:00</time>
      </trkpt>
      <trkpt lat="45.27701" lon="6.07512">
        <ele>1175</ele>
        <time>2024-06-06T02:15:32+00:00</time>
      </trkpt>
      <trkpt lat="45.277" lon="6.07525">
        <ele>1175</ele>
        <time>2024-06-06T02:15:35+00:00</time>
      </trkpt>
      <trkpt lat="45.27702" lon="6.07547">
        <ele>1176</ele>
        <time>2024-06-06T02:15:38+00:00</time>
      </trkpt>
      <trkpt lat="45.27697" lon="6.07567">
        <ele>1181</ele>
        <time>2024-06-06T02:15:41+00:00</time>
      </trkpt>
      <trkpt lat="45.2769" lon="6.07584">
        <ele>1180</ele>
        <time>2024-06-06T02:15:44+00:00</time>
      </trkpt>
      <trkpt lat="45.27685" lon="6.07598">
        <ele>1182</ele>
        <time>2024-06-06T02:15:47+00:00</time>
      </trkpt>
      <trkpt lat="45.2768" lon="6.07613">
        <ele>1189</ele>
        <time>2024-06-06T02:15:50+00:00</time>
      </trkpt>
      <trkpt lat="45.27677" lon="6.07633">
        <ele>1184</ele>
        <time>2024-06-06T02:15:53+00:00</time>
      </trkpt>
      <trkpt lat="45.27666" lon="6.0765">
        <ele>1184</ele>
        <time>2024-06-06T02:15:56+00:00</time>
      </trkpt>
      <trkpt lat="45.27655" lon="6.07655">
        <ele>1190</ele>
        <time>2024-06-06T02:15:59+00:00</time>
      </trkpt>
      <trkpt lat="45.27644" lon="6.07661">
        <ele>1190</ele>
        <time>2024-06-06T02:16:02+00:00</time>
      </trkpt>
      <trkpt lat="45.27638" lon="6.07664">
        <ele>1193</ele>
        <time>2024-06-06T02:16:05+00:00</time>
      </trkpt>
      <trkpt lat="45.2763" lon="6.07669">
        <ele>1193</ele>
        <time>2024-06-06T02:16:08+00:00</time>
      </trkpt>
      <trkpt lat="45.27619" lon="6.07675">
        <ele>1198</ele>
        <time>2024-06-06T02:16:11+00:00</time>
      </trkpt>
      <trkpt lat="45.27612" lon="6.07679">
        <ele>1193</ele>
        <time>2024-06-06T02:16:14+00:00</time>
      </trkpt>
      <trkpt lat="45.27609" lon="6.07694">
        <ele>1192</ele>
        <time>2024-06-06T02:16:17+00:00</time>
      </trkpt>
      <trkpt lat="45.27597" lon="6.07708">
        <ele>1193</ele>
        <time>2024-06-06T02:16:20+00:00</time>
      </trkpt>
      <trkpt lat="45.27588" lon="6.07719">
        <ele>1192</ele>
        <time>2024-06-06T02:16:23+00:00</time>
      </trkpt>
      <trkpt lat="45.27581" lon="6.07726">
        <ele>1188</ele>
        <time>2024-06-06T02:16:26+00:00</time>
      </trkpt>
      <trkpt lat="45.27574" lon="6.07733">
        <ele>1187</ele>
        <time>2024-06-06T02:16:29+00:00</time>
      </trkpt>
      <trkpt lat="45.27568" lon="6.07748">
        <ele>1188</ele>
        <time>2024-06-06T02:16:32+00:00</time>
      </trkpt>
      <trkpt lat="45.27584" lon="6.07756">
        <ele>1178</ele>
        <time>2024-06-06T02:16:35+00:00</time>
      </trkpt>
      <trkpt lat="45.27588" lon="6.07758">
        <ele>1178</ele>
        <time>2024-06-06T02:16:38+00:00</time>
      </trkpt>
      <trkpt lat="45.27594" lon="6.07775">
        <ele>1172</ele>
        <time>2024-06-06T02:16:41+00:00</time>
      </trkpt>
      <trkpt lat="45.27593" lon="6.07785">
        <ele>1168</ele>
        <time>2024-06-06T02:16:44+00:00</time>
      </trkpt>
      <trkpt lat="45.27588" lon="6.07798">
        <ele>1167</ele>
        <time>2024-06-06T02:16:47+00:00</time>
      </trkpt>
      <trkpt lat="45.27586" lon="6.07803">
        <ele>1164</ele>
        <time>2024-06-06T02:16:50+00:00</time>
      </trkpt>
      <trkpt lat="45.2757" lon="6.07813">
        <ele>1163</ele>
        <time>2024-06-06T02:16:53+00:00</time>
      </trkpt>
      <trkpt lat="45.27577" lon="6.07816">
        <ele>1163</ele>
        <time>2024-06-06T02:16:56+00:00</time>
      </trkpt>
      <trkpt lat="45.27588" lon="6.07818">
        <ele>1161</ele>
        <time>2024-06-06T02:16:59+00:00</time>
      </trkpt>
      <trkpt lat="45.27575" lon="6.07825">
        <ele>1159</ele>
        <time>2024-06-06T02:17:02+00:00</time>
      </trkpt>
      <trkpt lat="45.27568" lon="6.07834">
        <ele>1159</ele>
        <time>2024-06-06T02:17:05+00:00</time>
      </trkpt>
      <trkpt lat="45.27561" lon="6.07844">
        <ele>1159</ele>
        <time>2024-06-06T02:17:08+00:00</time>
      </trkpt>
      <trkpt lat="45.27553" lon="6.0785">
        <ele>1159</ele>
        <time>2024-06-06T02:17:11+00:00</time>
      </trkpt>
      <trkpt lat="45.27547" lon="6.07857">
        <ele>1157</ele>
        <time>2024-06-06T02:17:14+00:00</time>
      </trkpt>
      <trkpt lat="45.27538" lon="6.07865">
        <ele>1159</ele>
        <time>2024-06-06T02:17:17+00:00</time>
      </trkpt>
      <trkpt lat="45.27532" lon="6.07878">
        <ele>1157</ele>
        <time>2024-06-06T02:17:20+00:00</time>
      </trkpt>
      <trkpt lat="45.27523" lon="6.07884">
        <ele>1158</ele>
        <time>2024-06-06T02:17:23+00:00</time>
      </trkpt>
      <trkpt lat="45.27515" lon="6.07895">
        <ele>1157</ele>
        <time>2024-06-06T02:17:26+00:00</time>
      </trkpt>
      <trkpt lat="45.27509" lon="6.07902">
        <ele>1158</ele>
        <time>2024-06-06T02:17:29+00:00</time>
      </trkpt>
      <trkpt lat="45.275" lon="6.07913">
        <ele>1156</ele>
        <time>2024-06-06T02:17:32+00:00</time>
      </trkpt>
      <trkpt lat="45.27491" lon="6.0792">
        <ele>1158</ele>
        <time>2024-06-06T02:17:35+00:00</time>
      </trkpt>
      <trkpt lat="45.27484" lon="6.07926">
        <ele>1158</ele>
        <time>2024-06-06T02:17:38+00:00</time>
      </trkpt>
      <trkpt lat="45.27473" lon="6.07929">
        <ele>1161</ele>
        <time>2024-06-06T02:17:41+00:00</time>
      </trkpt>
      <trkpt lat="45.27464" lon="6.07929">
        <ele>1163</ele>
        <time>2024-06-06T02:17:44+00:00</time>
      </trkpt>
      <trkpt lat="45.27454" lon="6.07933">
        <ele>1163</ele>
        <time>2024-06-06T02:17:47+00:00</time>
      </trkpt>
      <trkpt lat="45.27445" lon="6.07937">
        <ele>1165</ele>
        <time>2024-06-06T02:17:50+00:00</time>
      </trkpt>
      <trkpt lat="45.27435" lon="6.07941">
        <ele>1164</ele>
        <time>2024-06-06T02:17:53+00:00</time>
      </trkpt>
      <trkpt lat="45.27425" lon="6.0794">
        <ele>1166</ele>
        <time>2024-06-06T02:17:56+00:00</time>
      </trkpt>
      <trkpt lat="45.27415" lon="6.07941">
        <ele>1169</ele>
        <time>2024-06-06T02:17:59+00:00</time>
      </trkpt>
      <trkpt lat="45.27406" lon="6.07942">
        <ele>1171</ele>
        <time>2024-06-06T02:18:02+00:00</time>
      </trkpt>
      <trkpt lat="45.27397" lon="6.07942">
        <ele>1173</ele>
        <time>2024-06-06T02:18:05+00:00</time>
      </trkpt>
      <trkpt lat="45.27385" lon="6.0794">
        <ele>1177</ele>
        <time>2024-06-06T02:18:08+00:00</time>
      </trkpt>
      <trkpt lat="45.27378" lon="6.07941">
        <ele>1177</ele>
        <time>2024-06-06T02:18:11+00:00</time>
      </trkpt>
      <trkpt lat="45.27369" lon="6.07944">
        <ele>1179</ele>
        <time>2024-06-06T02:18:14+00:00</time>
      </trkpt>
      <trkpt lat="45.27358" lon="6.07946">
        <ele>1180</ele>
        <time>2024-06-06T02:18:17+00:00</time>
      </trkpt>
      <trkpt lat="45.27347" lon="6.07948">
        <ele>1183</ele>
        <time>2024-06-06T02:18:20+00:00</time>
      </trkpt>
      <trkpt lat="45.27336" lon="6.0795">
        <ele>1183</ele>
        <time>2024-06-06T02:18:23+00:00</time>
      </trkpt>
      <trkpt lat="45.27325" lon="6.07958">
        <ele>1185</ele>
        <time>2024-06-06T02:18:26+00:00</time>
      </trkpt>
      <trkpt lat="45.27316" lon="6.07958">
        <ele>1185</ele>
        <time>2024-06-06T02:18:29+00:00</time>
      </trkpt>
      <trkpt lat="45.27309" lon="6.07958">
        <ele>1190</ele>
        <time>2024-06-06T02:18:32+00:00</time>
      </trkpt>
      <trkpt lat="45.27308" lon="6.07982">
        <ele>1187</ele>
        <time>2024-06-06T02:18:35+00:00</time>
      </trkpt>
      <trkpt lat="45.27302" lon="6.07988">
        <ele>1187</ele>
        <time>2024-06-06T02:18:38+00:00</time>
      </trkpt>
      <trkpt lat="45.27297" lon="6.08">
        <ele>1187</ele>
        <time>2024-06-06T02:18:41+00:00</time>
      </trkpt>
      <trkpt lat="45.27288" lon="6.08003">
        <ele>1189</ele>
        <time>2024-06-06T02:18:44+00:00</time>
      </trkpt>
      <trkpt lat="45.27279" lon="6.08003">
        <ele>1190</ele>
        <time>2024-06-06T02:18:47+00:00</time>
      </trkpt>
      <trkpt lat="45.27283" lon="6.08014">
        <ele>1189</ele>
        <time>2024-06-06T02:18:50+00:00</time>
      </trkpt>
      <trkpt lat="45.27294" lon="6.08018">
        <ele>1187</ele>
        <time>2024-06-06T02:18:53+00:00</time>
      </trkpt>
      <trkpt lat="45.27302" lon="6.08021">
        <ele>1186</ele>
        <time>2024-06-06T02:18:56+00:00</time>
      </trkpt>
      <trkpt lat="45.27312" lon="6.08025">
        <ele>1185</ele>
        <time>2024-06-06T02:18:59+00:00</time>
      </trkpt>
      <trkpt lat="45.27322" lon="6.08029">
        <ele>1183</ele>
        <time>2024-06-06T02:19:02+00:00</time>
      </trkpt>
      <trkpt lat="45.27331" lon="6.08032">
        <ele>1182</ele>
        <time>2024-06-06T02:19:05+00:00</time>
      </trkpt>
      <trkpt lat="45.27339" lon="6.08034">
        <ele>1182</ele>
        <time>2024-06-06T02:19:08+00:00</time>
      </trkpt>
      <trkpt lat="45.27347" lon="6.08042">
        <ele>1181</ele>
        <time>2024-06-06T02:19:11+00:00</time>
      </trkpt>
      <trkpt lat="45.27359" lon="6.08048">
        <ele>1178</ele>
        <time>2024-06-06T02:19:14+00:00</time>
      </trkpt>
      <trkpt lat="45.27366" lon="6.08061">
        <ele>1177</ele>
        <time>2024-06-06T02:19:17+00:00</time>
      </trkpt>
      <trkpt lat="45.27372" lon="6.08066">
        <ele>1175</ele>
        <time>2024-06-06T02:19:20+00:00</time>
      </trkpt>
      <trkpt lat="45.27379" lon="6.08056">
        <ele>1175</ele>
        <time>2024-06-06T02:19:23+00:00</time>
      </trkpt>
      <trkpt lat="45.27385" lon="6.08044">
        <ele>1172</ele>
        <time>2024-06-06T02:19:26+00:00</time>
      </trkpt>
      <trkpt lat="45.27388" lon="6.08047">
        <ele>1172</ele>
        <time>2024-06-06T02:19:29+00:00</time>
      </trkpt>
      <trkpt lat="45.27398" lon="6.08054">
        <ele>1170</ele>
        <time>2024-06-06T02:19:32+00:00</time>
      </trkpt>
      <trkpt lat="45.27404" lon="6.08054">
        <ele>1169</ele>
        <time>2024-06-06T02:19:35+00:00</time>
      </trkpt>
      <trkpt lat="45.27409" lon="6.08045">
        <ele>1169</ele>
        <time>2024-06-06T02:19:38+00:00</time>
      </trkpt>
      <trkpt lat="45.27415" lon="6.08035">
        <ele>1167</ele>
        <time>2024-06-06T02:19:41+00:00</time>
      </trkpt>
      <trkpt lat="45.27422" lon="6.08035">
        <ele>1165</ele>
        <time>2024-06-06T02:19:44+00:00</time>
      </trkpt>
      <trkpt lat="45.27428" lon="6.08035">
        <ele>1165</ele>
        <time>2024-06-06T02:19:47+00:00</time>
      </trkpt>
      <trkpt lat="45.27438" lon="6.08045">
        <ele>1164</ele>
        <time>2024-06-06T02:19:50+00:00</time>
      </trkpt>
      <trkpt lat="45.27448" lon="6.08051">
        <ele>1164</ele>
        <time>2024-06-06T02:19:53+00:00</time>
      </trkpt>
      <trkpt lat="45.27457" lon="6.08054">
        <ele>1164</ele>
        <time>2024-06-06T02:19:56+00:00</time>
      </trkpt>
      <trkpt lat="45.27463" lon="6.08058">
        <ele>1165</ele>
        <time>2024-06-06T02:19:59+00:00</time>
      </trkpt>
      <trkpt lat="45.27473" lon="6.0805">
        <ele>1164</ele>
        <time>2024-06-06T02:20:02+00:00</time>
      </trkpt>
      <trkpt lat="45.27487" lon="6.08046">
        <ele>1165</ele>
        <time>2024-06-06T02:20:05+00:00</time>
      </trkpt>
      <trkpt lat="45.27489" lon="6.08039">
        <ele>1164</ele>
        <time>2024-06-06T02:20:08+00:00</time>
      </trkpt>
      <trkpt lat="45.27495" lon="6.08034">
        <ele>1164</ele>
        <time>2024-06-06T02:20:11+00:00</time>
      </trkpt>
      <trkpt lat="45.27503" lon="6.08031">
        <ele>1165</ele>
        <time>2024-06-06T02:20:14+00:00</time>
      </trkpt>
      <trkpt lat="45.27514" lon="6.0803">
        <ele>1164</ele>
        <time>2024-06-06T02:20:17+00:00</time>
      </trkpt>
      <trkpt lat="45.27526" lon="6.0803">
        <ele>1165</ele>
        <time>2024-06-06T02:20:20+00:00</time>
      </trkpt>
      <trkpt lat="45.27535" lon="6.08029">
        <ele>1166</ele>
        <time>2024-06-06T02:20:23+00:00</time>
      </trkpt>
      <trkpt lat="45.27546" lon="6.08026">
        <ele>1167</ele>
        <time>2024-06-06T02:20:26+00:00</time>
      </trkpt>
      <trkpt lat="45.27554" lon="6.0802">
        <ele>1166</ele>
        <time>2024-06-06T02:20:29+00:00</time>
      </trkpt>
      <trkpt lat="45.27564" lon="6.08017">
        <ele>1167</ele>
        <time>2024-06-06T02:20:32+00:00</time>
      </trkpt>
      <trkpt lat="45.27575" lon="6.08013">
        <ele>1167</ele>
        <time>2024-06-06T02:20:35+00:00</time>
      </trkpt>
      <trkpt lat="45.27583" lon="6.08013">
        <ele>1168</ele>
        <time>2024-06-06T02:20:38+00:00</time>
      </trkpt>
      <trkpt lat="45.27592" lon="6.08014">
        <ele>1168</ele>
        <time>2024-06-06T02:20:41+00:00</time>
      </trkpt>
      <trkpt lat="45.276" lon="6.08011">
        <ele>1166</ele>
        <time>2024-06-06T02:20:44+00:00</time>
      </trkpt>
      <trkpt lat="45.27609" lon="6.08012">
        <ele>1168</ele>
        <time>2024-06-06T02:20:47+00:00</time>
      </trkpt>
      <trkpt lat="45.27617" lon="6.08008">
        <ele>1166</ele>
        <time>2024-06-06T02:20:50+00:00</time>
      </trkpt>
      <trkpt lat="45.2762" lon="6.08001">
        <ele>1166</ele>
        <time>2024-06-06T02:20:53+00:00</time>
      </trkpt>
      <trkpt lat="45.27627" lon="6.07991">
        <ele>1163</ele>
        <time>2024-06-06T02:20:56+00:00</time>
      </trkpt>
      <trkpt lat="45.27633" lon="6.07981">
        <ele>1160</ele>
        <time>2024-06-06T02:20:59+00:00</time>
      </trkpt>
      <trkpt lat="45.27643" lon="6.07972">
        <ele>1157</ele>
        <time>2024-06-06T02:21:02+00:00</time>
      </trkpt>
      <trkpt lat="45.27651" lon="6.07967">
        <ele>1153</ele>
        <time>2024-06-06T02:21:05+00:00</time>
      </trkpt>
      <trkpt lat="45.27663" lon="6.07958">
        <ele>1149</ele>
        <time>2024-06-06T02:21:08+00:00</time>
      </trkpt>
      <trkpt lat="45.27666" lon="6.07945">
        <ele>1146</ele>
        <time>2024-06-06T02:21:11+00:00</time>
      </trkpt>
      <trkpt lat="45.2767" lon="6.07941">
        <ele>1146</ele>
        <time>2024-06-06T02:21:14+00:00</time>
      </trkpt>
      <trkpt lat="45.27677" lon="6.07942">
        <ele>1145</ele>
        <time>2024-06-06T02:21:17+00:00</time>
      </trkpt>
      <trkpt lat="45.27689" lon="6.07944">
        <ele>1143</ele>
        <time>2024-06-06T02:21:20+00:00</time>
      </trkpt>
      <trkpt lat="45.27701" lon="6.07946">
        <ele>1141</ele>
        <time>2024-06-06T02:21:23+00:00</time>
      </trkpt>
      <trkpt lat="45.27718" lon="6.07948">
        <ele>1140</ele>
        <time>2024-06-06T02:21:26+00:00</time>
      </trkpt>
      <trkpt lat="45.27745" lon="6.07948">
        <ele>1139</ele>
        <time>2024-06-06T02:21:29+00:00</time>
      </trkpt>
      <trkpt lat="45.27757" lon="6.07949">
        <ele>1139</ele>
        <time>2024-06-06T02:21:32+00:00</time>
      </trkpt>
      <trkpt lat="45.27768" lon="6.07949">
        <ele>1139</ele>
        <time>2024-06-06T02:21:35+00:00</time>
      </trkpt>
      <trkpt lat="45.27781" lon="6.07949">
        <ele>1139</ele>
        <time>2024-06-06T02:21:38+00:00</time>
      </trkpt>
      <trkpt lat="45.27789" lon="6.07951">
        <ele>1141</ele>
        <time>2024-06-06T02:21:41+00:00</time>
      </trkpt>
      <trkpt lat="45.278" lon="6.07955">
        <ele>1140</ele>
        <time>2024-06-06T02:21:44+00:00</time>
      </trkpt>
      <trkpt lat="45.2781" lon="6.07962">
        <ele>1141</ele>
        <time>2024-06-06T02:21:47+00:00</time>
      </trkpt>
      <trkpt lat="45.27819" lon="6.07967">
        <ele>1139</ele>
        <time>2024-06-06T02:21:50+00:00</time>
      </trkpt>
      <trkpt lat="45.27828" lon="6.07973">
        <ele>1140</ele>
        <time>2024-06-06T02:21:53+00:00</time>
      </trkpt>
      <trkpt lat="45.27838" lon="6.07974">
        <ele>1139</ele>
        <time>2024-06-06T02:21:56+00:00</time>
      </trkpt>
      <trkpt lat="45.27848" lon="6.07976">
        <ele>1137</ele>
        <time>2024-06-06T02:21:59+00:00</time>
      </trkpt>
      <trkpt lat="45.2786" lon="6.07976">
        <ele>1136</ele>
        <time>2024-06-06T02:22:02+00:00</time>
      </trkpt>
      <trkpt lat="45.27869" lon="6.07974">
        <ele>1134</ele>
        <time>2024-06-06T02:22:05+00:00</time>
      </trkpt>
      <trkpt lat="45.27879" lon="6.07972">
        <ele>1132</ele>
        <time>2024-06-06T02:22:08+00:00</time>
      </trkpt>
      <trkpt lat="45.27887" lon="6.07969">
        <ele>1129</ele>
        <time>2024-06-06T02:22:11+00:00</time>
      </trkpt>
      <trkpt lat="45.27897" lon="6.07965">
        <ele>1128</ele>
        <time>2024-06-06T02:22:14+00:00</time>
      </trkpt>
      <trkpt lat="45.27906" lon="6.0796">
        <ele>1125</ele>
        <time>2024-06-06T02:22:17+00:00</time>
      </trkpt>
      <trkpt lat="45.27913" lon="6.07951">
        <ele>1124</ele>
        <time>2024-06-06T02:22:20+00:00</time>
      </trkpt>
      <trkpt lat="45.27921" lon="6.07939">
        <ele>1119</ele>
        <time>2024-06-06T02:22:23+00:00</time>
      </trkpt>
      <trkpt lat="45.27926" lon="6.07929">
        <ele>1118</ele>
        <time>2024-06-06T02:22:26+00:00</time>
      </trkpt>
      <trkpt lat="45.27932" lon="6.0792">
        <ele>1116</ele>
        <time>2024-06-06T02:22:29+00:00</time>
      </trkpt>
      <trkpt lat="45.27936" lon="6.07909">
        <ele>1114</ele>
        <time>2024-06-06T02:22:32+00:00</time>
      </trkpt>
      <trkpt lat="45.27937" lon="6.07888">
        <ele>1112</ele>
        <time>2024-06-06T02:22:35+00:00</time>
      </trkpt>
      <trkpt lat="45.27944" lon="6.07884">
        <ele>1111</ele>
        <time>2024-06-06T02:22:38+00:00</time>
      </trkpt>
      <trkpt lat="45.2795" lon="6.07879">
        <ele>1110</ele>
        <time>2024-06-06T02:22:41+00:00</time>
      </trkpt>
      <trkpt lat="45.27957" lon="6.07875">
        <ele>1110</ele>
        <time>2024-06-06T02:22:44+00:00</time>
      </trkpt>
      <trkpt lat="45.27965" lon="6.07867">
        <ele>1108</ele>
        <time>2024-06-06T02:22:47+00:00</time>
      </trkpt>
      <trkpt lat="45.27971" lon="6.07858">
        <ele>1106</ele>
        <time>2024-06-06T02:22:50+00:00</time>
      </trkpt>
      <trkpt lat="45.27976" lon="6.07849">
        <ele>1105</ele>
        <time>2024-06-06T02:22:53+00:00</time>
      </trkpt>
      <trkpt lat="45.2798" lon="6.07845">
        <ele>1105</ele>
        <time>2024-06-06T02:22:56+00:00</time>
      </trkpt>
      <trkpt lat="45.27987" lon="6.07836">
        <ele>1103</ele>
        <time>2024-06-06T02:22:59+00:00</time>
      </trkpt>
      <trkpt lat="45.27998" lon="6.07827">
        <ele>1101</ele>
        <time>2024-06-06T02:23:02+00:00</time>
      </trkpt>
      <trkpt lat="45.28009" lon="6.0782">
        <ele>1099</ele>
        <time>2024-06-06T02:23:05+00:00</time>
      </trkpt>
      <trkpt lat="45.28024" lon="6.07814">
        <ele>1097</ele>
        <time>2024-06-06T02:23:08+00:00</time>
      </trkpt>
      <trkpt lat="45.28063" lon="6.07796">
        <ele>1092</ele>
        <time>2024-06-06T02:23:11+00:00</time>
      </trkpt>
      <trkpt lat="45.28069" lon="6.07793">
        <ele>1092</ele>
        <time>2024-06-06T02:23:14+00:00</time>
      </trkpt>
      <trkpt lat="45.28073" lon="6.07791">
        <ele>1090</ele>
        <time>2024-06-06T02:23:17+00:00</time>
      </trkpt>
      <trkpt lat="45.28079" lon="6.07779">
        <ele>1089</ele>
        <time>2024-06-06T02:23:20+00:00</time>
      </trkpt>
      <trkpt lat="45.28088" lon="6.0776">
        <ele>1086</ele>
        <time>2024-06-06T02:23:23+00:00</time>
      </trkpt>
      <trkpt lat="45.28094" lon="6.07746">
        <ele>1084</ele>
        <time>2024-06-06T02:23:26+00:00</time>
      </trkpt>
      <trkpt lat="45.28099" lon="6.07741">
        <ele>1084</ele>
        <time>2024-06-06T02:23:29+00:00</time>
      </trkpt>
      <trkpt lat="45.28104" lon="6.07735">
        <ele>1082</ele>
        <time>2024-06-06T02:23:32+00:00</time>
      </trkpt>
      <trkpt lat="45.28112" lon="6.07748">
        <ele>1082</ele>
        <time>2024-06-06T02:23:35+00:00</time>
      </trkpt>
      <trkpt lat="45.28116" lon="6.07758">
        <ele>1081</ele>
        <time>2024-06-06T02:23:38+00:00</time>
      </trkpt>
      <trkpt lat="45.2813" lon="6.07787">
        <ele>1081</ele>
        <time>2024-06-06T02:23:41+00:00</time>
      </trkpt>
      <trkpt lat="45.28134" lon="6.07783">
        <ele>1080</ele>
        <time>2024-06-06T02:23:44+00:00</time>
      </trkpt>
      <trkpt lat="45.28144" lon="6.07778">
        <ele>1077</ele>
        <time>2024-06-06T02:23:47+00:00</time>
      </trkpt>
      <trkpt lat="45.28155" lon="6.07775">
        <ele>1075</ele>
        <time>2024-06-06T02:23:50+00:00</time>
      </trkpt>
      <trkpt lat="45.2816" lon="6.07775">
        <ele>1075</ele>
        <time>2024-06-06T02:23:53+00:00</time>
      </trkpt>
      <trkpt lat="45.28179" lon="6.07785">
        <ele>1073</ele>
        <time>2024-06-06T02:23:56+00:00</time>
      </trkpt>
      <trkpt lat="45.28202" lon="6.07818">
        <ele>1072</ele>
        <time>2024-06-06T02:23:59+00:00</time>
      </trkpt>
      <trkpt lat="45.28232" lon="6.07839">
        <ele>1072</ele>
        <time>2024-06-06T02:24:02+00:00</time>
      </trkpt>
      <trkpt lat="45.28272" lon="6.07829">
        <ele>1069</ele>
        <time>2024-06-06T02:24:05+00:00</time>
      </trkpt>
      <trkpt lat="45.28318" lon="6.07812">
        <ele>1065</ele>
        <time>2024-06-06T02:24:08+00:00</time>
      </trkpt>
      <trkpt lat="45.28357" lon="6.07799">
        <ele>1063</ele>
        <time>2024-06-06T02:24:11+00:00</time>
      </trkpt>
      <trkpt lat="45.28391" lon="6.07805">
        <ele>1062</ele>
        <time>2024-06-06T02:24:14+00:00</time>
      </trkpt>
      <trkpt lat="45.28419" lon="6.07799">
        <ele>1060</ele>
        <time>2024-06-06T02:24:17+00:00</time>
      </trkpt>
      <trkpt lat="45.28463" lon="6.07789">
        <ele>1058</ele>
        <time>2024-06-06T02:24:20+00:00</time>
      </trkpt>
      <trkpt lat="45.28483" lon="6.07778">
        <ele>1055</ele>
        <time>2024-06-06T02:24:23+00:00</time>
      </trkpt>
      <trkpt lat="45.2852" lon="6.07747">
        <ele>1050</ele>
        <time>2024-06-06T02:24:26+00:00</time>
      </trkpt>
      <trkpt lat="45.2855" lon="6.07737">
        <ele>1048</ele>
        <time>2024-06-06T02:24:29+00:00</time>
      </trkpt>
      <trkpt lat="45.28582" lon="6.07739">
        <ele>1048</ele>
        <time>2024-06-06T02:24:32+00:00</time>
      </trkpt>
      <trkpt lat="45.28618" lon="6.07757">
        <ele>1052</ele>
        <time>2024-06-06T02:24:35+00:00</time>
      </trkpt>
      <trkpt lat="45.28653" lon="6.07771">
        <ele>1051</ele>
        <time>2024-06-06T02:24:38+00:00</time>
      </trkpt>
      <trkpt lat="45.28669" lon="6.07771">
        <ele>1053</ele>
        <time>2024-06-06T02:24:41+00:00</time>
      </trkpt>
      <trkpt lat="45.28691" lon="6.07764">
        <ele>1050</ele>
        <time>2024-06-06T02:24:44+00:00</time>
      </trkpt>
      <trkpt lat="45.28713" lon="6.07737">
        <ele>1045</ele>
        <time>2024-06-06T02:24:47+00:00</time>
      </trkpt>
      <trkpt lat="45.2873" lon="6.07724">
        <ele>1044</ele>
        <time>2024-06-06T02:24:50+00:00</time>
      </trkpt>
      <trkpt lat="45.28755" lon="6.07709">
        <ele>1043</ele>
        <time>2024-06-06T02:24:53+00:00</time>
      </trkpt>
      <trkpt lat="45.28772" lon="6.07699">
        <ele>1043</ele>
        <time>2024-06-06T02:24:56+00:00</time>
      </trkpt>
      <trkpt lat="45.28786" lon="6.07689">
        <ele>1043</ele>
        <time>2024-06-06T02:24:59+00:00</time>
      </trkpt>
      <trkpt lat="45.28801" lon="6.07682">
        <ele>1043</ele>
        <time>2024-06-06T02:25:02+00:00</time>
      </trkpt>
      <trkpt lat="45.28808" lon="6.0768">
        <ele>1043</ele>
        <time>2024-06-06T02:25:05+00:00</time>
      </trkpt>
      <trkpt lat="45.28812" lon="6.0768">
        <ele>1043</ele>
        <time>2024-06-06T02:25:08+00:00</time>
      </trkpt>
      <trkpt lat="45.28818" lon="6.0768">
        <ele>1043</ele>
        <time>2024-06-06T02:25:11+00:00</time>
      </trkpt>
      <trkpt lat="45.28825" lon="6.07682">
        <ele>1043</ele>
        <time>2024-06-06T02:25:14+00:00</time>
      </trkpt>
      <trkpt lat="45.28829" lon="6.07688">
        <ele>1043</ele>
        <time>2024-06-06T02:25:17+00:00</time>
      </trkpt>
      <trkpt lat="45.28834" lon="6.07698">
        <ele>1043</ele>
        <time>2024-06-06T02:25:20+00:00</time>
      </trkpt>
      <trkpt lat="45.28839" lon="6.07702">
        <ele>1042</ele>
        <time>2024-06-06T02:25:23+00:00</time>
      </trkpt>
      <trkpt lat="45.28843" lon="6.07701">
        <ele>1043</ele>
        <time>2024-06-06T02:25:26+00:00</time>
      </trkpt>
      <trkpt lat="45.28854" lon="6.07695">
        <ele>1041</ele>
        <time>2024-06-06T02:25:29+00:00</time>
      </trkpt>
      <trkpt lat="45.28865" lon="6.07715">
        <ele>1042</ele>
        <time>2024-06-06T02:25:32+00:00</time>
      </trkpt>
      <trkpt lat="45.28871" lon="6.07726">
        <ele>1040</ele>
        <time>2024-06-06T02:25:35+00:00</time>
      </trkpt>
      <trkpt lat="45.28873" lon="6.07731">
        <ele>1041</ele>
        <time>2024-06-06T02:25:38+00:00</time>
      </trkpt>
      <trkpt lat="45.28873" lon="6.07734">
        <ele>1041</ele>
        <time>2024-06-06T02:25:41+00:00</time>
      </trkpt>
      <trkpt lat="45.28879" lon="6.07741">
        <ele>1042</ele>
        <time>2024-06-06T02:25:44+00:00</time>
      </trkpt>
      <trkpt lat="45.28895" lon="6.07765">
        <ele>1042</ele>
        <time>2024-06-06T02:25:47+00:00</time>
      </trkpt>
      <trkpt lat="45.28909" lon="6.07786">
        <ele>1044</ele>
        <time>2024-06-06T02:25:50+00:00</time>
      </trkpt>
      <trkpt lat="45.28925" lon="6.07811">
        <ele>1045</ele>
        <time>2024-06-06T02:25:53+00:00</time>
      </trkpt>
      <trkpt lat="45.28938" lon="6.07834">
        <ele>1046</ele>
        <time>2024-06-06T02:25:56+00:00</time>
      </trkpt>
      <trkpt lat="45.28942" lon="6.0785">
        <ele>1049</ele>
        <time>2024-06-06T02:25:59+00:00</time>
      </trkpt>
      <trkpt lat="45.28944" lon="6.07862">
        <ele>1051</ele>
        <time>2024-06-06T02:26:02+00:00</time>
      </trkpt>
      <trkpt lat="45.28943" lon="6.07873">
        <ele>1053</ele>
        <time>2024-06-06T02:26:05+00:00</time>
      </trkpt>
      <trkpt lat="45.28946" lon="6.07902">
        <ele>1053</ele>
        <time>2024-06-06T02:26:08+00:00</time>
      </trkpt>
      <trkpt lat="45.28949" lon="6.07908">
        <ele>1058</ele>
        <time>2024-06-06T02:26:11+00:00</time>
      </trkpt>
      <trkpt lat="45.28952" lon="6.07911">
        <ele>1058</ele>
        <time>2024-06-06T02:26:14+00:00</time>
      </trkpt>
      <trkpt lat="45.28963" lon="6.07919">
        <ele>1056</ele>
        <time>2024-06-06T02:26:17+00:00</time>
      </trkpt>
      <trkpt lat="45.28972" lon="6.07932">
        <ele>1058</ele>
        <time>2024-06-06T02:26:20+00:00</time>
      </trkpt>
      <trkpt lat="45.28978" lon="6.07949">
        <ele>1060</ele>
        <time>2024-06-06T02:26:23+00:00</time>
      </trkpt>
      <trkpt lat="45.2898" lon="6.07967">
        <ele>1061</ele>
        <time>2024-06-06T02:26:26+00:00</time>
      </trkpt>
      <trkpt lat="45.28978" lon="6.07977">
        <ele>1061</ele>
        <time>2024-06-06T02:26:29+00:00</time>
      </trkpt>
      <trkpt lat="45.28978" lon="6.07983">
        <ele>1066</ele>
        <time>2024-06-06T02:26:32+00:00</time>
      </trkpt>
      <trkpt lat="45.28978" lon="6.0799">
        <ele>1066</ele>
        <time>2024-06-06T02:26:35+00:00</time>
      </trkpt>
      <trkpt lat="45.2898" lon="6.07994">
        <ele>1066</ele>
        <time>2024-06-06T02:26:38+00:00</time>
      </trkpt>
      <trkpt lat="45.28984" lon="6.07996">
        <ele>1066</ele>
        <time>2024-06-06T02:26:41+00:00</time>
      </trkpt>
      <trkpt lat="45.28998" lon="6.07997">
        <ele>1061</ele>
        <time>2024-06-06T02:26:44+00:00</time>
      </trkpt>
      <trkpt lat="45.29013" lon="6.08011">
        <ele>1064</ele>
        <time>2024-06-06T02:26:47+00:00</time>
      </trkpt>
      <trkpt lat="45.29035" lon="6.08025">
        <ele>1061</ele>
        <time>2024-06-06T02:26:50+00:00</time>
      </trkpt>
      <trkpt lat="45.29069" lon="6.08036">
        <ele>1058</ele>
        <time>2024-06-06T02:26:53+00:00</time>
      </trkpt>
      <trkpt lat="45.29105" lon="6.08044">
        <ele>1055</ele>
        <time>2024-06-06T02:26:56+00:00</time>
      </trkpt>
      <trkpt lat="45.29137" lon="6.08038">
        <ele>1050</ele>
        <time>2024-06-06T02:26:59+00:00</time>
      </trkpt>
      <trkpt lat="45.29168" lon="6.08018">
        <ele>1042</ele>
        <time>2024-06-06T02:27:02+00:00</time>
      </trkpt>
      <trkpt lat="45.29186" lon="6.07991">
        <ele>1034</ele>
        <time>2024-06-06T02:27:05+00:00</time>
      </trkpt>
      <trkpt lat="45.29201" lon="6.07985">
        <ele>1029</ele>
        <time>2024-06-06T02:27:08+00:00</time>
      </trkpt>
      <trkpt lat="45.29224" lon="6.07985">
        <ele>1026</ele>
        <time>2024-06-06T02:27:11+00:00</time>
      </trkpt>
      <trkpt lat="45.2926" lon="6.07985">
        <ele>1019</ele>
        <time>2024-06-06T02:27:14+00:00</time>
      </trkpt>
      <trkpt lat="45.29271" lon="6.07974">
        <ele>1016</ele>
        <time>2024-06-06T02:27:17+00:00</time>
      </trkpt>
      <trkpt lat="45.29291" lon="6.07974">
        <ele>1014</ele>
        <time>2024-06-06T02:27:20+00:00</time>
      </trkpt>
      <trkpt lat="45.29316" lon="6.07976">
        <ele>1013</ele>
        <time>2024-06-06T02:27:23+00:00</time>
      </trkpt>
      <trkpt lat="45.29353" lon="6.07978">
        <ele>1009</ele>
        <time>2024-06-06T02:27:26+00:00</time>
      </trkpt>
      <trkpt lat="45.29372" lon="6.07998">
        <ele>1009</ele>
        <time>2024-06-06T02:27:29+00:00</time>
      </trkpt>
      <trkpt lat="45.29391" lon="6.08018">
        <ele>1009</ele>
        <time>2024-06-06T02:27:32+00:00</time>
      </trkpt>
      <trkpt lat="45.29405" lon="6.08027">
        <ele>1010</ele>
        <time>2024-06-06T02:27:35+00:00</time>
      </trkpt>
      <trkpt lat="45.29422" lon="6.08029">
        <ele>1007</ele>
        <time>2024-06-06T02:27:38+00:00</time>
      </trkpt>
      <trkpt lat="45.29453" lon="6.0803">
        <ele>1004</ele>
        <time>2024-06-06T02:27:41+00:00</time>
      </trkpt>
      <trkpt lat="45.29472" lon="6.08025">
        <ele>1003</ele>
        <time>2024-06-06T02:27:44+00:00</time>
      </trkpt>
      <trkpt lat="45.29473" lon="6.08021">
        <ele>1003</ele>
        <time>2024-06-06T02:27:47+00:00</time>
      </trkpt>
      <trkpt lat="45.29476" lon="6.08019">
        <ele>1002</ele>
        <time>2024-06-06T02:27:50+00:00</time>
      </trkpt>
      <trkpt lat="45.29481" lon="6.08019">
        <ele>1002</ele>
        <time>2024-06-06T02:27:53+00:00</time>
      </trkpt>
      <trkpt lat="45.295" lon="6.0802">
        <ele>1001</ele>
        <time>2024-06-06T02:27:56+00:00</time>
      </trkpt>
      <trkpt lat="45.29518" lon="6.08021">
        <ele>1001</ele>
        <time>2024-06-06T02:27:59+00:00</time>
      </trkpt>
      <trkpt lat="45.29526" lon="6.0802">
        <ele>1000</ele>
        <time>2024-06-06T02:28:02+00:00</time>
      </trkpt>
      <trkpt lat="45.29542" lon="6.08015">
        <ele>999</ele>
        <time>2024-06-06T02:28:05+00:00</time>
      </trkpt>
      <trkpt lat="45.29571" lon="6.07998">
        <ele>998</ele>
        <time>2024-06-06T02:28:08+00:00</time>
      </trkpt>
      <trkpt lat="45.29601" lon="6.0798">
        <ele>998</ele>
        <time>2024-06-06T02:28:11+00:00</time>
      </trkpt>
      <trkpt lat="45.29629" lon="6.07963">
        <ele>996</ele>
        <time>2024-06-06T02:28:14+00:00</time>
      </trkpt>
      <trkpt lat="45.29651" lon="6.07948">
        <ele>995</ele>
        <time>2024-06-06T02:28:17+00:00</time>
      </trkpt>
      <trkpt lat="45.29677" lon="6.07932">
        <ele>995</ele>
        <time>2024-06-06T02:28:20+00:00</time>
      </trkpt>
      <trkpt lat="45.29677" lon="6.07932">
        <ele>994</ele>
        <time>2024-06-06T02:28:23+00:00</time>
      </trkpt>
      <trkpt lat="45.29677" lon="6.07932">
        <ele>994</ele>
        <time>2024-06-06T02:28:26+00:00</time>
      </trkpt>
      <trkpt lat="45.29673" lon="6.07949">
        <ele>995</ele>
        <time>2024-06-06T02:28:29+00:00</time>
      </trkpt>
      <trkpt lat="45.29668" lon="6.07961">
        <ele>996</ele>
        <time>2024-06-06T02:28:32+00:00</time>
      </trkpt>
      <trkpt lat="45.29662" lon="6.07976">
        <ele>997</ele>
        <time>2024-06-06T02:28:35+00:00</time>
      </trkpt>
      <trkpt lat="45.2966" lon="6.07993">
        <ele>998</ele>
        <time>2024-06-06T02:28:38+00:00</time>
      </trkpt>
      <trkpt lat="45.2966" lon="6.08005">
        <ele>1000</ele>
        <time>2024-06-06T02:28:41+00:00</time>
      </trkpt>
      <trkpt lat="45.29663" lon="6.08027">
        <ele>1002</ele>
        <time>2024-06-06T02:28:44+00:00</time>
      </trkpt>
      <trkpt lat="45.29665" lon="6.08038">
        <ele>1003</ele>
        <time>2024-06-06T02:28:47+00:00</time>
      </trkpt>
      <trkpt lat="45.29665" lon="6.08048">
        <ele>1004</ele>
        <time>2024-06-06T02:28:50+00:00</time>
      </trkpt>
      <trkpt lat="45.29662" lon="6.08058">
        <ele>1005</ele>
        <time>2024-06-06T02:28:53+00:00</time>
      </trkpt>
      <trkpt lat="45.29659" lon="6.0807">
        <ele>1008</ele>
        <time>2024-06-06T02:28:56+00:00</time>
      </trkpt>
      <trkpt lat="45.29659" lon="6.08083">
        <ele>1011</ele>
        <time>2024-06-06T02:28:59+00:00</time>
      </trkpt>
      <trkpt lat="45.29656" lon="6.08104">
        <ele>1013</ele>
        <time>2024-06-06T02:29:02+00:00</time>
      </trkpt>
      <trkpt lat="45.29656" lon="6.08125">
        <ele>1015</ele>
        <time>2024-06-06T02:29:05+00:00</time>
      </trkpt>
      <trkpt lat="45.29658" lon="6.08144">
        <ele>1016</ele>
        <time>2024-06-06T02:29:08+00:00</time>
      </trkpt>
      <trkpt lat="45.29661" lon="6.08155">
        <ele>1016</ele>
        <time>2024-06-06T02:29:11+00:00</time>
      </trkpt>
      <trkpt lat="45.29662" lon="6.08175">
        <ele>1018</ele>
        <time>2024-06-06T02:29:14+00:00</time>
      </trkpt>
      <trkpt lat="45.29663" lon="6.08215">
        <ele>1022</ele>
        <time>2024-06-06T02:29:17+00:00</time>
      </trkpt>
      <trkpt lat="45.29661" lon="6.08241">
        <ele>1025</ele>
        <time>2024-06-06T02:29:20+00:00</time>
      </trkpt>
      <trkpt lat="45.29657" lon="6.08278">
        <ele>1029</ele>
        <time>2024-06-06T02:29:23+00:00</time>
      </trkpt>
      <trkpt lat="45.29653" lon="6.08301">
        <ele>1033</ele>
        <time>2024-06-06T02:29:26+00:00</time>
      </trkpt>
      <trkpt lat="45.29648" lon="6.08331">
        <ele>1038</ele>
        <time>2024-06-06T02:29:29+00:00</time>
      </trkpt>
      <trkpt lat="45.29641" lon="6.08374">
        <ele>1043</ele>
        <time>2024-06-06T02:29:32+00:00</time>
      </trkpt>
      <trkpt lat="45.29635" lon="6.08416">
        <ele>1049</ele>
        <time>2024-06-06T02:29:35+00:00</time>
      </trkpt>
      <trkpt lat="45.29634" lon="6.08423">
        <ele>1050</ele>
        <time>2024-06-06T02:29:38+00:00</time>
      </trkpt>
      <trkpt lat="45.29631" lon="6.08427">
        <ele>1050</ele>
        <time>2024-06-06T02:29:41+00:00</time>
      </trkpt>
      <trkpt lat="45.29625" lon="6.08433">
        <ele>1053</ele>
        <time>2024-06-06T02:29:44+00:00</time>
      </trkpt>
      <trkpt lat="45.29608" lon="6.0845">
        <ele>1059</ele>
        <time>2024-06-06T02:29:47+00:00</time>
      </trkpt>
      <trkpt lat="45.29593" lon="6.08466">
        <ele>1063</ele>
        <time>2024-06-06T02:29:50+00:00</time>
      </trkpt>
      <trkpt lat="45.29582" lon="6.08481">
        <ele>1068</ele>
        <time>2024-06-06T02:29:53+00:00</time>
      </trkpt>
      <trkpt lat="45.29572" lon="6.08503">
        <ele>1074</ele>
        <time>2024-06-06T02:29:56+00:00</time>
      </trkpt>
      <trkpt lat="45.29563" lon="6.08521">
        <ele>1083</ele>
        <time>2024-06-06T02:29:59+00:00</time>
      </trkpt>
      <trkpt lat="45.29556" lon="6.08553">
        <ele>1090</ele>
        <time>2024-06-06T02:30:02+00:00</time>
      </trkpt>
      <trkpt lat="45.29549" lon="6.08597">
        <ele>1097</ele>
        <time>2024-06-06T02:30:05+00:00</time>
      </trkpt>
      <trkpt lat="45.29542" lon="6.08615">
        <ele>1099</ele>
        <time>2024-06-06T02:30:08+00:00</time>
      </trkpt>
      <trkpt lat="45.29536" lon="6.08628">
        <ele>1106</ele>
        <time>2024-06-06T02:30:11+00:00</time>
      </trkpt>
      <trkpt lat="45.29529" lon="6.08641">
        <ele>1112</ele>
        <time>2024-06-06T02:30:14+00:00</time>
      </trkpt>
      <trkpt lat="45.29508" lon="6.08677">
        <ele>1124</ele>
        <time>2024-06-06T02:30:17+00:00</time>
      </trkpt>
      <trkpt lat="45.29486" lon="6.08708">
        <ele>1134</ele>
        <time>2024-06-06T02:30:20+00:00</time>
      </trkpt>
      <trkpt lat="45.29474" lon="6.08744">
        <ele>1137</ele>
        <time>2024-06-06T02:30:23+00:00</time>
      </trkpt>
      <trkpt lat="45.2946" lon="6.08776">
        <ele>1143</ele>
        <time>2024-06-06T02:30:26+00:00</time>
      </trkpt>
      <trkpt lat="45.29456" lon="6.08816">
        <ele>1147</ele>
        <time>2024-06-06T02:30:29+00:00</time>
      </trkpt>
      <trkpt lat="45.29438" lon="6.08852">
        <ele>1162</ele>
        <time>2024-06-06T02:30:32+00:00</time>
      </trkpt>
      <trkpt lat="45.29436" lon="6.08896">
        <ele>1164</ele>
        <time>2024-06-06T02:30:35+00:00</time>
      </trkpt>
      <trkpt lat="45.29432" lon="6.0894">
        <ele>1166</ele>
        <time>2024-06-06T02:30:38+00:00</time>
      </trkpt>
      <trkpt lat="45.29431" lon="6.08979">
        <ele>1166</ele>
        <time>2024-06-06T02:30:41+00:00</time>
      </trkpt>
      <trkpt lat="45.29409" lon="6.0903">
        <ele>1182</ele>
        <time>2024-06-06T02:30:44+00:00</time>
      </trkpt>
      <trkpt lat="45.29395" lon="6.09061">
        <ele>1192</ele>
        <time>2024-06-06T02:30:47+00:00</time>
      </trkpt>
      <trkpt lat="45.29378" lon="6.09099">
        <ele>1207</ele>
        <time>2024-06-06T02:30:50+00:00</time>
      </trkpt>
      <trkpt lat="45.29366" lon="6.09117">
        <ele>1214</ele>
        <time>2024-06-06T02:30:53+00:00</time>
      </trkpt>
      <trkpt lat="45.29352" lon="6.0909">
        <ele>1217</ele>
        <time>2024-06-06T02:30:56+00:00</time>
      </trkpt>
      <trkpt lat="45.29329" lon="6.09042">
        <ele>1238</ele>
        <time>2024-06-06T02:30:59+00:00</time>
      </trkpt>
      <trkpt lat="45.29303" lon="6.09044">
        <ele>1253</ele>
        <time>2024-06-06T02:31:02+00:00</time>
      </trkpt>
      <trkpt lat="45.29272" lon="6.09015">
        <ele>1272</ele>
        <time>2024-06-06T02:31:05+00:00</time>
      </trkpt>
      <trkpt lat="45.29248" lon="6.09019">
        <ele>1292</ele>
        <time>2024-06-06T02:31:08+00:00</time>
      </trkpt>
      <trkpt lat="45.29231" lon="6.09">
        <ele>1295</ele>
        <time>2024-06-06T02:31:11+00:00</time>
      </trkpt>
      <trkpt lat="45.29215" lon="6.08987">
        <ele>1308</ele>
        <time>2024-06-06T02:31:14+00:00</time>
      </trkpt>
      <trkpt lat="45.292" lon="6.08973">
        <ele>1314</ele>
        <time>2024-06-06T02:31:17+00:00</time>
      </trkpt>
      <trkpt lat="45.29198" lon="6.09015">
        <ele>1328</ele>
        <time>2024-06-06T02:31:20+00:00</time>
      </trkpt>
      <trkpt lat="45.29192" lon="6.09053">
        <ele>1333</ele>
        <time>2024-06-06T02:31:23+00:00</time>
      </trkpt>
      <trkpt lat="45.29192" lon="6.09094">
        <ele>1336</ele>
        <time>2024-06-06T02:31:26+00:00</time>
      </trkpt>
      <trkpt lat="45.29193" lon="6.09156">
        <ele>1344</ele>
        <time>2024-06-06T02:31:29+00:00</time>
      </trkpt>
      <trkpt lat="45.29177" lon="6.09205">
        <ele>1362</ele>
        <time>2024-06-06T02:31:32+00:00</time>
      </trkpt>
      <trkpt lat="45.29177" lon="6.09257">
        <ele>1368</ele>
        <time>2024-06-06T02:31:35+00:00</time>
      </trkpt>
      <trkpt lat="45.29179" lon="6.09277">
        <ele>1373</ele>
        <time>2024-06-06T02:31:38+00:00</time>
      </trkpt>
      <trkpt lat="45.29179" lon="6.09303">
        <ele>1381</ele>
        <time>2024-06-06T02:31:41+00:00</time>
      </trkpt>
      <trkpt lat="45.29166" lon="6.0929">
        <ele>1388</ele>
        <time>2024-06-06T02:31:44+00:00</time>
      </trkpt>
      <trkpt lat="45.29158" lon="6.09301">
        <ele>1389</ele>
        <time>2024-06-06T02:31:47+00:00</time>
      </trkpt>
      <trkpt lat="45.2916" lon="6.09328">
        <ele>1398</ele>
        <time>2024-06-06T02:31:50+00:00</time>
      </trkpt>
      <trkpt lat="45.29157" lon="6.09361">
        <ele>1415</ele>
        <time>2024-06-06T02:31:53+00:00</time>
      </trkpt>
      <trkpt lat="45.29161" lon="6.09382">
        <ele>1410</ele>
        <time>2024-06-06T02:31:56+00:00</time>
      </trkpt>
      <trkpt lat="45.29157" lon="6.09389">
        <ele>1418</ele>
        <time>2024-06-06T02:31:59+00:00</time>
      </trkpt>
      <trkpt lat="45.29156" lon="6.0943">
        <ele>1418</ele>
        <time>2024-06-06T02:32:02+00:00</time>
      </trkpt>
      <trkpt lat="45.29144" lon="6.0945">
        <ele>1421</ele>
        <time>2024-06-06T02:32:05+00:00</time>
      </trkpt>
      <trkpt lat="45.29127" lon="6.09472">
        <ele>1438</ele>
        <time>2024-06-06T02:32:08+00:00</time>
      </trkpt>
      <trkpt lat="45.29106" lon="6.09495">
        <ele>1444</ele>
        <time>2024-06-06T02:32:11+00:00</time>
      </trkpt>
      <trkpt lat="45.29106" lon="6.09535">
        <ele>1450</ele>
        <time>2024-06-06T02:32:14+00:00</time>
      </trkpt>
      <trkpt lat="45.29087" lon="6.09583">
        <ele>1469</ele>
        <time>2024-06-06T02:32:17+00:00</time>
      </trkpt>
      <trkpt lat="45.29089" lon="6.09599">
        <ele>1471</ele>
        <time>2024-06-06T02:32:20+00:00</time>
      </trkpt>
      <trkpt lat="45.29101" lon="6.09615">
        <ele>1471</ele>
        <time>2024-06-06T02:32:23+00:00</time>
      </trkpt>
      <trkpt lat="45.29117" lon="6.09636">
        <ele>1472</ele>
        <time>2024-06-06T02:32:26+00:00</time>
      </trkpt>
      <trkpt lat="45.29124" lon="6.09656">
        <ele>1475</ele>
        <time>2024-06-06T02:32:29+00:00</time>
      </trkpt>
      <trkpt lat="45.29132" lon="6.09659">
        <ele>1474</ele>
        <time>2024-06-06T02:32:32+00:00</time>
      </trkpt>
      <trkpt lat="45.29152" lon="6.09647">
        <ele>1477</ele>
        <time>2024-06-06T02:32:35+00:00</time>
      </trkpt>
      <trkpt lat="45.29176" lon="6.09645">
        <ele>1481</ele>
        <time>2024-06-06T02:32:38+00:00</time>
      </trkpt>
      <trkpt lat="45.29196" lon="6.09664">
        <ele>1489</ele>
        <time>2024-06-06T02:32:41+00:00</time>
      </trkpt>
      <trkpt lat="45.29188" lon="6.09689">
        <ele>1499</ele>
        <time>2024-06-06T02:32:44+00:00</time>
      </trkpt>
      <trkpt lat="45.29196" lon="6.09706">
        <ele>1507</ele>
        <time>2024-06-06T02:32:47+00:00</time>
      </trkpt>
      <trkpt lat="45.29205" lon="6.09724">
        <ele>1513</ele>
        <time>2024-06-06T02:32:50+00:00</time>
      </trkpt>
      <trkpt lat="45.29217" lon="6.09749">
        <ele>1519</ele>
        <time>2024-06-06T02:32:53+00:00</time>
      </trkpt>
      <trkpt lat="45.29239" lon="6.09776">
        <ele>1529</ele>
        <time>2024-06-06T02:32:56+00:00</time>
      </trkpt>
      <trkpt lat="45.29251" lon="6.09797">
        <ele>1539</ele>
        <time>2024-06-06T02:32:59+00:00</time>
      </trkpt>
      <trkpt lat="45.29262" lon="6.09809">
        <ele>1542</ele>
        <time>2024-06-06T02:33:02+00:00</time>
      </trkpt>
      <trkpt lat="45.29283" lon="6.09827">
        <ele>1552</ele>
        <time>2024-06-06T02:33:05+00:00</time>
      </trkpt>
      <trkpt lat="45.29288" lon="6.09837">
        <ele>1557</ele>
        <time>2024-06-06T02:33:08+00:00</time>
      </trkpt>
      <trkpt lat="45.29291" lon="6.09879">
        <ele>1571</ele>
        <time>2024-06-06T02:33:11+00:00</time>
      </trkpt>
      <trkpt lat="45.29293" lon="6.09894">
        <ele>1577</ele>
        <time>2024-06-06T02:33:14+00:00</time>
      </trkpt>
      <trkpt lat="45.29296" lon="6.09908">
        <ele>1581</ele>
        <time>2024-06-06T02:33:17+00:00</time>
      </trkpt>
      <trkpt lat="45.29296" lon="6.09922">
        <ele>1587</ele>
        <time>2024-06-06T02:33:20+00:00</time>
      </trkpt>
      <trkpt lat="45.29298" lon="6.09932">
        <ele>1590</ele>
        <time>2024-06-06T02:33:23+00:00</time>
      </trkpt>
      <trkpt lat="45.29295" lon="6.09938">
        <ele>1590</ele>
        <time>2024-06-06T02:33:26+00:00</time>
      </trkpt>
      <trkpt lat="45.29299" lon="6.09942">
        <ele>1595</ele>
        <time>2024-06-06T02:33:29+00:00</time>
      </trkpt>
      <trkpt lat="45.29297" lon="6.0995">
        <ele>1598</ele>
        <time>2024-06-06T02:33:32+00:00</time>
      </trkpt>
      <trkpt lat="45.29296" lon="6.09958">
        <ele>1598</ele>
        <time>2024-06-06T02:33:35+00:00</time>
      </trkpt>
      <trkpt lat="45.29291" lon="6.09963">
        <ele>1601</ele>
        <time>2024-06-06T02:33:38+00:00</time>
      </trkpt>
      <trkpt lat="45.2929" lon="6.09969">
        <ele>1606</ele>
        <time>2024-06-06T02:33:41+00:00</time>
      </trkpt>
      <trkpt lat="45.29286" lon="6.09967">
        <ele>1606</ele>
        <time>2024-06-06T02:33:44+00:00</time>
      </trkpt>
      <trkpt lat="45.29281" lon="6.09972">
        <ele>1611</ele>
        <time>2024-06-06T02:33:47+00:00</time>
      </trkpt>
      <trkpt lat="45.29261" lon="6.09968">
        <ele>1613</ele>
        <time>2024-06-06T02:33:50+00:00</time>
      </trkpt>
      <trkpt lat="45.29257" lon="6.09957">
        <ele>1615</ele>
        <time>2024-06-06T02:33:53+00:00</time>
      </trkpt>
      <trkpt lat="45.29244" lon="6.09951">
        <ele>1618</ele>
        <time>2024-06-06T02:33:56+00:00</time>
      </trkpt>
      <trkpt lat="45.29239" lon="6.09951">
        <ele>1621</ele>
        <time>2024-06-06T02:33:59+00:00</time>
      </trkpt>
      <trkpt lat="45.29231" lon="6.09947">
        <ele>1618</ele>
        <time>2024-06-06T02:34:02+00:00</time>
      </trkpt>
      <trkpt lat="45.2922" lon="6.09951">
        <ele>1626</ele>
        <time>2024-06-06T02:34:05+00:00</time>
      </trkpt>
      <trkpt lat="45.29219" lon="6.0996">
        <ele>1628</ele>
        <time>2024-06-06T02:34:08+00:00</time>
      </trkpt>
      <trkpt lat="45.2921" lon="6.09958">
        <ele>1631</ele>
        <time>2024-06-06T02:34:11+00:00</time>
      </trkpt>
      <trkpt lat="45.29205" lon="6.0997">
        <ele>1641</ele>
        <time>2024-06-06T02:34:14+00:00</time>
      </trkpt>
      <trkpt lat="45.29206" lon="6.09986">
        <ele>1645</ele>
        <time>2024-06-06T02:34:17+00:00</time>
      </trkpt>
      <trkpt lat="45.29206" lon="6.09998">
        <ele>1649</ele>
        <time>2024-06-06T02:34:20+00:00</time>
      </trkpt>
      <trkpt lat="45.29215" lon="6.10013">
        <ele>1656</ele>
        <time>2024-06-06T02:34:23+00:00</time>
      </trkpt>
      <trkpt lat="45.29214" lon="6.1002">
        <ele>1656</ele>
        <time>2024-06-06T02:34:26+00:00</time>
      </trkpt>
      <trkpt lat="45.29201" lon="6.10019">
        <ele>1659</ele>
        <time>2024-06-06T02:34:29+00:00</time>
      </trkpt>
      <trkpt lat="45.29193" lon="6.1002">
        <ele>1667</ele>
        <time>2024-06-06T02:34:32+00:00</time>
      </trkpt>
      <trkpt lat="45.29192" lon="6.10025">
        <ele>1667</ele>
        <time>2024-06-06T02:34:35+00:00</time>
      </trkpt>
      <trkpt lat="45.29186" lon="6.10024">
        <ele>1668</ele>
        <time>2024-06-06T02:34:38+00:00</time>
      </trkpt>
      <trkpt lat="45.29182" lon="6.10027">
        <ele>1668</ele>
        <time>2024-06-06T02:34:41+00:00</time>
      </trkpt>
      <trkpt lat="45.29178" lon="6.10031">
        <ele>1676</ele>
        <time>2024-06-06T02:34:44+00:00</time>
      </trkpt>
      <trkpt lat="45.29167" lon="6.1003">
        <ele>1676</ele>
        <time>2024-06-06T02:34:47+00:00</time>
      </trkpt>
      <trkpt lat="45.2915" lon="6.10041">
        <ele>1680</ele>
        <time>2024-06-06T02:34:50+00:00</time>
      </trkpt>
      <trkpt lat="45.2914" lon="6.1004">
        <ele>1680</ele>
        <time>2024-06-06T02:34:53+00:00</time>
      </trkpt>
      <trkpt lat="45.29137" lon="6.10044">
        <ele>1680</ele>
        <time>2024-06-06T02:34:56+00:00</time>
      </trkpt>
      <trkpt lat="45.29132" lon="6.10045">
        <ele>1680</ele>
        <time>2024-06-06T02:34:59+00:00</time>
      </trkpt>
      <trkpt lat="45.2913" lon="6.10048">
        <ele>1680</ele>
        <time>2024-06-06T02:35:02+00:00</time>
      </trkpt>
      <trkpt lat="45.29121" lon="6.10069">
        <ele>1692</ele>
        <time>2024-06-06T02:35:05+00:00</time>
      </trkpt>
      <trkpt lat="45.29114" lon="6.10072">
        <ele>1695</ele>
        <time>2024-06-06T02:35:08+00:00</time>
      </trkpt>
      <trkpt lat="45.29107" lon="6.10078">
        <ele>1696</ele>
        <time>2024-06-06T02:35:11+00:00</time>
      </trkpt>
      <trkpt lat="45.29102" lon="6.1009">
        <ele>1702</ele>
        <time>2024-06-06T02:35:14+00:00</time>
      </trkpt>
      <trkpt lat="45.29102" lon="6.10102">
        <ele>1704</ele>
        <time>2024-06-06T02:35:17+00:00</time>
      </trkpt>
      <trkpt lat="45.29103" lon="6.10109">
        <ele>1704</ele>
        <time>2024-06-06T02:35:20+00:00</time>
      </trkpt>
      <trkpt lat="45.29107" lon="6.10112">
        <ele>1706</ele>
        <time>2024-06-06T02:35:23+00:00</time>
      </trkpt>
      <trkpt lat="45.2911" lon="6.10113">
        <ele>1706</ele>
        <time>2024-06-06T02:35:26+00:00</time>
      </trkpt>
      <trkpt lat="45.29111" lon="6.10125">
        <ele>1709</ele>
        <time>2024-06-06T02:35:29+00:00</time>
      </trkpt>
      <trkpt lat="45.29114" lon="6.10155">
        <ele>1713</ele>
        <time>2024-06-06T02:35:32+00:00</time>
      </trkpt>
      <trkpt lat="45.29114" lon="6.10159">
        <ele>1713</ele>
        <time>2024-06-06T02:35:35+00:00</time>
      </trkpt>
      <trkpt lat="45.29115" lon="6.10163">
        <ele>1715</ele>
        <time>2024-06-06T02:35:38+00:00</time>
      </trkpt>
      <trkpt lat="45.29117" lon="6.10165">
        <ele>1715</ele>
        <time>2024-06-06T02:35:41+00:00</time>
      </trkpt>
      <trkpt lat="45.29117" lon="6.10167">
        <ele>1715</ele>
        <time>2024-06-06T02:35:44+00:00</time>
      </trkpt>
      <trkpt lat="45.29119" lon="6.10171">
        <ele>1717</ele>
        <time>2024-06-06T02:35:47+00:00</time>
      </trkpt>
      <trkpt lat="45.2912" lon="6.10171">
        <ele>1717</ele>
        <time>2024-06-06T02:35:50+00:00</time>
      </trkpt>
      <trkpt lat="45.29122" lon="6.10172">
        <ele>1716</ele>
        <time>2024-06-06T02:35:53+00:00</time>
      </trkpt>
      <trkpt lat="45.29125" lon="6.10175">
        <ele>1716</ele>
        <time>2024-06-06T02:35:56+00:00</time>
      </trkpt>
      <trkpt lat="45.2913" lon="6.1018">
        <ele>1720</ele>
        <time>2024-06-06T02:35:59+00:00</time>
      </trkpt>
      <trkpt lat="45.29129" lon="6.10184">
        <ele>1719</ele>
        <time>2024-06-06T02:36:02+00:00</time>
      </trkpt>
      <trkpt lat="45.29127" lon="6.10189">
        <ele>1719</ele>
        <time>2024-06-06T02:36:05+00:00</time>
      </trkpt>
      <trkpt lat="45.29127" lon="6.10193">
        <ele>1722</ele>
        <time>2024-06-06T02:36:08+00:00</time>
      </trkpt>
      <trkpt lat="45.29128" lon="6.10195">
        <ele>1722</ele>
        <time>2024-06-06T02:36:11+00:00</time>
      </trkpt>
      <trkpt lat="45.29131" lon="6.10197">
        <ele>1723</ele>
        <time>2024-06-06T02:36:14+00:00</time>
      </trkpt>
      <trkpt lat="45.29134" lon="6.10198">
        <ele>1723</ele>
        <time>2024-06-06T02:36:17+00:00</time>
      </trkpt>
      <trkpt lat="45.29136" lon="6.10199">
        <ele>1723</ele>
        <time>2024-06-06T02:36:20+00:00</time>
      </trkpt>
      <trkpt lat="45.29142" lon="6.1023">
        <ele>1733</ele>
        <time>2024-06-06T02:36:23+00:00</time>
      </trkpt>
      <trkpt lat="45.29143" lon="6.10233">
        <ele>1735</ele>
        <time>2024-06-06T02:36:26+00:00</time>
      </trkpt>
      <trkpt lat="45.29145" lon="6.10238">
        <ele>1735</ele>
        <time>2024-06-06T02:36:29+00:00</time>
      </trkpt>
      <trkpt lat="45.29152" lon="6.10241">
        <ele>1738</ele>
        <time>2024-06-06T02:36:32+00:00</time>
      </trkpt>
      <trkpt lat="45.29155" lon="6.10245">
        <ele>1738</ele>
        <time>2024-06-06T02:36:35+00:00</time>
      </trkpt>
      <trkpt lat="45.29158" lon="6.10246">
        <ele>1738</ele>
        <time>2024-06-06T02:36:38+00:00</time>
      </trkpt>
      <trkpt lat="45.29164" lon="6.10249">
        <ele>1738</ele>
        <time>2024-06-06T02:36:41+00:00</time>
      </trkpt>
      <trkpt lat="45.29171" lon="6.10254">
        <ele>1743</ele>
        <time>2024-06-06T02:36:44+00:00</time>
      </trkpt>
      <trkpt lat="45.29176" lon="6.10253">
        <ele>1743</ele>
        <time>2024-06-06T02:36:47+00:00</time>
      </trkpt>
      <trkpt lat="45.29182" lon="6.10254">
        <ele>1746</ele>
        <time>2024-06-06T02:36:50+00:00</time>
      </trkpt>
      <trkpt lat="45.29186" lon="6.10258">
        <ele>1746</ele>
        <time>2024-06-06T02:36:53+00:00</time>
      </trkpt>
      <trkpt lat="45.29193" lon="6.10258">
        <ele>1749</ele>
        <time>2024-06-06T02:36:56+00:00</time>
      </trkpt>
      <trkpt lat="45.29195" lon="6.10265">
        <ele>1750</ele>
        <time>2024-06-06T02:36:59+00:00</time>
      </trkpt>
      <trkpt lat="45.29196" lon="6.10267">
        <ele>1750</ele>
        <time>2024-06-06T02:37:02+00:00</time>
      </trkpt>
      <trkpt lat="45.29195" lon="6.10275">
        <ele>1752</ele>
        <time>2024-06-06T02:37:05+00:00</time>
      </trkpt>
      <trkpt lat="45.29195" lon="6.10279">
        <ele>1752</ele>
        <time>2024-06-06T02:37:08+00:00</time>
      </trkpt>
      <trkpt lat="45.29196" lon="6.10284">
        <ele>1754</ele>
        <time>2024-06-06T02:37:11+00:00</time>
      </trkpt>
      <trkpt lat="45.29198" lon="6.10287">
        <ele>1754</ele>
        <time>2024-06-06T02:37:14+00:00</time>
      </trkpt>
      <trkpt lat="45.29205" lon="6.10293">
        <ele>1758</ele>
        <time>2024-06-06T02:37:17+00:00</time>
      </trkpt>
      <trkpt lat="45.29207" lon="6.10294">
        <ele>1758</ele>
        <time>2024-06-06T02:37:20+00:00</time>
      </trkpt>
      <trkpt lat="45.29209" lon="6.10299">
        <ele>1758</ele>
        <time>2024-06-06T02:37:23+00:00</time>
      </trkpt>
      <trkpt lat="45.29211" lon="6.10302">
        <ele>1761</ele>
        <time>2024-06-06T02:37:26+00:00</time>
      </trkpt>
      <trkpt lat="45.29216" lon="6.103">
        <ele>1759</ele>
        <time>2024-06-06T02:37:29+00:00</time>
      </trkpt>
      <trkpt lat="45.29219" lon="6.10312">
        <ele>1762</ele>
        <time>2024-06-06T02:37:32+00:00</time>
      </trkpt>
      <trkpt lat="45.29224" lon="6.10316">
        <ele>1764</ele>
        <time>2024-06-06T02:37:35+00:00</time>
      </trkpt>
      <trkpt lat="45.29228" lon="6.10317">
        <ele>1764</ele>
        <time>2024-06-06T02:37:38+00:00</time>
      </trkpt>
      <trkpt lat="45.29231" lon="6.10324">
        <ele>1768</ele>
        <time>2024-06-06T02:37:41+00:00</time>
      </trkpt>
      <trkpt lat="45.29237" lon="6.10345">
        <ele>1771</ele>
        <time>2024-06-06T02:37:44+00:00</time>
      </trkpt>
      <trkpt lat="45.2924" lon="6.10356">
        <ele>1772</ele>
        <time>2024-06-06T02:37:47+00:00</time>
      </trkpt>
      <trkpt lat="45.2924" lon="6.10363">
        <ele>1773</ele>
        <time>2024-06-06T02:37:50+00:00</time>
      </trkpt>
      <trkpt lat="45.2924" lon="6.10368">
        <ele>1773</ele>
        <time>2024-06-06T02:37:53+00:00</time>
      </trkpt>
      <trkpt lat="45.29239" lon="6.10372">
        <ele>1774</ele>
        <time>2024-06-06T02:37:56+00:00</time>
      </trkpt>
      <trkpt lat="45.2924" lon="6.10377">
        <ele>1774</ele>
        <time>2024-06-06T02:37:59+00:00</time>
      </trkpt>
      <trkpt lat="45.29242" lon="6.10382">
        <ele>1778</ele>
        <time>2024-06-06T02:38:02+00:00</time>
      </trkpt>
      <trkpt lat="45.29242" lon="6.10386">
        <ele>1778</ele>
        <time>2024-06-06T02:38:05+00:00</time>
      </trkpt>
      <trkpt lat="45.29242" lon="6.1039">
        <ele>1781</ele>
        <time>2024-06-06T02:38:08+00:00</time>
      </trkpt>
      <trkpt lat="45.29243" lon="6.10394">
        <ele>1781</ele>
        <time>2024-06-06T02:38:11+00:00</time>
      </trkpt>
      <trkpt lat="45.29245" lon="6.10397">
        <ele>1781</ele>
        <time>2024-06-06T02:38:14+00:00</time>
      </trkpt>
      <trkpt lat="45.29246" lon="6.104">
        <ele>1783</ele>
        <time>2024-06-06T02:38:17+00:00</time>
      </trkpt>
      <trkpt lat="45.29247" lon="6.10406">
        <ele>1783</ele>
        <time>2024-06-06T02:38:20+00:00</time>
      </trkpt>
      <trkpt lat="45.29249" lon="6.10409">
        <ele>1783</ele>
        <time>2024-06-06T02:38:23+00:00</time>
      </trkpt>
      <trkpt lat="45.2925" lon="6.10412">
        <ele>1785</ele>
        <time>2024-06-06T02:38:26+00:00</time>
      </trkpt>
      <trkpt lat="45.29251" lon="6.10413">
        <ele>1787</ele>
        <time>2024-06-06T02:38:29+00:00</time>
      </trkpt>
      <trkpt lat="45.29255" lon="6.10415">
        <ele>1787</ele>
        <time>2024-06-06T02:38:32+00:00</time>
      </trkpt>
      <trkpt lat="45.29259" lon="6.10417">
        <ele>1787</ele>
        <time>2024-06-06T02:38:35+00:00</time>
      </trkpt>
      <trkpt lat="45.29264" lon="6.10419">
        <ele>1790</ele>
        <time>2024-06-06T02:38:38+00:00</time>
      </trkpt>
      <trkpt lat="45.29269" lon="6.10418">
        <ele>1790</ele>
        <time>2024-06-06T02:38:41+00:00</time>
      </trkpt>
      <trkpt lat="45.29271" lon="6.1042">
        <ele>1792</ele>
        <time>2024-06-06T02:38:44+00:00</time>
      </trkpt>
      <trkpt lat="45.29274" lon="6.10423">
        <ele>1796</ele>
        <time>2024-06-06T02:38:47+00:00</time>
      </trkpt>
      <trkpt lat="45.29277" lon="6.10427">
        <ele>1796</ele>
        <time>2024-06-06T02:38:50+00:00</time>
      </trkpt>
      <trkpt lat="45.29282" lon="6.10428">
        <ele>1797</ele>
        <time>2024-06-06T02:38:53+00:00</time>
      </trkpt>
      <trkpt lat="45.29286" lon="6.10428">
        <ele>1797</ele>
        <time>2024-06-06T02:38:56+00:00</time>
      </trkpt>
      <trkpt lat="45.29289" lon="6.1043">
        <ele>1797</ele>
        <time>2024-06-06T02:38:59+00:00</time>
      </trkpt>
      <trkpt lat="45.29291" lon="6.10432">
        <ele>1798</ele>
        <time>2024-06-06T02:39:02+00:00</time>
      </trkpt>
      <trkpt lat="45.29291" lon="6.10437">
        <ele>1798</ele>
        <time>2024-06-06T02:39:05+00:00</time>
      </trkpt>
      <trkpt lat="45.2929" lon="6.10442">
        <ele>1802</ele>
        <time>2024-06-06T02:39:08+00:00</time>
      </trkpt>
      <trkpt lat="45.2929" lon="6.10447">
        <ele>1801</ele>
        <time>2024-06-06T02:39:11+00:00</time>
      </trkpt>
      <trkpt lat="45.29291" lon="6.10451">
        <ele>1803</ele>
        <time>2024-06-06T02:39:14+00:00</time>
      </trkpt>
      <trkpt lat="45.29292" lon="6.10458">
        <ele>1803</ele>
        <time>2024-06-06T02:39:17+00:00</time>
      </trkpt>
      <trkpt lat="45.29293" lon="6.10462">
        <ele>1804</ele>
        <time>2024-06-06T02:39:20+00:00</time>
      </trkpt>
      <trkpt lat="45.29295" lon="6.10466">
        <ele>1804</ele>
        <time>2024-06-06T02:39:23+00:00</time>
      </trkpt>
      <trkpt lat="45.29296" lon="6.10472">
        <ele>1805</ele>
        <time>2024-06-06T02:39:26+00:00</time>
      </trkpt>
      <trkpt lat="45.29299" lon="6.10477">
        <ele>1805</ele>
        <time>2024-06-06T02:39:29+00:00</time>
      </trkpt>
      <trkpt lat="45.29299" lon="6.10477">
        <ele>1805</ele>
        <time>2024-06-06T02:39:32+00:00</time>
      </trkpt>
      <trkpt lat="45.29299" lon="6.10477">
        <ele>1805</ele>
        <time>2024-06-06T02:39:35+00:00</time>
      </trkpt>
      <trkpt lat="45.29303" lon="6.10479">
        <ele>1805</ele>
        <time>2024-06-06T02:39:38+00:00</time>
      </trkpt>
      <trkpt lat="45.29307" lon="6.10479">
        <ele>1805</ele>
        <time>2024-06-06T02:39:41+00:00</time>
      </trkpt>
      <trkpt lat="45.29309" lon="6.10482">
        <ele>1807</ele>
        <time>2024-06-06T02:39:44+00:00</time>
      </trkpt>
      <trkpt lat="45.29311" lon="6.10487">
        <ele>1806</ele>
        <time>2024-06-06T02:39:47+00:00</time>
      </trkpt>
      <trkpt lat="45.29314" lon="6.10491">
        <ele>1807</ele>
        <time>2024-06-06T02:39:50+00:00</time>
      </trkpt>
      <trkpt lat="45.29315" lon="6.10497">
        <ele>1807</ele>
        <time>2024-06-06T02:39:53+00:00</time>
      </trkpt>
      <trkpt lat="45.29316" lon="6.10501">
        <ele>1809</ele>
        <time>2024-06-06T02:39:56+00:00</time>
      </trkpt>
      <trkpt lat="45.29317" lon="6.10509">
        <ele>1809</ele>
        <time>2024-06-06T02:39:59+00:00</time>
      </trkpt>
      <trkpt lat="45.29318" lon="6.10516">
        <ele>1811</ele>
        <time>2024-06-06T02:40:02+00:00</time>
      </trkpt>
      <trkpt lat="45.29319" lon="6.10525">
        <ele>1812</ele>
        <time>2024-06-06T02:40:05+00:00</time>
      </trkpt>
      <trkpt lat="45.29315" lon="6.10528">
        <ele>1812</ele>
        <time>2024-06-06T02:40:08+00:00</time>
      </trkpt>
      <trkpt lat="45.29314" lon="6.1053">
        <ele>1812</ele>
        <time>2024-06-06T02:40:11+00:00</time>
      </trkpt>
      <trkpt lat="45.29315" lon="6.10534">
        <ele>1814</ele>
        <time>2024-06-06T02:40:14+00:00</time>
      </trkpt>
      <trkpt lat="45.29314" lon="6.10539">
        <ele>1814</ele>
        <time>2024-06-06T02:40:17+00:00</time>
      </trkpt>
      <trkpt lat="45.29313" lon="6.10544">
        <ele>1816</ele>
        <time>2024-06-06T02:40:20+00:00</time>
      </trkpt>
      <trkpt lat="45.29312" lon="6.10548">
        <ele>1816</ele>
        <time>2024-06-06T02:40:23+00:00</time>
      </trkpt>
      <trkpt lat="45.2931" lon="6.10551">
        <ele>1818</ele>
        <time>2024-06-06T02:40:26+00:00</time>
      </trkpt>
      <trkpt lat="45.29308" lon="6.10555">
        <ele>1818</ele>
        <time>2024-06-06T02:40:29+00:00</time>
      </trkpt>
      <trkpt lat="45.29306" lon="6.10559">
        <ele>1818</ele>
        <time>2024-06-06T02:40:32+00:00</time>
      </trkpt>
      <trkpt lat="45.29305" lon="6.10563">
        <ele>1818</ele>
        <time>2024-06-06T02:40:35+00:00</time>
      </trkpt>
      <trkpt lat="45.29303" lon="6.10565">
        <ele>1818</ele>
        <time>2024-06-06T02:40:38+00:00</time>
      </trkpt>
      <trkpt lat="45.29299" lon="6.10567">
        <ele>1819</ele>
        <time>2024-06-06T02:40:41+00:00</time>
      </trkpt>
      <trkpt lat="45.29298" lon="6.10569">
        <ele>1819</ele>
        <time>2024-06-06T02:40:44+00:00</time>
      </trkpt>
      <trkpt lat="45.29296" lon="6.10575">
        <ele>1820</ele>
        <time>2024-06-06T02:40:47+00:00</time>
      </trkpt>
      <trkpt lat="45.29288" lon="6.10593">
        <ele>1820</ele>
        <time>2024-06-06T02:40:50+00:00</time>
      </trkpt>
      <trkpt lat="45.29282" lon="6.1063">
        <ele>1820</ele>
        <time>2024-06-06T02:40:53+00:00</time>
      </trkpt>
      <trkpt lat="45.29281" lon="6.10644">
        <ele>1822</ele>
        <time>2024-06-06T02:40:56+00:00</time>
      </trkpt>
      <trkpt lat="45.29282" lon="6.10646">
        <ele>1822</ele>
        <time>2024-06-06T02:40:59+00:00</time>
      </trkpt>
      <trkpt lat="45.29283" lon="6.10649">
        <ele>1822</ele>
        <time>2024-06-06T02:41:02+00:00</time>
      </trkpt>
      <trkpt lat="45.29283" lon="6.10652">
        <ele>1821</ele>
        <time>2024-06-06T02:41:05+00:00</time>
      </trkpt>
      <trkpt lat="45.29283" lon="6.10655">
        <ele>1821</ele>
        <time>2024-06-06T02:41:08+00:00</time>
      </trkpt>
      <trkpt lat="45.29283" lon="6.10658">
        <ele>1819</ele>
        <time>2024-06-06T02:41:11+00:00</time>
      </trkpt>
      <trkpt lat="45.29283" lon="6.1066">
        <ele>1820</ele>
        <time>2024-06-06T02:41:14+00:00</time>
      </trkpt>
      <trkpt lat="45.29284" lon="6.10662">
        <ele>1820</ele>
        <time>2024-06-06T02:41:17+00:00</time>
      </trkpt>
      <trkpt lat="45.29291" lon="6.1067">
        <ele>1818</ele>
        <time>2024-06-06T02:41:20+00:00</time>
      </trkpt>
      <trkpt lat="45.29291" lon="6.10672">
        <ele>1818</ele>
        <time>2024-06-06T02:41:23+00:00</time>
      </trkpt>
      <trkpt lat="45.29291" lon="6.10674">
        <ele>1818</ele>
        <time>2024-06-06T02:41:26+00:00</time>
      </trkpt>
      <trkpt lat="45.29291" lon="6.10676">
        <ele>1818</ele>
        <time>2024-06-06T02:41:29+00:00</time>
      </trkpt>
      <trkpt lat="45.29291" lon="6.10678">
        <ele>1818</ele>
        <time>2024-06-06T02:41:32+00:00</time>
      </trkpt>
      <trkpt lat="45.29292" lon="6.10681">
        <ele>1819</ele>
        <time>2024-06-06T02:41:35+00:00</time>
      </trkpt>
      <trkpt lat="45.29291" lon="6.10683">
        <ele>1818</ele>
        <time>2024-06-06T02:41:38+00:00</time>
      </trkpt>
      <trkpt lat="45.29291" lon="6.10685">
        <ele>1818</ele>
        <time>2024-06-06T02:41:41+00:00</time>
      </trkpt>
      <trkpt lat="45.29291" lon="6.10688">
        <ele>1818</ele>
        <time>2024-06-06T02:41:44+00:00</time>
      </trkpt>
      <trkpt lat="45.29291" lon="6.10689">
        <ele>1818</ele>
        <time>2024-06-06T02:41:47+00:00</time>
      </trkpt>
      <trkpt lat="45.29292" lon="6.10691">
        <ele>1819</ele>
        <time>2024-06-06T02:41:50+00:00</time>
      </trkpt>
      <trkpt lat="45.29293" lon="6.10693">
        <ele>1819</ele>
        <time>2024-06-06T02:41:53+00:00</time>
      </trkpt>
      <trkpt lat="45.29294" lon="6.10695">
        <ele>1819</ele>
        <time>2024-06-06T02:41:56+00:00</time>
      </trkpt>
      <trkpt lat="45.29294" lon="6.10698">
        <ele>1819</ele>
        <time>2024-06-06T02:41:59+00:00</time>
      </trkpt>
      <trkpt lat="45.29294" lon="6.107">
        <ele>1819</ele>
        <time>2024-06-06T02:42:02+00:00</time>
      </trkpt>
      <trkpt lat="45.29295" lon="6.10701">
        <ele>1820</ele>
        <time>2024-06-06T02:42:05+00:00</time>
      </trkpt>
      <trkpt lat="45.29295" lon="6.107">
        <ele>1820</ele>
        <time>2024-06-06T02:42:08+00:00</time>
      </trkpt>
      <trkpt lat="45.29296" lon="6.10699">
        <ele>1819</ele>
        <time>2024-06-06T02:42:11+00:00</time>
      </trkpt>
      <trkpt lat="45.29297" lon="6.10697">
        <ele>1819</ele>
        <time>2024-06-06T02:42:14+00:00</time>
      </trkpt>
      <trkpt lat="45.29298" lon="6.10695">
        <ele>1819</ele>
        <time>2024-06-06T02:42:17+00:00</time>
      </trkpt>
      <trkpt lat="45.29299" lon="6.10693">
        <ele>1819</ele>
        <time>2024-06-06T02:42:20+00:00</time>
      </trkpt>
      <trkpt lat="45.29301" lon="6.10691">
        <ele>1822</ele>
        <time>2024-06-06T02:42:23+00:00</time>
      </trkpt>
      <trkpt lat="45.29302" lon="6.10689">
        <ele>1821</ele>
        <time>2024-06-06T02:42:26+00:00</time>
      </trkpt>
      <trkpt lat="45.29303" lon="6.10688">
        <ele>1821</ele>
        <time>2024-06-06T02:42:29+00:00</time>
      </trkpt>
      <trkpt lat="45.29303" lon="6.10688">
        <ele>1821</ele>
        <time>2024-06-06T02:42:32+00:00</time>
      </trkpt>
      <trkpt lat="45.29303" lon="6.10687">
        <ele>1821</ele>
        <time>2024-06-06T02:42:35+00:00</time>
      </trkpt>
      <trkpt lat="45.29305" lon="6.10687">
        <ele>1821</ele>
        <time>2024-06-06T02:42:38+00:00</time>
      </trkpt>
      <trkpt lat="45.29306" lon="6.10687">
        <ele>1821</ele>
        <time>2024-06-06T02:42:41+00:00</time>
      </trkpt>
      <trkpt lat="45.29307" lon="6.1069">
        <ele>1821</ele>
        <time>2024-06-06T02:42:44+00:00</time>
      </trkpt>
      <trkpt lat="45.29307" lon="6.10693">
        <ele>1822</ele>
        <time>2024-06-06T02:42:47+00:00</time>
      </trkpt>
      <trkpt lat="45.29306" lon="6.10696">
        <ele>1822</ele>
        <time>2024-06-06T02:42:50+00:00</time>
      </trkpt>
      <trkpt lat="45.29306" lon="6.10701">
        <ele>1823</ele>
        <time>2024-06-06T02:42:53+00:00</time>
      </trkpt>
      <trkpt lat="45.29305" lon="6.10706">
        <ele>1823</ele>
        <time>2024-06-06T02:42:56+00:00</time>
      </trkpt>
      <trkpt lat="45.29303" lon="6.1071">
        <ele>1823</ele>
        <time>2024-06-06T02:42:59+00:00</time>
      </trkpt>
      <trkpt lat="45.29301" lon="6.10714">
        <ele>1823</ele>
        <time>2024-06-06T02:43:02+00:00</time>
      </trkpt>
      <trkpt lat="45.29301" lon="6.10718">
        <ele>1823</ele>
        <time>2024-06-06T02:43:05+00:00</time>
      </trkpt>
      <trkpt lat="45.29301" lon="6.10719">
        <ele>1823</ele>
        <time>2024-06-06T02:43:08+00:00</time>
      </trkpt>
      <trkpt lat="45.29302" lon="6.10721">
        <ele>1826</ele>
        <time>2024-06-06T02:43:11+00:00</time>
      </trkpt>
      <trkpt lat="45.29303" lon="6.10722">
        <ele>1826</ele>
        <time>2024-06-06T02:43:14+00:00</time>
      </trkpt>
      <trkpt lat="45.29319" lon="6.10723">
        <ele>1828</ele>
        <time>2024-06-06T02:43:17+00:00</time>
      </trkpt>
      <trkpt lat="45.2933" lon="6.10731">
        <ele>1832</ele>
        <time>2024-06-06T02:43:20+00:00</time>
      </trkpt>
      <trkpt lat="45.29342" lon="6.10733">
        <ele>1829</ele>
        <time>2024-06-06T02:43:23+00:00</time>
      </trkpt>
      <trkpt lat="45.29349" lon="6.10733">
        <ele>1832</ele>
        <time>2024-06-06T02:43:26+00:00</time>
      </trkpt>
      <trkpt lat="45.29355" lon="6.10731">
        <ele>1832</ele>
        <time>2024-06-06T02:43:29+00:00</time>
      </trkpt>
      <trkpt lat="45.29363" lon="6.10725">
        <ele>1830</ele>
        <time>2024-06-06T02:43:32+00:00</time>
      </trkpt>
      <trkpt lat="45.29373" lon="6.10723">
        <ele>1831</ele>
        <time>2024-06-06T02:43:35+00:00</time>
      </trkpt>
      <trkpt lat="45.2938" lon="6.10718">
        <ele>1829</ele>
        <time>2024-06-06T02:43:38+00:00</time>
      </trkpt>
      <trkpt lat="45.29388" lon="6.1071">
        <ele>1832</ele>
        <time>2024-06-06T02:43:41+00:00</time>
      </trkpt>
      <trkpt lat="45.29391" lon="6.1071">
        <ele>1836</ele>
        <time>2024-06-06T02:43:44+00:00</time>
      </trkpt>
      <trkpt lat="45.29393" lon="6.10712">
        <ele>1836</ele>
        <time>2024-06-06T02:43:47+00:00</time>
      </trkpt>
      <trkpt lat="45.29394" lon="6.10718">
        <ele>1836</ele>
        <time>2024-06-06T02:43:50+00:00</time>
      </trkpt>
      <trkpt lat="45.29401" lon="6.10728">
        <ele>1841</ele>
        <time>2024-06-06T02:43:53+00:00</time>
      </trkpt>
      <trkpt lat="45.29405" lon="6.10736">
        <ele>1842</ele>
        <time>2024-06-06T02:43:56+00:00</time>
      </trkpt>
      <trkpt lat="45.29417" lon="6.10736">
        <ele>1846</ele>
        <time>2024-06-06T02:43:59+00:00</time>
      </trkpt>
      <trkpt lat="45.29422" lon="6.1074">
        <ele>1847</ele>
        <time>2024-06-06T02:44:02+00:00</time>
      </trkpt>
      <trkpt lat="45.29418" lon="6.10741">
        <ele>1848</ele>
        <time>2024-06-06T02:44:05+00:00</time>
      </trkpt>
      <trkpt lat="45.29423" lon="6.10745">
        <ele>1850</ele>
        <time>2024-06-06T02:44:08+00:00</time>
      </trkpt>
      <trkpt lat="45.29423" lon="6.10751">
        <ele>1853</ele>
        <time>2024-06-06T02:44:11+00:00</time>
      </trkpt>
      <trkpt lat="45.2942" lon="6.10763">
        <ele>1854</ele>
        <time>2024-06-06T02:44:14+00:00</time>
      </trkpt>
      <trkpt lat="45.29416" lon="6.10775">
        <ele>1856</ele>
        <time>2024-06-06T02:44:17+00:00</time>
      </trkpt>
      <trkpt lat="45.29421" lon="6.10787">
        <ele>1861</ele>
        <time>2024-06-06T02:44:20+00:00</time>
      </trkpt>
      <trkpt lat="45.2943" lon="6.10793">
        <ele>1863</ele>
        <time>2024-06-06T02:44:23+00:00</time>
      </trkpt>
      <trkpt lat="45.29436" lon="6.10812">
        <ele>1868</ele>
        <time>2024-06-06T02:44:26+00:00</time>
      </trkpt>
      <trkpt lat="45.29446" lon="6.10823">
        <ele>1867</ele>
        <time>2024-06-06T02:44:29+00:00</time>
      </trkpt>
      <trkpt lat="45.29459" lon="6.10844">
        <ele>1863</ele>
        <time>2024-06-06T02:44:32+00:00</time>
      </trkpt>
      <trkpt lat="45.29464" lon="6.10853">
        <ele>1867</ele>
        <time>2024-06-06T02:44:35+00:00</time>
      </trkpt>
      <trkpt lat="45.29477" lon="6.10859">
        <ele>1860</ele>
        <time>2024-06-06T02:44:38+00:00</time>
      </trkpt>
      <trkpt lat="45.2948" lon="6.10865">
        <ele>1858</ele>
        <time>2024-06-06T02:44:41+00:00</time>
      </trkpt>
      <trkpt lat="45.29484" lon="6.1087">
        <ele>1862</ele>
        <time>2024-06-06T02:44:44+00:00</time>
      </trkpt>
      <trkpt lat="45.29488" lon="6.10874">
        <ele>1862</ele>
        <time>2024-06-06T02:44:47+00:00</time>
      </trkpt>
      <trkpt lat="45.2949" lon="6.10875">
        <ele>1862</ele>
        <time>2024-06-06T02:44:50+00:00</time>
      </trkpt>
      <trkpt lat="45.2949" lon="6.10875">
        <ele>1862</ele>
        <time>2024-06-06T02:44:53+00:00</time>
      </trkpt>
      <trkpt lat="45.29508" lon="6.10877">
        <ele>1852</ele>
        <time>2024-06-06T02:44:56+00:00</time>
      </trkpt>
      <trkpt lat="45.29531" lon="6.1088">
        <ele>1852</ele>
        <time>2024-06-06T02:44:59+00:00</time>
      </trkpt>
      <trkpt lat="45.29564" lon="6.1087">
        <ele>1848</ele>
        <time>2024-06-06T02:45:02+00:00</time>
      </trkpt>
      <trkpt lat="45.29596" lon="6.1086">
        <ele>1846</ele>
        <time>2024-06-06T02:45:05+00:00</time>
      </trkpt>
      <trkpt lat="45.29639" lon="6.10847">
        <ele>1852</ele>
        <time>2024-06-06T02:45:08+00:00</time>
      </trkpt>
      <trkpt lat="45.29668" lon="6.10855">
        <ele>1858</ele>
        <time>2024-06-06T02:45:11+00:00</time>
      </trkpt>
      <trkpt lat="45.29696" lon="6.10842">
        <ele>1859</ele>
        <time>2024-06-06T02:45:14+00:00</time>
      </trkpt>
      <trkpt lat="45.29728" lon="6.10857">
        <ele>1860</ele>
        <time>2024-06-06T02:45:17+00:00</time>
      </trkpt>
      <trkpt lat="45.29728" lon="6.10857">
        <ele>1860</ele>
        <time>2024-06-06T02:45:20+00:00</time>
      </trkpt>
      <trkpt lat="45.29735" lon="6.10853">
        <ele>1857</ele>
        <time>2024-06-06T02:45:23+00:00</time>
      </trkpt>
      <trkpt lat="45.29745" lon="6.10852">
        <ele>1857</ele>
        <time>2024-06-06T02:45:26+00:00</time>
      </trkpt>
      <trkpt lat="45.29756" lon="6.10851">
        <ele>1860</ele>
        <time>2024-06-06T02:45:29+00:00</time>
      </trkpt>
      <trkpt lat="45.29763" lon="6.1085">
        <ele>1861</ele>
        <time>2024-06-06T02:45:32+00:00</time>
      </trkpt>
      <trkpt lat="45.2977" lon="6.10851">
        <ele>1861</ele>
        <time>2024-06-06T02:45:35+00:00</time>
      </trkpt>
      <trkpt lat="45.29777" lon="6.1085">
        <ele>1860</ele>
        <time>2024-06-06T02:45:38+00:00</time>
      </trkpt>
      <trkpt lat="45.29786" lon="6.1085">
        <ele>1858</ele>
        <time>2024-06-06T02:45:41+00:00</time>
      </trkpt>
      <trkpt lat="45.29792" lon="6.10849">
        <ele>1857</ele>
        <time>2024-06-06T02:45:44+00:00</time>
      </trkpt>
      <trkpt lat="45.29795" lon="6.10846">
        <ele>1857</ele>
        <time>2024-06-06T02:45:47+00:00</time>
      </trkpt>
      <trkpt lat="45.29801" lon="6.10844">
        <ele>1860</ele>
        <time>2024-06-06T02:45:50+00:00</time>
      </trkpt>
      <trkpt lat="45.29808" lon="6.10842">
        <ele>1860</ele>
        <time>2024-06-06T02:45:53+00:00</time>
      </trkpt>
      <trkpt lat="45.2981" lon="6.1084">
        <ele>1854</ele>
        <time>2024-06-06T02:45:56+00:00</time>
      </trkpt>
      <trkpt lat="45.29814" lon="6.10837">
        <ele>1859</ele>
        <time>2024-06-06T02:45:59+00:00</time>
      </trkpt>
      <trkpt lat="45.2982" lon="6.10837">
        <ele>1864</ele>
        <time>2024-06-06T02:46:02+00:00</time>
      </trkpt>
      <trkpt lat="45.29827" lon="6.10838">
        <ele>1861</ele>
        <time>2024-06-06T02:46:05+00:00</time>
      </trkpt>
      <trkpt lat="45.29833" lon="6.10839">
        <ele>1861</ele>
        <time>2024-06-06T02:46:08+00:00</time>
      </trkpt>
      <trkpt lat="45.29837" lon="6.10842">
        <ele>1868</ele>
        <time>2024-06-06T02:46:11+00:00</time>
      </trkpt>
      <trkpt lat="45.29839" lon="6.10843">
        <ele>1863</ele>
        <time>2024-06-06T02:46:14+00:00</time>
      </trkpt>
      <trkpt lat="45.2984" lon="6.10845">
        <ele>1866</ele>
        <time>2024-06-06T02:46:17+00:00</time>
      </trkpt>
      <trkpt lat="45.29843" lon="6.10848">
        <ele>1866</ele>
        <time>2024-06-06T02:46:20+00:00</time>
      </trkpt>
      <trkpt lat="45.29845" lon="6.10849">
        <ele>1866</ele>
        <time>2024-06-06T02:46:23+00:00</time>
      </trkpt>
      <trkpt lat="45.29852" lon="6.10847">
        <ele>1864</ele>
        <time>2024-06-06T02:46:26+00:00</time>
      </trkpt>
      <trkpt lat="45.29864" lon="6.10847">
        <ele>1863</ele>
        <time>2024-06-06T02:46:29+00:00</time>
      </trkpt>
      <trkpt lat="45.29873" lon="6.10845">
        <ele>1863</ele>
        <time>2024-06-06T02:46:32+00:00</time>
      </trkpt>
      <trkpt lat="45.29884" lon="6.10842">
        <ele>1860</ele>
        <time>2024-06-06T02:46:35+00:00</time>
      </trkpt>
      <trkpt lat="45.29894" lon="6.10838">
        <ele>1858</ele>
        <time>2024-06-06T02:46:38+00:00</time>
      </trkpt>
      <trkpt lat="45.299" lon="6.10835">
        <ele>1861</ele>
        <time>2024-06-06T02:46:41+00:00</time>
      </trkpt>
      <trkpt lat="45.29907" lon="6.1083">
        <ele>1857</ele>
        <time>2024-06-06T02:46:44+00:00</time>
      </trkpt>
      <trkpt lat="45.29912" lon="6.10824">
        <ele>1859</ele>
        <time>2024-06-06T02:46:47+00:00</time>
      </trkpt>
      <trkpt lat="45.29916" lon="6.1082">
        <ele>1855</ele>
        <time>2024-06-06T02:46:50+00:00</time>
      </trkpt>
      <trkpt lat="45.29921" lon="6.10814">
        <ele>1858</ele>
        <time>2024-06-06T02:46:53+00:00</time>
      </trkpt>
      <trkpt lat="45.2993" lon="6.10809">
        <ele>1859</ele>
        <time>2024-06-06T02:46:56+00:00</time>
      </trkpt>
      <trkpt lat="45.29939" lon="6.10806">
        <ele>1856</ele>
        <time>2024-06-06T02:46:59+00:00</time>
      </trkpt>
      <trkpt lat="45.29948" lon="6.10804">
        <ele>1858</ele>
        <time>2024-06-06T02:47:02+00:00</time>
      </trkpt>
      <trkpt lat="45.2996" lon="6.10801">
        <ele>1861</ele>
        <time>2024-06-06T02:47:05+00:00</time>
      </trkpt>
      <trkpt lat="45.29973" lon="6.10797">
        <ele>1858</ele>
        <time>2024-06-06T02:47:08+00:00</time>
      </trkpt>
      <trkpt lat="45.30001" lon="6.10799">
        <ele>1861</ele>
        <time>2024-06-06T02:47:11+00:00</time>
      </trkpt>
      <trkpt lat="45.30011" lon="6.10802">
        <ele>1865</ele>
        <time>2024-06-06T02:47:14+00:00</time>
      </trkpt>
      <trkpt lat="45.30018" lon="6.10804">
        <ele>1865</ele>
        <time>2024-06-06T02:47:17+00:00</time>
      </trkpt>
      <trkpt lat="45.30022" lon="6.10805">
        <ele>1867</ele>
        <time>2024-06-06T02:47:20+00:00</time>
      </trkpt>
      <trkpt lat="45.3003" lon="6.10805">
        <ele>1867</ele>
        <time>2024-06-06T02:47:23+00:00</time>
      </trkpt>
      <trkpt lat="45.30033" lon="6.10805">
        <ele>1869</ele>
        <time>2024-06-06T02:47:26+00:00</time>
      </trkpt>
      <trkpt lat="45.30037" lon="6.10806">
        <ele>1869</ele>
        <time>2024-06-06T02:47:29+00:00</time>
      </trkpt>
      <trkpt lat="45.30038" lon="6.10809">
        <ele>1869</ele>
        <time>2024-06-06T02:47:32+00:00</time>
      </trkpt>
      <trkpt lat="45.30038" lon="6.10813">
        <ele>1872</ele>
        <time>2024-06-06T02:47:35+00:00</time>
      </trkpt>
      <trkpt lat="45.30039" lon="6.10815">
        <ele>1872</ele>
        <time>2024-06-06T02:47:38+00:00</time>
      </trkpt>
      <trkpt lat="45.30042" lon="6.10816">
        <ele>1874</ele>
        <time>2024-06-06T02:47:41+00:00</time>
      </trkpt>
      <trkpt lat="45.3005" lon="6.10815">
        <ele>1877</ele>
        <time>2024-06-06T02:47:44+00:00</time>
      </trkpt>
      <trkpt lat="45.30058" lon="6.10816">
        <ele>1877</ele>
        <time>2024-06-06T02:47:47+00:00</time>
      </trkpt>
      <trkpt lat="45.30062" lon="6.10815">
        <ele>1878</ele>
        <time>2024-06-06T02:47:50+00:00</time>
      </trkpt>
      <trkpt lat="45.30071" lon="6.10812">
        <ele>1879</ele>
        <time>2024-06-06T02:47:53+00:00</time>
      </trkpt>
      <trkpt lat="45.30074" lon="6.1081">
        <ele>1879</ele>
        <time>2024-06-06T02:47:56+00:00</time>
      </trkpt>
      <trkpt lat="45.30079" lon="6.10809">
        <ele>1877</ele>
        <time>2024-06-06T02:47:59+00:00</time>
      </trkpt>
      <trkpt lat="45.30086" lon="6.10809">
        <ele>1879</ele>
        <time>2024-06-06T02:48:02+00:00</time>
      </trkpt>
      <trkpt lat="45.30095" lon="6.1081">
        <ele>1882</ele>
        <time>2024-06-06T02:48:05+00:00</time>
      </trkpt>
      <trkpt lat="45.30102" lon="6.10811">
        <ele>1884</ele>
        <time>2024-06-06T02:48:08+00:00</time>
      </trkpt>
      <trkpt lat="45.30105" lon="6.10813">
        <ele>1884</ele>
        <time>2024-06-06T02:48:11+00:00</time>
      </trkpt>
      <trkpt lat="45.30111" lon="6.10817">
        <ele>1888</ele>
        <time>2024-06-06T02:48:14+00:00</time>
      </trkpt>
      <trkpt lat="45.30118" lon="6.1082">
        <ele>1888</ele>
        <time>2024-06-06T02:48:17+00:00</time>
      </trkpt>
      <trkpt lat="45.30125" lon="6.10821">
        <ele>1893</ele>
        <time>2024-06-06T02:48:20+00:00</time>
      </trkpt>
      <trkpt lat="45.3013" lon="6.10821">
        <ele>1895</ele>
        <time>2024-06-06T02:48:23+00:00</time>
      </trkpt>
      <trkpt lat="45.30135" lon="6.1082">
        <ele>1893</ele>
        <time>2024-06-06T02:48:26+00:00</time>
      </trkpt>
      <trkpt lat="45.30138" lon="6.1082">
        <ele>1893</ele>
        <time>2024-06-06T02:48:29+00:00</time>
      </trkpt>
      <trkpt lat="45.30139" lon="6.10819">
        <ele>1893</ele>
        <time>2024-06-06T02:48:32+00:00</time>
      </trkpt>
      <trkpt lat="45.30144" lon="6.10817">
        <ele>1894</ele>
        <time>2024-06-06T02:48:35+00:00</time>
      </trkpt>
      <trkpt lat="45.3015" lon="6.10816">
        <ele>1895</ele>
        <time>2024-06-06T02:48:38+00:00</time>
      </trkpt>
      <trkpt lat="45.30157" lon="6.10816">
        <ele>1895</ele>
        <time>2024-06-06T02:48:41+00:00</time>
      </trkpt>
      <trkpt lat="45.30165" lon="6.10815">
        <ele>1893</ele>
        <time>2024-06-06T02:48:44+00:00</time>
      </trkpt>
      <trkpt lat="45.3017" lon="6.10813">
        <ele>1896</ele>
        <time>2024-06-06T02:48:47+00:00</time>
      </trkpt>
      <trkpt lat="45.30174" lon="6.10808">
        <ele>1894</ele>
        <time>2024-06-06T02:48:50+00:00</time>
      </trkpt>
      <trkpt lat="45.30181" lon="6.10802">
        <ele>1897</ele>
        <time>2024-06-06T02:48:53+00:00</time>
      </trkpt>
      <trkpt lat="45.30185" lon="6.10797">
        <ele>1893</ele>
        <time>2024-06-06T02:48:56+00:00</time>
      </trkpt>
      <trkpt lat="45.30189" lon="6.10792">
        <ele>1893</ele>
        <time>2024-06-06T02:48:59+00:00</time>
      </trkpt>
      <trkpt lat="45.30196" lon="6.10783">
        <ele>1894</ele>
        <time>2024-06-06T02:49:02+00:00</time>
      </trkpt>
      <trkpt lat="45.30201" lon="6.10776">
        <ele>1895</ele>
        <time>2024-06-06T02:49:05+00:00</time>
      </trkpt>
      <trkpt lat="45.30207" lon="6.10767">
        <ele>1893</ele>
        <time>2024-06-06T02:49:08+00:00</time>
      </trkpt>
      <trkpt lat="45.30209" lon="6.10764">
        <ele>1893</ele>
        <time>2024-06-06T02:49:11+00:00</time>
      </trkpt>
      <trkpt lat="45.30222" lon="6.10758">
        <ele>1897</ele>
        <time>2024-06-06T02:49:14+00:00</time>
      </trkpt>
      <trkpt lat="45.30229" lon="6.10757">
        <ele>1897</ele>
        <time>2024-06-06T02:49:17+00:00</time>
      </trkpt>
      <trkpt lat="45.30253" lon="6.10761">
        <ele>1903</ele>
        <time>2024-06-06T02:49:20+00:00</time>
      </trkpt>
      <trkpt lat="45.30286" lon="6.10773">
        <ele>1907</ele>
        <time>2024-06-06T02:49:23+00:00</time>
      </trkpt>
      <trkpt lat="45.30308" lon="6.10791">
        <ele>1910</ele>
        <time>2024-06-06T02:49:26+00:00</time>
      </trkpt>
      <trkpt lat="45.30332" lon="6.1081">
        <ele>1914</ele>
        <time>2024-06-06T02:49:29+00:00</time>
      </trkpt>
      <trkpt lat="45.30354" lon="6.10823">
        <ele>1915</ele>
        <time>2024-06-06T02:49:32+00:00</time>
      </trkpt>
      <trkpt lat="45.30378" lon="6.10836">
        <ele>1915</ele>
        <time>2024-06-06T02:49:35+00:00</time>
      </trkpt>
      <trkpt lat="45.30386" lon="6.10864">
        <ele>1917</ele>
        <time>2024-06-06T02:49:38+00:00</time>
      </trkpt>
      <trkpt lat="45.30387" lon="6.10876">
        <ele>1919</ele>
        <time>2024-06-06T02:49:41+00:00</time>
      </trkpt>
      <trkpt lat="45.30388" lon="6.10896">
        <ele>1922</ele>
        <time>2024-06-06T02:49:44+00:00</time>
      </trkpt>
      <trkpt lat="45.30393" lon="6.10903">
        <ele>1927</ele>
        <time>2024-06-06T02:49:47+00:00</time>
      </trkpt>
      <trkpt lat="45.30397" lon="6.10909">
        <ele>1927</ele>
        <time>2024-06-06T02:49:50+00:00</time>
      </trkpt>
      <trkpt lat="45.30401" lon="6.10918">
        <ele>1930</ele>
        <time>2024-06-06T02:49:53+00:00</time>
      </trkpt>
      <trkpt lat="45.30409" lon="6.10932">
        <ele>1930</ele>
        <time>2024-06-06T02:49:56+00:00</time>
      </trkpt>
      <trkpt lat="45.30411" lon="6.10937">
        <ele>1933</ele>
        <time>2024-06-06T02:49:59+00:00</time>
      </trkpt>
      <trkpt lat="45.30417" lon="6.10934">
        <ele>1933</ele>
        <time>2024-06-06T02:50:02+00:00</time>
      </trkpt>
      <trkpt lat="45.30416" lon="6.10924">
        <ele>1934</ele>
        <time>2024-06-06T02:50:05+00:00</time>
      </trkpt>
      <trkpt lat="45.3042" lon="6.10916">
        <ele>1935</ele>
        <time>2024-06-06T02:50:08+00:00</time>
      </trkpt>
      <trkpt lat="45.30422" lon="6.10911">
        <ele>1938</ele>
        <time>2024-06-06T02:50:11+00:00</time>
      </trkpt>
      <trkpt lat="45.30424" lon="6.10906">
        <ele>1939</ele>
        <time>2024-06-06T02:50:14+00:00</time>
      </trkpt>
      <trkpt lat="45.30431" lon="6.10904">
        <ele>1942</ele>
        <time>2024-06-06T02:50:17+00:00</time>
      </trkpt>
      <trkpt lat="45.30436" lon="6.10884">
        <ele>1944</ele>
        <time>2024-06-06T02:50:20+00:00</time>
      </trkpt>
      <trkpt lat="45.30439" lon="6.10884">
        <ele>1944</ele>
        <time>2024-06-06T02:50:23+00:00</time>
      </trkpt>
      <trkpt lat="45.30441" lon="6.10879">
        <ele>1950</ele>
        <time>2024-06-06T02:50:26+00:00</time>
      </trkpt>
      <trkpt lat="45.30445" lon="6.10875">
        <ele>1950</ele>
        <time>2024-06-06T02:50:29+00:00</time>
      </trkpt>
      <trkpt lat="45.30448" lon="6.10872">
        <ele>1950</ele>
        <time>2024-06-06T02:50:32+00:00</time>
      </trkpt>
      <trkpt lat="45.30451" lon="6.10873">
        <ele>1955</ele>
        <time>2024-06-06T02:50:35+00:00</time>
      </trkpt>
      <trkpt lat="45.30453" lon="6.10869">
        <ele>1955</ele>
        <time>2024-06-06T02:50:38+00:00</time>
      </trkpt>
      <trkpt lat="45.30456" lon="6.10869">
        <ele>1955</ele>
        <time>2024-06-06T02:50:41+00:00</time>
      </trkpt>
      <trkpt lat="45.30458" lon="6.10864">
        <ele>1955</ele>
        <time>2024-06-06T02:50:44+00:00</time>
      </trkpt>
      <trkpt lat="45.3046" lon="6.1086">
        <ele>1954</ele>
        <time>2024-06-06T02:50:47+00:00</time>
      </trkpt>
      <trkpt lat="45.30462" lon="6.10863">
        <ele>1960</ele>
        <time>2024-06-06T02:50:50+00:00</time>
      </trkpt>
      <trkpt lat="45.30464" lon="6.10861">
        <ele>1960</ele>
        <time>2024-06-06T02:50:53+00:00</time>
      </trkpt>
      <trkpt lat="45.30466" lon="6.10859">
        <ele>1960</ele>
        <time>2024-06-06T02:50:56+00:00</time>
      </trkpt>
      <trkpt lat="45.30469" lon="6.10862">
        <ele>1960</ele>
        <time>2024-06-06T02:50:59+00:00</time>
      </trkpt>
      <trkpt lat="45.30474" lon="6.1087">
        <ele>1967</ele>
        <time>2024-06-06T02:51:02+00:00</time>
      </trkpt>
      <trkpt lat="45.30477" lon="6.10869">
        <ele>1968</ele>
        <time>2024-06-06T02:51:05+00:00</time>
      </trkpt>
      <trkpt lat="45.3048" lon="6.10865">
        <ele>1968</ele>
        <time>2024-06-06T02:51:08+00:00</time>
      </trkpt>
      <trkpt lat="45.30482" lon="6.10863">
        <ele>1973</ele>
        <time>2024-06-06T02:51:11+00:00</time>
      </trkpt>
      <trkpt lat="45.30486" lon="6.10863">
        <ele>1973</ele>
        <time>2024-06-06T02:51:14+00:00</time>
      </trkpt>
      <trkpt lat="45.30499" lon="6.10868">
        <ele>1978</ele>
        <time>2024-06-06T02:51:17+00:00</time>
      </trkpt>
      <trkpt lat="45.30502" lon="6.10869">
        <ele>1985</ele>
        <time>2024-06-06T02:51:20+00:00</time>
      </trkpt>
      <trkpt lat="45.30504" lon="6.10869">
        <ele>1985</ele>
        <time>2024-06-06T02:51:23+00:00</time>
      </trkpt>
      <trkpt lat="45.30504" lon="6.10865">
        <ele>1985</ele>
        <time>2024-06-06T02:51:26+00:00</time>
      </trkpt>
      <trkpt lat="45.30504" lon="6.1086">
        <ele>1986</ele>
        <time>2024-06-06T02:51:29+00:00</time>
      </trkpt>
      <trkpt lat="45.30506" lon="6.10858">
        <ele>1986</ele>
        <time>2024-06-06T02:51:32+00:00</time>
      </trkpt>
      <trkpt lat="45.30509" lon="6.10861">
        <ele>1985</ele>
        <time>2024-06-06T02:51:35+00:00</time>
      </trkpt>
      <trkpt lat="45.30511" lon="6.10863">
        <ele>1989</ele>
        <time>2024-06-06T02:51:38+00:00</time>
      </trkpt>
      <trkpt lat="45.30515" lon="6.10864">
        <ele>1989</ele>
        <time>2024-06-06T02:51:41+00:00</time>
      </trkpt>
      <trkpt lat="45.30518" lon="6.10864">
        <ele>1989</ele>
        <time>2024-06-06T02:51:44+00:00</time>
      </trkpt>
      <trkpt lat="45.3052" lon="6.10869">
        <ele>1989</ele>
        <time>2024-06-06T02:51:47+00:00</time>
      </trkpt>
      <trkpt lat="45.30523" lon="6.10872">
        <ele>1990</ele>
        <time>2024-06-06T02:51:50+00:00</time>
      </trkpt>
      <trkpt lat="45.30527" lon="6.10877">
        <ele>1990</ele>
        <time>2024-06-06T02:51:53+00:00</time>
      </trkpt>
      <trkpt lat="45.30527" lon="6.10887">
        <ele>1990</ele>
        <time>2024-06-06T02:51:56+00:00</time>
      </trkpt>
      <trkpt lat="45.30528" lon="6.10894">
        <ele>1990</ele>
        <time>2024-06-06T02:51:59+00:00</time>
      </trkpt>
      <trkpt lat="45.30529" lon="6.109">
        <ele>1990</ele>
        <time>2024-06-06T02:52:02+00:00</time>
      </trkpt>
      <trkpt lat="45.3053" lon="6.10902">
        <ele>1992</ele>
        <time>2024-06-06T02:52:05+00:00</time>
      </trkpt>
      <trkpt lat="45.30533" lon="6.10905">
        <ele>1992</ele>
        <time>2024-06-06T02:52:08+00:00</time>
      </trkpt>
      <trkpt lat="45.30538" lon="6.10916">
        <ele>1993</ele>
        <time>2024-06-06T02:52:11+00:00</time>
      </trkpt>
      <trkpt lat="45.30547" lon="6.10924">
        <ele>1996</ele>
        <time>2024-06-06T02:52:14+00:00</time>
      </trkpt>
      <trkpt lat="45.30551" lon="6.10927">
        <ele>1994</ele>
        <time>2024-06-06T02:52:17+00:00</time>
      </trkpt>
      <trkpt lat="45.30555" lon="6.10931">
        <ele>1999</ele>
        <time>2024-06-06T02:52:20+00:00</time>
      </trkpt>
      <trkpt lat="45.3056" lon="6.10938">
        <ele>1999</ele>
        <time>2024-06-06T02:52:23+00:00</time>
      </trkpt>
      <trkpt lat="45.30563" lon="6.10944">
        <ele>1991</ele>
        <time>2024-06-06T02:52:26+00:00</time>
      </trkpt>
      <trkpt lat="45.30568" lon="6.10947">
        <ele>1998</ele>
        <time>2024-06-06T02:52:29+00:00</time>
      </trkpt>
      <trkpt lat="45.30573" lon="6.10949">
        <ele>1989</ele>
        <time>2024-06-06T02:52:32+00:00</time>
      </trkpt>
      <trkpt lat="45.30578" lon="6.10953">
        <ele>1992</ele>
        <time>2024-06-06T02:52:35+00:00</time>
      </trkpt>
      <trkpt lat="45.30581" lon="6.10956">
        <ele>1991</ele>
        <time>2024-06-06T02:52:38+00:00</time>
      </trkpt>
      <trkpt lat="45.30584" lon="6.10961">
        <ele>1990</ele>
        <time>2024-06-06T02:52:41+00:00</time>
      </trkpt>
      <trkpt lat="45.3059" lon="6.10965">
        <ele>1990</ele>
        <time>2024-06-06T02:52:44+00:00</time>
      </trkpt>
      <trkpt lat="45.3059" lon="6.10965">
        <ele>1990</ele>
        <time>2024-06-06T02:52:47+00:00</time>
      </trkpt>
      <trkpt lat="45.3059" lon="6.10965">
        <ele>1990</ele>
        <time>2024-06-06T02:52:50+00:00</time>
      </trkpt>
      <trkpt lat="45.30594" lon="6.10972">
        <ele>1989</ele>
        <time>2024-06-06T02:52:53+00:00</time>
      </trkpt>
      <trkpt lat="45.30594" lon="6.10981">
        <ele>1989</ele>
        <time>2024-06-06T02:52:56+00:00</time>
      </trkpt>
      <trkpt lat="45.30596" lon="6.10987">
        <ele>1992</ele>
        <time>2024-06-06T02:52:59+00:00</time>
      </trkpt>
      <trkpt lat="45.30597" lon="6.1099">
        <ele>1995</ele>
        <time>2024-06-06T02:53:02+00:00</time>
      </trkpt>
      <trkpt lat="45.30601" lon="6.10996">
        <ele>1980</ele>
        <time>2024-06-06T02:53:05+00:00</time>
      </trkpt>
      <trkpt lat="45.30604" lon="6.11004">
        <ele>1984</ele>
        <time>2024-06-06T02:53:08+00:00</time>
      </trkpt>
      <trkpt lat="45.3061" lon="6.1101">
        <ele>1987</ele>
        <time>2024-06-06T02:53:11+00:00</time>
      </trkpt>
      <trkpt lat="45.30616" lon="6.11015">
        <ele>1977</ele>
        <time>2024-06-06T02:53:14+00:00</time>
      </trkpt>
      <trkpt lat="45.30621" lon="6.11016">
        <ele>1970</ele>
        <time>2024-06-06T02:53:17+00:00</time>
      </trkpt>
      <trkpt lat="45.30629" lon="6.11017">
        <ele>1970</ele>
        <time>2024-06-06T02:53:20+00:00</time>
      </trkpt>
      <trkpt lat="45.30635" lon="6.1102">
        <ele>1968</ele>
        <time>2024-06-06T02:53:23+00:00</time>
      </trkpt>
      <trkpt lat="45.30641" lon="6.11028">
        <ele>1966</ele>
        <time>2024-06-06T02:53:26+00:00</time>
      </trkpt>
      <trkpt lat="45.30646" lon="6.11035">
        <ele>1970</ele>
        <time>2024-06-06T02:53:29+00:00</time>
      </trkpt>
      <trkpt lat="45.3065" lon="6.11037">
        <ele>1969</ele>
        <time>2024-06-06T02:53:32+00:00</time>
      </trkpt>
      <trkpt lat="45.30652" lon="6.11041">
        <ele>1971</ele>
        <time>2024-06-06T02:53:35+00:00</time>
      </trkpt>
      <trkpt lat="45.30656" lon="6.11041">
        <ele>1971</ele>
        <time>2024-06-06T02:53:38+00:00</time>
      </trkpt>
      <trkpt lat="45.30663" lon="6.11038">
        <ele>1970</ele>
        <time>2024-06-06T02:53:41+00:00</time>
      </trkpt>
      <trkpt lat="45.30671" lon="6.11034">
        <ele>1971</ele>
        <time>2024-06-06T02:53:44+00:00</time>
      </trkpt>
      <trkpt lat="45.30679" lon="6.11032">
        <ele>1971</ele>
        <time>2024-06-06T02:53:47+00:00</time>
      </trkpt>
      <trkpt lat="45.30684" lon="6.11031">
        <ele>1966</ele>
        <time>2024-06-06T02:53:50+00:00</time>
      </trkpt>
      <trkpt lat="45.30691" lon="6.11031">
        <ele>1969</ele>
        <time>2024-06-06T02:53:53+00:00</time>
      </trkpt>
      <trkpt lat="45.30698" lon="6.11033">
        <ele>1969</ele>
        <time>2024-06-06T02:53:56+00:00</time>
      </trkpt>
      <trkpt lat="45.30707" lon="6.11025">
        <ele>1963</ele>
        <time>2024-06-06T02:53:59+00:00</time>
      </trkpt>
      <trkpt lat="45.30715" lon="6.11022">
        <ele>1961</ele>
        <time>2024-06-06T02:54:02+00:00</time>
      </trkpt>
      <trkpt lat="45.30724" lon="6.11023">
        <ele>1956</ele>
        <time>2024-06-06T02:54:05+00:00</time>
      </trkpt>
      <trkpt lat="45.30731" lon="6.11028">
        <ele>1953</ele>
        <time>2024-06-06T02:54:08+00:00</time>
      </trkpt>
      <trkpt lat="45.30737" lon="6.11032">
        <ele>1955</ele>
        <time>2024-06-06T02:54:11+00:00</time>
      </trkpt>
      <trkpt lat="45.3074" lon="6.11036">
        <ele>1952</ele>
        <time>2024-06-06T02:54:14+00:00</time>
      </trkpt>
      <trkpt lat="45.30745" lon="6.11036">
        <ele>1952</ele>
        <time>2024-06-06T02:54:17+00:00</time>
      </trkpt>
      <trkpt lat="45.30749" lon="6.11033">
        <ele>1952</ele>
        <time>2024-06-06T02:54:20+00:00</time>
      </trkpt>
      <trkpt lat="45.30751" lon="6.11027">
        <ele>1946</ele>
        <time>2024-06-06T02:54:23+00:00</time>
      </trkpt>
      <trkpt lat="45.30755" lon="6.11023">
        <ele>1946</ele>
        <time>2024-06-06T02:54:26+00:00</time>
      </trkpt>
      <trkpt lat="45.3076" lon="6.11018">
        <ele>1946</ele>
        <time>2024-06-06T02:54:29+00:00</time>
      </trkpt>
      <trkpt lat="45.30765" lon="6.11016">
        <ele>1950</ele>
        <time>2024-06-06T02:54:32+00:00</time>
      </trkpt>
      <trkpt lat="45.3077" lon="6.11017">
        <ele>1946</ele>
        <time>2024-06-06T02:54:35+00:00</time>
      </trkpt>
      <trkpt lat="45.30777" lon="6.11019">
        <ele>1947</ele>
        <time>2024-06-06T02:54:38+00:00</time>
      </trkpt>
      <trkpt lat="45.30784" lon="6.11024">
        <ele>1949</ele>
        <time>2024-06-06T02:54:41+00:00</time>
      </trkpt>
      <trkpt lat="45.3079" lon="6.11028">
        <ele>1947</ele>
        <time>2024-06-06T02:54:44+00:00</time>
      </trkpt>
      <trkpt lat="45.30799" lon="6.11027">
        <ele>1947</ele>
        <time>2024-06-06T02:54:47+00:00</time>
      </trkpt>
      <trkpt lat="45.30805" lon="6.11021">
        <ele>1946</ele>
        <time>2024-06-06T02:54:50+00:00</time>
      </trkpt>
      <trkpt lat="45.30816" lon="6.11017">
        <ele>1940</ele>
        <time>2024-06-06T02:54:53+00:00</time>
      </trkpt>
      <trkpt lat="45.3082" lon="6.11019">
        <ele>1940</ele>
        <time>2024-06-06T02:54:56+00:00</time>
      </trkpt>
      <trkpt lat="45.30823" lon="6.11017">
        <ele>1940</ele>
        <time>2024-06-06T02:54:59+00:00</time>
      </trkpt>
      <trkpt lat="45.30826" lon="6.11014">
        <ele>1940</ele>
        <time>2024-06-06T02:55:02+00:00</time>
      </trkpt>
      <trkpt lat="45.3083" lon="6.11011">
        <ele>1940</ele>
        <time>2024-06-06T02:55:05+00:00</time>
      </trkpt>
      <trkpt lat="45.30835" lon="6.1101">
        <ele>1940</ele>
        <time>2024-06-06T02:55:08+00:00</time>
      </trkpt>
      <trkpt lat="45.3084" lon="6.11009">
        <ele>1934</ele>
        <time>2024-06-06T02:55:11+00:00</time>
      </trkpt>
      <trkpt lat="45.30844" lon="6.11002">
        <ele>1935</ele>
        <time>2024-06-06T02:55:14+00:00</time>
      </trkpt>
      <trkpt lat="45.30851" lon="6.10994">
        <ele>1928</ele>
        <time>2024-06-06T02:55:17+00:00</time>
      </trkpt>
      <trkpt lat="45.30858" lon="6.1099">
        <ele>1928</ele>
        <time>2024-06-06T02:55:20+00:00</time>
      </trkpt>
      <trkpt lat="45.30858" lon="6.1099">
        <ele>1923</ele>
        <time>2024-06-06T02:55:23+00:00</time>
      </trkpt>
      <trkpt lat="45.30866" lon="6.10987">
        <ele>1922</ele>
        <time>2024-06-06T02:55:26+00:00</time>
      </trkpt>
      <trkpt lat="45.30876" lon="6.10981">
        <ele>1919</ele>
        <time>2024-06-06T02:55:29+00:00</time>
      </trkpt>
      <trkpt lat="45.30884" lon="6.10978">
        <ele>1912</ele>
        <time>2024-06-06T02:55:32+00:00</time>
      </trkpt>
      <trkpt lat="45.30891" lon="6.10974">
        <ele>1910</ele>
        <time>2024-06-06T02:55:35+00:00</time>
      </trkpt>
      <trkpt lat="45.30898" lon="6.10969">
        <ele>1903</ele>
        <time>2024-06-06T02:55:38+00:00</time>
      </trkpt>
      <trkpt lat="45.30901" lon="6.10966">
        <ele>1901</ele>
        <time>2024-06-06T02:55:41+00:00</time>
      </trkpt>
      <trkpt lat="45.30899" lon="6.10959">
        <ele>1899</ele>
        <time>2024-06-06T02:55:44+00:00</time>
      </trkpt>
      <trkpt lat="45.30894" lon="6.10947">
        <ele>1895</ele>
        <time>2024-06-06T02:55:47+00:00</time>
      </trkpt>
      <trkpt lat="45.30904" lon="6.10942">
        <ele>1892</ele>
        <time>2024-06-06T02:55:50+00:00</time>
      </trkpt>
      <trkpt lat="45.30904" lon="6.10937">
        <ele>1888</ele>
        <time>2024-06-06T02:55:53+00:00</time>
      </trkpt>
      <trkpt lat="45.30906" lon="6.10934">
        <ele>1888</ele>
        <time>2024-06-06T02:55:56+00:00</time>
      </trkpt>
      <trkpt lat="45.3091" lon="6.10928">
        <ele>1881</ele>
        <time>2024-06-06T02:55:59+00:00</time>
      </trkpt>
      <trkpt lat="45.30917" lon="6.10921">
        <ele>1881</ele>
        <time>2024-06-06T02:56:02+00:00</time>
      </trkpt>
      <trkpt lat="45.30927" lon="6.10912">
        <ele>1876</ele>
        <time>2024-06-06T02:56:05+00:00</time>
      </trkpt>
      <trkpt lat="45.30937" lon="6.10901">
        <ele>1873</ele>
        <time>2024-06-06T02:56:08+00:00</time>
      </trkpt>
      <trkpt lat="45.30948" lon="6.10887">
        <ele>1863</ele>
        <time>2024-06-06T02:56:11+00:00</time>
      </trkpt>
      <trkpt lat="45.30958" lon="6.10876">
        <ele>1859</ele>
        <time>2024-06-06T02:56:14+00:00</time>
      </trkpt>
      <trkpt lat="45.30966" lon="6.10864">
        <ele>1855</ele>
        <time>2024-06-06T02:56:17+00:00</time>
      </trkpt>
      <trkpt lat="45.30971" lon="6.10854">
        <ele>1852</ele>
        <time>2024-06-06T02:56:20+00:00</time>
      </trkpt>
      <trkpt lat="45.30978" lon="6.10849">
        <ele>1848</ele>
        <time>2024-06-06T02:56:23+00:00</time>
      </trkpt>
      <trkpt lat="45.30985" lon="6.10844">
        <ele>1849</ele>
        <time>2024-06-06T02:56:26+00:00</time>
      </trkpt>
      <trkpt lat="45.30993" lon="6.10844">
        <ele>1849</ele>
        <time>2024-06-06T02:56:29+00:00</time>
      </trkpt>
      <trkpt lat="45.31002" lon="6.10841">
        <ele>1849</ele>
        <time>2024-06-06T02:56:32+00:00</time>
      </trkpt>
      <trkpt lat="45.3101" lon="6.10831">
        <ele>1844</ele>
        <time>2024-06-06T02:56:35+00:00</time>
      </trkpt>
      <trkpt lat="45.31017" lon="6.10818">
        <ele>1838</ele>
        <time>2024-06-06T02:56:38+00:00</time>
      </trkpt>
      <trkpt lat="45.31024" lon="6.10804">
        <ele>1841</ele>
        <time>2024-06-06T02:56:41+00:00</time>
      </trkpt>
      <trkpt lat="45.31029" lon="6.10792">
        <ele>1839</ele>
        <time>2024-06-06T02:56:44+00:00</time>
      </trkpt>
      <trkpt lat="45.31033" lon="6.10784">
        <ele>1842</ele>
        <time>2024-06-06T02:56:47+00:00</time>
      </trkpt>
      <trkpt lat="45.31037" lon="6.10776">
        <ele>1839</ele>
        <time>2024-06-06T02:56:50+00:00</time>
      </trkpt>
      <trkpt lat="45.31054" lon="6.10741">
        <ele>1833</ele>
        <time>2024-06-06T02:56:53+00:00</time>
      </trkpt>
      <trkpt lat="45.31063" lon="6.10727">
        <ele>1829</ele>
        <time>2024-06-06T02:56:56+00:00</time>
      </trkpt>
      <trkpt lat="45.3107" lon="6.10716">
        <ele>1826</ele>
        <time>2024-06-06T02:56:59+00:00</time>
      </trkpt>
      <trkpt lat="45.31079" lon="6.10708">
        <ele>1824</ele>
        <time>2024-06-06T02:57:02+00:00</time>
      </trkpt>
      <trkpt lat="45.31088" lon="6.10704">
        <ele>1823</ele>
        <time>2024-06-06T02:57:05+00:00</time>
      </trkpt>
      <trkpt lat="45.31099" lon="6.10704">
        <ele>1823</ele>
        <time>2024-06-06T02:57:08+00:00</time>
      </trkpt>
      <trkpt lat="45.31109" lon="6.10706">
        <ele>1822</ele>
        <time>2024-06-06T02:57:11+00:00</time>
      </trkpt>
      <trkpt lat="45.31115" lon="6.10707">
        <ele>1820</ele>
        <time>2024-06-06T02:57:14+00:00</time>
      </trkpt>
      <trkpt lat="45.31121" lon="6.10706">
        <ele>1819</ele>
        <time>2024-06-06T02:57:17+00:00</time>
      </trkpt>
      <trkpt lat="45.31126" lon="6.107">
        <ele>1817</ele>
        <time>2024-06-06T02:57:20+00:00</time>
      </trkpt>
      <trkpt lat="45.31134" lon="6.10691">
        <ele>1817</ele>
        <time>2024-06-06T02:57:23+00:00</time>
      </trkpt>
      <trkpt lat="45.31146" lon="6.10681">
        <ele>1813</ele>
        <time>2024-06-06T02:57:26+00:00</time>
      </trkpt>
      <trkpt lat="45.31157" lon="6.1067">
        <ele>1811</ele>
        <time>2024-06-06T02:57:29+00:00</time>
      </trkpt>
      <trkpt lat="45.31169" lon="6.10658">
        <ele>1804</ele>
        <time>2024-06-06T02:57:32+00:00</time>
      </trkpt>
      <trkpt lat="45.31177" lon="6.10648">
        <ele>1803</ele>
        <time>2024-06-06T02:57:35+00:00</time>
      </trkpt>
      <trkpt lat="45.31181" lon="6.1064">
        <ele>1806</ele>
        <time>2024-06-06T02:57:38+00:00</time>
      </trkpt>
      <trkpt lat="45.31184" lon="6.10627">
        <ele>1800</ele>
        <time>2024-06-06T02:57:41+00:00</time>
      </trkpt>
      <trkpt lat="45.31185" lon="6.10615">
        <ele>1799</ele>
        <time>2024-06-06T02:57:44+00:00</time>
      </trkpt>
      <trkpt lat="45.31187" lon="6.10604">
        <ele>1797</ele>
        <time>2024-06-06T02:57:47+00:00</time>
      </trkpt>
      <trkpt lat="45.31193" lon="6.10596">
        <ele>1800</ele>
        <time>2024-06-06T02:57:50+00:00</time>
      </trkpt>
      <trkpt lat="45.312" lon="6.10589">
        <ele>1796</ele>
        <time>2024-06-06T02:57:53+00:00</time>
      </trkpt>
      <trkpt lat="45.31213" lon="6.10579">
        <ele>1800</ele>
        <time>2024-06-06T02:57:56+00:00</time>
      </trkpt>
      <trkpt lat="45.31226" lon="6.10569">
        <ele>1798</ele>
        <time>2024-06-06T02:57:59+00:00</time>
      </trkpt>
      <trkpt lat="45.31241" lon="6.10558">
        <ele>1798</ele>
        <time>2024-06-06T02:58:02+00:00</time>
      </trkpt>
      <trkpt lat="45.31253" lon="6.1055">
        <ele>1799</ele>
        <time>2024-06-06T02:58:05+00:00</time>
      </trkpt>
      <trkpt lat="45.31266" lon="6.10543">
        <ele>1796</ele>
        <time>2024-06-06T02:58:08+00:00</time>
      </trkpt>
      <trkpt lat="45.31282" lon="6.10535">
        <ele>1789</ele>
        <time>2024-06-06T02:58:11+00:00</time>
      </trkpt>
      <trkpt lat="45.31294" lon="6.10528">
        <ele>1785</ele>
        <time>2024-06-06T02:58:14+00:00</time>
      </trkpt>
      <trkpt lat="45.31304" lon="6.10522">
        <ele>1786</ele>
        <time>2024-06-06T02:58:17+00:00</time>
      </trkpt>
      <trkpt lat="45.31313" lon="6.10518">
        <ele>1783</ele>
        <time>2024-06-06T02:58:20+00:00</time>
      </trkpt>
      <trkpt lat="45.31322" lon="6.10518">
        <ele>1782</ele>
        <time>2024-06-06T02:58:23+00:00</time>
      </trkpt>
      <trkpt lat="45.31326" lon="6.10522">
        <ele>1784</ele>
        <time>2024-06-06T02:58:26+00:00</time>
      </trkpt>
      <trkpt lat="45.31331" lon="6.10528">
        <ele>1781</ele>
        <time>2024-06-06T02:58:29+00:00</time>
      </trkpt>
      <trkpt lat="45.31342" lon="6.10518">
        <ele>1777</ele>
        <time>2024-06-06T02:58:32+00:00</time>
      </trkpt>
      <trkpt lat="45.31351" lon="6.10506">
        <ele>1772</ele>
        <time>2024-06-06T02:58:35+00:00</time>
      </trkpt>
      <trkpt lat="45.31357" lon="6.10498">
        <ele>1772</ele>
        <time>2024-06-06T02:58:38+00:00</time>
      </trkpt>
      <trkpt lat="45.31362" lon="6.10491">
        <ele>1769</ele>
        <time>2024-06-06T02:58:41+00:00</time>
      </trkpt>
      <trkpt lat="45.31365" lon="6.10484">
        <ele>1768</ele>
        <time>2024-06-06T02:58:44+00:00</time>
      </trkpt>
      <trkpt lat="45.31367" lon="6.10485">
        <ele>1768</ele>
        <time>2024-06-06T02:58:47+00:00</time>
      </trkpt>
      <trkpt lat="45.31373" lon="6.10487">
        <ele>1766</ele>
        <time>2024-06-06T02:58:50+00:00</time>
      </trkpt>
      <trkpt lat="45.31378" lon="6.1049">
        <ele>1767</ele>
        <time>2024-06-06T02:58:53+00:00</time>
      </trkpt>
      <trkpt lat="45.31381" lon="6.10494">
        <ele>1763</ele>
        <time>2024-06-06T02:58:56+00:00</time>
      </trkpt>
      <trkpt lat="45.31384" lon="6.10498">
        <ele>1766</ele>
        <time>2024-06-06T02:58:59+00:00</time>
      </trkpt>
      <trkpt lat="45.31385" lon="6.10504">
        <ele>1764</ele>
        <time>2024-06-06T02:59:02+00:00</time>
      </trkpt>
      <trkpt lat="45.31385" lon="6.10509">
        <ele>1764</ele>
        <time>2024-06-06T02:59:05+00:00</time>
      </trkpt>
      <trkpt lat="45.31384" lon="6.10516">
        <ele>1764</ele>
        <time>2024-06-06T02:59:08+00:00</time>
      </trkpt>
      <trkpt lat="45.31382" lon="6.10524">
        <ele>1766</ele>
        <time>2024-06-06T02:59:11+00:00</time>
      </trkpt>
      <trkpt lat="45.31378" lon="6.1053">
        <ele>1769</ele>
        <time>2024-06-06T02:59:14+00:00</time>
      </trkpt>
      <trkpt lat="45.31375" lon="6.10537">
        <ele>1769</ele>
        <time>2024-06-06T02:59:17+00:00</time>
      </trkpt>
      <trkpt lat="45.31372" lon="6.10547">
        <ele>1766</ele>
        <time>2024-06-06T02:59:20+00:00</time>
      </trkpt>
      <trkpt lat="45.31369" lon="6.10555">
        <ele>1769</ele>
        <time>2024-06-06T02:59:23+00:00</time>
      </trkpt>
      <trkpt lat="45.31369" lon="6.10565">
        <ele>1768</ele>
        <time>2024-06-06T02:59:26+00:00</time>
      </trkpt>
      <trkpt lat="45.31367" lon="6.10572">
        <ele>1765</ele>
        <time>2024-06-06T02:59:29+00:00</time>
      </trkpt>
      <trkpt lat="45.31365" lon="6.10584">
        <ele>1764</ele>
        <time>2024-06-06T02:59:32+00:00</time>
      </trkpt>
      <trkpt lat="45.31363" lon="6.10593">
        <ele>1763</ele>
        <time>2024-06-06T02:59:35+00:00</time>
      </trkpt>
      <trkpt lat="45.31363" lon="6.10603">
        <ele>1762</ele>
        <time>2024-06-06T02:59:38+00:00</time>
      </trkpt>
      <trkpt lat="45.31365" lon="6.10618">
        <ele>1761</ele>
        <time>2024-06-06T02:59:41+00:00</time>
      </trkpt>
      <trkpt lat="45.31366" lon="6.10631">
        <ele>1761</ele>
        <time>2024-06-06T02:59:44+00:00</time>
      </trkpt>
      <trkpt lat="45.31368" lon="6.10642">
        <ele>1761</ele>
        <time>2024-06-06T02:59:47+00:00</time>
      </trkpt>
      <trkpt lat="45.31371" lon="6.10653">
        <ele>1758</ele>
        <time>2024-06-06T02:59:50+00:00</time>
      </trkpt>
      <trkpt lat="45.31373" lon="6.10666">
        <ele>1755</ele>
        <time>2024-06-06T02:59:53+00:00</time>
      </trkpt>
      <trkpt lat="45.31375" lon="6.10675">
        <ele>1756</ele>
        <time>2024-06-06T02:59:56+00:00</time>
      </trkpt>
      <trkpt lat="45.31378" lon="6.10682">
        <ele>1756</ele>
        <time>2024-06-06T02:59:59+00:00</time>
      </trkpt>
      <trkpt lat="45.31379" lon="6.10692">
        <ele>1757</ele>
        <time>2024-06-06T03:00:02+00:00</time>
      </trkpt>
      <trkpt lat="45.31381" lon="6.10701">
        <ele>1749</ele>
        <time>2024-06-06T03:00:05+00:00</time>
      </trkpt>
      <trkpt lat="45.31381" lon="6.10701">
        <ele>1749</ele>
        <time>2024-06-06T03:00:08+00:00</time>
      </trkpt>
      <trkpt lat="45.31383" lon="6.10708">
        <ele>1749</ele>
        <time>2024-06-06T03:00:11+00:00</time>
      </trkpt>
      <trkpt lat="45.31387" lon="6.10714">
        <ele>1750</ele>
        <time>2024-06-06T03:00:14+00:00</time>
      </trkpt>
      <trkpt lat="45.31391" lon="6.10721">
        <ele>1748</ele>
        <time>2024-06-06T03:00:17+00:00</time>
      </trkpt>
      <trkpt lat="45.31393" lon="6.10724">
        <ele>1748</ele>
        <time>2024-06-06T03:00:20+00:00</time>
      </trkpt>
      <trkpt lat="45.31396" lon="6.10726">
        <ele>1748</ele>
        <time>2024-06-06T03:00:23+00:00</time>
      </trkpt>
      <trkpt lat="45.31398" lon="6.10726">
        <ele>1748</ele>
        <time>2024-06-06T03:00:26+00:00</time>
      </trkpt>
      <trkpt lat="45.31401" lon="6.10726">
        <ele>1744</ele>
        <time>2024-06-06T03:00:29+00:00</time>
      </trkpt>
      <trkpt lat="45.31404" lon="6.10725">
        <ele>1744</ele>
        <time>2024-06-06T03:00:32+00:00</time>
      </trkpt>
      <trkpt lat="45.31407" lon="6.10723">
        <ele>1744</ele>
        <time>2024-06-06T03:00:35+00:00</time>
      </trkpt>
      <trkpt lat="45.3141" lon="6.10721">
        <ele>1742</ele>
        <time>2024-06-06T03:00:38+00:00</time>
      </trkpt>
      <trkpt lat="45.31415" lon="6.1072">
        <ele>1736</ele>
        <time>2024-06-06T03:00:41+00:00</time>
      </trkpt>
      <trkpt lat="45.31419" lon="6.10719">
        <ele>1744</ele>
        <time>2024-06-06T03:00:44+00:00</time>
      </trkpt>
      <trkpt lat="45.31424" lon="6.10718">
        <ele>1737</ele>
        <time>2024-06-06T03:00:47+00:00</time>
      </trkpt>
      <trkpt lat="45.3143" lon="6.10719">
        <ele>1737</ele>
        <time>2024-06-06T03:00:50+00:00</time>
      </trkpt>
      <trkpt lat="45.31434" lon="6.10721">
        <ele>1740</ele>
        <time>2024-06-06T03:00:53+00:00</time>
      </trkpt>
      <trkpt lat="45.31438" lon="6.10725">
        <ele>1740</ele>
        <time>2024-06-06T03:00:56+00:00</time>
      </trkpt>
      <trkpt lat="45.31442" lon="6.10729">
        <ele>1736</ele>
        <time>2024-06-06T03:00:59+00:00</time>
      </trkpt>
      <trkpt lat="45.31448" lon="6.10732">
        <ele>1738</ele>
        <time>2024-06-06T03:01:02+00:00</time>
      </trkpt>
      <trkpt lat="45.31454" lon="6.10734">
        <ele>1734</ele>
        <time>2024-06-06T03:01:05+00:00</time>
      </trkpt>
      <trkpt lat="45.3146" lon="6.10736">
        <ele>1730</ele>
        <time>2024-06-06T03:01:08+00:00</time>
      </trkpt>
      <trkpt lat="45.31466" lon="6.10739">
        <ele>1730</ele>
        <time>2024-06-06T03:01:11+00:00</time>
      </trkpt>
      <trkpt lat="45.31473" lon="6.10742">
        <ele>1724</ele>
        <time>2024-06-06T03:01:14+00:00</time>
      </trkpt>
      <trkpt lat="45.31478" lon="6.10744">
        <ele>1724</ele>
        <time>2024-06-06T03:01:17+00:00</time>
      </trkpt>
      <trkpt lat="45.31481" lon="6.10742">
        <ele>1721</ele>
        <time>2024-06-06T03:01:20+00:00</time>
      </trkpt>
      <trkpt lat="45.31485" lon="6.10741">
        <ele>1721</ele>
        <time>2024-06-06T03:01:23+00:00</time>
      </trkpt>
      <trkpt lat="45.31489" lon="6.10741">
        <ele>1721</ele>
        <time>2024-06-06T03:01:26+00:00</time>
      </trkpt>
      <trkpt lat="45.31491" lon="6.10742">
        <ele>1721</ele>
        <time>2024-06-06T03:01:29+00:00</time>
      </trkpt>
      <trkpt lat="45.31506" lon="6.1076">
        <ele>1721</ele>
        <time>2024-06-06T03:01:32+00:00</time>
      </trkpt>
      <trkpt lat="45.31515" lon="6.10766">
        <ele>1721</ele>
        <time>2024-06-06T03:01:35+00:00</time>
      </trkpt>
      <trkpt lat="45.31524" lon="6.1077">
        <ele>1721</ele>
        <time>2024-06-06T03:01:38+00:00</time>
      </trkpt>
      <trkpt lat="45.31532" lon="6.10771">
        <ele>1722</ele>
        <time>2024-06-06T03:01:41+00:00</time>
      </trkpt>
      <trkpt lat="45.31541" lon="6.10778">
        <ele>1722</ele>
        <time>2024-06-06T03:01:44+00:00</time>
      </trkpt>
      <trkpt lat="45.31546" lon="6.10786">
        <ele>1721</ele>
        <time>2024-06-06T03:01:47+00:00</time>
      </trkpt>
      <trkpt lat="45.31562" lon="6.10807">
        <ele>1722</ele>
        <time>2024-06-06T03:01:50+00:00</time>
      </trkpt>
      <trkpt lat="45.31568" lon="6.10803">
        <ele>1722</ele>
        <time>2024-06-06T03:01:53+00:00</time>
      </trkpt>
      <trkpt lat="45.31572" lon="6.108">
        <ele>1723</ele>
        <time>2024-06-06T03:01:56+00:00</time>
      </trkpt>
      <trkpt lat="45.31579" lon="6.10791">
        <ele>1722</ele>
        <time>2024-06-06T03:01:59+00:00</time>
      </trkpt>
      <trkpt lat="45.31583" lon="6.10785">
        <ele>1723</ele>
        <time>2024-06-06T03:02:02+00:00</time>
      </trkpt>
      <trkpt lat="45.31592" lon="6.10781">
        <ele>1722</ele>
        <time>2024-06-06T03:02:05+00:00</time>
      </trkpt>
      <trkpt lat="45.31597" lon="6.10781">
        <ele>1722</ele>
        <time>2024-06-06T03:02:08+00:00</time>
      </trkpt>
      <trkpt lat="45.31601" lon="6.1078">
        <ele>1716</ele>
        <time>2024-06-06T03:02:11+00:00</time>
      </trkpt>
      <trkpt lat="45.31605" lon="6.1078">
        <ele>1716</ele>
        <time>2024-06-06T03:02:14+00:00</time>
      </trkpt>
      <trkpt lat="45.31614" lon="6.10782">
        <ele>1720</ele>
        <time>2024-06-06T03:02:17+00:00</time>
      </trkpt>
      <trkpt lat="45.31617" lon="6.10784">
        <ele>1720</ele>
        <time>2024-06-06T03:02:20+00:00</time>
      </trkpt>
      <trkpt lat="45.31638" lon="6.10796">
        <ele>1719</ele>
        <time>2024-06-06T03:02:23+00:00</time>
      </trkpt>
      <trkpt lat="45.31663" lon="6.10807">
        <ele>1718</ele>
        <time>2024-06-06T03:02:26+00:00</time>
      </trkpt>
      <trkpt lat="45.31682" lon="6.10819">
        <ele>1718</ele>
        <time>2024-06-06T03:02:29+00:00</time>
      </trkpt>
      <trkpt lat="45.31703" lon="6.10832">
        <ele>1718</ele>
        <time>2024-06-06T03:02:32+00:00</time>
      </trkpt>
      <trkpt lat="45.31713" lon="6.10838">
        <ele>1715</ele>
        <time>2024-06-06T03:02:35+00:00</time>
      </trkpt>
      <trkpt lat="45.31727" lon="6.1084">
        <ele>1717</ele>
        <time>2024-06-06T03:02:38+00:00</time>
      </trkpt>
      <trkpt lat="45.31739" lon="6.1084">
        <ele>1710</ele>
        <time>2024-06-06T03:02:41+00:00</time>
      </trkpt>
      <trkpt lat="45.31753" lon="6.10836">
        <ele>1709</ele>
        <time>2024-06-06T03:02:44+00:00</time>
      </trkpt>
      <trkpt lat="45.31772" lon="6.10827">
        <ele>1706</ele>
        <time>2024-06-06T03:02:47+00:00</time>
      </trkpt>
      <trkpt lat="45.31789" lon="6.10816">
        <ele>1704</ele>
        <time>2024-06-06T03:02:50+00:00</time>
      </trkpt>
      <trkpt lat="45.31807" lon="6.10799">
        <ele>1698</ele>
        <time>2024-06-06T03:02:53+00:00</time>
      </trkpt>
      <trkpt lat="45.31825" lon="6.10779">
        <ele>1698</ele>
        <time>2024-06-06T03:02:56+00:00</time>
      </trkpt>
      <trkpt lat="45.31839" lon="6.10774">
        <ele>1696</ele>
        <time>2024-06-06T03:02:59+00:00</time>
      </trkpt>
      <trkpt lat="45.31854" lon="6.10775">
        <ele>1698</ele>
        <time>2024-06-06T03:03:02+00:00</time>
      </trkpt>
      <trkpt lat="45.31865" lon="6.10774">
        <ele>1699</ele>
        <time>2024-06-06T03:03:05+00:00</time>
      </trkpt>
      <trkpt lat="45.31878" lon="6.1077">
        <ele>1698</ele>
        <time>2024-06-06T03:03:08+00:00</time>
      </trkpt>
      <trkpt lat="45.3189" lon="6.1077">
        <ele>1692</ele>
        <time>2024-06-06T03:03:11+00:00</time>
      </trkpt>
      <trkpt lat="45.31906" lon="6.10779">
        <ele>1695</ele>
        <time>2024-06-06T03:03:14+00:00</time>
      </trkpt>
      <trkpt lat="45.31926" lon="6.10797">
        <ele>1692</ele>
        <time>2024-06-06T03:03:17+00:00</time>
      </trkpt>
      <trkpt lat="45.31944" lon="6.10812">
        <ele>1691</ele>
        <time>2024-06-06T03:03:20+00:00</time>
      </trkpt>
      <trkpt lat="45.31966" lon="6.10831">
        <ele>1688</ele>
        <time>2024-06-06T03:03:23+00:00</time>
      </trkpt>
      <trkpt lat="45.31984" lon="6.10843">
        <ele>1688</ele>
        <time>2024-06-06T03:03:26+00:00</time>
      </trkpt>
      <trkpt lat="45.31999" lon="6.10856">
        <ele>1687</ele>
        <time>2024-06-06T03:03:29+00:00</time>
      </trkpt>
      <trkpt lat="45.32028" lon="6.10861">
        <ele>1682</ele>
        <time>2024-06-06T03:03:32+00:00</time>
      </trkpt>
      <trkpt lat="45.3207" lon="6.10886">
        <ele>1682</ele>
        <time>2024-06-06T03:03:35+00:00</time>
      </trkpt>
      <trkpt lat="45.32097" lon="6.10906">
        <ele>1682</ele>
        <time>2024-06-06T03:03:38+00:00</time>
      </trkpt>
      <trkpt lat="45.32138" lon="6.10917">
        <ele>1678</ele>
        <time>2024-06-06T03:03:41+00:00</time>
      </trkpt>
      <trkpt lat="45.32179" lon="6.10915">
        <ele>1669</ele>
        <time>2024-06-06T03:03:44+00:00</time>
      </trkpt>
      <trkpt lat="45.32226" lon="6.1092">
        <ele>1659</ele>
        <time>2024-06-06T03:03:47+00:00</time>
      </trkpt>
      <trkpt lat="45.32268" lon="6.10933">
        <ele>1652</ele>
        <time>2024-06-06T03:03:50+00:00</time>
      </trkpt>
      <trkpt lat="45.32309" lon="6.10932">
        <ele>1642</ele>
        <time>2024-06-06T03:03:53+00:00</time>
      </trkpt>
      <trkpt lat="45.32342" lon="6.10945">
        <ele>1633</ele>
        <time>2024-06-06T03:03:56+00:00</time>
      </trkpt>
      <trkpt lat="45.32371" lon="6.10944">
        <ele>1624</ele>
        <time>2024-06-06T03:03:59+00:00</time>
      </trkpt>
      <trkpt lat="45.32385" lon="6.10928">
        <ele>1617</ele>
        <time>2024-06-06T03:04:02+00:00</time>
      </trkpt>
      <trkpt lat="45.32391" lon="6.10888">
        <ele>1607</ele>
        <time>2024-06-06T03:04:05+00:00</time>
      </trkpt>
      <trkpt lat="45.32419" lon="6.10882">
        <ele>1602</ele>
        <time>2024-06-06T03:04:08+00:00</time>
      </trkpt>
      <trkpt lat="45.32437" lon="6.10885">
        <ele>1597</ele>
        <time>2024-06-06T03:04:11+00:00</time>
      </trkpt>
      <trkpt lat="45.32452" lon="6.10892">
        <ele>1592</ele>
        <time>2024-06-06T03:04:14+00:00</time>
      </trkpt>
      <trkpt lat="45.32469" lon="6.109">
        <ele>1590</ele>
        <time>2024-06-06T03:04:17+00:00</time>
      </trkpt>
      <trkpt lat="45.32498" lon="6.10901">
        <ele>1583</ele>
        <time>2024-06-06T03:04:20+00:00</time>
      </trkpt>
      <trkpt lat="45.32524" lon="6.10898">
        <ele>1575</ele>
        <time>2024-06-06T03:04:23+00:00</time>
      </trkpt>
      <trkpt lat="45.32559" lon="6.10894">
        <ele>1570</ele>
        <time>2024-06-06T03:04:26+00:00</time>
      </trkpt>
      <trkpt lat="45.32586" lon="6.1089">
        <ele>1564</ele>
        <time>2024-06-06T03:04:29+00:00</time>
      </trkpt>
      <trkpt lat="45.3261" lon="6.10891">
        <ele>1558</ele>
        <time>2024-06-06T03:04:32+00:00</time>
      </trkpt>
      <trkpt lat="45.32637" lon="6.10892">
        <ele>1553</ele>
        <time>2024-06-06T03:04:35+00:00</time>
      </trkpt>
      <trkpt lat="45.32661" lon="6.10896">
        <ele>1548</ele>
        <time>2024-06-06T03:04:38+00:00</time>
      </trkpt>
      <trkpt lat="45.32687" lon="6.10901">
        <ele>1544</ele>
        <time>2024-06-06T03:04:41+00:00</time>
      </trkpt>
      <trkpt lat="45.32689" lon="6.109">
        <ele>1544</ele>
        <time>2024-06-06T03:04:44+00:00</time>
      </trkpt>
      <trkpt lat="45.32696" lon="6.109">
        <ele>1542</ele>
        <time>2024-06-06T03:04:47+00:00</time>
      </trkpt>
      <trkpt lat="45.32715" lon="6.10881">
        <ele>1539</ele>
        <time>2024-06-06T03:04:50+00:00</time>
      </trkpt>
      <trkpt lat="45.32734" lon="6.10868">
        <ele>1535</ele>
        <time>2024-06-06T03:04:53+00:00</time>
      </trkpt>
      <trkpt lat="45.32769" lon="6.10837">
        <ele>1527</ele>
        <time>2024-06-06T03:04:56+00:00</time>
      </trkpt>
      <trkpt lat="45.32776" lon="6.10832">
        <ele>1526</ele>
        <time>2024-06-06T03:04:59+00:00</time>
      </trkpt>
      <trkpt lat="45.32796" lon="6.10815">
        <ele>1519</ele>
        <time>2024-06-06T03:05:02+00:00</time>
      </trkpt>
      <trkpt lat="45.32833" lon="6.10788">
        <ele>1510</ele>
        <time>2024-06-06T03:05:05+00:00</time>
      </trkpt>
      <trkpt lat="45.32852" lon="6.10787">
        <ele>1507</ele>
        <time>2024-06-06T03:05:08+00:00</time>
      </trkpt>
      <trkpt lat="45.32876" lon="6.10763">
        <ele>1502</ele>
        <time>2024-06-06T03:05:11+00:00</time>
      </trkpt>
      <trkpt lat="45.329" lon="6.10741">
        <ele>1495</ele>
        <time>2024-06-06T03:05:14+00:00</time>
      </trkpt>
      <trkpt lat="45.32921" lon="6.10734">
        <ele>1491</ele>
        <time>2024-06-06T03:05:17+00:00</time>
      </trkpt>
      <trkpt lat="45.32936" lon="6.10737">
        <ele>1489</ele>
        <time>2024-06-06T03:05:20+00:00</time>
      </trkpt>
      <trkpt lat="45.32953" lon="6.10739">
        <ele>1486</ele>
        <time>2024-06-06T03:05:23+00:00</time>
      </trkpt>
      <trkpt lat="45.32966" lon="6.10726">
        <ele>1482</ele>
        <time>2024-06-06T03:05:26+00:00</time>
      </trkpt>
      <trkpt lat="45.32976" lon="6.10716">
        <ele>1479</ele>
        <time>2024-06-06T03:05:29+00:00</time>
      </trkpt>
      <trkpt lat="45.32983" lon="6.10705">
        <ele>1476</ele>
        <time>2024-06-06T03:05:32+00:00</time>
      </trkpt>
      <trkpt lat="45.32988" lon="6.10693">
        <ele>1476</ele>
        <time>2024-06-06T03:05:35+00:00</time>
      </trkpt>
      <trkpt lat="45.32999" lon="6.10687">
        <ele>1472</ele>
        <time>2024-06-06T03:05:38+00:00</time>
      </trkpt>
      <trkpt lat="45.33007" lon="6.10686">
        <ele>1469</ele>
        <time>2024-06-06T03:05:41+00:00</time>
      </trkpt>
      <trkpt lat="45.33019" lon="6.10678">
        <ele>1467</ele>
        <time>2024-06-06T03:05:44+00:00</time>
      </trkpt>
      <trkpt lat="45.33026" lon="6.10673">
        <ele>1463</ele>
        <time>2024-06-06T03:05:47+00:00</time>
      </trkpt>
      <trkpt lat="45.33039" lon="6.10662">
        <ele>1460</ele>
        <time>2024-06-06T03:05:50+00:00</time>
      </trkpt>
      <trkpt lat="45.33046" lon="6.10653">
        <ele>1457</ele>
        <time>2024-06-06T03:05:53+00:00</time>
      </trkpt>
      <trkpt lat="45.33052" lon="6.10648">
        <ele>1453</ele>
        <time>2024-06-06T03:05:56+00:00</time>
      </trkpt>
      <trkpt lat="45.3306" lon="6.10656">
        <ele>1451</ele>
        <time>2024-06-06T03:05:59+00:00</time>
      </trkpt>
      <trkpt lat="45.3307" lon="6.10662">
        <ele>1452</ele>
        <time>2024-06-06T03:06:02+00:00</time>
      </trkpt>
      <trkpt lat="45.33076" lon="6.10671">
        <ele>1450</ele>
        <time>2024-06-06T03:06:05+00:00</time>
      </trkpt>
      <trkpt lat="45.33082" lon="6.10682">
        <ele>1447</ele>
        <time>2024-06-06T03:06:08+00:00</time>
      </trkpt>
      <trkpt lat="45.33088" lon="6.1069">
        <ele>1447</ele>
        <time>2024-06-06T03:06:11+00:00</time>
      </trkpt>
      <trkpt lat="45.33097" lon="6.10696">
        <ele>1445</ele>
        <time>2024-06-06T03:06:14+00:00</time>
      </trkpt>
      <trkpt lat="45.33107" lon="6.107">
        <ele>1442</ele>
        <time>2024-06-06T03:06:17+00:00</time>
      </trkpt>
      <trkpt lat="45.33117" lon="6.10705">
        <ele>1439</ele>
        <time>2024-06-06T03:06:20+00:00</time>
      </trkpt>
      <trkpt lat="45.33124" lon="6.10712">
        <ele>1437</ele>
        <time>2024-06-06T03:06:23+00:00</time>
      </trkpt>
      <trkpt lat="45.33134" lon="6.10718">
        <ele>1435</ele>
        <time>2024-06-06T03:06:26+00:00</time>
      </trkpt>
      <trkpt lat="45.33146" lon="6.10723">
        <ele>1433</ele>
        <time>2024-06-06T03:06:29+00:00</time>
      </trkpt>
      <trkpt lat="45.33156" lon="6.10728">
        <ele>1431</ele>
        <time>2024-06-06T03:06:32+00:00</time>
      </trkpt>
      <trkpt lat="45.33163" lon="6.10737">
        <ele>1430</ele>
        <time>2024-06-06T03:06:35+00:00</time>
      </trkpt>
      <trkpt lat="45.3317" lon="6.10746">
        <ele>1428</ele>
        <time>2024-06-06T03:06:38+00:00</time>
      </trkpt>
      <trkpt lat="45.33176" lon="6.10755">
        <ele>1428</ele>
        <time>2024-06-06T03:06:41+00:00</time>
      </trkpt>
      <trkpt lat="45.33182" lon="6.10767">
        <ele>1427</ele>
        <time>2024-06-06T03:06:44+00:00</time>
      </trkpt>
      <trkpt lat="45.33186" lon="6.10779">
        <ele>1427</ele>
        <time>2024-06-06T03:06:47+00:00</time>
      </trkpt>
      <trkpt lat="45.33198" lon="6.10791">
        <ele>1426</ele>
        <time>2024-06-06T03:06:50+00:00</time>
      </trkpt>
      <trkpt lat="45.33204" lon="6.108">
        <ele>1424</ele>
        <time>2024-06-06T03:06:53+00:00</time>
      </trkpt>
      <trkpt lat="45.33204" lon="6.108">
        <ele>1424</ele>
        <time>2024-06-06T03:06:56+00:00</time>
      </trkpt>
      <trkpt lat="45.33204" lon="6.108">
        <ele>1424</ele>
        <time>2024-06-06T03:06:59+00:00</time>
      </trkpt>
      <trkpt lat="45.33208" lon="6.10812">
        <ele>1423</ele>
        <time>2024-06-06T03:07:02+00:00</time>
      </trkpt>
      <trkpt lat="45.33213" lon="6.1082">
        <ele>1422</ele>
        <time>2024-06-06T03:07:05+00:00</time>
      </trkpt>
      <trkpt lat="45.33218" lon="6.10834">
        <ele>1422</ele>
        <time>2024-06-06T03:07:08+00:00</time>
      </trkpt>
      <trkpt lat="45.33221" lon="6.10844">
        <ele>1421</ele>
        <time>2024-06-06T03:07:11+00:00</time>
      </trkpt>
      <trkpt lat="45.33223" lon="6.10855">
        <ele>1420</ele>
        <time>2024-06-06T03:07:14+00:00</time>
      </trkpt>
      <trkpt lat="45.33229" lon="6.10867">
        <ele>1420</ele>
        <time>2024-06-06T03:07:17+00:00</time>
      </trkpt>
      <trkpt lat="45.33234" lon="6.10877">
        <ele>1418</ele>
        <time>2024-06-06T03:07:20+00:00</time>
      </trkpt>
      <trkpt lat="45.33238" lon="6.10888">
        <ele>1417</ele>
        <time>2024-06-06T03:07:23+00:00</time>
      </trkpt>
      <trkpt lat="45.33243" lon="6.109">
        <ele>1415</ele>
        <time>2024-06-06T03:07:26+00:00</time>
      </trkpt>
      <trkpt lat="45.33248" lon="6.10911">
        <ele>1412</ele>
        <time>2024-06-06T03:07:29+00:00</time>
      </trkpt>
      <trkpt lat="45.33253" lon="6.10922">
        <ele>1410</ele>
        <time>2024-06-06T03:07:32+00:00</time>
      </trkpt>
      <trkpt lat="45.33258" lon="6.10936">
        <ele>1408</ele>
        <time>2024-06-06T03:07:35+00:00</time>
      </trkpt>
      <trkpt lat="45.33264" lon="6.10946">
        <ele>1404</ele>
        <time>2024-06-06T03:07:38+00:00</time>
      </trkpt>
      <trkpt lat="45.33269" lon="6.10955">
        <ele>1402</ele>
        <time>2024-06-06T03:07:41+00:00</time>
      </trkpt>
      <trkpt lat="45.33273" lon="6.10967">
        <ele>1399</ele>
        <time>2024-06-06T03:07:44+00:00</time>
      </trkpt>
      <trkpt lat="45.33284" lon="6.10978">
        <ele>1395</ele>
        <time>2024-06-06T03:07:47+00:00</time>
      </trkpt>
      <trkpt lat="45.33287" lon="6.1099">
        <ele>1392</ele>
        <time>2024-06-06T03:07:50+00:00</time>
      </trkpt>
      <trkpt lat="45.33293" lon="6.11008">
        <ele>1388</ele>
        <time>2024-06-06T03:07:53+00:00</time>
      </trkpt>
      <trkpt lat="45.33299" lon="6.1102">
        <ele>1385</ele>
        <time>2024-06-06T03:07:56+00:00</time>
      </trkpt>
      <trkpt lat="45.33305" lon="6.11029">
        <ele>1383</ele>
        <time>2024-06-06T03:07:59+00:00</time>
      </trkpt>
      <trkpt lat="45.33315" lon="6.1105">
        <ele>1376</ele>
        <time>2024-06-06T03:08:02+00:00</time>
      </trkpt>
      <trkpt lat="45.3331" lon="6.11079">
        <ele>1373</ele>
        <time>2024-06-06T03:08:05+00:00</time>
      </trkpt>
      <trkpt lat="45.33303" lon="6.11101">
        <ele>1366</ele>
        <time>2024-06-06T03:08:08+00:00</time>
      </trkpt>
      <trkpt lat="45.33293" lon="6.11129">
        <ele>1361</ele>
        <time>2024-06-06T03:08:11+00:00</time>
      </trkpt>
      <trkpt lat="45.33278" lon="6.1117">
        <ele>1352</ele>
        <time>2024-06-06T03:08:14+00:00</time>
      </trkpt>
      <trkpt lat="45.33269" lon="6.11217">
        <ele>1340</ele>
        <time>2024-06-06T03:08:17+00:00</time>
      </trkpt>
      <trkpt lat="45.33258" lon="6.11241">
        <ele>1334</ele>
        <time>2024-06-06T03:08:20+00:00</time>
      </trkpt>
      <trkpt lat="45.33235" lon="6.11278">
        <ele>1328</ele>
        <time>2024-06-06T03:08:23+00:00</time>
      </trkpt>
      <trkpt lat="45.33208" lon="6.11315">
        <ele>1319</ele>
        <time>2024-06-06T03:08:26+00:00</time>
      </trkpt>
      <trkpt lat="45.33184" lon="6.11342">
        <ele>1309</ele>
        <time>2024-06-06T03:08:29+00:00</time>
      </trkpt>
      <trkpt lat="45.33175" lon="6.11375">
        <ele>1295</ele>
        <time>2024-06-06T03:08:32+00:00</time>
      </trkpt>
      <trkpt lat="45.33216" lon="6.11401">
        <ele>1276</ele>
        <time>2024-06-06T03:08:35+00:00</time>
      </trkpt>
      <trkpt lat="45.33246" lon="6.11407">
        <ele>1273</ele>
        <time>2024-06-06T03:08:38+00:00</time>
      </trkpt>
      <trkpt lat="45.33271" lon="6.11412">
        <ele>1266</ele>
        <time>2024-06-06T03:08:41+00:00</time>
      </trkpt>
      <trkpt lat="45.333" lon="6.11417">
        <ele>1262</ele>
        <time>2024-06-06T03:08:44+00:00</time>
      </trkpt>
      <trkpt lat="45.33326" lon="6.1142">
        <ele>1252</ele>
        <time>2024-06-06T03:08:47+00:00</time>
      </trkpt>
      <trkpt lat="45.33361" lon="6.11424">
        <ele>1239</ele>
        <time>2024-06-06T03:08:50+00:00</time>
      </trkpt>
      <trkpt lat="45.33379" lon="6.11435">
        <ele>1232</ele>
        <time>2024-06-06T03:08:53+00:00</time>
      </trkpt>
      <trkpt lat="45.3336" lon="6.11456">
        <ele>1231</ele>
        <time>2024-06-06T03:08:56+00:00</time>
      </trkpt>
      <trkpt lat="45.3334" lon="6.1148">
        <ele>1231</ele>
        <time>2024-06-06T03:08:59+00:00</time>
      </trkpt>
      <trkpt lat="45.33318" lon="6.11505">
        <ele>1221</ele>
        <time>2024-06-06T03:09:02+00:00</time>
      </trkpt>
      <trkpt lat="45.33284" lon="6.11542">
        <ele>1212</ele>
        <time>2024-06-06T03:09:05+00:00</time>
      </trkpt>
      <trkpt lat="45.33261" lon="6.11549">
        <ele>1204</ele>
        <time>2024-06-06T03:09:08+00:00</time>
      </trkpt>
      <trkpt lat="45.33237" lon="6.11557">
        <ele>1200</ele>
        <time>2024-06-06T03:09:11+00:00</time>
      </trkpt>
      <trkpt lat="45.33192" lon="6.11573">
        <ele>1187</ele>
        <time>2024-06-06T03:09:14+00:00</time>
      </trkpt>
      <trkpt lat="45.33162" lon="6.11593">
        <ele>1178</ele>
        <time>2024-06-06T03:09:17+00:00</time>
      </trkpt>
      <trkpt lat="45.33144" lon="6.11616">
        <ele>1169</ele>
        <time>2024-06-06T03:09:20+00:00</time>
      </trkpt>
      <trkpt lat="45.33135" lon="6.11631">
        <ele>1164</ele>
        <time>2024-06-06T03:09:23+00:00</time>
      </trkpt>
      <trkpt lat="45.33129" lon="6.11647">
        <ele>1163</ele>
        <time>2024-06-06T03:09:26+00:00</time>
      </trkpt>
      <trkpt lat="45.33129" lon="6.11671">
        <ele>1156</ele>
        <time>2024-06-06T03:09:29+00:00</time>
      </trkpt>
      <trkpt lat="45.33134" lon="6.11693">
        <ele>1150</ele>
        <time>2024-06-06T03:09:32+00:00</time>
      </trkpt>
      <trkpt lat="45.33142" lon="6.11722">
        <ele>1141</ele>
        <time>2024-06-06T03:09:35+00:00</time>
      </trkpt>
      <trkpt lat="45.33148" lon="6.11736">
        <ele>1139</ele>
        <time>2024-06-06T03:09:38+00:00</time>
      </trkpt>
      <trkpt lat="45.3315" lon="6.11754">
        <ele>1134</ele>
        <time>2024-06-06T03:09:41+00:00</time>
      </trkpt>
      <trkpt lat="45.3315" lon="6.11774">
        <ele>1130</ele>
        <time>2024-06-06T03:09:44+00:00</time>
      </trkpt>
      <trkpt lat="45.33148" lon="6.1178">
        <ele>1130</ele>
        <time>2024-06-06T03:09:47+00:00</time>
      </trkpt>
      <trkpt lat="45.33141" lon="6.11794">
        <ele>1125</ele>
        <time>2024-06-06T03:09:50+00:00</time>
      </trkpt>
      <trkpt lat="45.33138" lon="6.11816">
        <ele>1122</ele>
        <time>2024-06-06T03:09:53+00:00</time>
      </trkpt>
      <trkpt lat="45.33137" lon="6.11838">
        <ele>1117</ele>
        <time>2024-06-06T03:09:56+00:00</time>
      </trkpt>
      <trkpt lat="45.33132" lon="6.11854">
        <ele>1111</ele>
        <time>2024-06-06T03:09:59+00:00</time>
      </trkpt>
      <trkpt lat="45.33124" lon="6.11871">
        <ele>1108</ele>
        <time>2024-06-06T03:10:02+00:00</time>
      </trkpt>
      <trkpt lat="45.33113" lon="6.11886">
        <ele>1107</ele>
        <time>2024-06-06T03:10:05+00:00</time>
      </trkpt>
      <trkpt lat="45.33109" lon="6.11893">
        <ele>1108</ele>
        <time>2024-06-06T03:10:08+00:00</time>
      </trkpt>
      <trkpt lat="45.33105" lon="6.11901">
        <ele>1106</ele>
        <time>2024-06-06T03:10:11+00:00</time>
      </trkpt>
      <trkpt lat="45.33103" lon="6.11908">
        <ele>1106</ele>
        <time>2024-06-06T03:10:14+00:00</time>
      </trkpt>
      <trkpt lat="45.33111" lon="6.11923">
        <ele>1100</ele>
        <time>2024-06-06T03:10:17+00:00</time>
      </trkpt>
      <trkpt lat="45.33118" lon="6.11933">
        <ele>1098</ele>
        <time>2024-06-06T03:10:20+00:00</time>
      </trkpt>
      <trkpt lat="45.33129" lon="6.11945">
        <ele>1096</ele>
        <time>2024-06-06T03:10:23+00:00</time>
      </trkpt>
      <trkpt lat="45.33142" lon="6.11957">
        <ele>1091</ele>
        <time>2024-06-06T03:10:26+00:00</time>
      </trkpt>
      <trkpt lat="45.33159" lon="6.11966">
        <ele>1089</ele>
        <time>2024-06-06T03:10:29+00:00</time>
      </trkpt>
      <trkpt lat="45.33176" lon="6.11975">
        <ele>1085</ele>
        <time>2024-06-06T03:10:32+00:00</time>
      </trkpt>
      <trkpt lat="45.33176" lon="6.11975">
        <ele>1085</ele>
        <time>2024-06-06T03:10:35+00:00</time>
      </trkpt>
      <trkpt lat="45.33183" lon="6.11979">
        <ele>1084</ele>
        <time>2024-06-06T03:10:38+00:00</time>
      </trkpt>
      <trkpt lat="45.33204" lon="6.11982">
        <ele>1082</ele>
        <time>2024-06-06T03:10:41+00:00</time>
      </trkpt>
      <trkpt lat="45.33216" lon="6.11989">
        <ele>1081</ele>
        <time>2024-06-06T03:10:44+00:00</time>
      </trkpt>
      <trkpt lat="45.3322" lon="6.11998">
        <ele>1082</ele>
        <time>2024-06-06T03:10:47+00:00</time>
      </trkpt>
      <trkpt lat="45.33227" lon="6.12004">
        <ele>1082</ele>
        <time>2024-06-06T03:10:50+00:00</time>
      </trkpt>
      <trkpt lat="45.33245" lon="6.12032">
        <ele>1084</ele>
        <time>2024-06-06T03:10:53+00:00</time>
      </trkpt>
      <trkpt lat="45.33253" lon="6.12043">
        <ele>1085</ele>
        <time>2024-06-06T03:10:56+00:00</time>
      </trkpt>
      <trkpt lat="45.33258" lon="6.12051">
        <ele>1086</ele>
        <time>2024-06-06T03:10:59+00:00</time>
      </trkpt>
      <trkpt lat="45.33265" lon="6.12057">
        <ele>1087</ele>
        <time>2024-06-06T03:11:02+00:00</time>
      </trkpt>
      <trkpt lat="45.33273" lon="6.12061">
        <ele>1089</ele>
        <time>2024-06-06T03:11:05+00:00</time>
      </trkpt>
      <trkpt lat="45.33278" lon="6.12062">
        <ele>1089</ele>
        <time>2024-06-06T03:11:08+00:00</time>
      </trkpt>
      <trkpt lat="45.33284" lon="6.1206">
        <ele>1089</ele>
        <time>2024-06-06T03:11:11+00:00</time>
      </trkpt>
      <trkpt lat="45.33296" lon="6.12056">
        <ele>1090</ele>
        <time>2024-06-06T03:11:14+00:00</time>
      </trkpt>
      <trkpt lat="45.33304" lon="6.12055">
        <ele>1091</ele>
        <time>2024-06-06T03:11:17+00:00</time>
      </trkpt>
      <trkpt lat="45.33314" lon="6.12057">
        <ele>1092</ele>
        <time>2024-06-06T03:11:20+00:00</time>
      </trkpt>
      <trkpt lat="45.33333" lon="6.12042">
        <ele>1091</ele>
        <time>2024-06-06T03:11:23+00:00</time>
      </trkpt>
      <trkpt lat="45.33372" lon="6.12016">
        <ele>1091</ele>
        <time>2024-06-06T03:11:26+00:00</time>
      </trkpt>
      <trkpt lat="45.33387" lon="6.12009">
        <ele>1090</ele>
        <time>2024-06-06T03:11:29+00:00</time>
      </trkpt>
      <trkpt lat="45.33401" lon="6.12002">
        <ele>1093</ele>
        <time>2024-06-06T03:11:32+00:00</time>
      </trkpt>
      <trkpt lat="45.33413" lon="6.11995">
        <ele>1093</ele>
        <time>2024-06-06T03:11:35+00:00</time>
      </trkpt>
      <trkpt lat="45.33431" lon="6.11986">
        <ele>1093</ele>
        <time>2024-06-06T03:11:38+00:00</time>
      </trkpt>
      <trkpt lat="45.33441" lon="6.11983">
        <ele>1095</ele>
        <time>2024-06-06T03:11:41+00:00</time>
      </trkpt>
      <trkpt lat="45.33451" lon="6.11982">
        <ele>1093</ele>
        <time>2024-06-06T03:11:44+00:00</time>
      </trkpt>
      <trkpt lat="45.33456" lon="6.11983">
        <ele>1095</ele>
        <time>2024-06-06T03:11:47+00:00</time>
      </trkpt>
      <trkpt lat="45.33461" lon="6.11985">
        <ele>1092</ele>
        <time>2024-06-06T03:11:50+00:00</time>
      </trkpt>
      <trkpt lat="45.33464" lon="6.11988">
        <ele>1092</ele>
        <time>2024-06-06T03:11:53+00:00</time>
      </trkpt>
      <trkpt lat="45.33469" lon="6.11997">
        <ele>1092</ele>
        <time>2024-06-06T03:11:56+00:00</time>
      </trkpt>
      <trkpt lat="45.33477" lon="6.12015">
        <ele>1092</ele>
        <time>2024-06-06T03:11:59+00:00</time>
      </trkpt>
      <trkpt lat="45.33479" lon="6.1202">
        <ele>1092</ele>
        <time>2024-06-06T03:12:02+00:00</time>
      </trkpt>
      <trkpt lat="45.33482" lon="6.12023">
        <ele>1092</ele>
        <time>2024-06-06T03:12:05+00:00</time>
      </trkpt>
      <trkpt lat="45.33485" lon="6.12024">
        <ele>1092</ele>
        <time>2024-06-06T03:12:08+00:00</time>
      </trkpt>
      <trkpt lat="45.33489" lon="6.12023">
        <ele>1092</ele>
        <time>2024-06-06T03:12:11+00:00</time>
      </trkpt>
      <trkpt lat="45.33492" lon="6.12021">
        <ele>1092</ele>
        <time>2024-06-06T03:12:14+00:00</time>
      </trkpt>
      <trkpt lat="45.33495" lon="6.12014">
        <ele>1091</ele>
        <time>2024-06-06T03:12:17+00:00</time>
      </trkpt>
      <trkpt lat="45.33503" lon="6.11994">
        <ele>1089</ele>
        <time>2024-06-06T03:12:20+00:00</time>
      </trkpt>
      <trkpt lat="45.33506" lon="6.1199">
        <ele>1085</ele>
        <time>2024-06-06T03:12:23+00:00</time>
      </trkpt>
      <trkpt lat="45.33509" lon="6.11985">
        <ele>1085</ele>
        <time>2024-06-06T03:12:26+00:00</time>
      </trkpt>
      <trkpt lat="45.33515" lon="6.11979">
        <ele>1083</ele>
        <time>2024-06-06T03:12:29+00:00</time>
      </trkpt>
      <trkpt lat="45.33524" lon="6.11972">
        <ele>1088</ele>
        <time>2024-06-06T03:12:32+00:00</time>
      </trkpt>
      <trkpt lat="45.33534" lon="6.11964">
        <ele>1085</ele>
        <time>2024-06-06T03:12:35+00:00</time>
      </trkpt>
      <trkpt lat="45.33542" lon="6.11963">
        <ele>1087</ele>
        <time>2024-06-06T03:12:38+00:00</time>
      </trkpt>
      <trkpt lat="45.33544" lon="6.11963">
        <ele>1087</ele>
        <time>2024-06-06T03:12:41+00:00</time>
      </trkpt>
      <trkpt lat="45.33534" lon="6.11964">
        <ele>1085</ele>
        <time>2024-06-06T03:12:44+00:00</time>
      </trkpt>
      <trkpt lat="45.33513" lon="6.11981">
        <ele>1087</ele>
        <time>2024-06-06T03:12:47+00:00</time>
      </trkpt>
      <trkpt lat="45.33506" lon="6.11988">
        <ele>1085</ele>
        <time>2024-06-06T03:12:50+00:00</time>
      </trkpt>
      <trkpt lat="45.33502" lon="6.11995">
        <ele>1089</ele>
        <time>2024-06-06T03:12:53+00:00</time>
      </trkpt>
      <trkpt lat="45.33495" lon="6.12014">
        <ele>1091</ele>
        <time>2024-06-06T03:12:56+00:00</time>
      </trkpt>
      <trkpt lat="45.33491" lon="6.12021">
        <ele>1092</ele>
        <time>2024-06-06T03:12:59+00:00</time>
      </trkpt>
      <trkpt lat="45.33488" lon="6.12023">
        <ele>1092</ele>
        <time>2024-06-06T03:13:02+00:00</time>
      </trkpt>
      <trkpt lat="45.33484" lon="6.12023">
        <ele>1092</ele>
        <time>2024-06-06T03:13:05+00:00</time>
      </trkpt>
      <trkpt lat="45.3348" lon="6.12021">
        <ele>1093</ele>
        <time>2024-06-06T03:13:08+00:00</time>
      </trkpt>
      <trkpt lat="45.33476" lon="6.12014">
        <ele>1092</ele>
        <time>2024-06-06T03:13:11+00:00</time>
      </trkpt>
      <trkpt lat="45.3347" lon="6.11997">
        <ele>1094</ele>
        <time>2024-06-06T03:13:14+00:00</time>
      </trkpt>
      <trkpt lat="45.33464" lon="6.11987">
        <ele>1092</ele>
        <time>2024-06-06T03:13:17+00:00</time>
      </trkpt>
      <trkpt lat="45.3346" lon="6.11984">
        <ele>1095</ele>
        <time>2024-06-06T03:13:20+00:00</time>
      </trkpt>
      <trkpt lat="45.33451" lon="6.11982">
        <ele>1095</ele>
        <time>2024-06-06T03:13:23+00:00</time>
      </trkpt>
      <trkpt lat="45.33442" lon="6.11983">
        <ele>1091</ele>
        <time>2024-06-06T03:13:26+00:00</time>
      </trkpt>
      <trkpt lat="45.33431" lon="6.11986">
        <ele>1093</ele>
        <time>2024-06-06T03:13:29+00:00</time>
      </trkpt>
      <trkpt lat="45.33408" lon="6.11998">
        <ele>1091</ele>
        <time>2024-06-06T03:13:32+00:00</time>
      </trkpt>
      <trkpt lat="45.33382" lon="6.12012">
        <ele>1092</ele>
        <time>2024-06-06T03:13:35+00:00</time>
      </trkpt>
      <trkpt lat="45.33366" lon="6.12019">
        <ele>1090</ele>
        <time>2024-06-06T03:13:38+00:00</time>
      </trkpt>
      <trkpt lat="45.3334" lon="6.12038">
        <ele>1092</ele>
        <time>2024-06-06T03:13:41+00:00</time>
      </trkpt>
      <trkpt lat="45.33312" lon="6.12058">
        <ele>1092</ele>
        <time>2024-06-06T03:13:44+00:00</time>
      </trkpt>
      <trkpt lat="45.33296" lon="6.12075">
        <ele>1093</ele>
        <time>2024-06-06T03:13:47+00:00</time>
      </trkpt>
      <trkpt lat="45.33283" lon="6.1209">
        <ele>1092</ele>
        <time>2024-06-06T03:13:50+00:00</time>
      </trkpt>
      <trkpt lat="45.33267" lon="6.12101">
        <ele>1093</ele>
        <time>2024-06-06T03:13:53+00:00</time>
      </trkpt>
      <trkpt lat="45.3325" lon="6.12114">
        <ele>1094</ele>
        <time>2024-06-06T03:13:56+00:00</time>
      </trkpt>
      <trkpt lat="45.33233" lon="6.12129">
        <ele>1097</ele>
        <time>2024-06-06T03:13:59+00:00</time>
      </trkpt>
      <trkpt lat="45.3321" lon="6.12132">
        <ele>1101</ele>
        <time>2024-06-06T03:14:02+00:00</time>
      </trkpt>
      <trkpt lat="45.33192" lon="6.12139">
        <ele>1102</ele>
        <time>2024-06-06T03:14:05+00:00</time>
      </trkpt>
      <trkpt lat="45.33186" lon="6.1214">
        <ele>1102</ele>
        <time>2024-06-06T03:14:08+00:00</time>
      </trkpt>
      <trkpt lat="45.33166" lon="6.12141">
        <ele>1105</ele>
        <time>2024-06-06T03:14:11+00:00</time>
      </trkpt>
      <trkpt lat="45.33146" lon="6.12142">
        <ele>1106</ele>
        <time>2024-06-06T03:14:14+00:00</time>
      </trkpt>
      <trkpt lat="45.33128" lon="6.12146">
        <ele>1109</ele>
        <time>2024-06-06T03:14:17+00:00</time>
      </trkpt>
      <trkpt lat="45.33112" lon="6.1215">
        <ele>1111</ele>
        <time>2024-06-06T03:14:20+00:00</time>
      </trkpt>
      <trkpt lat="45.33093" lon="6.12156">
        <ele>1114</ele>
        <time>2024-06-06T03:14:23+00:00</time>
      </trkpt>
      <trkpt lat="45.33092" lon="6.12156">
        <ele>1114</ele>
        <time>2024-06-06T03:14:26+00:00</time>
      </trkpt>
      <trkpt lat="45.33082" lon="6.12157">
        <ele>1116</ele>
        <time>2024-06-06T03:14:29+00:00</time>
      </trkpt>
      <trkpt lat="45.33068" lon="6.12159">
        <ele>1118</ele>
        <time>2024-06-06T03:14:32+00:00</time>
      </trkpt>
      <trkpt lat="45.33054" lon="6.12163">
        <ele>1120</ele>
        <time>2024-06-06T03:14:35+00:00</time>
      </trkpt>
      <trkpt lat="45.3304" lon="6.1217">
        <ele>1122</ele>
        <time>2024-06-06T03:14:38+00:00</time>
      </trkpt>
      <trkpt lat="45.33023" lon="6.12179">
        <ele>1125</ele>
        <time>2024-06-06T03:14:41+00:00</time>
      </trkpt>
      <trkpt lat="45.33015" lon="6.12188">
        <ele>1128</ele>
        <time>2024-06-06T03:14:44+00:00</time>
      </trkpt>
      <trkpt lat="45.33005" lon="6.12201">
        <ele>1131</ele>
        <time>2024-06-06T03:14:47+00:00</time>
      </trkpt>
      <trkpt lat="45.32997" lon="6.12212">
        <ele>1133</ele>
        <time>2024-06-06T03:14:50+00:00</time>
      </trkpt>
      <trkpt lat="45.32987" lon="6.12222">
        <ele>1136</ele>
        <time>2024-06-06T03:14:53+00:00</time>
      </trkpt>
      <trkpt lat="45.32971" lon="6.12235">
        <ele>1137</ele>
        <time>2024-06-06T03:14:56+00:00</time>
      </trkpt>
      <trkpt lat="45.32969" lon="6.12238">
        <ele>1139</ele>
        <time>2024-06-06T03:14:59+00:00</time>
      </trkpt>
      <trkpt lat="45.32958" lon="6.12248">
        <ele>1142</ele>
        <time>2024-06-06T03:15:02+00:00</time>
      </trkpt>
      <trkpt lat="45.32948" lon="6.1226">
        <ele>1144</ele>
        <time>2024-06-06T03:15:05+00:00</time>
      </trkpt>
      <trkpt lat="45.32938" lon="6.1227">
        <ele>1148</ele>
        <time>2024-06-06T03:15:08+00:00</time>
      </trkpt>
      <trkpt lat="45.32923" lon="6.12283">
        <ele>1150</ele>
        <time>2024-06-06T03:15:11+00:00</time>
      </trkpt>
      <trkpt lat="45.32912" lon="6.12296">
        <ele>1152</ele>
        <time>2024-06-06T03:15:14+00:00</time>
      </trkpt>
      <trkpt lat="45.32903" lon="6.1231">
        <ele>1155</ele>
        <time>2024-06-06T03:15:17+00:00</time>
      </trkpt>
      <trkpt lat="45.32892" lon="6.12329">
        <ele>1160</ele>
        <time>2024-06-06T03:15:20+00:00</time>
      </trkpt>
      <trkpt lat="45.32877" lon="6.12352">
        <ele>1166</ele>
        <time>2024-06-06T03:15:23+00:00</time>
      </trkpt>
      <trkpt lat="45.32867" lon="6.12363">
        <ele>1170</ele>
        <time>2024-06-06T03:15:26+00:00</time>
      </trkpt>
      <trkpt lat="45.32857" lon="6.12382">
        <ele>1173</ele>
        <time>2024-06-06T03:15:29+00:00</time>
      </trkpt>
      <trkpt lat="45.32824" lon="6.12379">
        <ele>1177</ele>
        <time>2024-06-06T03:15:32+00:00</time>
      </trkpt>
      <trkpt lat="45.32801" lon="6.12393">
        <ele>1183</ele>
        <time>2024-06-06T03:15:35+00:00</time>
      </trkpt>
      <trkpt lat="45.32775" lon="6.1241">
        <ele>1191</ele>
        <time>2024-06-06T03:15:38+00:00</time>
      </trkpt>
      <trkpt lat="45.32755" lon="6.12414">
        <ele>1194</ele>
        <time>2024-06-06T03:15:41+00:00</time>
      </trkpt>
      <trkpt lat="45.32742" lon="6.1242">
        <ele>1196</ele>
        <time>2024-06-06T03:15:44+00:00</time>
      </trkpt>
      <trkpt lat="45.32717" lon="6.12445">
        <ele>1207</ele>
        <time>2024-06-06T03:15:47+00:00</time>
      </trkpt>
      <trkpt lat="45.32691" lon="6.12471">
        <ele>1214</ele>
        <time>2024-06-06T03:15:50+00:00</time>
      </trkpt>
      <trkpt lat="45.32646" lon="6.12518">
        <ele>1226</ele>
        <time>2024-06-06T03:15:53+00:00</time>
      </trkpt>
      <trkpt lat="45.32616" lon="6.12543">
        <ele>1232</ele>
        <time>2024-06-06T03:15:56+00:00</time>
      </trkpt>
      <trkpt lat="45.32584" lon="6.12562">
        <ele>1238</ele>
        <time>2024-06-06T03:15:59+00:00</time>
      </trkpt>
      <trkpt lat="45.32569" lon="6.12572">
        <ele>1243</ele>
        <time>2024-06-06T03:16:02+00:00</time>
      </trkpt>
      <trkpt lat="45.3256" lon="6.12583">
        <ele>1246</ele>
        <time>2024-06-06T03:16:05+00:00</time>
      </trkpt>
      <trkpt lat="45.32555" lon="6.12587">
        <ele>1246</ele>
        <time>2024-06-06T03:16:08+00:00</time>
      </trkpt>
      <trkpt lat="45.32549" lon="6.12588">
        <ele>1248</ele>
        <time>2024-06-06T03:16:11+00:00</time>
      </trkpt>
      <trkpt lat="45.32539" lon="6.12593">
        <ele>1251</ele>
        <time>2024-06-06T03:16:14+00:00</time>
      </trkpt>
      <trkpt lat="45.32526" lon="6.12607">
        <ele>1255</ele>
        <time>2024-06-06T03:16:17+00:00</time>
      </trkpt>
      <trkpt lat="45.32518" lon="6.12609">
        <ele>1257</ele>
        <time>2024-06-06T03:16:20+00:00</time>
      </trkpt>
      <trkpt lat="45.32514" lon="6.12614">
        <ele>1258</ele>
        <time>2024-06-06T03:16:23+00:00</time>
      </trkpt>
      <trkpt lat="45.32509" lon="6.12625">
        <ele>1261</ele>
        <time>2024-06-06T03:16:26+00:00</time>
      </trkpt>
      <trkpt lat="45.32505" lon="6.12634">
        <ele>1263</ele>
        <time>2024-06-06T03:16:29+00:00</time>
      </trkpt>
      <trkpt lat="45.32498" lon="6.12642">
        <ele>1267</ele>
        <time>2024-06-06T03:16:32+00:00</time>
      </trkpt>
      <trkpt lat="45.32496" lon="6.12642">
        <ele>1267</ele>
        <time>2024-06-06T03:16:35+00:00</time>
      </trkpt>
      <trkpt lat="45.32496" lon="6.12642">
        <ele>1267</ele>
        <time>2024-06-06T03:16:38+00:00</time>
      </trkpt>
      <trkpt lat="45.32464" lon="6.12647">
        <ele>1273</ele>
        <time>2024-06-06T03:16:41+00:00</time>
      </trkpt>
      <trkpt lat="45.32437" lon="6.12648">
        <ele>1279</ele>
        <time>2024-06-06T03:16:44+00:00</time>
      </trkpt>
      <trkpt lat="45.32411" lon="6.12643">
        <ele>1282</ele>
        <time>2024-06-06T03:16:47+00:00</time>
      </trkpt>
      <trkpt lat="45.324" lon="6.12633">
        <ele>1285</ele>
        <time>2024-06-06T03:16:50+00:00</time>
      </trkpt>
      <trkpt lat="45.32396" lon="6.1263">
        <ele>1283</ele>
        <time>2024-06-06T03:16:53+00:00</time>
      </trkpt>
      <trkpt lat="45.32391" lon="6.12631">
        <ele>1285</ele>
        <time>2024-06-06T03:16:56+00:00</time>
      </trkpt>
      <trkpt lat="45.32385" lon="6.12634">
        <ele>1287</ele>
        <time>2024-06-06T03:16:59+00:00</time>
      </trkpt>
      <trkpt lat="45.32374" lon="6.12637">
        <ele>1290</ele>
        <time>2024-06-06T03:17:02+00:00</time>
      </trkpt>
      <trkpt lat="45.32367" lon="6.12637">
        <ele>1293</ele>
        <time>2024-06-06T03:17:05+00:00</time>
      </trkpt>
      <trkpt lat="45.32361" lon="6.12636">
        <ele>1293</ele>
        <time>2024-06-06T03:17:08+00:00</time>
      </trkpt>
      <trkpt lat="45.32355" lon="6.12639">
        <ele>1295</ele>
        <time>2024-06-06T03:17:11+00:00</time>
      </trkpt>
      <trkpt lat="45.32343" lon="6.12646">
        <ele>1300</ele>
        <time>2024-06-06T03:17:14+00:00</time>
      </trkpt>
      <trkpt lat="45.32339" lon="6.12647">
        <ele>1303</ele>
        <time>2024-06-06T03:17:17+00:00</time>
      </trkpt>
      <trkpt lat="45.32328" lon="6.12647">
        <ele>1305</ele>
        <time>2024-06-06T03:17:20+00:00</time>
      </trkpt>
      <trkpt lat="45.32317" lon="6.12652">
        <ele>1310</ele>
        <time>2024-06-06T03:17:23+00:00</time>
      </trkpt>
      <trkpt lat="45.32307" lon="6.12657">
        <ele>1312</ele>
        <time>2024-06-06T03:17:26+00:00</time>
      </trkpt>
      <trkpt lat="45.32304" lon="6.12661">
        <ele>1315</ele>
        <time>2024-06-06T03:17:29+00:00</time>
      </trkpt>
      <trkpt lat="45.32302" lon="6.12669">
        <ele>1315</ele>
        <time>2024-06-06T03:17:32+00:00</time>
      </trkpt>
      <trkpt lat="45.32298" lon="6.12673">
        <ele>1319</ele>
        <time>2024-06-06T03:17:35+00:00</time>
      </trkpt>
      <trkpt lat="45.32293" lon="6.12673">
        <ele>1319</ele>
        <time>2024-06-06T03:17:38+00:00</time>
      </trkpt>
      <trkpt lat="45.3229" lon="6.12673">
        <ele>1319</ele>
        <time>2024-06-06T03:17:41+00:00</time>
      </trkpt>
      <trkpt lat="45.32289" lon="6.12677">
        <ele>1322</ele>
        <time>2024-06-06T03:17:44+00:00</time>
      </trkpt>
      <trkpt lat="45.32289" lon="6.12683">
        <ele>1324</ele>
        <time>2024-06-06T03:17:47+00:00</time>
      </trkpt>
      <trkpt lat="45.32287" lon="6.1269">
        <ele>1324</ele>
        <time>2024-06-06T03:17:50+00:00</time>
      </trkpt>
      <trkpt lat="45.32282" lon="6.12691">
        <ele>1328</ele>
        <time>2024-06-06T03:17:53+00:00</time>
      </trkpt>
      <trkpt lat="45.32276" lon="6.12693">
        <ele>1329</ele>
        <time>2024-06-06T03:17:56+00:00</time>
      </trkpt>
      <trkpt lat="45.32273" lon="6.12702">
        <ele>1332</ele>
        <time>2024-06-06T03:17:59+00:00</time>
      </trkpt>
      <trkpt lat="45.32268" lon="6.12718">
        <ele>1335</ele>
        <time>2024-06-06T03:18:02+00:00</time>
      </trkpt>
      <trkpt lat="45.32259" lon="6.12735">
        <ele>1343</ele>
        <time>2024-06-06T03:18:05+00:00</time>
      </trkpt>
      <trkpt lat="45.32252" lon="6.12746">
        <ele>1346</ele>
        <time>2024-06-06T03:18:08+00:00</time>
      </trkpt>
      <trkpt lat="45.32246" lon="6.12753">
        <ele>1350</ele>
        <time>2024-06-06T03:18:11+00:00</time>
      </trkpt>
      <trkpt lat="45.32243" lon="6.12755">
        <ele>1350</ele>
        <time>2024-06-06T03:18:14+00:00</time>
      </trkpt>
      <trkpt lat="45.32231" lon="6.1276">
        <ele>1353</ele>
        <time>2024-06-06T03:18:17+00:00</time>
      </trkpt>
      <trkpt lat="45.32221" lon="6.12767">
        <ele>1354</ele>
        <time>2024-06-06T03:18:20+00:00</time>
      </trkpt>
      <trkpt lat="45.32209" lon="6.12775">
        <ele>1357</ele>
        <time>2024-06-06T03:18:23+00:00</time>
      </trkpt>
      <trkpt lat="45.32202" lon="6.12779">
        <ele>1357</ele>
        <time>2024-06-06T03:18:26+00:00</time>
      </trkpt>
      <trkpt lat="45.32198" lon="6.1278">
        <ele>1362</ele>
        <time>2024-06-06T03:18:29+00:00</time>
      </trkpt>
      <trkpt lat="45.32193" lon="6.12779">
        <ele>1359</ele>
        <time>2024-06-06T03:18:32+00:00</time>
      </trkpt>
      <trkpt lat="45.32187" lon="6.1278">
        <ele>1363</ele>
        <time>2024-06-06T03:18:35+00:00</time>
      </trkpt>
      <trkpt lat="45.3218" lon="6.12786">
        <ele>1363</ele>
        <time>2024-06-06T03:18:38+00:00</time>
      </trkpt>
      <trkpt lat="45.32174" lon="6.12791">
        <ele>1365</ele>
        <time>2024-06-06T03:18:41+00:00</time>
      </trkpt>
      <trkpt lat="45.32172" lon="6.12794">
        <ele>1365</ele>
        <time>2024-06-06T03:18:44+00:00</time>
      </trkpt>
      <trkpt lat="45.32172" lon="6.12799">
        <ele>1365</ele>
        <time>2024-06-06T03:18:47+00:00</time>
      </trkpt>
      <trkpt lat="45.3217" lon="6.12803">
        <ele>1367</ele>
        <time>2024-06-06T03:18:50+00:00</time>
      </trkpt>
      <trkpt lat="45.32165" lon="6.12807">
        <ele>1369</ele>
        <time>2024-06-06T03:18:53+00:00</time>
      </trkpt>
      <trkpt lat="45.32158" lon="6.12812">
        <ele>1372</ele>
        <time>2024-06-06T03:18:56+00:00</time>
      </trkpt>
      <trkpt lat="45.32155" lon="6.12813">
        <ele>1372</ele>
        <time>2024-06-06T03:18:59+00:00</time>
      </trkpt>
      <trkpt lat="45.32155" lon="6.12816">
        <ele>1372</ele>
        <time>2024-06-06T03:19:02+00:00</time>
      </trkpt>
      <trkpt lat="45.32152" lon="6.12822">
        <ele>1374</ele>
        <time>2024-06-06T03:19:05+00:00</time>
      </trkpt>
      <trkpt lat="45.32153" lon="6.12826">
        <ele>1374</ele>
        <time>2024-06-06T03:19:08+00:00</time>
      </trkpt>
      <trkpt lat="45.32153" lon="6.12829">
        <ele>1374</ele>
        <time>2024-06-06T03:19:11+00:00</time>
      </trkpt>
      <trkpt lat="45.32152" lon="6.12833">
        <ele>1377</ele>
        <time>2024-06-06T03:19:14+00:00</time>
      </trkpt>
      <trkpt lat="45.32154" lon="6.12837">
        <ele>1377</ele>
        <time>2024-06-06T03:19:17+00:00</time>
      </trkpt>
      <trkpt lat="45.32157" lon="6.12845">
        <ele>1381</ele>
        <time>2024-06-06T03:19:20+00:00</time>
      </trkpt>
      <trkpt lat="45.3216" lon="6.12852">
        <ele>1384</ele>
        <time>2024-06-06T03:19:23+00:00</time>
      </trkpt>
      <trkpt lat="45.32162" lon="6.12859">
        <ele>1383</ele>
        <time>2024-06-06T03:19:26+00:00</time>
      </trkpt>
      <trkpt lat="45.32162" lon="6.1286">
        <ele>1386</ele>
        <time>2024-06-06T03:19:29+00:00</time>
      </trkpt>
      <trkpt lat="45.3216" lon="6.12862">
        <ele>1386</ele>
        <time>2024-06-06T03:19:32+00:00</time>
      </trkpt>
      <trkpt lat="45.32153" lon="6.12863">
        <ele>1387</ele>
        <time>2024-06-06T03:19:35+00:00</time>
      </trkpt>
      <trkpt lat="45.32145" lon="6.12864">
        <ele>1389</ele>
        <time>2024-06-06T03:19:38+00:00</time>
      </trkpt>
      <trkpt lat="45.32137" lon="6.12865">
        <ele>1390</ele>
        <time>2024-06-06T03:19:41+00:00</time>
      </trkpt>
      <trkpt lat="45.32131" lon="6.12868">
        <ele>1390</ele>
        <time>2024-06-06T03:19:44+00:00</time>
      </trkpt>
      <trkpt lat="45.32122" lon="6.1287">
        <ele>1395</ele>
        <time>2024-06-06T03:19:47+00:00</time>
      </trkpt>
      <trkpt lat="45.32107" lon="6.12873">
        <ele>1397</ele>
        <time>2024-06-06T03:19:50+00:00</time>
      </trkpt>
      <trkpt lat="45.32096" lon="6.12875">
        <ele>1398</ele>
        <time>2024-06-06T03:19:53+00:00</time>
      </trkpt>
      <trkpt lat="45.32085" lon="6.1288">
        <ele>1398</ele>
        <time>2024-06-06T03:19:56+00:00</time>
      </trkpt>
      <trkpt lat="45.32079" lon="6.12879">
        <ele>1399</ele>
        <time>2024-06-06T03:19:59+00:00</time>
      </trkpt>
      <trkpt lat="45.32074" lon="6.12883">
        <ele>1403</ele>
        <time>2024-06-06T03:20:02+00:00</time>
      </trkpt>
      <trkpt lat="45.32065" lon="6.1289">
        <ele>1403</ele>
        <time>2024-06-06T03:20:05+00:00</time>
      </trkpt>
      <trkpt lat="45.32053" lon="6.12894">
        <ele>1407</ele>
        <time>2024-06-06T03:20:08+00:00</time>
      </trkpt>
      <trkpt lat="45.32048" lon="6.12895">
        <ele>1409</ele>
        <time>2024-06-06T03:20:11+00:00</time>
      </trkpt>
      <trkpt lat="45.32042" lon="6.129">
        <ele>1409</ele>
        <time>2024-06-06T03:20:14+00:00</time>
      </trkpt>
      <trkpt lat="45.32036" lon="6.12907">
        <ele>1414</ele>
        <time>2024-06-06T03:20:17+00:00</time>
      </trkpt>
      <trkpt lat="45.32028" lon="6.12913">
        <ele>1418</ele>
        <time>2024-06-06T03:20:20+00:00</time>
      </trkpt>
      <trkpt lat="45.32021" lon="6.12917">
        <ele>1418</ele>
        <time>2024-06-06T03:20:23+00:00</time>
      </trkpt>
      <trkpt lat="45.32011" lon="6.12925">
        <ele>1423</ele>
        <time>2024-06-06T03:20:26+00:00</time>
      </trkpt>
      <trkpt lat="45.32003" lon="6.12934">
        <ele>1429</ele>
        <time>2024-06-06T03:20:29+00:00</time>
      </trkpt>
      <trkpt lat="45.32001" lon="6.12942">
        <ele>1433</ele>
        <time>2024-06-06T03:20:32+00:00</time>
      </trkpt>
      <trkpt lat="45.31999" lon="6.12955">
        <ele>1436</ele>
        <time>2024-06-06T03:20:35+00:00</time>
      </trkpt>
      <trkpt lat="45.31998" lon="6.12964">
        <ele>1440</ele>
        <time>2024-06-06T03:20:38+00:00</time>
      </trkpt>
      <trkpt lat="45.31995" lon="6.12977">
        <ele>1443</ele>
        <time>2024-06-06T03:20:41+00:00</time>
      </trkpt>
      <trkpt lat="45.3199" lon="6.13">
        <ele>1451</ele>
        <time>2024-06-06T03:20:44+00:00</time>
      </trkpt>
      <trkpt lat="45.31987" lon="6.13016">
        <ele>1451</ele>
        <time>2024-06-06T03:20:47+00:00</time>
      </trkpt>
      <trkpt lat="45.31983" lon="6.13031">
        <ele>1456</ele>
        <time>2024-06-06T03:20:50+00:00</time>
      </trkpt>
      <trkpt lat="45.31976" lon="6.13046">
        <ele>1456</ele>
        <time>2024-06-06T03:20:53+00:00</time>
      </trkpt>
      <trkpt lat="45.31971" lon="6.13059">
        <ele>1459</ele>
        <time>2024-06-06T03:20:56+00:00</time>
      </trkpt>
      <trkpt lat="45.31966" lon="6.13071">
        <ele>1460</ele>
        <time>2024-06-06T03:20:59+00:00</time>
      </trkpt>
      <trkpt lat="45.31961" lon="6.13078">
        <ele>1460</ele>
        <time>2024-06-06T03:21:02+00:00</time>
      </trkpt>
      <trkpt lat="45.31961" lon="6.13079">
        <ele>1460</ele>
        <time>2024-06-06T03:21:05+00:00</time>
      </trkpt>
      <trkpt lat="45.3196" lon="6.1308">
        <ele>1463</ele>
        <time>2024-06-06T03:21:08+00:00</time>
      </trkpt>
      <trkpt lat="45.31961" lon="6.13083">
        <ele>1463</ele>
        <time>2024-06-06T03:21:11+00:00</time>
      </trkpt>
      <trkpt lat="45.31962" lon="6.13085">
        <ele>1463</ele>
        <time>2024-06-06T03:21:14+00:00</time>
      </trkpt>
      <trkpt lat="45.31962" lon="6.13088">
        <ele>1463</ele>
        <time>2024-06-06T03:21:17+00:00</time>
      </trkpt>
      <trkpt lat="45.31962" lon="6.13091">
        <ele>1466</ele>
        <time>2024-06-06T03:21:20+00:00</time>
      </trkpt>
      <trkpt lat="45.31962" lon="6.13095">
        <ele>1466</ele>
        <time>2024-06-06T03:21:23+00:00</time>
      </trkpt>
      <trkpt lat="45.31962" lon="6.13106">
        <ele>1468</ele>
        <time>2024-06-06T03:21:26+00:00</time>
      </trkpt>
      <trkpt lat="45.31962" lon="6.13109">
        <ele>1468</ele>
        <time>2024-06-06T03:21:29+00:00</time>
      </trkpt>
      <trkpt lat="45.31962" lon="6.13112">
        <ele>1470</ele>
        <time>2024-06-06T03:21:32+00:00</time>
      </trkpt>
      <trkpt lat="45.3196" lon="6.13114">
        <ele>1470</ele>
        <time>2024-06-06T03:21:35+00:00</time>
      </trkpt>
      <trkpt lat="45.31959" lon="6.13116">
        <ele>1468</ele>
        <time>2024-06-06T03:21:38+00:00</time>
      </trkpt>
      <trkpt lat="45.31959" lon="6.13122">
        <ele>1472</ele>
        <time>2024-06-06T03:21:41+00:00</time>
      </trkpt>
      <trkpt lat="45.31959" lon="6.13128">
        <ele>1472</ele>
        <time>2024-06-06T03:21:44+00:00</time>
      </trkpt>
      <trkpt lat="45.31959" lon="6.13132">
        <ele>1475</ele>
        <time>2024-06-06T03:21:47+00:00</time>
      </trkpt>
      <trkpt lat="45.31958" lon="6.13134">
        <ele>1475</ele>
        <time>2024-06-06T03:21:50+00:00</time>
      </trkpt>
      <trkpt lat="45.31958" lon="6.13135">
        <ele>1475</ele>
        <time>2024-06-06T03:21:53+00:00</time>
      </trkpt>
      <trkpt lat="45.31956" lon="6.13137">
        <ele>1475</ele>
        <time>2024-06-06T03:21:56+00:00</time>
      </trkpt>
      <trkpt lat="45.31955" lon="6.13138">
        <ele>1475</ele>
        <time>2024-06-06T03:21:59+00:00</time>
      </trkpt>
      <trkpt lat="45.31953" lon="6.1314">
        <ele>1475</ele>
        <time>2024-06-06T03:22:02+00:00</time>
      </trkpt>
      <trkpt lat="45.31952" lon="6.13141">
        <ele>1478</ele>
        <time>2024-06-06T03:22:05+00:00</time>
      </trkpt>
      <trkpt lat="45.31952" lon="6.13144">
        <ele>1478</ele>
        <time>2024-06-06T03:22:08+00:00</time>
      </trkpt>
      <trkpt lat="45.31952" lon="6.1315">
        <ele>1478</ele>
        <time>2024-06-06T03:22:11+00:00</time>
      </trkpt>
      <trkpt lat="45.31953" lon="6.13153">
        <ele>1483</ele>
        <time>2024-06-06T03:22:14+00:00</time>
      </trkpt>
      <trkpt lat="45.31955" lon="6.13159">
        <ele>1483</ele>
        <time>2024-06-06T03:22:17+00:00</time>
      </trkpt>
      <trkpt lat="45.31957" lon="6.13163">
        <ele>1486</ele>
        <time>2024-06-06T03:22:20+00:00</time>
      </trkpt>
      <trkpt lat="45.31958" lon="6.13163">
        <ele>1486</ele>
        <time>2024-06-06T03:22:23+00:00</time>
      </trkpt>
      <trkpt lat="45.31958" lon="6.13164">
        <ele>1486</ele>
        <time>2024-06-06T03:22:26+00:00</time>
      </trkpt>
      <trkpt lat="45.31958" lon="6.13166">
        <ele>1486</ele>
        <time>2024-06-06T03:22:29+00:00</time>
      </trkpt>
      <trkpt lat="45.31957" lon="6.13168">
        <ele>1486</ele>
        <time>2024-06-06T03:22:32+00:00</time>
      </trkpt>
      <trkpt lat="45.31956" lon="6.13171">
        <ele>1490</ele>
        <time>2024-06-06T03:22:35+00:00</time>
      </trkpt>
      <trkpt lat="45.31956" lon="6.13173">
        <ele>1490</ele>
        <time>2024-06-06T03:22:38+00:00</time>
      </trkpt>
      <trkpt lat="45.31956" lon="6.13175">
        <ele>1490</ele>
        <time>2024-06-06T03:22:41+00:00</time>
      </trkpt>
      <trkpt lat="45.31957" lon="6.13177">
        <ele>1490</ele>
        <time>2024-06-06T03:22:44+00:00</time>
      </trkpt>
      <trkpt lat="45.31958" lon="6.1318">
        <ele>1490</ele>
        <time>2024-06-06T03:22:47+00:00</time>
      </trkpt>
      <trkpt lat="45.31959" lon="6.13184">
        <ele>1495</ele>
        <time>2024-06-06T03:22:50+00:00</time>
      </trkpt>
      <trkpt lat="45.31959" lon="6.13189">
        <ele>1495</ele>
        <time>2024-06-06T03:22:53+00:00</time>
      </trkpt>
      <trkpt lat="45.3196" lon="6.13194">
        <ele>1496</ele>
        <time>2024-06-06T03:22:56+00:00</time>
      </trkpt>
      <trkpt lat="45.31961" lon="6.13197">
        <ele>1496</ele>
        <time>2024-06-06T03:22:59+00:00</time>
      </trkpt>
      <trkpt lat="45.31961" lon="6.132">
        <ele>1500</ele>
        <time>2024-06-06T03:23:02+00:00</time>
      </trkpt>
      <trkpt lat="45.31961" lon="6.13202">
        <ele>1500</ele>
        <time>2024-06-06T03:23:05+00:00</time>
      </trkpt>
      <trkpt lat="45.3196" lon="6.13203">
        <ele>1500</ele>
        <time>2024-06-06T03:23:08+00:00</time>
      </trkpt>
      <trkpt lat="45.31959" lon="6.13204">
        <ele>1502</ele>
        <time>2024-06-06T03:23:11+00:00</time>
      </trkpt>
      <trkpt lat="45.31958" lon="6.13205">
        <ele>1502</ele>
        <time>2024-06-06T03:23:14+00:00</time>
      </trkpt>
      <trkpt lat="45.31957" lon="6.13204">
        <ele>1502</ele>
        <time>2024-06-06T03:23:17+00:00</time>
      </trkpt>
      <trkpt lat="45.31955" lon="6.13204">
        <ele>1502</ele>
        <time>2024-06-06T03:23:20+00:00</time>
      </trkpt>
      <trkpt lat="45.31952" lon="6.13204">
        <ele>1502</ele>
        <time>2024-06-06T03:23:23+00:00</time>
      </trkpt>
      <trkpt lat="45.3195" lon="6.13204">
        <ele>1505</ele>
        <time>2024-06-06T03:23:26+00:00</time>
      </trkpt>
      <trkpt lat="45.31946" lon="6.13205">
        <ele>1505</ele>
        <time>2024-06-06T03:23:29+00:00</time>
      </trkpt>
      <trkpt lat="45.31945" lon="6.13206">
        <ele>1505</ele>
        <time>2024-06-06T03:23:32+00:00</time>
      </trkpt>
      <trkpt lat="45.31943" lon="6.13208">
        <ele>1505</ele>
        <time>2024-06-06T03:23:35+00:00</time>
      </trkpt>
      <trkpt lat="45.31942" lon="6.13209">
        <ele>1505</ele>
        <time>2024-06-06T03:23:38+00:00</time>
      </trkpt>
      <trkpt lat="45.31941" lon="6.1321">
        <ele>1510</ele>
        <time>2024-06-06T03:23:41+00:00</time>
      </trkpt>
      <trkpt lat="45.31941" lon="6.13211">
        <ele>1510</ele>
        <time>2024-06-06T03:23:44+00:00</time>
      </trkpt>
      <trkpt lat="45.31942" lon="6.13215">
        <ele>1510</ele>
        <time>2024-06-06T03:23:47+00:00</time>
      </trkpt>
      <trkpt lat="45.31944" lon="6.1322">
        <ele>1510</ele>
        <time>2024-06-06T03:23:50+00:00</time>
      </trkpt>
      <trkpt lat="45.31947" lon="6.13227">
        <ele>1513</ele>
        <time>2024-06-06T03:23:53+00:00</time>
      </trkpt>
      <trkpt lat="45.31948" lon="6.13231">
        <ele>1517</ele>
        <time>2024-06-06T03:23:56+00:00</time>
      </trkpt>
      <trkpt lat="45.31948" lon="6.13234">
        <ele>1517</ele>
        <time>2024-06-06T03:23:59+00:00</time>
      </trkpt>
      <trkpt lat="45.31949" lon="6.13236">
        <ele>1517</ele>
        <time>2024-06-06T03:24:02+00:00</time>
      </trkpt>
      <trkpt lat="45.31951" lon="6.13239">
        <ele>1514</ele>
        <time>2024-06-06T03:24:05+00:00</time>
      </trkpt>
      <trkpt lat="45.31953" lon="6.13243">
        <ele>1520</ele>
        <time>2024-06-06T03:24:08+00:00</time>
      </trkpt>
      <trkpt lat="45.31957" lon="6.13248">
        <ele>1520</ele>
        <time>2024-06-06T03:24:11+00:00</time>
      </trkpt>
      <trkpt lat="45.31961" lon="6.1325">
        <ele>1523</ele>
        <time>2024-06-06T03:24:14+00:00</time>
      </trkpt>
      <trkpt lat="45.31963" lon="6.13251">
        <ele>1523</ele>
        <time>2024-06-06T03:24:17+00:00</time>
      </trkpt>
      <trkpt lat="45.31968" lon="6.13251">
        <ele>1523</ele>
        <time>2024-06-06T03:24:20+00:00</time>
      </trkpt>
      <trkpt lat="45.31972" lon="6.13252">
        <ele>1523</ele>
        <time>2024-06-06T03:24:23+00:00</time>
      </trkpt>
      <trkpt lat="45.31976" lon="6.13254">
        <ele>1523</ele>
        <time>2024-06-06T03:24:26+00:00</time>
      </trkpt>
      <trkpt lat="45.31981" lon="6.13257">
        <ele>1523</ele>
        <time>2024-06-06T03:24:29+00:00</time>
      </trkpt>
      <trkpt lat="45.31983" lon="6.1326">
        <ele>1523</ele>
        <time>2024-06-06T03:24:32+00:00</time>
      </trkpt>
      <trkpt lat="45.31986" lon="6.13262">
        <ele>1528</ele>
        <time>2024-06-06T03:24:35+00:00</time>
      </trkpt>
      <trkpt lat="45.3199" lon="6.13266">
        <ele>1528</ele>
        <time>2024-06-06T03:24:38+00:00</time>
      </trkpt>
      <trkpt lat="45.31993" lon="6.13268">
        <ele>1527</ele>
        <time>2024-06-06T03:24:41+00:00</time>
      </trkpt>
      <trkpt lat="45.31995" lon="6.13268">
        <ele>1527</ele>
        <time>2024-06-06T03:24:44+00:00</time>
      </trkpt>
      <trkpt lat="45.31997" lon="6.1327">
        <ele>1527</ele>
        <time>2024-06-06T03:24:47+00:00</time>
      </trkpt>
      <trkpt lat="45.32001" lon="6.13272">
        <ele>1533</ele>
        <time>2024-06-06T03:24:50+00:00</time>
      </trkpt>
      <trkpt lat="45.32003" lon="6.13276">
        <ele>1533</ele>
        <time>2024-06-06T03:24:53+00:00</time>
      </trkpt>
      <trkpt lat="45.32004" lon="6.13276">
        <ele>1533</ele>
        <time>2024-06-06T03:24:56+00:00</time>
      </trkpt>
      <trkpt lat="45.32007" lon="6.13275">
        <ele>1533</ele>
        <time>2024-06-06T03:24:59+00:00</time>
      </trkpt>
      <trkpt lat="45.32009" lon="6.13275">
        <ele>1533</ele>
        <time>2024-06-06T03:25:02+00:00</time>
      </trkpt>
      <trkpt lat="45.3201" lon="6.13275">
        <ele>1533</ele>
        <time>2024-06-06T03:25:05+00:00</time>
      </trkpt>
      <trkpt lat="45.32011" lon="6.13277">
        <ele>1532</ele>
        <time>2024-06-06T03:25:08+00:00</time>
      </trkpt>
      <trkpt lat="45.32012" lon="6.13279">
        <ele>1532</ele>
        <time>2024-06-06T03:25:11+00:00</time>
      </trkpt>
      <trkpt lat="45.32014" lon="6.13279">
        <ele>1532</ele>
        <time>2024-06-06T03:25:14+00:00</time>
      </trkpt>
      <trkpt lat="45.32014" lon="6.1328">
        <ele>1536</ele>
        <time>2024-06-06T03:25:17+00:00</time>
      </trkpt>
      <trkpt lat="45.32014" lon="6.13281">
        <ele>1536</ele>
        <time>2024-06-06T03:25:20+00:00</time>
      </trkpt>
      <trkpt lat="45.32013" lon="6.13282">
        <ele>1536</ele>
        <time>2024-06-06T03:25:23+00:00</time>
      </trkpt>
      <trkpt lat="45.32013" lon="6.13284">
        <ele>1536</ele>
        <time>2024-06-06T03:25:26+00:00</time>
      </trkpt>
      <trkpt lat="45.32013" lon="6.13286">
        <ele>1536</ele>
        <time>2024-06-06T03:25:29+00:00</time>
      </trkpt>
      <trkpt lat="45.32014" lon="6.13288">
        <ele>1536</ele>
        <time>2024-06-06T03:25:32+00:00</time>
      </trkpt>
      <trkpt lat="45.32014" lon="6.1329">
        <ele>1536</ele>
        <time>2024-06-06T03:25:35+00:00</time>
      </trkpt>
      <trkpt lat="45.32014" lon="6.1329">
        <ele>1540</ele>
        <time>2024-06-06T03:25:38+00:00</time>
      </trkpt>
      <trkpt lat="45.32014" lon="6.13293">
        <ele>1540</ele>
        <time>2024-06-06T03:25:41+00:00</time>
      </trkpt>
      <trkpt lat="45.32013" lon="6.13294">
        <ele>1540</ele>
        <time>2024-06-06T03:25:44+00:00</time>
      </trkpt>
      <trkpt lat="45.32011" lon="6.13295">
        <ele>1540</ele>
        <time>2024-06-06T03:25:47+00:00</time>
      </trkpt>
      <trkpt lat="45.32009" lon="6.13296">
        <ele>1541</ele>
        <time>2024-06-06T03:25:50+00:00</time>
      </trkpt>
      <trkpt lat="45.32007" lon="6.13299">
        <ele>1541</ele>
        <time>2024-06-06T03:25:53+00:00</time>
      </trkpt>
      <trkpt lat="45.32006" lon="6.13301">
        <ele>1547</ele>
        <time>2024-06-06T03:25:56+00:00</time>
      </trkpt>
      <trkpt lat="45.32006" lon="6.13303">
        <ele>1547</ele>
        <time>2024-06-06T03:25:59+00:00</time>
      </trkpt>
      <trkpt lat="45.32006" lon="6.13305">
        <ele>1547</ele>
        <time>2024-06-06T03:26:02+00:00</time>
      </trkpt>
      <trkpt lat="45.32006" lon="6.13307">
        <ele>1547</ele>
        <time>2024-06-06T03:26:05+00:00</time>
      </trkpt>
      <trkpt lat="45.32008" lon="6.13308">
        <ele>1547</ele>
        <time>2024-06-06T03:26:08+00:00</time>
      </trkpt>
      <trkpt lat="45.3201" lon="6.1331">
        <ele>1547</ele>
        <time>2024-06-06T03:26:11+00:00</time>
      </trkpt>
      <trkpt lat="45.32012" lon="6.13312">
        <ele>1548</ele>
        <time>2024-06-06T03:26:14+00:00</time>
      </trkpt>
      <trkpt lat="45.32012" lon="6.13314">
        <ele>1548</ele>
        <time>2024-06-06T03:26:17+00:00</time>
      </trkpt>
      <trkpt lat="45.32011" lon="6.13316">
        <ele>1548</ele>
        <time>2024-06-06T03:26:20+00:00</time>
      </trkpt>
      <trkpt lat="45.32009" lon="6.13319">
        <ele>1550</ele>
        <time>2024-06-06T03:26:23+00:00</time>
      </trkpt>
      <trkpt lat="45.32004" lon="6.13323">
        <ele>1554</ele>
        <time>2024-06-06T03:26:26+00:00</time>
      </trkpt>
      <trkpt lat="45.32003" lon="6.13326">
        <ele>1554</ele>
        <time>2024-06-06T03:26:29+00:00</time>
      </trkpt>
      <trkpt lat="45.32003" lon="6.13328">
        <ele>1554</ele>
        <time>2024-06-06T03:26:32+00:00</time>
      </trkpt>
      <trkpt lat="45.32005" lon="6.13331">
        <ele>1560</ele>
        <time>2024-06-06T03:26:35+00:00</time>
      </trkpt>
      <trkpt lat="45.3201" lon="6.13335">
        <ele>1560</ele>
        <time>2024-06-06T03:26:38+00:00</time>
      </trkpt>
      <trkpt lat="45.32011" lon="6.13337">
        <ele>1557</ele>
        <time>2024-06-06T03:26:41+00:00</time>
      </trkpt>
      <trkpt lat="45.3201" lon="6.13339">
        <ele>1557</ele>
        <time>2024-06-06T03:26:44+00:00</time>
      </trkpt>
      <trkpt lat="45.3201" lon="6.13344">
        <ele>1561</ele>
        <time>2024-06-06T03:26:47+00:00</time>
      </trkpt>
      <trkpt lat="45.32012" lon="6.13347">
        <ele>1561</ele>
        <time>2024-06-06T03:26:50+00:00</time>
      </trkpt>
      <trkpt lat="45.32015" lon="6.13351">
        <ele>1565</ele>
        <time>2024-06-06T03:26:53+00:00</time>
      </trkpt>
      <trkpt lat="45.32016" lon="6.13354">
        <ele>1565</ele>
        <time>2024-06-06T03:26:56+00:00</time>
      </trkpt>
      <trkpt lat="45.32016" lon="6.13355">
        <ele>1565</ele>
        <time>2024-06-06T03:26:59+00:00</time>
      </trkpt>
      <trkpt lat="45.32016" lon="6.13356">
        <ele>1565</ele>
        <time>2024-06-06T03:27:02+00:00</time>
      </trkpt>
      <trkpt lat="45.32014" lon="6.13357">
        <ele>1565</ele>
        <time>2024-06-06T03:27:05+00:00</time>
      </trkpt>
      <trkpt lat="45.32011" lon="6.13357">
        <ele>1565</ele>
        <time>2024-06-06T03:27:08+00:00</time>
      </trkpt>
      <trkpt lat="45.32006" lon="6.13356">
        <ele>1568</ele>
        <time>2024-06-06T03:27:11+00:00</time>
      </trkpt>
      <trkpt lat="45.32004" lon="6.13355">
        <ele>1568</ele>
        <time>2024-06-06T03:27:14+00:00</time>
      </trkpt>
      <trkpt lat="45.32002" lon="6.13353">
        <ele>1568</ele>
        <time>2024-06-06T03:27:17+00:00</time>
      </trkpt>
      <trkpt lat="45.31998" lon="6.1335">
        <ele>1572</ele>
        <time>2024-06-06T03:27:20+00:00</time>
      </trkpt>
      <trkpt lat="45.31994" lon="6.13349">
        <ele>1568</ele>
        <time>2024-06-06T03:27:23+00:00</time>
      </trkpt>
      <trkpt lat="45.31989" lon="6.13348">
        <ele>1572</ele>
        <time>2024-06-06T03:27:26+00:00</time>
      </trkpt>
      <trkpt lat="45.31987" lon="6.13349">
        <ele>1572</ele>
        <time>2024-06-06T03:27:29+00:00</time>
      </trkpt>
      <trkpt lat="45.31985" lon="6.13349">
        <ele>1572</ele>
        <time>2024-06-06T03:27:32+00:00</time>
      </trkpt>
      <trkpt lat="45.31984" lon="6.13348">
        <ele>1572</ele>
        <time>2024-06-06T03:27:35+00:00</time>
      </trkpt>
      <trkpt lat="45.31983" lon="6.13347">
        <ele>1572</ele>
        <time>2024-06-06T03:27:38+00:00</time>
      </trkpt>
      <trkpt lat="45.31982" lon="6.13346">
        <ele>1572</ele>
        <time>2024-06-06T03:27:41+00:00</time>
      </trkpt>
      <trkpt lat="45.3198" lon="6.13347">
        <ele>1572</ele>
        <time>2024-06-06T03:27:44+00:00</time>
      </trkpt>
      <trkpt lat="45.31979" lon="6.13348">
        <ele>1574</ele>
        <time>2024-06-06T03:27:47+00:00</time>
      </trkpt>
      <trkpt lat="45.31977" lon="6.1335">
        <ele>1579</ele>
        <time>2024-06-06T03:27:50+00:00</time>
      </trkpt>
      <trkpt lat="45.31976" lon="6.13351">
        <ele>1579</ele>
        <time>2024-06-06T03:27:53+00:00</time>
      </trkpt>
      <trkpt lat="45.31974" lon="6.13351">
        <ele>1572</ele>
        <time>2024-06-06T03:27:56+00:00</time>
      </trkpt>
      <trkpt lat="45.31973" lon="6.13349">
        <ele>1574</ele>
        <time>2024-06-06T03:27:59+00:00</time>
      </trkpt>
      <trkpt lat="45.31971" lon="6.13347">
        <ele>1574</ele>
        <time>2024-06-06T03:28:02+00:00</time>
      </trkpt>
      <trkpt lat="45.3197" lon="6.13346">
        <ele>1575</ele>
        <time>2024-06-06T03:28:05+00:00</time>
      </trkpt>
      <trkpt lat="45.31967" lon="6.13345">
        <ele>1575</ele>
        <time>2024-06-06T03:28:08+00:00</time>
      </trkpt>
      <trkpt lat="45.31962" lon="6.13345">
        <ele>1575</ele>
        <time>2024-06-06T03:28:11+00:00</time>
      </trkpt>
      <trkpt lat="45.31952" lon="6.13346">
        <ele>1577</ele>
        <time>2024-06-06T03:28:14+00:00</time>
      </trkpt>
      <trkpt lat="45.31949" lon="6.13346">
        <ele>1578</ele>
        <time>2024-06-06T03:28:17+00:00</time>
      </trkpt>
      <trkpt lat="45.31944" lon="6.13347">
        <ele>1578</ele>
        <time>2024-06-06T03:28:20+00:00</time>
      </trkpt>
      <trkpt lat="45.31933" lon="6.13347">
        <ele>1580</ele>
        <time>2024-06-06T03:28:23+00:00</time>
      </trkpt>
      <trkpt lat="45.31928" lon="6.13347">
        <ele>1582</ele>
        <time>2024-06-06T03:28:26+00:00</time>
      </trkpt>
      <trkpt lat="45.31924" lon="6.13348">
        <ele>1582</ele>
        <time>2024-06-06T03:28:29+00:00</time>
      </trkpt>
      <trkpt lat="45.31922" lon="6.13347">
        <ele>1582</ele>
        <time>2024-06-06T03:28:32+00:00</time>
      </trkpt>
      <trkpt lat="45.31919" lon="6.13346">
        <ele>1584</ele>
        <time>2024-06-06T03:28:35+00:00</time>
      </trkpt>
      <trkpt lat="45.31915" lon="6.13345">
        <ele>1584</ele>
        <time>2024-06-06T03:28:38+00:00</time>
      </trkpt>
      <trkpt lat="45.31911" lon="6.13345">
        <ele>1584</ele>
        <time>2024-06-06T03:28:41+00:00</time>
      </trkpt>
      <trkpt lat="45.31903" lon="6.13344">
        <ele>1585</ele>
        <time>2024-06-06T03:28:44+00:00</time>
      </trkpt>
      <trkpt lat="45.31894" lon="6.13343">
        <ele>1587</ele>
        <time>2024-06-06T03:28:47+00:00</time>
      </trkpt>
      <trkpt lat="45.31889" lon="6.13342">
        <ele>1589</ele>
        <time>2024-06-06T03:28:50+00:00</time>
      </trkpt>
      <trkpt lat="45.31884" lon="6.13341">
        <ele>1586</ele>
        <time>2024-06-06T03:28:53+00:00</time>
      </trkpt>
      <trkpt lat="45.31877" lon="6.13338">
        <ele>1585</ele>
        <time>2024-06-06T03:28:56+00:00</time>
      </trkpt>
      <trkpt lat="45.31875" lon="6.13337">
        <ele>1585</ele>
        <time>2024-06-06T03:28:59+00:00</time>
      </trkpt>
      <trkpt lat="45.31871" lon="6.13337">
        <ele>1585</ele>
        <time>2024-06-06T03:29:02+00:00</time>
      </trkpt>
      <trkpt lat="45.31866" lon="6.13339">
        <ele>1588</ele>
        <time>2024-06-06T03:29:05+00:00</time>
      </trkpt>
      <trkpt lat="45.31861" lon="6.1334">
        <ele>1588</ele>
        <time>2024-06-06T03:29:08+00:00</time>
      </trkpt>
      <trkpt lat="45.31857" lon="6.13339">
        <ele>1592</ele>
        <time>2024-06-06T03:29:11+00:00</time>
      </trkpt>
      <trkpt lat="45.31853" lon="6.13339">
        <ele>1592</ele>
        <time>2024-06-06T03:29:14+00:00</time>
      </trkpt>
      <trkpt lat="45.31852" lon="6.13338">
        <ele>1592</ele>
        <time>2024-06-06T03:29:17+00:00</time>
      </trkpt>
      <trkpt lat="45.31849" lon="6.13336">
        <ele>1597</ele>
        <time>2024-06-06T03:29:20+00:00</time>
      </trkpt>
      <trkpt lat="45.31848" lon="6.13335">
        <ele>1597</ele>
        <time>2024-06-06T03:29:23+00:00</time>
      </trkpt>
      <trkpt lat="45.31847" lon="6.13334">
        <ele>1597</ele>
        <time>2024-06-06T03:29:26+00:00</time>
      </trkpt>
      <trkpt lat="45.31848" lon="6.13333">
        <ele>1597</ele>
        <time>2024-06-06T03:29:29+00:00</time>
      </trkpt>
      <trkpt lat="45.31847" lon="6.13331">
        <ele>1597</ele>
        <time>2024-06-06T03:29:32+00:00</time>
      </trkpt>
      <trkpt lat="45.31847" lon="6.13329">
        <ele>1590</ele>
        <time>2024-06-06T03:29:35+00:00</time>
      </trkpt>
      <trkpt lat="45.31845" lon="6.13327">
        <ele>1590</ele>
        <time>2024-06-06T03:29:38+00:00</time>
      </trkpt>
      <trkpt lat="45.31842" lon="6.13325">
        <ele>1590</ele>
        <time>2024-06-06T03:29:41+00:00</time>
      </trkpt>
      <trkpt lat="45.31839" lon="6.13326">
        <ele>1596</ele>
        <time>2024-06-06T03:29:44+00:00</time>
      </trkpt>
      <trkpt lat="45.31836" lon="6.13327">
        <ele>1596</ele>
        <time>2024-06-06T03:29:47+00:00</time>
      </trkpt>
      <trkpt lat="45.31834" lon="6.1333">
        <ele>1596</ele>
        <time>2024-06-06T03:29:50+00:00</time>
      </trkpt>
      <trkpt lat="45.31833" lon="6.13331">
        <ele>1602</ele>
        <time>2024-06-06T03:29:53+00:00</time>
      </trkpt>
      <trkpt lat="45.31831" lon="6.13332">
        <ele>1602</ele>
        <time>2024-06-06T03:29:56+00:00</time>
      </trkpt>
      <trkpt lat="45.31829" lon="6.13332">
        <ele>1606</ele>
        <time>2024-06-06T03:29:59+00:00</time>
      </trkpt>
      <trkpt lat="45.31827" lon="6.13333">
        <ele>1596</ele>
        <time>2024-06-06T03:30:02+00:00</time>
      </trkpt>
      <trkpt lat="45.31825" lon="6.13332">
        <ele>1606</ele>
        <time>2024-06-06T03:30:05+00:00</time>
      </trkpt>
      <trkpt lat="45.31822" lon="6.13331">
        <ele>1606</ele>
        <time>2024-06-06T03:30:08+00:00</time>
      </trkpt>
      <trkpt lat="45.3182" lon="6.1333">
        <ele>1610</ele>
        <time>2024-06-06T03:30:11+00:00</time>
      </trkpt>
      <trkpt lat="45.31819" lon="6.13329">
        <ele>1605</ele>
        <time>2024-06-06T03:30:14+00:00</time>
      </trkpt>
      <trkpt lat="45.31818" lon="6.13328">
        <ele>1605</ele>
        <time>2024-06-06T03:30:17+00:00</time>
      </trkpt>
      <trkpt lat="45.31818" lon="6.13326">
        <ele>1605</ele>
        <time>2024-06-06T03:30:20+00:00</time>
      </trkpt>
      <trkpt lat="45.31818" lon="6.13322">
        <ele>1605</ele>
        <time>2024-06-06T03:30:23+00:00</time>
      </trkpt>
      <trkpt lat="45.31818" lon="6.13319">
        <ele>1603</ele>
        <time>2024-06-06T03:30:26+00:00</time>
      </trkpt>
      <trkpt lat="45.31819" lon="6.13317">
        <ele>1603</ele>
        <time>2024-06-06T03:30:29+00:00</time>
      </trkpt>
      <trkpt lat="45.31818" lon="6.13313">
        <ele>1603</ele>
        <time>2024-06-06T03:30:32+00:00</time>
      </trkpt>
      <trkpt lat="45.31816" lon="6.13311">
        <ele>1603</ele>
        <time>2024-06-06T03:30:35+00:00</time>
      </trkpt>
      <trkpt lat="45.31813" lon="6.13309">
        <ele>1601</ele>
        <time>2024-06-06T03:30:38+00:00</time>
      </trkpt>
      <trkpt lat="45.3181" lon="6.13307">
        <ele>1601</ele>
        <time>2024-06-06T03:30:41+00:00</time>
      </trkpt>
      <trkpt lat="45.31808" lon="6.13305">
        <ele>1611</ele>
        <time>2024-06-06T03:30:44+00:00</time>
      </trkpt>
      <trkpt lat="45.31804" lon="6.13298">
        <ele>1608</ele>
        <time>2024-06-06T03:30:47+00:00</time>
      </trkpt>
      <trkpt lat="45.31802" lon="6.13293">
        <ele>1608</ele>
        <time>2024-06-06T03:30:50+00:00</time>
      </trkpt>
      <trkpt lat="45.31799" lon="6.13287">
        <ele>1614</ele>
        <time>2024-06-06T03:30:53+00:00</time>
      </trkpt>
      <trkpt lat="45.31798" lon="6.13285">
        <ele>1614</ele>
        <time>2024-06-06T03:30:56+00:00</time>
      </trkpt>
      <trkpt lat="45.31795" lon="6.13282">
        <ele>1614</ele>
        <time>2024-06-06T03:30:59+00:00</time>
      </trkpt>
      <trkpt lat="45.31793" lon="6.1328">
        <ele>1614</ele>
        <time>2024-06-06T03:31:02+00:00</time>
      </trkpt>
      <trkpt lat="45.31791" lon="6.13279">
        <ele>1610</ele>
        <time>2024-06-06T03:31:05+00:00</time>
      </trkpt>
      <trkpt lat="45.31789" lon="6.13278">
        <ele>1616</ele>
        <time>2024-06-06T03:31:08+00:00</time>
      </trkpt>
      <trkpt lat="45.31787" lon="6.13275">
        <ele>1611</ele>
        <time>2024-06-06T03:31:11+00:00</time>
      </trkpt>
      <trkpt lat="45.31786" lon="6.13271">
        <ele>1616</ele>
        <time>2024-06-06T03:31:14+00:00</time>
      </trkpt>
      <trkpt lat="45.31785" lon="6.13268">
        <ele>1610</ele>
        <time>2024-06-06T03:31:17+00:00</time>
      </trkpt>
      <trkpt lat="45.31783" lon="6.13265">
        <ele>1610</ele>
        <time>2024-06-06T03:31:20+00:00</time>
      </trkpt>
      <trkpt lat="45.31781" lon="6.13263">
        <ele>1610</ele>
        <time>2024-06-06T03:31:23+00:00</time>
      </trkpt>
      <trkpt lat="45.31778" lon="6.13261">
        <ele>1615</ele>
        <time>2024-06-06T03:31:26+00:00</time>
      </trkpt>
      <trkpt lat="45.31776" lon="6.1326">
        <ele>1612</ele>
        <time>2024-06-06T03:31:29+00:00</time>
      </trkpt>
      <trkpt lat="45.3177" lon="6.1326">
        <ele>1615</ele>
        <time>2024-06-06T03:31:32+00:00</time>
      </trkpt>
      <trkpt lat="45.31763" lon="6.13259">
        <ele>1616</ele>
        <time>2024-06-06T03:31:35+00:00</time>
      </trkpt>
      <trkpt lat="45.31758" lon="6.13258">
        <ele>1619</ele>
        <time>2024-06-06T03:31:38+00:00</time>
      </trkpt>
      <trkpt lat="45.31754" lon="6.13257">
        <ele>1619</ele>
        <time>2024-06-06T03:31:41+00:00</time>
      </trkpt>
      <trkpt lat="45.31752" lon="6.13256">
        <ele>1619</ele>
        <time>2024-06-06T03:31:44+00:00</time>
      </trkpt>
      <trkpt lat="45.3175" lon="6.13254">
        <ele>1619</ele>
        <time>2024-06-06T03:31:47+00:00</time>
      </trkpt>
      <trkpt lat="45.3175" lon="6.13252">
        <ele>1623</ele>
        <time>2024-06-06T03:31:50+00:00</time>
      </trkpt>
      <trkpt lat="45.3175" lon="6.13249">
        <ele>1623</ele>
        <time>2024-06-06T03:31:53+00:00</time>
      </trkpt>
      <trkpt lat="45.31749" lon="6.13244">
        <ele>1623</ele>
        <time>2024-06-06T03:31:56+00:00</time>
      </trkpt>
      <trkpt lat="45.31748" lon="6.13242">
        <ele>1623</ele>
        <time>2024-06-06T03:31:59+00:00</time>
      </trkpt>
      <trkpt lat="45.31747" lon="6.13242">
        <ele>1623</ele>
        <time>2024-06-06T03:32:02+00:00</time>
      </trkpt>
      <trkpt lat="45.31746" lon="6.13241">
        <ele>1623</ele>
        <time>2024-06-06T03:32:05+00:00</time>
      </trkpt>
      <trkpt lat="45.31746" lon="6.1324">
        <ele>1625</ele>
        <time>2024-06-06T03:32:08+00:00</time>
      </trkpt>
      <trkpt lat="45.31746" lon="6.13238">
        <ele>1625</ele>
        <time>2024-06-06T03:32:11+00:00</time>
      </trkpt>
      <trkpt lat="45.31748" lon="6.13234">
        <ele>1625</ele>
        <time>2024-06-06T03:32:14+00:00</time>
      </trkpt>
      <trkpt lat="45.31749" lon="6.1323">
        <ele>1625</ele>
        <time>2024-06-06T03:32:17+00:00</time>
      </trkpt>
      <trkpt lat="45.31749" lon="6.13228">
        <ele>1625</ele>
        <time>2024-06-06T03:32:20+00:00</time>
      </trkpt>
      <trkpt lat="45.31749" lon="6.13226">
        <ele>1625</ele>
        <time>2024-06-06T03:32:23+00:00</time>
      </trkpt>
      <trkpt lat="45.31746" lon="6.13222">
        <ele>1625</ele>
        <time>2024-06-06T03:32:26+00:00</time>
      </trkpt>
      <trkpt lat="45.31744" lon="6.1322">
        <ele>1625</ele>
        <time>2024-06-06T03:32:29+00:00</time>
      </trkpt>
      <trkpt lat="45.31742" lon="6.13219">
        <ele>1625</ele>
        <time>2024-06-06T03:32:32+00:00</time>
      </trkpt>
      <trkpt lat="45.31739" lon="6.13219">
        <ele>1627</ele>
        <time>2024-06-06T03:32:35+00:00</time>
      </trkpt>
      <trkpt lat="45.31738" lon="6.13219">
        <ele>1627</ele>
        <time>2024-06-06T03:32:38+00:00</time>
      </trkpt>
      <trkpt lat="45.31736" lon="6.13217">
        <ele>1627</ele>
        <time>2024-06-06T03:32:41+00:00</time>
      </trkpt>
      <trkpt lat="45.31735" lon="6.13214">
        <ele>1627</ele>
        <time>2024-06-06T03:32:44+00:00</time>
      </trkpt>
      <trkpt lat="45.31734" lon="6.13212">
        <ele>1627</ele>
        <time>2024-06-06T03:32:47+00:00</time>
      </trkpt>
      <trkpt lat="45.31732" lon="6.13211">
        <ele>1627</ele>
        <time>2024-06-06T03:32:50+00:00</time>
      </trkpt>
      <trkpt lat="45.3173" lon="6.13211">
        <ele>1627</ele>
        <time>2024-06-06T03:32:53+00:00</time>
      </trkpt>
      <trkpt lat="45.31728" lon="6.1321">
        <ele>1627</ele>
        <time>2024-06-06T03:32:56+00:00</time>
      </trkpt>
      <trkpt lat="45.31724" lon="6.13208">
        <ele>1627</ele>
        <time>2024-06-06T03:32:59+00:00</time>
      </trkpt>
      <trkpt lat="45.31721" lon="6.13207">
        <ele>1627</ele>
        <time>2024-06-06T03:33:02+00:00</time>
      </trkpt>
      <trkpt lat="45.31719" lon="6.13206">
        <ele>1630</ele>
        <time>2024-06-06T03:33:05+00:00</time>
      </trkpt>
      <trkpt lat="45.31717" lon="6.13207">
        <ele>1630</ele>
        <time>2024-06-06T03:33:08+00:00</time>
      </trkpt>
      <trkpt lat="45.31716" lon="6.13208">
        <ele>1630</ele>
        <time>2024-06-06T03:33:11+00:00</time>
      </trkpt>
      <trkpt lat="45.31715" lon="6.13207">
        <ele>1630</ele>
        <time>2024-06-06T03:33:14+00:00</time>
      </trkpt>
      <trkpt lat="45.31712" lon="6.13206">
        <ele>1630</ele>
        <time>2024-06-06T03:33:17+00:00</time>
      </trkpt>
      <trkpt lat="45.31709" lon="6.13203">
        <ele>1631</ele>
        <time>2024-06-06T03:33:20+00:00</time>
      </trkpt>
      <trkpt lat="45.31706" lon="6.13202">
        <ele>1631</ele>
        <time>2024-06-06T03:33:23+00:00</time>
      </trkpt>
      <trkpt lat="45.31705" lon="6.13202">
        <ele>1631</ele>
        <time>2024-06-06T03:33:26+00:00</time>
      </trkpt>
      <trkpt lat="45.31703" lon="6.13202">
        <ele>1631</ele>
        <time>2024-06-06T03:33:29+00:00</time>
      </trkpt>
      <trkpt lat="45.317" lon="6.13204">
        <ele>1633</ele>
        <time>2024-06-06T03:33:32+00:00</time>
      </trkpt>
      <trkpt lat="45.31697" lon="6.13204">
        <ele>1633</ele>
        <time>2024-06-06T03:33:35+00:00</time>
      </trkpt>
      <trkpt lat="45.31693" lon="6.13205">
        <ele>1633</ele>
        <time>2024-06-06T03:33:38+00:00</time>
      </trkpt>
      <trkpt lat="45.31688" lon="6.13206">
        <ele>1636</ele>
        <time>2024-06-06T03:33:41+00:00</time>
      </trkpt>
      <trkpt lat="45.31685" lon="6.13206">
        <ele>1636</ele>
        <time>2024-06-06T03:33:44+00:00</time>
      </trkpt>
      <trkpt lat="45.31681" lon="6.13205">
        <ele>1636</ele>
        <time>2024-06-06T03:33:47+00:00</time>
      </trkpt>
      <trkpt lat="45.31679" lon="6.13204">
        <ele>1638</ele>
        <time>2024-06-06T03:33:50+00:00</time>
      </trkpt>
      <trkpt lat="45.31678" lon="6.13202">
        <ele>1638</ele>
        <time>2024-06-06T03:33:53+00:00</time>
      </trkpt>
      <trkpt lat="45.31676" lon="6.13202">
        <ele>1638</ele>
        <time>2024-06-06T03:33:56+00:00</time>
      </trkpt>
      <trkpt lat="45.31669" lon="6.13201">
        <ele>1640</ele>
        <time>2024-06-06T03:33:59+00:00</time>
      </trkpt>
      <trkpt lat="45.31666" lon="6.13201">
        <ele>1640</ele>
        <time>2024-06-06T03:34:02+00:00</time>
      </trkpt>
      <trkpt lat="45.31665" lon="6.13201">
        <ele>1640</ele>
        <time>2024-06-06T03:34:05+00:00</time>
      </trkpt>
      <trkpt lat="45.31664" lon="6.13204">
        <ele>1640</ele>
        <time>2024-06-06T03:34:08+00:00</time>
      </trkpt>
      <trkpt lat="45.31662" lon="6.13204">
        <ele>1640</ele>
        <time>2024-06-06T03:34:11+00:00</time>
      </trkpt>
      <trkpt lat="45.3166" lon="6.13204">
        <ele>1640</ele>
        <time>2024-06-06T03:34:14+00:00</time>
      </trkpt>
      <trkpt lat="45.31657" lon="6.13204">
        <ele>1642</ele>
        <time>2024-06-06T03:34:17+00:00</time>
      </trkpt>
      <trkpt lat="45.31654" lon="6.13203">
        <ele>1642</ele>
        <time>2024-06-06T03:34:20+00:00</time>
      </trkpt>
      <trkpt lat="45.31644" lon="6.13202">
        <ele>1643</ele>
        <time>2024-06-06T03:34:23+00:00</time>
      </trkpt>
      <trkpt lat="45.3164" lon="6.13203">
        <ele>1643</ele>
        <time>2024-06-06T03:34:26+00:00</time>
      </trkpt>
      <trkpt lat="45.31637" lon="6.13203">
        <ele>1645</ele>
        <time>2024-06-06T03:34:29+00:00</time>
      </trkpt>
      <trkpt lat="45.31635" lon="6.13204">
        <ele>1645</ele>
        <time>2024-06-06T03:34:32+00:00</time>
      </trkpt>
      <trkpt lat="45.31634" lon="6.13205">
        <ele>1645</ele>
        <time>2024-06-06T03:34:35+00:00</time>
      </trkpt>
      <trkpt lat="45.31632" lon="6.13205">
        <ele>1645</ele>
        <time>2024-06-06T03:34:38+00:00</time>
      </trkpt>
      <trkpt lat="45.3163" lon="6.13203">
        <ele>1645</ele>
        <time>2024-06-06T03:34:41+00:00</time>
      </trkpt>
      <trkpt lat="45.31628" lon="6.13202">
        <ele>1649</ele>
        <time>2024-06-06T03:34:44+00:00</time>
      </trkpt>
      <trkpt lat="45.31626" lon="6.13201">
        <ele>1649</ele>
        <time>2024-06-06T03:34:47+00:00</time>
      </trkpt>
      <trkpt lat="45.31621" lon="6.13201">
        <ele>1649</ele>
        <time>2024-06-06T03:34:50+00:00</time>
      </trkpt>
      <trkpt lat="45.31619" lon="6.132">
        <ele>1650</ele>
        <time>2024-06-06T03:34:53+00:00</time>
      </trkpt>
      <trkpt lat="45.31614" lon="6.13197">
        <ele>1650</ele>
        <time>2024-06-06T03:34:56+00:00</time>
      </trkpt>
      <trkpt lat="45.31604" lon="6.1319">
        <ele>1651</ele>
        <time>2024-06-06T03:34:59+00:00</time>
      </trkpt>
      <trkpt lat="45.31599" lon="6.13184">
        <ele>1653</ele>
        <time>2024-06-06T03:35:02+00:00</time>
      </trkpt>
      <trkpt lat="45.31596" lon="6.13182">
        <ele>1653</ele>
        <time>2024-06-06T03:35:05+00:00</time>
      </trkpt>
      <trkpt lat="45.31592" lon="6.13182">
        <ele>1653</ele>
        <time>2024-06-06T03:35:08+00:00</time>
      </trkpt>
      <trkpt lat="45.31587" lon="6.13183">
        <ele>1656</ele>
        <time>2024-06-06T03:35:11+00:00</time>
      </trkpt>
      <trkpt lat="45.31581" lon="6.13184">
        <ele>1656</ele>
        <time>2024-06-06T03:35:14+00:00</time>
      </trkpt>
      <trkpt lat="45.31572" lon="6.13184">
        <ele>1657</ele>
        <time>2024-06-06T03:35:17+00:00</time>
      </trkpt>
      <trkpt lat="45.31568" lon="6.13183">
        <ele>1658</ele>
        <time>2024-06-06T03:35:20+00:00</time>
      </trkpt>
      <trkpt lat="45.31567" lon="6.13183">
        <ele>1658</ele>
        <time>2024-06-06T03:35:23+00:00</time>
      </trkpt>
      <trkpt lat="45.31566" lon="6.1318">
        <ele>1658</ele>
        <time>2024-06-06T03:35:26+00:00</time>
      </trkpt>
      <trkpt lat="45.31565" lon="6.13176">
        <ele>1657</ele>
        <time>2024-06-06T03:35:29+00:00</time>
      </trkpt>
      <trkpt lat="45.31566" lon="6.13172">
        <ele>1657</ele>
        <time>2024-06-06T03:35:32+00:00</time>
      </trkpt>
      <trkpt lat="45.31567" lon="6.13165">
        <ele>1659</ele>
        <time>2024-06-06T03:35:35+00:00</time>
      </trkpt>
      <trkpt lat="45.31571" lon="6.13156">
        <ele>1658</ele>
        <time>2024-06-06T03:35:38+00:00</time>
      </trkpt>
      <trkpt lat="45.31572" lon="6.13149">
        <ele>1661</ele>
        <time>2024-06-06T03:35:41+00:00</time>
      </trkpt>
      <trkpt lat="45.31572" lon="6.13145">
        <ele>1661</ele>
        <time>2024-06-06T03:35:44+00:00</time>
      </trkpt>
      <trkpt lat="45.31573" lon="6.13142">
        <ele>1661</ele>
        <time>2024-06-06T03:35:47+00:00</time>
      </trkpt>
      <trkpt lat="45.31576" lon="6.1314">
        <ele>1661</ele>
        <time>2024-06-06T03:35:50+00:00</time>
      </trkpt>
      <trkpt lat="45.31582" lon="6.13136">
        <ele>1661</ele>
        <time>2024-06-06T03:35:53+00:00</time>
      </trkpt>
      <trkpt lat="45.31584" lon="6.13131">
        <ele>1661</ele>
        <time>2024-06-06T03:35:56+00:00</time>
      </trkpt>
      <trkpt lat="45.31586" lon="6.13125">
        <ele>1664</ele>
        <time>2024-06-06T03:35:59+00:00</time>
      </trkpt>
      <trkpt lat="45.31586" lon="6.13123">
        <ele>1664</ele>
        <time>2024-06-06T03:36:02+00:00</time>
      </trkpt>
      <trkpt lat="45.31584" lon="6.13121">
        <ele>1664</ele>
        <time>2024-06-06T03:36:05+00:00</time>
      </trkpt>
      <trkpt lat="45.3158" lon="6.1312">
        <ele>1664</ele>
        <time>2024-06-06T03:36:08+00:00</time>
      </trkpt>
      <trkpt lat="45.31574" lon="6.13122">
        <ele>1665</ele>
        <time>2024-06-06T03:36:11+00:00</time>
      </trkpt>
      <trkpt lat="45.31568" lon="6.13122">
        <ele>1667</ele>
        <time>2024-06-06T03:36:14+00:00</time>
      </trkpt>
      <trkpt lat="45.31557" lon="6.1312">
        <ele>1670</ele>
        <time>2024-06-06T03:36:17+00:00</time>
      </trkpt>
      <trkpt lat="45.31548" lon="6.13119">
        <ele>1672</ele>
        <time>2024-06-06T03:36:20+00:00</time>
      </trkpt>
      <trkpt lat="45.31545" lon="6.13119">
        <ele>1672</ele>
        <time>2024-06-06T03:36:23+00:00</time>
      </trkpt>
      <trkpt lat="45.31538" lon="6.13126">
        <ele>1674</ele>
        <time>2024-06-06T03:36:26+00:00</time>
      </trkpt>
      <trkpt lat="45.31536" lon="6.13128">
        <ele>1674</ele>
        <time>2024-06-06T03:36:29+00:00</time>
      </trkpt>
      <trkpt lat="45.31535" lon="6.13131">
        <ele>1674</ele>
        <time>2024-06-06T03:36:32+00:00</time>
      </trkpt>
      <trkpt lat="45.31535" lon="6.13135">
        <ele>1674</ele>
        <time>2024-06-06T03:36:35+00:00</time>
      </trkpt>
      <trkpt lat="45.31534" lon="6.13141">
        <ele>1674</ele>
        <time>2024-06-06T03:36:38+00:00</time>
      </trkpt>
      <trkpt lat="45.31528" lon="6.13149">
        <ele>1677</ele>
        <time>2024-06-06T03:36:41+00:00</time>
      </trkpt>
      <trkpt lat="45.31522" lon="6.13158">
        <ele>1678</ele>
        <time>2024-06-06T03:36:44+00:00</time>
      </trkpt>
      <trkpt lat="45.31517" lon="6.13166">
        <ele>1680</ele>
        <time>2024-06-06T03:36:47+00:00</time>
      </trkpt>
      <trkpt lat="45.31513" lon="6.13175">
        <ele>1681</ele>
        <time>2024-06-06T03:36:50+00:00</time>
      </trkpt>
      <trkpt lat="45.3151" lon="6.13177">
        <ele>1681</ele>
        <time>2024-06-06T03:36:53+00:00</time>
      </trkpt>
      <trkpt lat="45.31509" lon="6.13178">
        <ele>1683</ele>
        <time>2024-06-06T03:36:56+00:00</time>
      </trkpt>
      <trkpt lat="45.31507" lon="6.1318">
        <ele>1683</ele>
        <time>2024-06-06T03:36:59+00:00</time>
      </trkpt>
      <trkpt lat="45.31504" lon="6.13186">
        <ele>1684</ele>
        <time>2024-06-06T03:37:02+00:00</time>
      </trkpt>
      <trkpt lat="45.31498" lon="6.1319">
        <ele>1687</ele>
        <time>2024-06-06T03:37:05+00:00</time>
      </trkpt>
      <trkpt lat="45.31494" lon="6.13189">
        <ele>1687</ele>
        <time>2024-06-06T03:37:08+00:00</time>
      </trkpt>
      <trkpt lat="45.3149" lon="6.13197">
        <ele>1689</ele>
        <time>2024-06-06T03:37:11+00:00</time>
      </trkpt>
      <trkpt lat="45.31491" lon="6.13208">
        <ele>1688</ele>
        <time>2024-06-06T03:37:14+00:00</time>
      </trkpt>
      <trkpt lat="45.3149" lon="6.13222">
        <ele>1691</ele>
        <time>2024-06-06T03:37:17+00:00</time>
      </trkpt>
      <trkpt lat="45.31487" lon="6.13233">
        <ele>1692</ele>
        <time>2024-06-06T03:37:20+00:00</time>
      </trkpt>
      <trkpt lat="45.31486" lon="6.13236">
        <ele>1692</ele>
        <time>2024-06-06T03:37:23+00:00</time>
      </trkpt>
      <trkpt lat="45.31486" lon="6.13243">
        <ele>1693</ele>
        <time>2024-06-06T03:37:26+00:00</time>
      </trkpt>
      <trkpt lat="45.31482" lon="6.13251">
        <ele>1694</ele>
        <time>2024-06-06T03:37:29+00:00</time>
      </trkpt>
      <trkpt lat="45.31479" lon="6.13255">
        <ele>1697</ele>
        <time>2024-06-06T03:37:32+00:00</time>
      </trkpt>
      <trkpt lat="45.31476" lon="6.13262">
        <ele>1698</ele>
        <time>2024-06-06T03:37:35+00:00</time>
      </trkpt>
      <trkpt lat="45.31476" lon="6.13269">
        <ele>1698</ele>
        <time>2024-06-06T03:37:38+00:00</time>
      </trkpt>
      <trkpt lat="45.31475" lon="6.13277">
        <ele>1701</ele>
        <time>2024-06-06T03:37:41+00:00</time>
      </trkpt>
      <trkpt lat="45.31473" lon="6.13282">
        <ele>1701</ele>
        <time>2024-06-06T03:37:44+00:00</time>
      </trkpt>
      <trkpt lat="45.31471" lon="6.13283">
        <ele>1701</ele>
        <time>2024-06-06T03:37:47+00:00</time>
      </trkpt>
      <trkpt lat="45.31469" lon="6.13283">
        <ele>1708</ele>
        <time>2024-06-06T03:37:50+00:00</time>
      </trkpt>
      <trkpt lat="45.31466" lon="6.13283">
        <ele>1708</ele>
        <time>2024-06-06T03:37:53+00:00</time>
      </trkpt>
      <trkpt lat="45.31463" lon="6.13286">
        <ele>1708</ele>
        <time>2024-06-06T03:37:56+00:00</time>
      </trkpt>
      <trkpt lat="45.31461" lon="6.13291">
        <ele>1708</ele>
        <time>2024-06-06T03:37:59+00:00</time>
      </trkpt>
      <trkpt lat="45.31459" lon="6.13291">
        <ele>1712</ele>
        <time>2024-06-06T03:38:02+00:00</time>
      </trkpt>
      <trkpt lat="45.31456" lon="6.13293">
        <ele>1712</ele>
        <time>2024-06-06T03:38:05+00:00</time>
      </trkpt>
      <trkpt lat="45.31454" lon="6.133">
        <ele>1712</ele>
        <time>2024-06-06T03:38:08+00:00</time>
      </trkpt>
      <trkpt lat="45.31453" lon="6.13304">
        <ele>1714</ele>
        <time>2024-06-06T03:38:11+00:00</time>
      </trkpt>
      <trkpt lat="45.31452" lon="6.13305">
        <ele>1714</ele>
        <time>2024-06-06T03:38:14+00:00</time>
      </trkpt>
      <trkpt lat="45.31449" lon="6.13305">
        <ele>1718</ele>
        <time>2024-06-06T03:38:17+00:00</time>
      </trkpt>
      <trkpt lat="45.31446" lon="6.13304">
        <ele>1718</ele>
        <time>2024-06-06T03:38:20+00:00</time>
      </trkpt>
      <trkpt lat="45.31443" lon="6.13304">
        <ele>1718</ele>
        <time>2024-06-06T03:38:23+00:00</time>
      </trkpt>
      <trkpt lat="45.31442" lon="6.13305">
        <ele>1718</ele>
        <time>2024-06-06T03:38:26+00:00</time>
      </trkpt>
      <trkpt lat="45.31442" lon="6.13307">
        <ele>1718</ele>
        <time>2024-06-06T03:38:29+00:00</time>
      </trkpt>
      <trkpt lat="45.31441" lon="6.1331">
        <ele>1720</ele>
        <time>2024-06-06T03:38:32+00:00</time>
      </trkpt>
      <trkpt lat="45.31435" lon="6.13315">
        <ele>1726</ele>
        <time>2024-06-06T03:38:35+00:00</time>
      </trkpt>
      <trkpt lat="45.31424" lon="6.13318">
        <ele>1729</ele>
        <time>2024-06-06T03:38:38+00:00</time>
      </trkpt>
      <trkpt lat="45.31416" lon="6.13319">
        <ele>1732</ele>
        <time>2024-06-06T03:38:41+00:00</time>
      </trkpt>
      <trkpt lat="45.31411" lon="6.1332">
        <ele>1732</ele>
        <time>2024-06-06T03:38:44+00:00</time>
      </trkpt>
      <trkpt lat="45.31404" lon="6.1332">
        <ele>1736</ele>
        <time>2024-06-06T03:38:47+00:00</time>
      </trkpt>
      <trkpt lat="45.31396" lon="6.13318">
        <ele>1739</ele>
        <time>2024-06-06T03:38:50+00:00</time>
      </trkpt>
      <trkpt lat="45.31392" lon="6.13319">
        <ele>1739</ele>
        <time>2024-06-06T03:38:53+00:00</time>
      </trkpt>
      <trkpt lat="45.3139" lon="6.1332">
        <ele>1742</ele>
        <time>2024-06-06T03:38:56+00:00</time>
      </trkpt>
      <trkpt lat="45.31391" lon="6.13322">
        <ele>1742</ele>
        <time>2024-06-06T03:38:59+00:00</time>
      </trkpt>
      <trkpt lat="45.31392" lon="6.13327">
        <ele>1742</ele>
        <time>2024-06-06T03:39:02+00:00</time>
      </trkpt>
      <trkpt lat="45.31395" lon="6.13334">
        <ele>1746</ele>
        <time>2024-06-06T03:39:05+00:00</time>
      </trkpt>
      <trkpt lat="45.31397" lon="6.13337">
        <ele>1746</ele>
        <time>2024-06-06T03:39:08+00:00</time>
      </trkpt>
      <trkpt lat="45.31396" lon="6.13338">
        <ele>1746</ele>
        <time>2024-06-06T03:39:11+00:00</time>
      </trkpt>
      <trkpt lat="45.31388" lon="6.1334">
        <ele>1749</ele>
        <time>2024-06-06T03:39:14+00:00</time>
      </trkpt>
      <trkpt lat="45.3138" lon="6.13343">
        <ele>1756</ele>
        <time>2024-06-06T03:39:17+00:00</time>
      </trkpt>
      <trkpt lat="45.31376" lon="6.13342">
        <ele>1756</ele>
        <time>2024-06-06T03:39:20+00:00</time>
      </trkpt>
      <trkpt lat="45.31373" lon="6.13342">
        <ele>1756</ele>
        <time>2024-06-06T03:39:23+00:00</time>
      </trkpt>
      <trkpt lat="45.31372" lon="6.13342">
        <ele>1756</ele>
        <time>2024-06-06T03:39:26+00:00</time>
      </trkpt>
      <trkpt lat="45.31373" lon="6.13348">
        <ele>1756</ele>
        <time>2024-06-06T03:39:29+00:00</time>
      </trkpt>
      <trkpt lat="45.31375" lon="6.13353">
        <ele>1759</ele>
        <time>2024-06-06T03:39:32+00:00</time>
      </trkpt>
      <trkpt lat="45.31387" lon="6.13369">
        <ele>1761</ele>
        <time>2024-06-06T03:39:35+00:00</time>
      </trkpt>
      <trkpt lat="45.31388" lon="6.13371">
        <ele>1764</ele>
        <time>2024-06-06T03:39:38+00:00</time>
      </trkpt>
      <trkpt lat="45.31393" lon="6.13381">
        <ele>1765</ele>
        <time>2024-06-06T03:39:41+00:00</time>
      </trkpt>
      <trkpt lat="45.31394" lon="6.13386">
        <ele>1765</ele>
        <time>2024-06-06T03:39:44+00:00</time>
      </trkpt>
      <trkpt lat="45.31393" lon="6.13388">
        <ele>1765</ele>
        <time>2024-06-06T03:39:47+00:00</time>
      </trkpt>
      <trkpt lat="45.31392" lon="6.13388">
        <ele>1765</ele>
        <time>2024-06-06T03:39:50+00:00</time>
      </trkpt>
      <trkpt lat="45.3139" lon="6.13388">
        <ele>1765</ele>
        <time>2024-06-06T03:39:53+00:00</time>
      </trkpt>
      <trkpt lat="45.31386" lon="6.13387">
        <ele>1768</ele>
        <time>2024-06-06T03:39:56+00:00</time>
      </trkpt>
      <trkpt lat="45.31377" lon="6.13385">
        <ele>1772</ele>
        <time>2024-06-06T03:39:59+00:00</time>
      </trkpt>
      <trkpt lat="45.31368" lon="6.13384">
        <ele>1774</ele>
        <time>2024-06-06T03:40:02+00:00</time>
      </trkpt>
      <trkpt lat="45.31363" lon="6.13385">
        <ele>1774</ele>
        <time>2024-06-06T03:40:05+00:00</time>
      </trkpt>
      <trkpt lat="45.31357" lon="6.1339">
        <ele>1775</ele>
        <time>2024-06-06T03:40:08+00:00</time>
      </trkpt>
      <trkpt lat="45.31352" lon="6.13397">
        <ele>1781</ele>
        <time>2024-06-06T03:40:11+00:00</time>
      </trkpt>
      <trkpt lat="45.31351" lon="6.13399">
        <ele>1781</ele>
        <time>2024-06-06T03:40:14+00:00</time>
      </trkpt>
      <trkpt lat="45.31352" lon="6.13401">
        <ele>1785</ele>
        <time>2024-06-06T03:40:17+00:00</time>
      </trkpt>
      <trkpt lat="45.31354" lon="6.13402">
        <ele>1785</ele>
        <time>2024-06-06T03:40:20+00:00</time>
      </trkpt>
      <trkpt lat="45.31361" lon="6.1341">
        <ele>1783</ele>
        <time>2024-06-06T03:40:23+00:00</time>
      </trkpt>
      <trkpt lat="45.31366" lon="6.13414">
        <ele>1787</ele>
        <time>2024-06-06T03:40:26+00:00</time>
      </trkpt>
      <trkpt lat="45.31371" lon="6.13426">
        <ele>1790</ele>
        <time>2024-06-06T03:40:29+00:00</time>
      </trkpt>
      <trkpt lat="45.31374" lon="6.13438">
        <ele>1794</ele>
        <time>2024-06-06T03:40:32+00:00</time>
      </trkpt>
      <trkpt lat="45.31378" lon="6.13451">
        <ele>1803</ele>
        <time>2024-06-06T03:40:35+00:00</time>
      </trkpt>
      <trkpt lat="45.31382" lon="6.13457">
        <ele>1798</ele>
        <time>2024-06-06T03:40:38+00:00</time>
      </trkpt>
      <trkpt lat="45.31386" lon="6.13462">
        <ele>1803</ele>
        <time>2024-06-06T03:40:41+00:00</time>
      </trkpt>
      <trkpt lat="45.31387" lon="6.13464">
        <ele>1803</ele>
        <time>2024-06-06T03:40:44+00:00</time>
      </trkpt>
      <trkpt lat="45.31388" lon="6.13468">
        <ele>1803</ele>
        <time>2024-06-06T03:40:47+00:00</time>
      </trkpt>
      <trkpt lat="45.31391" lon="6.13475">
        <ele>1806</ele>
        <time>2024-06-06T03:40:50+00:00</time>
      </trkpt>
      <trkpt lat="45.31398" lon="6.13483">
        <ele>1813</ele>
        <time>2024-06-06T03:40:53+00:00</time>
      </trkpt>
      <trkpt lat="45.31404" lon="6.13488">
        <ele>1811</ele>
        <time>2024-06-06T03:40:56+00:00</time>
      </trkpt>
      <trkpt lat="45.31406" lon="6.13489">
        <ele>1811</ele>
        <time>2024-06-06T03:40:59+00:00</time>
      </trkpt>
      <trkpt lat="45.31407" lon="6.13491">
        <ele>1815</ele>
        <time>2024-06-06T03:41:02+00:00</time>
      </trkpt>
      <trkpt lat="45.31406" lon="6.13496">
        <ele>1815</ele>
        <time>2024-06-06T03:41:05+00:00</time>
      </trkpt>
      <trkpt lat="45.31404" lon="6.13499">
        <ele>1815</ele>
        <time>2024-06-06T03:41:08+00:00</time>
      </trkpt>
      <trkpt lat="45.31403" lon="6.135">
        <ele>1815</ele>
        <time>2024-06-06T03:41:11+00:00</time>
      </trkpt>
      <trkpt lat="45.31404" lon="6.13502">
        <ele>1820</ele>
        <time>2024-06-06T03:41:14+00:00</time>
      </trkpt>
      <trkpt lat="45.31408" lon="6.13506">
        <ele>1820</ele>
        <time>2024-06-06T03:41:17+00:00</time>
      </trkpt>
      <trkpt lat="45.31409" lon="6.13508">
        <ele>1820</ele>
        <time>2024-06-06T03:41:20+00:00</time>
      </trkpt>
      <trkpt lat="45.31409" lon="6.1351">
        <ele>1827</ele>
        <time>2024-06-06T03:41:23+00:00</time>
      </trkpt>
      <trkpt lat="45.31408" lon="6.13512">
        <ele>1827</ele>
        <time>2024-06-06T03:41:26+00:00</time>
      </trkpt>
      <trkpt lat="45.3141" lon="6.13514">
        <ele>1827</ele>
        <time>2024-06-06T03:41:29+00:00</time>
      </trkpt>
      <trkpt lat="45.31414" lon="6.1352">
        <ele>1824</ele>
        <time>2024-06-06T03:41:32+00:00</time>
      </trkpt>
      <trkpt lat="45.31418" lon="6.13522">
        <ele>1828</ele>
        <time>2024-06-06T03:41:35+00:00</time>
      </trkpt>
      <trkpt lat="45.31421" lon="6.13527">
        <ele>1824</ele>
        <time>2024-06-06T03:41:38+00:00</time>
      </trkpt>
      <trkpt lat="45.31422" lon="6.13533">
        <ele>1827</ele>
        <time>2024-06-06T03:41:41+00:00</time>
      </trkpt>
      <trkpt lat="45.31421" lon="6.13541">
        <ele>1830</ele>
        <time>2024-06-06T03:41:44+00:00</time>
      </trkpt>
      <trkpt lat="45.31418" lon="6.13544">
        <ele>1833</ele>
        <time>2024-06-06T03:41:47+00:00</time>
      </trkpt>
      <trkpt lat="45.31416" lon="6.13544">
        <ele>1833</ele>
        <time>2024-06-06T03:41:50+00:00</time>
      </trkpt>
      <trkpt lat="45.31414" lon="6.13546">
        <ele>1833</ele>
        <time>2024-06-06T03:41:53+00:00</time>
      </trkpt>
      <trkpt lat="45.31411" lon="6.1355">
        <ele>1833</ele>
        <time>2024-06-06T03:41:56+00:00</time>
      </trkpt>
      <trkpt lat="45.31407" lon="6.13559">
        <ele>1837</ele>
        <time>2024-06-06T03:41:59+00:00</time>
      </trkpt>
      <trkpt lat="45.31401" lon="6.13563">
        <ele>1837</ele>
        <time>2024-06-06T03:42:02+00:00</time>
      </trkpt>
      <trkpt lat="45.31399" lon="6.1357">
        <ele>1840</ele>
        <time>2024-06-06T03:42:05+00:00</time>
      </trkpt>
      <trkpt lat="45.31395" lon="6.13574">
        <ele>1839</ele>
        <time>2024-06-06T03:42:08+00:00</time>
      </trkpt>
      <trkpt lat="45.31384" lon="6.13584">
        <ele>1841</ele>
        <time>2024-06-06T03:42:11+00:00</time>
      </trkpt>
      <trkpt lat="45.31378" lon="6.13587">
        <ele>1847</ele>
        <time>2024-06-06T03:42:14+00:00</time>
      </trkpt>
      <trkpt lat="45.31373" lon="6.13591">
        <ele>1845</ele>
        <time>2024-06-06T03:42:17+00:00</time>
      </trkpt>
      <trkpt lat="45.31367" lon="6.13593">
        <ele>1849</ele>
        <time>2024-06-06T03:42:20+00:00</time>
      </trkpt>
      <trkpt lat="45.31367" lon="6.13589">
        <ele>1851</ele>
        <time>2024-06-06T03:42:23+00:00</time>
      </trkpt>
      <trkpt lat="45.31369" lon="6.13585">
        <ele>1851</ele>
        <time>2024-06-06T03:42:26+00:00</time>
      </trkpt>
      <trkpt lat="45.3137" lon="6.1358">
        <ele>1847</ele>
        <time>2024-06-06T03:42:29+00:00</time>
      </trkpt>
      <trkpt lat="45.31359" lon="6.13581">
        <ele>1854</ele>
        <time>2024-06-06T03:42:32+00:00</time>
      </trkpt>
      <trkpt lat="45.31348" lon="6.13585">
        <ele>1861</ele>
        <time>2024-06-06T03:42:35+00:00</time>
      </trkpt>
      <trkpt lat="45.31344" lon="6.13588">
        <ele>1861</ele>
        <time>2024-06-06T03:42:38+00:00</time>
      </trkpt>
      <trkpt lat="45.31341" lon="6.13586">
        <ele>1861</ele>
        <time>2024-06-06T03:42:41+00:00</time>
      </trkpt>
      <trkpt lat="45.31338" lon="6.1359">
        <ele>1865</ele>
        <time>2024-06-06T03:42:44+00:00</time>
      </trkpt>
      <trkpt lat="45.31332" lon="6.13592">
        <ele>1865</ele>
        <time>2024-06-06T03:42:47+00:00</time>
      </trkpt>
      <trkpt lat="45.31325" lon="6.13589">
        <ele>1868</ele>
        <time>2024-06-06T03:42:50+00:00</time>
      </trkpt>
      <trkpt lat="45.31322" lon="6.13585">
        <ele>1868</ele>
        <time>2024-06-06T03:42:53+00:00</time>
      </trkpt>
      <trkpt lat="45.31317" lon="6.13583">
        <ele>1873</ele>
        <time>2024-06-06T03:42:56+00:00</time>
      </trkpt>
      <trkpt lat="45.31313" lon="6.13585">
        <ele>1873</ele>
        <time>2024-06-06T03:42:59+00:00</time>
      </trkpt>
      <trkpt lat="45.31311" lon="6.13593">
        <ele>1875</ele>
        <time>2024-06-06T03:43:02+00:00</time>
      </trkpt>
      <trkpt lat="45.31309" lon="6.13595">
        <ele>1880</ele>
        <time>2024-06-06T03:43:05+00:00</time>
      </trkpt>
      <trkpt lat="45.31307" lon="6.13599">
        <ele>1880</ele>
        <time>2024-06-06T03:43:08+00:00</time>
      </trkpt>
      <trkpt lat="45.31303" lon="6.13608">
        <ele>1881</ele>
        <time>2024-06-06T03:43:11+00:00</time>
      </trkpt>
      <trkpt lat="45.31299" lon="6.13614">
        <ele>1887</ele>
        <time>2024-06-06T03:43:14+00:00</time>
      </trkpt>
      <trkpt lat="45.31298" lon="6.13602">
        <ele>1886</ele>
        <time>2024-06-06T03:43:17+00:00</time>
      </trkpt>
      <trkpt lat="45.31296" lon="6.13595">
        <ele>1885</ele>
        <time>2024-06-06T03:43:20+00:00</time>
      </trkpt>
      <trkpt lat="45.31294" lon="6.13593">
        <ele>1885</ele>
        <time>2024-06-06T03:43:23+00:00</time>
      </trkpt>
      <trkpt lat="45.31292" lon="6.13593">
        <ele>1885</ele>
        <time>2024-06-06T03:43:26+00:00</time>
      </trkpt>
      <trkpt lat="45.3129" lon="6.13591">
        <ele>1885</ele>
        <time>2024-06-06T03:43:29+00:00</time>
      </trkpt>
      <trkpt lat="45.31289" lon="6.13589">
        <ele>1890</ele>
        <time>2024-06-06T03:43:32+00:00</time>
      </trkpt>
      <trkpt lat="45.31287" lon="6.13583">
        <ele>1890</ele>
        <time>2024-06-06T03:43:35+00:00</time>
      </trkpt>
      <trkpt lat="45.31283" lon="6.13581">
        <ele>1890</ele>
        <time>2024-06-06T03:43:38+00:00</time>
      </trkpt>
      <trkpt lat="45.31279" lon="6.1358">
        <ele>1892</ele>
        <time>2024-06-06T03:43:41+00:00</time>
      </trkpt>
      <trkpt lat="45.31275" lon="6.13576">
        <ele>1892</ele>
        <time>2024-06-06T03:43:44+00:00</time>
      </trkpt>
      <trkpt lat="45.31274" lon="6.13575">
        <ele>1892</ele>
        <time>2024-06-06T03:43:47+00:00</time>
      </trkpt>
      <trkpt lat="45.31273" lon="6.13576">
        <ele>1892</ele>
        <time>2024-06-06T03:43:50+00:00</time>
      </trkpt>
      <trkpt lat="45.31272" lon="6.13578">
        <ele>1892</ele>
        <time>2024-06-06T03:43:53+00:00</time>
      </trkpt>
      <trkpt lat="45.31271" lon="6.13578">
        <ele>1892</ele>
        <time>2024-06-06T03:43:56+00:00</time>
      </trkpt>
      <trkpt lat="45.31268" lon="6.13578">
        <ele>1897</ele>
        <time>2024-06-06T03:43:59+00:00</time>
      </trkpt>
      <trkpt lat="45.31267" lon="6.13578">
        <ele>1897</ele>
        <time>2024-06-06T03:44:02+00:00</time>
      </trkpt>
      <trkpt lat="45.31267" lon="6.13581">
        <ele>1900</ele>
        <time>2024-06-06T03:44:05+00:00</time>
      </trkpt>
      <trkpt lat="45.31267" lon="6.13585">
        <ele>1900</ele>
        <time>2024-06-06T03:44:08+00:00</time>
      </trkpt>
      <trkpt lat="45.31266" lon="6.1359">
        <ele>1900</ele>
        <time>2024-06-06T03:44:11+00:00</time>
      </trkpt>
      <trkpt lat="45.31264" lon="6.13591">
        <ele>1903</ele>
        <time>2024-06-06T03:44:14+00:00</time>
      </trkpt>
      <trkpt lat="45.31262" lon="6.1359">
        <ele>1903</ele>
        <time>2024-06-06T03:44:17+00:00</time>
      </trkpt>
      <trkpt lat="45.31261" lon="6.13591">
        <ele>1903</ele>
        <time>2024-06-06T03:44:20+00:00</time>
      </trkpt>
      <trkpt lat="45.31259" lon="6.13591">
        <ele>1909</ele>
        <time>2024-06-06T03:44:23+00:00</time>
      </trkpt>
      <trkpt lat="45.31255" lon="6.13587">
        <ele>1907</ele>
        <time>2024-06-06T03:44:26+00:00</time>
      </trkpt>
      <trkpt lat="45.3125" lon="6.13583">
        <ele>1911</ele>
        <time>2024-06-06T03:44:29+00:00</time>
      </trkpt>
      <trkpt lat="45.31245" lon="6.1358">
        <ele>1911</ele>
        <time>2024-06-06T03:44:32+00:00</time>
      </trkpt>
      <trkpt lat="45.31241" lon="6.13579">
        <ele>1910</ele>
        <time>2024-06-06T03:44:35+00:00</time>
      </trkpt>
      <trkpt lat="45.3124" lon="6.13578">
        <ele>1917</ele>
        <time>2024-06-06T03:44:38+00:00</time>
      </trkpt>
      <trkpt lat="45.31238" lon="6.13571">
        <ele>1917</ele>
        <time>2024-06-06T03:44:41+00:00</time>
      </trkpt>
      <trkpt lat="45.31235" lon="6.13555">
        <ele>1917</ele>
        <time>2024-06-06T03:44:44+00:00</time>
      </trkpt>
      <trkpt lat="45.31232" lon="6.13547">
        <ele>1917</ele>
        <time>2024-06-06T03:44:47+00:00</time>
      </trkpt>
      <trkpt lat="45.3123" lon="6.13543">
        <ele>1926</ele>
        <time>2024-06-06T03:44:50+00:00</time>
      </trkpt>
      <trkpt lat="45.31228" lon="6.13543">
        <ele>1926</ele>
        <time>2024-06-06T03:44:53+00:00</time>
      </trkpt>
      <trkpt lat="45.31227" lon="6.13546">
        <ele>1926</ele>
        <time>2024-06-06T03:44:56+00:00</time>
      </trkpt>
      <trkpt lat="45.31222" lon="6.13555">
        <ele>1927</ele>
        <time>2024-06-06T03:44:59+00:00</time>
      </trkpt>
      <trkpt lat="45.3122" lon="6.13562">
        <ele>1927</ele>
        <time>2024-06-06T03:45:02+00:00</time>
      </trkpt>
      <trkpt lat="45.31217" lon="6.13572">
        <ele>1939</ele>
        <time>2024-06-06T03:45:05+00:00</time>
      </trkpt>
      <trkpt lat="45.31211" lon="6.1359">
        <ele>1933</ele>
        <time>2024-06-06T03:45:08+00:00</time>
      </trkpt>
      <trkpt lat="45.31206" lon="6.13601">
        <ele>1943</ele>
        <time>2024-06-06T03:45:11+00:00</time>
      </trkpt>
      <trkpt lat="45.31203" lon="6.13609">
        <ele>1943</ele>
        <time>2024-06-06T03:45:14+00:00</time>
      </trkpt>
      <trkpt lat="45.312" lon="6.13611">
        <ele>1941</ele>
        <time>2024-06-06T03:45:17+00:00</time>
      </trkpt>
      <trkpt lat="45.31198" lon="6.13613">
        <ele>1945</ele>
        <time>2024-06-06T03:45:20+00:00</time>
      </trkpt>
      <trkpt lat="45.31193" lon="6.13623">
        <ele>1955</ele>
        <time>2024-06-06T03:45:23+00:00</time>
      </trkpt>
      <trkpt lat="45.3119" lon="6.1363">
        <ele>1965</ele>
        <time>2024-06-06T03:45:26+00:00</time>
      </trkpt>
      <trkpt lat="45.31183" lon="6.13641">
        <ele>1957</ele>
        <time>2024-06-06T03:45:29+00:00</time>
      </trkpt>
      <trkpt lat="45.31174" lon="6.13644">
        <ele>1967</ele>
        <time>2024-06-06T03:45:32+00:00</time>
      </trkpt>
      <trkpt lat="45.31168" lon="6.13649">
        <ele>1980</ele>
        <time>2024-06-06T03:45:35+00:00</time>
      </trkpt>
      <trkpt lat="45.31164" lon="6.13654">
        <ele>1977</ele>
        <time>2024-06-06T03:45:38+00:00</time>
      </trkpt>
      <trkpt lat="45.31154" lon="6.13657">
        <ele>1985</ele>
        <time>2024-06-06T03:45:41+00:00</time>
      </trkpt>
      <trkpt lat="45.31149" lon="6.13667">
        <ele>1990</ele>
        <time>2024-06-06T03:45:44+00:00</time>
      </trkpt>
      <trkpt lat="45.31145" lon="6.13672">
        <ele>1988</ele>
        <time>2024-06-06T03:45:47+00:00</time>
      </trkpt>
      <trkpt lat="45.31138" lon="6.13674">
        <ele>1999</ele>
        <time>2024-06-06T03:45:50+00:00</time>
      </trkpt>
      <trkpt lat="45.31135" lon="6.13673">
        <ele>1999</ele>
        <time>2024-06-06T03:45:53+00:00</time>
      </trkpt>
      <trkpt lat="45.31131" lon="6.13671">
        <ele>1999</ele>
        <time>2024-06-06T03:45:56+00:00</time>
      </trkpt>
      <trkpt lat="45.31127" lon="6.13669">
        <ele>2007</ele>
        <time>2024-06-06T03:45:59+00:00</time>
      </trkpt>
      <trkpt lat="45.31121" lon="6.13673">
        <ele>2005</ele>
        <time>2024-06-06T03:46:02+00:00</time>
      </trkpt>
      <trkpt lat="45.31121" lon="6.13669">
        <ele>2007</ele>
        <time>2024-06-06T03:46:05+00:00</time>
      </trkpt>
      <trkpt lat="45.3112" lon="6.13665">
        <ele>2007</ele>
        <time>2024-06-06T03:46:08+00:00</time>
      </trkpt>
      <trkpt lat="45.31123" lon="6.13657">
        <ele>2009</ele>
        <time>2024-06-06T03:46:11+00:00</time>
      </trkpt>
      <trkpt lat="45.31119" lon="6.13657">
        <ele>2014</ele>
        <time>2024-06-06T03:46:14+00:00</time>
      </trkpt>
      <trkpt lat="45.31117" lon="6.13653">
        <ele>2014</ele>
        <time>2024-06-06T03:46:17+00:00</time>
      </trkpt>
      <trkpt lat="45.31114" lon="6.13656">
        <ele>2014</ele>
        <time>2024-06-06T03:46:20+00:00</time>
      </trkpt>
      <trkpt lat="45.31109" lon="6.13653">
        <ele>2024</ele>
        <time>2024-06-06T03:46:23+00:00</time>
      </trkpt>
      <trkpt lat="45.31105" lon="6.13653">
        <ele>2024</ele>
        <time>2024-06-06T03:46:26+00:00</time>
      </trkpt>
      <trkpt lat="45.31102" lon="6.13653">
        <ele>2024</ele>
        <time>2024-06-06T03:46:29+00:00</time>
      </trkpt>
      <trkpt lat="45.31101" lon="6.13647">
        <ele>2026</ele>
        <time>2024-06-06T03:46:32+00:00</time>
      </trkpt>
      <trkpt lat="45.31095" lon="6.13651">
        <ele>2032</ele>
        <time>2024-06-06T03:46:35+00:00</time>
      </trkpt>
      <trkpt lat="45.3109" lon="6.13656">
        <ele>2032</ele>
        <time>2024-06-06T03:46:38+00:00</time>
      </trkpt>
      <trkpt lat="45.31085" lon="6.13662">
        <ele>2034</ele>
        <time>2024-06-06T03:46:41+00:00</time>
      </trkpt>
      <trkpt lat="45.31077" lon="6.1367">
        <ele>2039</ele>
        <time>2024-06-06T03:46:44+00:00</time>
      </trkpt>
      <trkpt lat="45.31073" lon="6.13675">
        <ele>2039</ele>
        <time>2024-06-06T03:46:47+00:00</time>
      </trkpt>
      <trkpt lat="45.31069" lon="6.13675">
        <ele>2044</ele>
        <time>2024-06-06T03:46:50+00:00</time>
      </trkpt>
      <trkpt lat="45.3107" lon="6.13671">
        <ele>2044</ele>
        <time>2024-06-06T03:46:53+00:00</time>
      </trkpt>
      <trkpt lat="45.31066" lon="6.13671">
        <ele>2044</ele>
        <time>2024-06-06T03:46:56+00:00</time>
      </trkpt>
      <trkpt lat="45.31067" lon="6.13666">
        <ele>2047</ele>
        <time>2024-06-06T03:46:59+00:00</time>
      </trkpt>
      <trkpt lat="45.31062" lon="6.13667">
        <ele>2047</ele>
        <time>2024-06-06T03:47:02+00:00</time>
      </trkpt>
      <trkpt lat="45.31061" lon="6.13664">
        <ele>2047</ele>
        <time>2024-06-06T03:47:05+00:00</time>
      </trkpt>
      <trkpt lat="45.31059" lon="6.13667">
        <ele>2052</ele>
        <time>2024-06-06T03:47:08+00:00</time>
      </trkpt>
      <trkpt lat="45.31058" lon="6.13662">
        <ele>2052</ele>
        <time>2024-06-06T03:47:11+00:00</time>
      </trkpt>
      <trkpt lat="45.31056" lon="6.13665">
        <ele>2052</ele>
        <time>2024-06-06T03:47:14+00:00</time>
      </trkpt>
      <trkpt lat="45.31051" lon="6.13671">
        <ele>2049</ele>
        <time>2024-06-06T03:47:17+00:00</time>
      </trkpt>
      <trkpt lat="45.31049" lon="6.13676">
        <ele>2056</ele>
        <time>2024-06-06T03:47:20+00:00</time>
      </trkpt>
      <trkpt lat="45.31045" lon="6.13677">
        <ele>2056</ele>
        <time>2024-06-06T03:47:23+00:00</time>
      </trkpt>
      <trkpt lat="45.31045" lon="6.13672">
        <ele>2056</ele>
        <time>2024-06-06T03:47:26+00:00</time>
      </trkpt>
      <trkpt lat="45.31041" lon="6.13671">
        <ele>2056</ele>
        <time>2024-06-06T03:47:29+00:00</time>
      </trkpt>
      <trkpt lat="45.3104" lon="6.13669">
        <ele>2063</ele>
        <time>2024-06-06T03:47:32+00:00</time>
      </trkpt>
      <trkpt lat="45.31038" lon="6.1367">
        <ele>2061</ele>
        <time>2024-06-06T03:47:35+00:00</time>
      </trkpt>
      <trkpt lat="45.31037" lon="6.13667">
        <ele>2063</ele>
        <time>2024-06-06T03:47:38+00:00</time>
      </trkpt>
      <trkpt lat="45.31033" lon="6.13674">
        <ele>2061</ele>
        <time>2024-06-06T03:47:41+00:00</time>
      </trkpt>
      <trkpt lat="45.31029" lon="6.13675">
        <ele>2068</ele>
        <time>2024-06-06T03:47:44+00:00</time>
      </trkpt>
      <trkpt lat="45.31026" lon="6.13678">
        <ele>2068</ele>
        <time>2024-06-06T03:47:47+00:00</time>
      </trkpt>
      <trkpt lat="45.31021" lon="6.13684">
        <ele>2066</ele>
        <time>2024-06-06T03:47:50+00:00</time>
      </trkpt>
      <trkpt lat="45.31015" lon="6.13692">
        <ele>2074</ele>
        <time>2024-06-06T03:47:53+00:00</time>
      </trkpt>
      <trkpt lat="45.3101" lon="6.13702">
        <ele>2072</ele>
        <time>2024-06-06T03:47:56+00:00</time>
      </trkpt>
      <trkpt lat="45.31004" lon="6.13705">
        <ele>2081</ele>
        <time>2024-06-06T03:47:59+00:00</time>
      </trkpt>
      <trkpt lat="45.30999" lon="6.13712">
        <ele>2089</ele>
        <time>2024-06-06T03:48:02+00:00</time>
      </trkpt>
      <trkpt lat="45.30998" lon="6.13714">
        <ele>2089</ele>
        <time>2024-06-06T03:48:05+00:00</time>
      </trkpt>
      <trkpt lat="45.30996" lon="6.13718">
        <ele>2089</ele>
        <time>2024-06-06T03:48:08+00:00</time>
      </trkpt>
      <trkpt lat="45.30994" lon="6.13722">
        <ele>2086</ele>
        <time>2024-06-06T03:48:11+00:00</time>
      </trkpt>
      <trkpt lat="45.30992" lon="6.13727">
        <ele>2086</ele>
        <time>2024-06-06T03:48:14+00:00</time>
      </trkpt>
      <trkpt lat="45.30972" lon="6.13763">
        <ele>2100</ele>
        <time>2024-06-06T03:48:17+00:00</time>
      </trkpt>
      <trkpt lat="45.30963" lon="6.13787">
        <ele>2107</ele>
        <time>2024-06-06T03:48:20+00:00</time>
      </trkpt>
      <trkpt lat="45.30958" lon="6.13806">
        <ele>2119</ele>
        <time>2024-06-06T03:48:23+00:00</time>
      </trkpt>
      <trkpt lat="45.30958" lon="6.13831">
        <ele>2123</ele>
        <time>2024-06-06T03:48:26+00:00</time>
      </trkpt>
      <trkpt lat="45.30949" lon="6.13837">
        <ele>2128</ele>
        <time>2024-06-06T03:48:29+00:00</time>
      </trkpt>
      <trkpt lat="45.30966" lon="6.13884">
        <ele>2123</ele>
        <time>2024-06-06T03:48:32+00:00</time>
      </trkpt>
      <trkpt lat="45.30945" lon="6.1393">
        <ele>2131</ele>
        <time>2024-06-06T03:48:35+00:00</time>
      </trkpt>
      <trkpt lat="45.30935" lon="6.13981">
        <ele>2133</ele>
        <time>2024-06-06T03:48:38+00:00</time>
      </trkpt>
      <trkpt lat="45.30937" lon="6.14031">
        <ele>2132</ele>
        <time>2024-06-06T03:48:41+00:00</time>
      </trkpt>
      <trkpt lat="45.30937" lon="6.14031">
        <ele>2136</ele>
        <time>2024-06-06T03:48:44+00:00</time>
      </trkpt>
      <trkpt lat="45.3095" lon="6.14078">
        <ele>2132</ele>
        <time>2024-06-06T03:48:47+00:00</time>
      </trkpt>
      <trkpt lat="45.30962" lon="6.14141">
        <ele>2138</ele>
        <time>2024-06-06T03:48:50+00:00</time>
      </trkpt>
      <trkpt lat="45.3098" lon="6.14173">
        <ele>2140</ele>
        <time>2024-06-06T03:48:53+00:00</time>
      </trkpt>
      <trkpt lat="45.30981" lon="6.14205">
        <ele>2140</ele>
        <time>2024-06-06T03:48:56+00:00</time>
      </trkpt>
      <trkpt lat="45.30992" lon="6.14227">
        <ele>2141</ele>
        <time>2024-06-06T03:48:59+00:00</time>
      </trkpt>
      <trkpt lat="45.30995" lon="6.14277">
        <ele>2142</ele>
        <time>2024-06-06T03:49:02+00:00</time>
      </trkpt>
      <trkpt lat="45.31016" lon="6.14317">
        <ele>2149</ele>
        <time>2024-06-06T03:49:05+00:00</time>
      </trkpt>
      <trkpt lat="45.31028" lon="6.14365">
        <ele>2160</ele>
        <time>2024-06-06T03:49:08+00:00</time>
      </trkpt>
      <trkpt lat="45.31042" lon="6.14397">
        <ele>2177</ele>
        <time>2024-06-06T03:49:11+00:00</time>
      </trkpt>
      <trkpt lat="45.31059" lon="6.14435">
        <ele>2191</ele>
        <time>2024-06-06T03:49:14+00:00</time>
      </trkpt>
      <trkpt lat="45.31075" lon="6.14451">
        <ele>2197</ele>
        <time>2024-06-06T03:49:17+00:00</time>
      </trkpt>
      <trkpt lat="45.31088" lon="6.1448">
        <ele>2201</ele>
        <time>2024-06-06T03:49:20+00:00</time>
      </trkpt>
      <trkpt lat="45.311" lon="6.14509">
        <ele>2211</ele>
        <time>2024-06-06T03:49:23+00:00</time>
      </trkpt>
      <trkpt lat="45.31134" lon="6.14548">
        <ele>2230</ele>
        <time>2024-06-06T03:49:26+00:00</time>
      </trkpt>
      <trkpt lat="45.31154" lon="6.14569">
        <ele>2233</ele>
        <time>2024-06-06T03:49:29+00:00</time>
      </trkpt>
      <trkpt lat="45.31173" lon="6.1459">
        <ele>2238</ele>
        <time>2024-06-06T03:49:32+00:00</time>
      </trkpt>
      <trkpt lat="45.31188" lon="6.14616">
        <ele>2247</ele>
        <time>2024-06-06T03:49:35+00:00</time>
      </trkpt>
      <trkpt lat="45.31205" lon="6.14653">
        <ele>2263</ele>
        <time>2024-06-06T03:49:38+00:00</time>
      </trkpt>
      <trkpt lat="45.31202" lon="6.14671">
        <ele>2269</ele>
        <time>2024-06-06T03:49:41+00:00</time>
      </trkpt>
      <trkpt lat="45.31213" lon="6.14706">
        <ele>2274</ele>
        <time>2024-06-06T03:49:44+00:00</time>
      </trkpt>
      <trkpt lat="45.31223" lon="6.14772">
        <ele>2289</ele>
        <time>2024-06-06T03:49:47+00:00</time>
      </trkpt>
      <trkpt lat="45.31224" lon="6.14807">
        <ele>2302</ele>
        <time>2024-06-06T03:49:50+00:00</time>
      </trkpt>
      <trkpt lat="45.31226" lon="6.14844">
        <ele>2313</ele>
        <time>2024-06-06T03:49:53+00:00</time>
      </trkpt>
      <trkpt lat="45.3124" lon="6.14872">
        <ele>2316</ele>
        <time>2024-06-06T03:49:56+00:00</time>
      </trkpt>
      <trkpt lat="45.31255" lon="6.14902">
        <ele>2323</ele>
        <time>2024-06-06T03:49:59+00:00</time>
      </trkpt>
      <trkpt lat="45.31264" lon="6.14939">
        <ele>2334</ele>
        <time>2024-06-06T03:50:02+00:00</time>
      </trkpt>
      <trkpt lat="45.31276" lon="6.14991">
        <ele>2348</ele>
        <time>2024-06-06T03:50:05+00:00</time>
      </trkpt>
      <trkpt lat="45.31294" lon="6.15038">
        <ele>2363</ele>
        <time>2024-06-06T03:50:08+00:00</time>
      </trkpt>
      <trkpt lat="45.31312" lon="6.15041">
        <ele>2369</ele>
        <time>2024-06-06T03:50:11+00:00</time>
      </trkpt>
      <trkpt lat="45.31319" lon="6.15055">
        <ele>2371</ele>
        <time>2024-06-06T03:50:14+00:00</time>
      </trkpt>
      <trkpt lat="45.31333" lon="6.15061">
        <ele>2380</ele>
        <time>2024-06-06T03:50:17+00:00</time>
      </trkpt>
      <trkpt lat="45.31341" lon="6.15082">
        <ele>2387</ele>
        <time>2024-06-06T03:50:20+00:00</time>
      </trkpt>
      <trkpt lat="45.3135" lon="6.15105">
        <ele>2391</ele>
        <time>2024-06-06T03:50:23+00:00</time>
      </trkpt>
      <trkpt lat="45.31362" lon="6.15115">
        <ele>2401</ele>
        <time>2024-06-06T03:50:26+00:00</time>
      </trkpt>
      <trkpt lat="45.31371" lon="6.15128">
        <ele>2407</ele>
        <time>2024-06-06T03:50:29+00:00</time>
      </trkpt>
      <trkpt lat="45.31393" lon="6.15182">
        <ele>2427</ele>
        <time>2024-06-06T03:50:32+00:00</time>
      </trkpt>
      <trkpt lat="45.31393" lon="6.15202">
        <ele>2430</ele>
        <time>2024-06-06T03:50:35+00:00</time>
      </trkpt>
      <trkpt lat="45.31402" lon="6.1524">
        <ele>2440</ele>
        <time>2024-06-06T03:50:38+00:00</time>
      </trkpt>
      <trkpt lat="45.31403" lon="6.15276">
        <ele>2450</ele>
        <time>2024-06-06T03:50:41+00:00</time>
      </trkpt>
      <trkpt lat="45.31405" lon="6.15317">
        <ele>2461</ele>
        <time>2024-06-06T03:50:44+00:00</time>
      </trkpt>
      <trkpt lat="45.31422" lon="6.15334">
        <ele>2475</ele>
        <time>2024-06-06T03:50:47+00:00</time>
      </trkpt>
      <trkpt lat="45.31442" lon="6.1534">
        <ele>2491</ele>
        <time>2024-06-06T03:50:50+00:00</time>
      </trkpt>
      <trkpt lat="45.31455" lon="6.154">
        <ele>2484</ele>
        <time>2024-06-06T03:50:53+00:00</time>
      </trkpt>
      <trkpt lat="45.31438" lon="6.15404">
        <ele>2488</ele>
        <time>2024-06-06T03:50:56+00:00</time>
      </trkpt>
      <trkpt lat="45.31436" lon="6.15427">
        <ele>2477</ele>
        <time>2024-06-06T03:50:59+00:00</time>
      </trkpt>
      <trkpt lat="45.31432" lon="6.15441">
        <ele>2469</ele>
        <time>2024-06-06T03:51:02+00:00</time>
      </trkpt>
      <trkpt lat="45.3143" lon="6.15463">
        <ele>2464</ele>
        <time>2024-06-06T03:51:05+00:00</time>
      </trkpt>
      <trkpt lat="45.31443" lon="6.1549">
        <ele>2450</ele>
        <time>2024-06-06T03:51:08+00:00</time>
      </trkpt>
      <trkpt lat="45.31459" lon="6.15513">
        <ele>2444</ele>
        <time>2024-06-06T03:51:11+00:00</time>
      </trkpt>
      <trkpt lat="45.31463" lon="6.15555">
        <ele>2431</ele>
        <time>2024-06-06T03:51:14+00:00</time>
      </trkpt>
      <trkpt lat="45.31467" lon="6.1559">
        <ele>2422</ele>
        <time>2024-06-06T03:51:17+00:00</time>
      </trkpt>
      <trkpt lat="45.31471" lon="6.15628">
        <ele>2411</ele>
        <time>2024-06-06T03:51:20+00:00</time>
      </trkpt>
      <trkpt lat="45.31476" lon="6.15663">
        <ele>2403</ele>
        <time>2024-06-06T03:51:23+00:00</time>
      </trkpt>
      <trkpt lat="45.3148" lon="6.15701">
        <ele>2396</ele>
        <time>2024-06-06T03:51:26+00:00</time>
      </trkpt>
      <trkpt lat="45.31493" lon="6.15738">
        <ele>2388</ele>
        <time>2024-06-06T03:51:29+00:00</time>
      </trkpt>
      <trkpt lat="45.31504" lon="6.15768">
        <ele>2380</ele>
        <time>2024-06-06T03:51:32+00:00</time>
      </trkpt>
      <trkpt lat="45.31515" lon="6.15798">
        <ele>2372</ele>
        <time>2024-06-06T03:51:35+00:00</time>
      </trkpt>
      <trkpt lat="45.31532" lon="6.15822">
        <ele>2361</ele>
        <time>2024-06-06T03:51:38+00:00</time>
      </trkpt>
      <trkpt lat="45.31575" lon="6.15836">
        <ele>2334</ele>
        <time>2024-06-06T03:51:41+00:00</time>
      </trkpt>
      <trkpt lat="45.31605" lon="6.15842">
        <ele>2317</ele>
        <time>2024-06-06T03:51:44+00:00</time>
      </trkpt>
      <trkpt lat="45.31643" lon="6.15831">
        <ele>2290</ele>
        <time>2024-06-06T03:51:47+00:00</time>
      </trkpt>
      <trkpt lat="45.31655" lon="6.15833">
        <ele>2285</ele>
        <time>2024-06-06T03:51:50+00:00</time>
      </trkpt>
      <trkpt lat="45.31687" lon="6.15838">
        <ele>2261</ele>
        <time>2024-06-06T03:51:53+00:00</time>
      </trkpt>
      <trkpt lat="45.31705" lon="6.15836">
        <ele>2243</ele>
        <time>2024-06-06T03:51:56+00:00</time>
      </trkpt>
      <trkpt lat="45.3172" lon="6.15812">
        <ele>2234</ele>
        <time>2024-06-06T03:51:59+00:00</time>
      </trkpt>
      <trkpt lat="45.31735" lon="6.15811">
        <ele>2218</ele>
        <time>2024-06-06T03:52:02+00:00</time>
      </trkpt>
      <trkpt lat="45.31743" lon="6.15803">
        <ele>2211</ele>
        <time>2024-06-06T03:52:05+00:00</time>
      </trkpt>
      <trkpt lat="45.31754" lon="6.15806">
        <ele>2204</ele>
        <time>2024-06-06T03:52:08+00:00</time>
      </trkpt>
      <trkpt lat="45.31779" lon="6.15802">
        <ele>2194</ele>
        <time>2024-06-06T03:52:11+00:00</time>
      </trkpt>
      <trkpt lat="45.31797" lon="6.15791">
        <ele>2182</ele>
        <time>2024-06-06T03:52:14+00:00</time>
      </trkpt>
      <trkpt lat="45.3181" lon="6.15793">
        <ele>2170</ele>
        <time>2024-06-06T03:52:17+00:00</time>
      </trkpt>
      <trkpt lat="45.31825" lon="6.15794">
        <ele>2166</ele>
        <time>2024-06-06T03:52:20+00:00</time>
      </trkpt>
      <trkpt lat="45.31852" lon="6.15776">
        <ele>2148</ele>
        <time>2024-06-06T03:52:23+00:00</time>
      </trkpt>
      <trkpt lat="45.31868" lon="6.15768">
        <ele>2143</ele>
        <time>2024-06-06T03:52:26+00:00</time>
      </trkpt>
      <trkpt lat="45.31885" lon="6.15778">
        <ele>2136</ele>
        <time>2024-06-06T03:52:29+00:00</time>
      </trkpt>
      <trkpt lat="45.31913" lon="6.15777">
        <ele>2123</ele>
        <time>2024-06-06T03:52:32+00:00</time>
      </trkpt>
      <trkpt lat="45.31931" lon="6.15771">
        <ele>2115</ele>
        <time>2024-06-06T03:52:35+00:00</time>
      </trkpt>
      <trkpt lat="45.31957" lon="6.15734">
        <ele>2106</ele>
        <time>2024-06-06T03:52:38+00:00</time>
      </trkpt>
      <trkpt lat="45.31977" lon="6.15716">
        <ele>2096</ele>
        <time>2024-06-06T03:52:41+00:00</time>
      </trkpt>
      <trkpt lat="45.3201" lon="6.15714">
        <ele>2089</ele>
        <time>2024-06-06T03:52:44+00:00</time>
      </trkpt>
      <trkpt lat="45.32027" lon="6.15707">
        <ele>2087</ele>
        <time>2024-06-06T03:52:47+00:00</time>
      </trkpt>
      <trkpt lat="45.32043" lon="6.157">
        <ele>2086</ele>
        <time>2024-06-06T03:52:50+00:00</time>
      </trkpt>
      <trkpt lat="45.32059" lon="6.15692">
        <ele>2085</ele>
        <time>2024-06-06T03:52:53+00:00</time>
      </trkpt>
      <trkpt lat="45.32071" lon="6.15691">
        <ele>2084</ele>
        <time>2024-06-06T03:52:56+00:00</time>
      </trkpt>
      <trkpt lat="45.32082" lon="6.15694">
        <ele>2085</ele>
        <time>2024-06-06T03:52:59+00:00</time>
      </trkpt>
      <trkpt lat="45.32091" lon="6.15717">
        <ele>2085</ele>
        <time>2024-06-06T03:53:02+00:00</time>
      </trkpt>
      <trkpt lat="45.32105" lon="6.15722">
        <ele>2085</ele>
        <time>2024-06-06T03:53:05+00:00</time>
      </trkpt>
      <trkpt lat="45.32128" lon="6.15727">
        <ele>2080</ele>
        <time>2024-06-06T03:53:08+00:00</time>
      </trkpt>
      <trkpt lat="45.32147" lon="6.15737">
        <ele>2080</ele>
        <time>2024-06-06T03:53:11+00:00</time>
      </trkpt>
      <trkpt lat="45.32157" lon="6.15748">
        <ele>2081</ele>
        <time>2024-06-06T03:53:14+00:00</time>
      </trkpt>
      <trkpt lat="45.3217" lon="6.15789">
        <ele>2079</ele>
        <time>2024-06-06T03:53:17+00:00</time>
      </trkpt>
      <trkpt lat="45.32188" lon="6.15806">
        <ele>2075</ele>
        <time>2024-06-06T03:53:20+00:00</time>
      </trkpt>
      <trkpt lat="45.32194" lon="6.15822">
        <ele>2070</ele>
        <time>2024-06-06T03:53:23+00:00</time>
      </trkpt>
      <trkpt lat="45.3221" lon="6.15841">
        <ele>2061</ele>
        <time>2024-06-06T03:53:26+00:00</time>
      </trkpt>
      <trkpt lat="45.32234" lon="6.15874">
        <ele>2059</ele>
        <time>2024-06-06T03:53:29+00:00</time>
      </trkpt>
      <trkpt lat="45.32257" lon="6.15892">
        <ele>2057</ele>
        <time>2024-06-06T03:53:32+00:00</time>
      </trkpt>
      <trkpt lat="45.32273" lon="6.15905">
        <ele>2054</ele>
        <time>2024-06-06T03:53:35+00:00</time>
      </trkpt>
      <trkpt lat="45.32282" lon="6.15925">
        <ele>2053</ele>
        <time>2024-06-06T03:53:38+00:00</time>
      </trkpt>
      <trkpt lat="45.32294" lon="6.15967">
        <ele>2053</ele>
        <time>2024-06-06T03:53:41+00:00</time>
      </trkpt>
      <trkpt lat="45.32318" lon="6.15988">
        <ele>2052</ele>
        <time>2024-06-06T03:53:44+00:00</time>
      </trkpt>
      <trkpt lat="45.3233" lon="6.16015">
        <ele>2052</ele>
        <time>2024-06-06T03:53:47+00:00</time>
      </trkpt>
      <trkpt lat="45.32334" lon="6.16039">
        <ele>2051</ele>
        <time>2024-06-06T03:53:50+00:00</time>
      </trkpt>
      <trkpt lat="45.32328" lon="6.1605">
        <ele>2052</ele>
        <time>2024-06-06T03:53:53+00:00</time>
      </trkpt>
      <trkpt lat="45.32332" lon="6.16078">
        <ele>2052</ele>
        <time>2024-06-06T03:53:56+00:00</time>
      </trkpt>
      <trkpt lat="45.32331" lon="6.16092">
        <ele>2052</ele>
        <time>2024-06-06T03:53:59+00:00</time>
      </trkpt>
      <trkpt lat="45.32334" lon="6.16102">
        <ele>2052</ele>
        <time>2024-06-06T03:54:02+00:00</time>
      </trkpt>
      <trkpt lat="45.32351" lon="6.16107">
        <ele>2052</ele>
        <time>2024-06-06T03:54:05+00:00</time>
      </trkpt>
      <trkpt lat="45.3236" lon="6.16117">
        <ele>2052</ele>
        <time>2024-06-06T03:54:08+00:00</time>
      </trkpt>
      <trkpt lat="45.32384" lon="6.16136">
        <ele>2053</ele>
        <time>2024-06-06T03:54:11+00:00</time>
      </trkpt>
      <trkpt lat="45.32403" lon="6.16145">
        <ele>2052</ele>
        <time>2024-06-06T03:54:14+00:00</time>
      </trkpt>
      <trkpt lat="45.32421" lon="6.16144">
        <ele>2054</ele>
        <time>2024-06-06T03:54:17+00:00</time>
      </trkpt>
      <trkpt lat="45.32429" lon="6.16165">
        <ele>2052</ele>
        <time>2024-06-06T03:54:20+00:00</time>
      </trkpt>
      <trkpt lat="45.32444" lon="6.16175">
        <ele>2051</ele>
        <time>2024-06-06T03:54:23+00:00</time>
      </trkpt>
      <trkpt lat="45.32454" lon="6.16205">
        <ele>2043</ele>
        <time>2024-06-06T03:54:26+00:00</time>
      </trkpt>
      <trkpt lat="45.32464" lon="6.16222">
        <ele>2037</ele>
        <time>2024-06-06T03:54:29+00:00</time>
      </trkpt>
      <trkpt lat="45.32472" lon="6.1624">
        <ele>2036</ele>
        <time>2024-06-06T03:54:32+00:00</time>
      </trkpt>
      <trkpt lat="45.32472" lon="6.1628">
        <ele>2028</ele>
        <time>2024-06-06T03:54:35+00:00</time>
      </trkpt>
      <trkpt lat="45.32479" lon="6.16302">
        <ele>2021</ele>
        <time>2024-06-06T03:54:38+00:00</time>
      </trkpt>
      <trkpt lat="45.32489" lon="6.1633">
        <ele>2009</ele>
        <time>2024-06-06T03:54:41+00:00</time>
      </trkpt>
      <trkpt lat="45.32492" lon="6.16363">
        <ele>1997</ele>
        <time>2024-06-06T03:54:44+00:00</time>
      </trkpt>
      <trkpt lat="45.32498" lon="6.16372">
        <ele>1996</ele>
        <time>2024-06-06T03:54:47+00:00</time>
      </trkpt>
      <trkpt lat="45.32519" lon="6.16372">
        <ele>1990</ele>
        <time>2024-06-06T03:54:50+00:00</time>
      </trkpt>
      <trkpt lat="45.32537" lon="6.16394">
        <ele>1982</ele>
        <time>2024-06-06T03:54:53+00:00</time>
      </trkpt>
      <trkpt lat="45.32555" lon="6.16416">
        <ele>1975</ele>
        <time>2024-06-06T03:54:56+00:00</time>
      </trkpt>
      <trkpt lat="45.32566" lon="6.16432">
        <ele>1970</ele>
        <time>2024-06-06T03:54:59+00:00</time>
      </trkpt>
      <trkpt lat="45.32569" lon="6.16476">
        <ele>1966</ele>
        <time>2024-06-06T03:55:02+00:00</time>
      </trkpt>
      <trkpt lat="45.32577" lon="6.16483">
        <ele>1963</ele>
        <time>2024-06-06T03:55:05+00:00</time>
      </trkpt>
      <trkpt lat="45.32599" lon="6.16514">
        <ele>1959</ele>
        <time>2024-06-06T03:55:08+00:00</time>
      </trkpt>
      <trkpt lat="45.32613" lon="6.16551">
        <ele>1957</ele>
        <time>2024-06-06T03:55:11+00:00</time>
      </trkpt>
      <trkpt lat="45.32616" lon="6.16564">
        <ele>1957</ele>
        <time>2024-06-06T03:55:14+00:00</time>
      </trkpt>
      <trkpt lat="45.32599" lon="6.16585">
        <ele>1957</ele>
        <time>2024-06-06T03:55:17+00:00</time>
      </trkpt>
      <trkpt lat="45.32593" lon="6.16598">
        <ele>1958</ele>
        <time>2024-06-06T03:55:20+00:00</time>
      </trkpt>
      <trkpt lat="45.32591" lon="6.16632">
        <ele>1956</ele>
        <time>2024-06-06T03:55:23+00:00</time>
      </trkpt>
      <trkpt lat="45.32593" lon="6.16655">
        <ele>1955</ele>
        <time>2024-06-06T03:55:26+00:00</time>
      </trkpt>
      <trkpt lat="45.32597" lon="6.16676">
        <ele>1953</ele>
        <time>2024-06-06T03:55:29+00:00</time>
      </trkpt>
      <trkpt lat="45.32606" lon="6.1669">
        <ele>1952</ele>
        <time>2024-06-06T03:55:32+00:00</time>
      </trkpt>
      <trkpt lat="45.32621" lon="6.16698">
        <ele>1951</ele>
        <time>2024-06-06T03:55:35+00:00</time>
      </trkpt>
      <trkpt lat="45.32638" lon="6.16704">
        <ele>1949</ele>
        <time>2024-06-06T03:55:38+00:00</time>
      </trkpt>
      <trkpt lat="45.32659" lon="6.16705">
        <ele>1947</ele>
        <time>2024-06-06T03:55:41+00:00</time>
      </trkpt>
      <trkpt lat="45.32688" lon="6.16707">
        <ele>1944</ele>
        <time>2024-06-06T03:55:44+00:00</time>
      </trkpt>
      <trkpt lat="45.32705" lon="6.16695">
        <ele>1940</ele>
        <time>2024-06-06T03:55:47+00:00</time>
      </trkpt>
      <trkpt lat="45.32729" lon="6.1669">
        <ele>1935</ele>
        <time>2024-06-06T03:55:50+00:00</time>
      </trkpt>
      <trkpt lat="45.32738" lon="6.1668">
        <ele>1931</ele>
        <time>2024-06-06T03:55:53+00:00</time>
      </trkpt>
      <trkpt lat="45.32738" lon="6.16665">
        <ele>1929</ele>
        <time>2024-06-06T03:55:56+00:00</time>
      </trkpt>
      <trkpt lat="45.32751" lon="6.16653">
        <ele>1919</ele>
        <time>2024-06-06T03:55:59+00:00</time>
      </trkpt>
      <trkpt lat="45.32755" lon="6.16641">
        <ele>1917</ele>
        <time>2024-06-06T03:56:02+00:00</time>
      </trkpt>
      <trkpt lat="45.32774" lon="6.16626">
        <ele>1907</ele>
        <time>2024-06-06T03:56:05+00:00</time>
      </trkpt>
      <trkpt lat="45.32787" lon="6.16609">
        <ele>1901</ele>
        <time>2024-06-06T03:56:08+00:00</time>
      </trkpt>
      <trkpt lat="45.32804" lon="6.1659">
        <ele>1897</ele>
        <time>2024-06-06T03:56:11+00:00</time>
      </trkpt>
      <trkpt lat="45.32824" lon="6.16582">
        <ele>1891</ele>
        <time>2024-06-06T03:56:14+00:00</time>
      </trkpt>
      <trkpt lat="45.32838" lon="6.16578">
        <ele>1890</ele>
        <time>2024-06-06T03:56:17+00:00</time>
      </trkpt>
      <trkpt lat="45.32852" lon="6.16565">
        <ele>1886</ele>
        <time>2024-06-06T03:56:20+00:00</time>
      </trkpt>
      <trkpt lat="45.32867" lon="6.16552">
        <ele>1885</ele>
        <time>2024-06-06T03:56:23+00:00</time>
      </trkpt>
      <trkpt lat="45.32886" lon="6.1655">
        <ele>1880</ele>
        <time>2024-06-06T03:56:26+00:00</time>
      </trkpt>
      <trkpt lat="45.32894" lon="6.16533">
        <ele>1878</ele>
        <time>2024-06-06T03:56:29+00:00</time>
      </trkpt>
      <trkpt lat="45.32906" lon="6.16535">
        <ele>1877</ele>
        <time>2024-06-06T03:56:32+00:00</time>
      </trkpt>
      <trkpt lat="45.32921" lon="6.16535">
        <ele>1874</ele>
        <time>2024-06-06T03:56:35+00:00</time>
      </trkpt>
      <trkpt lat="45.32937" lon="6.16524">
        <ele>1872</ele>
        <time>2024-06-06T03:56:38+00:00</time>
      </trkpt>
      <trkpt lat="45.32948" lon="6.16519">
        <ele>1870</ele>
        <time>2024-06-06T03:56:41+00:00</time>
      </trkpt>
      <trkpt lat="45.32959" lon="6.16517">
        <ele>1869</ele>
        <time>2024-06-06T03:56:44+00:00</time>
      </trkpt>
      <trkpt lat="45.32974" lon="6.16508">
        <ele>1867</ele>
        <time>2024-06-06T03:56:47+00:00</time>
      </trkpt>
      <trkpt lat="45.32987" lon="6.16494">
        <ele>1866</ele>
        <time>2024-06-06T03:56:50+00:00</time>
      </trkpt>
      <trkpt lat="45.32994" lon="6.16476">
        <ele>1864</ele>
        <time>2024-06-06T03:56:53+00:00</time>
      </trkpt>
      <trkpt lat="45.33007" lon="6.16472">
        <ele>1863</ele>
        <time>2024-06-06T03:56:56+00:00</time>
      </trkpt>
      <trkpt lat="45.33023" lon="6.16464">
        <ele>1861</ele>
        <time>2024-06-06T03:56:59+00:00</time>
      </trkpt>
      <trkpt lat="45.33042" lon="6.16461">
        <ele>1858</ele>
        <time>2024-06-06T03:57:02+00:00</time>
      </trkpt>
      <trkpt lat="45.33056" lon="6.1646">
        <ele>1857</ele>
        <time>2024-06-06T03:57:05+00:00</time>
      </trkpt>
      <trkpt lat="45.33069" lon="6.16447">
        <ele>1856</ele>
        <time>2024-06-06T03:57:08+00:00</time>
      </trkpt>
      <trkpt lat="45.33082" lon="6.16431">
        <ele>1854</ele>
        <time>2024-06-06T03:57:11+00:00</time>
      </trkpt>
      <trkpt lat="45.33093" lon="6.1641">
        <ele>1851</ele>
        <time>2024-06-06T03:57:14+00:00</time>
      </trkpt>
      <trkpt lat="45.33104" lon="6.16407">
        <ele>1851</ele>
        <time>2024-06-06T03:57:17+00:00</time>
      </trkpt>
      <trkpt lat="45.33122" lon="6.16395">
        <ele>1849</ele>
        <time>2024-06-06T03:57:20+00:00</time>
      </trkpt>
      <trkpt lat="45.33146" lon="6.16386">
        <ele>1847</ele>
        <time>2024-06-06T03:57:23+00:00</time>
      </trkpt>
      <trkpt lat="45.33149" lon="6.16384">
        <ele>1847</ele>
        <time>2024-06-06T03:57:26+00:00</time>
      </trkpt>
      <trkpt lat="45.33172" lon="6.16375">
        <ele>1845</ele>
        <time>2024-06-06T03:57:29+00:00</time>
      </trkpt>
      <trkpt lat="45.33185" lon="6.16354">
        <ele>1844</ele>
        <time>2024-06-06T03:57:32+00:00</time>
      </trkpt>
      <trkpt lat="45.33191" lon="6.16335">
        <ele>1843</ele>
        <time>2024-06-06T03:57:35+00:00</time>
      </trkpt>
      <trkpt lat="45.33198" lon="6.16316">
        <ele>1843</ele>
        <time>2024-06-06T03:57:38+00:00</time>
      </trkpt>
      <trkpt lat="45.3322" lon="6.16289">
        <ele>1841</ele>
        <time>2024-06-06T03:57:41+00:00</time>
      </trkpt>
      <trkpt lat="45.33233" lon="6.1626">
        <ele>1838</ele>
        <time>2024-06-06T03:57:44+00:00</time>
      </trkpt>
      <trkpt lat="45.33247" lon="6.16229">
        <ele>1837</ele>
        <time>2024-06-06T03:57:47+00:00</time>
      </trkpt>
      <trkpt lat="45.33265" lon="6.162">
        <ele>1835</ele>
        <time>2024-06-06T03:57:50+00:00</time>
      </trkpt>
      <trkpt lat="45.33266" lon="6.16184">
        <ele>1835</ele>
        <time>2024-06-06T03:57:53+00:00</time>
      </trkpt>
      <trkpt lat="45.33283" lon="6.16175">
        <ele>1833</ele>
        <time>2024-06-06T03:57:56+00:00</time>
      </trkpt>
      <trkpt lat="45.33296" lon="6.1615">
        <ele>1833</ele>
        <time>2024-06-06T03:57:59+00:00</time>
      </trkpt>
      <trkpt lat="45.33312" lon="6.16142">
        <ele>1830</ele>
        <time>2024-06-06T03:58:02+00:00</time>
      </trkpt>
      <trkpt lat="45.33325" lon="6.16122">
        <ele>1828</ele>
        <time>2024-06-06T03:58:05+00:00</time>
      </trkpt>
      <trkpt lat="45.3335" lon="6.1609">
        <ele>1828</ele>
        <time>2024-06-06T03:58:08+00:00</time>
      </trkpt>
      <trkpt lat="45.33365" lon="6.16082">
        <ele>1822</ele>
        <time>2024-06-06T03:58:11+00:00</time>
      </trkpt>
      <trkpt lat="45.33382" lon="6.16079">
        <ele>1824</ele>
        <time>2024-06-06T03:58:14+00:00</time>
      </trkpt>
      <trkpt lat="45.33401" lon="6.16075">
        <ele>1822</ele>
        <time>2024-06-06T03:58:17+00:00</time>
      </trkpt>
      <trkpt lat="45.33412" lon="6.16071">
        <ele>1819</ele>
        <time>2024-06-06T03:58:20+00:00</time>
      </trkpt>
      <trkpt lat="45.33424" lon="6.1605">
        <ele>1818</ele>
        <time>2024-06-06T03:58:23+00:00</time>
      </trkpt>
      <trkpt lat="45.33436" lon="6.16026">
        <ele>1818</ele>
        <time>2024-06-06T03:58:26+00:00</time>
      </trkpt>
      <trkpt lat="45.33451" lon="6.1601">
        <ele>1817</ele>
        <time>2024-06-06T03:58:29+00:00</time>
      </trkpt>
      <trkpt lat="45.33462" lon="6.16006">
        <ele>1816</ele>
        <time>2024-06-06T03:58:32+00:00</time>
      </trkpt>
      <trkpt lat="45.33478" lon="6.16001">
        <ele>1815</ele>
        <time>2024-06-06T03:58:35+00:00</time>
      </trkpt>
      <trkpt lat="45.33495" lon="6.15988">
        <ele>1815</ele>
        <time>2024-06-06T03:58:38+00:00</time>
      </trkpt>
      <trkpt lat="45.33518" lon="6.15979">
        <ele>1814</ele>
        <time>2024-06-06T03:58:41+00:00</time>
      </trkpt>
      <trkpt lat="45.33527" lon="6.15966">
        <ele>1813</ele>
        <time>2024-06-06T03:58:44+00:00</time>
      </trkpt>
      <trkpt lat="45.33546" lon="6.15954">
        <ele>1812</ele>
        <time>2024-06-06T03:58:47+00:00</time>
      </trkpt>
      <trkpt lat="45.33568" lon="6.15944">
        <ele>1810</ele>
        <time>2024-06-06T03:58:50+00:00</time>
      </trkpt>
      <trkpt lat="45.33591" lon="6.15933">
        <ele>1809</ele>
        <time>2024-06-06T03:58:53+00:00</time>
      </trkpt>
      <trkpt lat="45.33626" lon="6.15908">
        <ele>1808</ele>
        <time>2024-06-06T03:58:56+00:00</time>
      </trkpt>
      <trkpt lat="45.33634" lon="6.15897">
        <ele>1808</ele>
        <time>2024-06-06T03:58:59+00:00</time>
      </trkpt>
      <trkpt lat="45.33643" lon="6.15892">
        <ele>1808</ele>
        <time>2024-06-06T03:59:02+00:00</time>
      </trkpt>
      <trkpt lat="45.33652" lon="6.15882">
        <ele>1807</ele>
        <time>2024-06-06T03:59:05+00:00</time>
      </trkpt>
      <trkpt lat="45.33662" lon="6.15869">
        <ele>1808</ele>
        <time>2024-06-06T03:59:08+00:00</time>
      </trkpt>
      <trkpt lat="45.3367" lon="6.15862">
        <ele>1807</ele>
        <time>2024-06-06T03:59:11+00:00</time>
      </trkpt>
      <trkpt lat="45.33676" lon="6.15859">
        <ele>1807</ele>
        <time>2024-06-06T03:59:14+00:00</time>
      </trkpt>
      <trkpt lat="45.33685" lon="6.1586">
        <ele>1808</ele>
        <time>2024-06-06T03:59:17+00:00</time>
      </trkpt>
      <trkpt lat="45.33699" lon="6.15868">
        <ele>1808</ele>
        <time>2024-06-06T03:59:20+00:00</time>
      </trkpt>
      <trkpt lat="45.33725" lon="6.15886">
        <ele>1807</ele>
        <time>2024-06-06T03:59:23+00:00</time>
      </trkpt>
      <trkpt lat="45.3374" lon="6.15903">
        <ele>1804</ele>
        <time>2024-06-06T03:59:26+00:00</time>
      </trkpt>
      <trkpt lat="45.33749" lon="6.15909">
        <ele>1805</ele>
        <time>2024-06-06T03:59:29+00:00</time>
      </trkpt>
      <trkpt lat="45.33765" lon="6.15922">
        <ele>1802</ele>
        <time>2024-06-06T03:59:32+00:00</time>
      </trkpt>
      <trkpt lat="45.33771" lon="6.15924">
        <ele>1803</ele>
        <time>2024-06-06T03:59:35+00:00</time>
      </trkpt>
      <trkpt lat="45.33782" lon="6.15927">
        <ele>1804</ele>
        <time>2024-06-06T03:59:38+00:00</time>
      </trkpt>
      <trkpt lat="45.33789" lon="6.15933">
        <ele>1800</ele>
        <time>2024-06-06T03:59:41+00:00</time>
      </trkpt>
      <trkpt lat="45.33789" lon="6.15933">
        <ele>1800</ele>
        <time>2024-06-06T03:59:44+00:00</time>
      </trkpt>
      <trkpt lat="45.3379" lon="6.15942">
        <ele>1800</ele>
        <time>2024-06-06T03:59:47+00:00</time>
      </trkpt>
      <trkpt lat="45.33795" lon="6.15949">
        <ele>1800</ele>
        <time>2024-06-06T03:59:50+00:00</time>
      </trkpt>
      <trkpt lat="45.33799" lon="6.15965">
        <ele>1797</ele>
        <time>2024-06-06T03:59:53+00:00</time>
      </trkpt>
      <trkpt lat="45.33804" lon="6.15974">
        <ele>1797</ele>
        <time>2024-06-06T03:59:56+00:00</time>
      </trkpt>
      <trkpt lat="45.33808" lon="6.15974">
        <ele>1797</ele>
        <time>2024-06-06T03:59:59+00:00</time>
      </trkpt>
      <trkpt lat="45.3381" lon="6.15981">
        <ele>1795</ele>
        <time>2024-06-06T04:00:02+00:00</time>
      </trkpt>
      <trkpt lat="45.33822" lon="6.15993">
        <ele>1796</ele>
        <time>2024-06-06T04:00:05+00:00</time>
      </trkpt>
      <trkpt lat="45.33825" lon="6.15992">
        <ele>1794</ele>
        <time>2024-06-06T04:00:08+00:00</time>
      </trkpt>
      <trkpt lat="45.33835" lon="6.15981">
        <ele>1797</ele>
        <time>2024-06-06T04:00:11+00:00</time>
      </trkpt>
      <trkpt lat="45.3384" lon="6.15981">
        <ele>1795</ele>
        <time>2024-06-06T04:00:14+00:00</time>
      </trkpt>
      <trkpt lat="45.33849" lon="6.1599">
        <ele>1793</ele>
        <time>2024-06-06T04:00:17+00:00</time>
      </trkpt>
      <trkpt lat="45.33864" lon="6.16001">
        <ele>1790</ele>
        <time>2024-06-06T04:00:20+00:00</time>
      </trkpt>
      <trkpt lat="45.33869" lon="6.15999">
        <ele>1791</ele>
        <time>2024-06-06T04:00:23+00:00</time>
      </trkpt>
      <trkpt lat="45.33872" lon="6.15989">
        <ele>1788</ele>
        <time>2024-06-06T04:00:26+00:00</time>
      </trkpt>
      <trkpt lat="45.33876" lon="6.15984">
        <ele>1788</ele>
        <time>2024-06-06T04:00:29+00:00</time>
      </trkpt>
      <trkpt lat="45.33885" lon="6.1598">
        <ele>1786</ele>
        <time>2024-06-06T04:00:32+00:00</time>
      </trkpt>
      <trkpt lat="45.339" lon="6.15978">
        <ele>1780</ele>
        <time>2024-06-06T04:00:35+00:00</time>
      </trkpt>
      <trkpt lat="45.33917" lon="6.15975">
        <ele>1778</ele>
        <time>2024-06-06T04:00:38+00:00</time>
      </trkpt>
      <trkpt lat="45.33934" lon="6.15973">
        <ele>1773</ele>
        <time>2024-06-06T04:00:41+00:00</time>
      </trkpt>
      <trkpt lat="45.33968" lon="6.15993">
        <ele>1769</ele>
        <time>2024-06-06T04:00:44+00:00</time>
      </trkpt>
      <trkpt lat="45.33998" lon="6.1601">
        <ele>1764</ele>
        <time>2024-06-06T04:00:47+00:00</time>
      </trkpt>
      <trkpt lat="45.3403" lon="6.1602">
        <ele>1759</ele>
        <time>2024-06-06T04:00:50+00:00</time>
      </trkpt>
      <trkpt lat="45.34042" lon="6.16018">
        <ele>1759</ele>
        <time>2024-06-06T04:00:53+00:00</time>
      </trkpt>
      <trkpt lat="45.34045" lon="6.16002">
        <ele>1759</ele>
        <time>2024-06-06T04:00:56+00:00</time>
      </trkpt>
      <trkpt lat="45.3405" lon="6.15992">
        <ele>1759</ele>
        <time>2024-06-06T04:00:59+00:00</time>
      </trkpt>
      <trkpt lat="45.34076" lon="6.15994">
        <ele>1754</ele>
        <time>2024-06-06T04:01:02+00:00</time>
      </trkpt>
      <trkpt lat="45.34099" lon="6.15996">
        <ele>1751</ele>
        <time>2024-06-06T04:01:05+00:00</time>
      </trkpt>
      <trkpt lat="45.34118" lon="6.16008">
        <ele>1749</ele>
        <time>2024-06-06T04:01:08+00:00</time>
      </trkpt>
      <trkpt lat="45.34147" lon="6.16012">
        <ele>1746</ele>
        <time>2024-06-06T04:01:11+00:00</time>
      </trkpt>
      <trkpt lat="45.34157" lon="6.16016">
        <ele>1745</ele>
        <time>2024-06-06T04:01:14+00:00</time>
      </trkpt>
      <trkpt lat="45.34159" lon="6.16029">
        <ele>1745</ele>
        <time>2024-06-06T04:01:17+00:00</time>
      </trkpt>
      <trkpt lat="45.3416" lon="6.1604">
        <ele>1744</ele>
        <time>2024-06-06T04:01:20+00:00</time>
      </trkpt>
      <trkpt lat="45.34168" lon="6.16052">
        <ele>1745</ele>
        <time>2024-06-06T04:01:23+00:00</time>
      </trkpt>
      <trkpt lat="45.34193" lon="6.16052">
        <ele>1744</ele>
        <time>2024-06-06T04:01:26+00:00</time>
      </trkpt>
      <trkpt lat="45.34216" lon="6.16054">
        <ele>1744</ele>
        <time>2024-06-06T04:01:29+00:00</time>
      </trkpt>
      <trkpt lat="45.34235" lon="6.16054">
        <ele>1743</ele>
        <time>2024-06-06T04:01:32+00:00</time>
      </trkpt>
      <trkpt lat="45.34248" lon="6.16048">
        <ele>1742</ele>
        <time>2024-06-06T04:01:35+00:00</time>
      </trkpt>
      <trkpt lat="45.3426" lon="6.16039">
        <ele>1741</ele>
        <time>2024-06-06T04:01:38+00:00</time>
      </trkpt>
      <trkpt lat="45.34267" lon="6.16033">
        <ele>1741</ele>
        <time>2024-06-06T04:01:41+00:00</time>
      </trkpt>
      <trkpt lat="45.34286" lon="6.16014">
        <ele>1738</ele>
        <time>2024-06-06T04:01:44+00:00</time>
      </trkpt>
      <trkpt lat="45.34298" lon="6.16003">
        <ele>1737</ele>
        <time>2024-06-06T04:01:47+00:00</time>
      </trkpt>
      <trkpt lat="45.34308" lon="6.15991">
        <ele>1735</ele>
        <time>2024-06-06T04:01:50+00:00</time>
      </trkpt>
      <trkpt lat="45.34319" lon="6.15977">
        <ele>1728</ele>
        <time>2024-06-06T04:01:53+00:00</time>
      </trkpt>
      <trkpt lat="45.34322" lon="6.15975">
        <ele>1728</ele>
        <time>2024-06-06T04:01:56+00:00</time>
      </trkpt>
      <trkpt lat="45.34342" lon="6.1596">
        <ele>1721</ele>
        <time>2024-06-06T04:01:59+00:00</time>
      </trkpt>
      <trkpt lat="45.34364" lon="6.15936">
        <ele>1719</ele>
        <time>2024-06-06T04:02:02+00:00</time>
      </trkpt>
      <trkpt lat="45.34389" lon="6.15906">
        <ele>1713</ele>
        <time>2024-06-06T04:02:05+00:00</time>
      </trkpt>
      <trkpt lat="45.34391" lon="6.15898">
        <ele>1712</ele>
        <time>2024-06-06T04:02:08+00:00</time>
      </trkpt>
      <trkpt lat="45.34394" lon="6.15891">
        <ele>1712</ele>
        <time>2024-06-06T04:02:11+00:00</time>
      </trkpt>
      <trkpt lat="45.34399" lon="6.15872">
        <ele>1709</ele>
        <time>2024-06-06T04:02:14+00:00</time>
      </trkpt>
      <trkpt lat="45.34399" lon="6.15855">
        <ele>1705</ele>
        <time>2024-06-06T04:02:17+00:00</time>
      </trkpt>
      <trkpt lat="45.34407" lon="6.1585">
        <ele>1705</ele>
        <time>2024-06-06T04:02:20+00:00</time>
      </trkpt>
      <trkpt lat="45.3442" lon="6.15846">
        <ele>1703</ele>
        <time>2024-06-06T04:02:23+00:00</time>
      </trkpt>
      <trkpt lat="45.34429" lon="6.15841">
        <ele>1703</ele>
        <time>2024-06-06T04:02:26+00:00</time>
      </trkpt>
      <trkpt lat="45.34428" lon="6.15834">
        <ele>1701</ele>
        <time>2024-06-06T04:02:29+00:00</time>
      </trkpt>
      <trkpt lat="45.34426" lon="6.15822">
        <ele>1700</ele>
        <time>2024-06-06T04:02:32+00:00</time>
      </trkpt>
      <trkpt lat="45.34429" lon="6.15818">
        <ele>1698</ele>
        <time>2024-06-06T04:02:35+00:00</time>
      </trkpt>
      <trkpt lat="45.34431" lon="6.15813">
        <ele>1696</ele>
        <time>2024-06-06T04:02:38+00:00</time>
      </trkpt>
      <trkpt lat="45.34433" lon="6.15807">
        <ele>1694</ele>
        <time>2024-06-06T04:02:41+00:00</time>
      </trkpt>
      <trkpt lat="45.34436" lon="6.15802">
        <ele>1694</ele>
        <time>2024-06-06T04:02:44+00:00</time>
      </trkpt>
      <trkpt lat="45.34443" lon="6.15804">
        <ele>1690</ele>
        <time>2024-06-06T04:02:47+00:00</time>
      </trkpt>
      <trkpt lat="45.34447" lon="6.15808">
        <ele>1690</ele>
        <time>2024-06-06T04:02:50+00:00</time>
      </trkpt>
      <trkpt lat="45.34452" lon="6.15802">
        <ele>1688</ele>
        <time>2024-06-06T04:02:53+00:00</time>
      </trkpt>
      <trkpt lat="45.34457" lon="6.15792">
        <ele>1687</ele>
        <time>2024-06-06T04:02:56+00:00</time>
      </trkpt>
      <trkpt lat="45.34465" lon="6.15782">
        <ele>1684</ele>
        <time>2024-06-06T04:02:59+00:00</time>
      </trkpt>
      <trkpt lat="45.34473" lon="6.15776">
        <ele>1680</ele>
        <time>2024-06-06T04:03:02+00:00</time>
      </trkpt>
      <trkpt lat="45.3448" lon="6.15769">
        <ele>1680</ele>
        <time>2024-06-06T04:03:05+00:00</time>
      </trkpt>
      <trkpt lat="45.34485" lon="6.15767">
        <ele>1677</ele>
        <time>2024-06-06T04:03:08+00:00</time>
      </trkpt>
      <trkpt lat="45.3449" lon="6.15769">
        <ele>1673</ele>
        <time>2024-06-06T04:03:11+00:00</time>
      </trkpt>
      <trkpt lat="45.34494" lon="6.15768">
        <ele>1673</ele>
        <time>2024-06-06T04:03:14+00:00</time>
      </trkpt>
      <trkpt lat="45.34502" lon="6.15764">
        <ele>1668</ele>
        <time>2024-06-06T04:03:17+00:00</time>
      </trkpt>
      <trkpt lat="45.3451" lon="6.15761">
        <ele>1668</ele>
        <time>2024-06-06T04:03:20+00:00</time>
      </trkpt>
      <trkpt lat="45.34516" lon="6.15763">
        <ele>1664</ele>
        <time>2024-06-06T04:03:23+00:00</time>
      </trkpt>
      <trkpt lat="45.34521" lon="6.15768">
        <ele>1661</ele>
        <time>2024-06-06T04:03:26+00:00</time>
      </trkpt>
      <trkpt lat="45.34524" lon="6.1577">
        <ele>1661</ele>
        <time>2024-06-06T04:03:29+00:00</time>
      </trkpt>
      <trkpt lat="45.3453" lon="6.15767">
        <ele>1661</ele>
        <time>2024-06-06T04:03:32+00:00</time>
      </trkpt>
      <trkpt lat="45.34532" lon="6.15768">
        <ele>1655</ele>
        <time>2024-06-06T04:03:35+00:00</time>
      </trkpt>
      <trkpt lat="45.34535" lon="6.15772">
        <ele>1655</ele>
        <time>2024-06-06T04:03:38+00:00</time>
      </trkpt>
      <trkpt lat="45.34538" lon="6.15773">
        <ele>1655</ele>
        <time>2024-06-06T04:03:41+00:00</time>
      </trkpt>
      <trkpt lat="45.34539" lon="6.15768">
        <ele>1655</ele>
        <time>2024-06-06T04:03:44+00:00</time>
      </trkpt>
      <trkpt lat="45.34541" lon="6.15761">
        <ele>1651</ele>
        <time>2024-06-06T04:03:47+00:00</time>
      </trkpt>
      <trkpt lat="45.34543" lon="6.1576">
        <ele>1651</ele>
        <time>2024-06-06T04:03:50+00:00</time>
      </trkpt>
      <trkpt lat="45.34545" lon="6.15765">
        <ele>1651</ele>
        <time>2024-06-06T04:03:53+00:00</time>
      </trkpt>
      <trkpt lat="45.34547" lon="6.15773">
        <ele>1651</ele>
        <time>2024-06-06T04:03:56+00:00</time>
      </trkpt>
      <trkpt lat="45.34551" lon="6.15778">
        <ele>1647</ele>
        <time>2024-06-06T04:03:59+00:00</time>
      </trkpt>
      <trkpt lat="45.34558" lon="6.1578">
        <ele>1646</ele>
        <time>2024-06-06T04:04:02+00:00</time>
      </trkpt>
      <trkpt lat="45.34567" lon="6.15782">
        <ele>1641</ele>
        <time>2024-06-06T04:04:05+00:00</time>
      </trkpt>
      <trkpt lat="45.34575" lon="6.15789">
        <ele>1640</ele>
        <time>2024-06-06T04:04:08+00:00</time>
      </trkpt>
      <trkpt lat="45.34585" lon="6.15791">
        <ele>1639</ele>
        <time>2024-06-06T04:04:11+00:00</time>
      </trkpt>
      <trkpt lat="45.34594" lon="6.1579">
        <ele>1635</ele>
        <time>2024-06-06T04:04:14+00:00</time>
      </trkpt>
      <trkpt lat="45.34603" lon="6.15795">
        <ele>1631</ele>
        <time>2024-06-06T04:04:17+00:00</time>
      </trkpt>
      <trkpt lat="45.34616" lon="6.158">
        <ele>1629</ele>
        <time>2024-06-06T04:04:20+00:00</time>
      </trkpt>
      <trkpt lat="45.34626" lon="6.15801">
        <ele>1626</ele>
        <time>2024-06-06T04:04:23+00:00</time>
      </trkpt>
      <trkpt lat="45.34634" lon="6.15799">
        <ele>1623</ele>
        <time>2024-06-06T04:04:26+00:00</time>
      </trkpt>
      <trkpt lat="45.34643" lon="6.15794">
        <ele>1621</ele>
        <time>2024-06-06T04:04:29+00:00</time>
      </trkpt>
      <trkpt lat="45.34651" lon="6.15787">
        <ele>1618</ele>
        <time>2024-06-06T04:04:32+00:00</time>
      </trkpt>
      <trkpt lat="45.34661" lon="6.15782">
        <ele>1616</ele>
        <time>2024-06-06T04:04:35+00:00</time>
      </trkpt>
      <trkpt lat="45.34669" lon="6.15774">
        <ele>1615</ele>
        <time>2024-06-06T04:04:38+00:00</time>
      </trkpt>
      <trkpt lat="45.3468" lon="6.15773">
        <ele>1613</ele>
        <time>2024-06-06T04:04:41+00:00</time>
      </trkpt>
      <trkpt lat="45.34692" lon="6.1578">
        <ele>1606</ele>
        <time>2024-06-06T04:04:44+00:00</time>
      </trkpt>
      <trkpt lat="45.34702" lon="6.15785">
        <ele>1605</ele>
        <time>2024-06-06T04:04:47+00:00</time>
      </trkpt>
      <trkpt lat="45.3471" lon="6.1579">
        <ele>1607</ele>
        <time>2024-06-06T04:04:50+00:00</time>
      </trkpt>
      <trkpt lat="45.34717" lon="6.15797">
        <ele>1601</ele>
        <time>2024-06-06T04:04:53+00:00</time>
      </trkpt>
      <trkpt lat="45.34726" lon="6.15802">
        <ele>1602</ele>
        <time>2024-06-06T04:04:56+00:00</time>
      </trkpt>
      <trkpt lat="45.34738" lon="6.15805">
        <ele>1597</ele>
        <time>2024-06-06T04:04:59+00:00</time>
      </trkpt>
      <trkpt lat="45.34747" lon="6.15815">
        <ele>1601</ele>
        <time>2024-06-06T04:05:02+00:00</time>
      </trkpt>
      <trkpt lat="45.34759" lon="6.15822">
        <ele>1602</ele>
        <time>2024-06-06T04:05:05+00:00</time>
      </trkpt>
      <trkpt lat="45.34766" lon="6.15825">
        <ele>1601</ele>
        <time>2024-06-06T04:05:08+00:00</time>
      </trkpt>
      <trkpt lat="45.34772" lon="6.15825">
        <ele>1601</ele>
        <time>2024-06-06T04:05:11+00:00</time>
      </trkpt>
      <trkpt lat="45.34781" lon="6.15822">
        <ele>1602</ele>
        <time>2024-06-06T04:05:14+00:00</time>
      </trkpt>
      <trkpt lat="45.3479" lon="6.15817">
        <ele>1600</ele>
        <time>2024-06-06T04:05:17+00:00</time>
      </trkpt>
      <trkpt lat="45.34796" lon="6.15806">
        <ele>1597</ele>
        <time>2024-06-06T04:05:20+00:00</time>
      </trkpt>
      <trkpt lat="45.34802" lon="6.15799">
        <ele>1596</ele>
        <time>2024-06-06T04:05:23+00:00</time>
      </trkpt>
      <trkpt lat="45.34806" lon="6.15797">
        <ele>1596</ele>
        <time>2024-06-06T04:05:26+00:00</time>
      </trkpt>
      <trkpt lat="45.3481" lon="6.1579">
        <ele>1596</ele>
        <time>2024-06-06T04:05:29+00:00</time>
      </trkpt>
      <trkpt lat="45.34814" lon="6.15787">
        <ele>1596</ele>
        <time>2024-06-06T04:05:32+00:00</time>
      </trkpt>
      <trkpt lat="45.34818" lon="6.15778">
        <ele>1594</ele>
        <time>2024-06-06T04:05:35+00:00</time>
      </trkpt>
      <trkpt lat="45.34827" lon="6.15772">
        <ele>1595</ele>
        <time>2024-06-06T04:05:38+00:00</time>
      </trkpt>
      <trkpt lat="45.34839" lon="6.15749">
        <ele>1591</ele>
        <time>2024-06-06T04:05:41+00:00</time>
      </trkpt>
      <trkpt lat="45.34857" lon="6.15735">
        <ele>1591</ele>
        <time>2024-06-06T04:05:44+00:00</time>
      </trkpt>
      <trkpt lat="45.34878" lon="6.15733">
        <ele>1591</ele>
        <time>2024-06-06T04:05:47+00:00</time>
      </trkpt>
      <trkpt lat="45.34905" lon="6.15732">
        <ele>1591</ele>
        <time>2024-06-06T04:05:50+00:00</time>
      </trkpt>
      <trkpt lat="45.34929" lon="6.15729">
        <ele>1590</ele>
        <time>2024-06-06T04:05:53+00:00</time>
      </trkpt>
      <trkpt lat="45.34945" lon="6.15724">
        <ele>1589</ele>
        <time>2024-06-06T04:05:56+00:00</time>
      </trkpt>
      <trkpt lat="45.34964" lon="6.15704">
        <ele>1584</ele>
        <time>2024-06-06T04:05:59+00:00</time>
      </trkpt>
      <trkpt lat="45.34972" lon="6.15695">
        <ele>1583</ele>
        <time>2024-06-06T04:06:02+00:00</time>
      </trkpt>
      <trkpt lat="45.34982" lon="6.15685">
        <ele>1581</ele>
        <time>2024-06-06T04:06:05+00:00</time>
      </trkpt>
      <trkpt lat="45.34987" lon="6.1568">
        <ele>1581</ele>
        <time>2024-06-06T04:06:08+00:00</time>
      </trkpt>
      <trkpt lat="45.34992" lon="6.15665">
        <ele>1580</ele>
        <time>2024-06-06T04:06:11+00:00</time>
      </trkpt>
      <trkpt lat="45.34997" lon="6.15652">
        <ele>1583</ele>
        <time>2024-06-06T04:06:14+00:00</time>
      </trkpt>
      <trkpt lat="45.35003" lon="6.15644">
        <ele>1581</ele>
        <time>2024-06-06T04:06:17+00:00</time>
      </trkpt>
      <trkpt lat="45.35012" lon="6.1564">
        <ele>1582</ele>
        <time>2024-06-06T04:06:20+00:00</time>
      </trkpt>
      <trkpt lat="45.35022" lon="6.15632">
        <ele>1585</ele>
        <time>2024-06-06T04:06:23+00:00</time>
      </trkpt>
      <trkpt lat="45.35034" lon="6.1563">
        <ele>1587</ele>
        <time>2024-06-06T04:06:26+00:00</time>
      </trkpt>
      <trkpt lat="45.35046" lon="6.1563">
        <ele>1586</ele>
        <time>2024-06-06T04:06:29+00:00</time>
      </trkpt>
      <trkpt lat="45.35054" lon="6.15626">
        <ele>1587</ele>
        <time>2024-06-06T04:06:32+00:00</time>
      </trkpt>
      <trkpt lat="45.35061" lon="6.15614">
        <ele>1585</ele>
        <time>2024-06-06T04:06:35+00:00</time>
      </trkpt>
      <trkpt lat="45.35068" lon="6.15597">
        <ele>1584</ele>
        <time>2024-06-06T04:06:38+00:00</time>
      </trkpt>
      <trkpt lat="45.35074" lon="6.15578">
        <ele>1584</ele>
        <time>2024-06-06T04:06:41+00:00</time>
      </trkpt>
      <trkpt lat="45.35077" lon="6.15564">
        <ele>1580</ele>
        <time>2024-06-06T04:06:44+00:00</time>
      </trkpt>
      <trkpt lat="45.35082" lon="6.1556">
        <ele>1577</ele>
        <time>2024-06-06T04:06:47+00:00</time>
      </trkpt>
      <trkpt lat="45.35088" lon="6.15558">
        <ele>1577</ele>
        <time>2024-06-06T04:06:50+00:00</time>
      </trkpt>
      <trkpt lat="45.35093" lon="6.15562">
        <ele>1578</ele>
        <time>2024-06-06T04:06:53+00:00</time>
      </trkpt>
      <trkpt lat="45.35096" lon="6.15567">
        <ele>1578</ele>
        <time>2024-06-06T04:06:56+00:00</time>
      </trkpt>
      <trkpt lat="45.35099" lon="6.15571">
        <ele>1584</ele>
        <time>2024-06-06T04:06:59+00:00</time>
      </trkpt>
      <trkpt lat="45.35102" lon="6.15569">
        <ele>1577</ele>
        <time>2024-06-06T04:07:02+00:00</time>
      </trkpt>
      <trkpt lat="45.35104" lon="6.15561">
        <ele>1577</ele>
        <time>2024-06-06T04:07:05+00:00</time>
      </trkpt>
      <trkpt lat="45.35107" lon="6.1555">
        <ele>1572</ele>
        <time>2024-06-06T04:07:08+00:00</time>
      </trkpt>
      <trkpt lat="45.35112" lon="6.15542">
        <ele>1580</ele>
        <time>2024-06-06T04:07:11+00:00</time>
      </trkpt>
      <trkpt lat="45.35113" lon="6.15531">
        <ele>1577</ele>
        <time>2024-06-06T04:07:14+00:00</time>
      </trkpt>
      <trkpt lat="45.35114" lon="6.15524">
        <ele>1576</ele>
        <time>2024-06-06T04:07:17+00:00</time>
      </trkpt>
      <trkpt lat="45.35119" lon="6.15516">
        <ele>1574</ele>
        <time>2024-06-06T04:07:20+00:00</time>
      </trkpt>
      <trkpt lat="45.35123" lon="6.15509">
        <ele>1577</ele>
        <time>2024-06-06T04:07:23+00:00</time>
      </trkpt>
      <trkpt lat="45.35128" lon="6.15503">
        <ele>1577</ele>
        <time>2024-06-06T04:07:26+00:00</time>
      </trkpt>
      <trkpt lat="45.35132" lon="6.15496">
        <ele>1578</ele>
        <time>2024-06-06T04:07:29+00:00</time>
      </trkpt>
      <trkpt lat="45.35136" lon="6.15485">
        <ele>1576</ele>
        <time>2024-06-06T04:07:32+00:00</time>
      </trkpt>
      <trkpt lat="45.3514" lon="6.1548">
        <ele>1572</ele>
        <time>2024-06-06T04:07:35+00:00</time>
      </trkpt>
      <trkpt lat="45.35144" lon="6.15474">
        <ele>1575</ele>
        <time>2024-06-06T04:07:38+00:00</time>
      </trkpt>
      <trkpt lat="45.35149" lon="6.15467">
        <ele>1572</ele>
        <time>2024-06-06T04:07:41+00:00</time>
      </trkpt>
      <trkpt lat="45.35158" lon="6.15451">
        <ele>1571</ele>
        <time>2024-06-06T04:07:44+00:00</time>
      </trkpt>
      <trkpt lat="45.35167" lon="6.15438">
        <ele>1565</ele>
        <time>2024-06-06T04:07:47+00:00</time>
      </trkpt>
      <trkpt lat="45.35175" lon="6.15427">
        <ele>1571</ele>
        <time>2024-06-06T04:07:50+00:00</time>
      </trkpt>
      <trkpt lat="45.35185" lon="6.15415">
        <ele>1569</ele>
        <time>2024-06-06T04:07:53+00:00</time>
      </trkpt>
      <trkpt lat="45.35198" lon="6.15402">
        <ele>1571</ele>
        <time>2024-06-06T04:07:56+00:00</time>
      </trkpt>
      <trkpt lat="45.35212" lon="6.15386">
        <ele>1572</ele>
        <time>2024-06-06T04:07:59+00:00</time>
      </trkpt>
      <trkpt lat="45.35221" lon="6.15371">
        <ele>1569</ele>
        <time>2024-06-06T04:08:02+00:00</time>
      </trkpt>
      <trkpt lat="45.35228" lon="6.15365">
        <ele>1568</ele>
        <time>2024-06-06T04:08:05+00:00</time>
      </trkpt>
      <trkpt lat="45.35238" lon="6.15359">
        <ele>1569</ele>
        <time>2024-06-06T04:08:08+00:00</time>
      </trkpt>
      <trkpt lat="45.35244" lon="6.15354">
        <ele>1571</ele>
        <time>2024-06-06T04:08:11+00:00</time>
      </trkpt>
      <trkpt lat="45.35251" lon="6.15348">
        <ele>1569</ele>
        <time>2024-06-06T04:08:14+00:00</time>
      </trkpt>
      <trkpt lat="45.35254" lon="6.15345">
        <ele>1569</ele>
        <time>2024-06-06T04:08:17+00:00</time>
      </trkpt>
      <trkpt lat="45.35259" lon="6.15342">
        <ele>1569</ele>
        <time>2024-06-06T04:08:20+00:00</time>
      </trkpt>
      <trkpt lat="45.35263" lon="6.15336">
        <ele>1568</ele>
        <time>2024-06-06T04:08:23+00:00</time>
      </trkpt>
      <trkpt lat="45.35271" lon="6.15329">
        <ele>1560</ele>
        <time>2024-06-06T04:08:26+00:00</time>
      </trkpt>
      <trkpt lat="45.3528" lon="6.15323">
        <ele>1560</ele>
        <time>2024-06-06T04:08:29+00:00</time>
      </trkpt>
      <trkpt lat="45.35293" lon="6.15315">
        <ele>1560</ele>
        <time>2024-06-06T04:08:32+00:00</time>
      </trkpt>
      <trkpt lat="45.353" lon="6.15308">
        <ele>1556</ele>
        <time>2024-06-06T04:08:35+00:00</time>
      </trkpt>
      <trkpt lat="45.353" lon="6.15308">
        <ele>1556</ele>
        <time>2024-06-06T04:08:38+00:00</time>
      </trkpt>
      <trkpt lat="45.353" lon="6.15308">
        <ele>1556</ele>
        <time>2024-06-06T04:08:41+00:00</time>
      </trkpt>
      <trkpt lat="45.35312" lon="6.153">
        <ele>1558</ele>
        <time>2024-06-06T04:08:44+00:00</time>
      </trkpt>
      <trkpt lat="45.35331" lon="6.15297">
        <ele>1555</ele>
        <time>2024-06-06T04:08:47+00:00</time>
      </trkpt>
      <trkpt lat="45.35344" lon="6.15298">
        <ele>1557</ele>
        <time>2024-06-06T04:08:50+00:00</time>
      </trkpt>
      <trkpt lat="45.35357" lon="6.15295">
        <ele>1560</ele>
        <time>2024-06-06T04:08:53+00:00</time>
      </trkpt>
      <trkpt lat="45.35354" lon="6.15289">
        <ele>1554</ele>
        <time>2024-06-06T04:08:56+00:00</time>
      </trkpt>
      <trkpt lat="45.35365" lon="6.15281">
        <ele>1555</ele>
        <time>2024-06-06T04:08:59+00:00</time>
      </trkpt>
      <trkpt lat="45.35374" lon="6.15276">
        <ele>1550</ele>
        <time>2024-06-06T04:09:02+00:00</time>
      </trkpt>
      <trkpt lat="45.35366" lon="6.15269">
        <ele>1541</ele>
        <time>2024-06-06T04:09:05+00:00</time>
      </trkpt>
      <trkpt lat="45.35375" lon="6.15262">
        <ele>1543</ele>
        <time>2024-06-06T04:09:08+00:00</time>
      </trkpt>
      <trkpt lat="45.35386" lon="6.1526">
        <ele>1542</ele>
        <time>2024-06-06T04:09:11+00:00</time>
      </trkpt>
      <trkpt lat="45.35395" lon="6.15255">
        <ele>1543</ele>
        <time>2024-06-06T04:09:14+00:00</time>
      </trkpt>
      <trkpt lat="45.35394" lon="6.15239">
        <ele>1532</ele>
        <time>2024-06-06T04:09:17+00:00</time>
      </trkpt>
      <trkpt lat="45.354" lon="6.15228">
        <ele>1529</ele>
        <time>2024-06-06T04:09:20+00:00</time>
      </trkpt>
      <trkpt lat="45.35409" lon="6.15218">
        <ele>1526</ele>
        <time>2024-06-06T04:09:23+00:00</time>
      </trkpt>
      <trkpt lat="45.3542" lon="6.15212">
        <ele>1528</ele>
        <time>2024-06-06T04:09:26+00:00</time>
      </trkpt>
      <trkpt lat="45.35428" lon="6.15214">
        <ele>1528</ele>
        <time>2024-06-06T04:09:29+00:00</time>
      </trkpt>
      <trkpt lat="45.3544" lon="6.15211">
        <ele>1528</ele>
        <time>2024-06-06T04:09:32+00:00</time>
      </trkpt>
      <trkpt lat="45.35445" lon="6.15216">
        <ele>1526</ele>
        <time>2024-06-06T04:09:35+00:00</time>
      </trkpt>
      <trkpt lat="45.35452" lon="6.15223">
        <ele>1527</ele>
        <time>2024-06-06T04:09:38+00:00</time>
      </trkpt>
      <trkpt lat="45.35465" lon="6.1524">
        <ele>1529</ele>
        <time>2024-06-06T04:09:41+00:00</time>
      </trkpt>
      <trkpt lat="45.35469" lon="6.15246">
        <ele>1532</ele>
        <time>2024-06-06T04:09:44+00:00</time>
      </trkpt>
      <trkpt lat="45.35477" lon="6.15256">
        <ele>1530</ele>
        <time>2024-06-06T04:09:47+00:00</time>
      </trkpt>
      <trkpt lat="45.3548" lon="6.15253">
        <ele>1523</ele>
        <time>2024-06-06T04:09:50+00:00</time>
      </trkpt>
      <trkpt lat="45.35488" lon="6.15251">
        <ele>1526</ele>
        <time>2024-06-06T04:09:53+00:00</time>
      </trkpt>
      <trkpt lat="45.35502" lon="6.15257">
        <ele>1517</ele>
        <time>2024-06-06T04:09:56+00:00</time>
      </trkpt>
      <trkpt lat="45.35511" lon="6.15254">
        <ele>1516</ele>
        <time>2024-06-06T04:09:59+00:00</time>
      </trkpt>
      <trkpt lat="45.35516" lon="6.1525">
        <ele>1516</ele>
        <time>2024-06-06T04:10:02+00:00</time>
      </trkpt>
      <trkpt lat="45.35509" lon="6.15245">
        <ele>1511</ele>
        <time>2024-06-06T04:10:05+00:00</time>
      </trkpt>
      <trkpt lat="45.35499" lon="6.15238">
        <ele>1513</ele>
        <time>2024-06-06T04:10:08+00:00</time>
      </trkpt>
      <trkpt lat="45.35494" lon="6.15232">
        <ele>1513</ele>
        <time>2024-06-06T04:10:11+00:00</time>
      </trkpt>
      <trkpt lat="45.35492" lon="6.15226">
        <ele>1510</ele>
        <time>2024-06-06T04:10:14+00:00</time>
      </trkpt>
      <trkpt lat="45.35497" lon="6.15231">
        <ele>1513</ele>
        <time>2024-06-06T04:10:17+00:00</time>
      </trkpt>
      <trkpt lat="45.35505" lon="6.15232">
        <ele>1506</ele>
        <time>2024-06-06T04:10:20+00:00</time>
      </trkpt>
      <trkpt lat="45.35511" lon="6.15236">
        <ele>1505</ele>
        <time>2024-06-06T04:10:23+00:00</time>
      </trkpt>
      <trkpt lat="45.35513" lon="6.15231">
        <ele>1505</ele>
        <time>2024-06-06T04:10:26+00:00</time>
      </trkpt>
      <trkpt lat="45.35505" lon="6.15224">
        <ele>1504</ele>
        <time>2024-06-06T04:10:29+00:00</time>
      </trkpt>
      <trkpt lat="45.35513" lon="6.15223">
        <ele>1501</ele>
        <time>2024-06-06T04:10:32+00:00</time>
      </trkpt>
      <trkpt lat="45.3551" lon="6.15214">
        <ele>1501</ele>
        <time>2024-06-06T04:10:35+00:00</time>
      </trkpt>
      <trkpt lat="45.35517" lon="6.15215">
        <ele>1497</ele>
        <time>2024-06-06T04:10:38+00:00</time>
      </trkpt>
      <trkpt lat="45.35516" lon="6.15207">
        <ele>1491</ele>
        <time>2024-06-06T04:10:41+00:00</time>
      </trkpt>
      <trkpt lat="45.35514" lon="6.15196">
        <ele>1488</ele>
        <time>2024-06-06T04:10:44+00:00</time>
      </trkpt>
      <trkpt lat="45.35523" lon="6.15191">
        <ele>1486</ele>
        <time>2024-06-06T04:10:47+00:00</time>
      </trkpt>
      <trkpt lat="45.35531" lon="6.15186">
        <ele>1482</ele>
        <time>2024-06-06T04:10:50+00:00</time>
      </trkpt>
      <trkpt lat="45.35525" lon="6.1518">
        <ele>1480</ele>
        <time>2024-06-06T04:10:53+00:00</time>
      </trkpt>
      <trkpt lat="45.35531" lon="6.1517">
        <ele>1476</ele>
        <time>2024-06-06T04:10:56+00:00</time>
      </trkpt>
      <trkpt lat="45.35522" lon="6.15149">
        <ele>1468</ele>
        <time>2024-06-06T04:10:59+00:00</time>
      </trkpt>
      <trkpt lat="45.35528" lon="6.15151">
        <ele>1473</ele>
        <time>2024-06-06T04:11:02+00:00</time>
      </trkpt>
      <trkpt lat="45.35537" lon="6.15156">
        <ele>1470</ele>
        <time>2024-06-06T04:11:05+00:00</time>
      </trkpt>
      <trkpt lat="45.35547" lon="6.15156">
        <ele>1467</ele>
        <time>2024-06-06T04:11:08+00:00</time>
      </trkpt>
      <trkpt lat="45.35557" lon="6.15159">
        <ele>1462</ele>
        <time>2024-06-06T04:11:11+00:00</time>
      </trkpt>
      <trkpt lat="45.35571" lon="6.15152">
        <ele>1454</ele>
        <time>2024-06-06T04:11:14+00:00</time>
      </trkpt>
      <trkpt lat="45.35576" lon="6.15157">
        <ele>1454</ele>
        <time>2024-06-06T04:11:17+00:00</time>
      </trkpt>
      <trkpt lat="45.35582" lon="6.15155">
        <ele>1453</ele>
        <time>2024-06-06T04:11:20+00:00</time>
      </trkpt>
      <trkpt lat="45.35581" lon="6.15152">
        <ele>1453</ele>
        <time>2024-06-06T04:11:23+00:00</time>
      </trkpt>
      <trkpt lat="45.35585" lon="6.1515">
        <ele>1453</ele>
        <time>2024-06-06T04:11:26+00:00</time>
      </trkpt>
      <trkpt lat="45.35583" lon="6.15143">
        <ele>1449</ele>
        <time>2024-06-06T04:11:29+00:00</time>
      </trkpt>
      <trkpt lat="45.35593" lon="6.15139">
        <ele>1439</ele>
        <time>2024-06-06T04:11:32+00:00</time>
      </trkpt>
      <trkpt lat="45.35604" lon="6.15142">
        <ele>1443</ele>
        <time>2024-06-06T04:11:35+00:00</time>
      </trkpt>
      <trkpt lat="45.35609" lon="6.15131">
        <ele>1437</ele>
        <time>2024-06-06T04:11:38+00:00</time>
      </trkpt>
      <trkpt lat="45.35613" lon="6.1512">
        <ele>1426</ele>
        <time>2024-06-06T04:11:41+00:00</time>
      </trkpt>
      <trkpt lat="45.35619" lon="6.15112">
        <ele>1426</ele>
        <time>2024-06-06T04:11:44+00:00</time>
      </trkpt>
      <trkpt lat="45.35626" lon="6.15105">
        <ele>1419</ele>
        <time>2024-06-06T04:11:47+00:00</time>
      </trkpt>
      <trkpt lat="45.3563" lon="6.15091">
        <ele>1418</ele>
        <time>2024-06-06T04:11:50+00:00</time>
      </trkpt>
      <trkpt lat="45.35636" lon="6.15088">
        <ele>1415</ele>
        <time>2024-06-06T04:11:53+00:00</time>
      </trkpt>
      <trkpt lat="45.35644" lon="6.15083">
        <ele>1416</ele>
        <time>2024-06-06T04:11:56+00:00</time>
      </trkpt>
      <trkpt lat="45.35651" lon="6.15083">
        <ele>1417</ele>
        <time>2024-06-06T04:11:59+00:00</time>
      </trkpt>
      <trkpt lat="45.35659" lon="6.15076">
        <ele>1412</ele>
        <time>2024-06-06T04:12:02+00:00</time>
      </trkpt>
      <trkpt lat="45.35666" lon="6.15069">
        <ele>1410</ele>
        <time>2024-06-06T04:12:05+00:00</time>
      </trkpt>
      <trkpt lat="45.35675" lon="6.15062">
        <ele>1411</ele>
        <time>2024-06-06T04:12:08+00:00</time>
      </trkpt>
      <trkpt lat="45.35679" lon="6.15053">
        <ele>1408</ele>
        <time>2024-06-06T04:12:11+00:00</time>
      </trkpt>
      <trkpt lat="45.3569" lon="6.15045">
        <ele>1405</ele>
        <time>2024-06-06T04:12:14+00:00</time>
      </trkpt>
      <trkpt lat="45.35699" lon="6.15036">
        <ele>1401</ele>
        <time>2024-06-06T04:12:17+00:00</time>
      </trkpt>
      <trkpt lat="45.35689" lon="6.1503">
        <ele>1400</ele>
        <time>2024-06-06T04:12:20+00:00</time>
      </trkpt>
      <trkpt lat="45.35679" lon="6.15031">
        <ele>1399</ele>
        <time>2024-06-06T04:12:23+00:00</time>
      </trkpt>
      <trkpt lat="45.35681" lon="6.15025">
        <ele>1397</ele>
        <time>2024-06-06T04:12:26+00:00</time>
      </trkpt>
      <trkpt lat="45.35699" lon="6.15008">
        <ele>1388</ele>
        <time>2024-06-06T04:12:29+00:00</time>
      </trkpt>
      <trkpt lat="45.35697" lon="6.15007">
        <ele>1388</ele>
        <time>2024-06-06T04:12:32+00:00</time>
      </trkpt>
      <trkpt lat="45.35706" lon="6.14996">
        <ele>1385</ele>
        <time>2024-06-06T04:12:35+00:00</time>
      </trkpt>
      <trkpt lat="45.3572" lon="6.14996">
        <ele>1385</ele>
        <time>2024-06-06T04:12:38+00:00</time>
      </trkpt>
      <trkpt lat="45.35732" lon="6.14992">
        <ele>1385</ele>
        <time>2024-06-06T04:12:41+00:00</time>
      </trkpt>
      <trkpt lat="45.35727" lon="6.14979">
        <ele>1375</ele>
        <time>2024-06-06T04:12:44+00:00</time>
      </trkpt>
      <trkpt lat="45.35738" lon="6.14976">
        <ele>1375</ele>
        <time>2024-06-06T04:12:47+00:00</time>
      </trkpt>
      <trkpt lat="45.35739" lon="6.14968">
        <ele>1371</ele>
        <time>2024-06-06T04:12:50+00:00</time>
      </trkpt>
      <trkpt lat="45.35747" lon="6.14965">
        <ele>1371</ele>
        <time>2024-06-06T04:12:53+00:00</time>
      </trkpt>
      <trkpt lat="45.35749" lon="6.14954">
        <ele>1364</ele>
        <time>2024-06-06T04:12:56+00:00</time>
      </trkpt>
      <trkpt lat="45.35746" lon="6.1495">
        <ele>1360</ele>
        <time>2024-06-06T04:12:59+00:00</time>
      </trkpt>
      <trkpt lat="45.3575" lon="6.14946">
        <ele>1360</ele>
        <time>2024-06-06T04:13:02+00:00</time>
      </trkpt>
      <trkpt lat="45.35749" lon="6.14929">
        <ele>1351</ele>
        <time>2024-06-06T04:13:05+00:00</time>
      </trkpt>
      <trkpt lat="45.35757" lon="6.14918">
        <ele>1346</ele>
        <time>2024-06-06T04:13:08+00:00</time>
      </trkpt>
      <trkpt lat="45.35768" lon="6.14911">
        <ele>1346</ele>
        <time>2024-06-06T04:13:11+00:00</time>
      </trkpt>
      <trkpt lat="45.35784" lon="6.14904">
        <ele>1341</ele>
        <time>2024-06-06T04:13:14+00:00</time>
      </trkpt>
      <trkpt lat="45.35796" lon="6.14896">
        <ele>1336</ele>
        <time>2024-06-06T04:13:17+00:00</time>
      </trkpt>
      <trkpt lat="45.35807" lon="6.14892">
        <ele>1336</ele>
        <time>2024-06-06T04:13:20+00:00</time>
      </trkpt>
      <trkpt lat="45.35816" lon="6.1488">
        <ele>1334</ele>
        <time>2024-06-06T04:13:23+00:00</time>
      </trkpt>
      <trkpt lat="45.35826" lon="6.14868">
        <ele>1329</ele>
        <time>2024-06-06T04:13:26+00:00</time>
      </trkpt>
      <trkpt lat="45.35827" lon="6.14854">
        <ele>1327</ele>
        <time>2024-06-06T04:13:29+00:00</time>
      </trkpt>
      <trkpt lat="45.35823" lon="6.14843">
        <ele>1325</ele>
        <time>2024-06-06T04:13:32+00:00</time>
      </trkpt>
      <trkpt lat="45.35818" lon="6.14832">
        <ele>1321</ele>
        <time>2024-06-06T04:13:35+00:00</time>
      </trkpt>
      <trkpt lat="45.35812" lon="6.14823">
        <ele>1319</ele>
        <time>2024-06-06T04:13:38+00:00</time>
      </trkpt>
      <trkpt lat="45.35806" lon="6.14811">
        <ele>1316</ele>
        <time>2024-06-06T04:13:41+00:00</time>
      </trkpt>
      <trkpt lat="45.35799" lon="6.14803">
        <ele>1311</ele>
        <time>2024-06-06T04:13:44+00:00</time>
      </trkpt>
      <trkpt lat="45.35798" lon="6.1479">
        <ele>1309</ele>
        <time>2024-06-06T04:13:47+00:00</time>
      </trkpt>
      <trkpt lat="45.35793" lon="6.1477">
        <ele>1305</ele>
        <time>2024-06-06T04:13:50+00:00</time>
      </trkpt>
      <trkpt lat="45.35793" lon="6.14759">
        <ele>1301</ele>
        <time>2024-06-06T04:13:53+00:00</time>
      </trkpt>
      <trkpt lat="45.3579" lon="6.14741">
        <ele>1297</ele>
        <time>2024-06-06T04:13:56+00:00</time>
      </trkpt>
      <trkpt lat="45.35791" lon="6.14726">
        <ele>1294</ele>
        <time>2024-06-06T04:13:59+00:00</time>
      </trkpt>
      <trkpt lat="45.3579" lon="6.14714">
        <ele>1291</ele>
        <time>2024-06-06T04:14:02+00:00</time>
      </trkpt>
      <trkpt lat="45.35782" lon="6.14697">
        <ele>1287</ele>
        <time>2024-06-06T04:14:05+00:00</time>
      </trkpt>
      <trkpt lat="45.35784" lon="6.14685">
        <ele>1284</ele>
        <time>2024-06-06T04:14:08+00:00</time>
      </trkpt>
      <trkpt lat="45.35792" lon="6.14683">
        <ele>1285</ele>
        <time>2024-06-06T04:14:11+00:00</time>
      </trkpt>
      <trkpt lat="45.35805" lon="6.14679">
        <ele>1284</ele>
        <time>2024-06-06T04:14:14+00:00</time>
      </trkpt>
      <trkpt lat="45.35813" lon="6.14675">
        <ele>1286</ele>
        <time>2024-06-06T04:14:17+00:00</time>
      </trkpt>
      <trkpt lat="45.35813" lon="6.14675">
        <ele>1286</ele>
        <time>2024-06-06T04:14:20+00:00</time>
      </trkpt>
      <trkpt lat="45.35813" lon="6.14675">
        <ele>1286</ele>
        <time>2024-06-06T04:14:23+00:00</time>
      </trkpt>
      <trkpt lat="45.35821" lon="6.14667">
        <ele>1285</ele>
        <time>2024-06-06T04:14:26+00:00</time>
      </trkpt>
      <trkpt lat="45.35827" lon="6.14655">
        <ele>1282</ele>
        <time>2024-06-06T04:14:29+00:00</time>
      </trkpt>
      <trkpt lat="45.35833" lon="6.14637">
        <ele>1281</ele>
        <time>2024-06-06T04:14:32+00:00</time>
      </trkpt>
      <trkpt lat="45.3584" lon="6.14622">
        <ele>1282</ele>
        <time>2024-06-06T04:14:35+00:00</time>
      </trkpt>
      <trkpt lat="45.35854" lon="6.14601">
        <ele>1281</ele>
        <time>2024-06-06T04:14:38+00:00</time>
      </trkpt>
      <trkpt lat="45.35865" lon="6.14584">
        <ele>1279</ele>
        <time>2024-06-06T04:14:41+00:00</time>
      </trkpt>
      <trkpt lat="45.35877" lon="6.14572">
        <ele>1280</ele>
        <time>2024-06-06T04:14:44+00:00</time>
      </trkpt>
      <trkpt lat="45.3589" lon="6.1456">
        <ele>1279</ele>
        <time>2024-06-06T04:14:47+00:00</time>
      </trkpt>
      <trkpt lat="45.35905" lon="6.1455">
        <ele>1278</ele>
        <time>2024-06-06T04:14:50+00:00</time>
      </trkpt>
      <trkpt lat="45.35923" lon="6.14537">
        <ele>1275</ele>
        <time>2024-06-06T04:14:53+00:00</time>
      </trkpt>
      <trkpt lat="45.35927" lon="6.14535">
        <ele>1275</ele>
        <time>2024-06-06T04:14:56+00:00</time>
      </trkpt>
      <trkpt lat="45.35939" lon="6.14527">
        <ele>1274</ele>
        <time>2024-06-06T04:14:59+00:00</time>
      </trkpt>
      <trkpt lat="45.35953" lon="6.14522">
        <ele>1275</ele>
        <time>2024-06-06T04:15:02+00:00</time>
      </trkpt>
      <trkpt lat="45.35965" lon="6.14519">
        <ele>1275</ele>
        <time>2024-06-06T04:15:05+00:00</time>
      </trkpt>
      <trkpt lat="45.35973" lon="6.14515">
        <ele>1273</ele>
        <time>2024-06-06T04:15:08+00:00</time>
      </trkpt>
      <trkpt lat="45.35979" lon="6.14509">
        <ele>1272</ele>
        <time>2024-06-06T04:15:11+00:00</time>
      </trkpt>
      <trkpt lat="45.35989" lon="6.14496">
        <ele>1271</ele>
        <time>2024-06-06T04:15:14+00:00</time>
      </trkpt>
      <trkpt lat="45.35996" lon="6.14491">
        <ele>1271</ele>
        <time>2024-06-06T04:15:17+00:00</time>
      </trkpt>
      <trkpt lat="45.36006" lon="6.14489">
        <ele>1268</ele>
        <time>2024-06-06T04:15:20+00:00</time>
      </trkpt>
      <trkpt lat="45.36018" lon="6.1449">
        <ele>1272</ele>
        <time>2024-06-06T04:15:23+00:00</time>
      </trkpt>
      <trkpt lat="45.36029" lon="6.14493">
        <ele>1271</ele>
        <time>2024-06-06T04:15:26+00:00</time>
      </trkpt>
      <trkpt lat="45.36041" lon="6.14503">
        <ele>1274</ele>
        <time>2024-06-06T04:15:29+00:00</time>
      </trkpt>
      <trkpt lat="45.36054" lon="6.14511">
        <ele>1279</ele>
        <time>2024-06-06T04:15:32+00:00</time>
      </trkpt>
      <trkpt lat="45.36066" lon="6.14515">
        <ele>1271</ele>
        <time>2024-06-06T04:15:35+00:00</time>
      </trkpt>
      <trkpt lat="45.36074" lon="6.14514">
        <ele>1277</ele>
        <time>2024-06-06T04:15:38+00:00</time>
      </trkpt>
      <trkpt lat="45.36088" lon="6.14507">
        <ele>1269</ele>
        <time>2024-06-06T04:15:41+00:00</time>
      </trkpt>
      <trkpt lat="45.36107" lon="6.14497">
        <ele>1262</ele>
        <time>2024-06-06T04:15:44+00:00</time>
      </trkpt>
      <trkpt lat="45.36118" lon="6.14493">
        <ele>1261</ele>
        <time>2024-06-06T04:15:47+00:00</time>
      </trkpt>
      <trkpt lat="45.36137" lon="6.1449">
        <ele>1259</ele>
        <time>2024-06-06T04:15:50+00:00</time>
      </trkpt>
      <trkpt lat="45.36158" lon="6.14488">
        <ele>1251</ele>
        <time>2024-06-06T04:15:53+00:00</time>
      </trkpt>
      <trkpt lat="45.36178" lon="6.14488">
        <ele>1251</ele>
        <time>2024-06-06T04:15:56+00:00</time>
      </trkpt>
      <trkpt lat="45.36194" lon="6.14491">
        <ele>1251</ele>
        <time>2024-06-06T04:15:59+00:00</time>
      </trkpt>
      <trkpt lat="45.36221" lon="6.14501">
        <ele>1251</ele>
        <time>2024-06-06T04:16:02+00:00</time>
      </trkpt>
      <trkpt lat="45.36248" lon="6.14514">
        <ele>1251</ele>
        <time>2024-06-06T04:16:05+00:00</time>
      </trkpt>
      <trkpt lat="45.36279" lon="6.14532">
        <ele>1251</ele>
        <time>2024-06-06T04:16:08+00:00</time>
      </trkpt>
      <trkpt lat="45.36302" lon="6.14549">
        <ele>1252</ele>
        <time>2024-06-06T04:16:11+00:00</time>
      </trkpt>
      <trkpt lat="45.36329" lon="6.1457">
        <ele>1251</ele>
        <time>2024-06-06T04:16:14+00:00</time>
      </trkpt>
      <trkpt lat="45.36342" lon="6.14578">
        <ele>1249</ele>
        <time>2024-06-06T04:16:17+00:00</time>
      </trkpt>
      <trkpt lat="45.36352" lon="6.14585">
        <ele>1250</ele>
        <time>2024-06-06T04:16:20+00:00</time>
      </trkpt>
      <trkpt lat="45.36363" lon="6.14588">
        <ele>1249</ele>
        <time>2024-06-06T04:16:23+00:00</time>
      </trkpt>
      <trkpt lat="45.3637" lon="6.14588">
        <ele>1248</ele>
        <time>2024-06-06T04:16:26+00:00</time>
      </trkpt>
      <trkpt lat="45.36379" lon="6.14585">
        <ele>1248</ele>
        <time>2024-06-06T04:16:29+00:00</time>
      </trkpt>
      <trkpt lat="45.36396" lon="6.14581">
        <ele>1247</ele>
        <time>2024-06-06T04:16:32+00:00</time>
      </trkpt>
      <trkpt lat="45.3641" lon="6.14577">
        <ele>1244</ele>
        <time>2024-06-06T04:16:35+00:00</time>
      </trkpt>
      <trkpt lat="45.36429" lon="6.14569">
        <ele>1242</ele>
        <time>2024-06-06T04:16:38+00:00</time>
      </trkpt>
      <trkpt lat="45.36451" lon="6.14558">
        <ele>1244</ele>
        <time>2024-06-06T04:16:41+00:00</time>
      </trkpt>
      <trkpt lat="45.36452" lon="6.14558">
        <ele>1241</ele>
        <time>2024-06-06T04:16:44+00:00</time>
      </trkpt>
      <trkpt lat="45.36465" lon="6.14564">
        <ele>1244</ele>
        <time>2024-06-06T04:16:47+00:00</time>
      </trkpt>
      <trkpt lat="45.36473" lon="6.14563">
        <ele>1246</ele>
        <time>2024-06-06T04:16:50+00:00</time>
      </trkpt>
      <trkpt lat="45.36479" lon="6.14562">
        <ele>1246</ele>
        <time>2024-06-06T04:16:53+00:00</time>
      </trkpt>
      <trkpt lat="45.36483" lon="6.14561">
        <ele>1248</ele>
        <time>2024-06-06T04:16:56+00:00</time>
      </trkpt>
      <trkpt lat="45.36491" lon="6.14556">
        <ele>1247</ele>
        <time>2024-06-06T04:16:59+00:00</time>
      </trkpt>
      <trkpt lat="45.36503" lon="6.14551">
        <ele>1250</ele>
        <time>2024-06-06T04:17:02+00:00</time>
      </trkpt>
      <trkpt lat="45.36531" lon="6.14541">
        <ele>1253</ele>
        <time>2024-06-06T04:17:05+00:00</time>
      </trkpt>
      <trkpt lat="45.36553" lon="6.14539">
        <ele>1254</ele>
        <time>2024-06-06T04:17:08+00:00</time>
      </trkpt>
      <trkpt lat="45.36574" lon="6.14533">
        <ele>1261</ele>
        <time>2024-06-06T04:17:11+00:00</time>
      </trkpt>
      <trkpt lat="45.36599" lon="6.14525">
        <ele>1266</ele>
        <time>2024-06-06T04:17:14+00:00</time>
      </trkpt>
      <trkpt lat="45.3663" lon="6.14518">
        <ele>1269</ele>
        <time>2024-06-06T04:17:17+00:00</time>
      </trkpt>
      <trkpt lat="45.36656" lon="6.14516">
        <ele>1272</ele>
        <time>2024-06-06T04:17:20+00:00</time>
      </trkpt>
      <trkpt lat="45.36662" lon="6.14516">
        <ele>1273</ele>
        <time>2024-06-06T04:17:23+00:00</time>
      </trkpt>
      <trkpt lat="45.36664" lon="6.14516">
        <ele>1273</ele>
        <time>2024-06-06T04:17:26+00:00</time>
      </trkpt>
      <trkpt lat="45.36665" lon="6.14518">
        <ele>1273</ele>
        <time>2024-06-06T04:17:29+00:00</time>
      </trkpt>
      <trkpt lat="45.36665" lon="6.14521">
        <ele>1275</ele>
        <time>2024-06-06T04:17:32+00:00</time>
      </trkpt>
      <trkpt lat="45.36665" lon="6.14524">
        <ele>1275</ele>
        <time>2024-06-06T04:17:35+00:00</time>
      </trkpt>
      <trkpt lat="45.36659" lon="6.14541">
        <ele>1281</ele>
        <time>2024-06-06T04:17:38+00:00</time>
      </trkpt>
      <trkpt lat="45.36648" lon="6.14572">
        <ele>1289</ele>
        <time>2024-06-06T04:17:41+00:00</time>
      </trkpt>
      <trkpt lat="45.36644" lon="6.14586">
        <ele>1291</ele>
        <time>2024-06-06T04:17:44+00:00</time>
      </trkpt>
      <trkpt lat="45.36642" lon="6.1459">
        <ele>1294</ele>
        <time>2024-06-06T04:17:47+00:00</time>
      </trkpt>
      <trkpt lat="45.36637" lon="6.14599">
        <ele>1293</ele>
        <time>2024-06-06T04:17:50+00:00</time>
      </trkpt>
      <trkpt lat="45.36628" lon="6.14613">
        <ele>1299</ele>
        <time>2024-06-06T04:17:53+00:00</time>
      </trkpt>
      <trkpt lat="45.36624" lon="6.14618">
        <ele>1299</ele>
        <time>2024-06-06T04:17:56+00:00</time>
      </trkpt>
      <trkpt lat="45.36618" lon="6.14625">
        <ele>1299</ele>
        <time>2024-06-06T04:17:59+00:00</time>
      </trkpt>
      <trkpt lat="45.36613" lon="6.14631">
        <ele>1303</ele>
        <time>2024-06-06T04:18:02+00:00</time>
      </trkpt>
      <trkpt lat="45.36602" lon="6.14641">
        <ele>1301</ele>
        <time>2024-06-06T04:18:05+00:00</time>
      </trkpt>
      <trkpt lat="45.36591" lon="6.1465">
        <ele>1305</ele>
        <time>2024-06-06T04:18:08+00:00</time>
      </trkpt>
      <trkpt lat="45.36585" lon="6.14657">
        <ele>1303</ele>
        <time>2024-06-06T04:18:11+00:00</time>
      </trkpt>
      <trkpt lat="45.36574" lon="6.14674">
        <ele>1309</ele>
        <time>2024-06-06T04:18:14+00:00</time>
      </trkpt>
      <trkpt lat="45.36565" lon="6.14692">
        <ele>1317</ele>
        <time>2024-06-06T04:18:17+00:00</time>
      </trkpt>
      <trkpt lat="45.36563" lon="6.14698">
        <ele>1317</ele>
        <time>2024-06-06T04:18:20+00:00</time>
      </trkpt>
      <trkpt lat="45.3656" lon="6.14707">
        <ele>1322</ele>
        <time>2024-06-06T04:18:23+00:00</time>
      </trkpt>
      <trkpt lat="45.36561" lon="6.14712">
        <ele>1326</ele>
        <time>2024-06-06T04:18:26+00:00</time>
      </trkpt>
      <trkpt lat="45.36564" lon="6.14713">
        <ele>1326</ele>
        <time>2024-06-06T04:18:29+00:00</time>
      </trkpt>
      <trkpt lat="45.36566" lon="6.14714">
        <ele>1326</ele>
        <time>2024-06-06T04:18:32+00:00</time>
      </trkpt>
      <trkpt lat="45.36581" lon="6.14715">
        <ele>1329</ele>
        <time>2024-06-06T04:18:35+00:00</time>
      </trkpt>
      <trkpt lat="45.36603" lon="6.14715">
        <ele>1333</ele>
        <time>2024-06-06T04:18:38+00:00</time>
      </trkpt>
      <trkpt lat="45.36615" lon="6.14713">
        <ele>1335</ele>
        <time>2024-06-06T04:18:41+00:00</time>
      </trkpt>
      <trkpt lat="45.36622" lon="6.14713">
        <ele>1339</ele>
        <time>2024-06-06T04:18:44+00:00</time>
      </trkpt>
      <trkpt lat="45.36636" lon="6.14708">
        <ele>1337</ele>
        <time>2024-06-06T04:18:47+00:00</time>
      </trkpt>
      <trkpt lat="45.36647" lon="6.14705">
        <ele>1339</ele>
        <time>2024-06-06T04:18:50+00:00</time>
      </trkpt>
      <trkpt lat="45.36656" lon="6.14704">
        <ele>1342</ele>
        <time>2024-06-06T04:18:53+00:00</time>
      </trkpt>
      <trkpt lat="45.36667" lon="6.14704">
        <ele>1343</ele>
        <time>2024-06-06T04:18:56+00:00</time>
      </trkpt>
      <trkpt lat="45.36675" lon="6.14708">
        <ele>1344</ele>
        <time>2024-06-06T04:18:59+00:00</time>
      </trkpt>
      <trkpt lat="45.36695" lon="6.14716">
        <ele>1350</ele>
        <time>2024-06-06T04:19:02+00:00</time>
      </trkpt>
      <trkpt lat="45.36711" lon="6.14727">
        <ele>1357</ele>
        <time>2024-06-06T04:19:05+00:00</time>
      </trkpt>
      <trkpt lat="45.36715" lon="6.14733">
        <ele>1361</ele>
        <time>2024-06-06T04:19:08+00:00</time>
      </trkpt>
      <trkpt lat="45.36716" lon="6.14737">
        <ele>1361</ele>
        <time>2024-06-06T04:19:11+00:00</time>
      </trkpt>
      <trkpt lat="45.36715" lon="6.14738">
        <ele>1361</ele>
        <time>2024-06-06T04:19:14+00:00</time>
      </trkpt>
      <trkpt lat="45.36713" lon="6.14742">
        <ele>1366</ele>
        <time>2024-06-06T04:19:17+00:00</time>
      </trkpt>
      <trkpt lat="45.367" lon="6.14756">
        <ele>1372</ele>
        <time>2024-06-06T04:19:20+00:00</time>
      </trkpt>
      <trkpt lat="45.36695" lon="6.14766">
        <ele>1376</ele>
        <time>2024-06-06T04:19:23+00:00</time>
      </trkpt>
      <trkpt lat="45.36688" lon="6.1478">
        <ele>1380</ele>
        <time>2024-06-06T04:19:26+00:00</time>
      </trkpt>
      <trkpt lat="45.36679" lon="6.14803">
        <ele>1395</ele>
        <time>2024-06-06T04:19:29+00:00</time>
      </trkpt>
      <trkpt lat="45.36665" lon="6.14826">
        <ele>1407</ele>
        <time>2024-06-06T04:19:32+00:00</time>
      </trkpt>
      <trkpt lat="45.36654" lon="6.14841">
        <ele>1418</ele>
        <time>2024-06-06T04:19:35+00:00</time>
      </trkpt>
      <trkpt lat="45.36652" lon="6.14843">
        <ele>1418</ele>
        <time>2024-06-06T04:19:38+00:00</time>
      </trkpt>
      <trkpt lat="45.36646" lon="6.14847">
        <ele>1417</ele>
        <time>2024-06-06T04:19:41+00:00</time>
      </trkpt>
      <trkpt lat="45.36644" lon="6.14851">
        <ele>1422</ele>
        <time>2024-06-06T04:19:44+00:00</time>
      </trkpt>
      <trkpt lat="45.36644" lon="6.14852">
        <ele>1422</ele>
        <time>2024-06-06T04:19:47+00:00</time>
      </trkpt>
      <trkpt lat="45.36645" lon="6.14857">
        <ele>1422</ele>
        <time>2024-06-06T04:19:50+00:00</time>
      </trkpt>
      <trkpt lat="45.36646" lon="6.14859">
        <ele>1422</ele>
        <time>2024-06-06T04:19:53+00:00</time>
      </trkpt>
      <trkpt lat="45.36648" lon="6.1486">
        <ele>1427</ele>
        <time>2024-06-06T04:19:56+00:00</time>
      </trkpt>
      <trkpt lat="45.36654" lon="6.14864">
        <ele>1426</ele>
        <time>2024-06-06T04:19:59+00:00</time>
      </trkpt>
      <trkpt lat="45.36668" lon="6.14866">
        <ele>1427</ele>
        <time>2024-06-06T04:20:02+00:00</time>
      </trkpt>
      <trkpt lat="45.36676" lon="6.14867">
        <ele>1428</ele>
        <time>2024-06-06T04:20:05+00:00</time>
      </trkpt>
      <trkpt lat="45.36682" lon="6.1487">
        <ele>1436</ele>
        <time>2024-06-06T04:20:08+00:00</time>
      </trkpt>
      <trkpt lat="45.36685" lon="6.14875">
        <ele>1436</ele>
        <time>2024-06-06T04:20:11+00:00</time>
      </trkpt>
      <trkpt lat="45.36691" lon="6.1488">
        <ele>1436</ele>
        <time>2024-06-06T04:20:14+00:00</time>
      </trkpt>
      <trkpt lat="45.36704" lon="6.1489">
        <ele>1441</ele>
        <time>2024-06-06T04:20:17+00:00</time>
      </trkpt>
      <trkpt lat="45.36716" lon="6.14899">
        <ele>1445</ele>
        <time>2024-06-06T04:20:20+00:00</time>
      </trkpt>
      <trkpt lat="45.36727" lon="6.14906">
        <ele>1452</ele>
        <time>2024-06-06T04:20:23+00:00</time>
      </trkpt>
      <trkpt lat="45.36744" lon="6.14916">
        <ele>1458</ele>
        <time>2024-06-06T04:20:26+00:00</time>
      </trkpt>
      <trkpt lat="45.36759" lon="6.14924">
        <ele>1465</ele>
        <time>2024-06-06T04:20:29+00:00</time>
      </trkpt>
      <trkpt lat="45.36774" lon="6.14931">
        <ele>1476</ele>
        <time>2024-06-06T04:20:32+00:00</time>
      </trkpt>
      <trkpt lat="45.36781" lon="6.14937">
        <ele>1476</ele>
        <time>2024-06-06T04:20:35+00:00</time>
      </trkpt>
      <trkpt lat="45.36795" lon="6.14944">
        <ele>1482</ele>
        <time>2024-06-06T04:20:38+00:00</time>
      </trkpt>
      <trkpt lat="45.36806" lon="6.14952">
        <ele>1487</ele>
        <time>2024-06-06T04:20:41+00:00</time>
      </trkpt>
      <trkpt lat="45.36826" lon="6.1496">
        <ele>1496</ele>
        <time>2024-06-06T04:20:44+00:00</time>
      </trkpt>
      <trkpt lat="45.36835" lon="6.14967">
        <ele>1499</ele>
        <time>2024-06-06T04:20:47+00:00</time>
      </trkpt>
      <trkpt lat="45.36851" lon="6.14973">
        <ele>1507</ele>
        <time>2024-06-06T04:20:50+00:00</time>
      </trkpt>
      <trkpt lat="45.3688" lon="6.14983">
        <ele>1519</ele>
        <time>2024-06-06T04:20:53+00:00</time>
      </trkpt>
      <trkpt lat="45.36909" lon="6.14994">
        <ele>1532</ele>
        <time>2024-06-06T04:20:56+00:00</time>
      </trkpt>
      <trkpt lat="45.36918" lon="6.14996">
        <ele>1533</ele>
        <time>2024-06-06T04:20:59+00:00</time>
      </trkpt>
      <trkpt lat="45.36929" lon="6.14995">
        <ele>1534</ele>
        <time>2024-06-06T04:21:02+00:00</time>
      </trkpt>
      <trkpt lat="45.36933" lon="6.14993">
        <ele>1536</ele>
        <time>2024-06-06T04:21:05+00:00</time>
      </trkpt>
      <trkpt lat="45.36942" lon="6.14988">
        <ele>1533</ele>
        <time>2024-06-06T04:21:08+00:00</time>
      </trkpt>
      <trkpt lat="45.36952" lon="6.14978">
        <ele>1537</ele>
        <time>2024-06-06T04:21:11+00:00</time>
      </trkpt>
      <trkpt lat="45.36973" lon="6.14953">
        <ele>1549</ele>
        <time>2024-06-06T04:21:14+00:00</time>
      </trkpt>
      <trkpt lat="45.36981" lon="6.14944">
        <ele>1554</ele>
        <time>2024-06-06T04:21:17+00:00</time>
      </trkpt>
      <trkpt lat="45.36997" lon="6.14925">
        <ele>1561</ele>
        <time>2024-06-06T04:21:20+00:00</time>
      </trkpt>
      <trkpt lat="45.37014" lon="6.14903">
        <ele>1569</ele>
        <time>2024-06-06T04:21:23+00:00</time>
      </trkpt>
      <trkpt lat="45.37025" lon="6.1489">
        <ele>1573</ele>
        <time>2024-06-06T04:21:26+00:00</time>
      </trkpt>
      <trkpt lat="45.37037" lon="6.14876">
        <ele>1574</ele>
        <time>2024-06-06T04:21:29+00:00</time>
      </trkpt>
      <trkpt lat="45.37042" lon="6.14869">
        <ele>1575</ele>
        <time>2024-06-06T04:21:32+00:00</time>
      </trkpt>
      <trkpt lat="45.37048" lon="6.14863">
        <ele>1575</ele>
        <time>2024-06-06T04:21:35+00:00</time>
      </trkpt>
      <trkpt lat="45.37051" lon="6.14859">
        <ele>1579</ele>
        <time>2024-06-06T04:21:38+00:00</time>
      </trkpt>
      <trkpt lat="45.37055" lon="6.14854">
        <ele>1579</ele>
        <time>2024-06-06T04:21:41+00:00</time>
      </trkpt>
      <trkpt lat="45.37058" lon="6.14851">
        <ele>1579</ele>
        <time>2024-06-06T04:21:44+00:00</time>
      </trkpt>
      <trkpt lat="45.37061" lon="6.14849">
        <ele>1579</ele>
        <time>2024-06-06T04:21:47+00:00</time>
      </trkpt>
      <trkpt lat="45.37066" lon="6.14846">
        <ele>1579</ele>
        <time>2024-06-06T04:21:50+00:00</time>
      </trkpt>
      <trkpt lat="45.37068" lon="6.14846">
        <ele>1579</ele>
        <time>2024-06-06T04:21:53+00:00</time>
      </trkpt>
      <trkpt lat="45.37073" lon="6.14847">
        <ele>1583</ele>
        <time>2024-06-06T04:21:56+00:00</time>
      </trkpt>
      <trkpt lat="45.37077" lon="6.14851">
        <ele>1585</ele>
        <time>2024-06-06T04:21:59+00:00</time>
      </trkpt>
      <trkpt lat="45.3708" lon="6.14854">
        <ele>1590</ele>
        <time>2024-06-06T04:22:02+00:00</time>
      </trkpt>
      <trkpt lat="45.37082" lon="6.14859">
        <ele>1590</ele>
        <time>2024-06-06T04:22:05+00:00</time>
      </trkpt>
      <trkpt lat="45.37082" lon="6.14868">
        <ele>1593</ele>
        <time>2024-06-06T04:22:08+00:00</time>
      </trkpt>
      <trkpt lat="45.37077" lon="6.14883">
        <ele>1594</ele>
        <time>2024-06-06T04:22:11+00:00</time>
      </trkpt>
      <trkpt lat="45.37075" lon="6.14891">
        <ele>1597</ele>
        <time>2024-06-06T04:22:14+00:00</time>
      </trkpt>
      <trkpt lat="45.37074" lon="6.14911">
        <ele>1603</ele>
        <time>2024-06-06T04:22:17+00:00</time>
      </trkpt>
      <trkpt lat="45.37075" lon="6.14929">
        <ele>1606</ele>
        <time>2024-06-06T04:22:20+00:00</time>
      </trkpt>
      <trkpt lat="45.37076" lon="6.14952">
        <ele>1614</ele>
        <time>2024-06-06T04:22:23+00:00</time>
      </trkpt>
      <trkpt lat="45.37062" lon="6.14986">
        <ele>1616</ele>
        <time>2024-06-06T04:22:26+00:00</time>
      </trkpt>
      <trkpt lat="45.37053" lon="6.15004">
        <ele>1617</ele>
        <time>2024-06-06T04:22:29+00:00</time>
      </trkpt>
      <trkpt lat="45.37051" lon="6.15013">
        <ele>1617</ele>
        <time>2024-06-06T04:22:32+00:00</time>
      </trkpt>
      <trkpt lat="45.37049" lon="6.15026">
        <ele>1614</ele>
        <time>2024-06-06T04:22:35+00:00</time>
      </trkpt>
      <trkpt lat="45.37048" lon="6.15039">
        <ele>1616</ele>
        <time>2024-06-06T04:22:38+00:00</time>
      </trkpt>
      <trkpt lat="45.37048" lon="6.15047">
        <ele>1618</ele>
        <time>2024-06-06T04:22:41+00:00</time>
      </trkpt>
      <trkpt lat="45.3705" lon="6.15061">
        <ele>1631</ele>
        <time>2024-06-06T04:22:44+00:00</time>
      </trkpt>
      <trkpt lat="45.37054" lon="6.1508">
        <ele>1633</ele>
        <time>2024-06-06T04:22:47+00:00</time>
      </trkpt>
      <trkpt lat="45.37056" lon="6.15086">
        <ele>1636</ele>
        <time>2024-06-06T04:22:50+00:00</time>
      </trkpt>
      <trkpt lat="45.37059" lon="6.1509">
        <ele>1636</ele>
        <time>2024-06-06T04:22:53+00:00</time>
      </trkpt>
      <trkpt lat="45.3706" lon="6.15091">
        <ele>1643</ele>
        <time>2024-06-06T04:22:56+00:00</time>
      </trkpt>
      <trkpt lat="45.37064" lon="6.1509">
        <ele>1643</ele>
        <time>2024-06-06T04:22:59+00:00</time>
      </trkpt>
      <trkpt lat="45.37067" lon="6.15087">
        <ele>1641</ele>
        <time>2024-06-06T04:23:02+00:00</time>
      </trkpt>
      <trkpt lat="45.37075" lon="6.15077">
        <ele>1644</ele>
        <time>2024-06-06T04:23:05+00:00</time>
      </trkpt>
      <trkpt lat="45.37082" lon="6.1507">
        <ele>1651</ele>
        <time>2024-06-06T04:23:08+00:00</time>
      </trkpt>
      <trkpt lat="45.37096" lon="6.15062">
        <ele>1654</ele>
        <time>2024-06-06T04:23:11+00:00</time>
      </trkpt>
      <trkpt lat="45.37111" lon="6.15057">
        <ele>1665</ele>
        <time>2024-06-06T04:23:14+00:00</time>
      </trkpt>
      <trkpt lat="45.3712" lon="6.15054">
        <ele>1665</ele>
        <time>2024-06-06T04:23:17+00:00</time>
      </trkpt>
      <trkpt lat="45.37124" lon="6.15053">
        <ele>1670</ele>
        <time>2024-06-06T04:23:20+00:00</time>
      </trkpt>
      <trkpt lat="45.37128" lon="6.15051">
        <ele>1670</ele>
        <time>2024-06-06T04:23:23+00:00</time>
      </trkpt>
      <trkpt lat="45.37131" lon="6.15047">
        <ele>1672</ele>
        <time>2024-06-06T04:23:26+00:00</time>
      </trkpt>
      <trkpt lat="45.37137" lon="6.15042">
        <ele>1672</ele>
        <time>2024-06-06T04:23:29+00:00</time>
      </trkpt>
      <trkpt lat="45.37143" lon="6.15036">
        <ele>1678</ele>
        <time>2024-06-06T04:23:32+00:00</time>
      </trkpt>
      <trkpt lat="45.37153" lon="6.15031">
        <ele>1683</ele>
        <time>2024-06-06T04:23:35+00:00</time>
      </trkpt>
      <trkpt lat="45.37157" lon="6.15026">
        <ele>1680</ele>
        <time>2024-06-06T04:23:38+00:00</time>
      </trkpt>
      <trkpt lat="45.37162" lon="6.15019">
        <ele>1681</ele>
        <time>2024-06-06T04:23:41+00:00</time>
      </trkpt>
      <trkpt lat="45.37167" lon="6.15008">
        <ele>1678</ele>
        <time>2024-06-06T04:23:44+00:00</time>
      </trkpt>
      <trkpt lat="45.37171" lon="6.15">
        <ele>1682</ele>
        <time>2024-06-06T04:23:47+00:00</time>
      </trkpt>
      <trkpt lat="45.37177" lon="6.1499">
        <ele>1682</ele>
        <time>2024-06-06T04:23:50+00:00</time>
      </trkpt>
      <trkpt lat="45.37185" lon="6.14983">
        <ele>1682</ele>
        <time>2024-06-06T04:23:53+00:00</time>
      </trkpt>
      <trkpt lat="45.37194" lon="6.14977">
        <ele>1684</ele>
        <time>2024-06-06T04:23:56+00:00</time>
      </trkpt>
      <trkpt lat="45.37209" lon="6.1497">
        <ele>1688</ele>
        <time>2024-06-06T04:23:59+00:00</time>
      </trkpt>
      <trkpt lat="45.37217" lon="6.14966">
        <ele>1692</ele>
        <time>2024-06-06T04:24:02+00:00</time>
      </trkpt>
      <trkpt lat="45.37227" lon="6.14958">
        <ele>1692</ele>
        <time>2024-06-06T04:24:05+00:00</time>
      </trkpt>
      <trkpt lat="45.3726" lon="6.14939">
        <ele>1701</ele>
        <time>2024-06-06T04:24:08+00:00</time>
      </trkpt>
      <trkpt lat="45.37275" lon="6.14938">
        <ele>1713</ele>
        <time>2024-06-06T04:24:11+00:00</time>
      </trkpt>
      <trkpt lat="45.37288" lon="6.1494">
        <ele>1721</ele>
        <time>2024-06-06T04:24:14+00:00</time>
      </trkpt>
      <trkpt lat="45.37299" lon="6.14945">
        <ele>1727</ele>
        <time>2024-06-06T04:24:17+00:00</time>
      </trkpt>
      <trkpt lat="45.37309" lon="6.14942">
        <ele>1731</ele>
        <time>2024-06-06T04:24:20+00:00</time>
      </trkpt>
      <trkpt lat="45.37319" lon="6.14942">
        <ele>1735</ele>
        <time>2024-06-06T04:24:23+00:00</time>
      </trkpt>
      <trkpt lat="45.37328" lon="6.14948">
        <ele>1740</ele>
        <time>2024-06-06T04:24:26+00:00</time>
      </trkpt>
      <trkpt lat="45.37337" lon="6.14947">
        <ele>1743</ele>
        <time>2024-06-06T04:24:29+00:00</time>
      </trkpt>
      <trkpt lat="45.37344" lon="6.14949">
        <ele>1747</ele>
        <time>2024-06-06T04:24:32+00:00</time>
      </trkpt>
      <trkpt lat="45.37353" lon="6.14941">
        <ele>1743</ele>
        <time>2024-06-06T04:24:35+00:00</time>
      </trkpt>
      <trkpt lat="45.37362" lon="6.14937">
        <ele>1751</ele>
        <time>2024-06-06T04:24:38+00:00</time>
      </trkpt>
      <trkpt lat="45.37372" lon="6.1493">
        <ele>1746</ele>
        <time>2024-06-06T04:24:41+00:00</time>
      </trkpt>
      <trkpt lat="45.37382" lon="6.14928">
        <ele>1748</ele>
        <time>2024-06-06T04:24:44+00:00</time>
      </trkpt>
      <trkpt lat="45.37391" lon="6.14929">
        <ele>1747</ele>
        <time>2024-06-06T04:24:47+00:00</time>
      </trkpt>
      <trkpt lat="45.374" lon="6.14923">
        <ele>1750</ele>
        <time>2024-06-06T04:24:50+00:00</time>
      </trkpt>
      <trkpt lat="45.37408" lon="6.14916">
        <ele>1748</ele>
        <time>2024-06-06T04:24:53+00:00</time>
      </trkpt>
      <trkpt lat="45.37414" lon="6.14906">
        <ele>1745</ele>
        <time>2024-06-06T04:24:56+00:00</time>
      </trkpt>
      <trkpt lat="45.37422" lon="6.14894">
        <ele>1747</ele>
        <time>2024-06-06T04:24:59+00:00</time>
      </trkpt>
      <trkpt lat="45.37429" lon="6.14881">
        <ele>1743</ele>
        <time>2024-06-06T04:25:02+00:00</time>
      </trkpt>
      <trkpt lat="45.37436" lon="6.14868">
        <ele>1739</ele>
        <time>2024-06-06T04:25:05+00:00</time>
      </trkpt>
      <trkpt lat="45.37444" lon="6.14859">
        <ele>1741</ele>
        <time>2024-06-06T04:25:08+00:00</time>
      </trkpt>
      <trkpt lat="45.3745" lon="6.14847">
        <ele>1742</ele>
        <time>2024-06-06T04:25:11+00:00</time>
      </trkpt>
      <trkpt lat="45.37455" lon="6.14835">
        <ele>1738</ele>
        <time>2024-06-06T04:25:14+00:00</time>
      </trkpt>
      <trkpt lat="45.3746" lon="6.14824">
        <ele>1736</ele>
        <time>2024-06-06T04:25:17+00:00</time>
      </trkpt>
      <trkpt lat="45.37461" lon="6.1481">
        <ele>1732</ele>
        <time>2024-06-06T04:25:20+00:00</time>
      </trkpt>
      <trkpt lat="45.37468" lon="6.14808">
        <ele>1737</ele>
        <time>2024-06-06T04:25:23+00:00</time>
      </trkpt>
      <trkpt lat="45.37477" lon="6.14813">
        <ele>1737</ele>
        <time>2024-06-06T04:25:26+00:00</time>
      </trkpt>
      <trkpt lat="45.37485" lon="6.14818">
        <ele>1737</ele>
        <time>2024-06-06T04:25:29+00:00</time>
      </trkpt>
      <trkpt lat="45.37494" lon="6.14822">
        <ele>1738</ele>
        <time>2024-06-06T04:25:32+00:00</time>
      </trkpt>
      <trkpt lat="45.37503" lon="6.14828">
        <ele>1736</ele>
        <time>2024-06-06T04:25:35+00:00</time>
      </trkpt>
      <trkpt lat="45.37512" lon="6.14831">
        <ele>1738</ele>
        <time>2024-06-06T04:25:38+00:00</time>
      </trkpt>
      <trkpt lat="45.37519" lon="6.14836">
        <ele>1738</ele>
        <time>2024-06-06T04:25:41+00:00</time>
      </trkpt>
      <trkpt lat="45.37526" lon="6.14844">
        <ele>1742</ele>
        <time>2024-06-06T04:25:44+00:00</time>
      </trkpt>
      <trkpt lat="45.37533" lon="6.14849">
        <ele>1741</ele>
        <time>2024-06-06T04:25:47+00:00</time>
      </trkpt>
      <trkpt lat="45.37541" lon="6.14855">
        <ele>1743</ele>
        <time>2024-06-06T04:25:50+00:00</time>
      </trkpt>
      <trkpt lat="45.3755" lon="6.14857">
        <ele>1744</ele>
        <time>2024-06-06T04:25:53+00:00</time>
      </trkpt>
      <trkpt lat="45.3756" lon="6.14857">
        <ele>1744</ele>
        <time>2024-06-06T04:25:56+00:00</time>
      </trkpt>
      <trkpt lat="45.3757" lon="6.14858">
        <ele>1745</ele>
        <time>2024-06-06T04:25:59+00:00</time>
      </trkpt>
      <trkpt lat="45.37579" lon="6.14858">
        <ele>1745</ele>
        <time>2024-06-06T04:26:02+00:00</time>
      </trkpt>
      <trkpt lat="45.37588" lon="6.14856">
        <ele>1743</ele>
        <time>2024-06-06T04:26:05+00:00</time>
      </trkpt>
      <trkpt lat="45.376" lon="6.14844">
        <ele>1745</ele>
        <time>2024-06-06T04:26:08+00:00</time>
      </trkpt>
      <trkpt lat="45.37612" lon="6.14828">
        <ele>1742</ele>
        <time>2024-06-06T04:26:11+00:00</time>
      </trkpt>
      <trkpt lat="45.37624" lon="6.1481">
        <ele>1741</ele>
        <time>2024-06-06T04:26:14+00:00</time>
      </trkpt>
      <trkpt lat="45.37655" lon="6.14795">
        <ele>1738</ele>
        <time>2024-06-06T04:26:17+00:00</time>
      </trkpt>
      <trkpt lat="45.37685" lon="6.14784">
        <ele>1738</ele>
        <time>2024-06-06T04:26:20+00:00</time>
      </trkpt>
      <trkpt lat="45.37711" lon="6.14787">
        <ele>1738</ele>
        <time>2024-06-06T04:26:23+00:00</time>
      </trkpt>
      <trkpt lat="45.37717" lon="6.14793">
        <ele>1742</ele>
        <time>2024-06-06T04:26:26+00:00</time>
      </trkpt>
      <trkpt lat="45.37723" lon="6.14796">
        <ele>1743</ele>
        <time>2024-06-06T04:26:29+00:00</time>
      </trkpt>
      <trkpt lat="45.37728" lon="6.14795">
        <ele>1743</ele>
        <time>2024-06-06T04:26:32+00:00</time>
      </trkpt>
      <trkpt lat="45.37739" lon="6.14774">
        <ele>1733</ele>
        <time>2024-06-06T04:26:35+00:00</time>
      </trkpt>
      <trkpt lat="45.37749" lon="6.14766">
        <ele>1729</ele>
        <time>2024-06-06T04:26:38+00:00</time>
      </trkpt>
      <trkpt lat="45.37767" lon="6.14761">
        <ele>1738</ele>
        <time>2024-06-06T04:26:41+00:00</time>
      </trkpt>
      <trkpt lat="45.37782" lon="6.14758">
        <ele>1732</ele>
        <time>2024-06-06T04:26:44+00:00</time>
      </trkpt>
      <trkpt lat="45.37802" lon="6.14763">
        <ele>1743</ele>
        <time>2024-06-06T04:26:47+00:00</time>
      </trkpt>
      <trkpt lat="45.37821" lon="6.14768">
        <ele>1745</ele>
        <time>2024-06-06T04:26:50+00:00</time>
      </trkpt>
      <trkpt lat="45.37824" lon="6.14763">
        <ele>1754</ele>
        <time>2024-06-06T04:26:53+00:00</time>
      </trkpt>
      <trkpt lat="45.37825" lon="6.14758">
        <ele>1754</ele>
        <time>2024-06-06T04:26:56+00:00</time>
      </trkpt>
      <trkpt lat="45.37822" lon="6.14751">
        <ele>1754</ele>
        <time>2024-06-06T04:26:59+00:00</time>
      </trkpt>
      <trkpt lat="45.37819" lon="6.14743">
        <ele>1748</ele>
        <time>2024-06-06T04:27:02+00:00</time>
      </trkpt>
      <trkpt lat="45.37815" lon="6.14731">
        <ele>1749</ele>
        <time>2024-06-06T04:27:05+00:00</time>
      </trkpt>
      <trkpt lat="45.37813" lon="6.14718">
        <ele>1757</ele>
        <time>2024-06-06T04:27:08+00:00</time>
      </trkpt>
      <trkpt lat="45.37813" lon="6.14704">
        <ele>1760</ele>
        <time>2024-06-06T04:27:11+00:00</time>
      </trkpt>
      <trkpt lat="45.37814" lon="6.14691">
        <ele>1763</ele>
        <time>2024-06-06T04:27:14+00:00</time>
      </trkpt>
      <trkpt lat="45.37812" lon="6.14677">
        <ele>1770</ele>
        <time>2024-06-06T04:27:17+00:00</time>
      </trkpt>
      <trkpt lat="45.37812" lon="6.14666">
        <ele>1772</ele>
        <time>2024-06-06T04:27:20+00:00</time>
      </trkpt>
      <trkpt lat="45.37811" lon="6.14655">
        <ele>1775</ele>
        <time>2024-06-06T04:27:23+00:00</time>
      </trkpt>
      <trkpt lat="45.37813" lon="6.14641">
        <ele>1776</ele>
        <time>2024-06-06T04:27:26+00:00</time>
      </trkpt>
      <trkpt lat="45.37817" lon="6.14628">
        <ele>1778</ele>
        <time>2024-06-06T04:27:29+00:00</time>
      </trkpt>
      <trkpt lat="45.3782" lon="6.14613">
        <ele>1775</ele>
        <time>2024-06-06T04:27:32+00:00</time>
      </trkpt>
      <trkpt lat="45.37818" lon="6.14596">
        <ele>1777</ele>
        <time>2024-06-06T04:27:35+00:00</time>
      </trkpt>
      <trkpt lat="45.37817" lon="6.14582">
        <ele>1775</ele>
        <time>2024-06-06T04:27:38+00:00</time>
      </trkpt>
      <trkpt lat="45.3782" lon="6.1457">
        <ele>1769</ele>
        <time>2024-06-06T04:27:41+00:00</time>
      </trkpt>
      <trkpt lat="45.37826" lon="6.1456">
        <ele>1772</ele>
        <time>2024-06-06T04:27:44+00:00</time>
      </trkpt>
      <trkpt lat="45.3783" lon="6.1455">
        <ele>1771</ele>
        <time>2024-06-06T04:27:47+00:00</time>
      </trkpt>
      <trkpt lat="45.37849" lon="6.14534">
        <ele>1762</ele>
        <time>2024-06-06T04:27:50+00:00</time>
      </trkpt>
      <trkpt lat="45.37862" lon="6.14523">
        <ele>1763</ele>
        <time>2024-06-06T04:27:53+00:00</time>
      </trkpt>
      <trkpt lat="45.37871" lon="6.14513">
        <ele>1762</ele>
        <time>2024-06-06T04:27:56+00:00</time>
      </trkpt>
      <trkpt lat="45.37881" lon="6.145">
        <ele>1761</ele>
        <time>2024-06-06T04:27:59+00:00</time>
      </trkpt>
      <trkpt lat="45.37885" lon="6.14485">
        <ele>1754</ele>
        <time>2024-06-06T04:28:02+00:00</time>
      </trkpt>
      <trkpt lat="45.37886" lon="6.14476">
        <ele>1752</ele>
        <time>2024-06-06T04:28:05+00:00</time>
      </trkpt>
      <trkpt lat="45.37886" lon="6.14468">
        <ele>1752</ele>
        <time>2024-06-06T04:28:08+00:00</time>
      </trkpt>
      <trkpt lat="45.37885" lon="6.14462">
        <ele>1752</ele>
        <time>2024-06-06T04:28:11+00:00</time>
      </trkpt>
      <trkpt lat="45.37882" lon="6.14453">
        <ele>1753</ele>
        <time>2024-06-06T04:28:14+00:00</time>
      </trkpt>
      <trkpt lat="45.3788" lon="6.14448">
        <ele>1754</ele>
        <time>2024-06-06T04:28:17+00:00</time>
      </trkpt>
      <trkpt lat="45.37877" lon="6.14443">
        <ele>1748</ele>
        <time>2024-06-06T04:28:20+00:00</time>
      </trkpt>
      <trkpt lat="45.37872" lon="6.14438">
        <ele>1749</ele>
        <time>2024-06-06T04:28:23+00:00</time>
      </trkpt>
      <trkpt lat="45.37866" lon="6.14428">
        <ele>1744</ele>
        <time>2024-06-06T04:28:26+00:00</time>
      </trkpt>
      <trkpt lat="45.37861" lon="6.14411">
        <ele>1743</ele>
        <time>2024-06-06T04:28:29+00:00</time>
      </trkpt>
      <trkpt lat="45.37861" lon="6.14388">
        <ele>1740</ele>
        <time>2024-06-06T04:28:32+00:00</time>
      </trkpt>
      <trkpt lat="45.37862" lon="6.14364">
        <ele>1740</ele>
        <time>2024-06-06T04:28:35+00:00</time>
      </trkpt>
      <trkpt lat="45.37859" lon="6.14345">
        <ele>1738</ele>
        <time>2024-06-06T04:28:38+00:00</time>
      </trkpt>
      <trkpt lat="45.37861" lon="6.14329">
        <ele>1737</ele>
        <time>2024-06-06T04:28:41+00:00</time>
      </trkpt>
      <trkpt lat="45.3786" lon="6.1432">
        <ele>1737</ele>
        <time>2024-06-06T04:28:44+00:00</time>
      </trkpt>
      <trkpt lat="45.37863" lon="6.14316">
        <ele>1738</ele>
        <time>2024-06-06T04:28:47+00:00</time>
      </trkpt>
      <trkpt lat="45.37864" lon="6.1431">
        <ele>1735</ele>
        <time>2024-06-06T04:28:50+00:00</time>
      </trkpt>
      <trkpt lat="45.37868" lon="6.14293">
        <ele>1734</ele>
        <time>2024-06-06T04:28:53+00:00</time>
      </trkpt>
      <trkpt lat="45.37873" lon="6.14282">
        <ele>1738</ele>
        <time>2024-06-06T04:28:56+00:00</time>
      </trkpt>
      <trkpt lat="45.37875" lon="6.14277">
        <ele>1738</ele>
        <time>2024-06-06T04:28:59+00:00</time>
      </trkpt>
      <trkpt lat="45.37878" lon="6.14276">
        <ele>1738</ele>
        <time>2024-06-06T04:29:02+00:00</time>
      </trkpt>
      <trkpt lat="45.37883" lon="6.14276">
        <ele>1742</ele>
        <time>2024-06-06T04:29:05+00:00</time>
      </trkpt>
      <trkpt lat="45.37887" lon="6.14276">
        <ele>1742</ele>
        <time>2024-06-06T04:29:08+00:00</time>
      </trkpt>
      <trkpt lat="45.3789" lon="6.1428">
        <ele>1743</ele>
        <time>2024-06-06T04:29:11+00:00</time>
      </trkpt>
      <trkpt lat="45.37893" lon="6.14289">
        <ele>1748</ele>
        <time>2024-06-06T04:29:14+00:00</time>
      </trkpt>
      <trkpt lat="45.37896" lon="6.14299">
        <ele>1750</ele>
        <time>2024-06-06T04:29:17+00:00</time>
      </trkpt>
      <trkpt lat="45.37897" lon="6.14311">
        <ele>1753</ele>
        <time>2024-06-06T04:29:20+00:00</time>
      </trkpt>
      <trkpt lat="45.37899" lon="6.14315">
        <ele>1753</ele>
        <time>2024-06-06T04:29:23+00:00</time>
      </trkpt>
      <trkpt lat="45.37901" lon="6.14316">
        <ele>1757</ele>
        <time>2024-06-06T04:29:26+00:00</time>
      </trkpt>
      <trkpt lat="45.37905" lon="6.14313">
        <ele>1757</ele>
        <time>2024-06-06T04:29:29+00:00</time>
      </trkpt>
      <trkpt lat="45.37911" lon="6.14309">
        <ele>1759</ele>
        <time>2024-06-06T04:29:32+00:00</time>
      </trkpt>
      <trkpt lat="45.37921" lon="6.14303">
        <ele>1762</ele>
        <time>2024-06-06T04:29:35+00:00</time>
      </trkpt>
      <trkpt lat="45.37927" lon="6.14301">
        <ele>1762</ele>
        <time>2024-06-06T04:29:38+00:00</time>
      </trkpt>
      <trkpt lat="45.37932" lon="6.143">
        <ele>1760</ele>
        <time>2024-06-06T04:29:41+00:00</time>
      </trkpt>
      <trkpt lat="45.37938" lon="6.14301">
        <ele>1763</ele>
        <time>2024-06-06T04:29:44+00:00</time>
      </trkpt>
      <trkpt lat="45.37946" lon="6.14306">
        <ele>1763</ele>
        <time>2024-06-06T04:29:47+00:00</time>
      </trkpt>
      <trkpt lat="45.37952" lon="6.14306">
        <ele>1764</ele>
        <time>2024-06-06T04:29:50+00:00</time>
      </trkpt>
      <trkpt lat="45.3796" lon="6.14307">
        <ele>1766</ele>
        <time>2024-06-06T04:29:53+00:00</time>
      </trkpt>
      <trkpt lat="45.37966" lon="6.14304">
        <ele>1766</ele>
        <time>2024-06-06T04:29:56+00:00</time>
      </trkpt>
      <trkpt lat="45.37972" lon="6.14301">
        <ele>1768</ele>
        <time>2024-06-06T04:29:59+00:00</time>
      </trkpt>
      <trkpt lat="45.37979" lon="6.14301">
        <ele>1768</ele>
        <time>2024-06-06T04:30:02+00:00</time>
      </trkpt>
      <trkpt lat="45.37994" lon="6.14304">
        <ele>1771</ele>
        <time>2024-06-06T04:30:05+00:00</time>
      </trkpt>
      <trkpt lat="45.38004" lon="6.14309">
        <ele>1771</ele>
        <time>2024-06-06T04:30:08+00:00</time>
      </trkpt>
      <trkpt lat="45.38017" lon="6.14316">
        <ele>1775</ele>
        <time>2024-06-06T04:30:11+00:00</time>
      </trkpt>
      <trkpt lat="45.38025" lon="6.14318">
        <ele>1776</ele>
        <time>2024-06-06T04:30:14+00:00</time>
      </trkpt>
      <trkpt lat="45.38031" lon="6.1432">
        <ele>1781</ele>
        <time>2024-06-06T04:30:17+00:00</time>
      </trkpt>
      <trkpt lat="45.38044" lon="6.14327">
        <ele>1781</ele>
        <time>2024-06-06T04:30:20+00:00</time>
      </trkpt>
      <trkpt lat="45.38047" lon="6.14329">
        <ele>1781</ele>
        <time>2024-06-06T04:30:23+00:00</time>
      </trkpt>
      <trkpt lat="45.38058" lon="6.14329">
        <ele>1783</ele>
        <time>2024-06-06T04:30:26+00:00</time>
      </trkpt>
      <trkpt lat="45.38068" lon="6.14332">
        <ele>1790</ele>
        <time>2024-06-06T04:30:29+00:00</time>
      </trkpt>
      <trkpt lat="45.38076" lon="6.14333">
        <ele>1792</ele>
        <time>2024-06-06T04:30:32+00:00</time>
      </trkpt>
      <trkpt lat="45.38087" lon="6.14336">
        <ele>1793</ele>
        <time>2024-06-06T04:30:35+00:00</time>
      </trkpt>
      <trkpt lat="45.38098" lon="6.14343">
        <ele>1797</ele>
        <time>2024-06-06T04:30:38+00:00</time>
      </trkpt>
      <trkpt lat="45.38109" lon="6.14347">
        <ele>1797</ele>
        <time>2024-06-06T04:30:41+00:00</time>
      </trkpt>
      <trkpt lat="45.38124" lon="6.14354">
        <ele>1799</ele>
        <time>2024-06-06T04:30:44+00:00</time>
      </trkpt>
      <trkpt lat="45.38136" lon="6.14362">
        <ele>1804</ele>
        <time>2024-06-06T04:30:47+00:00</time>
      </trkpt>
      <trkpt lat="45.3815" lon="6.1437">
        <ele>1803</ele>
        <time>2024-06-06T04:30:50+00:00</time>
      </trkpt>
      <trkpt lat="45.38159" lon="6.14377">
        <ele>1803</ele>
        <time>2024-06-06T04:30:53+00:00</time>
      </trkpt>
      <trkpt lat="45.38167" lon="6.14375">
        <ele>1799</ele>
        <time>2024-06-06T04:30:56+00:00</time>
      </trkpt>
      <trkpt lat="45.38171" lon="6.14374">
        <ele>1801</ele>
        <time>2024-06-06T04:30:59+00:00</time>
      </trkpt>
      <trkpt lat="45.38177" lon="6.14368">
        <ele>1802</ele>
        <time>2024-06-06T04:31:02+00:00</time>
      </trkpt>
      <trkpt lat="45.38182" lon="6.14361">
        <ele>1806</ele>
        <time>2024-06-06T04:31:05+00:00</time>
      </trkpt>
      <trkpt lat="45.38186" lon="6.14358">
        <ele>1800</ele>
        <time>2024-06-06T04:31:08+00:00</time>
      </trkpt>
      <trkpt lat="45.38189" lon="6.14359">
        <ele>1805</ele>
        <time>2024-06-06T04:31:11+00:00</time>
      </trkpt>
      <trkpt lat="45.38192" lon="6.14358">
        <ele>1804</ele>
        <time>2024-06-06T04:31:14+00:00</time>
      </trkpt>
      <trkpt lat="45.38197" lon="6.14356">
        <ele>1804</ele>
        <time>2024-06-06T04:31:17+00:00</time>
      </trkpt>
      <trkpt lat="45.38203" lon="6.14354">
        <ele>1809</ele>
        <time>2024-06-06T04:31:20+00:00</time>
      </trkpt>
      <trkpt lat="45.38205" lon="6.14356">
        <ele>1809</ele>
        <time>2024-06-06T04:31:23+00:00</time>
      </trkpt>
      <trkpt lat="45.38208" lon="6.14357">
        <ele>1809</ele>
        <time>2024-06-06T04:31:26+00:00</time>
      </trkpt>
      <trkpt lat="45.38212" lon="6.14358">
        <ele>1810</ele>
        <time>2024-06-06T04:31:29+00:00</time>
      </trkpt>
      <trkpt lat="45.38222" lon="6.14357">
        <ele>1810</ele>
        <time>2024-06-06T04:31:32+00:00</time>
      </trkpt>
      <trkpt lat="45.38228" lon="6.14357">
        <ele>1810</ele>
        <time>2024-06-06T04:31:35+00:00</time>
      </trkpt>
      <trkpt lat="45.38235" lon="6.14359">
        <ele>1810</ele>
        <time>2024-06-06T04:31:38+00:00</time>
      </trkpt>
      <trkpt lat="45.38241" lon="6.1436">
        <ele>1816</ele>
        <time>2024-06-06T04:31:41+00:00</time>
      </trkpt>
      <trkpt lat="45.38246" lon="6.14358">
        <ele>1811</ele>
        <time>2024-06-06T04:31:44+00:00</time>
      </trkpt>
      <trkpt lat="45.3825" lon="6.14357">
        <ele>1811</ele>
        <time>2024-06-06T04:31:47+00:00</time>
      </trkpt>
      <trkpt lat="45.38257" lon="6.14358">
        <ele>1812</ele>
        <time>2024-06-06T04:31:50+00:00</time>
      </trkpt>
      <trkpt lat="45.38269" lon="6.14361">
        <ele>1814</ele>
        <time>2024-06-06T04:31:53+00:00</time>
      </trkpt>
      <trkpt lat="45.38274" lon="6.14361">
        <ele>1818</ele>
        <time>2024-06-06T04:31:56+00:00</time>
      </trkpt>
      <trkpt lat="45.3828" lon="6.1436">
        <ele>1818</ele>
        <time>2024-06-06T04:31:59+00:00</time>
      </trkpt>
      <trkpt lat="45.38283" lon="6.14361">
        <ele>1817</ele>
        <time>2024-06-06T04:32:02+00:00</time>
      </trkpt>
      <trkpt lat="45.38288" lon="6.14366">
        <ele>1817</ele>
        <time>2024-06-06T04:32:05+00:00</time>
      </trkpt>
      <trkpt lat="45.38292" lon="6.14369">
        <ele>1814</ele>
        <time>2024-06-06T04:32:08+00:00</time>
      </trkpt>
      <trkpt lat="45.38301" lon="6.14376">
        <ele>1817</ele>
        <time>2024-06-06T04:32:11+00:00</time>
      </trkpt>
      <trkpt lat="45.38306" lon="6.14379">
        <ele>1817</ele>
        <time>2024-06-06T04:32:14+00:00</time>
      </trkpt>
      <trkpt lat="45.38309" lon="6.14379">
        <ele>1817</ele>
        <time>2024-06-06T04:32:17+00:00</time>
      </trkpt>
      <trkpt lat="45.38312" lon="6.14377">
        <ele>1820</ele>
        <time>2024-06-06T04:32:20+00:00</time>
      </trkpt>
      <trkpt lat="45.38315" lon="6.14375">
        <ele>1820</ele>
        <time>2024-06-06T04:32:23+00:00</time>
      </trkpt>
      <trkpt lat="45.38316" lon="6.14375">
        <ele>1820</ele>
        <time>2024-06-06T04:32:26+00:00</time>
      </trkpt>
      <trkpt lat="45.38318" lon="6.14373">
        <ele>1820</ele>
        <time>2024-06-06T04:32:29+00:00</time>
      </trkpt>
      <trkpt lat="45.38321" lon="6.1437">
        <ele>1825</ele>
        <time>2024-06-06T04:32:32+00:00</time>
      </trkpt>
      <trkpt lat="45.38325" lon="6.14369">
        <ele>1820</ele>
        <time>2024-06-06T04:32:35+00:00</time>
      </trkpt>
      <trkpt lat="45.38329" lon="6.1437">
        <ele>1825</ele>
        <time>2024-06-06T04:32:38+00:00</time>
      </trkpt>
      <trkpt lat="45.38336" lon="6.14372">
        <ele>1826</ele>
        <time>2024-06-06T04:32:41+00:00</time>
      </trkpt>
      <trkpt lat="45.38342" lon="6.14372">
        <ele>1824</ele>
        <time>2024-06-06T04:32:44+00:00</time>
      </trkpt>
      <trkpt lat="45.38345" lon="6.14371">
        <ele>1817</ele>
        <time>2024-06-06T04:32:47+00:00</time>
      </trkpt>
      <trkpt lat="45.38349" lon="6.14371">
        <ele>1824</ele>
        <time>2024-06-06T04:32:50+00:00</time>
      </trkpt>
      <trkpt lat="45.38352" lon="6.14373">
        <ele>1820</ele>
        <time>2024-06-06T04:32:53+00:00</time>
      </trkpt>
      <trkpt lat="45.38354" lon="6.14373">
        <ele>1820</ele>
        <time>2024-06-06T04:32:56+00:00</time>
      </trkpt>
      <trkpt lat="45.3836" lon="6.1437">
        <ele>1820</ele>
        <time>2024-06-06T04:32:59+00:00</time>
      </trkpt>
      <trkpt lat="45.38364" lon="6.14366">
        <ele>1814</ele>
        <time>2024-06-06T04:33:02+00:00</time>
      </trkpt>
      <trkpt lat="45.38366" lon="6.14363">
        <ele>1814</ele>
        <time>2024-06-06T04:33:05+00:00</time>
      </trkpt>
      <trkpt lat="45.38368" lon="6.14355">
        <ele>1808</ele>
        <time>2024-06-06T04:33:08+00:00</time>
      </trkpt>
      <trkpt lat="45.3837" lon="6.14352">
        <ele>1808</ele>
        <time>2024-06-06T04:33:11+00:00</time>
      </trkpt>
      <trkpt lat="45.38377" lon="6.14346">
        <ele>1812</ele>
        <time>2024-06-06T04:33:14+00:00</time>
      </trkpt>
      <trkpt lat="45.38381" lon="6.14343">
        <ele>1811</ele>
        <time>2024-06-06T04:33:17+00:00</time>
      </trkpt>
      <trkpt lat="45.38384" lon="6.14341">
        <ele>1811</ele>
        <time>2024-06-06T04:33:20+00:00</time>
      </trkpt>
      <trkpt lat="45.38383" lon="6.14335">
        <ele>1810</ele>
        <time>2024-06-06T04:33:23+00:00</time>
      </trkpt>
      <trkpt lat="45.38384" lon="6.14327">
        <ele>1809</ele>
        <time>2024-06-06T04:33:26+00:00</time>
      </trkpt>
      <trkpt lat="45.38383" lon="6.14315">
        <ele>1813</ele>
        <time>2024-06-06T04:33:29+00:00</time>
      </trkpt>
      <trkpt lat="45.38382" lon="6.14303">
        <ele>1812</ele>
        <time>2024-06-06T04:33:32+00:00</time>
      </trkpt>
      <trkpt lat="45.38382" lon="6.14297">
        <ele>1815</ele>
        <time>2024-06-06T04:33:35+00:00</time>
      </trkpt>
      <trkpt lat="45.38384" lon="6.14292">
        <ele>1815</ele>
        <time>2024-06-06T04:33:38+00:00</time>
      </trkpt>
      <trkpt lat="45.38385" lon="6.14282">
        <ele>1815</ele>
        <time>2024-06-06T04:33:41+00:00</time>
      </trkpt>
      <trkpt lat="45.38383" lon="6.14275">
        <ele>1814</ele>
        <time>2024-06-06T04:33:44+00:00</time>
      </trkpt>
      <trkpt lat="45.38386" lon="6.14267">
        <ele>1812</ele>
        <time>2024-06-06T04:33:47+00:00</time>
      </trkpt>
      <trkpt lat="45.38389" lon="6.1426">
        <ele>1811</ele>
        <time>2024-06-06T04:33:50+00:00</time>
      </trkpt>
      <trkpt lat="45.38392" lon="6.14255">
        <ele>1817</ele>
        <time>2024-06-06T04:33:53+00:00</time>
      </trkpt>
      <trkpt lat="45.38393" lon="6.14251">
        <ele>1817</ele>
        <time>2024-06-06T04:33:56+00:00</time>
      </trkpt>
      <trkpt lat="45.38394" lon="6.14244">
        <ele>1817</ele>
        <time>2024-06-06T04:33:59+00:00</time>
      </trkpt>
      <trkpt lat="45.38397" lon="6.14239">
        <ele>1819</ele>
        <time>2024-06-06T04:34:02+00:00</time>
      </trkpt>
      <trkpt lat="45.38396" lon="6.14234">
        <ele>1819</ele>
        <time>2024-06-06T04:34:05+00:00</time>
      </trkpt>
      <trkpt lat="45.38393" lon="6.14227">
        <ele>1822</ele>
        <time>2024-06-06T04:34:08+00:00</time>
      </trkpt>
      <trkpt lat="45.3839" lon="6.14217">
        <ele>1818</ele>
        <time>2024-06-06T04:34:11+00:00</time>
      </trkpt>
      <trkpt lat="45.38389" lon="6.1421">
        <ele>1817</ele>
        <time>2024-06-06T04:34:14+00:00</time>
      </trkpt>
      <trkpt lat="45.38391" lon="6.14205">
        <ele>1823</ele>
        <time>2024-06-06T04:34:17+00:00</time>
      </trkpt>
      <trkpt lat="45.38393" lon="6.14197">
        <ele>1822</ele>
        <time>2024-06-06T04:34:20+00:00</time>
      </trkpt>
      <trkpt lat="45.38395" lon="6.14186">
        <ele>1822</ele>
        <time>2024-06-06T04:34:23+00:00</time>
      </trkpt>
      <trkpt lat="45.38396" lon="6.14173">
        <ele>1820</ele>
        <time>2024-06-06T04:34:26+00:00</time>
      </trkpt>
      <trkpt lat="45.38399" lon="6.1416">
        <ele>1822</ele>
        <time>2024-06-06T04:34:29+00:00</time>
      </trkpt>
      <trkpt lat="45.38404" lon="6.14144">
        <ele>1823</ele>
        <time>2024-06-06T04:34:32+00:00</time>
      </trkpt>
      <trkpt lat="45.38408" lon="6.14135">
        <ele>1822</ele>
        <time>2024-06-06T04:34:35+00:00</time>
      </trkpt>
      <trkpt lat="45.38411" lon="6.14123">
        <ele>1829</ele>
        <time>2024-06-06T04:34:38+00:00</time>
      </trkpt>
      <trkpt lat="45.38412" lon="6.1411">
        <ele>1827</ele>
        <time>2024-06-06T04:34:41+00:00</time>
      </trkpt>
      <trkpt lat="45.38413" lon="6.14101">
        <ele>1822</ele>
        <time>2024-06-06T04:34:44+00:00</time>
      </trkpt>
      <trkpt lat="45.38419" lon="6.14092">
        <ele>1819</ele>
        <time>2024-06-06T04:34:47+00:00</time>
      </trkpt>
      <trkpt lat="45.38427" lon="6.14086">
        <ele>1819</ele>
        <time>2024-06-06T04:34:50+00:00</time>
      </trkpt>
      <trkpt lat="45.38432" lon="6.14084">
        <ele>1822</ele>
        <time>2024-06-06T04:34:53+00:00</time>
      </trkpt>
      <trkpt lat="45.38435" lon="6.14079">
        <ele>1815</ele>
        <time>2024-06-06T04:34:56+00:00</time>
      </trkpt>
      <trkpt lat="45.38439" lon="6.14076">
        <ele>1815</ele>
        <time>2024-06-06T04:34:59+00:00</time>
      </trkpt>
      <trkpt lat="45.38446" lon="6.14072">
        <ele>1819</ele>
        <time>2024-06-06T04:35:02+00:00</time>
      </trkpt>
      <trkpt lat="45.38453" lon="6.14068">
        <ele>1818</ele>
        <time>2024-06-06T04:35:05+00:00</time>
      </trkpt>
      <trkpt lat="45.38458" lon="6.14062">
        <ele>1818</ele>
        <time>2024-06-06T04:35:08+00:00</time>
      </trkpt>
      <trkpt lat="45.38463" lon="6.14053">
        <ele>1817</ele>
        <time>2024-06-06T04:35:11+00:00</time>
      </trkpt>
      <trkpt lat="45.38468" lon="6.14044">
        <ele>1815</ele>
        <time>2024-06-06T04:35:14+00:00</time>
      </trkpt>
      <trkpt lat="45.38474" lon="6.14042">
        <ele>1815</ele>
        <time>2024-06-06T04:35:17+00:00</time>
      </trkpt>
      <trkpt lat="45.38478" lon="6.1404">
        <ele>1815</ele>
        <time>2024-06-06T04:35:20+00:00</time>
      </trkpt>
      <trkpt lat="45.38484" lon="6.14038">
        <ele>1813</ele>
        <time>2024-06-06T04:35:23+00:00</time>
      </trkpt>
      <trkpt lat="45.38489" lon="6.14034">
        <ele>1813</ele>
        <time>2024-06-06T04:35:26+00:00</time>
      </trkpt>
      <trkpt lat="45.38491" lon="6.14029">
        <ele>1812</ele>
        <time>2024-06-06T04:35:29+00:00</time>
      </trkpt>
      <trkpt lat="45.38493" lon="6.14021">
        <ele>1812</ele>
        <time>2024-06-06T04:35:32+00:00</time>
      </trkpt>
      <trkpt lat="45.38494" lon="6.14013">
        <ele>1807</ele>
        <time>2024-06-06T04:35:35+00:00</time>
      </trkpt>
      <trkpt lat="45.38493" lon="6.14004">
        <ele>1804</ele>
        <time>2024-06-06T04:35:38+00:00</time>
      </trkpt>
      <trkpt lat="45.38498" lon="6.13996">
        <ele>1801</ele>
        <time>2024-06-06T04:35:41+00:00</time>
      </trkpt>
      <trkpt lat="45.38508" lon="6.13984">
        <ele>1805</ele>
        <time>2024-06-06T04:35:44+00:00</time>
      </trkpt>
      <trkpt lat="45.38515" lon="6.13982">
        <ele>1808</ele>
        <time>2024-06-06T04:35:47+00:00</time>
      </trkpt>
      <trkpt lat="45.38519" lon="6.13982">
        <ele>1808</ele>
        <time>2024-06-06T04:35:50+00:00</time>
      </trkpt>
      <trkpt lat="45.38521" lon="6.13976">
        <ele>1809</ele>
        <time>2024-06-06T04:35:53+00:00</time>
      </trkpt>
      <trkpt lat="45.38522" lon="6.13966">
        <ele>1804</ele>
        <time>2024-06-06T04:35:56+00:00</time>
      </trkpt>
      <trkpt lat="45.38525" lon="6.13957">
        <ele>1800</ele>
        <time>2024-06-06T04:35:59+00:00</time>
      </trkpt>
      <trkpt lat="45.38528" lon="6.13946">
        <ele>1797</ele>
        <time>2024-06-06T04:36:02+00:00</time>
      </trkpt>
      <trkpt lat="45.38532" lon="6.13936">
        <ele>1803</ele>
        <time>2024-06-06T04:36:05+00:00</time>
      </trkpt>
      <trkpt lat="45.38537" lon="6.13922">
        <ele>1798</ele>
        <time>2024-06-06T04:36:08+00:00</time>
      </trkpt>
      <trkpt lat="45.38541" lon="6.13911">
        <ele>1801</ele>
        <time>2024-06-06T04:36:11+00:00</time>
      </trkpt>
      <trkpt lat="45.38549" lon="6.13894">
        <ele>1793</ele>
        <time>2024-06-06T04:36:14+00:00</time>
      </trkpt>
      <trkpt lat="45.38555" lon="6.13881">
        <ele>1796</ele>
        <time>2024-06-06T04:36:17+00:00</time>
      </trkpt>
      <trkpt lat="45.3856" lon="6.13871">
        <ele>1802</ele>
        <time>2024-06-06T04:36:20+00:00</time>
      </trkpt>
      <trkpt lat="45.38568" lon="6.13856">
        <ele>1797</ele>
        <time>2024-06-06T04:36:23+00:00</time>
      </trkpt>
      <trkpt lat="45.38573" lon="6.13845">
        <ele>1797</ele>
        <time>2024-06-06T04:36:26+00:00</time>
      </trkpt>
      <trkpt lat="45.38578" lon="6.13839">
        <ele>1793</ele>
        <time>2024-06-06T04:36:29+00:00</time>
      </trkpt>
      <trkpt lat="45.38585" lon="6.13835">
        <ele>1799</ele>
        <time>2024-06-06T04:36:32+00:00</time>
      </trkpt>
      <trkpt lat="45.38595" lon="6.13824">
        <ele>1806</ele>
        <time>2024-06-06T04:36:35+00:00</time>
      </trkpt>
      <trkpt lat="45.38606" lon="6.13811">
        <ele>1810</ele>
        <time>2024-06-06T04:36:38+00:00</time>
      </trkpt>
      <trkpt lat="45.38616" lon="6.13794">
        <ele>1810</ele>
        <time>2024-06-06T04:36:41+00:00</time>
      </trkpt>
      <trkpt lat="45.3863" lon="6.1377">
        <ele>1812</ele>
        <time>2024-06-06T04:36:44+00:00</time>
      </trkpt>
      <trkpt lat="45.38635" lon="6.13761">
        <ele>1816</ele>
        <time>2024-06-06T04:36:47+00:00</time>
      </trkpt>
      <trkpt lat="45.38639" lon="6.13754">
        <ele>1814</ele>
        <time>2024-06-06T04:36:50+00:00</time>
      </trkpt>
      <trkpt lat="45.38647" lon="6.1374">
        <ele>1815</ele>
        <time>2024-06-06T04:36:53+00:00</time>
      </trkpt>
      <trkpt lat="45.38656" lon="6.1372">
        <ele>1822</ele>
        <time>2024-06-06T04:36:56+00:00</time>
      </trkpt>
      <trkpt lat="45.38663" lon="6.13697">
        <ele>1816</ele>
        <time>2024-06-06T04:36:59+00:00</time>
      </trkpt>
      <trkpt lat="45.38672" lon="6.1368">
        <ele>1822</ele>
        <time>2024-06-06T04:37:02+00:00</time>
      </trkpt>
      <trkpt lat="45.38679" lon="6.13669">
        <ele>1817</ele>
        <time>2024-06-06T04:37:05+00:00</time>
      </trkpt>
      <trkpt lat="45.38689" lon="6.13641">
        <ele>1813</ele>
        <time>2024-06-06T04:37:08+00:00</time>
      </trkpt>
      <trkpt lat="45.38694" lon="6.13617">
        <ele>1814</ele>
        <time>2024-06-06T04:37:11+00:00</time>
      </trkpt>
      <trkpt lat="45.38704" lon="6.13591">
        <ele>1810</ele>
        <time>2024-06-06T04:37:14+00:00</time>
      </trkpt>
      <trkpt lat="45.38714" lon="6.13567">
        <ele>1807</ele>
        <time>2024-06-06T04:37:17+00:00</time>
      </trkpt>
      <trkpt lat="45.38726" lon="6.1355">
        <ele>1801</ele>
        <time>2024-06-06T04:37:20+00:00</time>
      </trkpt>
      <trkpt lat="45.38741" lon="6.13537">
        <ele>1806</ele>
        <time>2024-06-06T04:37:23+00:00</time>
      </trkpt>
      <trkpt lat="45.38752" lon="6.13532">
        <ele>1806</ele>
        <time>2024-06-06T04:37:26+00:00</time>
      </trkpt>
      <trkpt lat="45.38762" lon="6.13529">
        <ele>1805</ele>
        <time>2024-06-06T04:37:29+00:00</time>
      </trkpt>
      <trkpt lat="45.38781" lon="6.13557">
        <ele>1799</ele>
        <time>2024-06-06T04:37:32+00:00</time>
      </trkpt>
      <trkpt lat="45.38782" lon="6.13558">
        <ele>1799</ele>
        <time>2024-06-06T04:37:35+00:00</time>
      </trkpt>
      <trkpt lat="45.3879" lon="6.13569">
        <ele>1800</ele>
        <time>2024-06-06T04:37:38+00:00</time>
      </trkpt>
      <trkpt lat="45.38796" lon="6.13575">
        <ele>1798</ele>
        <time>2024-06-06T04:37:41+00:00</time>
      </trkpt>
      <trkpt lat="45.38802" lon="6.13579">
        <ele>1791</ele>
        <time>2024-06-06T04:37:44+00:00</time>
      </trkpt>
      <trkpt lat="45.38805" lon="6.13586">
        <ele>1793</ele>
        <time>2024-06-06T04:37:47+00:00</time>
      </trkpt>
      <trkpt lat="45.3881" lon="6.13592">
        <ele>1794</ele>
        <time>2024-06-06T04:37:50+00:00</time>
      </trkpt>
      <trkpt lat="45.38819" lon="6.13601">
        <ele>1792</ele>
        <time>2024-06-06T04:37:53+00:00</time>
      </trkpt>
      <trkpt lat="45.38829" lon="6.13605">
        <ele>1787</ele>
        <time>2024-06-06T04:37:56+00:00</time>
      </trkpt>
      <trkpt lat="45.38832" lon="6.13611">
        <ele>1778</ele>
        <time>2024-06-06T04:37:59+00:00</time>
      </trkpt>
      <trkpt lat="45.38834" lon="6.13617">
        <ele>1778</ele>
        <time>2024-06-06T04:38:02+00:00</time>
      </trkpt>
      <trkpt lat="45.38838" lon="6.13623">
        <ele>1780</ele>
        <time>2024-06-06T04:38:05+00:00</time>
      </trkpt>
      <trkpt lat="45.38848" lon="6.13631">
        <ele>1778</ele>
        <time>2024-06-06T04:38:08+00:00</time>
      </trkpt>
      <trkpt lat="45.38853" lon="6.13638">
        <ele>1773</ele>
        <time>2024-06-06T04:38:11+00:00</time>
      </trkpt>
      <trkpt lat="45.3886" lon="6.13647">
        <ele>1777</ele>
        <time>2024-06-06T04:38:14+00:00</time>
      </trkpt>
      <trkpt lat="45.3887" lon="6.13654">
        <ele>1773</ele>
        <time>2024-06-06T04:38:17+00:00</time>
      </trkpt>
      <trkpt lat="45.38878" lon="6.13661">
        <ele>1773</ele>
        <time>2024-06-06T04:38:20+00:00</time>
      </trkpt>
      <trkpt lat="45.38884" lon="6.13666">
        <ele>1768</ele>
        <time>2024-06-06T04:38:23+00:00</time>
      </trkpt>
      <trkpt lat="45.38889" lon="6.13667">
        <ele>1768</ele>
        <time>2024-06-06T04:38:26+00:00</time>
      </trkpt>
      <trkpt lat="45.38891" lon="6.13662">
        <ele>1760</ele>
        <time>2024-06-06T04:38:29+00:00</time>
      </trkpt>
      <trkpt lat="45.38893" lon="6.13655">
        <ele>1757</ele>
        <time>2024-06-06T04:38:32+00:00</time>
      </trkpt>
      <trkpt lat="45.38892" lon="6.13648">
        <ele>1754</ele>
        <time>2024-06-06T04:38:35+00:00</time>
      </trkpt>
      <trkpt lat="45.38885" lon="6.13639">
        <ele>1756</ele>
        <time>2024-06-06T04:38:38+00:00</time>
      </trkpt>
      <trkpt lat="45.38879" lon="6.13631">
        <ele>1760</ele>
        <time>2024-06-06T04:38:41+00:00</time>
      </trkpt>
      <trkpt lat="45.38873" lon="6.13619">
        <ele>1752</ele>
        <time>2024-06-06T04:38:44+00:00</time>
      </trkpt>
      <trkpt lat="45.3887" lon="6.1361">
        <ele>1756</ele>
        <time>2024-06-06T04:38:47+00:00</time>
      </trkpt>
      <trkpt lat="45.38863" lon="6.13594">
        <ele>1747</ele>
        <time>2024-06-06T04:38:50+00:00</time>
      </trkpt>
      <trkpt lat="45.38858" lon="6.13583">
        <ele>1756</ele>
        <time>2024-06-06T04:38:53+00:00</time>
      </trkpt>
      <trkpt lat="45.38857" lon="6.13571">
        <ele>1754</ele>
        <time>2024-06-06T04:38:56+00:00</time>
      </trkpt>
      <trkpt lat="45.3886" lon="6.13556">
        <ele>1741</ele>
        <time>2024-06-06T04:38:59+00:00</time>
      </trkpt>
      <trkpt lat="45.38867" lon="6.13534">
        <ele>1742</ele>
        <time>2024-06-06T04:39:02+00:00</time>
      </trkpt>
      <trkpt lat="45.3887" lon="6.13527">
        <ele>1738</ele>
        <time>2024-06-06T04:39:05+00:00</time>
      </trkpt>
      <trkpt lat="45.38879" lon="6.13513">
        <ele>1739</ele>
        <time>2024-06-06T04:39:08+00:00</time>
      </trkpt>
      <trkpt lat="45.38892" lon="6.13497">
        <ele>1733</ele>
        <time>2024-06-06T04:39:11+00:00</time>
      </trkpt>
      <trkpt lat="45.38909" lon="6.13485">
        <ele>1732</ele>
        <time>2024-06-06T04:39:14+00:00</time>
      </trkpt>
      <trkpt lat="45.38919" lon="6.13468">
        <ele>1732</ele>
        <time>2024-06-06T04:39:17+00:00</time>
      </trkpt>
      <trkpt lat="45.3893" lon="6.13448">
        <ele>1725</ele>
        <time>2024-06-06T04:39:20+00:00</time>
      </trkpt>
      <trkpt lat="45.38943" lon="6.13415">
        <ele>1722</ele>
        <time>2024-06-06T04:39:23+00:00</time>
      </trkpt>
      <trkpt lat="45.38958" lon="6.13393">
        <ele>1717</ele>
        <time>2024-06-06T04:39:26+00:00</time>
      </trkpt>
      <trkpt lat="45.38972" lon="6.13358">
        <ele>1709</ele>
        <time>2024-06-06T04:39:29+00:00</time>
      </trkpt>
      <trkpt lat="45.38983" lon="6.13332">
        <ele>1705</ele>
        <time>2024-06-06T04:39:32+00:00</time>
      </trkpt>
      <trkpt lat="45.39" lon="6.13308">
        <ele>1701</ele>
        <time>2024-06-06T04:39:35+00:00</time>
      </trkpt>
      <trkpt lat="45.39018" lon="6.13263">
        <ele>1694</ele>
        <time>2024-06-06T04:39:38+00:00</time>
      </trkpt>
      <trkpt lat="45.39043" lon="6.13216">
        <ele>1689</ele>
        <time>2024-06-06T04:39:41+00:00</time>
      </trkpt>
      <trkpt lat="45.39057" lon="6.13186">
        <ele>1687</ele>
        <time>2024-06-06T04:39:44+00:00</time>
      </trkpt>
      <trkpt lat="45.39073" lon="6.13151">
        <ele>1686</ele>
        <time>2024-06-06T04:39:47+00:00</time>
      </trkpt>
      <trkpt lat="45.39072" lon="6.13141">
        <ele>1685</ele>
        <time>2024-06-06T04:39:50+00:00</time>
      </trkpt>
      <trkpt lat="45.39063" lon="6.13111">
        <ele>1684</ele>
        <time>2024-06-06T04:39:53+00:00</time>
      </trkpt>
      <trkpt lat="45.39062" lon="6.13109">
        <ele>1683</ele>
        <time>2024-06-06T04:39:56+00:00</time>
      </trkpt>
      <trkpt lat="45.39061" lon="6.131">
        <ele>1683</ele>
        <time>2024-06-06T04:39:59+00:00</time>
      </trkpt>
      <trkpt lat="45.3906" lon="6.13088">
        <ele>1682</ele>
        <time>2024-06-06T04:40:02+00:00</time>
      </trkpt>
      <trkpt lat="45.39058" lon="6.13079">
        <ele>1681</ele>
        <time>2024-06-06T04:40:05+00:00</time>
      </trkpt>
      <trkpt lat="45.39056" lon="6.13072">
        <ele>1681</ele>
        <time>2024-06-06T04:40:08+00:00</time>
      </trkpt>
      <trkpt lat="45.39053" lon="6.13064">
        <ele>1680</ele>
        <time>2024-06-06T04:40:11+00:00</time>
      </trkpt>
      <trkpt lat="45.39049" lon="6.13059">
        <ele>1679</ele>
        <time>2024-06-06T04:40:14+00:00</time>
      </trkpt>
      <trkpt lat="45.39042" lon="6.13055">
        <ele>1682</ele>
        <time>2024-06-06T04:40:17+00:00</time>
      </trkpt>
      <trkpt lat="45.39038" lon="6.1305">
        <ele>1680</ele>
        <time>2024-06-06T04:40:20+00:00</time>
      </trkpt>
      <trkpt lat="45.39034" lon="6.13046">
        <ele>1680</ele>
        <time>2024-06-06T04:40:23+00:00</time>
      </trkpt>
      <trkpt lat="45.39031" lon="6.1304">
        <ele>1681</ele>
        <time>2024-06-06T04:40:26+00:00</time>
      </trkpt>
      <trkpt lat="45.39029" lon="6.13033">
        <ele>1683</ele>
        <time>2024-06-06T04:40:29+00:00</time>
      </trkpt>
      <trkpt lat="45.39028" lon="6.13026">
        <ele>1683</ele>
        <time>2024-06-06T04:40:32+00:00</time>
      </trkpt>
      <trkpt lat="45.39028" lon="6.13018">
        <ele>1684</ele>
        <time>2024-06-06T04:40:35+00:00</time>
      </trkpt>
      <trkpt lat="45.39028" lon="6.13008">
        <ele>1685</ele>
        <time>2024-06-06T04:40:38+00:00</time>
      </trkpt>
      <trkpt lat="45.39029" lon="6.12999">
        <ele>1683</ele>
        <time>2024-06-06T04:40:41+00:00</time>
      </trkpt>
      <trkpt lat="45.3903" lon="6.12992">
        <ele>1682</ele>
        <time>2024-06-06T04:40:44+00:00</time>
      </trkpt>
      <trkpt lat="45.39032" lon="6.12985">
        <ele>1683</ele>
        <time>2024-06-06T04:40:47+00:00</time>
      </trkpt>
      <trkpt lat="45.39034" lon="6.12978">
        <ele>1684</ele>
        <time>2024-06-06T04:40:50+00:00</time>
      </trkpt>
      <trkpt lat="45.39042" lon="6.12955">
        <ele>1683</ele>
        <time>2024-06-06T04:40:53+00:00</time>
      </trkpt>
      <trkpt lat="45.39044" lon="6.1295">
        <ele>1683</ele>
        <time>2024-06-06T04:40:56+00:00</time>
      </trkpt>
      <trkpt lat="45.39053" lon="6.12931">
        <ele>1681</ele>
        <time>2024-06-06T04:40:59+00:00</time>
      </trkpt>
      <trkpt lat="45.39059" lon="6.1292">
        <ele>1680</ele>
        <time>2024-06-06T04:41:02+00:00</time>
      </trkpt>
      <trkpt lat="45.39066" lon="6.12909">
        <ele>1680</ele>
        <time>2024-06-06T04:41:05+00:00</time>
      </trkpt>
      <trkpt lat="45.39073" lon="6.12898">
        <ele>1679</ele>
        <time>2024-06-06T04:41:08+00:00</time>
      </trkpt>
      <trkpt lat="45.39081" lon="6.12885">
        <ele>1676</ele>
        <time>2024-06-06T04:41:11+00:00</time>
      </trkpt>
      <trkpt lat="45.3909" lon="6.12869">
        <ele>1675</ele>
        <time>2024-06-06T04:41:14+00:00</time>
      </trkpt>
      <trkpt lat="45.39099" lon="6.12853">
        <ele>1676</ele>
        <time>2024-06-06T04:41:17+00:00</time>
      </trkpt>
      <trkpt lat="45.39099" lon="6.12853">
        <ele>1676</ele>
        <time>2024-06-06T04:41:20+00:00</time>
      </trkpt>
      <trkpt lat="45.39107" lon="6.12834">
        <ele>1674</ele>
        <time>2024-06-06T04:41:23+00:00</time>
      </trkpt>
      <trkpt lat="45.3911" lon="6.12821">
        <ele>1675</ele>
        <time>2024-06-06T04:41:26+00:00</time>
      </trkpt>
      <trkpt lat="45.39111" lon="6.12805">
        <ele>1669</ele>
        <time>2024-06-06T04:41:29+00:00</time>
      </trkpt>
      <trkpt lat="45.39112" lon="6.12782">
        <ele>1672</ele>
        <time>2024-06-06T04:41:32+00:00</time>
      </trkpt>
      <trkpt lat="45.39113" lon="6.12766">
        <ele>1668</ele>
        <time>2024-06-06T04:41:35+00:00</time>
      </trkpt>
      <trkpt lat="45.39114" lon="6.1276">
        <ele>1669</ele>
        <time>2024-06-06T04:41:38+00:00</time>
      </trkpt>
      <trkpt lat="45.39114" lon="6.1276">
        <ele>1669</ele>
        <time>2024-06-06T04:41:41+00:00</time>
      </trkpt>
      <trkpt lat="45.39115" lon="6.12753">
        <ele>1669</ele>
        <time>2024-06-06T04:41:44+00:00</time>
      </trkpt>
      <trkpt lat="45.39119" lon="6.12741">
        <ele>1670</ele>
        <time>2024-06-06T04:41:47+00:00</time>
      </trkpt>
      <trkpt lat="45.39128" lon="6.12725">
        <ele>1668</ele>
        <time>2024-06-06T04:41:50+00:00</time>
      </trkpt>
      <trkpt lat="45.39134" lon="6.12712">
        <ele>1667</ele>
        <time>2024-06-06T04:41:53+00:00</time>
      </trkpt>
      <trkpt lat="45.39142" lon="6.12701">
        <ele>1664</ele>
        <time>2024-06-06T04:41:56+00:00</time>
      </trkpt>
      <trkpt lat="45.39149" lon="6.12692">
        <ele>1665</ele>
        <time>2024-06-06T04:41:59+00:00</time>
      </trkpt>
      <trkpt lat="45.39157" lon="6.12681">
        <ele>1664</ele>
        <time>2024-06-06T04:42:02+00:00</time>
      </trkpt>
      <trkpt lat="45.39165" lon="6.12671">
        <ele>1662</ele>
        <time>2024-06-06T04:42:05+00:00</time>
      </trkpt>
      <trkpt lat="45.39172" lon="6.12665">
        <ele>1660</ele>
        <time>2024-06-06T04:42:08+00:00</time>
      </trkpt>
      <trkpt lat="45.39177" lon="6.12668">
        <ele>1660</ele>
        <time>2024-06-06T04:42:11+00:00</time>
      </trkpt>
      <trkpt lat="45.39181" lon="6.12671">
        <ele>1658</ele>
        <time>2024-06-06T04:42:14+00:00</time>
      </trkpt>
      <trkpt lat="45.392" lon="6.12689">
        <ele>1655</ele>
        <time>2024-06-06T04:42:17+00:00</time>
      </trkpt>
      <trkpt lat="45.39214" lon="6.12701">
        <ele>1650</ele>
        <time>2024-06-06T04:42:20+00:00</time>
      </trkpt>
      <trkpt lat="45.39231" lon="6.12717">
        <ele>1646</ele>
        <time>2024-06-06T04:42:23+00:00</time>
      </trkpt>
      <trkpt lat="45.3924" lon="6.12728">
        <ele>1646</ele>
        <time>2024-06-06T04:42:26+00:00</time>
      </trkpt>
      <trkpt lat="45.39252" lon="6.12745">
        <ele>1645</ele>
        <time>2024-06-06T04:42:29+00:00</time>
      </trkpt>
      <trkpt lat="45.39266" lon="6.12765">
        <ele>1644</ele>
        <time>2024-06-06T04:42:32+00:00</time>
      </trkpt>
      <trkpt lat="45.39284" lon="6.1279">
        <ele>1644</ele>
        <time>2024-06-06T04:42:35+00:00</time>
      </trkpt>
      <trkpt lat="45.3929" lon="6.12797">
        <ele>1643</ele>
        <time>2024-06-06T04:42:38+00:00</time>
      </trkpt>
      <trkpt lat="45.39293" lon="6.128">
        <ele>1643</ele>
        <time>2024-06-06T04:42:41+00:00</time>
      </trkpt>
      <trkpt lat="45.39296" lon="6.12802">
        <ele>1643</ele>
        <time>2024-06-06T04:42:44+00:00</time>
      </trkpt>
      <trkpt lat="45.39301" lon="6.12804">
        <ele>1642</ele>
        <time>2024-06-06T04:42:47+00:00</time>
      </trkpt>
      <trkpt lat="45.39307" lon="6.12808">
        <ele>1642</ele>
        <time>2024-06-06T04:42:50+00:00</time>
      </trkpt>
      <trkpt lat="45.3931" lon="6.1281">
        <ele>1642</ele>
        <time>2024-06-06T04:42:53+00:00</time>
      </trkpt>
      <trkpt lat="45.39315" lon="6.12817">
        <ele>1642</ele>
        <time>2024-06-06T04:42:56+00:00</time>
      </trkpt>
      <trkpt lat="45.39321" lon="6.12829">
        <ele>1643</ele>
        <time>2024-06-06T04:42:59+00:00</time>
      </trkpt>
      <trkpt lat="45.39317" lon="6.12834">
        <ele>1642</ele>
        <time>2024-06-06T04:43:02+00:00</time>
      </trkpt>
      <trkpt lat="45.39315" lon="6.12837">
        <ele>1642</ele>
        <time>2024-06-06T04:43:05+00:00</time>
      </trkpt>
      <trkpt lat="45.39314" lon="6.12844">
        <ele>1643</ele>
        <time>2024-06-06T04:43:08+00:00</time>
      </trkpt>
      <trkpt lat="45.39312" lon="6.12866">
        <ele>1644</ele>
        <time>2024-06-06T04:43:11+00:00</time>
      </trkpt>
      <trkpt lat="45.39305" lon="6.12888">
        <ele>1646</ele>
        <time>2024-06-06T04:43:14+00:00</time>
      </trkpt>
      <trkpt lat="45.39294" lon="6.12913">
        <ele>1650</ele>
        <time>2024-06-06T04:43:17+00:00</time>
      </trkpt>
      <trkpt lat="45.39278" lon="6.1295">
        <ele>1654</ele>
        <time>2024-06-06T04:43:20+00:00</time>
      </trkpt>
      <trkpt lat="45.39278" lon="6.1295">
        <ele>1654</ele>
        <time>2024-06-06T04:43:23+00:00</time>
      </trkpt>
      <trkpt lat="45.39276" lon="6.12956">
        <ele>1655</ele>
        <time>2024-06-06T04:43:26+00:00</time>
      </trkpt>
      <trkpt lat="45.39261" lon="6.12987">
        <ele>1657</ele>
        <time>2024-06-06T04:43:29+00:00</time>
      </trkpt>
      <trkpt lat="45.39251" lon="6.1301">
        <ele>1660</ele>
        <time>2024-06-06T04:43:32+00:00</time>
      </trkpt>
      <trkpt lat="45.39244" lon="6.1303">
        <ele>1662</ele>
        <time>2024-06-06T04:43:35+00:00</time>
      </trkpt>
      <trkpt lat="45.39239" lon="6.1305">
        <ele>1665</ele>
        <time>2024-06-06T04:43:38+00:00</time>
      </trkpt>
      <trkpt lat="45.39234" lon="6.13072">
        <ele>1666</ele>
        <time>2024-06-06T04:43:41+00:00</time>
      </trkpt>
      <trkpt lat="45.39226" lon="6.13092">
        <ele>1669</ele>
        <time>2024-06-06T04:43:44+00:00</time>
      </trkpt>
      <trkpt lat="45.39216" lon="6.13113">
        <ele>1671</ele>
        <time>2024-06-06T04:43:47+00:00</time>
      </trkpt>
      <trkpt lat="45.39207" lon="6.1313">
        <ele>1674</ele>
        <time>2024-06-06T04:43:50+00:00</time>
      </trkpt>
      <trkpt lat="45.39196" lon="6.13153">
        <ele>1677</ele>
        <time>2024-06-06T04:43:53+00:00</time>
      </trkpt>
      <trkpt lat="45.39189" lon="6.13169">
        <ele>1679</ele>
        <time>2024-06-06T04:43:56+00:00</time>
      </trkpt>
      <trkpt lat="45.39181" lon="6.13196">
        <ele>1681</ele>
        <time>2024-06-06T04:43:59+00:00</time>
      </trkpt>
      <trkpt lat="45.39173" lon="6.13216">
        <ele>1683</ele>
        <time>2024-06-06T04:44:02+00:00</time>
      </trkpt>
      <trkpt lat="45.39169" lon="6.13225">
        <ele>1685</ele>
        <time>2024-06-06T04:44:05+00:00</time>
      </trkpt>
      <trkpt lat="45.3916" lon="6.13242">
        <ele>1686</ele>
        <time>2024-06-06T04:44:08+00:00</time>
      </trkpt>
      <trkpt lat="45.3915" lon="6.1326">
        <ele>1689</ele>
        <time>2024-06-06T04:44:11+00:00</time>
      </trkpt>
      <trkpt lat="45.39141" lon="6.13275">
        <ele>1691</ele>
        <time>2024-06-06T04:44:14+00:00</time>
      </trkpt>
      <trkpt lat="45.39133" lon="6.13288">
        <ele>1692</ele>
        <time>2024-06-06T04:44:17+00:00</time>
      </trkpt>
      <trkpt lat="45.39129" lon="6.13296">
        <ele>1693</ele>
        <time>2024-06-06T04:44:20+00:00</time>
      </trkpt>
      <trkpt lat="45.39126" lon="6.13305">
        <ele>1695</ele>
        <time>2024-06-06T04:44:23+00:00</time>
      </trkpt>
      <trkpt lat="45.39124" lon="6.13313">
        <ele>1696</ele>
        <time>2024-06-06T04:44:26+00:00</time>
      </trkpt>
      <trkpt lat="45.39122" lon="6.13321">
        <ele>1697</ele>
        <time>2024-06-06T04:44:29+00:00</time>
      </trkpt>
      <trkpt lat="45.39125" lon="6.13333">
        <ele>1699</ele>
        <time>2024-06-06T04:44:32+00:00</time>
      </trkpt>
      <trkpt lat="45.39128" lon="6.13351">
        <ele>1701</ele>
        <time>2024-06-06T04:44:35+00:00</time>
      </trkpt>
      <trkpt lat="45.39129" lon="6.13368">
        <ele>1702</ele>
        <time>2024-06-06T04:44:38+00:00</time>
      </trkpt>
      <trkpt lat="45.39128" lon="6.13381">
        <ele>1705</ele>
        <time>2024-06-06T04:44:41+00:00</time>
      </trkpt>
      <trkpt lat="45.39126" lon="6.13392">
        <ele>1706</ele>
        <time>2024-06-06T04:44:44+00:00</time>
      </trkpt>
      <trkpt lat="45.39123" lon="6.13402">
        <ele>1707</ele>
        <time>2024-06-06T04:44:47+00:00</time>
      </trkpt>
      <trkpt lat="45.39119" lon="6.13411">
        <ele>1709</ele>
        <time>2024-06-06T04:44:50+00:00</time>
      </trkpt>
      <trkpt lat="45.39116" lon="6.13417">
        <ele>1709</ele>
        <time>2024-06-06T04:44:53+00:00</time>
      </trkpt>
      <trkpt lat="45.39114" lon="6.13422">
        <ele>1711</ele>
        <time>2024-06-06T04:44:56+00:00</time>
      </trkpt>
      <trkpt lat="45.39114" lon="6.13427">
        <ele>1711</ele>
        <time>2024-06-06T04:44:59+00:00</time>
      </trkpt>
      <trkpt lat="45.39115" lon="6.13435">
        <ele>1712</ele>
        <time>2024-06-06T04:45:02+00:00</time>
      </trkpt>
      <trkpt lat="45.39116" lon="6.13454">
        <ele>1715</ele>
        <time>2024-06-06T04:45:05+00:00</time>
      </trkpt>
      <trkpt lat="45.39117" lon="6.13478">
        <ele>1718</ele>
        <time>2024-06-06T04:45:08+00:00</time>
      </trkpt>
      <trkpt lat="45.39117" lon="6.13505">
        <ele>1722</ele>
        <time>2024-06-06T04:45:11+00:00</time>
      </trkpt>
      <trkpt lat="45.39117" lon="6.13529">
        <ele>1726</ele>
        <time>2024-06-06T04:45:14+00:00</time>
      </trkpt>
      <trkpt lat="45.39118" lon="6.13546">
        <ele>1729</ele>
        <time>2024-06-06T04:45:17+00:00</time>
      </trkpt>
      <trkpt lat="45.39118" lon="6.13554">
        <ele>1731</ele>
        <time>2024-06-06T04:45:20+00:00</time>
      </trkpt>
      <trkpt lat="45.3912" lon="6.13562">
        <ele>1733</ele>
        <time>2024-06-06T04:45:23+00:00</time>
      </trkpt>
      <trkpt lat="45.39127" lon="6.13584">
        <ele>1736</ele>
        <time>2024-06-06T04:45:26+00:00</time>
      </trkpt>
      <trkpt lat="45.39131" lon="6.13605">
        <ele>1739</ele>
        <time>2024-06-06T04:45:29+00:00</time>
      </trkpt>
      <trkpt lat="45.39138" lon="6.13621">
        <ele>1741</ele>
        <time>2024-06-06T04:45:32+00:00</time>
      </trkpt>
      <trkpt lat="45.39146" lon="6.13639">
        <ele>1745</ele>
        <time>2024-06-06T04:45:35+00:00</time>
      </trkpt>
      <trkpt lat="45.39157" lon="6.13666">
        <ele>1751</ele>
        <time>2024-06-06T04:45:38+00:00</time>
      </trkpt>
      <trkpt lat="45.39164" lon="6.13685">
        <ele>1756</ele>
        <time>2024-06-06T04:45:41+00:00</time>
      </trkpt>
      <trkpt lat="45.39171" lon="6.13698">
        <ele>1761</ele>
        <time>2024-06-06T04:45:44+00:00</time>
      </trkpt>
      <trkpt lat="45.39178" lon="6.13709">
        <ele>1763</ele>
        <time>2024-06-06T04:45:47+00:00</time>
      </trkpt>
      <trkpt lat="45.39185" lon="6.13714">
        <ele>1766</ele>
        <time>2024-06-06T04:45:50+00:00</time>
      </trkpt>
      <trkpt lat="45.39197" lon="6.1372">
        <ele>1770</ele>
        <time>2024-06-06T04:45:53+00:00</time>
      </trkpt>
      <trkpt lat="45.39208" lon="6.13728">
        <ele>1772</ele>
        <time>2024-06-06T04:45:56+00:00</time>
      </trkpt>
      <trkpt lat="45.39223" lon="6.13735">
        <ele>1776</ele>
        <time>2024-06-06T04:45:59+00:00</time>
      </trkpt>
      <trkpt lat="45.3924" lon="6.13741">
        <ele>1779</ele>
        <time>2024-06-06T04:46:02+00:00</time>
      </trkpt>
      <trkpt lat="45.39256" lon="6.13744">
        <ele>1782</ele>
        <time>2024-06-06T04:46:05+00:00</time>
      </trkpt>
      <trkpt lat="45.39272" lon="6.13743">
        <ele>1786</ele>
        <time>2024-06-06T04:46:08+00:00</time>
      </trkpt>
      <trkpt lat="45.39291" lon="6.13744">
        <ele>1790</ele>
        <time>2024-06-06T04:46:11+00:00</time>
      </trkpt>
      <trkpt lat="45.39308" lon="6.13748">
        <ele>1792</ele>
        <time>2024-06-06T04:46:14+00:00</time>
      </trkpt>
      <trkpt lat="45.39317" lon="6.13751">
        <ele>1795</ele>
        <time>2024-06-06T04:46:17+00:00</time>
      </trkpt>
      <trkpt lat="45.39321" lon="6.13757">
        <ele>1798</ele>
        <time>2024-06-06T04:46:20+00:00</time>
      </trkpt>
      <trkpt lat="45.39324" lon="6.13765">
        <ele>1799</ele>
        <time>2024-06-06T04:46:23+00:00</time>
      </trkpt>
      <trkpt lat="45.39324" lon="6.13774">
        <ele>1800</ele>
        <time>2024-06-06T04:46:26+00:00</time>
      </trkpt>
      <trkpt lat="45.39323" lon="6.13782">
        <ele>1802</ele>
        <time>2024-06-06T04:46:29+00:00</time>
      </trkpt>
      <trkpt lat="45.39321" lon="6.13791">
        <ele>1803</ele>
        <time>2024-06-06T04:46:32+00:00</time>
      </trkpt>
      <trkpt lat="45.39319" lon="6.13798">
        <ele>1801</ele>
        <time>2024-06-06T04:46:35+00:00</time>
      </trkpt>
      <trkpt lat="45.39318" lon="6.13805">
        <ele>1802</ele>
        <time>2024-06-06T04:46:38+00:00</time>
      </trkpt>
      <trkpt lat="45.39315" lon="6.13824">
        <ele>1807</ele>
        <time>2024-06-06T04:46:41+00:00</time>
      </trkpt>
      <trkpt lat="45.39309" lon="6.1387">
        <ele>1819</ele>
        <time>2024-06-06T04:46:44+00:00</time>
      </trkpt>
      <trkpt lat="45.39305" lon="6.13892">
        <ele>1824</ele>
        <time>2024-06-06T04:46:47+00:00</time>
      </trkpt>
      <trkpt lat="45.39305" lon="6.13902">
        <ele>1827</ele>
        <time>2024-06-06T04:46:50+00:00</time>
      </trkpt>
      <trkpt lat="45.39306" lon="6.13913">
        <ele>1828</ele>
        <time>2024-06-06T04:46:53+00:00</time>
      </trkpt>
      <trkpt lat="45.39312" lon="6.13924">
        <ele>1831</ele>
        <time>2024-06-06T04:46:56+00:00</time>
      </trkpt>
      <trkpt lat="45.39318" lon="6.13936">
        <ele>1833</ele>
        <time>2024-06-06T04:46:59+00:00</time>
      </trkpt>
      <trkpt lat="45.39323" lon="6.13945">
        <ele>1837</ele>
        <time>2024-06-06T04:47:02+00:00</time>
      </trkpt>
      <trkpt lat="45.3933" lon="6.13952">
        <ele>1838</ele>
        <time>2024-06-06T04:47:05+00:00</time>
      </trkpt>
      <trkpt lat="45.39337" lon="6.13956">
        <ele>1840</ele>
        <time>2024-06-06T04:47:08+00:00</time>
      </trkpt>
      <trkpt lat="45.39344" lon="6.13959">
        <ele>1842</ele>
        <time>2024-06-06T04:47:11+00:00</time>
      </trkpt>
      <trkpt lat="45.39353" lon="6.13961">
        <ele>1847</ele>
        <time>2024-06-06T04:47:14+00:00</time>
      </trkpt>
      <trkpt lat="45.39361" lon="6.1396">
        <ele>1847</ele>
        <time>2024-06-06T04:47:17+00:00</time>
      </trkpt>
      <trkpt lat="45.39371" lon="6.13957">
        <ele>1850</ele>
        <time>2024-06-06T04:47:20+00:00</time>
      </trkpt>
      <trkpt lat="45.39385" lon="6.1395">
        <ele>1855</ele>
        <time>2024-06-06T04:47:23+00:00</time>
      </trkpt>
      <trkpt lat="45.39401" lon="6.13943">
        <ele>1860</ele>
        <time>2024-06-06T04:47:26+00:00</time>
      </trkpt>
      <trkpt lat="45.39409" lon="6.13939">
        <ele>1859</ele>
        <time>2024-06-06T04:47:29+00:00</time>
      </trkpt>
      <trkpt lat="45.39417" lon="6.13937">
        <ele>1863</ele>
        <time>2024-06-06T04:47:32+00:00</time>
      </trkpt>
      <trkpt lat="45.39428" lon="6.13935">
        <ele>1865</ele>
        <time>2024-06-06T04:47:35+00:00</time>
      </trkpt>
      <trkpt lat="45.39433" lon="6.13937">
        <ele>1867</ele>
        <time>2024-06-06T04:47:38+00:00</time>
      </trkpt>
      <trkpt lat="45.39436" lon="6.13939">
        <ele>1867</ele>
        <time>2024-06-06T04:47:41+00:00</time>
      </trkpt>
      <trkpt lat="45.39438" lon="6.13941">
        <ele>1867</ele>
        <time>2024-06-06T04:47:44+00:00</time>
      </trkpt>
      <trkpt lat="45.39439" lon="6.13945">
        <ele>1867</ele>
        <time>2024-06-06T04:47:47+00:00</time>
      </trkpt>
      <trkpt lat="45.39441" lon="6.1395">
        <ele>1870</ele>
        <time>2024-06-06T04:47:50+00:00</time>
      </trkpt>
      <trkpt lat="45.39441" lon="6.13955">
        <ele>1867</ele>
        <time>2024-06-06T04:47:53+00:00</time>
      </trkpt>
      <trkpt lat="45.39439" lon="6.13963">
        <ele>1868</ele>
        <time>2024-06-06T04:47:56+00:00</time>
      </trkpt>
      <trkpt lat="45.39434" lon="6.13969">
        <ele>1868</ele>
        <time>2024-06-06T04:47:59+00:00</time>
      </trkpt>
      <trkpt lat="45.39429" lon="6.13975">
        <ele>1867</ele>
        <time>2024-06-06T04:48:02+00:00</time>
      </trkpt>
      <trkpt lat="45.39409" lon="6.1399">
        <ele>1868</ele>
        <time>2024-06-06T04:48:05+00:00</time>
      </trkpt>
      <trkpt lat="45.39387" lon="6.14009">
        <ele>1870</ele>
        <time>2024-06-06T04:48:08+00:00</time>
      </trkpt>
      <trkpt lat="45.39364" lon="6.1403">
        <ele>1872</ele>
        <time>2024-06-06T04:48:11+00:00</time>
      </trkpt>
      <trkpt lat="45.39338" lon="6.14049">
        <ele>1876</ele>
        <time>2024-06-06T04:48:14+00:00</time>
      </trkpt>
      <trkpt lat="45.39315" lon="6.14066">
        <ele>1885</ele>
        <time>2024-06-06T04:48:17+00:00</time>
      </trkpt>
      <trkpt lat="45.39292" lon="6.14085">
        <ele>1894</ele>
        <time>2024-06-06T04:48:20+00:00</time>
      </trkpt>
      <trkpt lat="45.39272" lon="6.14094">
        <ele>1901</ele>
        <time>2024-06-06T04:48:23+00:00</time>
      </trkpt>
      <trkpt lat="45.39242" lon="6.14103">
        <ele>1910</ele>
        <time>2024-06-06T04:48:26+00:00</time>
      </trkpt>
      <trkpt lat="45.39214" lon="6.14114">
        <ele>1920</ele>
        <time>2024-06-06T04:48:29+00:00</time>
      </trkpt>
      <trkpt lat="45.39188" lon="6.14122">
        <ele>1925</ele>
        <time>2024-06-06T04:48:32+00:00</time>
      </trkpt>
      <trkpt lat="45.39161" lon="6.14131">
        <ele>1929</ele>
        <time>2024-06-06T04:48:35+00:00</time>
      </trkpt>
      <trkpt lat="45.39128" lon="6.14144">
        <ele>1935</ele>
        <time>2024-06-06T04:48:38+00:00</time>
      </trkpt>
      <trkpt lat="45.39092" lon="6.14147">
        <ele>1938</ele>
        <time>2024-06-06T04:48:41+00:00</time>
      </trkpt>
      <trkpt lat="45.39071" lon="6.14149">
        <ele>1940</ele>
        <time>2024-06-06T04:48:44+00:00</time>
      </trkpt>
      <trkpt lat="45.3904" lon="6.14152">
        <ele>1947</ele>
        <time>2024-06-06T04:48:47+00:00</time>
      </trkpt>
      <trkpt lat="45.39038" lon="6.14152">
        <ele>1948</ele>
        <time>2024-06-06T04:48:50+00:00</time>
      </trkpt>
      <trkpt lat="45.39032" lon="6.14152">
        <ele>1948</ele>
        <time>2024-06-06T04:48:53+00:00</time>
      </trkpt>
      <trkpt lat="45.39019" lon="6.14153">
        <ele>1951</ele>
        <time>2024-06-06T04:48:56+00:00</time>
      </trkpt>
      <trkpt lat="45.39007" lon="6.14154">
        <ele>1952</ele>
        <time>2024-06-06T04:48:59+00:00</time>
      </trkpt>
      <trkpt lat="45.38996" lon="6.14156">
        <ele>1953</ele>
        <time>2024-06-06T04:49:02+00:00</time>
      </trkpt>
      <trkpt lat="45.3898" lon="6.14164">
        <ele>1956</ele>
        <time>2024-06-06T04:49:05+00:00</time>
      </trkpt>
      <trkpt lat="45.38975" lon="6.14167">
        <ele>1956</ele>
        <time>2024-06-06T04:49:08+00:00</time>
      </trkpt>
      <trkpt lat="45.38965" lon="6.14172">
        <ele>1957</ele>
        <time>2024-06-06T04:49:11+00:00</time>
      </trkpt>
      <trkpt lat="45.38945" lon="6.14185">
        <ele>1959</ele>
        <time>2024-06-06T04:49:14+00:00</time>
      </trkpt>
      <trkpt lat="45.38925" lon="6.14204">
        <ele>1961</ele>
        <time>2024-06-06T04:49:17+00:00</time>
      </trkpt>
      <trkpt lat="45.38914" lon="6.14217">
        <ele>1963</ele>
        <time>2024-06-06T04:49:20+00:00</time>
      </trkpt>
      <trkpt lat="45.38904" lon="6.14234">
        <ele>1966</ele>
        <time>2024-06-06T04:49:23+00:00</time>
      </trkpt>
      <trkpt lat="45.38892" lon="6.14255">
        <ele>1968</ele>
        <time>2024-06-06T04:49:26+00:00</time>
      </trkpt>
      <trkpt lat="45.38876" lon="6.14282">
        <ele>1970</ele>
        <time>2024-06-06T04:49:29+00:00</time>
      </trkpt>
      <trkpt lat="45.38864" lon="6.14299">
        <ele>1971</ele>
        <time>2024-06-06T04:49:32+00:00</time>
      </trkpt>
      <trkpt lat="45.38857" lon="6.14306">
        <ele>1972</ele>
        <time>2024-06-06T04:49:35+00:00</time>
      </trkpt>
      <trkpt lat="45.38849" lon="6.14314">
        <ele>1972</ele>
        <time>2024-06-06T04:49:38+00:00</time>
      </trkpt>
      <trkpt lat="45.3884" lon="6.14319">
        <ele>1973</ele>
        <time>2024-06-06T04:49:41+00:00</time>
      </trkpt>
      <trkpt lat="45.3883" lon="6.14321">
        <ele>1973</ele>
        <time>2024-06-06T04:49:44+00:00</time>
      </trkpt>
      <trkpt lat="45.3882" lon="6.14323">
        <ele>1974</ele>
        <time>2024-06-06T04:49:47+00:00</time>
      </trkpt>
      <trkpt lat="45.38806" lon="6.14323">
        <ele>1976</ele>
        <time>2024-06-06T04:49:50+00:00</time>
      </trkpt>
      <trkpt lat="45.3878" lon="6.14323">
        <ele>1978</ele>
        <time>2024-06-06T04:49:53+00:00</time>
      </trkpt>
      <trkpt lat="45.38765" lon="6.14323">
        <ele>1980</ele>
        <time>2024-06-06T04:49:56+00:00</time>
      </trkpt>
      <trkpt lat="45.38749" lon="6.14326">
        <ele>1983</ele>
        <time>2024-06-06T04:49:59+00:00</time>
      </trkpt>
      <trkpt lat="45.38741" lon="6.14327">
        <ele>1983</ele>
        <time>2024-06-06T04:50:02+00:00</time>
      </trkpt>
      <trkpt lat="45.3873" lon="6.14326">
        <ele>1985</ele>
        <time>2024-06-06T04:50:05+00:00</time>
      </trkpt>
      <trkpt lat="45.38724" lon="6.14326">
        <ele>1987</ele>
        <time>2024-06-06T04:50:08+00:00</time>
      </trkpt>
      <trkpt lat="45.3872" lon="6.14327">
        <ele>1987</ele>
        <time>2024-06-06T04:50:11+00:00</time>
      </trkpt>
      <trkpt lat="45.38717" lon="6.14329">
        <ele>1988</ele>
        <time>2024-06-06T04:50:14+00:00</time>
      </trkpt>
      <trkpt lat="45.38713" lon="6.14333">
        <ele>1989</ele>
        <time>2024-06-06T04:50:17+00:00</time>
      </trkpt>
      <trkpt lat="45.38709" lon="6.14337">
        <ele>1990</ele>
        <time>2024-06-06T04:50:20+00:00</time>
      </trkpt>
      <trkpt lat="45.38703" lon="6.14343">
        <ele>1991</ele>
        <time>2024-06-06T04:50:23+00:00</time>
      </trkpt>
      <trkpt lat="45.38699" lon="6.1435">
        <ele>1992</ele>
        <time>2024-06-06T04:50:26+00:00</time>
      </trkpt>
      <trkpt lat="45.38696" lon="6.14355">
        <ele>1993</ele>
        <time>2024-06-06T04:50:29+00:00</time>
      </trkpt>
      <trkpt lat="45.38694" lon="6.14359">
        <ele>1993</ele>
        <time>2024-06-06T04:50:32+00:00</time>
      </trkpt>
      <trkpt lat="45.38693" lon="6.14366">
        <ele>1994</ele>
        <time>2024-06-06T04:50:35+00:00</time>
      </trkpt>
      <trkpt lat="45.38693" lon="6.14371">
        <ele>1995</ele>
        <time>2024-06-06T04:50:38+00:00</time>
      </trkpt>
      <trkpt lat="45.38694" lon="6.14378">
        <ele>1995</ele>
        <time>2024-06-06T04:50:41+00:00</time>
      </trkpt>
      <trkpt lat="45.38695" lon="6.14384">
        <ele>1996</ele>
        <time>2024-06-06T04:50:44+00:00</time>
      </trkpt>
      <trkpt lat="45.38701" lon="6.14402">
        <ele>1999</ele>
        <time>2024-06-06T04:50:47+00:00</time>
      </trkpt>
      <trkpt lat="45.38708" lon="6.14419">
        <ele>2000</ele>
        <time>2024-06-06T04:50:50+00:00</time>
      </trkpt>
      <trkpt lat="45.38714" lon="6.14428">
        <ele>2002</ele>
        <time>2024-06-06T04:50:53+00:00</time>
      </trkpt>
      <trkpt lat="45.3872" lon="6.14435">
        <ele>2003</ele>
        <time>2024-06-06T04:50:56+00:00</time>
      </trkpt>
      <trkpt lat="45.38727" lon="6.1444">
        <ele>2004</ele>
        <time>2024-06-06T04:50:59+00:00</time>
      </trkpt>
      <trkpt lat="45.38747" lon="6.1445">
        <ele>2006</ele>
        <time>2024-06-06T04:51:02+00:00</time>
      </trkpt>
      <trkpt lat="45.38759" lon="6.14458">
        <ele>2008</ele>
        <time>2024-06-06T04:51:05+00:00</time>
      </trkpt>
      <trkpt lat="45.38772" lon="6.14467">
        <ele>2011</ele>
        <time>2024-06-06T04:51:08+00:00</time>
      </trkpt>
      <trkpt lat="45.38782" lon="6.14475">
        <ele>2014</ele>
        <time>2024-06-06T04:51:11+00:00</time>
      </trkpt>
      <trkpt lat="45.38787" lon="6.14478">
        <ele>2014</ele>
        <time>2024-06-06T04:51:14+00:00</time>
      </trkpt>
      <trkpt lat="45.38792" lon="6.14482">
        <ele>2017</ele>
        <time>2024-06-06T04:51:17+00:00</time>
      </trkpt>
      <trkpt lat="45.38796" lon="6.14485">
        <ele>2017</ele>
        <time>2024-06-06T04:51:20+00:00</time>
      </trkpt>
      <trkpt lat="45.38799" lon="6.14489">
        <ele>2017</ele>
        <time>2024-06-06T04:51:23+00:00</time>
      </trkpt>
      <trkpt lat="45.38805" lon="6.14496">
        <ele>2020</ele>
        <time>2024-06-06T04:51:26+00:00</time>
      </trkpt>
      <trkpt lat="45.38808" lon="6.14502">
        <ele>2021</ele>
        <time>2024-06-06T04:51:29+00:00</time>
      </trkpt>
      <trkpt lat="45.3881" lon="6.14512">
        <ele>2023</ele>
        <time>2024-06-06T04:51:32+00:00</time>
      </trkpt>
      <trkpt lat="45.38811" lon="6.14521">
        <ele>2026</ele>
        <time>2024-06-06T04:51:35+00:00</time>
      </trkpt>
      <trkpt lat="45.38809" lon="6.14531">
        <ele>2026</ele>
        <time>2024-06-06T04:51:38+00:00</time>
      </trkpt>
      <trkpt lat="45.38807" lon="6.14541">
        <ele>2029</ele>
        <time>2024-06-06T04:51:41+00:00</time>
      </trkpt>
      <trkpt lat="45.38807" lon="6.14543">
        <ele>2029</ele>
        <time>2024-06-06T04:51:44+00:00</time>
      </trkpt>
      <trkpt lat="45.38806" lon="6.14554">
        <ele>2031</ele>
        <time>2024-06-06T04:51:47+00:00</time>
      </trkpt>
      <trkpt lat="45.38799" lon="6.14575">
        <ele>2034</ele>
        <time>2024-06-06T04:51:50+00:00</time>
      </trkpt>
      <trkpt lat="45.38791" lon="6.14598">
        <ele>2039</ele>
        <time>2024-06-06T04:51:53+00:00</time>
      </trkpt>
      <trkpt lat="45.38793" lon="6.14622">
        <ele>2046</ele>
        <time>2024-06-06T04:51:56+00:00</time>
      </trkpt>
      <trkpt lat="45.38789" lon="6.14642">
        <ele>2050</ele>
        <time>2024-06-06T04:51:59+00:00</time>
      </trkpt>
      <trkpt lat="45.38789" lon="6.14644">
        <ele>2050</ele>
        <time>2024-06-06T04:52:02+00:00</time>
      </trkpt>
      <trkpt lat="45.3879" lon="6.14649">
        <ele>2051</ele>
        <time>2024-06-06T04:52:05+00:00</time>
      </trkpt>
      <trkpt lat="45.38792" lon="6.14655">
        <ele>2052</ele>
        <time>2024-06-06T04:52:08+00:00</time>
      </trkpt>
      <trkpt lat="45.38793" lon="6.14661">
        <ele>2054</ele>
        <time>2024-06-06T04:52:11+00:00</time>
      </trkpt>
      <trkpt lat="45.38792" lon="6.14668">
        <ele>2054</ele>
        <time>2024-06-06T04:52:14+00:00</time>
      </trkpt>
      <trkpt lat="45.38789" lon="6.14674">
        <ele>2056</ele>
        <time>2024-06-06T04:52:17+00:00</time>
      </trkpt>
      <trkpt lat="45.38776" lon="6.14682">
        <ele>2059</ele>
        <time>2024-06-06T04:52:20+00:00</time>
      </trkpt>
      <trkpt lat="45.38763" lon="6.14689">
        <ele>2059</ele>
        <time>2024-06-06T04:52:23+00:00</time>
      </trkpt>
      <trkpt lat="45.38753" lon="6.14697">
        <ele>2063</ele>
        <time>2024-06-06T04:52:26+00:00</time>
      </trkpt>
      <trkpt lat="45.38736" lon="6.14707">
        <ele>2063</ele>
        <time>2024-06-06T04:52:29+00:00</time>
      </trkpt>
      <trkpt lat="45.3875" lon="6.14712">
        <ele>2067</ele>
        <time>2024-06-06T04:52:32+00:00</time>
      </trkpt>
      <trkpt lat="45.38764" lon="6.14713">
        <ele>2067</ele>
        <time>2024-06-06T04:52:35+00:00</time>
      </trkpt>
      <trkpt lat="45.3878" lon="6.14716">
        <ele>2067</ele>
        <time>2024-06-06T04:52:38+00:00</time>
      </trkpt>
      <trkpt lat="45.38799" lon="6.14716">
        <ele>2068</ele>
        <time>2024-06-06T04:52:41+00:00</time>
      </trkpt>
      <trkpt lat="45.3882" lon="6.14714">
        <ele>2071</ele>
        <time>2024-06-06T04:52:44+00:00</time>
      </trkpt>
      <trkpt lat="45.38827" lon="6.14715">
        <ele>2072</ele>
        <time>2024-06-06T04:52:47+00:00</time>
      </trkpt>
      <trkpt lat="45.38832" lon="6.14718">
        <ele>2074</ele>
        <time>2024-06-06T04:52:50+00:00</time>
      </trkpt>
      <trkpt lat="45.38837" lon="6.1473">
        <ele>2076</ele>
        <time>2024-06-06T04:52:53+00:00</time>
      </trkpt>
      <trkpt lat="45.38838" lon="6.1474">
        <ele>2077</ele>
        <time>2024-06-06T04:52:56+00:00</time>
      </trkpt>
      <trkpt lat="45.38841" lon="6.14755">
        <ele>2077</ele>
        <time>2024-06-06T04:52:59+00:00</time>
      </trkpt>
      <trkpt lat="45.38831" lon="6.14755">
        <ele>2076</ele>
        <time>2024-06-06T04:53:02+00:00</time>
      </trkpt>
      <trkpt lat="45.38825" lon="6.14758">
        <ele>2079</ele>
        <time>2024-06-06T04:53:05+00:00</time>
      </trkpt>
      <trkpt lat="45.38816" lon="6.14763">
        <ele>2078</ele>
        <time>2024-06-06T04:53:08+00:00</time>
      </trkpt>
      <trkpt lat="45.3881" lon="6.14761">
        <ele>2077</ele>
        <time>2024-06-06T04:53:11+00:00</time>
      </trkpt>
      <trkpt lat="45.38801" lon="6.14761">
        <ele>2077</ele>
        <time>2024-06-06T04:53:14+00:00</time>
      </trkpt>
      <trkpt lat="45.38793" lon="6.14752">
        <ele>2077</ele>
        <time>2024-06-06T04:53:17+00:00</time>
      </trkpt>
      <trkpt lat="45.38783" lon="6.1475">
        <ele>2077</ele>
        <time>2024-06-06T04:53:20+00:00</time>
      </trkpt>
      <trkpt lat="45.3877" lon="6.14754">
        <ele>2079</ele>
        <time>2024-06-06T04:53:23+00:00</time>
      </trkpt>
      <trkpt lat="45.38758" lon="6.14767">
        <ele>2080</ele>
        <time>2024-06-06T04:53:26+00:00</time>
      </trkpt>
      <trkpt lat="45.38749" lon="6.14774">
        <ele>2081</ele>
        <time>2024-06-06T04:53:29+00:00</time>
      </trkpt>
      <trkpt lat="45.38741" lon="6.14775">
        <ele>2081</ele>
        <time>2024-06-06T04:53:32+00:00</time>
      </trkpt>
      <trkpt lat="45.38728" lon="6.14778">
        <ele>2081</ele>
        <time>2024-06-06T04:53:35+00:00</time>
      </trkpt>
      <trkpt lat="45.38721" lon="6.14783">
        <ele>2081</ele>
        <time>2024-06-06T04:53:38+00:00</time>
      </trkpt>
      <trkpt lat="45.38715" lon="6.14791">
        <ele>2083</ele>
        <time>2024-06-06T04:53:41+00:00</time>
      </trkpt>
      <trkpt lat="45.38706" lon="6.14796">
        <ele>2085</ele>
        <time>2024-06-06T04:53:44+00:00</time>
      </trkpt>
      <trkpt lat="45.38694" lon="6.14803">
        <ele>2086</ele>
        <time>2024-06-06T04:53:47+00:00</time>
      </trkpt>
      <trkpt lat="45.38681" lon="6.1481">
        <ele>2083</ele>
        <time>2024-06-06T04:53:50+00:00</time>
      </trkpt>
      <trkpt lat="45.38659" lon="6.14817">
        <ele>2084</ele>
        <time>2024-06-06T04:53:53+00:00</time>
      </trkpt>
      <trkpt lat="45.3865" lon="6.14821">
        <ele>2084</ele>
        <time>2024-06-06T04:53:56+00:00</time>
      </trkpt>
      <trkpt lat="45.38638" lon="6.14838">
        <ele>2085</ele>
        <time>2024-06-06T04:53:59+00:00</time>
      </trkpt>
      <trkpt lat="45.38629" lon="6.14851">
        <ele>2086</ele>
        <time>2024-06-06T04:54:02+00:00</time>
      </trkpt>
      <trkpt lat="45.38619" lon="6.14863">
        <ele>2085</ele>
        <time>2024-06-06T04:54:05+00:00</time>
      </trkpt>
      <trkpt lat="45.38607" lon="6.14874">
        <ele>2085</ele>
        <time>2024-06-06T04:54:08+00:00</time>
      </trkpt>
      <trkpt lat="45.38596" lon="6.14885">
        <ele>2085</ele>
        <time>2024-06-06T04:54:11+00:00</time>
      </trkpt>
      <trkpt lat="45.38594" lon="6.14887">
        <ele>2085</ele>
        <time>2024-06-06T04:54:14+00:00</time>
      </trkpt>
      <trkpt lat="45.38584" lon="6.14893">
        <ele>2085</ele>
        <time>2024-06-06T04:54:17+00:00</time>
      </trkpt>
      <trkpt lat="45.38576" lon="6.14894">
        <ele>2084</ele>
        <time>2024-06-06T04:54:20+00:00</time>
      </trkpt>
      <trkpt lat="45.38563" lon="6.14896">
        <ele>2084</ele>
        <time>2024-06-06T04:54:23+00:00</time>
      </trkpt>
      <trkpt lat="45.38553" lon="6.14892">
        <ele>2082</ele>
        <time>2024-06-06T04:54:26+00:00</time>
      </trkpt>
      <trkpt lat="45.3854" lon="6.14887">
        <ele>2081</ele>
        <time>2024-06-06T04:54:29+00:00</time>
      </trkpt>
      <trkpt lat="45.3853" lon="6.14884">
        <ele>2081</ele>
        <time>2024-06-06T04:54:32+00:00</time>
      </trkpt>
      <trkpt lat="45.38524" lon="6.14881">
        <ele>2079</ele>
        <time>2024-06-06T04:54:35+00:00</time>
      </trkpt>
      <trkpt lat="45.38519" lon="6.14879">
        <ele>2078</ele>
        <time>2024-06-06T04:54:38+00:00</time>
      </trkpt>
      <trkpt lat="45.3851" lon="6.14879">
        <ele>2078</ele>
        <time>2024-06-06T04:54:41+00:00</time>
      </trkpt>
      <trkpt lat="45.38502" lon="6.14874">
        <ele>2078</ele>
        <time>2024-06-06T04:54:44+00:00</time>
      </trkpt>
      <trkpt lat="45.38486" lon="6.14871">
        <ele>2077</ele>
        <time>2024-06-06T04:54:47+00:00</time>
      </trkpt>
      <trkpt lat="45.38475" lon="6.14871">
        <ele>2077</ele>
        <time>2024-06-06T04:54:50+00:00</time>
      </trkpt>
      <trkpt lat="45.38465" lon="6.1487">
        <ele>2077</ele>
        <time>2024-06-06T04:54:53+00:00</time>
      </trkpt>
      <trkpt lat="45.38456" lon="6.14871">
        <ele>2077</ele>
        <time>2024-06-06T04:54:56+00:00</time>
      </trkpt>
      <trkpt lat="45.38449" lon="6.14874">
        <ele>2078</ele>
        <time>2024-06-06T04:54:59+00:00</time>
      </trkpt>
      <trkpt lat="45.38421" lon="6.1489">
        <ele>2082</ele>
        <time>2024-06-06T04:55:02+00:00</time>
      </trkpt>
      <trkpt lat="45.38404" lon="6.14901">
        <ele>2088</ele>
        <time>2024-06-06T04:55:05+00:00</time>
      </trkpt>
      <trkpt lat="45.38393" lon="6.14907">
        <ele>2085</ele>
        <time>2024-06-06T04:55:08+00:00</time>
      </trkpt>
      <trkpt lat="45.38374" lon="6.14907">
        <ele>2088</ele>
        <time>2024-06-06T04:55:11+00:00</time>
      </trkpt>
      <trkpt lat="45.3837" lon="6.14908">
        <ele>2088</ele>
        <time>2024-06-06T04:55:14+00:00</time>
      </trkpt>
      <trkpt lat="45.38366" lon="6.14908">
        <ele>2089</ele>
        <time>2024-06-06T04:55:17+00:00</time>
      </trkpt>
      <trkpt lat="45.38362" lon="6.14908">
        <ele>2089</ele>
        <time>2024-06-06T04:55:20+00:00</time>
      </trkpt>
      <trkpt lat="45.38355" lon="6.14907">
        <ele>2089</ele>
        <time>2024-06-06T04:55:23+00:00</time>
      </trkpt>
      <trkpt lat="45.3835" lon="6.14908">
        <ele>2089</ele>
        <time>2024-06-06T04:55:26+00:00</time>
      </trkpt>
      <trkpt lat="45.38346" lon="6.1491">
        <ele>2089</ele>
        <time>2024-06-06T04:55:29+00:00</time>
      </trkpt>
      <trkpt lat="45.3834" lon="6.14913">
        <ele>2091</ele>
        <time>2024-06-06T04:55:32+00:00</time>
      </trkpt>
      <trkpt lat="45.38332" lon="6.14915">
        <ele>2091</ele>
        <time>2024-06-06T04:55:35+00:00</time>
      </trkpt>
      <trkpt lat="45.38319" lon="6.14924">
        <ele>2092</ele>
        <time>2024-06-06T04:55:38+00:00</time>
      </trkpt>
      <trkpt lat="45.38307" lon="6.1493">
        <ele>2094</ele>
        <time>2024-06-06T04:55:41+00:00</time>
      </trkpt>
      <trkpt lat="45.38295" lon="6.14935">
        <ele>2091</ele>
        <time>2024-06-06T04:55:44+00:00</time>
      </trkpt>
      <trkpt lat="45.38285" lon="6.1494">
        <ele>2093</ele>
        <time>2024-06-06T04:55:47+00:00</time>
      </trkpt>
      <trkpt lat="45.38278" lon="6.14949">
        <ele>2091</ele>
        <time>2024-06-06T04:55:50+00:00</time>
      </trkpt>
      <trkpt lat="45.38272" lon="6.14958">
        <ele>2092</ele>
        <time>2024-06-06T04:55:53+00:00</time>
      </trkpt>
      <trkpt lat="45.38266" lon="6.14967">
        <ele>2090</ele>
        <time>2024-06-06T04:55:56+00:00</time>
      </trkpt>
      <trkpt lat="45.3826" lon="6.14978">
        <ele>2091</ele>
        <time>2024-06-06T04:55:59+00:00</time>
      </trkpt>
      <trkpt lat="45.38254" lon="6.14999">
        <ele>2088</ele>
        <time>2024-06-06T04:56:02+00:00</time>
      </trkpt>
      <trkpt lat="45.38246" lon="6.15025">
        <ele>2084</ele>
        <time>2024-06-06T04:56:05+00:00</time>
      </trkpt>
      <trkpt lat="45.38235" lon="6.15056">
        <ele>2081</ele>
        <time>2024-06-06T04:56:08+00:00</time>
      </trkpt>
      <trkpt lat="45.38233" lon="6.15067">
        <ele>2081</ele>
        <time>2024-06-06T04:56:11+00:00</time>
      </trkpt>
      <trkpt lat="45.38231" lon="6.15071">
        <ele>2081</ele>
        <time>2024-06-06T04:56:14+00:00</time>
      </trkpt>
      <trkpt lat="45.38229" lon="6.15074">
        <ele>2078</ele>
        <time>2024-06-06T04:56:17+00:00</time>
      </trkpt>
      <trkpt lat="45.38222" lon="6.15092">
        <ele>2081</ele>
        <time>2024-06-06T04:56:20+00:00</time>
      </trkpt>
      <trkpt lat="45.38209" lon="6.15118">
        <ele>2079</ele>
        <time>2024-06-06T04:56:23+00:00</time>
      </trkpt>
      <trkpt lat="45.38204" lon="6.15129">
        <ele>2081</ele>
        <time>2024-06-06T04:56:26+00:00</time>
      </trkpt>
      <trkpt lat="45.382" lon="6.15132">
        <ele>2083</ele>
        <time>2024-06-06T04:56:29+00:00</time>
      </trkpt>
      <trkpt lat="45.38195" lon="6.15139">
        <ele>2079</ele>
        <time>2024-06-06T04:56:32+00:00</time>
      </trkpt>
      <trkpt lat="45.38188" lon="6.15148">
        <ele>2081</ele>
        <time>2024-06-06T04:56:35+00:00</time>
      </trkpt>
      <trkpt lat="45.38187" lon="6.15151">
        <ele>2083</ele>
        <time>2024-06-06T04:56:38+00:00</time>
      </trkpt>
      <trkpt lat="45.38186" lon="6.15156">
        <ele>2083</ele>
        <time>2024-06-06T04:56:41+00:00</time>
      </trkpt>
      <trkpt lat="45.38186" lon="6.15156">
        <ele>2083</ele>
        <time>2024-06-06T04:56:44+00:00</time>
      </trkpt>
      <trkpt lat="45.38185" lon="6.15159">
        <ele>2083</ele>
        <time>2024-06-06T04:56:47+00:00</time>
      </trkpt>
      <trkpt lat="45.38179" lon="6.15171">
        <ele>2084</ele>
        <time>2024-06-06T04:56:50+00:00</time>
      </trkpt>
      <trkpt lat="45.38177" lon="6.15175">
        <ele>2084</ele>
        <time>2024-06-06T04:56:53+00:00</time>
      </trkpt>
      <trkpt lat="45.38175" lon="6.15177">
        <ele>2084</ele>
        <time>2024-06-06T04:56:56+00:00</time>
      </trkpt>
      <trkpt lat="45.38164" lon="6.15183">
        <ele>2084</ele>
        <time>2024-06-06T04:56:59+00:00</time>
      </trkpt>
      <trkpt lat="45.38151" lon="6.15192">
        <ele>2085</ele>
        <time>2024-06-06T04:57:02+00:00</time>
      </trkpt>
      <trkpt lat="45.38144" lon="6.15197">
        <ele>2084</ele>
        <time>2024-06-06T04:57:05+00:00</time>
      </trkpt>
      <trkpt lat="45.3814" lon="6.15199">
        <ele>2084</ele>
        <time>2024-06-06T04:57:08+00:00</time>
      </trkpt>
      <trkpt lat="45.38136" lon="6.15202">
        <ele>2084</ele>
        <time>2024-06-06T04:57:11+00:00</time>
      </trkpt>
      <trkpt lat="45.38125" lon="6.15212">
        <ele>2085</ele>
        <time>2024-06-06T04:57:14+00:00</time>
      </trkpt>
      <trkpt lat="45.38116" lon="6.15223">
        <ele>2086</ele>
        <time>2024-06-06T04:57:17+00:00</time>
      </trkpt>
      <trkpt lat="45.38113" lon="6.15228">
        <ele>2086</ele>
        <time>2024-06-06T04:57:20+00:00</time>
      </trkpt>
      <trkpt lat="45.3811" lon="6.15231">
        <ele>2085</ele>
        <time>2024-06-06T04:57:23+00:00</time>
      </trkpt>
      <trkpt lat="45.38107" lon="6.15233">
        <ele>2085</ele>
        <time>2024-06-06T04:57:26+00:00</time>
      </trkpt>
      <trkpt lat="45.381" lon="6.15235">
        <ele>2082</ele>
        <time>2024-06-06T04:57:29+00:00</time>
      </trkpt>
      <trkpt lat="45.38097" lon="6.15235">
        <ele>2082</ele>
        <time>2024-06-06T04:57:32+00:00</time>
      </trkpt>
      <trkpt lat="45.38094" lon="6.15234">
        <ele>2082</ele>
        <time>2024-06-06T04:57:35+00:00</time>
      </trkpt>
      <trkpt lat="45.38091" lon="6.15235">
        <ele>2082</ele>
        <time>2024-06-06T04:57:38+00:00</time>
      </trkpt>
      <trkpt lat="45.38089" lon="6.1524">
        <ele>2079</ele>
        <time>2024-06-06T04:57:41+00:00</time>
      </trkpt>
      <trkpt lat="45.38085" lon="6.1525">
        <ele>2080</ele>
        <time>2024-06-06T04:57:44+00:00</time>
      </trkpt>
      <trkpt lat="45.38084" lon="6.1526">
        <ele>2080</ele>
        <time>2024-06-06T04:57:47+00:00</time>
      </trkpt>
      <trkpt lat="45.38085" lon="6.15271">
        <ele>2078</ele>
        <time>2024-06-06T04:57:50+00:00</time>
      </trkpt>
      <trkpt lat="45.38085" lon="6.15276">
        <ele>2078</ele>
        <time>2024-06-06T04:57:53+00:00</time>
      </trkpt>
      <trkpt lat="45.38084" lon="6.15279">
        <ele>2078</ele>
        <time>2024-06-06T04:57:56+00:00</time>
      </trkpt>
      <trkpt lat="45.38082" lon="6.15282">
        <ele>2077</ele>
        <time>2024-06-06T04:57:59+00:00</time>
      </trkpt>
      <trkpt lat="45.38082" lon="6.15282">
        <ele>2077</ele>
        <time>2024-06-06T04:58:02+00:00</time>
      </trkpt>
      <trkpt lat="45.38078" lon="6.15285">
        <ele>2073</ele>
        <time>2024-06-06T04:58:05+00:00</time>
      </trkpt>
      <trkpt lat="45.38075" lon="6.15288">
        <ele>2073</ele>
        <time>2024-06-06T04:58:08+00:00</time>
      </trkpt>
      <trkpt lat="45.3807" lon="6.1529">
        <ele>2073</ele>
        <time>2024-06-06T04:58:11+00:00</time>
      </trkpt>
      <trkpt lat="45.38065" lon="6.1529">
        <ele>2071</ele>
        <time>2024-06-06T04:58:14+00:00</time>
      </trkpt>
      <trkpt lat="45.38062" lon="6.15291">
        <ele>2070</ele>
        <time>2024-06-06T04:58:17+00:00</time>
      </trkpt>
      <trkpt lat="45.3806" lon="6.15295">
        <ele>2070</ele>
        <time>2024-06-06T04:58:20+00:00</time>
      </trkpt>
      <trkpt lat="45.38061" lon="6.15304">
        <ele>2068</ele>
        <time>2024-06-06T04:58:23+00:00</time>
      </trkpt>
      <trkpt lat="45.38059" lon="6.15315">
        <ele>2064</ele>
        <time>2024-06-06T04:58:26+00:00</time>
      </trkpt>
      <trkpt lat="45.3805" lon="6.15325">
        <ele>2058</ele>
        <time>2024-06-06T04:58:29+00:00</time>
      </trkpt>
      <trkpt lat="45.38046" lon="6.15334">
        <ele>2056</ele>
        <time>2024-06-06T04:58:32+00:00</time>
      </trkpt>
      <trkpt lat="45.38045" lon="6.15339">
        <ele>2056</ele>
        <time>2024-06-06T04:58:35+00:00</time>
      </trkpt>
      <trkpt lat="45.38044" lon="6.15341">
        <ele>2055</ele>
        <time>2024-06-06T04:58:38+00:00</time>
      </trkpt>
      <trkpt lat="45.38043" lon="6.15343">
        <ele>2055</ele>
        <time>2024-06-06T04:58:41+00:00</time>
      </trkpt>
      <trkpt lat="45.38039" lon="6.15346">
        <ele>2053</ele>
        <time>2024-06-06T04:58:44+00:00</time>
      </trkpt>
      <trkpt lat="45.38034" lon="6.15344">
        <ele>2053</ele>
        <time>2024-06-06T04:58:47+00:00</time>
      </trkpt>
      <trkpt lat="45.3803" lon="6.15341">
        <ele>2053</ele>
        <time>2024-06-06T04:58:50+00:00</time>
      </trkpt>
      <trkpt lat="45.38023" lon="6.15339">
        <ele>2052</ele>
        <time>2024-06-06T04:58:53+00:00</time>
      </trkpt>
      <trkpt lat="45.38019" lon="6.1534">
        <ele>2048</ele>
        <time>2024-06-06T04:58:56+00:00</time>
      </trkpt>
      <trkpt lat="45.38008" lon="6.15346">
        <ele>2045</ele>
        <time>2024-06-06T04:58:59+00:00</time>
      </trkpt>
      <trkpt lat="45.38001" lon="6.15344">
        <ele>2045</ele>
        <time>2024-06-06T04:59:02+00:00</time>
      </trkpt>
      <trkpt lat="45.37995" lon="6.1534">
        <ele>2043</ele>
        <time>2024-06-06T04:59:05+00:00</time>
      </trkpt>
      <trkpt lat="45.3799" lon="6.1534">
        <ele>2043</ele>
        <time>2024-06-06T04:59:08+00:00</time>
      </trkpt>
      <trkpt lat="45.37974" lon="6.15344">
        <ele>2039</ele>
        <time>2024-06-06T04:59:11+00:00</time>
      </trkpt>
      <trkpt lat="45.37966" lon="6.15348">
        <ele>2037</ele>
        <time>2024-06-06T04:59:14+00:00</time>
      </trkpt>
      <trkpt lat="45.37961" lon="6.15352">
        <ele>2037</ele>
        <time>2024-06-06T04:59:17+00:00</time>
      </trkpt>
      <trkpt lat="45.37952" lon="6.15352">
        <ele>2035</ele>
        <time>2024-06-06T04:59:20+00:00</time>
      </trkpt>
      <trkpt lat="45.37938" lon="6.15351">
        <ele>2031</ele>
        <time>2024-06-06T04:59:23+00:00</time>
      </trkpt>
      <trkpt lat="45.37928" lon="6.1535">
        <ele>2029</ele>
        <time>2024-06-06T04:59:26+00:00</time>
      </trkpt>
      <trkpt lat="45.3792" lon="6.15345">
        <ele>2029</ele>
        <time>2024-06-06T04:59:29+00:00</time>
      </trkpt>
      <trkpt lat="45.37909" lon="6.15334">
        <ele>2022</ele>
        <time>2024-06-06T04:59:32+00:00</time>
      </trkpt>
      <trkpt lat="45.37891" lon="6.15321">
        <ele>2017</ele>
        <time>2024-06-06T04:59:35+00:00</time>
      </trkpt>
      <trkpt lat="45.37862" lon="6.15343">
        <ele>2009</ele>
        <time>2024-06-06T04:59:38+00:00</time>
      </trkpt>
      <trkpt lat="45.37835" lon="6.15333">
        <ele>1998</ele>
        <time>2024-06-06T04:59:41+00:00</time>
      </trkpt>
      <trkpt lat="45.37814" lon="6.1533">
        <ele>1991</ele>
        <time>2024-06-06T04:59:44+00:00</time>
      </trkpt>
      <trkpt lat="45.37808" lon="6.15325">
        <ele>1985</ele>
        <time>2024-06-06T04:59:47+00:00</time>
      </trkpt>
      <trkpt lat="45.37793" lon="6.15328">
        <ele>1981</ele>
        <time>2024-06-06T04:59:50+00:00</time>
      </trkpt>
      <trkpt lat="45.37781" lon="6.15334">
        <ele>1982</ele>
        <time>2024-06-06T04:59:53+00:00</time>
      </trkpt>
      <trkpt lat="45.37768" lon="6.15345">
        <ele>1977</ele>
        <time>2024-06-06T04:59:56+00:00</time>
      </trkpt>
      <trkpt lat="45.37756" lon="6.15349">
        <ele>1974</ele>
        <time>2024-06-06T04:59:59+00:00</time>
      </trkpt>
      <trkpt lat="45.37747" lon="6.15353">
        <ele>1974</ele>
        <time>2024-06-06T05:00:02+00:00</time>
      </trkpt>
      <trkpt lat="45.3774" lon="6.15352">
        <ele>1974</ele>
        <time>2024-06-06T05:00:05+00:00</time>
      </trkpt>
      <trkpt lat="45.37732" lon="6.15349">
        <ele>1969</ele>
        <time>2024-06-06T05:00:08+00:00</time>
      </trkpt>
      <trkpt lat="45.37723" lon="6.1535">
        <ele>1969</ele>
        <time>2024-06-06T05:00:11+00:00</time>
      </trkpt>
      <trkpt lat="45.37716" lon="6.1535">
        <ele>1968</ele>
        <time>2024-06-06T05:00:14+00:00</time>
      </trkpt>
      <trkpt lat="45.37699" lon="6.15349">
        <ele>1961</ele>
        <time>2024-06-06T05:00:17+00:00</time>
      </trkpt>
      <trkpt lat="45.37691" lon="6.1535">
        <ele>1961</ele>
        <time>2024-06-06T05:00:20+00:00</time>
      </trkpt>
      <trkpt lat="45.37685" lon="6.15353">
        <ele>1960</ele>
        <time>2024-06-06T05:00:23+00:00</time>
      </trkpt>
      <trkpt lat="45.37679" lon="6.15356">
        <ele>1957</ele>
        <time>2024-06-06T05:00:26+00:00</time>
      </trkpt>
      <trkpt lat="45.3767" lon="6.15357">
        <ele>1957</ele>
        <time>2024-06-06T05:00:29+00:00</time>
      </trkpt>
      <trkpt lat="45.37658" lon="6.15359">
        <ele>1955</ele>
        <time>2024-06-06T05:00:32+00:00</time>
      </trkpt>
      <trkpt lat="45.37658" lon="6.15368">
        <ele>1956</ele>
        <time>2024-06-06T05:00:35+00:00</time>
      </trkpt>
      <trkpt lat="45.3766" lon="6.15377">
        <ele>1956</ele>
        <time>2024-06-06T05:00:38+00:00</time>
      </trkpt>
      <trkpt lat="45.37663" lon="6.15387">
        <ele>1955</ele>
        <time>2024-06-06T05:00:41+00:00</time>
      </trkpt>
      <trkpt lat="45.37668" lon="6.15397">
        <ele>1951</ele>
        <time>2024-06-06T05:00:44+00:00</time>
      </trkpt>
      <trkpt lat="45.37672" lon="6.15404">
        <ele>1950</ele>
        <time>2024-06-06T05:00:47+00:00</time>
      </trkpt>
      <trkpt lat="45.37677" lon="6.15411">
        <ele>1946</ele>
        <time>2024-06-06T05:00:50+00:00</time>
      </trkpt>
      <trkpt lat="45.37686" lon="6.15417">
        <ele>1947</ele>
        <time>2024-06-06T05:00:53+00:00</time>
      </trkpt>
      <trkpt lat="45.37698" lon="6.15425">
        <ele>1941</ele>
        <time>2024-06-06T05:00:56+00:00</time>
      </trkpt>
      <trkpt lat="45.37705" lon="6.15431">
        <ele>1938</ele>
        <time>2024-06-06T05:00:59+00:00</time>
      </trkpt>
      <trkpt lat="45.37712" lon="6.15439">
        <ele>1941</ele>
        <time>2024-06-06T05:01:02+00:00</time>
      </trkpt>
      <trkpt lat="45.37716" lon="6.15455">
        <ele>1932</ele>
        <time>2024-06-06T05:01:05+00:00</time>
      </trkpt>
      <trkpt lat="45.37721" lon="6.15472">
        <ele>1929</ele>
        <time>2024-06-06T05:01:08+00:00</time>
      </trkpt>
      <trkpt lat="45.3773" lon="6.155">
        <ele>1925</ele>
        <time>2024-06-06T05:01:11+00:00</time>
      </trkpt>
      <trkpt lat="45.37736" lon="6.15518">
        <ele>1918</ele>
        <time>2024-06-06T05:01:14+00:00</time>
      </trkpt>
      <trkpt lat="45.37745" lon="6.15536">
        <ele>1919</ele>
        <time>2024-06-06T05:01:17+00:00</time>
      </trkpt>
      <trkpt lat="45.37755" lon="6.15549">
        <ele>1918</ele>
        <time>2024-06-06T05:01:20+00:00</time>
      </trkpt>
      <trkpt lat="45.37768" lon="6.15562">
        <ele>1915</ele>
        <time>2024-06-06T05:01:23+00:00</time>
      </trkpt>
      <trkpt lat="45.37779" lon="6.15574">
        <ele>1912</ele>
        <time>2024-06-06T05:01:26+00:00</time>
      </trkpt>
      <trkpt lat="45.37786" lon="6.1559">
        <ele>1910</ele>
        <time>2024-06-06T05:01:29+00:00</time>
      </trkpt>
      <trkpt lat="45.37792" lon="6.15602">
        <ele>1904</ele>
        <time>2024-06-06T05:01:32+00:00</time>
      </trkpt>
      <trkpt lat="45.37798" lon="6.15609">
        <ele>1904</ele>
        <time>2024-06-06T05:01:35+00:00</time>
      </trkpt>
      <trkpt lat="45.37797" lon="6.1564">
        <ele>1894</ele>
        <time>2024-06-06T05:01:38+00:00</time>
      </trkpt>
      <trkpt lat="45.37801" lon="6.1566">
        <ele>1891</ele>
        <time>2024-06-06T05:01:41+00:00</time>
      </trkpt>
      <trkpt lat="45.3781" lon="6.15685">
        <ele>1885</ele>
        <time>2024-06-06T05:01:44+00:00</time>
      </trkpt>
      <trkpt lat="45.37806" lon="6.15709">
        <ele>1880</ele>
        <time>2024-06-06T05:01:47+00:00</time>
      </trkpt>
      <trkpt lat="45.37794" lon="6.15726">
        <ele>1874</ele>
        <time>2024-06-06T05:01:50+00:00</time>
      </trkpt>
      <trkpt lat="45.3779" lon="6.15739">
        <ele>1872</ele>
        <time>2024-06-06T05:01:53+00:00</time>
      </trkpt>
      <trkpt lat="45.37802" lon="6.15753">
        <ele>1867</ele>
        <time>2024-06-06T05:01:56+00:00</time>
      </trkpt>
      <trkpt lat="45.37811" lon="6.15758">
        <ele>1867</ele>
        <time>2024-06-06T05:01:59+00:00</time>
      </trkpt>
      <trkpt lat="45.37816" lon="6.15763">
        <ele>1865</ele>
        <time>2024-06-06T05:02:02+00:00</time>
      </trkpt>
      <trkpt lat="45.37822" lon="6.15769">
        <ele>1865</ele>
        <time>2024-06-06T05:02:05+00:00</time>
      </trkpt>
      <trkpt lat="45.37828" lon="6.15772">
        <ele>1863</ele>
        <time>2024-06-06T05:02:08+00:00</time>
      </trkpt>
      <trkpt lat="45.37837" lon="6.15787">
        <ele>1861</ele>
        <time>2024-06-06T05:02:11+00:00</time>
      </trkpt>
      <trkpt lat="45.3785" lon="6.15798">
        <ele>1860</ele>
        <time>2024-06-06T05:02:14+00:00</time>
      </trkpt>
      <trkpt lat="45.37856" lon="6.15806">
        <ele>1860</ele>
        <time>2024-06-06T05:02:17+00:00</time>
      </trkpt>
      <trkpt lat="45.37859" lon="6.15813">
        <ele>1856</ele>
        <time>2024-06-06T05:02:20+00:00</time>
      </trkpt>
      <trkpt lat="45.37881" lon="6.15841">
        <ele>1858</ele>
        <time>2024-06-06T05:02:23+00:00</time>
      </trkpt>
      <trkpt lat="45.37903" lon="6.15856">
        <ele>1856</ele>
        <time>2024-06-06T05:02:26+00:00</time>
      </trkpt>
      <trkpt lat="45.37907" lon="6.1586">
        <ele>1854</ele>
        <time>2024-06-06T05:02:29+00:00</time>
      </trkpt>
      <trkpt lat="45.37909" lon="6.15865">
        <ele>1854</ele>
        <time>2024-06-06T05:02:32+00:00</time>
      </trkpt>
      <trkpt lat="45.37936" lon="6.15895">
        <ele>1853</ele>
        <time>2024-06-06T05:02:35+00:00</time>
      </trkpt>
      <trkpt lat="45.37969" lon="6.15926">
        <ele>1848</ele>
        <time>2024-06-06T05:02:38+00:00</time>
      </trkpt>
      <trkpt lat="45.37989" lon="6.15946">
        <ele>1842</ele>
        <time>2024-06-06T05:02:41+00:00</time>
      </trkpt>
      <trkpt lat="45.38003" lon="6.1597">
        <ele>1833</ele>
        <time>2024-06-06T05:02:44+00:00</time>
      </trkpt>
      <trkpt lat="45.38018" lon="6.16015">
        <ele>1817</ele>
        <time>2024-06-06T05:02:47+00:00</time>
      </trkpt>
      <trkpt lat="45.38019" lon="6.16036">
        <ele>1810</ele>
        <time>2024-06-06T05:02:50+00:00</time>
      </trkpt>
      <trkpt lat="45.38016" lon="6.16038">
        <ele>1810</ele>
        <time>2024-06-06T05:02:53+00:00</time>
      </trkpt>
      <trkpt lat="45.3801" lon="6.16045">
        <ele>1807</ele>
        <time>2024-06-06T05:02:56+00:00</time>
      </trkpt>
      <trkpt lat="45.38012" lon="6.16053">
        <ele>1805</ele>
        <time>2024-06-06T05:02:59+00:00</time>
      </trkpt>
      <trkpt lat="45.38013" lon="6.16074">
        <ele>1802</ele>
        <time>2024-06-06T05:03:02+00:00</time>
      </trkpt>
      <trkpt lat="45.38022" lon="6.16091">
        <ele>1798</ele>
        <time>2024-06-06T05:03:05+00:00</time>
      </trkpt>
      <trkpt lat="45.3802" lon="6.16117">
        <ele>1792</ele>
        <time>2024-06-06T05:03:08+00:00</time>
      </trkpt>
      <trkpt lat="45.38015" lon="6.16137">
        <ele>1789</ele>
        <time>2024-06-06T05:03:11+00:00</time>
      </trkpt>
      <trkpt lat="45.38001" lon="6.16145">
        <ele>1784</ele>
        <time>2024-06-06T05:03:14+00:00</time>
      </trkpt>
      <trkpt lat="45.37993" lon="6.16151">
        <ele>1780</ele>
        <time>2024-06-06T05:03:17+00:00</time>
      </trkpt>
      <trkpt lat="45.3799" lon="6.16169">
        <ele>1778</ele>
        <time>2024-06-06T05:03:20+00:00</time>
      </trkpt>
      <trkpt lat="45.37983" lon="6.16173">
        <ele>1773</ele>
        <time>2024-06-06T05:03:23+00:00</time>
      </trkpt>
      <trkpt lat="45.37978" lon="6.16185">
        <ele>1772</ele>
        <time>2024-06-06T05:03:26+00:00</time>
      </trkpt>
      <trkpt lat="45.37978" lon="6.16197">
        <ele>1769</ele>
        <time>2024-06-06T05:03:29+00:00</time>
      </trkpt>
      <trkpt lat="45.37982" lon="6.16217">
        <ele>1763</ele>
        <time>2024-06-06T05:03:32+00:00</time>
      </trkpt>
      <trkpt lat="45.37999" lon="6.16244">
        <ele>1758</ele>
        <time>2024-06-06T05:03:35+00:00</time>
      </trkpt>
      <trkpt lat="45.38008" lon="6.16265">
        <ele>1756</ele>
        <time>2024-06-06T05:03:38+00:00</time>
      </trkpt>
      <trkpt lat="45.38002" lon="6.16283">
        <ele>1752</ele>
        <time>2024-06-06T05:03:41+00:00</time>
      </trkpt>
      <trkpt lat="45.37999" lon="6.16302">
        <ele>1749</ele>
        <time>2024-06-06T05:03:44+00:00</time>
      </trkpt>
      <trkpt lat="45.38011" lon="6.16324">
        <ele>1745</ele>
        <time>2024-06-06T05:03:47+00:00</time>
      </trkpt>
      <trkpt lat="45.38006" lon="6.16335">
        <ele>1743</ele>
        <time>2024-06-06T05:03:50+00:00</time>
      </trkpt>
      <trkpt lat="45.37992" lon="6.16347">
        <ele>1744</ele>
        <time>2024-06-06T05:03:53+00:00</time>
      </trkpt>
      <trkpt lat="45.37988" lon="6.16365">
        <ele>1744</ele>
        <time>2024-06-06T05:03:56+00:00</time>
      </trkpt>
      <trkpt lat="45.37985" lon="6.16377">
        <ele>1744</ele>
        <time>2024-06-06T05:03:59+00:00</time>
      </trkpt>
      <trkpt lat="45.37987" lon="6.16399">
        <ele>1742</ele>
        <time>2024-06-06T05:04:02+00:00</time>
      </trkpt>
      <trkpt lat="45.37992" lon="6.1643">
        <ele>1734</ele>
        <time>2024-06-06T05:04:05+00:00</time>
      </trkpt>
      <trkpt lat="45.37992" lon="6.16451">
        <ele>1731</ele>
        <time>2024-06-06T05:04:08+00:00</time>
      </trkpt>
      <trkpt lat="45.3799" lon="6.16472">
        <ele>1733</ele>
        <time>2024-06-06T05:04:11+00:00</time>
      </trkpt>
      <trkpt lat="45.37987" lon="6.16485">
        <ele>1730</ele>
        <time>2024-06-06T05:04:14+00:00</time>
      </trkpt>
      <trkpt lat="45.37977" lon="6.16505">
        <ele>1728</ele>
        <time>2024-06-06T05:04:17+00:00</time>
      </trkpt>
      <trkpt lat="45.37962" lon="6.16517">
        <ele>1725</ele>
        <time>2024-06-06T05:04:20+00:00</time>
      </trkpt>
      <trkpt lat="45.37953" lon="6.16525">
        <ele>1729</ele>
        <time>2024-06-06T05:04:23+00:00</time>
      </trkpt>
      <trkpt lat="45.37947" lon="6.16539">
        <ele>1730</ele>
        <time>2024-06-06T05:04:26+00:00</time>
      </trkpt>
      <trkpt lat="45.37942" lon="6.16548">
        <ele>1730</ele>
        <time>2024-06-06T05:04:29+00:00</time>
      </trkpt>
      <trkpt lat="45.3794" lon="6.1656">
        <ele>1736</ele>
        <time>2024-06-06T05:04:32+00:00</time>
      </trkpt>
      <trkpt lat="45.37939" lon="6.16573">
        <ele>1736</ele>
        <time>2024-06-06T05:04:35+00:00</time>
      </trkpt>
      <trkpt lat="45.37939" lon="6.16588">
        <ele>1737</ele>
        <time>2024-06-06T05:04:38+00:00</time>
      </trkpt>
      <trkpt lat="45.37938" lon="6.16599">
        <ele>1737</ele>
        <time>2024-06-06T05:04:41+00:00</time>
      </trkpt>
      <trkpt lat="45.37934" lon="6.16608">
        <ele>1738</ele>
        <time>2024-06-06T05:04:44+00:00</time>
      </trkpt>
      <trkpt lat="45.3793" lon="6.16614">
        <ele>1738</ele>
        <time>2024-06-06T05:04:47+00:00</time>
      </trkpt>
      <trkpt lat="45.37925" lon="6.1661">
        <ele>1743</ele>
        <time>2024-06-06T05:04:50+00:00</time>
      </trkpt>
      <trkpt lat="45.37922" lon="6.16607">
        <ele>1743</ele>
        <time>2024-06-06T05:04:53+00:00</time>
      </trkpt>
      <trkpt lat="45.37918" lon="6.16612">
        <ele>1751</ele>
        <time>2024-06-06T05:04:56+00:00</time>
      </trkpt>
      <trkpt lat="45.37913" lon="6.16613">
        <ele>1751</ele>
        <time>2024-06-06T05:04:59+00:00</time>
      </trkpt>
      <trkpt lat="45.37912" lon="6.16622">
        <ele>1751</ele>
        <time>2024-06-06T05:05:02+00:00</time>
      </trkpt>
      <trkpt lat="45.37911" lon="6.16631">
        <ele>1752</ele>
        <time>2024-06-06T05:05:05+00:00</time>
      </trkpt>
      <trkpt lat="45.37907" lon="6.16638">
        <ele>1758</ele>
        <time>2024-06-06T05:05:08+00:00</time>
      </trkpt>
      <trkpt lat="45.37907" lon="6.16658">
        <ele>1762</ele>
        <time>2024-06-06T05:05:11+00:00</time>
      </trkpt>
      <trkpt lat="45.37908" lon="6.16681">
        <ele>1769</ele>
        <time>2024-06-06T05:05:14+00:00</time>
      </trkpt>
      <trkpt lat="45.37915" lon="6.16707">
        <ele>1765</ele>
        <time>2024-06-06T05:05:17+00:00</time>
      </trkpt>
      <trkpt lat="45.37916" lon="6.16731">
        <ele>1770</ele>
        <time>2024-06-06T05:05:20+00:00</time>
      </trkpt>
      <trkpt lat="45.37916" lon="6.16765">
        <ele>1776</ele>
        <time>2024-06-06T05:05:23+00:00</time>
      </trkpt>
      <trkpt lat="45.37921" lon="6.16787">
        <ele>1770</ele>
        <time>2024-06-06T05:05:26+00:00</time>
      </trkpt>
      <trkpt lat="45.37929" lon="6.16814">
        <ele>1779</ele>
        <time>2024-06-06T05:05:29+00:00</time>
      </trkpt>
      <trkpt lat="45.3794" lon="6.16841">
        <ele>1777</ele>
        <time>2024-06-06T05:05:32+00:00</time>
      </trkpt>
      <trkpt lat="45.37945" lon="6.16855">
        <ele>1778</ele>
        <time>2024-06-06T05:05:35+00:00</time>
      </trkpt>
      <trkpt lat="45.37951" lon="6.16872">
        <ele>1776</ele>
        <time>2024-06-06T05:05:38+00:00</time>
      </trkpt>
      <trkpt lat="45.37957" lon="6.16881">
        <ele>1778</ele>
        <time>2024-06-06T05:05:41+00:00</time>
      </trkpt>
      <trkpt lat="45.37963" lon="6.16902">
        <ele>1772</ele>
        <time>2024-06-06T05:05:44+00:00</time>
      </trkpt>
      <trkpt lat="45.37975" lon="6.16922">
        <ele>1769</ele>
        <time>2024-06-06T05:05:47+00:00</time>
      </trkpt>
      <trkpt lat="45.3799" lon="6.16953">
        <ele>1771</ele>
        <time>2024-06-06T05:05:50+00:00</time>
      </trkpt>
      <trkpt lat="45.37995" lon="6.16968">
        <ele>1764</ele>
        <time>2024-06-06T05:05:53+00:00</time>
      </trkpt>
      <trkpt lat="45.37994" lon="6.16983">
        <ele>1770</ele>
        <time>2024-06-06T05:05:56+00:00</time>
      </trkpt>
      <trkpt lat="45.38002" lon="6.17008">
        <ele>1768</ele>
        <time>2024-06-06T05:05:59+00:00</time>
      </trkpt>
      <trkpt lat="45.38004" lon="6.17016">
        <ele>1770</ele>
        <time>2024-06-06T05:06:02+00:00</time>
      </trkpt>
      <trkpt lat="45.38004" lon="6.17023">
        <ele>1770</ele>
        <time>2024-06-06T05:06:05+00:00</time>
      </trkpt>
      <trkpt lat="45.38003" lon="6.17025">
        <ele>1770</ele>
        <time>2024-06-06T05:06:08+00:00</time>
      </trkpt>
      <trkpt lat="45.38003" lon="6.17029">
        <ele>1770</ele>
        <time>2024-06-06T05:06:11+00:00</time>
      </trkpt>
      <trkpt lat="45.38003" lon="6.17036">
        <ele>1769</ele>
        <time>2024-06-06T05:06:14+00:00</time>
      </trkpt>
      <trkpt lat="45.38002" lon="6.17041">
        <ele>1766</ele>
        <time>2024-06-06T05:06:17+00:00</time>
      </trkpt>
      <trkpt lat="45.38003" lon="6.17044">
        <ele>1766</ele>
        <time>2024-06-06T05:06:20+00:00</time>
      </trkpt>
      <trkpt lat="45.38003" lon="6.17046">
        <ele>1766</ele>
        <time>2024-06-06T05:06:23+00:00</time>
      </trkpt>
      <trkpt lat="45.38" lon="6.1705">
        <ele>1760</ele>
        <time>2024-06-06T05:06:26+00:00</time>
      </trkpt>
      <trkpt lat="45.37993" lon="6.17057">
        <ele>1761</ele>
        <time>2024-06-06T05:06:29+00:00</time>
      </trkpt>
      <trkpt lat="45.3799" lon="6.17057">
        <ele>1761</ele>
        <time>2024-06-06T05:06:32+00:00</time>
      </trkpt>
      <trkpt lat="45.37985" lon="6.1706">
        <ele>1757</ele>
        <time>2024-06-06T05:06:35+00:00</time>
      </trkpt>
      <trkpt lat="45.37979" lon="6.17066">
        <ele>1758</ele>
        <time>2024-06-06T05:06:38+00:00</time>
      </trkpt>
      <trkpt lat="45.37975" lon="6.17067">
        <ele>1758</ele>
        <time>2024-06-06T05:06:41+00:00</time>
      </trkpt>
      <trkpt lat="45.37972" lon="6.17069">
        <ele>1758</ele>
        <time>2024-06-06T05:06:44+00:00</time>
      </trkpt>
      <trkpt lat="45.37966" lon="6.17074">
        <ele>1755</ele>
        <time>2024-06-06T05:06:47+00:00</time>
      </trkpt>
      <trkpt lat="45.37963" lon="6.17081">
        <ele>1748</ele>
        <time>2024-06-06T05:06:50+00:00</time>
      </trkpt>
      <trkpt lat="45.37956" lon="6.17085">
        <ele>1749</ele>
        <time>2024-06-06T05:06:53+00:00</time>
      </trkpt>
      <trkpt lat="45.37956" lon="6.17085">
        <ele>1749</ele>
        <time>2024-06-06T05:06:56+00:00</time>
      </trkpt>
      <trkpt lat="45.37956" lon="6.17085">
        <ele>1749</ele>
        <time>2024-06-06T05:06:59+00:00</time>
      </trkpt>
      <trkpt lat="45.37944" lon="6.17095">
        <ele>1745</ele>
        <time>2024-06-06T05:07:02+00:00</time>
      </trkpt>
      <trkpt lat="45.37941" lon="6.17098">
        <ele>1745</ele>
        <time>2024-06-06T05:07:05+00:00</time>
      </trkpt>
      <trkpt lat="45.37939" lon="6.17107">
        <ele>1741</ele>
        <time>2024-06-06T05:07:08+00:00</time>
      </trkpt>
      <trkpt lat="45.37934" lon="6.1711">
        <ele>1736</ele>
        <time>2024-06-06T05:07:11+00:00</time>
      </trkpt>
      <trkpt lat="45.37929" lon="6.17112">
        <ele>1741</ele>
        <time>2024-06-06T05:07:14+00:00</time>
      </trkpt>
      <trkpt lat="45.37924" lon="6.1711">
        <ele>1739</ele>
        <time>2024-06-06T05:07:17+00:00</time>
      </trkpt>
      <trkpt lat="45.37917" lon="6.17107">
        <ele>1733</ele>
        <time>2024-06-06T05:07:20+00:00</time>
      </trkpt>
      <trkpt lat="45.37916" lon="6.17103">
        <ele>1733</ele>
        <time>2024-06-06T05:07:23+00:00</time>
      </trkpt>
      <trkpt lat="45.37913" lon="6.17096">
        <ele>1738</ele>
        <time>2024-06-06T05:07:26+00:00</time>
      </trkpt>
      <trkpt lat="45.37907" lon="6.17091">
        <ele>1734</ele>
        <time>2024-06-06T05:07:29+00:00</time>
      </trkpt>
      <trkpt lat="45.37902" lon="6.1709">
        <ele>1739</ele>
        <time>2024-06-06T05:07:32+00:00</time>
      </trkpt>
      <trkpt lat="45.37896" lon="6.17088">
        <ele>1738</ele>
        <time>2024-06-06T05:07:35+00:00</time>
      </trkpt>
      <trkpt lat="45.37893" lon="6.17086">
        <ele>1738</ele>
        <time>2024-06-06T05:07:38+00:00</time>
      </trkpt>
      <trkpt lat="45.37887" lon="6.17087">
        <ele>1736</ele>
        <time>2024-06-06T05:07:41+00:00</time>
      </trkpt>
      <trkpt lat="45.37881" lon="6.17085">
        <ele>1736</ele>
        <time>2024-06-06T05:07:44+00:00</time>
      </trkpt>
      <trkpt lat="45.37875" lon="6.17084">
        <ele>1735</ele>
        <time>2024-06-06T05:07:47+00:00</time>
      </trkpt>
      <trkpt lat="45.37872" lon="6.17081">
        <ele>1739</ele>
        <time>2024-06-06T05:07:50+00:00</time>
      </trkpt>
      <trkpt lat="45.37868" lon="6.1708">
        <ele>1743</ele>
        <time>2024-06-06T05:07:53+00:00</time>
      </trkpt>
      <trkpt lat="45.37863" lon="6.17079">
        <ele>1743</ele>
        <time>2024-06-06T05:07:56+00:00</time>
      </trkpt>
      <trkpt lat="45.37857" lon="6.17081">
        <ele>1740</ele>
        <time>2024-06-06T05:07:59+00:00</time>
      </trkpt>
      <trkpt lat="45.37852" lon="6.17086">
        <ele>1733</ele>
        <time>2024-06-06T05:08:02+00:00</time>
      </trkpt>
      <trkpt lat="45.3785" lon="6.17096">
        <ele>1736</ele>
        <time>2024-06-06T05:08:05+00:00</time>
      </trkpt>
      <trkpt lat="45.37845" lon="6.17104">
        <ele>1734</ele>
        <time>2024-06-06T05:08:08+00:00</time>
      </trkpt>
      <trkpt lat="45.37841" lon="6.1711">
        <ele>1727</ele>
        <time>2024-06-06T05:08:11+00:00</time>
      </trkpt>
      <trkpt lat="45.37835" lon="6.17117">
        <ele>1728</ele>
        <time>2024-06-06T05:08:14+00:00</time>
      </trkpt>
      <trkpt lat="45.37828" lon="6.1712">
        <ele>1725</ele>
        <time>2024-06-06T05:08:17+00:00</time>
      </trkpt>
      <trkpt lat="45.37823" lon="6.1712">
        <ele>1725</ele>
        <time>2024-06-06T05:08:20+00:00</time>
      </trkpt>
      <trkpt lat="45.37818" lon="6.1712">
        <ele>1725</ele>
        <time>2024-06-06T05:08:23+00:00</time>
      </trkpt>
      <trkpt lat="45.37813" lon="6.17121">
        <ele>1725</ele>
        <time>2024-06-06T05:08:26+00:00</time>
      </trkpt>
      <trkpt lat="45.37809" lon="6.17124">
        <ele>1725</ele>
        <time>2024-06-06T05:08:29+00:00</time>
      </trkpt>
      <trkpt lat="45.37804" lon="6.17129">
        <ele>1725</ele>
        <time>2024-06-06T05:08:32+00:00</time>
      </trkpt>
      <trkpt lat="45.378" lon="6.17132">
        <ele>1719</ele>
        <time>2024-06-06T05:08:35+00:00</time>
      </trkpt>
      <trkpt lat="45.37794" lon="6.17134">
        <ele>1719</ele>
        <time>2024-06-06T05:08:38+00:00</time>
      </trkpt>
      <trkpt lat="45.37787" lon="6.17134">
        <ele>1717</ele>
        <time>2024-06-06T05:08:41+00:00</time>
      </trkpt>
      <trkpt lat="45.37783" lon="6.17131">
        <ele>1717</ele>
        <time>2024-06-06T05:08:44+00:00</time>
      </trkpt>
      <trkpt lat="45.37778" lon="6.17128">
        <ele>1719</ele>
        <time>2024-06-06T05:08:47+00:00</time>
      </trkpt>
      <trkpt lat="45.37774" lon="6.17125">
        <ele>1719</ele>
        <time>2024-06-06T05:08:50+00:00</time>
      </trkpt>
      <trkpt lat="45.37766" lon="6.17123">
        <ele>1714</ele>
        <time>2024-06-06T05:08:53+00:00</time>
      </trkpt>
      <trkpt lat="45.3776" lon="6.17127">
        <ele>1714</ele>
        <time>2024-06-06T05:08:56+00:00</time>
      </trkpt>
      <trkpt lat="45.37756" lon="6.17133">
        <ele>1710</ele>
        <time>2024-06-06T05:08:59+00:00</time>
      </trkpt>
      <trkpt lat="45.37754" lon="6.17143">
        <ele>1708</ele>
        <time>2024-06-06T05:09:02+00:00</time>
      </trkpt>
      <trkpt lat="45.37755" lon="6.17152">
        <ele>1706</ele>
        <time>2024-06-06T05:09:05+00:00</time>
      </trkpt>
      <trkpt lat="45.37751" lon="6.17157">
        <ele>1706</ele>
        <time>2024-06-06T05:09:08+00:00</time>
      </trkpt>
      <trkpt lat="45.37741" lon="6.17165">
        <ele>1705</ele>
        <time>2024-06-06T05:09:11+00:00</time>
      </trkpt>
      <trkpt lat="45.37735" lon="6.17172">
        <ele>1702</ele>
        <time>2024-06-06T05:09:14+00:00</time>
      </trkpt>
      <trkpt lat="45.37735" lon="6.17178">
        <ele>1702</ele>
        <time>2024-06-06T05:09:17+00:00</time>
      </trkpt>
      <trkpt lat="45.37734" lon="6.17183">
        <ele>1700</ele>
        <time>2024-06-06T05:09:20+00:00</time>
      </trkpt>
      <trkpt lat="45.37737" lon="6.17188">
        <ele>1700</ele>
        <time>2024-06-06T05:09:23+00:00</time>
      </trkpt>
      <trkpt lat="45.37739" lon="6.17193">
        <ele>1698</ele>
        <time>2024-06-06T05:09:26+00:00</time>
      </trkpt>
      <trkpt lat="45.37736" lon="6.17196">
        <ele>1698</ele>
        <time>2024-06-06T05:09:29+00:00</time>
      </trkpt>
      <trkpt lat="45.37732" lon="6.17197">
        <ele>1698</ele>
        <time>2024-06-06T05:09:32+00:00</time>
      </trkpt>
      <trkpt lat="45.37728" lon="6.172">
        <ele>1694</ele>
        <time>2024-06-06T05:09:35+00:00</time>
      </trkpt>
      <trkpt lat="45.37722" lon="6.17206">
        <ele>1694</ele>
        <time>2024-06-06T05:09:38+00:00</time>
      </trkpt>
      <trkpt lat="45.37719" lon="6.17211">
        <ele>1691</ele>
        <time>2024-06-06T05:09:41+00:00</time>
      </trkpt>
      <trkpt lat="45.37716" lon="6.17214">
        <ele>1691</ele>
        <time>2024-06-06T05:09:44+00:00</time>
      </trkpt>
      <trkpt lat="45.37711" lon="6.17214">
        <ele>1691</ele>
        <time>2024-06-06T05:09:47+00:00</time>
      </trkpt>
      <trkpt lat="45.37708" lon="6.17212">
        <ele>1690</ele>
        <time>2024-06-06T05:09:50+00:00</time>
      </trkpt>
      <trkpt lat="45.37705" lon="6.17212">
        <ele>1690</ele>
        <time>2024-06-06T05:09:53+00:00</time>
      </trkpt>
      <trkpt lat="45.37702" lon="6.17218">
        <ele>1690</ele>
        <time>2024-06-06T05:09:56+00:00</time>
      </trkpt>
      <trkpt lat="45.37698" lon="6.17223">
        <ele>1687</ele>
        <time>2024-06-06T05:09:59+00:00</time>
      </trkpt>
      <trkpt lat="45.37695" lon="6.1723">
        <ele>1687</ele>
        <time>2024-06-06T05:10:02+00:00</time>
      </trkpt>
      <trkpt lat="45.37689" lon="6.17231">
        <ele>1685</ele>
        <time>2024-06-06T05:10:05+00:00</time>
      </trkpt>
      <trkpt lat="45.37683" lon="6.17236">
        <ele>1685</ele>
        <time>2024-06-06T05:10:08+00:00</time>
      </trkpt>
      <trkpt lat="45.3768" lon="6.17245">
        <ele>1683</ele>
        <time>2024-06-06T05:10:11+00:00</time>
      </trkpt>
      <trkpt lat="45.37678" lon="6.17252">
        <ele>1684</ele>
        <time>2024-06-06T05:10:14+00:00</time>
      </trkpt>
      <trkpt lat="45.37677" lon="6.17272">
        <ele>1680</ele>
        <time>2024-06-06T05:10:17+00:00</time>
      </trkpt>
      <trkpt lat="45.37669" lon="6.17292">
        <ele>1679</ele>
        <time>2024-06-06T05:10:20+00:00</time>
      </trkpt>
      <trkpt lat="45.37663" lon="6.17321">
        <ele>1676</ele>
        <time>2024-06-06T05:10:23+00:00</time>
      </trkpt>
      <trkpt lat="45.37674" lon="6.17358">
        <ele>1674</ele>
        <time>2024-06-06T05:10:26+00:00</time>
      </trkpt>
      <trkpt lat="45.37702" lon="6.17376">
        <ele>1666</ele>
        <time>2024-06-06T05:10:29+00:00</time>
      </trkpt>
      <trkpt lat="45.37721" lon="6.17394">
        <ele>1662</ele>
        <time>2024-06-06T05:10:32+00:00</time>
      </trkpt>
      <trkpt lat="45.37742" lon="6.1742">
        <ele>1665</ele>
        <time>2024-06-06T05:10:35+00:00</time>
      </trkpt>
      <trkpt lat="45.37768" lon="6.1745">
        <ele>1666</ele>
        <time>2024-06-06T05:10:38+00:00</time>
      </trkpt>
      <trkpt lat="45.3778" lon="6.17473">
        <ele>1668</ele>
        <time>2024-06-06T05:10:41+00:00</time>
      </trkpt>
      <trkpt lat="45.37788" lon="6.17488">
        <ele>1672</ele>
        <time>2024-06-06T05:10:44+00:00</time>
      </trkpt>
      <trkpt lat="45.37797" lon="6.17505">
        <ele>1668</ele>
        <time>2024-06-06T05:10:47+00:00</time>
      </trkpt>
      <trkpt lat="45.37792" lon="6.17515">
        <ele>1670</ele>
        <time>2024-06-06T05:10:50+00:00</time>
      </trkpt>
      <trkpt lat="45.37774" lon="6.17523">
        <ele>1668</ele>
        <time>2024-06-06T05:10:53+00:00</time>
      </trkpt>
      <trkpt lat="45.37771" lon="6.17534">
        <ele>1668</ele>
        <time>2024-06-06T05:10:56+00:00</time>
      </trkpt>
      <trkpt lat="45.37776" lon="6.17546">
        <ele>1669</ele>
        <time>2024-06-06T05:10:59+00:00</time>
      </trkpt>
      <trkpt lat="45.37782" lon="6.17556">
        <ele>1668</ele>
        <time>2024-06-06T05:11:02+00:00</time>
      </trkpt>
      <trkpt lat="45.37782" lon="6.17577">
        <ele>1674</ele>
        <time>2024-06-06T05:11:05+00:00</time>
      </trkpt>
      <trkpt lat="45.37785" lon="6.17596">
        <ele>1678</ele>
        <time>2024-06-06T05:11:08+00:00</time>
      </trkpt>
      <trkpt lat="45.37782" lon="6.17624">
        <ele>1678</ele>
        <time>2024-06-06T05:11:11+00:00</time>
      </trkpt>
      <trkpt lat="45.37784" lon="6.17655">
        <ele>1678</ele>
        <time>2024-06-06T05:11:14+00:00</time>
      </trkpt>
      <trkpt lat="45.37787" lon="6.17685">
        <ele>1673</ele>
        <time>2024-06-06T05:11:17+00:00</time>
      </trkpt>
      <trkpt lat="45.37781" lon="6.17705">
        <ele>1668</ele>
        <time>2024-06-06T05:11:20+00:00</time>
      </trkpt>
      <trkpt lat="45.37784" lon="6.17717">
        <ele>1665</ele>
        <time>2024-06-06T05:11:23+00:00</time>
      </trkpt>
      <trkpt lat="45.37794" lon="6.17719">
        <ele>1663</ele>
        <time>2024-06-06T05:11:26+00:00</time>
      </trkpt>
      <trkpt lat="45.37799" lon="6.17723">
        <ele>1660</ele>
        <time>2024-06-06T05:11:29+00:00</time>
      </trkpt>
      <trkpt lat="45.378" lon="6.17744">
        <ele>1655</ele>
        <time>2024-06-06T05:11:32+00:00</time>
      </trkpt>
      <trkpt lat="45.37802" lon="6.17759">
        <ele>1653</ele>
        <time>2024-06-06T05:11:35+00:00</time>
      </trkpt>
      <trkpt lat="45.37806" lon="6.17786">
        <ele>1653</ele>
        <time>2024-06-06T05:11:38+00:00</time>
      </trkpt>
      <trkpt lat="45.37807" lon="6.17802">
        <ele>1651</ele>
        <time>2024-06-06T05:11:41+00:00</time>
      </trkpt>
      <trkpt lat="45.37809" lon="6.17815">
        <ele>1652</ele>
        <time>2024-06-06T05:11:44+00:00</time>
      </trkpt>
      <trkpt lat="45.37812" lon="6.17822">
        <ele>1646</ele>
        <time>2024-06-06T05:11:47+00:00</time>
      </trkpt>
      <trkpt lat="45.37812" lon="6.17836">
        <ele>1643</ele>
        <time>2024-06-06T05:11:50+00:00</time>
      </trkpt>
      <trkpt lat="45.37825" lon="6.17839">
        <ele>1639</ele>
        <time>2024-06-06T05:11:53+00:00</time>
      </trkpt>
      <trkpt lat="45.3783" lon="6.1785">
        <ele>1632</ele>
        <time>2024-06-06T05:11:56+00:00</time>
      </trkpt>
      <trkpt lat="45.37829" lon="6.17864">
        <ele>1630</ele>
        <time>2024-06-06T05:11:59+00:00</time>
      </trkpt>
      <trkpt lat="45.37829" lon="6.17869">
        <ele>1630</ele>
        <time>2024-06-06T05:12:02+00:00</time>
      </trkpt>
      <trkpt lat="45.37825" lon="6.1788">
        <ele>1621</ele>
        <time>2024-06-06T05:12:05+00:00</time>
      </trkpt>
      <trkpt lat="45.37815" lon="6.17877">
        <ele>1623</ele>
        <time>2024-06-06T05:12:08+00:00</time>
      </trkpt>
      <trkpt lat="45.37805" lon="6.17888">
        <ele>1620</ele>
        <time>2024-06-06T05:12:11+00:00</time>
      </trkpt>
      <trkpt lat="45.37799" lon="6.17905">
        <ele>1611</ele>
        <time>2024-06-06T05:12:14+00:00</time>
      </trkpt>
      <trkpt lat="45.37791" lon="6.17915">
        <ele>1607</ele>
        <time>2024-06-06T05:12:17+00:00</time>
      </trkpt>
      <trkpt lat="45.37799" lon="6.17927">
        <ele>1604</ele>
        <time>2024-06-06T05:12:20+00:00</time>
      </trkpt>
      <trkpt lat="45.37796" lon="6.17938">
        <ele>1597</ele>
        <time>2024-06-06T05:12:23+00:00</time>
      </trkpt>
      <trkpt lat="45.37797" lon="6.17949">
        <ele>1593</ele>
        <time>2024-06-06T05:12:26+00:00</time>
      </trkpt>
      <trkpt lat="45.37794" lon="6.17962">
        <ele>1583</ele>
        <time>2024-06-06T05:12:29+00:00</time>
      </trkpt>
      <trkpt lat="45.37792" lon="6.17966">
        <ele>1583</ele>
        <time>2024-06-06T05:12:32+00:00</time>
      </trkpt>
      <trkpt lat="45.37786" lon="6.17968">
        <ele>1582</ele>
        <time>2024-06-06T05:12:35+00:00</time>
      </trkpt>
      <trkpt lat="45.37781" lon="6.1797">
        <ele>1582</ele>
        <time>2024-06-06T05:12:38+00:00</time>
      </trkpt>
      <trkpt lat="45.37775" lon="6.17973">
        <ele>1577</ele>
        <time>2024-06-06T05:12:41+00:00</time>
      </trkpt>
      <trkpt lat="45.37779" lon="6.17985">
        <ele>1573</ele>
        <time>2024-06-06T05:12:44+00:00</time>
      </trkpt>
      <trkpt lat="45.37774" lon="6.17992">
        <ele>1567</ele>
        <time>2024-06-06T05:12:47+00:00</time>
      </trkpt>
      <trkpt lat="45.37774" lon="6.18002">
        <ele>1564</ele>
        <time>2024-06-06T05:12:50+00:00</time>
      </trkpt>
      <trkpt lat="45.37767" lon="6.18007">
        <ele>1564</ele>
        <time>2024-06-06T05:12:53+00:00</time>
      </trkpt>
      <trkpt lat="45.37761" lon="6.18007">
        <ele>1564</ele>
        <time>2024-06-06T05:12:56+00:00</time>
      </trkpt>
      <trkpt lat="45.37759" lon="6.18013">
        <ele>1562</ele>
        <time>2024-06-06T05:12:59+00:00</time>
      </trkpt>
      <trkpt lat="45.3776" lon="6.18021">
        <ele>1558</ele>
        <time>2024-06-06T05:13:02+00:00</time>
      </trkpt>
      <trkpt lat="45.37757" lon="6.18028">
        <ele>1560</ele>
        <time>2024-06-06T05:13:05+00:00</time>
      </trkpt>
      <trkpt lat="45.37761" lon="6.1804">
        <ele>1556</ele>
        <time>2024-06-06T05:13:08+00:00</time>
      </trkpt>
      <trkpt lat="45.37762" lon="6.18052">
        <ele>1551</ele>
        <time>2024-06-06T05:13:11+00:00</time>
      </trkpt>
      <trkpt lat="45.37752" lon="6.1806">
        <ele>1552</ele>
        <time>2024-06-06T05:13:14+00:00</time>
      </trkpt>
      <trkpt lat="45.37746" lon="6.18064">
        <ele>1548</ele>
        <time>2024-06-06T05:13:17+00:00</time>
      </trkpt>
      <trkpt lat="45.37739" lon="6.18068">
        <ele>1551</ele>
        <time>2024-06-06T05:13:20+00:00</time>
      </trkpt>
      <trkpt lat="45.37728" lon="6.18079">
        <ele>1548</ele>
        <time>2024-06-06T05:13:23+00:00</time>
      </trkpt>
      <trkpt lat="45.37723" lon="6.18085">
        <ele>1542</ele>
        <time>2024-06-06T05:13:26+00:00</time>
      </trkpt>
      <trkpt lat="45.37717" lon="6.18096">
        <ele>1542</ele>
        <time>2024-06-06T05:13:29+00:00</time>
      </trkpt>
      <trkpt lat="45.37716" lon="6.18105">
        <ele>1540</ele>
        <time>2024-06-06T05:13:32+00:00</time>
      </trkpt>
      <trkpt lat="45.37713" lon="6.18112">
        <ele>1535</ele>
        <time>2024-06-06T05:13:35+00:00</time>
      </trkpt>
      <trkpt lat="45.37709" lon="6.18116">
        <ele>1535</ele>
        <time>2024-06-06T05:13:38+00:00</time>
      </trkpt>
      <trkpt lat="45.37703" lon="6.18126">
        <ele>1531</ele>
        <time>2024-06-06T05:13:41+00:00</time>
      </trkpt>
      <trkpt lat="45.37703" lon="6.18137">
        <ele>1533</ele>
        <time>2024-06-06T05:13:44+00:00</time>
      </trkpt>
      <trkpt lat="45.37702" lon="6.18147">
        <ele>1532</ele>
        <time>2024-06-06T05:13:47+00:00</time>
      </trkpt>
      <trkpt lat="45.37701" lon="6.18153">
        <ele>1531</ele>
        <time>2024-06-06T05:13:50+00:00</time>
      </trkpt>
      <trkpt lat="45.37698" lon="6.18166">
        <ele>1532</ele>
        <time>2024-06-06T05:13:53+00:00</time>
      </trkpt>
      <trkpt lat="45.37698" lon="6.18178">
        <ele>1529</ele>
        <time>2024-06-06T05:13:56+00:00</time>
      </trkpt>
      <trkpt lat="45.37699" lon="6.18186">
        <ele>1530</ele>
        <time>2024-06-06T05:13:59+00:00</time>
      </trkpt>
      <trkpt lat="45.37699" lon="6.18197">
        <ele>1529</ele>
        <time>2024-06-06T05:14:02+00:00</time>
      </trkpt>
      <trkpt lat="45.37699" lon="6.18205">
        <ele>1526</ele>
        <time>2024-06-06T05:14:05+00:00</time>
      </trkpt>
      <trkpt lat="45.37699" lon="6.18213">
        <ele>1525</ele>
        <time>2024-06-06T05:14:08+00:00</time>
      </trkpt>
      <trkpt lat="45.37698" lon="6.1823">
        <ele>1524</ele>
        <time>2024-06-06T05:14:11+00:00</time>
      </trkpt>
      <trkpt lat="45.37699" lon="6.18244">
        <ele>1523</ele>
        <time>2024-06-06T05:14:14+00:00</time>
      </trkpt>
      <trkpt lat="45.37699" lon="6.18261">
        <ele>1521</ele>
        <time>2024-06-06T05:14:17+00:00</time>
      </trkpt>
      <trkpt lat="45.37698" lon="6.18272">
        <ele>1520</ele>
        <time>2024-06-06T05:14:20+00:00</time>
      </trkpt>
      <trkpt lat="45.37696" lon="6.18279">
        <ele>1520</ele>
        <time>2024-06-06T05:14:23+00:00</time>
      </trkpt>
      <trkpt lat="45.37692" lon="6.18286">
        <ele>1517</ele>
        <time>2024-06-06T05:14:26+00:00</time>
      </trkpt>
      <trkpt lat="45.37684" lon="6.18292">
        <ele>1513</ele>
        <time>2024-06-06T05:14:29+00:00</time>
      </trkpt>
      <trkpt lat="45.37679" lon="6.18299">
        <ele>1517</ele>
        <time>2024-06-06T05:14:32+00:00</time>
      </trkpt>
      <trkpt lat="45.37677" lon="6.18304">
        <ele>1514</ele>
        <time>2024-06-06T05:14:35+00:00</time>
      </trkpt>
      <trkpt lat="45.37677" lon="6.18308">
        <ele>1514</ele>
        <time>2024-06-06T05:14:38+00:00</time>
      </trkpt>
      <trkpt lat="45.3768" lon="6.18312">
        <ele>1510</ele>
        <time>2024-06-06T05:14:41+00:00</time>
      </trkpt>
      <trkpt lat="45.37684" lon="6.18314">
        <ele>1507</ele>
        <time>2024-06-06T05:14:44+00:00</time>
      </trkpt>
      <trkpt lat="45.3769" lon="6.18312">
        <ele>1505</ele>
        <time>2024-06-06T05:14:47+00:00</time>
      </trkpt>
      <trkpt lat="45.37687" lon="6.18333">
        <ele>1503</ele>
        <time>2024-06-06T05:14:50+00:00</time>
      </trkpt>
      <trkpt lat="45.37704" lon="6.18337">
        <ele>1498</ele>
        <time>2024-06-06T05:14:53+00:00</time>
      </trkpt>
      <trkpt lat="45.37715" lon="6.18353">
        <ele>1489</ele>
        <time>2024-06-06T05:14:56+00:00</time>
      </trkpt>
      <trkpt lat="45.37718" lon="6.18379">
        <ele>1484</ele>
        <time>2024-06-06T05:14:59+00:00</time>
      </trkpt>
      <trkpt lat="45.37714" lon="6.18408">
        <ele>1481</ele>
        <time>2024-06-06T05:15:02+00:00</time>
      </trkpt>
      <trkpt lat="45.37716" lon="6.18436">
        <ele>1479</ele>
        <time>2024-06-06T05:15:05+00:00</time>
      </trkpt>
      <trkpt lat="45.37731" lon="6.18437">
        <ele>1472</ele>
        <time>2024-06-06T05:15:08+00:00</time>
      </trkpt>
      <trkpt lat="45.37741" lon="6.1845">
        <ele>1466</ele>
        <time>2024-06-06T05:15:11+00:00</time>
      </trkpt>
      <trkpt lat="45.37757" lon="6.18431">
        <ele>1462</ele>
        <time>2024-06-06T05:15:14+00:00</time>
      </trkpt>
      <trkpt lat="45.37772" lon="6.18423">
        <ele>1455</ele>
        <time>2024-06-06T05:15:17+00:00</time>
      </trkpt>
      <trkpt lat="45.37791" lon="6.18431">
        <ele>1449</ele>
        <time>2024-06-06T05:15:20+00:00</time>
      </trkpt>
      <trkpt lat="45.37809" lon="6.18443">
        <ele>1445</ele>
        <time>2024-06-06T05:15:23+00:00</time>
      </trkpt>
      <trkpt lat="45.37837" lon="6.18441">
        <ele>1440</ele>
        <time>2024-06-06T05:15:26+00:00</time>
      </trkpt>
      <trkpt lat="45.37852" lon="6.18444">
        <ele>1435</ele>
        <time>2024-06-06T05:15:29+00:00</time>
      </trkpt>
      <trkpt lat="45.37868" lon="6.1843">
        <ele>1430</ele>
        <time>2024-06-06T05:15:32+00:00</time>
      </trkpt>
      <trkpt lat="45.37873" lon="6.18431">
        <ele>1430</ele>
        <time>2024-06-06T05:15:35+00:00</time>
      </trkpt>
      <trkpt lat="45.37887" lon="6.18431">
        <ele>1428</ele>
        <time>2024-06-06T05:15:38+00:00</time>
      </trkpt>
      <trkpt lat="45.3789" lon="6.18441">
        <ele>1425</ele>
        <time>2024-06-06T05:15:41+00:00</time>
      </trkpt>
      <trkpt lat="45.37893" lon="6.18451">
        <ele>1424</ele>
        <time>2024-06-06T05:15:44+00:00</time>
      </trkpt>
      <trkpt lat="45.37892" lon="6.18471">
        <ele>1424</ele>
        <time>2024-06-06T05:15:47+00:00</time>
      </trkpt>
      <trkpt lat="45.37894" lon="6.18471">
        <ele>1424</ele>
        <time>2024-06-06T05:15:50+00:00</time>
      </trkpt>
      <trkpt lat="45.37902" lon="6.18472">
        <ele>1422</ele>
        <time>2024-06-06T05:15:53+00:00</time>
      </trkpt>
      <trkpt lat="45.37911" lon="6.18467">
        <ele>1420</ele>
        <time>2024-06-06T05:15:56+00:00</time>
      </trkpt>
      <trkpt lat="45.37917" lon="6.18481">
        <ele>1418</ele>
        <time>2024-06-06T05:15:59+00:00</time>
      </trkpt>
      <trkpt lat="45.3792" lon="6.18482">
        <ele>1418</ele>
        <time>2024-06-06T05:16:02+00:00</time>
      </trkpt>
      <trkpt lat="45.37928" lon="6.18491">
        <ele>1420</ele>
        <time>2024-06-06T05:16:05+00:00</time>
      </trkpt>
      <trkpt lat="45.37928" lon="6.18492">
        <ele>1419</ele>
        <time>2024-06-06T05:16:08+00:00</time>
      </trkpt>
      <trkpt lat="45.37931" lon="6.18495">
        <ele>1418</ele>
        <time>2024-06-06T05:16:11+00:00</time>
      </trkpt>
      <trkpt lat="45.37931" lon="6.18498">
        <ele>1418</ele>
        <time>2024-06-06T05:16:14+00:00</time>
      </trkpt>
      <trkpt lat="45.37928" lon="6.185">
        <ele>1420</ele>
        <time>2024-06-06T05:16:17+00:00</time>
      </trkpt>
      <trkpt lat="45.37928" lon="6.18501">
        <ele>1420</ele>
        <time>2024-06-06T05:16:20+00:00</time>
      </trkpt>
      <trkpt lat="45.37929" lon="6.18502">
        <ele>1420</ele>
        <time>2024-06-06T05:16:23+00:00</time>
      </trkpt>
      <trkpt lat="45.37933" lon="6.18499">
        <ele>1418</ele>
        <time>2024-06-06T05:16:26+00:00</time>
      </trkpt>
      <trkpt lat="45.37934" lon="6.185">
        <ele>1418</ele>
        <time>2024-06-06T05:16:29+00:00</time>
      </trkpt>
      <trkpt lat="45.37934" lon="6.18503">
        <ele>1421</ele>
        <time>2024-06-06T05:16:32+00:00</time>
      </trkpt>
      <trkpt lat="45.37932" lon="6.18509">
        <ele>1421</ele>
        <time>2024-06-06T05:16:35+00:00</time>
      </trkpt>
      <trkpt lat="45.37932" lon="6.1851">
        <ele>1421</ele>
        <time>2024-06-06T05:16:38+00:00</time>
      </trkpt>
      <trkpt lat="45.3794" lon="6.1851">
        <ele>1426</ele>
        <time>2024-06-06T05:16:41+00:00</time>
      </trkpt>
      <trkpt lat="45.37943" lon="6.18511">
        <ele>1427</ele>
        <time>2024-06-06T05:16:44+00:00</time>
      </trkpt>
      <trkpt lat="45.37951" lon="6.18524">
        <ele>1428</ele>
        <time>2024-06-06T05:16:47+00:00</time>
      </trkpt>
      <trkpt lat="45.37959" lon="6.18525">
        <ele>1428</ele>
        <time>2024-06-06T05:16:50+00:00</time>
      </trkpt>
      <trkpt lat="45.37962" lon="6.18526">
        <ele>1429</ele>
        <time>2024-06-06T05:16:53+00:00</time>
      </trkpt>
      <trkpt lat="45.37961" lon="6.18536">
        <ele>1430</ele>
        <time>2024-06-06T05:16:56+00:00</time>
      </trkpt>
      <trkpt lat="45.3796" lon="6.18541">
        <ele>1434</ele>
        <time>2024-06-06T05:16:59+00:00</time>
      </trkpt>
      <trkpt lat="45.37957" lon="6.18547">
        <ele>1434</ele>
        <time>2024-06-06T05:17:02+00:00</time>
      </trkpt>
      <trkpt lat="45.37955" lon="6.1855">
        <ele>1434</ele>
        <time>2024-06-06T05:17:05+00:00</time>
      </trkpt>
      <trkpt lat="45.37953" lon="6.18552">
        <ele>1437</ele>
        <time>2024-06-06T05:17:08+00:00</time>
      </trkpt>
      <trkpt lat="45.3795" lon="6.18554">
        <ele>1437</ele>
        <time>2024-06-06T05:17:11+00:00</time>
      </trkpt>
      <trkpt lat="45.37947" lon="6.18556">
        <ele>1437</ele>
        <time>2024-06-06T05:17:14+00:00</time>
      </trkpt>
      <trkpt lat="45.37944" lon="6.18562">
        <ele>1440</ele>
        <time>2024-06-06T05:17:17+00:00</time>
      </trkpt>
      <trkpt lat="45.3794" lon="6.18566">
        <ele>1440</ele>
        <time>2024-06-06T05:17:20+00:00</time>
      </trkpt>
      <trkpt lat="45.37935" lon="6.18567">
        <ele>1441</ele>
        <time>2024-06-06T05:17:23+00:00</time>
      </trkpt>
      <trkpt lat="45.37931" lon="6.18569">
        <ele>1441</ele>
        <time>2024-06-06T05:17:26+00:00</time>
      </trkpt>
      <trkpt lat="45.37926" lon="6.18569">
        <ele>1440</ele>
        <time>2024-06-06T05:17:29+00:00</time>
      </trkpt>
      <trkpt lat="45.37921" lon="6.1857">
        <ele>1444</ele>
        <time>2024-06-06T05:17:32+00:00</time>
      </trkpt>
      <trkpt lat="45.37916" lon="6.18572">
        <ele>1445</ele>
        <time>2024-06-06T05:17:35+00:00</time>
      </trkpt>
      <trkpt lat="45.37911" lon="6.18574">
        <ele>1445</ele>
        <time>2024-06-06T05:17:38+00:00</time>
      </trkpt>
      <trkpt lat="45.37905" lon="6.18577">
        <ele>1446</ele>
        <time>2024-06-06T05:17:41+00:00</time>
      </trkpt>
      <trkpt lat="45.37901" lon="6.1858">
        <ele>1448</ele>
        <time>2024-06-06T05:17:44+00:00</time>
      </trkpt>
      <trkpt lat="45.37896" lon="6.18584">
        <ele>1449</ele>
        <time>2024-06-06T05:17:47+00:00</time>
      </trkpt>
      <trkpt lat="45.37892" lon="6.18586">
        <ele>1449</ele>
        <time>2024-06-06T05:17:50+00:00</time>
      </trkpt>
      <trkpt lat="45.37888" lon="6.18587">
        <ele>1451</ele>
        <time>2024-06-06T05:17:53+00:00</time>
      </trkpt>
      <trkpt lat="45.37884" lon="6.18587">
        <ele>1451</ele>
        <time>2024-06-06T05:17:56+00:00</time>
      </trkpt>
      <trkpt lat="45.37879" lon="6.18587">
        <ele>1452</ele>
        <time>2024-06-06T05:17:59+00:00</time>
      </trkpt>
      <trkpt lat="45.37874" lon="6.18589">
        <ele>1452</ele>
        <time>2024-06-06T05:18:02+00:00</time>
      </trkpt>
      <trkpt lat="45.37871" lon="6.18593">
        <ele>1454</ele>
        <time>2024-06-06T05:18:05+00:00</time>
      </trkpt>
      <trkpt lat="45.37867" lon="6.18595">
        <ele>1455</ele>
        <time>2024-06-06T05:18:08+00:00</time>
      </trkpt>
      <trkpt lat="45.37864" lon="6.18599">
        <ele>1455</ele>
        <time>2024-06-06T05:18:11+00:00</time>
      </trkpt>
      <trkpt lat="45.37862" lon="6.18603">
        <ele>1458</ele>
        <time>2024-06-06T05:18:14+00:00</time>
      </trkpt>
      <trkpt lat="45.37861" lon="6.18608">
        <ele>1458</ele>
        <time>2024-06-06T05:18:17+00:00</time>
      </trkpt>
      <trkpt lat="45.37861" lon="6.18614">
        <ele>1460</ele>
        <time>2024-06-06T05:18:20+00:00</time>
      </trkpt>
      <trkpt lat="45.37858" lon="6.18622">
        <ele>1463</ele>
        <time>2024-06-06T05:18:23+00:00</time>
      </trkpt>
      <trkpt lat="45.37855" lon="6.18629">
        <ele>1463</ele>
        <time>2024-06-06T05:18:26+00:00</time>
      </trkpt>
      <trkpt lat="45.37851" lon="6.18635">
        <ele>1467</ele>
        <time>2024-06-06T05:18:29+00:00</time>
      </trkpt>
      <trkpt lat="45.37849" lon="6.1864">
        <ele>1469</ele>
        <time>2024-06-06T05:18:32+00:00</time>
      </trkpt>
      <trkpt lat="45.37845" lon="6.18645">
        <ele>1469</ele>
        <time>2024-06-06T05:18:35+00:00</time>
      </trkpt>
      <trkpt lat="45.37841" lon="6.18648">
        <ele>1469</ele>
        <time>2024-06-06T05:18:38+00:00</time>
      </trkpt>
      <trkpt lat="45.37836" lon="6.18649">
        <ele>1470</ele>
        <time>2024-06-06T05:18:41+00:00</time>
      </trkpt>
      <trkpt lat="45.37832" lon="6.18652">
        <ele>1472</ele>
        <time>2024-06-06T05:18:44+00:00</time>
      </trkpt>
      <trkpt lat="45.37828" lon="6.18655">
        <ele>1473</ele>
        <time>2024-06-06T05:18:47+00:00</time>
      </trkpt>
      <trkpt lat="45.37825" lon="6.18659">
        <ele>1473</ele>
        <time>2024-06-06T05:18:50+00:00</time>
      </trkpt>
      <trkpt lat="45.37823" lon="6.18661">
        <ele>1476</ele>
        <time>2024-06-06T05:18:53+00:00</time>
      </trkpt>
      <trkpt lat="45.37819" lon="6.18663">
        <ele>1477</ele>
        <time>2024-06-06T05:18:56+00:00</time>
      </trkpt>
      <trkpt lat="45.37816" lon="6.18666">
        <ele>1477</ele>
        <time>2024-06-06T05:18:59+00:00</time>
      </trkpt>
      <trkpt lat="45.37813" lon="6.18671">
        <ele>1479</ele>
        <time>2024-06-06T05:19:02+00:00</time>
      </trkpt>
      <trkpt lat="45.37812" lon="6.18677">
        <ele>1479</ele>
        <time>2024-06-06T05:19:05+00:00</time>
      </trkpt>
      <trkpt lat="45.3781" lon="6.18681">
        <ele>1482</ele>
        <time>2024-06-06T05:19:08+00:00</time>
      </trkpt>
      <trkpt lat="45.37808" lon="6.18688">
        <ele>1482</ele>
        <time>2024-06-06T05:19:11+00:00</time>
      </trkpt>
      <trkpt lat="45.37806" lon="6.18694">
        <ele>1485</ele>
        <time>2024-06-06T05:19:14+00:00</time>
      </trkpt>
      <trkpt lat="45.37804" lon="6.18699">
        <ele>1485</ele>
        <time>2024-06-06T05:19:17+00:00</time>
      </trkpt>
      <trkpt lat="45.37803" lon="6.18704">
        <ele>1487</ele>
        <time>2024-06-06T05:19:20+00:00</time>
      </trkpt>
      <trkpt lat="45.37804" lon="6.18711">
        <ele>1489</ele>
        <time>2024-06-06T05:19:23+00:00</time>
      </trkpt>
      <trkpt lat="45.37804" lon="6.18717">
        <ele>1489</ele>
        <time>2024-06-06T05:19:26+00:00</time>
      </trkpt>
      <trkpt lat="45.37801" lon="6.18724">
        <ele>1493</ele>
        <time>2024-06-06T05:19:29+00:00</time>
      </trkpt>
      <trkpt lat="45.37798" lon="6.18731">
        <ele>1495</ele>
        <time>2024-06-06T05:19:32+00:00</time>
      </trkpt>
      <trkpt lat="45.37794" lon="6.18736">
        <ele>1495</ele>
        <time>2024-06-06T05:19:35+00:00</time>
      </trkpt>
      <trkpt lat="45.3779" lon="6.18738">
        <ele>1495</ele>
        <time>2024-06-06T05:19:38+00:00</time>
      </trkpt>
      <trkpt lat="45.37786" lon="6.18739">
        <ele>1496</ele>
        <time>2024-06-06T05:19:41+00:00</time>
      </trkpt>
      <trkpt lat="45.37782" lon="6.18743">
        <ele>1499</ele>
        <time>2024-06-06T05:19:44+00:00</time>
      </trkpt>
      <trkpt lat="45.37781" lon="6.18747">
        <ele>1499</ele>
        <time>2024-06-06T05:19:47+00:00</time>
      </trkpt>
      <trkpt lat="45.37781" lon="6.18752">
        <ele>1502</ele>
        <time>2024-06-06T05:19:50+00:00</time>
      </trkpt>
      <trkpt lat="45.37782" lon="6.18758">
        <ele>1502</ele>
        <time>2024-06-06T05:19:53+00:00</time>
      </trkpt>
      <trkpt lat="45.37779" lon="6.18762">
        <ele>1505</ele>
        <time>2024-06-06T05:19:56+00:00</time>
      </trkpt>
      <trkpt lat="45.37776" lon="6.18764">
        <ele>1505</ele>
        <time>2024-06-06T05:19:59+00:00</time>
      </trkpt>
      <trkpt lat="45.37773" lon="6.18768">
        <ele>1505</ele>
        <time>2024-06-06T05:20:02+00:00</time>
      </trkpt>
      <trkpt lat="45.37771" lon="6.18772">
        <ele>1507</ele>
        <time>2024-06-06T05:20:05+00:00</time>
      </trkpt>
      <trkpt lat="45.37767" lon="6.18773">
        <ele>1508</ele>
        <time>2024-06-06T05:20:08+00:00</time>
      </trkpt>
      <trkpt lat="45.37765" lon="6.18776">
        <ele>1508</ele>
        <time>2024-06-06T05:20:11+00:00</time>
      </trkpt>
      <trkpt lat="45.37763" lon="6.1878">
        <ele>1508</ele>
        <time>2024-06-06T05:20:14+00:00</time>
      </trkpt>
      <trkpt lat="45.37758" lon="6.18783">
        <ele>1511</ele>
        <time>2024-06-06T05:20:17+00:00</time>
      </trkpt>
      <trkpt lat="45.37754" lon="6.18786">
        <ele>1511</ele>
        <time>2024-06-06T05:20:20+00:00</time>
      </trkpt>
      <trkpt lat="45.37749" lon="6.18789">
        <ele>1511</ele>
        <time>2024-06-06T05:20:23+00:00</time>
      </trkpt>
      <trkpt lat="45.37744" lon="6.18794">
        <ele>1513</ele>
        <time>2024-06-06T05:20:26+00:00</time>
      </trkpt>
      <trkpt lat="45.3774" lon="6.18798">
        <ele>1513</ele>
        <time>2024-06-06T05:20:29+00:00</time>
      </trkpt>
      <trkpt lat="45.37737" lon="6.18804">
        <ele>1515</ele>
        <time>2024-06-06T05:20:32+00:00</time>
      </trkpt>
      <trkpt lat="45.37734" lon="6.18808">
        <ele>1515</ele>
        <time>2024-06-06T05:20:35+00:00</time>
      </trkpt>
      <trkpt lat="45.37731" lon="6.18814">
        <ele>1519</ele>
        <time>2024-06-06T05:20:38+00:00</time>
      </trkpt>
      <trkpt lat="45.37728" lon="6.1882">
        <ele>1522</ele>
        <time>2024-06-06T05:20:41+00:00</time>
      </trkpt>
      <trkpt lat="45.37725" lon="6.18824">
        <ele>1522</ele>
        <time>2024-06-06T05:20:44+00:00</time>
      </trkpt>
      <trkpt lat="45.3772" lon="6.18825">
        <ele>1522</ele>
        <time>2024-06-06T05:20:47+00:00</time>
      </trkpt>
      <trkpt lat="45.37718" lon="6.18825">
        <ele>1525</ele>
        <time>2024-06-06T05:20:50+00:00</time>
      </trkpt>
      <trkpt lat="45.37714" lon="6.18824">
        <ele>1525</ele>
        <time>2024-06-06T05:20:53+00:00</time>
      </trkpt>
      <trkpt lat="45.3771" lon="6.18824">
        <ele>1525</ele>
        <time>2024-06-06T05:20:56+00:00</time>
      </trkpt>
      <trkpt lat="45.37706" lon="6.18825">
        <ele>1528</ele>
        <time>2024-06-06T05:20:59+00:00</time>
      </trkpt>
      <trkpt lat="45.37701" lon="6.18829">
        <ele>1528</ele>
        <time>2024-06-06T05:21:02+00:00</time>
      </trkpt>
      <trkpt lat="45.37698" lon="6.18833">
        <ele>1532</ele>
        <time>2024-06-06T05:21:05+00:00</time>
      </trkpt>
      <trkpt lat="45.37695" lon="6.18837">
        <ele>1532</ele>
        <time>2024-06-06T05:21:08+00:00</time>
      </trkpt>
      <trkpt lat="45.37695" lon="6.18842">
        <ele>1535</ele>
        <time>2024-06-06T05:21:11+00:00</time>
      </trkpt>
      <trkpt lat="45.37694" lon="6.18847">
        <ele>1535</ele>
        <time>2024-06-06T05:21:14+00:00</time>
      </trkpt>
      <trkpt lat="45.37692" lon="6.1885">
        <ele>1535</ele>
        <time>2024-06-06T05:21:17+00:00</time>
      </trkpt>
      <trkpt lat="45.37688" lon="6.18852">
        <ele>1539</ele>
        <time>2024-06-06T05:21:20+00:00</time>
      </trkpt>
      <trkpt lat="45.37686" lon="6.18854">
        <ele>1539</ele>
        <time>2024-06-06T05:21:23+00:00</time>
      </trkpt>
      <trkpt lat="45.37685" lon="6.18858">
        <ele>1539</ele>
        <time>2024-06-06T05:21:26+00:00</time>
      </trkpt>
      <trkpt lat="45.37683" lon="6.18865">
        <ele>1541</ele>
        <time>2024-06-06T05:21:29+00:00</time>
      </trkpt>
      <trkpt lat="45.37682" lon="6.18871">
        <ele>1544</ele>
        <time>2024-06-06T05:21:32+00:00</time>
      </trkpt>
      <trkpt lat="45.37681" lon="6.18877">
        <ele>1544</ele>
        <time>2024-06-06T05:21:35+00:00</time>
      </trkpt>
      <trkpt lat="45.37679" lon="6.18885">
        <ele>1549</ele>
        <time>2024-06-06T05:21:38+00:00</time>
      </trkpt>
      <trkpt lat="45.37676" lon="6.18891">
        <ele>1550</ele>
        <time>2024-06-06T05:21:41+00:00</time>
      </trkpt>
      <trkpt lat="45.37675" lon="6.18898">
        <ele>1550</ele>
        <time>2024-06-06T05:21:44+00:00</time>
      </trkpt>
      <trkpt lat="45.37673" lon="6.18902">
        <ele>1551</ele>
        <time>2024-06-06T05:21:47+00:00</time>
      </trkpt>
      <trkpt lat="45.3767" lon="6.18902">
        <ele>1554</ele>
        <time>2024-06-06T05:21:50+00:00</time>
      </trkpt>
      <trkpt lat="45.37666" lon="6.189">
        <ele>1554</ele>
        <time>2024-06-06T05:21:53+00:00</time>
      </trkpt>
      <trkpt lat="45.37661" lon="6.189">
        <ele>1554</ele>
        <time>2024-06-06T05:21:56+00:00</time>
      </trkpt>
      <trkpt lat="45.37658" lon="6.18902">
        <ele>1558</ele>
        <time>2024-06-06T05:21:59+00:00</time>
      </trkpt>
      <trkpt lat="45.37654" lon="6.18905">
        <ele>1558</ele>
        <time>2024-06-06T05:22:02+00:00</time>
      </trkpt>
      <trkpt lat="45.3765" lon="6.18908">
        <ele>1558</ele>
        <time>2024-06-06T05:22:05+00:00</time>
      </trkpt>
      <trkpt lat="45.37647" lon="6.1891">
        <ele>1562</ele>
        <time>2024-06-06T05:22:08+00:00</time>
      </trkpt>
      <trkpt lat="45.37643" lon="6.1891">
        <ele>1562</ele>
        <time>2024-06-06T05:22:11+00:00</time>
      </trkpt>
      <trkpt lat="45.37638" lon="6.1891">
        <ele>1563</ele>
        <time>2024-06-06T05:22:14+00:00</time>
      </trkpt>
      <trkpt lat="45.37633" lon="6.1891">
        <ele>1566</ele>
        <time>2024-06-06T05:22:17+00:00</time>
      </trkpt>
      <trkpt lat="45.37629" lon="6.1891">
        <ele>1566</ele>
        <time>2024-06-06T05:22:20+00:00</time>
      </trkpt>
      <trkpt lat="45.37626" lon="6.18911">
        <ele>1568</ele>
        <time>2024-06-06T05:22:23+00:00</time>
      </trkpt>
      <trkpt lat="45.37621" lon="6.18913">
        <ele>1568</ele>
        <time>2024-06-06T05:22:26+00:00</time>
      </trkpt>
      <trkpt lat="45.37618" lon="6.18915">
        <ele>1572</ele>
        <time>2024-06-06T05:22:29+00:00</time>
      </trkpt>
      <trkpt lat="45.37616" lon="6.1892">
        <ele>1574</ele>
        <time>2024-06-06T05:22:32+00:00</time>
      </trkpt>
      <trkpt lat="45.37613" lon="6.18926">
        <ele>1574</ele>
        <time>2024-06-06T05:22:35+00:00</time>
      </trkpt>
      <trkpt lat="45.37611" lon="6.18931">
        <ele>1577</ele>
        <time>2024-06-06T05:22:38+00:00</time>
      </trkpt>
      <trkpt lat="45.37607" lon="6.18935">
        <ele>1579</ele>
        <time>2024-06-06T05:22:41+00:00</time>
      </trkpt>
      <trkpt lat="45.37603" lon="6.18938">
        <ele>1579</ele>
        <time>2024-06-06T05:22:44+00:00</time>
      </trkpt>
      <trkpt lat="45.376" lon="6.1894">
        <ele>1580</ele>
        <time>2024-06-06T05:22:47+00:00</time>
      </trkpt>
      <trkpt lat="45.37597" lon="6.18942">
        <ele>1583</ele>
        <time>2024-06-06T05:22:50+00:00</time>
      </trkpt>
      <trkpt lat="45.37594" lon="6.18945">
        <ele>1583</ele>
        <time>2024-06-06T05:22:53+00:00</time>
      </trkpt>
      <trkpt lat="45.37593" lon="6.1895">
        <ele>1586</ele>
        <time>2024-06-06T05:22:56+00:00</time>
      </trkpt>
      <trkpt lat="45.37591" lon="6.18954">
        <ele>1586</ele>
        <time>2024-06-06T05:22:59+00:00</time>
      </trkpt>
      <trkpt lat="45.3759" lon="6.18958">
        <ele>1586</ele>
        <time>2024-06-06T05:23:02+00:00</time>
      </trkpt>
      <trkpt lat="45.37589" lon="6.18963">
        <ele>1592</ele>
        <time>2024-06-06T05:23:05+00:00</time>
      </trkpt>
      <trkpt lat="45.37587" lon="6.18966">
        <ele>1592</ele>
        <time>2024-06-06T05:23:08+00:00</time>
      </trkpt>
      <trkpt lat="45.37584" lon="6.18971">
        <ele>1595</ele>
        <time>2024-06-06T05:23:11+00:00</time>
      </trkpt>
      <trkpt lat="45.37579" lon="6.18974">
        <ele>1597</ele>
        <time>2024-06-06T05:23:14+00:00</time>
      </trkpt>
      <trkpt lat="45.37575" lon="6.18974">
        <ele>1597</ele>
        <time>2024-06-06T05:23:17+00:00</time>
      </trkpt>
      <trkpt lat="45.3757" lon="6.18974">
        <ele>1597</ele>
        <time>2024-06-06T05:23:20+00:00</time>
      </trkpt>
      <trkpt lat="45.37566" lon="6.18974">
        <ele>1598</ele>
        <time>2024-06-06T05:23:23+00:00</time>
      </trkpt>
      <trkpt lat="45.37562" lon="6.18977">
        <ele>1598</ele>
        <time>2024-06-06T05:23:26+00:00</time>
      </trkpt>
      <trkpt lat="45.37557" lon="6.18976">
        <ele>1602</ele>
        <time>2024-06-06T05:23:29+00:00</time>
      </trkpt>
      <trkpt lat="45.37553" lon="6.18973">
        <ele>1602</ele>
        <time>2024-06-06T05:23:32+00:00</time>
      </trkpt>
      <trkpt lat="45.37549" lon="6.18972">
        <ele>1605</ele>
        <time>2024-06-06T05:23:35+00:00</time>
      </trkpt>
      <trkpt lat="45.37543" lon="6.1897">
        <ele>1605</ele>
        <time>2024-06-06T05:23:38+00:00</time>
      </trkpt>
      <trkpt lat="45.37539" lon="6.18965">
        <ele>1605</ele>
        <time>2024-06-06T05:23:41+00:00</time>
      </trkpt>
      <trkpt lat="45.37536" lon="6.18962">
        <ele>1605</ele>
        <time>2024-06-06T05:23:44+00:00</time>
      </trkpt>
      <trkpt lat="45.37532" lon="6.18957">
        <ele>1604</ele>
        <time>2024-06-06T05:23:47+00:00</time>
      </trkpt>
      <trkpt lat="45.37529" lon="6.18952">
        <ele>1607</ele>
        <time>2024-06-06T05:23:50+00:00</time>
      </trkpt>
      <trkpt lat="45.37525" lon="6.18948">
        <ele>1605</ele>
        <time>2024-06-06T05:23:53+00:00</time>
      </trkpt>
      <trkpt lat="45.37523" lon="6.18949">
        <ele>1605</ele>
        <time>2024-06-06T05:23:56+00:00</time>
      </trkpt>
      <trkpt lat="45.3752" lon="6.18952">
        <ele>1607</ele>
        <time>2024-06-06T05:23:59+00:00</time>
      </trkpt>
      <trkpt lat="45.37518" lon="6.18953">
        <ele>1609</ele>
        <time>2024-06-06T05:24:02+00:00</time>
      </trkpt>
      <trkpt lat="45.37514" lon="6.18953">
        <ele>1609</ele>
        <time>2024-06-06T05:24:05+00:00</time>
      </trkpt>
      <trkpt lat="45.37511" lon="6.18952">
        <ele>1609</ele>
        <time>2024-06-06T05:24:08+00:00</time>
      </trkpt>
      <trkpt lat="45.37508" lon="6.1895">
        <ele>1610</ele>
        <time>2024-06-06T05:24:11+00:00</time>
      </trkpt>
      <trkpt lat="45.37504" lon="6.18949">
        <ele>1610</ele>
        <time>2024-06-06T05:24:14+00:00</time>
      </trkpt>
      <trkpt lat="45.37502" lon="6.18948">
        <ele>1610</ele>
        <time>2024-06-06T05:24:17+00:00</time>
      </trkpt>
      <trkpt lat="45.37499" lon="6.18946">
        <ele>1615</ele>
        <time>2024-06-06T05:24:20+00:00</time>
      </trkpt>
      <trkpt lat="45.37495" lon="6.18945">
        <ele>1615</ele>
        <time>2024-06-06T05:24:23+00:00</time>
      </trkpt>
      <trkpt lat="45.3749" lon="6.18945">
        <ele>1618</ele>
        <time>2024-06-06T05:24:26+00:00</time>
      </trkpt>
      <trkpt lat="45.37485" lon="6.18943">
        <ele>1618</ele>
        <time>2024-06-06T05:24:29+00:00</time>
      </trkpt>
      <trkpt lat="45.37483" lon="6.18936">
        <ele>1617</ele>
        <time>2024-06-06T05:24:32+00:00</time>
      </trkpt>
      <trkpt lat="45.37481" lon="6.1893">
        <ele>1616</ele>
        <time>2024-06-06T05:24:35+00:00</time>
      </trkpt>
      <trkpt lat="45.37478" lon="6.18925">
        <ele>1619</ele>
        <time>2024-06-06T05:24:38+00:00</time>
      </trkpt>
      <trkpt lat="45.37475" lon="6.18922">
        <ele>1619</ele>
        <time>2024-06-06T05:24:41+00:00</time>
      </trkpt>
      <trkpt lat="45.37473" lon="6.18921">
        <ele>1619</ele>
        <time>2024-06-06T05:24:44+00:00</time>
      </trkpt>
      <trkpt lat="45.37471" lon="6.18923">
        <ele>1619</ele>
        <time>2024-06-06T05:24:47+00:00</time>
      </trkpt>
      <trkpt lat="45.3747" lon="6.18928">
        <ele>1623</ele>
        <time>2024-06-06T05:24:50+00:00</time>
      </trkpt>
      <trkpt lat="45.37469" lon="6.18933">
        <ele>1625</ele>
        <time>2024-06-06T05:24:53+00:00</time>
      </trkpt>
      <trkpt lat="45.37468" lon="6.18939">
        <ele>1625</ele>
        <time>2024-06-06T05:24:56+00:00</time>
      </trkpt>
      <trkpt lat="45.37465" lon="6.18946">
        <ele>1626</ele>
        <time>2024-06-06T05:24:59+00:00</time>
      </trkpt>
      <trkpt lat="45.37463" lon="6.1895">
        <ele>1627</ele>
        <time>2024-06-06T05:25:02+00:00</time>
      </trkpt>
      <trkpt lat="45.37461" lon="6.18955">
        <ele>1627</ele>
        <time>2024-06-06T05:25:05+00:00</time>
      </trkpt>
      <trkpt lat="45.37457" lon="6.1896">
        <ele>1631</ele>
        <time>2024-06-06T05:25:08+00:00</time>
      </trkpt>
      <trkpt lat="45.37454" lon="6.18965">
        <ele>1631</ele>
        <time>2024-06-06T05:25:11+00:00</time>
      </trkpt>
      <trkpt lat="45.37451" lon="6.18969">
        <ele>1631</ele>
        <time>2024-06-06T05:25:14+00:00</time>
      </trkpt>
      <trkpt lat="45.37448" lon="6.18972">
        <ele>1636</ele>
        <time>2024-06-06T05:25:17+00:00</time>
      </trkpt>
      <trkpt lat="45.37445" lon="6.18973">
        <ele>1636</ele>
        <time>2024-06-06T05:25:20+00:00</time>
      </trkpt>
      <trkpt lat="45.37442" lon="6.18973">
        <ele>1636</ele>
        <time>2024-06-06T05:25:23+00:00</time>
      </trkpt>
      <trkpt lat="45.37438" lon="6.18973">
        <ele>1640</ele>
        <time>2024-06-06T05:25:26+00:00</time>
      </trkpt>
      <trkpt lat="45.37435" lon="6.18975">
        <ele>1640</ele>
        <time>2024-06-06T05:25:29+00:00</time>
      </trkpt>
      <trkpt lat="45.37433" lon="6.18978">
        <ele>1640</ele>
        <time>2024-06-06T05:25:32+00:00</time>
      </trkpt>
      <trkpt lat="45.37432" lon="6.18984">
        <ele>1642</ele>
        <time>2024-06-06T05:25:35+00:00</time>
      </trkpt>
      <trkpt lat="45.37429" lon="6.18989">
        <ele>1646</ele>
        <time>2024-06-06T05:25:38+00:00</time>
      </trkpt>
      <trkpt lat="45.37427" lon="6.18992">
        <ele>1647</ele>
        <time>2024-06-06T05:25:41+00:00</time>
      </trkpt>
      <trkpt lat="45.37426" lon="6.18995">
        <ele>1647</ele>
        <time>2024-06-06T05:25:44+00:00</time>
      </trkpt>
      <trkpt lat="45.37424" lon="6.18997">
        <ele>1647</ele>
        <time>2024-06-06T05:25:47+00:00</time>
      </trkpt>
      <trkpt lat="45.37421" lon="6.19">
        <ele>1647</ele>
        <time>2024-06-06T05:25:50+00:00</time>
      </trkpt>
      <trkpt lat="45.37419" lon="6.19003">
        <ele>1651</ele>
        <time>2024-06-06T05:25:53+00:00</time>
      </trkpt>
      <trkpt lat="45.37417" lon="6.19007">
        <ele>1651</ele>
        <time>2024-06-06T05:25:56+00:00</time>
      </trkpt>
      <trkpt lat="45.37415" lon="6.1901">
        <ele>1651</ele>
        <time>2024-06-06T05:25:59+00:00</time>
      </trkpt>
      <trkpt lat="45.37413" lon="6.1901">
        <ele>1651</ele>
        <time>2024-06-06T05:26:02+00:00</time>
      </trkpt>
      <trkpt lat="45.37411" lon="6.19007">
        <ele>1651</ele>
        <time>2024-06-06T05:26:05+00:00</time>
      </trkpt>
      <trkpt lat="45.3741" lon="6.19002">
        <ele>1658</ele>
        <time>2024-06-06T05:26:08+00:00</time>
      </trkpt>
      <trkpt lat="45.37409" lon="6.18997">
        <ele>1657</ele>
        <time>2024-06-06T05:26:11+00:00</time>
      </trkpt>
      <trkpt lat="45.37407" lon="6.18988">
        <ele>1653</ele>
        <time>2024-06-06T05:26:14+00:00</time>
      </trkpt>
      <trkpt lat="45.37404" lon="6.1899">
        <ele>1657</ele>
        <time>2024-06-06T05:26:17+00:00</time>
      </trkpt>
      <trkpt lat="45.37402" lon="6.18993">
        <ele>1657</ele>
        <time>2024-06-06T05:26:20+00:00</time>
      </trkpt>
      <trkpt lat="45.374" lon="6.18994">
        <ele>1657</ele>
        <time>2024-06-06T05:26:23+00:00</time>
      </trkpt>
      <trkpt lat="45.37398" lon="6.18994">
        <ele>1659</ele>
        <time>2024-06-06T05:26:26+00:00</time>
      </trkpt>
      <trkpt lat="45.3739" lon="6.18998">
        <ele>1659</ele>
        <time>2024-06-06T05:26:29+00:00</time>
      </trkpt>
      <trkpt lat="45.37387" lon="6.19">
        <ele>1662</ele>
        <time>2024-06-06T05:26:32+00:00</time>
      </trkpt>
      <trkpt lat="45.37384" lon="6.19">
        <ele>1664</ele>
        <time>2024-06-06T05:26:35+00:00</time>
      </trkpt>
      <trkpt lat="45.37379" lon="6.18997">
        <ele>1667</ele>
        <time>2024-06-06T05:26:38+00:00</time>
      </trkpt>
      <trkpt lat="45.37373" lon="6.18995">
        <ele>1667</ele>
        <time>2024-06-06T05:26:41+00:00</time>
      </trkpt>
      <trkpt lat="45.37369" lon="6.18993">
        <ele>1670</ele>
        <time>2024-06-06T05:26:44+00:00</time>
      </trkpt>
      <trkpt lat="45.37364" lon="6.18989">
        <ele>1671</ele>
        <time>2024-06-06T05:26:47+00:00</time>
      </trkpt>
      <trkpt lat="45.37361" lon="6.18986">
        <ele>1671</ele>
        <time>2024-06-06T05:26:50+00:00</time>
      </trkpt>
      <trkpt lat="45.37357" lon="6.18983">
        <ele>1675</ele>
        <time>2024-06-06T05:26:53+00:00</time>
      </trkpt>
      <trkpt lat="45.37352" lon="6.18979">
        <ele>1675</ele>
        <time>2024-06-06T05:26:56+00:00</time>
      </trkpt>
      <trkpt lat="45.37348" lon="6.18975">
        <ele>1682</ele>
        <time>2024-06-06T05:26:59+00:00</time>
      </trkpt>
      <trkpt lat="45.37346" lon="6.1897">
        <ele>1683</ele>
        <time>2024-06-06T05:27:02+00:00</time>
      </trkpt>
      <trkpt lat="45.37343" lon="6.18961">
        <ele>1683</ele>
        <time>2024-06-06T05:27:05+00:00</time>
      </trkpt>
      <trkpt lat="45.37342" lon="6.18952">
        <ele>1684</ele>
        <time>2024-06-06T05:27:08+00:00</time>
      </trkpt>
      <trkpt lat="45.3734" lon="6.18943">
        <ele>1691</ele>
        <time>2024-06-06T05:27:11+00:00</time>
      </trkpt>
      <trkpt lat="45.37337" lon="6.18934">
        <ele>1691</ele>
        <time>2024-06-06T05:27:14+00:00</time>
      </trkpt>
      <trkpt lat="45.37334" lon="6.18925">
        <ele>1690</ele>
        <time>2024-06-06T05:27:17+00:00</time>
      </trkpt>
      <trkpt lat="45.37332" lon="6.18919">
        <ele>1687</ele>
        <time>2024-06-06T05:27:20+00:00</time>
      </trkpt>
      <trkpt lat="45.37329" lon="6.18914">
        <ele>1691</ele>
        <time>2024-06-06T05:27:23+00:00</time>
      </trkpt>
      <trkpt lat="45.37325" lon="6.18912">
        <ele>1691</ele>
        <time>2024-06-06T05:27:26+00:00</time>
      </trkpt>
      <trkpt lat="45.3732" lon="6.1891">
        <ele>1691</ele>
        <time>2024-06-06T05:27:29+00:00</time>
      </trkpt>
      <trkpt lat="45.37317" lon="6.18911">
        <ele>1696</ele>
        <time>2024-06-06T05:27:32+00:00</time>
      </trkpt>
      <trkpt lat="45.37314" lon="6.18911">
        <ele>1696</ele>
        <time>2024-06-06T05:27:35+00:00</time>
      </trkpt>
      <trkpt lat="45.3731" lon="6.18911">
        <ele>1696</ele>
        <time>2024-06-06T05:27:38+00:00</time>
      </trkpt>
      <trkpt lat="45.37305" lon="6.18913">
        <ele>1696</ele>
        <time>2024-06-06T05:27:41+00:00</time>
      </trkpt>
      <trkpt lat="45.37302" lon="6.18915">
        <ele>1696</ele>
        <time>2024-06-06T05:27:44+00:00</time>
      </trkpt>
      <trkpt lat="45.37299" lon="6.18918">
        <ele>1697</ele>
        <time>2024-06-06T05:27:47+00:00</time>
      </trkpt>
      <trkpt lat="45.37296" lon="6.18922">
        <ele>1701</ele>
        <time>2024-06-06T05:27:50+00:00</time>
      </trkpt>
      <trkpt lat="45.37294" lon="6.18923">
        <ele>1701</ele>
        <time>2024-06-06T05:27:53+00:00</time>
      </trkpt>
      <trkpt lat="45.37294" lon="6.18926">
        <ele>1701</ele>
        <time>2024-06-06T05:27:56+00:00</time>
      </trkpt>
      <trkpt lat="45.37293" lon="6.1893">
        <ele>1701</ele>
        <time>2024-06-06T05:27:59+00:00</time>
      </trkpt>
      <trkpt lat="45.3729" lon="6.18932">
        <ele>1706</ele>
        <time>2024-06-06T05:28:02+00:00</time>
      </trkpt>
      <trkpt lat="45.37287" lon="6.18932">
        <ele>1711</ele>
        <time>2024-06-06T05:28:05+00:00</time>
      </trkpt>
      <trkpt lat="45.37285" lon="6.18933">
        <ele>1711</ele>
        <time>2024-06-06T05:28:08+00:00</time>
      </trkpt>
      <trkpt lat="45.37281" lon="6.18934">
        <ele>1711</ele>
        <time>2024-06-06T05:28:11+00:00</time>
      </trkpt>
      <trkpt lat="45.37277" lon="6.18933">
        <ele>1715</ele>
        <time>2024-06-06T05:28:14+00:00</time>
      </trkpt>
      <trkpt lat="45.37274" lon="6.18931">
        <ele>1715</ele>
        <time>2024-06-06T05:28:17+00:00</time>
      </trkpt>
      <trkpt lat="45.37268" lon="6.18928">
        <ele>1713</ele>
        <time>2024-06-06T05:28:20+00:00</time>
      </trkpt>
      <trkpt lat="45.37265" lon="6.18927">
        <ele>1713</ele>
        <time>2024-06-06T05:28:23+00:00</time>
      </trkpt>
      <trkpt lat="45.37267" lon="6.18931">
        <ele>1718</ele>
        <time>2024-06-06T05:28:26+00:00</time>
      </trkpt>
      <trkpt lat="45.37267" lon="6.18935">
        <ele>1718</ele>
        <time>2024-06-06T05:28:29+00:00</time>
      </trkpt>
      <trkpt lat="45.37268" lon="6.18941">
        <ele>1722</ele>
        <time>2024-06-06T05:28:32+00:00</time>
      </trkpt>
      <trkpt lat="45.37268" lon="6.18946">
        <ele>1722</ele>
        <time>2024-06-06T05:28:35+00:00</time>
      </trkpt>
      <trkpt lat="45.37266" lon="6.18945">
        <ele>1722</ele>
        <time>2024-06-06T05:28:38+00:00</time>
      </trkpt>
      <trkpt lat="45.37264" lon="6.18946">
        <ele>1722</ele>
        <time>2024-06-06T05:28:41+00:00</time>
      </trkpt>
      <trkpt lat="45.37263" lon="6.18948">
        <ele>1722</ele>
        <time>2024-06-06T05:28:44+00:00</time>
      </trkpt>
      <trkpt lat="45.37264" lon="6.18951">
        <ele>1724</ele>
        <time>2024-06-06T05:28:47+00:00</time>
      </trkpt>
      <trkpt lat="45.37264" lon="6.18956">
        <ele>1724</ele>
        <time>2024-06-06T05:28:50+00:00</time>
      </trkpt>
      <trkpt lat="45.37265" lon="6.18961">
        <ele>1727</ele>
        <time>2024-06-06T05:28:53+00:00</time>
      </trkpt>
      <trkpt lat="45.37266" lon="6.18968">
        <ele>1727</ele>
        <time>2024-06-06T05:28:56+00:00</time>
      </trkpt>
      <trkpt lat="45.37267" lon="6.18974">
        <ele>1730</ele>
        <time>2024-06-06T05:28:59+00:00</time>
      </trkpt>
      <trkpt lat="45.37267" lon="6.1898">
        <ele>1732</ele>
        <time>2024-06-06T05:29:02+00:00</time>
      </trkpt>
      <trkpt lat="45.37267" lon="6.1898">
        <ele>1732</ele>
        <time>2024-06-06T05:29:05+00:00</time>
      </trkpt>
      <trkpt lat="45.37266" lon="6.18986">
        <ele>1732</ele>
        <time>2024-06-06T05:29:08+00:00</time>
      </trkpt>
      <trkpt lat="45.37264" lon="6.1899">
        <ele>1736</ele>
        <time>2024-06-06T05:29:11+00:00</time>
      </trkpt>
      <trkpt lat="45.37262" lon="6.18994">
        <ele>1736</ele>
        <time>2024-06-06T05:29:14+00:00</time>
      </trkpt>
      <trkpt lat="45.3726" lon="6.18998">
        <ele>1737</ele>
        <time>2024-06-06T05:29:17+00:00</time>
      </trkpt>
      <trkpt lat="45.37258" lon="6.19001">
        <ele>1739</ele>
        <time>2024-06-06T05:29:20+00:00</time>
      </trkpt>
      <trkpt lat="45.37256" lon="6.19005">
        <ele>1739</ele>
        <time>2024-06-06T05:29:23+00:00</time>
      </trkpt>
      <trkpt lat="45.37254" lon="6.19009">
        <ele>1739</ele>
        <time>2024-06-06T05:29:26+00:00</time>
      </trkpt>
      <trkpt lat="45.37251" lon="6.19013">
        <ele>1743</ele>
        <time>2024-06-06T05:29:29+00:00</time>
      </trkpt>
      <trkpt lat="45.37249" lon="6.19018">
        <ele>1744</ele>
        <time>2024-06-06T05:29:32+00:00</time>
      </trkpt>
      <trkpt lat="45.37246" lon="6.19022">
        <ele>1749</ele>
        <time>2024-06-06T05:29:35+00:00</time>
      </trkpt>
      <trkpt lat="45.37243" lon="6.19022">
        <ele>1749</ele>
        <time>2024-06-06T05:29:38+00:00</time>
      </trkpt>
      <trkpt lat="45.3724" lon="6.19023">
        <ele>1750</ele>
        <time>2024-06-06T05:29:41+00:00</time>
      </trkpt>
      <trkpt lat="45.37237" lon="6.19024">
        <ele>1750</ele>
        <time>2024-06-06T05:29:44+00:00</time>
      </trkpt>
      <trkpt lat="45.37234" lon="6.19025">
        <ele>1750</ele>
        <time>2024-06-06T05:29:47+00:00</time>
      </trkpt>
      <trkpt lat="45.37232" lon="6.19028">
        <ele>1750</ele>
        <time>2024-06-06T05:29:50+00:00</time>
      </trkpt>
      <trkpt lat="45.37228" lon="6.19029">
        <ele>1753</ele>
        <time>2024-06-06T05:29:53+00:00</time>
      </trkpt>
      <trkpt lat="45.37223" lon="6.1903">
        <ele>1753</ele>
        <time>2024-06-06T05:29:56+00:00</time>
      </trkpt>
      <trkpt lat="45.37216" lon="6.19036">
        <ele>1756</ele>
        <time>2024-06-06T05:29:59+00:00</time>
      </trkpt>
      <trkpt lat="45.37212" lon="6.19039">
        <ele>1756</ele>
        <time>2024-06-06T05:30:02+00:00</time>
      </trkpt>
      <trkpt lat="45.37208" lon="6.19041">
        <ele>1758</ele>
        <time>2024-06-06T05:30:05+00:00</time>
      </trkpt>
      <trkpt lat="45.37205" lon="6.19042">
        <ele>1758</ele>
        <time>2024-06-06T05:30:08+00:00</time>
      </trkpt>
      <trkpt lat="45.37204" lon="6.19047">
        <ele>1758</ele>
        <time>2024-06-06T05:30:11+00:00</time>
      </trkpt>
      <trkpt lat="45.37202" lon="6.19051">
        <ele>1761</ele>
        <time>2024-06-06T05:30:14+00:00</time>
      </trkpt>
      <trkpt lat="45.37199" lon="6.19056">
        <ele>1763</ele>
        <time>2024-06-06T05:30:17+00:00</time>
      </trkpt>
      <trkpt lat="45.37197" lon="6.19059">
        <ele>1763</ele>
        <time>2024-06-06T05:30:20+00:00</time>
      </trkpt>
      <trkpt lat="45.37195" lon="6.19069">
        <ele>1764</ele>
        <time>2024-06-06T05:30:23+00:00</time>
      </trkpt>
      <trkpt lat="45.37196" lon="6.19074">
        <ele>1767</ele>
        <time>2024-06-06T05:30:26+00:00</time>
      </trkpt>
      <trkpt lat="45.37199" lon="6.19076">
        <ele>1767</ele>
        <time>2024-06-06T05:30:29+00:00</time>
      </trkpt>
      <trkpt lat="45.37201" lon="6.19078">
        <ele>1763</ele>
        <time>2024-06-06T05:30:32+00:00</time>
      </trkpt>
      <trkpt lat="45.37203" lon="6.19082">
        <ele>1766</ele>
        <time>2024-06-06T05:30:35+00:00</time>
      </trkpt>
      <trkpt lat="45.37204" lon="6.19087">
        <ele>1766</ele>
        <time>2024-06-06T05:30:38+00:00</time>
      </trkpt>
      <trkpt lat="45.37203" lon="6.1909">
        <ele>1768</ele>
        <time>2024-06-06T05:30:41+00:00</time>
      </trkpt>
      <trkpt lat="45.37202" lon="6.19093">
        <ele>1768</ele>
        <time>2024-06-06T05:30:44+00:00</time>
      </trkpt>
      <trkpt lat="45.372" lon="6.19096">
        <ele>1772</ele>
        <time>2024-06-06T05:30:47+00:00</time>
      </trkpt>
      <trkpt lat="45.37196" lon="6.19098">
        <ele>1772</ele>
        <time>2024-06-06T05:30:50+00:00</time>
      </trkpt>
      <trkpt lat="45.37194" lon="6.19099">
        <ele>1772</ele>
        <time>2024-06-06T05:30:53+00:00</time>
      </trkpt>
      <trkpt lat="45.37193" lon="6.19102">
        <ele>1774</ele>
        <time>2024-06-06T05:30:56+00:00</time>
      </trkpt>
      <trkpt lat="45.37192" lon="6.19108">
        <ele>1774</ele>
        <time>2024-06-06T05:30:59+00:00</time>
      </trkpt>
      <trkpt lat="45.37193" lon="6.19114">
        <ele>1778</ele>
        <time>2024-06-06T05:31:02+00:00</time>
      </trkpt>
      <trkpt lat="45.37192" lon="6.19117">
        <ele>1778</ele>
        <time>2024-06-06T05:31:05+00:00</time>
      </trkpt>
      <trkpt lat="45.37191" lon="6.1912">
        <ele>1779</ele>
        <time>2024-06-06T05:31:08+00:00</time>
      </trkpt>
      <trkpt lat="45.37188" lon="6.19123">
        <ele>1783</ele>
        <time>2024-06-06T05:31:11+00:00</time>
      </trkpt>
      <trkpt lat="45.37188" lon="6.19124">
        <ele>1783</ele>
        <time>2024-06-06T05:31:14+00:00</time>
      </trkpt>
      <trkpt lat="45.37188" lon="6.19128">
        <ele>1783</ele>
        <time>2024-06-06T05:31:17+00:00</time>
      </trkpt>
      <trkpt lat="45.37186" lon="6.1913">
        <ele>1783</ele>
        <time>2024-06-06T05:31:20+00:00</time>
      </trkpt>
      <trkpt lat="45.37183" lon="6.19129">
        <ele>1783</ele>
        <time>2024-06-06T05:31:23+00:00</time>
      </trkpt>
      <trkpt lat="45.37179" lon="6.19129">
        <ele>1787</ele>
        <time>2024-06-06T05:31:26+00:00</time>
      </trkpt>
      <trkpt lat="45.37175" lon="6.19128">
        <ele>1787</ele>
        <time>2024-06-06T05:31:29+00:00</time>
      </trkpt>
      <trkpt lat="45.37171" lon="6.19128">
        <ele>1787</ele>
        <time>2024-06-06T05:31:32+00:00</time>
      </trkpt>
      <trkpt lat="45.37166" lon="6.19127">
        <ele>1791</ele>
        <time>2024-06-06T05:31:35+00:00</time>
      </trkpt>
      <trkpt lat="45.37161" lon="6.19127">
        <ele>1791</ele>
        <time>2024-06-06T05:31:38+00:00</time>
      </trkpt>
      <trkpt lat="45.37156" lon="6.19126">
        <ele>1796</ele>
        <time>2024-06-06T05:31:41+00:00</time>
      </trkpt>
      <trkpt lat="45.37151" lon="6.19124">
        <ele>1796</ele>
        <time>2024-06-06T05:31:44+00:00</time>
      </trkpt>
      <trkpt lat="45.37147" lon="6.19123">
        <ele>1800</ele>
        <time>2024-06-06T05:31:47+00:00</time>
      </trkpt>
      <trkpt lat="45.37143" lon="6.19122">
        <ele>1800</ele>
        <time>2024-06-06T05:31:50+00:00</time>
      </trkpt>
      <trkpt lat="45.3714" lon="6.19121">
        <ele>1807</ele>
        <time>2024-06-06T05:31:53+00:00</time>
      </trkpt>
      <trkpt lat="45.37137" lon="6.1912">
        <ele>1807</ele>
        <time>2024-06-06T05:31:56+00:00</time>
      </trkpt>
      <trkpt lat="45.37135" lon="6.19117">
        <ele>1805</ele>
        <time>2024-06-06T05:31:59+00:00</time>
      </trkpt>
      <trkpt lat="45.37132" lon="6.19111">
        <ele>1805</ele>
        <time>2024-06-06T05:32:02+00:00</time>
      </trkpt>
      <trkpt lat="45.37129" lon="6.19106">
        <ele>1808</ele>
        <time>2024-06-06T05:32:05+00:00</time>
      </trkpt>
      <trkpt lat="45.37126" lon="6.19102">
        <ele>1808</ele>
        <time>2024-06-06T05:32:08+00:00</time>
      </trkpt>
      <trkpt lat="45.37123" lon="6.19099">
        <ele>1808</ele>
        <time>2024-06-06T05:32:11+00:00</time>
      </trkpt>
      <trkpt lat="45.37119" lon="6.19097">
        <ele>1811</ele>
        <time>2024-06-06T05:32:14+00:00</time>
      </trkpt>
      <trkpt lat="45.37116" lon="6.19096">
        <ele>1811</ele>
        <time>2024-06-06T05:32:17+00:00</time>
      </trkpt>
      <trkpt lat="45.37113" lon="6.19094">
        <ele>1811</ele>
        <time>2024-06-06T05:32:20+00:00</time>
      </trkpt>
      <trkpt lat="45.37111" lon="6.1909">
        <ele>1810</ele>
        <time>2024-06-06T05:32:23+00:00</time>
      </trkpt>
      <trkpt lat="45.37108" lon="6.19087">
        <ele>1818</ele>
        <time>2024-06-06T05:32:26+00:00</time>
      </trkpt>
      <trkpt lat="45.37104" lon="6.19086">
        <ele>1818</ele>
        <time>2024-06-06T05:32:29+00:00</time>
      </trkpt>
      <trkpt lat="45.37101" lon="6.19085">
        <ele>1818</ele>
        <time>2024-06-06T05:32:32+00:00</time>
      </trkpt>
      <trkpt lat="45.37098" lon="6.19088">
        <ele>1820</ele>
        <time>2024-06-06T05:32:35+00:00</time>
      </trkpt>
      <trkpt lat="45.37098" lon="6.19091">
        <ele>1822</ele>
        <time>2024-06-06T05:32:38+00:00</time>
      </trkpt>
      <trkpt lat="45.37099" lon="6.19095">
        <ele>1822</ele>
        <time>2024-06-06T05:32:41+00:00</time>
      </trkpt>
      <trkpt lat="45.371" lon="6.19099">
        <ele>1817</ele>
        <time>2024-06-06T05:32:44+00:00</time>
      </trkpt>
      <trkpt lat="45.371" lon="6.19103">
        <ele>1819</ele>
        <time>2024-06-06T05:32:47+00:00</time>
      </trkpt>
      <trkpt lat="45.37098" lon="6.19105">
        <ele>1823</ele>
        <time>2024-06-06T05:32:50+00:00</time>
      </trkpt>
      <trkpt lat="45.37096" lon="6.19105">
        <ele>1823</ele>
        <time>2024-06-06T05:32:53+00:00</time>
      </trkpt>
      <trkpt lat="45.37094" lon="6.19103">
        <ele>1823</ele>
        <time>2024-06-06T05:32:56+00:00</time>
      </trkpt>
      <trkpt lat="45.37092" lon="6.191">
        <ele>1823</ele>
        <time>2024-06-06T05:32:59+00:00</time>
      </trkpt>
      <trkpt lat="45.37089" lon="6.19099">
        <ele>1821</ele>
        <time>2024-06-06T05:33:02+00:00</time>
      </trkpt>
      <trkpt lat="45.37087" lon="6.19099">
        <ele>1821</ele>
        <time>2024-06-06T05:33:05+00:00</time>
      </trkpt>
      <trkpt lat="45.37083" lon="6.191">
        <ele>1821</ele>
        <time>2024-06-06T05:33:08+00:00</time>
      </trkpt>
      <trkpt lat="45.3708" lon="6.19103">
        <ele>1827</ele>
        <time>2024-06-06T05:33:11+00:00</time>
      </trkpt>
      <trkpt lat="45.37078" lon="6.19107">
        <ele>1815</ele>
        <time>2024-06-06T05:33:14+00:00</time>
      </trkpt>
      <trkpt lat="45.37076" lon="6.19111">
        <ele>1828</ele>
        <time>2024-06-06T05:33:17+00:00</time>
      </trkpt>
      <trkpt lat="45.37075" lon="6.19115">
        <ele>1828</ele>
        <time>2024-06-06T05:33:20+00:00</time>
      </trkpt>
      <trkpt lat="45.37074" lon="6.19119">
        <ele>1828</ele>
        <time>2024-06-06T05:33:23+00:00</time>
      </trkpt>
      <trkpt lat="45.37074" lon="6.19125">
        <ele>1830</ele>
        <time>2024-06-06T05:33:26+00:00</time>
      </trkpt>
      <trkpt lat="45.37073" lon="6.1913">
        <ele>1830</ele>
        <time>2024-06-06T05:33:29+00:00</time>
      </trkpt>
      <trkpt lat="45.37074" lon="6.19136">
        <ele>1833</ele>
        <time>2024-06-06T05:33:32+00:00</time>
      </trkpt>
      <trkpt lat="45.37074" lon="6.19139">
        <ele>1833</ele>
        <time>2024-06-06T05:33:35+00:00</time>
      </trkpt>
      <trkpt lat="45.37072" lon="6.19142">
        <ele>1837</ele>
        <time>2024-06-06T05:33:38+00:00</time>
      </trkpt>
      <trkpt lat="45.37071" lon="6.19145">
        <ele>1837</ele>
        <time>2024-06-06T05:33:41+00:00</time>
      </trkpt>
      <trkpt lat="45.37069" lon="6.19149">
        <ele>1835</ele>
        <time>2024-06-06T05:33:44+00:00</time>
      </trkpt>
      <trkpt lat="45.37067" lon="6.19153">
        <ele>1839</ele>
        <time>2024-06-06T05:33:47+00:00</time>
      </trkpt>
      <trkpt lat="45.37066" lon="6.19156">
        <ele>1839</ele>
        <time>2024-06-06T05:33:50+00:00</time>
      </trkpt>
      <trkpt lat="45.37068" lon="6.19159">
        <ele>1839</ele>
        <time>2024-06-06T05:33:53+00:00</time>
      </trkpt>
      <trkpt lat="45.37071" lon="6.19158">
        <ele>1840</ele>
        <time>2024-06-06T05:33:56+00:00</time>
      </trkpt>
      <trkpt lat="45.37075" lon="6.19158">
        <ele>1840</ele>
        <time>2024-06-06T05:33:59+00:00</time>
      </trkpt>
      <trkpt lat="45.37078" lon="6.19158">
        <ele>1840</ele>
        <time>2024-06-06T05:34:02+00:00</time>
      </trkpt>
      <trkpt lat="45.3708" lon="6.19161">
        <ele>1847</ele>
        <time>2024-06-06T05:34:05+00:00</time>
      </trkpt>
      <trkpt lat="45.37079" lon="6.19165">
        <ele>1844</ele>
        <time>2024-06-06T05:34:08+00:00</time>
      </trkpt>
      <trkpt lat="45.37079" lon="6.1917">
        <ele>1848</ele>
        <time>2024-06-06T05:34:11+00:00</time>
      </trkpt>
      <trkpt lat="45.37077" lon="6.19173">
        <ele>1848</ele>
        <time>2024-06-06T05:34:14+00:00</time>
      </trkpt>
      <trkpt lat="45.37075" lon="6.19178">
        <ele>1848</ele>
        <time>2024-06-06T05:34:17+00:00</time>
      </trkpt>
      <trkpt lat="45.37074" lon="6.19182">
        <ele>1851</ele>
        <time>2024-06-06T05:34:20+00:00</time>
      </trkpt>
      <trkpt lat="45.37074" lon="6.19186">
        <ele>1851</ele>
        <time>2024-06-06T05:34:23+00:00</time>
      </trkpt>
      <trkpt lat="45.37076" lon="6.1919">
        <ele>1851</ele>
        <time>2024-06-06T05:34:26+00:00</time>
      </trkpt>
      <trkpt lat="45.37078" lon="6.19192">
        <ele>1854</ele>
        <time>2024-06-06T05:34:29+00:00</time>
      </trkpt>
      <trkpt lat="45.37081" lon="6.19194">
        <ele>1857</ele>
        <time>2024-06-06T05:34:32+00:00</time>
      </trkpt>
      <trkpt lat="45.37083" lon="6.19196">
        <ele>1857</ele>
        <time>2024-06-06T05:34:35+00:00</time>
      </trkpt>
      <trkpt lat="45.37085" lon="6.19198">
        <ele>1857</ele>
        <time>2024-06-06T05:34:38+00:00</time>
      </trkpt>
      <trkpt lat="45.37087" lon="6.19201">
        <ele>1861</ele>
        <time>2024-06-06T05:34:41+00:00</time>
      </trkpt>
      <trkpt lat="45.37085" lon="6.19204">
        <ele>1861</ele>
        <time>2024-06-06T05:34:44+00:00</time>
      </trkpt>
      <trkpt lat="45.37082" lon="6.19208">
        <ele>1861</ele>
        <time>2024-06-06T05:34:47+00:00</time>
      </trkpt>
      <trkpt lat="45.3708" lon="6.19214">
        <ele>1861</ele>
        <time>2024-06-06T05:34:50+00:00</time>
      </trkpt>
      <trkpt lat="45.3708" lon="6.19215">
        <ele>1861</ele>
        <time>2024-06-06T05:34:53+00:00</time>
      </trkpt>
      <trkpt lat="45.37084" lon="6.19216">
        <ele>1864</ele>
        <time>2024-06-06T05:34:56+00:00</time>
      </trkpt>
      <trkpt lat="45.37087" lon="6.19218">
        <ele>1864</ele>
        <time>2024-06-06T05:34:59+00:00</time>
      </trkpt>
      <trkpt lat="45.3709" lon="6.19221">
        <ele>1868</ele>
        <time>2024-06-06T05:35:02+00:00</time>
      </trkpt>
      <trkpt lat="45.37091" lon="6.19225">
        <ele>1868</ele>
        <time>2024-06-06T05:35:05+00:00</time>
      </trkpt>
      <trkpt lat="45.3709" lon="6.19231">
        <ele>1872</ele>
        <time>2024-06-06T05:35:08+00:00</time>
      </trkpt>
      <trkpt lat="45.37088" lon="6.19233">
        <ele>1873</ele>
        <time>2024-06-06T05:35:11+00:00</time>
      </trkpt>
      <trkpt lat="45.37085" lon="6.19234">
        <ele>1873</ele>
        <time>2024-06-06T05:35:14+00:00</time>
      </trkpt>
      <trkpt lat="45.37082" lon="6.19235">
        <ele>1873</ele>
        <time>2024-06-06T05:35:17+00:00</time>
      </trkpt>
      <trkpt lat="45.37079" lon="6.19235">
        <ele>1872</ele>
        <time>2024-06-06T05:35:20+00:00</time>
      </trkpt>
      <trkpt lat="45.37077" lon="6.19235">
        <ele>1872</ele>
        <time>2024-06-06T05:35:23+00:00</time>
      </trkpt>
      <trkpt lat="45.37074" lon="6.19236">
        <ele>1872</ele>
        <time>2024-06-06T05:35:26+00:00</time>
      </trkpt>
      <trkpt lat="45.37073" lon="6.19238">
        <ele>1872</ele>
        <time>2024-06-06T05:35:29+00:00</time>
      </trkpt>
      <trkpt lat="45.37071" lon="6.19241">
        <ele>1876</ele>
        <time>2024-06-06T05:35:32+00:00</time>
      </trkpt>
      <trkpt lat="45.37069" lon="6.19244">
        <ele>1873</ele>
        <time>2024-06-06T05:35:35+00:00</time>
      </trkpt>
      <trkpt lat="45.37068" lon="6.19246">
        <ele>1873</ele>
        <time>2024-06-06T05:35:38+00:00</time>
      </trkpt>
      <trkpt lat="45.37068" lon="6.1925">
        <ele>1877</ele>
        <time>2024-06-06T05:35:41+00:00</time>
      </trkpt>
      <trkpt lat="45.37067" lon="6.19253">
        <ele>1877</ele>
        <time>2024-06-06T05:35:44+00:00</time>
      </trkpt>
      <trkpt lat="45.37066" lon="6.19254">
        <ele>1877</ele>
        <time>2024-06-06T05:35:47+00:00</time>
      </trkpt>
      <trkpt lat="45.37066" lon="6.19256">
        <ele>1877</ele>
        <time>2024-06-06T05:35:50+00:00</time>
      </trkpt>
      <trkpt lat="45.37069" lon="6.19259">
        <ele>1877</ele>
        <time>2024-06-06T05:35:53+00:00</time>
      </trkpt>
      <trkpt lat="45.37071" lon="6.19261">
        <ele>1885</ele>
        <time>2024-06-06T05:35:56+00:00</time>
      </trkpt>
      <trkpt lat="45.37071" lon="6.19265">
        <ele>1885</ele>
        <time>2024-06-06T05:35:59+00:00</time>
      </trkpt>
      <trkpt lat="45.3707" lon="6.19268">
        <ele>1885</ele>
        <time>2024-06-06T05:36:02+00:00</time>
      </trkpt>
      <trkpt lat="45.37069" lon="6.19271">
        <ele>1886</ele>
        <time>2024-06-06T05:36:05+00:00</time>
      </trkpt>
      <trkpt lat="45.3707" lon="6.19273">
        <ele>1886</ele>
        <time>2024-06-06T05:36:08+00:00</time>
      </trkpt>
      <trkpt lat="45.37072" lon="6.19274">
        <ele>1888</ele>
        <time>2024-06-06T05:36:11+00:00</time>
      </trkpt>
      <trkpt lat="45.37076" lon="6.19274">
        <ele>1888</ele>
        <time>2024-06-06T05:36:14+00:00</time>
      </trkpt>
      <trkpt lat="45.3708" lon="6.19274">
        <ele>1882</ele>
        <time>2024-06-06T05:36:17+00:00</time>
      </trkpt>
      <trkpt lat="45.37083" lon="6.19274">
        <ele>1887</ele>
        <time>2024-06-06T05:36:20+00:00</time>
      </trkpt>
      <trkpt lat="45.37086" lon="6.19277">
        <ele>1887</ele>
        <time>2024-06-06T05:36:23+00:00</time>
      </trkpt>
      <trkpt lat="45.37088" lon="6.19281">
        <ele>1891</ele>
        <time>2024-06-06T05:36:26+00:00</time>
      </trkpt>
      <trkpt lat="45.37092" lon="6.19286">
        <ele>1887</ele>
        <time>2024-06-06T05:36:29+00:00</time>
      </trkpt>
      <trkpt lat="45.37096" lon="6.19288">
        <ele>1887</ele>
        <time>2024-06-06T05:36:32+00:00</time>
      </trkpt>
      <trkpt lat="45.37099" lon="6.19292">
        <ele>1892</ele>
        <time>2024-06-06T05:36:35+00:00</time>
      </trkpt>
      <trkpt lat="45.37103" lon="6.19296">
        <ele>1889</ele>
        <time>2024-06-06T05:36:38+00:00</time>
      </trkpt>
      <trkpt lat="45.37107" lon="6.19299">
        <ele>1889</ele>
        <time>2024-06-06T05:36:41+00:00</time>
      </trkpt>
      <trkpt lat="45.3711" lon="6.19304">
        <ele>1887</ele>
        <time>2024-06-06T05:36:44+00:00</time>
      </trkpt>
      <trkpt lat="45.37114" lon="6.19307">
        <ele>1887</ele>
        <time>2024-06-06T05:36:47+00:00</time>
      </trkpt>
      <trkpt lat="45.37117" lon="6.19311">
        <ele>1890</ele>
        <time>2024-06-06T05:36:50+00:00</time>
      </trkpt>
      <trkpt lat="45.3712" lon="6.19314">
        <ele>1888</ele>
        <time>2024-06-06T05:36:53+00:00</time>
      </trkpt>
      <trkpt lat="45.37124" lon="6.19317">
        <ele>1888</ele>
        <time>2024-06-06T05:36:56+00:00</time>
      </trkpt>
      <trkpt lat="45.37129" lon="6.19319">
        <ele>1888</ele>
        <time>2024-06-06T05:36:59+00:00</time>
      </trkpt>
      <trkpt lat="45.37134" lon="6.19322">
        <ele>1888</ele>
        <time>2024-06-06T05:37:02+00:00</time>
      </trkpt>
      <trkpt lat="45.37137" lon="6.19325">
        <ele>1891</ele>
        <time>2024-06-06T05:37:05+00:00</time>
      </trkpt>
      <trkpt lat="45.3714" lon="6.1933">
        <ele>1889</ele>
        <time>2024-06-06T05:37:08+00:00</time>
      </trkpt>
      <trkpt lat="45.37144" lon="6.19334">
        <ele>1891</ele>
        <time>2024-06-06T05:37:11+00:00</time>
      </trkpt>
      <trkpt lat="45.37149" lon="6.19337">
        <ele>1891</ele>
        <time>2024-06-06T05:37:14+00:00</time>
      </trkpt>
      <trkpt lat="45.37153" lon="6.19337">
        <ele>1889</ele>
        <time>2024-06-06T05:37:17+00:00</time>
      </trkpt>
      <trkpt lat="45.37156" lon="6.19337">
        <ele>1889</ele>
        <time>2024-06-06T05:37:20+00:00</time>
      </trkpt>
      <trkpt lat="45.37159" lon="6.19337">
        <ele>1889</ele>
        <time>2024-06-06T05:37:23+00:00</time>
      </trkpt>
      <trkpt lat="45.37161" lon="6.1934">
        <ele>1888</ele>
        <time>2024-06-06T05:37:26+00:00</time>
      </trkpt>
      <trkpt lat="45.37163" lon="6.19345">
        <ele>1892</ele>
        <time>2024-06-06T05:37:29+00:00</time>
      </trkpt>
      <trkpt lat="45.37166" lon="6.1935">
        <ele>1892</ele>
        <time>2024-06-06T05:37:32+00:00</time>
      </trkpt>
      <trkpt lat="45.37169" lon="6.19353">
        <ele>1892</ele>
        <time>2024-06-06T05:37:35+00:00</time>
      </trkpt>
      <trkpt lat="45.37172" lon="6.19353">
        <ele>1895</ele>
        <time>2024-06-06T05:37:38+00:00</time>
      </trkpt>
      <trkpt lat="45.37175" lon="6.19355">
        <ele>1895</ele>
        <time>2024-06-06T05:37:41+00:00</time>
      </trkpt>
      <trkpt lat="45.37178" lon="6.19359">
        <ele>1895</ele>
        <time>2024-06-06T05:37:44+00:00</time>
      </trkpt>
      <trkpt lat="45.37182" lon="6.19363">
        <ele>1895</ele>
        <time>2024-06-06T05:37:47+00:00</time>
      </trkpt>
      <trkpt lat="45.37185" lon="6.19367">
        <ele>1895</ele>
        <time>2024-06-06T05:37:50+00:00</time>
      </trkpt>
      <trkpt lat="45.37188" lon="6.19369">
        <ele>1895</ele>
        <time>2024-06-06T05:37:53+00:00</time>
      </trkpt>
      <trkpt lat="45.37191" lon="6.19369">
        <ele>1894</ele>
        <time>2024-06-06T05:37:56+00:00</time>
      </trkpt>
      <trkpt lat="45.37193" lon="6.19368">
        <ele>1894</ele>
        <time>2024-06-06T05:37:59+00:00</time>
      </trkpt>
      <trkpt lat="45.37196" lon="6.19369">
        <ele>1894</ele>
        <time>2024-06-06T05:38:02+00:00</time>
      </trkpt>
      <trkpt lat="45.37198" lon="6.1937">
        <ele>1896</ele>
        <time>2024-06-06T05:38:05+00:00</time>
      </trkpt>
      <trkpt lat="45.37199" lon="6.19374">
        <ele>1896</ele>
        <time>2024-06-06T05:38:08+00:00</time>
      </trkpt>
      <trkpt lat="45.372" lon="6.19378">
        <ele>1898</ele>
        <time>2024-06-06T05:38:11+00:00</time>
      </trkpt>
      <trkpt lat="45.37201" lon="6.19384">
        <ele>1902</ele>
        <time>2024-06-06T05:38:14+00:00</time>
      </trkpt>
      <trkpt lat="45.37199" lon="6.19395">
        <ele>1903</ele>
        <time>2024-06-06T05:38:17+00:00</time>
      </trkpt>
      <trkpt lat="45.37197" lon="6.19399">
        <ele>1903</ele>
        <time>2024-06-06T05:38:20+00:00</time>
      </trkpt>
      <trkpt lat="45.37197" lon="6.19404">
        <ele>1906</ele>
        <time>2024-06-06T05:38:23+00:00</time>
      </trkpt>
      <trkpt lat="45.37197" lon="6.19407">
        <ele>1906</ele>
        <time>2024-06-06T05:38:26+00:00</time>
      </trkpt>
      <trkpt lat="45.37198" lon="6.19411">
        <ele>1908</ele>
        <time>2024-06-06T05:38:29+00:00</time>
      </trkpt>
      <trkpt lat="45.37201" lon="6.19414">
        <ele>1909</ele>
        <time>2024-06-06T05:38:32+00:00</time>
      </trkpt>
      <trkpt lat="45.37206" lon="6.19416">
        <ele>1909</ele>
        <time>2024-06-06T05:38:35+00:00</time>
      </trkpt>
      <trkpt lat="45.37209" lon="6.19417">
        <ele>1909</ele>
        <time>2024-06-06T05:38:38+00:00</time>
      </trkpt>
      <trkpt lat="45.37214" lon="6.19416">
        <ele>1907</ele>
        <time>2024-06-06T05:38:41+00:00</time>
      </trkpt>
      <trkpt lat="45.37218" lon="6.19415">
        <ele>1907</ele>
        <time>2024-06-06T05:38:44+00:00</time>
      </trkpt>
      <trkpt lat="45.37221" lon="6.19416">
        <ele>1907</ele>
        <time>2024-06-06T05:38:47+00:00</time>
      </trkpt>
      <trkpt lat="45.37223" lon="6.19418">
        <ele>1907</ele>
        <time>2024-06-06T05:38:50+00:00</time>
      </trkpt>
      <trkpt lat="45.37226" lon="6.19421">
        <ele>1912</ele>
        <time>2024-06-06T05:38:53+00:00</time>
      </trkpt>
      <trkpt lat="45.3723" lon="6.19423">
        <ele>1912</ele>
        <time>2024-06-06T05:38:56+00:00</time>
      </trkpt>
      <trkpt lat="45.37233" lon="6.19425">
        <ele>1905</ele>
        <time>2024-06-06T05:38:59+00:00</time>
      </trkpt>
      <trkpt lat="45.37235" lon="6.19427">
        <ele>1908</ele>
        <time>2024-06-06T05:39:02+00:00</time>
      </trkpt>
      <trkpt lat="45.37237" lon="6.19431">
        <ele>1911</ele>
        <time>2024-06-06T05:39:05+00:00</time>
      </trkpt>
      <trkpt lat="45.37238" lon="6.19433">
        <ele>1911</ele>
        <time>2024-06-06T05:39:08+00:00</time>
      </trkpt>
      <trkpt lat="45.37241" lon="6.19435">
        <ele>1906</ele>
        <time>2024-06-06T05:39:11+00:00</time>
      </trkpt>
      <trkpt lat="45.37244" lon="6.19436">
        <ele>1906</ele>
        <time>2024-06-06T05:39:14+00:00</time>
      </trkpt>
      <trkpt lat="45.3725" lon="6.19436">
        <ele>1904</ele>
        <time>2024-06-06T05:39:17+00:00</time>
      </trkpt>
      <trkpt lat="45.37259" lon="6.19438">
        <ele>1904</ele>
        <time>2024-06-06T05:39:20+00:00</time>
      </trkpt>
      <trkpt lat="45.37264" lon="6.1944">
        <ele>1901</ele>
        <time>2024-06-06T05:39:23+00:00</time>
      </trkpt>
      <trkpt lat="45.37269" lon="6.1944">
        <ele>1904</ele>
        <time>2024-06-06T05:39:26+00:00</time>
      </trkpt>
      <trkpt lat="45.37274" lon="6.19441">
        <ele>1901</ele>
        <time>2024-06-06T05:39:29+00:00</time>
      </trkpt>
      <trkpt lat="45.37279" lon="6.19442">
        <ele>1901</ele>
        <time>2024-06-06T05:39:32+00:00</time>
      </trkpt>
      <trkpt lat="45.37283" lon="6.19445">
        <ele>1898</ele>
        <time>2024-06-06T05:39:35+00:00</time>
      </trkpt>
      <trkpt lat="45.37288" lon="6.19449">
        <ele>1898</ele>
        <time>2024-06-06T05:39:38+00:00</time>
      </trkpt>
      <trkpt lat="45.37292" lon="6.19454">
        <ele>1897</ele>
        <time>2024-06-06T05:39:41+00:00</time>
      </trkpt>
      <trkpt lat="45.37299" lon="6.19461">
        <ele>1899</ele>
        <time>2024-06-06T05:39:44+00:00</time>
      </trkpt>
      <trkpt lat="45.37304" lon="6.19465">
        <ele>1894</ele>
        <time>2024-06-06T05:39:47+00:00</time>
      </trkpt>
      <trkpt lat="45.37308" lon="6.19467">
        <ele>1894</ele>
        <time>2024-06-06T05:39:50+00:00</time>
      </trkpt>
      <trkpt lat="45.37311" lon="6.19468">
        <ele>1890</ele>
        <time>2024-06-06T05:39:53+00:00</time>
      </trkpt>
      <trkpt lat="45.37315" lon="6.19469">
        <ele>1890</ele>
        <time>2024-06-06T05:39:56+00:00</time>
      </trkpt>
      <trkpt lat="45.37318" lon="6.1947">
        <ele>1893</ele>
        <time>2024-06-06T05:39:59+00:00</time>
      </trkpt>
      <trkpt lat="45.37322" lon="6.19473">
        <ele>1890</ele>
        <time>2024-06-06T05:40:02+00:00</time>
      </trkpt>
      <trkpt lat="45.37326" lon="6.19476">
        <ele>1894</ele>
        <time>2024-06-06T05:40:05+00:00</time>
      </trkpt>
      <trkpt lat="45.37331" lon="6.1948">
        <ele>1893</ele>
        <time>2024-06-06T05:40:08+00:00</time>
      </trkpt>
      <trkpt lat="45.37336" lon="6.19483">
        <ele>1893</ele>
        <time>2024-06-06T05:40:11+00:00</time>
      </trkpt>
      <trkpt lat="45.37341" lon="6.19488">
        <ele>1892</ele>
        <time>2024-06-06T05:40:14+00:00</time>
      </trkpt>
      <trkpt lat="45.37345" lon="6.19493">
        <ele>1892</ele>
        <time>2024-06-06T05:40:17+00:00</time>
      </trkpt>
      <trkpt lat="45.37349" lon="6.19497">
        <ele>1895</ele>
        <time>2024-06-06T05:40:20+00:00</time>
      </trkpt>
      <trkpt lat="45.37352" lon="6.19501">
        <ele>1894</ele>
        <time>2024-06-06T05:40:23+00:00</time>
      </trkpt>
      <trkpt lat="45.37355" lon="6.19505">
        <ele>1894</ele>
        <time>2024-06-06T05:40:26+00:00</time>
      </trkpt>
      <trkpt lat="45.37357" lon="6.19506">
        <ele>1894</ele>
        <time>2024-06-06T05:40:29+00:00</time>
      </trkpt>
      <trkpt lat="45.3736" lon="6.19505">
        <ele>1894</ele>
        <time>2024-06-06T05:40:32+00:00</time>
      </trkpt>
      <trkpt lat="45.37362" lon="6.19505">
        <ele>1895</ele>
        <time>2024-06-06T05:40:35+00:00</time>
      </trkpt>
      <trkpt lat="45.37366" lon="6.19506">
        <ele>1891</ele>
        <time>2024-06-06T05:40:38+00:00</time>
      </trkpt>
      <trkpt lat="45.37371" lon="6.19509">
        <ele>1893</ele>
        <time>2024-06-06T05:40:41+00:00</time>
      </trkpt>
      <trkpt lat="45.37375" lon="6.19511">
        <ele>1899</ele>
        <time>2024-06-06T05:40:44+00:00</time>
      </trkpt>
      <trkpt lat="45.37381" lon="6.19514">
        <ele>1898</ele>
        <time>2024-06-06T05:40:47+00:00</time>
      </trkpt>
      <trkpt lat="45.37384" lon="6.19516">
        <ele>1898</ele>
        <time>2024-06-06T05:40:50+00:00</time>
      </trkpt>
      <trkpt lat="45.37391" lon="6.1952">
        <ele>1897</ele>
        <time>2024-06-06T05:40:53+00:00</time>
      </trkpt>
      <trkpt lat="45.37397" lon="6.19518">
        <ele>1897</ele>
        <time>2024-06-06T05:40:56+00:00</time>
      </trkpt>
      <trkpt lat="45.37403" lon="6.1951">
        <ele>1898</ele>
        <time>2024-06-06T05:40:59+00:00</time>
      </trkpt>
      <trkpt lat="45.37412" lon="6.1951">
        <ele>1895</ele>
        <time>2024-06-06T05:41:02+00:00</time>
      </trkpt>
      <trkpt lat="45.37419" lon="6.19506">
        <ele>1895</ele>
        <time>2024-06-06T05:41:05+00:00</time>
      </trkpt>
      <trkpt lat="45.37429" lon="6.19501">
        <ele>1897</ele>
        <time>2024-06-06T05:41:08+00:00</time>
      </trkpt>
      <trkpt lat="45.37442" lon="6.19497">
        <ele>1894</ele>
        <time>2024-06-06T05:41:11+00:00</time>
      </trkpt>
      <trkpt lat="45.37449" lon="6.1949">
        <ele>1891</ele>
        <time>2024-06-06T05:41:14+00:00</time>
      </trkpt>
      <trkpt lat="45.37453" lon="6.19487">
        <ele>1890</ele>
        <time>2024-06-06T05:41:17+00:00</time>
      </trkpt>
      <trkpt lat="45.37453" lon="6.19487">
        <ele>1890</ele>
        <time>2024-06-06T05:41:20+00:00</time>
      </trkpt>
      <trkpt lat="45.37458" lon="6.19482">
        <ele>1890</ele>
        <time>2024-06-06T05:41:23+00:00</time>
      </trkpt>
      <trkpt lat="45.37468" lon="6.19475">
        <ele>1884</ele>
        <time>2024-06-06T05:41:26+00:00</time>
      </trkpt>
      <trkpt lat="45.37476" lon="6.19471">
        <ele>1883</ele>
        <time>2024-06-06T05:41:29+00:00</time>
      </trkpt>
      <trkpt lat="45.37483" lon="6.19469">
        <ele>1878</ele>
        <time>2024-06-06T05:41:32+00:00</time>
      </trkpt>
      <trkpt lat="45.37487" lon="6.19468">
        <ele>1878</ele>
        <time>2024-06-06T05:41:35+00:00</time>
      </trkpt>
      <trkpt lat="45.3749" lon="6.19468">
        <ele>1875</ele>
        <time>2024-06-06T05:41:38+00:00</time>
      </trkpt>
      <trkpt lat="45.37493" lon="6.19467">
        <ele>1875</ele>
        <time>2024-06-06T05:41:41+00:00</time>
      </trkpt>
      <trkpt lat="45.37496" lon="6.19465">
        <ele>1875</ele>
        <time>2024-06-06T05:41:44+00:00</time>
      </trkpt>
      <trkpt lat="45.375" lon="6.19464">
        <ele>1875</ele>
        <time>2024-06-06T05:41:47+00:00</time>
      </trkpt>
      <trkpt lat="45.37506" lon="6.19462">
        <ele>1877</ele>
        <time>2024-06-06T05:41:50+00:00</time>
      </trkpt>
      <trkpt lat="45.37511" lon="6.1946">
        <ele>1876</ele>
        <time>2024-06-06T05:41:53+00:00</time>
      </trkpt>
      <trkpt lat="45.37518" lon="6.19458">
        <ele>1872</ele>
        <time>2024-06-06T05:41:56+00:00</time>
      </trkpt>
      <trkpt lat="45.37525" lon="6.19457">
        <ele>1870</ele>
        <time>2024-06-06T05:41:59+00:00</time>
      </trkpt>
      <trkpt lat="45.37534" lon="6.19456">
        <ele>1869</ele>
        <time>2024-06-06T05:42:02+00:00</time>
      </trkpt>
      <trkpt lat="45.37545" lon="6.19457">
        <ele>1868</ele>
        <time>2024-06-06T05:42:05+00:00</time>
      </trkpt>
      <trkpt lat="45.37554" lon="6.19457">
        <ele>1867</ele>
        <time>2024-06-06T05:42:08+00:00</time>
      </trkpt>
      <trkpt lat="45.37559" lon="6.19458">
        <ele>1867</ele>
        <time>2024-06-06T05:42:11+00:00</time>
      </trkpt>
      <trkpt lat="45.37563" lon="6.19461">
        <ele>1868</ele>
        <time>2024-06-06T05:42:14+00:00</time>
      </trkpt>
      <trkpt lat="45.37567" lon="6.19465">
        <ele>1868</ele>
        <time>2024-06-06T05:42:17+00:00</time>
      </trkpt>
      <trkpt lat="45.37572" lon="6.19466">
        <ele>1865</ele>
        <time>2024-06-06T05:42:20+00:00</time>
      </trkpt>
      <trkpt lat="45.37576" lon="6.19469">
        <ele>1865</ele>
        <time>2024-06-06T05:42:23+00:00</time>
      </trkpt>
      <trkpt lat="45.37582" lon="6.19472">
        <ele>1868</ele>
        <time>2024-06-06T05:42:26+00:00</time>
      </trkpt>
      <trkpt lat="45.37589" lon="6.19475">
        <ele>1868</ele>
        <time>2024-06-06T05:42:29+00:00</time>
      </trkpt>
      <trkpt lat="45.37595" lon="6.19477">
        <ele>1864</ele>
        <time>2024-06-06T05:42:32+00:00</time>
      </trkpt>
      <trkpt lat="45.37599" lon="6.19479">
        <ele>1864</ele>
        <time>2024-06-06T05:42:35+00:00</time>
      </trkpt>
      <trkpt lat="45.37605" lon="6.19484">
        <ele>1869</ele>
        <time>2024-06-06T05:42:38+00:00</time>
      </trkpt>
      <trkpt lat="45.3761" lon="6.19488">
        <ele>1868</ele>
        <time>2024-06-06T05:42:41+00:00</time>
      </trkpt>
      <trkpt lat="45.37614" lon="6.19489">
        <ele>1867</ele>
        <time>2024-06-06T05:42:44+00:00</time>
      </trkpt>
      <trkpt lat="45.37619" lon="6.19488">
        <ele>1867</ele>
        <time>2024-06-06T05:42:47+00:00</time>
      </trkpt>
      <trkpt lat="45.37623" lon="6.19487">
        <ele>1868</ele>
        <time>2024-06-06T05:42:50+00:00</time>
      </trkpt>
      <trkpt lat="45.37625" lon="6.19485">
        <ele>1868</ele>
        <time>2024-06-06T05:42:53+00:00</time>
      </trkpt>
      <trkpt lat="45.37629" lon="6.19483">
        <ele>1868</ele>
        <time>2024-06-06T05:42:56+00:00</time>
      </trkpt>
      <trkpt lat="45.37634" lon="6.19482">
        <ele>1871</ele>
        <time>2024-06-06T05:42:59+00:00</time>
      </trkpt>
      <trkpt lat="45.37641" lon="6.19482">
        <ele>1873</ele>
        <time>2024-06-06T05:43:02+00:00</time>
      </trkpt>
      <trkpt lat="45.37646" lon="6.19482">
        <ele>1873</ele>
        <time>2024-06-06T05:43:05+00:00</time>
      </trkpt>
      <trkpt lat="45.37652" lon="6.19482">
        <ele>1877</ele>
        <time>2024-06-06T05:43:08+00:00</time>
      </trkpt>
      <trkpt lat="45.37661" lon="6.19479">
        <ele>1875</ele>
        <time>2024-06-06T05:43:11+00:00</time>
      </trkpt>
      <trkpt lat="45.37666" lon="6.19477">
        <ele>1875</ele>
        <time>2024-06-06T05:43:14+00:00</time>
      </trkpt>
      <trkpt lat="45.37668" lon="6.19476">
        <ele>1875</ele>
        <time>2024-06-06T05:43:17+00:00</time>
      </trkpt>
      <trkpt lat="45.37674" lon="6.19476">
        <ele>1881</ele>
        <time>2024-06-06T05:43:20+00:00</time>
      </trkpt>
      <trkpt lat="45.37679" lon="6.19476">
        <ele>1881</ele>
        <time>2024-06-06T05:43:23+00:00</time>
      </trkpt>
      <trkpt lat="45.37689" lon="6.19475">
        <ele>1883</ele>
        <time>2024-06-06T05:43:26+00:00</time>
      </trkpt>
      <trkpt lat="45.37697" lon="6.19474">
        <ele>1883</ele>
        <time>2024-06-06T05:43:29+00:00</time>
      </trkpt>
      <trkpt lat="45.37703" lon="6.19472">
        <ele>1884</ele>
        <time>2024-06-06T05:43:32+00:00</time>
      </trkpt>
      <trkpt lat="45.3771" lon="6.19472">
        <ele>1884</ele>
        <time>2024-06-06T05:43:35+00:00</time>
      </trkpt>
      <trkpt lat="45.37718" lon="6.19471">
        <ele>1883</ele>
        <time>2024-06-06T05:43:38+00:00</time>
      </trkpt>
      <trkpt lat="45.37724" lon="6.1947">
        <ele>1882</ele>
        <time>2024-06-06T05:43:41+00:00</time>
      </trkpt>
      <trkpt lat="45.37729" lon="6.1947">
        <ele>1887</ele>
        <time>2024-06-06T05:43:44+00:00</time>
      </trkpt>
      <trkpt lat="45.37733" lon="6.19469">
        <ele>1884</ele>
        <time>2024-06-06T05:43:47+00:00</time>
      </trkpt>
      <trkpt lat="45.37737" lon="6.19469">
        <ele>1884</ele>
        <time>2024-06-06T05:43:50+00:00</time>
      </trkpt>
      <trkpt lat="45.3774" lon="6.19466">
        <ele>1892</ele>
        <time>2024-06-06T05:43:53+00:00</time>
      </trkpt>
      <trkpt lat="45.37744" lon="6.19464">
        <ele>1892</ele>
        <time>2024-06-06T05:43:56+00:00</time>
      </trkpt>
      <trkpt lat="45.37748" lon="6.19464">
        <ele>1892</ele>
        <time>2024-06-06T05:43:59+00:00</time>
      </trkpt>
      <trkpt lat="45.37752" lon="6.19465">
        <ele>1895</ele>
        <time>2024-06-06T05:44:02+00:00</time>
      </trkpt>
      <trkpt lat="45.37757" lon="6.19469">
        <ele>1895</ele>
        <time>2024-06-06T05:44:05+00:00</time>
      </trkpt>
      <trkpt lat="45.37761" lon="6.19472">
        <ele>1901</ele>
        <time>2024-06-06T05:44:08+00:00</time>
      </trkpt>
      <trkpt lat="45.37764" lon="6.19472">
        <ele>1901</ele>
        <time>2024-06-06T05:44:11+00:00</time>
      </trkpt>
      <trkpt lat="45.37767" lon="6.19472">
        <ele>1901</ele>
        <time>2024-06-06T05:44:14+00:00</time>
      </trkpt>
      <trkpt lat="45.3777" lon="6.19472">
        <ele>1906</ele>
        <time>2024-06-06T05:44:17+00:00</time>
      </trkpt>
      <trkpt lat="45.37773" lon="6.19473">
        <ele>1906</ele>
        <time>2024-06-06T05:44:20+00:00</time>
      </trkpt>
      <trkpt lat="45.37775" lon="6.19476">
        <ele>1906</ele>
        <time>2024-06-06T05:44:23+00:00</time>
      </trkpt>
      <trkpt lat="45.37776" lon="6.19478">
        <ele>1906</ele>
        <time>2024-06-06T05:44:26+00:00</time>
      </trkpt>
      <trkpt lat="45.37777" lon="6.19479">
        <ele>1906</ele>
        <time>2024-06-06T05:44:29+00:00</time>
      </trkpt>
      <trkpt lat="45.37781" lon="6.19478">
        <ele>1908</ele>
        <time>2024-06-06T05:44:32+00:00</time>
      </trkpt>
      <trkpt lat="45.37783" lon="6.19479">
        <ele>1908</ele>
        <time>2024-06-06T05:44:35+00:00</time>
      </trkpt>
      <trkpt lat="45.37785" lon="6.19483">
        <ele>1914</ele>
        <time>2024-06-06T05:44:38+00:00</time>
      </trkpt>
      <trkpt lat="45.3779" lon="6.19488">
        <ele>1915</ele>
        <time>2024-06-06T05:44:41+00:00</time>
      </trkpt>
      <trkpt lat="45.37797" lon="6.19496">
        <ele>1918</ele>
        <time>2024-06-06T05:44:44+00:00</time>
      </trkpt>
      <trkpt lat="45.37801" lon="6.195">
        <ele>1922</ele>
        <time>2024-06-06T05:44:47+00:00</time>
      </trkpt>
      <trkpt lat="45.37806" lon="6.19501">
        <ele>1922</ele>
        <time>2024-06-06T05:44:50+00:00</time>
      </trkpt>
      <trkpt lat="45.3781" lon="6.19505">
        <ele>1922</ele>
        <time>2024-06-06T05:44:53+00:00</time>
      </trkpt>
      <trkpt lat="45.37816" lon="6.19511">
        <ele>1928</ele>
        <time>2024-06-06T05:44:56+00:00</time>
      </trkpt>
      <trkpt lat="45.37821" lon="6.19518">
        <ele>1928</ele>
        <time>2024-06-06T05:44:59+00:00</time>
      </trkpt>
      <trkpt lat="45.37827" lon="6.19525">
        <ele>1931</ele>
        <time>2024-06-06T05:45:02+00:00</time>
      </trkpt>
      <trkpt lat="45.37834" lon="6.19532">
        <ele>1936</ele>
        <time>2024-06-06T05:45:05+00:00</time>
      </trkpt>
      <trkpt lat="45.37842" lon="6.19537">
        <ele>1938</ele>
        <time>2024-06-06T05:45:08+00:00</time>
      </trkpt>
      <trkpt lat="45.37846" lon="6.19542">
        <ele>1944</ele>
        <time>2024-06-06T05:45:11+00:00</time>
      </trkpt>
      <trkpt lat="45.37849" lon="6.19546">
        <ele>1944</ele>
        <time>2024-06-06T05:45:14+00:00</time>
      </trkpt>
      <trkpt lat="45.37851" lon="6.19551">
        <ele>1948</ele>
        <time>2024-06-06T05:45:17+00:00</time>
      </trkpt>
      <trkpt lat="45.37854" lon="6.19555">
        <ele>1948</ele>
        <time>2024-06-06T05:45:20+00:00</time>
      </trkpt>
      <trkpt lat="45.37856" lon="6.19558">
        <ele>1948</ele>
        <time>2024-06-06T05:45:23+00:00</time>
      </trkpt>
      <trkpt lat="45.37858" lon="6.1956">
        <ele>1952</ele>
        <time>2024-06-06T05:45:26+00:00</time>
      </trkpt>
      <trkpt lat="45.37862" lon="6.1956">
        <ele>1948</ele>
        <time>2024-06-06T05:45:29+00:00</time>
      </trkpt>
      <trkpt lat="45.37866" lon="6.19561">
        <ele>1948</ele>
        <time>2024-06-06T05:45:32+00:00</time>
      </trkpt>
      <trkpt lat="45.37874" lon="6.19562">
        <ele>1950</ele>
        <time>2024-06-06T05:45:35+00:00</time>
      </trkpt>
      <trkpt lat="45.3788" lon="6.19563">
        <ele>1950</ele>
        <time>2024-06-06T05:45:38+00:00</time>
      </trkpt>
      <trkpt lat="45.37885" lon="6.19563">
        <ele>1953</ele>
        <time>2024-06-06T05:45:41+00:00</time>
      </trkpt>
      <trkpt lat="45.3789" lon="6.19562">
        <ele>1957</ele>
        <time>2024-06-06T05:45:44+00:00</time>
      </trkpt>
      <trkpt lat="45.37894" lon="6.19562">
        <ele>1957</ele>
        <time>2024-06-06T05:45:47+00:00</time>
      </trkpt>
      <trkpt lat="45.37896" lon="6.19564">
        <ele>1957</ele>
        <time>2024-06-06T05:45:50+00:00</time>
      </trkpt>
      <trkpt lat="45.379" lon="6.19567">
        <ele>1957</ele>
        <time>2024-06-06T05:45:53+00:00</time>
      </trkpt>
      <trkpt lat="45.37905" lon="6.19574">
        <ele>1962</ele>
        <time>2024-06-06T05:45:56+00:00</time>
      </trkpt>
      <trkpt lat="45.37914" lon="6.19583">
        <ele>1963</ele>
        <time>2024-06-06T05:45:59+00:00</time>
      </trkpt>
      <trkpt lat="45.3792" lon="6.19589">
        <ele>1958</ele>
        <time>2024-06-06T05:46:02+00:00</time>
      </trkpt>
      <trkpt lat="45.37923" lon="6.1959">
        <ele>1962</ele>
        <time>2024-06-06T05:46:05+00:00</time>
      </trkpt>
      <trkpt lat="45.37927" lon="6.19592">
        <ele>1962</ele>
        <time>2024-06-06T05:46:08+00:00</time>
      </trkpt>
      <trkpt lat="45.37929" lon="6.19596">
        <ele>1962</ele>
        <time>2024-06-06T05:46:11+00:00</time>
      </trkpt>
      <trkpt lat="45.37932" lon="6.19598">
        <ele>1961</ele>
        <time>2024-06-06T05:46:14+00:00</time>
      </trkpt>
      <trkpt lat="45.37936" lon="6.196">
        <ele>1961</ele>
        <time>2024-06-06T05:46:17+00:00</time>
      </trkpt>
      <trkpt lat="45.37946" lon="6.19602">
        <ele>1969</ele>
        <time>2024-06-06T05:46:20+00:00</time>
      </trkpt>
      <trkpt lat="45.37954" lon="6.19605">
        <ele>1970</ele>
        <time>2024-06-06T05:46:23+00:00</time>
      </trkpt>
      <trkpt lat="45.3796" lon="6.19607">
        <ele>1972</ele>
        <time>2024-06-06T05:46:26+00:00</time>
      </trkpt>
      <trkpt lat="45.37968" lon="6.19608">
        <ele>1972</ele>
        <time>2024-06-06T05:46:29+00:00</time>
      </trkpt>
      <trkpt lat="45.37973" lon="6.19609">
        <ele>1974</ele>
        <time>2024-06-06T05:46:32+00:00</time>
      </trkpt>
      <trkpt lat="45.3798" lon="6.19607">
        <ele>1974</ele>
        <time>2024-06-06T05:46:35+00:00</time>
      </trkpt>
      <trkpt lat="45.37987" lon="6.19604">
        <ele>1978</ele>
        <time>2024-06-06T05:46:38+00:00</time>
      </trkpt>
      <trkpt lat="45.3799" lon="6.19604">
        <ele>1978</ele>
        <time>2024-06-06T05:46:41+00:00</time>
      </trkpt>
      <trkpt lat="45.37993" lon="6.19606">
        <ele>1985</ele>
        <time>2024-06-06T05:46:44+00:00</time>
      </trkpt>
      <trkpt lat="45.37995" lon="6.19609">
        <ele>1985</ele>
        <time>2024-06-06T05:46:47+00:00</time>
      </trkpt>
      <trkpt lat="45.37998" lon="6.19613">
        <ele>1988</ele>
        <time>2024-06-06T05:46:50+00:00</time>
      </trkpt>
      <trkpt lat="45.38002" lon="6.19618">
        <ele>1993</ele>
        <time>2024-06-06T05:46:53+00:00</time>
      </trkpt>
      <trkpt lat="45.38007" lon="6.19622">
        <ele>1996</ele>
        <time>2024-06-06T05:46:56+00:00</time>
      </trkpt>
      <trkpt lat="45.38011" lon="6.19629">
        <ele>2002</ele>
        <time>2024-06-06T05:46:59+00:00</time>
      </trkpt>
      <trkpt lat="45.38014" lon="6.19633">
        <ele>2004</ele>
        <time>2024-06-06T05:47:02+00:00</time>
      </trkpt>
      <trkpt lat="45.38017" lon="6.1964">
        <ele>2004</ele>
        <time>2024-06-06T05:47:05+00:00</time>
      </trkpt>
      <trkpt lat="45.38021" lon="6.19647">
        <ele>2013</ele>
        <time>2024-06-06T05:47:08+00:00</time>
      </trkpt>
      <trkpt lat="45.38024" lon="6.19653">
        <ele>2014</ele>
        <time>2024-06-06T05:47:11+00:00</time>
      </trkpt>
      <trkpt lat="45.38027" lon="6.19659">
        <ele>2014</ele>
        <time>2024-06-06T05:47:14+00:00</time>
      </trkpt>
      <trkpt lat="45.38029" lon="6.19662">
        <ele>2015</ele>
        <time>2024-06-06T05:47:17+00:00</time>
      </trkpt>
      <trkpt lat="45.3803" lon="6.19663">
        <ele>2021</ele>
        <time>2024-06-06T05:47:20+00:00</time>
      </trkpt>
      <trkpt lat="45.38034" lon="6.19666">
        <ele>2021</ele>
        <time>2024-06-06T05:47:23+00:00</time>
      </trkpt>
      <trkpt lat="45.38042" lon="6.19672">
        <ele>2025</ele>
        <time>2024-06-06T05:47:26+00:00</time>
      </trkpt>
      <trkpt lat="45.38047" lon="6.19684">
        <ele>2025</ele>
        <time>2024-06-06T05:47:29+00:00</time>
      </trkpt>
      <trkpt lat="45.38051" lon="6.1969">
        <ele>2035</ele>
        <time>2024-06-06T05:47:32+00:00</time>
      </trkpt>
      <trkpt lat="45.38054" lon="6.19688">
        <ele>2035</ele>
        <time>2024-06-06T05:47:35+00:00</time>
      </trkpt>
      <trkpt lat="45.38059" lon="6.19689">
        <ele>2035</ele>
        <time>2024-06-06T05:47:38+00:00</time>
      </trkpt>
      <trkpt lat="45.38065" lon="6.1968">
        <ele>2043</ele>
        <time>2024-06-06T05:47:41+00:00</time>
      </trkpt>
      <trkpt lat="45.38068" lon="6.1968">
        <ele>2043</ele>
        <time>2024-06-06T05:47:44+00:00</time>
      </trkpt>
      <trkpt lat="45.38072" lon="6.19667">
        <ele>2053</ele>
        <time>2024-06-06T05:47:47+00:00</time>
      </trkpt>
      <trkpt lat="45.38079" lon="6.19675">
        <ele>2049</ele>
        <time>2024-06-06T05:47:50+00:00</time>
      </trkpt>
      <trkpt lat="45.38083" lon="6.19667">
        <ele>2058</ele>
        <time>2024-06-06T05:47:53+00:00</time>
      </trkpt>
      <trkpt lat="45.38091" lon="6.19659">
        <ele>2067</ele>
        <time>2024-06-06T05:47:56+00:00</time>
      </trkpt>
      <trkpt lat="45.38095" lon="6.19658">
        <ele>2056</ele>
        <time>2024-06-06T05:47:59+00:00</time>
      </trkpt>
      <trkpt lat="45.38101" lon="6.19674">
        <ele>2063</ele>
        <time>2024-06-06T05:48:02+00:00</time>
      </trkpt>
      <trkpt lat="45.38102" lon="6.19689">
        <ele>2058</ele>
        <time>2024-06-06T05:48:05+00:00</time>
      </trkpt>
      <trkpt lat="45.38104" lon="6.19696">
        <ele>2065</ele>
        <time>2024-06-06T05:48:08+00:00</time>
      </trkpt>
      <trkpt lat="45.38108" lon="6.19706">
        <ele>2067</ele>
        <time>2024-06-06T05:48:11+00:00</time>
      </trkpt>
      <trkpt lat="45.38111" lon="6.19712">
        <ele>2060</ele>
        <time>2024-06-06T05:48:14+00:00</time>
      </trkpt>
      <trkpt lat="45.38114" lon="6.19719">
        <ele>2060</ele>
        <time>2024-06-06T05:48:17+00:00</time>
      </trkpt>
      <trkpt lat="45.38122" lon="6.19724">
        <ele>2063</ele>
        <time>2024-06-06T05:48:20+00:00</time>
      </trkpt>
      <trkpt lat="45.38127" lon="6.19728">
        <ele>2063</ele>
        <time>2024-06-06T05:48:23+00:00</time>
      </trkpt>
      <trkpt lat="45.38134" lon="6.19733">
        <ele>2065</ele>
        <time>2024-06-06T05:48:26+00:00</time>
      </trkpt>
      <trkpt lat="45.38147" lon="6.19734">
        <ele>2064</ele>
        <time>2024-06-06T05:48:29+00:00</time>
      </trkpt>
      <trkpt lat="45.38162" lon="6.19738">
        <ele>2066</ele>
        <time>2024-06-06T05:48:32+00:00</time>
      </trkpt>
      <trkpt lat="45.38172" lon="6.19734">
        <ele>2070</ele>
        <time>2024-06-06T05:48:35+00:00</time>
      </trkpt>
      <trkpt lat="45.38183" lon="6.19737">
        <ele>2067</ele>
        <time>2024-06-06T05:48:38+00:00</time>
      </trkpt>
      <trkpt lat="45.38195" lon="6.1974">
        <ele>2071</ele>
        <time>2024-06-06T05:48:41+00:00</time>
      </trkpt>
      <trkpt lat="45.38204" lon="6.19742">
        <ele>2067</ele>
        <time>2024-06-06T05:48:44+00:00</time>
      </trkpt>
      <trkpt lat="45.38211" lon="6.19745">
        <ele>2068</ele>
        <time>2024-06-06T05:48:47+00:00</time>
      </trkpt>
      <trkpt lat="45.38233" lon="6.1975">
        <ele>2067</ele>
        <time>2024-06-06T05:48:50+00:00</time>
      </trkpt>
      <trkpt lat="45.38241" lon="6.19749">
        <ele>2068</ele>
        <time>2024-06-06T05:48:53+00:00</time>
      </trkpt>
      <trkpt lat="45.38251" lon="6.19741">
        <ele>2064</ele>
        <time>2024-06-06T05:48:56+00:00</time>
      </trkpt>
      <trkpt lat="45.38266" lon="6.19744">
        <ele>2067</ele>
        <time>2024-06-06T05:48:59+00:00</time>
      </trkpt>
      <trkpt lat="45.38278" lon="6.19738">
        <ele>2062</ele>
        <time>2024-06-06T05:49:02+00:00</time>
      </trkpt>
      <trkpt lat="45.38288" lon="6.19722">
        <ele>2060</ele>
        <time>2024-06-06T05:49:05+00:00</time>
      </trkpt>
      <trkpt lat="45.3831" lon="6.1971">
        <ele>2049</ele>
        <time>2024-06-06T05:49:08+00:00</time>
      </trkpt>
      <trkpt lat="45.38327" lon="6.19707">
        <ele>2050</ele>
        <time>2024-06-06T05:49:11+00:00</time>
      </trkpt>
      <trkpt lat="45.3835" lon="6.19687">
        <ele>2045</ele>
        <time>2024-06-06T05:49:14+00:00</time>
      </trkpt>
      <trkpt lat="45.38382" lon="6.1966">
        <ele>2041</ele>
        <time>2024-06-06T05:49:17+00:00</time>
      </trkpt>
      <trkpt lat="45.38385" lon="6.19659">
        <ele>2031</ele>
        <time>2024-06-06T05:49:20+00:00</time>
      </trkpt>
      <trkpt lat="45.3839" lon="6.19659">
        <ele>2033</ele>
        <time>2024-06-06T05:49:23+00:00</time>
      </trkpt>
      <trkpt lat="45.38404" lon="6.19644">
        <ele>2029</ele>
        <time>2024-06-06T05:49:26+00:00</time>
      </trkpt>
      <trkpt lat="45.38426" lon="6.19616">
        <ele>2018</ele>
        <time>2024-06-06T05:49:29+00:00</time>
      </trkpt>
      <trkpt lat="45.38435" lon="6.19613">
        <ele>2019</ele>
        <time>2024-06-06T05:49:32+00:00</time>
      </trkpt>
      <trkpt lat="45.38446" lon="6.19602">
        <ele>2021</ele>
        <time>2024-06-06T05:49:35+00:00</time>
      </trkpt>
      <trkpt lat="45.38453" lon="6.19596">
        <ele>2014</ele>
        <time>2024-06-06T05:49:38+00:00</time>
      </trkpt>
      <trkpt lat="45.38455" lon="6.19589">
        <ele>2012</ele>
        <time>2024-06-06T05:49:41+00:00</time>
      </trkpt>
      <trkpt lat="45.38475" lon="6.19574">
        <ele>2024</ele>
        <time>2024-06-06T05:49:44+00:00</time>
      </trkpt>
      <trkpt lat="45.38483" lon="6.19569">
        <ele>2022</ele>
        <time>2024-06-06T05:49:47+00:00</time>
      </trkpt>
      <trkpt lat="45.38503" lon="6.19568">
        <ele>2028</ele>
        <time>2024-06-06T05:49:50+00:00</time>
      </trkpt>
      <trkpt lat="45.38514" lon="6.19567">
        <ele>2029</ele>
        <time>2024-06-06T05:49:53+00:00</time>
      </trkpt>
      <trkpt lat="45.38525" lon="6.19575">
        <ele>2033</ele>
        <time>2024-06-06T05:49:56+00:00</time>
      </trkpt>
      <trkpt lat="45.38528" lon="6.19586">
        <ele>2035</ele>
        <time>2024-06-06T05:49:59+00:00</time>
      </trkpt>
      <trkpt lat="45.38534" lon="6.19596">
        <ele>2038</ele>
        <time>2024-06-06T05:50:02+00:00</time>
      </trkpt>
      <trkpt lat="45.38541" lon="6.19608">
        <ele>2041</ele>
        <time>2024-06-06T05:50:05+00:00</time>
      </trkpt>
      <trkpt lat="45.38549" lon="6.1962">
        <ele>2041</ele>
        <time>2024-06-06T05:50:08+00:00</time>
      </trkpt>
      <trkpt lat="45.38556" lon="6.19629">
        <ele>2043</ele>
        <time>2024-06-06T05:50:11+00:00</time>
      </trkpt>
      <trkpt lat="45.38561" lon="6.19645">
        <ele>2050</ele>
        <time>2024-06-06T05:50:14+00:00</time>
      </trkpt>
      <trkpt lat="45.38559" lon="6.19671">
        <ele>2057</ele>
        <time>2024-06-06T05:50:17+00:00</time>
      </trkpt>
      <trkpt lat="45.3856" lon="6.1968">
        <ele>2057</ele>
        <time>2024-06-06T05:50:20+00:00</time>
      </trkpt>
      <trkpt lat="45.38559" lon="6.19715">
        <ele>2069</ele>
        <time>2024-06-06T05:50:23+00:00</time>
      </trkpt>
      <trkpt lat="45.38563" lon="6.19728">
        <ele>2077</ele>
        <time>2024-06-06T05:50:26+00:00</time>
      </trkpt>
      <trkpt lat="45.38567" lon="6.19745">
        <ele>2082</ele>
        <time>2024-06-06T05:50:29+00:00</time>
      </trkpt>
      <trkpt lat="45.3857" lon="6.19755">
        <ele>2085</ele>
        <time>2024-06-06T05:50:32+00:00</time>
      </trkpt>
      <trkpt lat="45.38573" lon="6.19761">
        <ele>2090</ele>
        <time>2024-06-06T05:50:35+00:00</time>
      </trkpt>
      <trkpt lat="45.38579" lon="6.19765">
        <ele>2090</ele>
        <time>2024-06-06T05:50:38+00:00</time>
      </trkpt>
      <trkpt lat="45.38586" lon="6.19771">
        <ele>2096</ele>
        <time>2024-06-06T05:50:41+00:00</time>
      </trkpt>
      <trkpt lat="45.38594" lon="6.19779">
        <ele>2100</ele>
        <time>2024-06-06T05:50:44+00:00</time>
      </trkpt>
      <trkpt lat="45.38598" lon="6.19783">
        <ele>2103</ele>
        <time>2024-06-06T05:50:47+00:00</time>
      </trkpt>
      <trkpt lat="45.38602" lon="6.19793">
        <ele>2107</ele>
        <time>2024-06-06T05:50:50+00:00</time>
      </trkpt>
      <trkpt lat="45.38611" lon="6.1981">
        <ele>2112</ele>
        <time>2024-06-06T05:50:53+00:00</time>
      </trkpt>
      <trkpt lat="45.38617" lon="6.19823">
        <ele>2111</ele>
        <time>2024-06-06T05:50:56+00:00</time>
      </trkpt>
      <trkpt lat="45.38626" lon="6.19835">
        <ele>2120</ele>
        <time>2024-06-06T05:50:59+00:00</time>
      </trkpt>
      <trkpt lat="45.38631" lon="6.1986">
        <ele>2127</ele>
        <time>2024-06-06T05:51:02+00:00</time>
      </trkpt>
      <trkpt lat="45.38636" lon="6.1986">
        <ele>2127</ele>
        <time>2024-06-06T05:51:05+00:00</time>
      </trkpt>
      <trkpt lat="45.38642" lon="6.19852">
        <ele>2132</ele>
        <time>2024-06-06T05:51:08+00:00</time>
      </trkpt>
      <trkpt lat="45.3865" lon="6.19847">
        <ele>2131</ele>
        <time>2024-06-06T05:51:11+00:00</time>
      </trkpt>
      <trkpt lat="45.38656" lon="6.19833">
        <ele>2142</ele>
        <time>2024-06-06T05:51:14+00:00</time>
      </trkpt>
      <trkpt lat="45.38664" lon="6.19832">
        <ele>2149</ele>
        <time>2024-06-06T05:51:17+00:00</time>
      </trkpt>
      <trkpt lat="45.38671" lon="6.19808">
        <ele>2158</ele>
        <time>2024-06-06T05:51:20+00:00</time>
      </trkpt>
      <trkpt lat="45.38684" lon="6.1977">
        <ele>2167</ele>
        <time>2024-06-06T05:51:23+00:00</time>
      </trkpt>
      <trkpt lat="45.38692" lon="6.19746">
        <ele>2172</ele>
        <time>2024-06-06T05:51:26+00:00</time>
      </trkpt>
      <trkpt lat="45.38696" lon="6.19726">
        <ele>2177</ele>
        <time>2024-06-06T05:51:29+00:00</time>
      </trkpt>
      <trkpt lat="45.38702" lon="6.19718">
        <ele>2175</ele>
        <time>2024-06-06T05:51:32+00:00</time>
      </trkpt>
      <trkpt lat="45.38725" lon="6.19728">
        <ele>2188</ele>
        <time>2024-06-06T05:51:35+00:00</time>
      </trkpt>
      <trkpt lat="45.38742" lon="6.1973">
        <ele>2192</ele>
        <time>2024-06-06T05:51:38+00:00</time>
      </trkpt>
      <trkpt lat="45.38765" lon="6.19737">
        <ele>2200</ele>
        <time>2024-06-06T05:51:41+00:00</time>
      </trkpt>
      <trkpt lat="45.38787" lon="6.19751">
        <ele>2214</ele>
        <time>2024-06-06T05:51:44+00:00</time>
      </trkpt>
      <trkpt lat="45.3882" lon="6.19758">
        <ele>2221</ele>
        <time>2024-06-06T05:51:47+00:00</time>
      </trkpt>
      <trkpt lat="45.3883" lon="6.19768">
        <ele>2220</ele>
        <time>2024-06-06T05:51:50+00:00</time>
      </trkpt>
      <trkpt lat="45.38844" lon="6.19794">
        <ele>2224</ele>
        <time>2024-06-06T05:51:53+00:00</time>
      </trkpt>
      <trkpt lat="45.38866" lon="6.19808">
        <ele>2226</ele>
        <time>2024-06-06T05:51:56+00:00</time>
      </trkpt>
      <trkpt lat="45.38894" lon="6.19812">
        <ele>2232</ele>
        <time>2024-06-06T05:51:59+00:00</time>
      </trkpt>
      <trkpt lat="45.38905" lon="6.19814">
        <ele>2234</ele>
        <time>2024-06-06T05:52:02+00:00</time>
      </trkpt>
      <trkpt lat="45.3894" lon="6.19825">
        <ele>2242</ele>
        <time>2024-06-06T05:52:05+00:00</time>
      </trkpt>
      <trkpt lat="45.38968" lon="6.19848">
        <ele>2246</ele>
        <time>2024-06-06T05:52:08+00:00</time>
      </trkpt>
      <trkpt lat="45.38997" lon="6.19867">
        <ele>2255</ele>
        <time>2024-06-06T05:52:11+00:00</time>
      </trkpt>
      <trkpt lat="45.39012" lon="6.19855">
        <ele>2260</ele>
        <time>2024-06-06T05:52:14+00:00</time>
      </trkpt>
      <trkpt lat="45.39032" lon="6.19859">
        <ele>2260</ele>
        <time>2024-06-06T05:52:17+00:00</time>
      </trkpt>
      <trkpt lat="45.39046" lon="6.19868">
        <ele>2262</ele>
        <time>2024-06-06T05:52:20+00:00</time>
      </trkpt>
      <trkpt lat="45.39054" lon="6.19872">
        <ele>2264</ele>
        <time>2024-06-06T05:52:23+00:00</time>
      </trkpt>
      <trkpt lat="45.39064" lon="6.19878">
        <ele>2268</ele>
        <time>2024-06-06T05:52:26+00:00</time>
      </trkpt>
      <trkpt lat="45.39083" lon="6.19882">
        <ele>2271</ele>
        <time>2024-06-06T05:52:29+00:00</time>
      </trkpt>
      <trkpt lat="45.39104" lon="6.19883">
        <ele>2270</ele>
        <time>2024-06-06T05:52:32+00:00</time>
      </trkpt>
      <trkpt lat="45.39126" lon="6.19885">
        <ele>2269</ele>
        <time>2024-06-06T05:52:35+00:00</time>
      </trkpt>
      <trkpt lat="45.39141" lon="6.19877">
        <ele>2265</ele>
        <time>2024-06-06T05:52:38+00:00</time>
      </trkpt>
      <trkpt lat="45.3915" lon="6.1988">
        <ele>2264</ele>
        <time>2024-06-06T05:52:41+00:00</time>
      </trkpt>
      <trkpt lat="45.3917" lon="6.199">
        <ele>2262</ele>
        <time>2024-06-06T05:52:44+00:00</time>
      </trkpt>
      <trkpt lat="45.39187" lon="6.1991">
        <ele>2258</ele>
        <time>2024-06-06T05:52:47+00:00</time>
      </trkpt>
      <trkpt lat="45.392" lon="6.1991">
        <ele>2260</ele>
        <time>2024-06-06T05:52:50+00:00</time>
      </trkpt>
      <trkpt lat="45.3921" lon="6.19903">
        <ele>2255</ele>
        <time>2024-06-06T05:52:53+00:00</time>
      </trkpt>
      <trkpt lat="45.39215" lon="6.19907">
        <ele>2253</ele>
        <time>2024-06-06T05:52:56+00:00</time>
      </trkpt>
      <trkpt lat="45.39224" lon="6.19929">
        <ele>2260</ele>
        <time>2024-06-06T05:52:59+00:00</time>
      </trkpt>
      <trkpt lat="45.39234" lon="6.19956">
        <ele>2260</ele>
        <time>2024-06-06T05:53:02+00:00</time>
      </trkpt>
      <trkpt lat="45.39238" lon="6.19982">
        <ele>2260</ele>
        <time>2024-06-06T05:53:05+00:00</time>
      </trkpt>
      <trkpt lat="45.39248" lon="6.20001">
        <ele>2263</ele>
        <time>2024-06-06T05:53:08+00:00</time>
      </trkpt>
      <trkpt lat="45.39259" lon="6.20005">
        <ele>2260</ele>
        <time>2024-06-06T05:53:11+00:00</time>
      </trkpt>
      <trkpt lat="45.39265" lon="6.2001">
        <ele>2255</ele>
        <time>2024-06-06T05:53:14+00:00</time>
      </trkpt>
      <trkpt lat="45.3927" lon="6.2002">
        <ele>2252</ele>
        <time>2024-06-06T05:53:17+00:00</time>
      </trkpt>
      <trkpt lat="45.39281" lon="6.20023">
        <ele>2244</ele>
        <time>2024-06-06T05:53:20+00:00</time>
      </trkpt>
      <trkpt lat="45.39306" lon="6.20051">
        <ele>2230</ele>
        <time>2024-06-06T05:53:23+00:00</time>
      </trkpt>
      <trkpt lat="45.39344" lon="6.20084">
        <ele>2214</ele>
        <time>2024-06-06T05:53:26+00:00</time>
      </trkpt>
      <trkpt lat="45.39356" lon="6.20091">
        <ele>2208</ele>
        <time>2024-06-06T05:53:29+00:00</time>
      </trkpt>
      <trkpt lat="45.3937" lon="6.20101">
        <ele>2206</ele>
        <time>2024-06-06T05:53:32+00:00</time>
      </trkpt>
      <trkpt lat="45.39384" lon="6.20105">
        <ele>2202</ele>
        <time>2024-06-06T05:53:35+00:00</time>
      </trkpt>
      <trkpt lat="45.39394" lon="6.20102">
        <ele>2201</ele>
        <time>2024-06-06T05:53:38+00:00</time>
      </trkpt>
      <trkpt lat="45.39404" lon="6.20103">
        <ele>2200</ele>
        <time>2024-06-06T05:53:41+00:00</time>
      </trkpt>
      <trkpt lat="45.39414" lon="6.20107">
        <ele>2196</ele>
        <time>2024-06-06T05:53:44+00:00</time>
      </trkpt>
      <trkpt lat="45.3943" lon="6.20105">
        <ele>2197</ele>
        <time>2024-06-06T05:53:47+00:00</time>
      </trkpt>
      <trkpt lat="45.3945" lon="6.20097">
        <ele>2196</ele>
        <time>2024-06-06T05:53:50+00:00</time>
      </trkpt>
      <trkpt lat="45.39466" lon="6.20082">
        <ele>2197</ele>
        <time>2024-06-06T05:53:53+00:00</time>
      </trkpt>
      <trkpt lat="45.39505" lon="6.20072">
        <ele>2204</ele>
        <time>2024-06-06T05:53:56+00:00</time>
      </trkpt>
      <trkpt lat="45.39525" lon="6.20071">
        <ele>2214</ele>
        <time>2024-06-06T05:53:59+00:00</time>
      </trkpt>
      <trkpt lat="45.3955" lon="6.20062">
        <ele>2229</ele>
        <time>2024-06-06T05:54:02+00:00</time>
      </trkpt>
      <trkpt lat="45.39556" lon="6.20065">
        <ele>2229</ele>
        <time>2024-06-06T05:54:05+00:00</time>
      </trkpt>
      <trkpt lat="45.39561" lon="6.20066">
        <ele>2237</ele>
        <time>2024-06-06T05:54:08+00:00</time>
      </trkpt>
      <trkpt lat="45.39568" lon="6.20061">
        <ele>2237</ele>
        <time>2024-06-06T05:54:11+00:00</time>
      </trkpt>
      <trkpt lat="45.39574" lon="6.20062">
        <ele>2235</ele>
        <time>2024-06-06T05:54:14+00:00</time>
      </trkpt>
      <trkpt lat="45.39581" lon="6.20064">
        <ele>2248</ele>
        <time>2024-06-06T05:54:17+00:00</time>
      </trkpt>
      <trkpt lat="45.39589" lon="6.20049">
        <ele>2234</ele>
        <time>2024-06-06T05:54:20+00:00</time>
      </trkpt>
      <trkpt lat="45.39596" lon="6.20043">
        <ele>2243</ele>
        <time>2024-06-06T05:54:23+00:00</time>
      </trkpt>
      <trkpt lat="45.39599" lon="6.20035">
        <ele>2239</ele>
        <time>2024-06-06T05:54:26+00:00</time>
      </trkpt>
      <trkpt lat="45.39604" lon="6.20029">
        <ele>2234</ele>
        <time>2024-06-06T05:54:29+00:00</time>
      </trkpt>
      <trkpt lat="45.39604" lon="6.20008">
        <ele>2226</ele>
        <time>2024-06-06T05:54:32+00:00</time>
      </trkpt>
      <trkpt lat="45.39601" lon="6.19984">
        <ele>2219</ele>
        <time>2024-06-06T05:54:35+00:00</time>
      </trkpt>
      <trkpt lat="45.39601" lon="6.19965">
        <ele>2214</ele>
        <time>2024-06-06T05:54:38+00:00</time>
      </trkpt>
      <trkpt lat="45.39603" lon="6.19946">
        <ele>2217</ele>
        <time>2024-06-06T05:54:41+00:00</time>
      </trkpt>
      <trkpt lat="45.39621" lon="6.19929">
        <ele>2219</ele>
        <time>2024-06-06T05:54:44+00:00</time>
      </trkpt>
      <trkpt lat="45.39633" lon="6.19919">
        <ele>2221</ele>
        <time>2024-06-06T05:54:47+00:00</time>
      </trkpt>
      <trkpt lat="45.39637" lon="6.19907">
        <ele>2222</ele>
        <time>2024-06-06T05:54:50+00:00</time>
      </trkpt>
      <trkpt lat="45.39647" lon="6.19896">
        <ele>2229</ele>
        <time>2024-06-06T05:54:53+00:00</time>
      </trkpt>
      <trkpt lat="45.39653" lon="6.19874">
        <ele>2226</ele>
        <time>2024-06-06T05:54:56+00:00</time>
      </trkpt>
      <trkpt lat="45.39657" lon="6.19867">
        <ele>2233</ele>
        <time>2024-06-06T05:54:59+00:00</time>
      </trkpt>
      <trkpt lat="45.3966" lon="6.19866">
        <ele>2231</ele>
        <time>2024-06-06T05:55:02+00:00</time>
      </trkpt>
      <trkpt lat="45.39666" lon="6.19865">
        <ele>2231</ele>
        <time>2024-06-06T05:55:05+00:00</time>
      </trkpt>
      <trkpt lat="45.39673" lon="6.19864">
        <ele>2230</ele>
        <time>2024-06-06T05:55:08+00:00</time>
      </trkpt>
      <trkpt lat="45.39679" lon="6.19862">
        <ele>2230</ele>
        <time>2024-06-06T05:55:11+00:00</time>
      </trkpt>
      <trkpt lat="45.39683" lon="6.19863">
        <ele>2231</ele>
        <time>2024-06-06T05:55:14+00:00</time>
      </trkpt>
      <trkpt lat="45.39686" lon="6.1986">
        <ele>2231</ele>
        <time>2024-06-06T05:55:17+00:00</time>
      </trkpt>
      <trkpt lat="45.39686" lon="6.19858">
        <ele>2228</ele>
        <time>2024-06-06T05:55:20+00:00</time>
      </trkpt>
      <trkpt lat="45.3969" lon="6.19862">
        <ele>2224</ele>
        <time>2024-06-06T05:55:23+00:00</time>
      </trkpt>
      <trkpt lat="45.3969" lon="6.19867">
        <ele>2226</ele>
        <time>2024-06-06T05:55:26+00:00</time>
      </trkpt>
      <trkpt lat="45.39695" lon="6.19875">
        <ele>2226</ele>
        <time>2024-06-06T05:55:29+00:00</time>
      </trkpt>
      <trkpt lat="45.39697" lon="6.19879">
        <ele>2226</ele>
        <time>2024-06-06T05:55:32+00:00</time>
      </trkpt>
      <trkpt lat="45.39701" lon="6.19895">
        <ele>2218</ele>
        <time>2024-06-06T05:55:35+00:00</time>
      </trkpt>
      <trkpt lat="45.39706" lon="6.19902">
        <ele>2219</ele>
        <time>2024-06-06T05:55:38+00:00</time>
      </trkpt>
      <trkpt lat="45.39709" lon="6.19908">
        <ele>2219</ele>
        <time>2024-06-06T05:55:41+00:00</time>
      </trkpt>
      <trkpt lat="45.3972" lon="6.19921">
        <ele>2204</ele>
        <time>2024-06-06T05:55:44+00:00</time>
      </trkpt>
      <trkpt lat="45.39727" lon="6.19926">
        <ele>2204</ele>
        <time>2024-06-06T05:55:47+00:00</time>
      </trkpt>
      <trkpt lat="45.39731" lon="6.19931">
        <ele>2199</ele>
        <time>2024-06-06T05:55:50+00:00</time>
      </trkpt>
      <trkpt lat="45.39736" lon="6.19938">
        <ele>2199</ele>
        <time>2024-06-06T05:55:53+00:00</time>
      </trkpt>
      <trkpt lat="45.39743" lon="6.19943">
        <ele>2190</ele>
        <time>2024-06-06T05:55:56+00:00</time>
      </trkpt>
      <trkpt lat="45.39745" lon="6.19946">
        <ele>2190</ele>
        <time>2024-06-06T05:55:59+00:00</time>
      </trkpt>
      <trkpt lat="45.3975" lon="6.1995">
        <ele>2184</ele>
        <time>2024-06-06T05:56:02+00:00</time>
      </trkpt>
      <trkpt lat="45.39753" lon="6.19951">
        <ele>2186</ele>
        <time>2024-06-06T05:56:05+00:00</time>
      </trkpt>
      <trkpt lat="45.39756" lon="6.19952">
        <ele>2186</ele>
        <time>2024-06-06T05:56:08+00:00</time>
      </trkpt>
      <trkpt lat="45.39755" lon="6.19948">
        <ele>2184</ele>
        <time>2024-06-06T05:56:11+00:00</time>
      </trkpt>
      <trkpt lat="45.39756" lon="6.19944">
        <ele>2184</ele>
        <time>2024-06-06T05:56:14+00:00</time>
      </trkpt>
      <trkpt lat="45.39764" lon="6.1995">
        <ele>2177</ele>
        <time>2024-06-06T05:56:17+00:00</time>
      </trkpt>
      <trkpt lat="45.39771" lon="6.19956">
        <ele>2169</ele>
        <time>2024-06-06T05:56:20+00:00</time>
      </trkpt>
      <trkpt lat="45.39778" lon="6.1996">
        <ele>2169</ele>
        <time>2024-06-06T05:56:23+00:00</time>
      </trkpt>
      <trkpt lat="45.39784" lon="6.19963">
        <ele>2169</ele>
        <time>2024-06-06T05:56:26+00:00</time>
      </trkpt>
      <trkpt lat="45.39786" lon="6.19965">
        <ele>2169</ele>
        <time>2024-06-06T05:56:29+00:00</time>
      </trkpt>
      <trkpt lat="45.39791" lon="6.19967">
        <ele>2163</ele>
        <time>2024-06-06T05:56:32+00:00</time>
      </trkpt>
      <trkpt lat="45.39795" lon="6.19968">
        <ele>2163</ele>
        <time>2024-06-06T05:56:35+00:00</time>
      </trkpt>
      <trkpt lat="45.39796" lon="6.19966">
        <ele>2163</ele>
        <time>2024-06-06T05:56:38+00:00</time>
      </trkpt>
      <trkpt lat="45.39801" lon="6.19965">
        <ele>2156</ele>
        <time>2024-06-06T05:56:41+00:00</time>
      </trkpt>
      <trkpt lat="45.39803" lon="6.19963">
        <ele>2156</ele>
        <time>2024-06-06T05:56:44+00:00</time>
      </trkpt>
      <trkpt lat="45.39811" lon="6.19963">
        <ele>2151</ele>
        <time>2024-06-06T05:56:47+00:00</time>
      </trkpt>
      <trkpt lat="45.39813" lon="6.19964">
        <ele>2151</ele>
        <time>2024-06-06T05:56:50+00:00</time>
      </trkpt>
      <trkpt lat="45.39818" lon="6.19965">
        <ele>2151</ele>
        <time>2024-06-06T05:56:53+00:00</time>
      </trkpt>
      <trkpt lat="45.39821" lon="6.19963">
        <ele>2147</ele>
        <time>2024-06-06T05:56:56+00:00</time>
      </trkpt>
      <trkpt lat="45.39824" lon="6.19961">
        <ele>2147</ele>
        <time>2024-06-06T05:56:59+00:00</time>
      </trkpt>
      <trkpt lat="45.3983" lon="6.1996">
        <ele>2135</ele>
        <time>2024-06-06T05:57:02+00:00</time>
      </trkpt>
      <trkpt lat="45.39833" lon="6.1996">
        <ele>2135</ele>
        <time>2024-06-06T05:57:05+00:00</time>
      </trkpt>
      <trkpt lat="45.39837" lon="6.19959">
        <ele>2135</ele>
        <time>2024-06-06T05:57:08+00:00</time>
      </trkpt>
      <trkpt lat="45.39841" lon="6.19958">
        <ele>2134</ele>
        <time>2024-06-06T05:57:11+00:00</time>
      </trkpt>
      <trkpt lat="45.39845" lon="6.19956">
        <ele>2134</ele>
        <time>2024-06-06T05:57:14+00:00</time>
      </trkpt>
      <trkpt lat="45.39851" lon="6.19953">
        <ele>2133</ele>
        <time>2024-06-06T05:57:17+00:00</time>
      </trkpt>
      <trkpt lat="45.39855" lon="6.19952">
        <ele>2133</ele>
        <time>2024-06-06T05:57:20+00:00</time>
      </trkpt>
      <trkpt lat="45.39858" lon="6.19949">
        <ele>2128</ele>
        <time>2024-06-06T05:57:23+00:00</time>
      </trkpt>
      <trkpt lat="45.39861" lon="6.19947">
        <ele>2127</ele>
        <time>2024-06-06T05:57:26+00:00</time>
      </trkpt>
      <trkpt lat="45.39864" lon="6.19947">
        <ele>2127</ele>
        <time>2024-06-06T05:57:29+00:00</time>
      </trkpt>
      <trkpt lat="45.39865" lon="6.19945">
        <ele>2127</ele>
        <time>2024-06-06T05:57:32+00:00</time>
      </trkpt>
      <trkpt lat="45.39867" lon="6.19943">
        <ele>2127</ele>
        <time>2024-06-06T05:57:35+00:00</time>
      </trkpt>
      <trkpt lat="45.39872" lon="6.19941">
        <ele>2129</ele>
        <time>2024-06-06T05:57:38+00:00</time>
      </trkpt>
      <trkpt lat="45.39878" lon="6.19938">
        <ele>2124</ele>
        <time>2024-06-06T05:57:41+00:00</time>
      </trkpt>
      <trkpt lat="45.39882" lon="6.19936">
        <ele>2124</ele>
        <time>2024-06-06T05:57:44+00:00</time>
      </trkpt>
      <trkpt lat="45.39885" lon="6.19934">
        <ele>2124</ele>
        <time>2024-06-06T05:57:47+00:00</time>
      </trkpt>
      <trkpt lat="45.39887" lon="6.19932">
        <ele>2124</ele>
        <time>2024-06-06T05:57:50+00:00</time>
      </trkpt>
      <trkpt lat="45.39889" lon="6.19929">
        <ele>2123</ele>
        <time>2024-06-06T05:57:53+00:00</time>
      </trkpt>
      <trkpt lat="45.39892" lon="6.19927">
        <ele>2119</ele>
        <time>2024-06-06T05:57:56+00:00</time>
      </trkpt>
      <trkpt lat="45.39896" lon="6.19924">
        <ele>2119</ele>
        <time>2024-06-06T05:57:59+00:00</time>
      </trkpt>
      <trkpt lat="45.39901" lon="6.1992">
        <ele>2121</ele>
        <time>2024-06-06T05:58:02+00:00</time>
      </trkpt>
      <trkpt lat="45.39906" lon="6.19914">
        <ele>2117</ele>
        <time>2024-06-06T05:58:05+00:00</time>
      </trkpt>
      <trkpt lat="45.39909" lon="6.19909">
        <ele>2112</ele>
        <time>2024-06-06T05:58:08+00:00</time>
      </trkpt>
      <trkpt lat="45.39914" lon="6.19901">
        <ele>2116</ele>
        <time>2024-06-06T05:58:11+00:00</time>
      </trkpt>
      <trkpt lat="45.39918" lon="6.19897">
        <ele>2109</ele>
        <time>2024-06-06T05:58:14+00:00</time>
      </trkpt>
      <trkpt lat="45.3992" lon="6.19895">
        <ele>2109</ele>
        <time>2024-06-06T05:58:17+00:00</time>
      </trkpt>
      <trkpt lat="45.39922" lon="6.19893">
        <ele>2111</ele>
        <time>2024-06-06T05:58:20+00:00</time>
      </trkpt>
      <trkpt lat="45.39923" lon="6.19891">
        <ele>2111</ele>
        <time>2024-06-06T05:58:23+00:00</time>
      </trkpt>
      <trkpt lat="45.39924" lon="6.1989">
        <ele>2105</ele>
        <time>2024-06-06T05:58:26+00:00</time>
      </trkpt>
      <trkpt lat="45.39927" lon="6.19888">
        <ele>2105</ele>
        <time>2024-06-06T05:58:29+00:00</time>
      </trkpt>
      <trkpt lat="45.39929" lon="6.19887">
        <ele>2105</ele>
        <time>2024-06-06T05:58:32+00:00</time>
      </trkpt>
      <trkpt lat="45.39928" lon="6.19885">
        <ele>2105</ele>
        <time>2024-06-06T05:58:35+00:00</time>
      </trkpt>
      <trkpt lat="45.39928" lon="6.19883">
        <ele>2105</ele>
        <time>2024-06-06T05:58:38+00:00</time>
      </trkpt>
      <trkpt lat="45.39929" lon="6.1988">
        <ele>2105</ele>
        <time>2024-06-06T05:58:41+00:00</time>
      </trkpt>
      <trkpt lat="45.39931" lon="6.19878">
        <ele>2105</ele>
        <time>2024-06-06T05:58:44+00:00</time>
      </trkpt>
      <trkpt lat="45.39936" lon="6.19872">
        <ele>2105</ele>
        <time>2024-06-06T05:58:47+00:00</time>
      </trkpt>
      <trkpt lat="45.3994" lon="6.19866">
        <ele>2102</ele>
        <time>2024-06-06T05:58:50+00:00</time>
      </trkpt>
      <trkpt lat="45.39945" lon="6.19861">
        <ele>2102</ele>
        <time>2024-06-06T05:58:53+00:00</time>
      </trkpt>
      <trkpt lat="45.39949" lon="6.19859">
        <ele>2097</ele>
        <time>2024-06-06T05:58:56+00:00</time>
      </trkpt>
      <trkpt lat="45.39952" lon="6.19854">
        <ele>2100</ele>
        <time>2024-06-06T05:58:59+00:00</time>
      </trkpt>
      <trkpt lat="45.39955" lon="6.19847">
        <ele>2097</ele>
        <time>2024-06-06T05:59:02+00:00</time>
      </trkpt>
      <trkpt lat="45.39958" lon="6.19839">
        <ele>2091</ele>
        <time>2024-06-06T05:59:05+00:00</time>
      </trkpt>
      <trkpt lat="45.39961" lon="6.19833">
        <ele>2094</ele>
        <time>2024-06-06T05:59:08+00:00</time>
      </trkpt>
      <trkpt lat="45.39963" lon="6.1983">
        <ele>2094</ele>
        <time>2024-06-06T05:59:11+00:00</time>
      </trkpt>
      <trkpt lat="45.39967" lon="6.19827">
        <ele>2089</ele>
        <time>2024-06-06T05:59:14+00:00</time>
      </trkpt>
      <trkpt lat="45.3997" lon="6.19824">
        <ele>2089</ele>
        <time>2024-06-06T05:59:17+00:00</time>
      </trkpt>
      <trkpt lat="45.39972" lon="6.19821">
        <ele>2091</ele>
        <time>2024-06-06T05:59:20+00:00</time>
      </trkpt>
      <trkpt lat="45.39973" lon="6.19817">
        <ele>2087</ele>
        <time>2024-06-06T05:59:23+00:00</time>
      </trkpt>
      <trkpt lat="45.39974" lon="6.19814">
        <ele>2087</ele>
        <time>2024-06-06T05:59:26+00:00</time>
      </trkpt>
      <trkpt lat="45.39973" lon="6.1981">
        <ele>2083</ele>
        <time>2024-06-06T05:59:29+00:00</time>
      </trkpt>
      <trkpt lat="45.39973" lon="6.19808">
        <ele>2083</ele>
        <time>2024-06-06T05:59:32+00:00</time>
      </trkpt>
      <trkpt lat="45.39973" lon="6.19806">
        <ele>2083</ele>
        <time>2024-06-06T05:59:35+00:00</time>
      </trkpt>
      <trkpt lat="45.39977" lon="6.19796">
        <ele>2080</ele>
        <time>2024-06-06T05:59:38+00:00</time>
      </trkpt>
      <trkpt lat="45.3998" lon="6.1979">
        <ele>2076</ele>
        <time>2024-06-06T05:59:41+00:00</time>
      </trkpt>
      <trkpt lat="45.39981" lon="6.19786">
        <ele>2082</ele>
        <time>2024-06-06T05:59:44+00:00</time>
      </trkpt>
      <trkpt lat="45.39982" lon="6.19779">
        <ele>2078</ele>
        <time>2024-06-06T05:59:47+00:00</time>
      </trkpt>
      <trkpt lat="45.39983" lon="6.19771">
        <ele>2078</ele>
        <time>2024-06-06T05:59:50+00:00</time>
      </trkpt>
      <trkpt lat="45.39984" lon="6.19766">
        <ele>2076</ele>
        <time>2024-06-06T05:59:53+00:00</time>
      </trkpt>
      <trkpt lat="45.39983" lon="6.19762">
        <ele>2076</ele>
        <time>2024-06-06T05:59:56+00:00</time>
      </trkpt>
      <trkpt lat="45.39981" lon="6.19758">
        <ele>2074</ele>
        <time>2024-06-06T05:59:59+00:00</time>
      </trkpt>
      <trkpt lat="45.39981" lon="6.19754">
        <ele>2074</ele>
        <time>2024-06-06T06:00:02+00:00</time>
      </trkpt>
      <trkpt lat="45.3998" lon="6.19748">
        <ele>2071</ele>
        <time>2024-06-06T06:00:05+00:00</time>
      </trkpt>
      <trkpt lat="45.39979" lon="6.19744">
        <ele>2063</ele>
        <time>2024-06-06T06:00:08+00:00</time>
      </trkpt>
      <trkpt lat="45.39977" lon="6.19741">
        <ele>2063</ele>
        <time>2024-06-06T06:00:11+00:00</time>
      </trkpt>
      <trkpt lat="45.39977" lon="6.19738">
        <ele>2061</ele>
        <time>2024-06-06T06:00:14+00:00</time>
      </trkpt>
      <trkpt lat="45.39976" lon="6.19737">
        <ele>2061</ele>
        <time>2024-06-06T06:00:17+00:00</time>
      </trkpt>
      <trkpt lat="45.39974" lon="6.19737">
        <ele>2061</ele>
        <time>2024-06-06T06:00:20+00:00</time>
      </trkpt>
      <trkpt lat="45.39974" lon="6.19734">
        <ele>2061</ele>
        <time>2024-06-06T06:00:23+00:00</time>
      </trkpt>
      <trkpt lat="45.39973" lon="6.19732">
        <ele>2061</ele>
        <time>2024-06-06T06:00:26+00:00</time>
      </trkpt>
      <trkpt lat="45.39971" lon="6.19728">
        <ele>2060</ele>
        <time>2024-06-06T06:00:29+00:00</time>
      </trkpt>
      <trkpt lat="45.39969" lon="6.19725">
        <ele>2054</ele>
        <time>2024-06-06T06:00:32+00:00</time>
      </trkpt>
      <trkpt lat="45.39969" lon="6.19723">
        <ele>2054</ele>
        <time>2024-06-06T06:00:35+00:00</time>
      </trkpt>
      <trkpt lat="45.39968" lon="6.1972">
        <ele>2054</ele>
        <time>2024-06-06T06:00:38+00:00</time>
      </trkpt>
      <trkpt lat="45.39967" lon="6.19719">
        <ele>2053</ele>
        <time>2024-06-06T06:00:41+00:00</time>
      </trkpt>
      <trkpt lat="45.39965" lon="6.19716">
        <ele>2053</ele>
        <time>2024-06-06T06:00:44+00:00</time>
      </trkpt>
      <trkpt lat="45.39963" lon="6.1971">
        <ele>2053</ele>
        <time>2024-06-06T06:00:47+00:00</time>
      </trkpt>
      <trkpt lat="45.3996" lon="6.19705">
        <ele>2054</ele>
        <time>2024-06-06T06:00:50+00:00</time>
      </trkpt>
      <trkpt lat="45.39959" lon="6.197">
        <ele>2047</ele>
        <time>2024-06-06T06:00:53+00:00</time>
      </trkpt>
      <trkpt lat="45.39957" lon="6.19697">
        <ele>2047</ele>
        <time>2024-06-06T06:00:56+00:00</time>
      </trkpt>
      <trkpt lat="45.39955" lon="6.19693">
        <ele>2047</ele>
        <time>2024-06-06T06:00:59+00:00</time>
      </trkpt>
      <trkpt lat="45.39955" lon="6.1969">
        <ele>2044</ele>
        <time>2024-06-06T06:01:02+00:00</time>
      </trkpt>
      <trkpt lat="45.39955" lon="6.19686">
        <ele>2044</ele>
        <time>2024-06-06T06:01:05+00:00</time>
      </trkpt>
      <trkpt lat="45.39954" lon="6.19683">
        <ele>2044</ele>
        <time>2024-06-06T06:01:08+00:00</time>
      </trkpt>
      <trkpt lat="45.39953" lon="6.19681">
        <ele>2044</ele>
        <time>2024-06-06T06:01:11+00:00</time>
      </trkpt>
      <trkpt lat="45.39952" lon="6.19678">
        <ele>2042</ele>
        <time>2024-06-06T06:01:14+00:00</time>
      </trkpt>
      <trkpt lat="45.39952" lon="6.19675">
        <ele>2042</ele>
        <time>2024-06-06T06:01:17+00:00</time>
      </trkpt>
      <trkpt lat="45.39951" lon="6.19673">
        <ele>2042</ele>
        <time>2024-06-06T06:01:20+00:00</time>
      </trkpt>
      <trkpt lat="45.39953" lon="6.1967">
        <ele>2038</ele>
        <time>2024-06-06T06:01:23+00:00</time>
      </trkpt>
      <trkpt lat="45.39955" lon="6.19665">
        <ele>2038</ele>
        <time>2024-06-06T06:01:26+00:00</time>
      </trkpt>
      <trkpt lat="45.39955" lon="6.19663">
        <ele>2038</ele>
        <time>2024-06-06T06:01:29+00:00</time>
      </trkpt>
      <trkpt lat="45.39955" lon="6.1966">
        <ele>2031</ele>
        <time>2024-06-06T06:01:32+00:00</time>
      </trkpt>
      <trkpt lat="45.39955" lon="6.19659">
        <ele>2031</ele>
        <time>2024-06-06T06:01:35+00:00</time>
      </trkpt>
      <trkpt lat="45.39958" lon="6.19656">
        <ele>2031</ele>
        <time>2024-06-06T06:01:38+00:00</time>
      </trkpt>
      <trkpt lat="45.3996" lon="6.19653">
        <ele>2032</ele>
        <time>2024-06-06T06:01:41+00:00</time>
      </trkpt>
      <trkpt lat="45.39962" lon="6.1965">
        <ele>2027</ele>
        <time>2024-06-06T06:01:44+00:00</time>
      </trkpt>
      <trkpt lat="45.39963" lon="6.19648">
        <ele>2027</ele>
        <time>2024-06-06T06:01:47+00:00</time>
      </trkpt>
      <trkpt lat="45.39965" lon="6.19645">
        <ele>2027</ele>
        <time>2024-06-06T06:01:50+00:00</time>
      </trkpt>
      <trkpt lat="45.39966" lon="6.19643">
        <ele>2027</ele>
        <time>2024-06-06T06:01:53+00:00</time>
      </trkpt>
      <trkpt lat="45.39967" lon="6.1964">
        <ele>2027</ele>
        <time>2024-06-06T06:01:56+00:00</time>
      </trkpt>
      <trkpt lat="45.3997" lon="6.19638">
        <ele>2022</ele>
        <time>2024-06-06T06:01:59+00:00</time>
      </trkpt>
      <trkpt lat="45.39972" lon="6.19634">
        <ele>2025</ele>
        <time>2024-06-06T06:02:02+00:00</time>
      </trkpt>
      <trkpt lat="45.39975" lon="6.19631">
        <ele>2025</ele>
        <time>2024-06-06T06:02:05+00:00</time>
      </trkpt>
      <trkpt lat="45.39977" lon="6.19628">
        <ele>2017</ele>
        <time>2024-06-06T06:02:08+00:00</time>
      </trkpt>
      <trkpt lat="45.39979" lon="6.19625">
        <ele>2017</ele>
        <time>2024-06-06T06:02:11+00:00</time>
      </trkpt>
      <trkpt lat="45.39981" lon="6.1962">
        <ele>2019</ele>
        <time>2024-06-06T06:02:14+00:00</time>
      </trkpt>
      <trkpt lat="45.39981" lon="6.19615">
        <ele>2019</ele>
        <time>2024-06-06T06:02:17+00:00</time>
      </trkpt>
      <trkpt lat="45.39983" lon="6.1961">
        <ele>2019</ele>
        <time>2024-06-06T06:02:20+00:00</time>
      </trkpt>
      <trkpt lat="45.39985" lon="6.19606">
        <ele>2015</ele>
        <time>2024-06-06T06:02:23+00:00</time>
      </trkpt>
      <trkpt lat="45.39988" lon="6.19599">
        <ele>2010</ele>
        <time>2024-06-06T06:02:26+00:00</time>
      </trkpt>
      <trkpt lat="45.3999" lon="6.19594">
        <ele>2010</ele>
        <time>2024-06-06T06:02:29+00:00</time>
      </trkpt>
      <trkpt lat="45.39992" lon="6.1959">
        <ele>2010</ele>
        <time>2024-06-06T06:02:32+00:00</time>
      </trkpt>
      <trkpt lat="45.39991" lon="6.19587">
        <ele>2010</ele>
        <time>2024-06-06T06:02:35+00:00</time>
      </trkpt>
      <trkpt lat="45.39993" lon="6.19586">
        <ele>2010</ele>
        <time>2024-06-06T06:02:38+00:00</time>
      </trkpt>
      <trkpt lat="45.39995" lon="6.19582">
        <ele>2010</ele>
        <time>2024-06-06T06:02:41+00:00</time>
      </trkpt>
      <trkpt lat="45.39997" lon="6.19576">
        <ele>2006</ele>
        <time>2024-06-06T06:02:44+00:00</time>
      </trkpt>
      <trkpt lat="45.39998" lon="6.19571">
        <ele>2006</ele>
        <time>2024-06-06T06:02:47+00:00</time>
      </trkpt>
      <trkpt lat="45.4" lon="6.19566">
        <ele>2000</ele>
        <time>2024-06-06T06:02:50+00:00</time>
      </trkpt>
      <trkpt lat="45.40002" lon="6.19562">
        <ele>2004</ele>
        <time>2024-06-06T06:02:53+00:00</time>
      </trkpt>
      <trkpt lat="45.40004" lon="6.19558">
        <ele>2000</ele>
        <time>2024-06-06T06:02:56+00:00</time>
      </trkpt>
      <trkpt lat="45.40005" lon="6.19552">
        <ele>2000</ele>
        <time>2024-06-06T06:02:59+00:00</time>
      </trkpt>
      <trkpt lat="45.40006" lon="6.19548">
        <ele>1996</ele>
        <time>2024-06-06T06:03:02+00:00</time>
      </trkpt>
      <trkpt lat="45.40008" lon="6.19547">
        <ele>1996</ele>
        <time>2024-06-06T06:03:05+00:00</time>
      </trkpt>
      <trkpt lat="45.4001" lon="6.19546">
        <ele>1996</ele>
        <time>2024-06-06T06:03:08+00:00</time>
      </trkpt>
      <trkpt lat="45.4001" lon="6.19541">
        <ele>1996</ele>
        <time>2024-06-06T06:03:11+00:00</time>
      </trkpt>
      <trkpt lat="45.40011" lon="6.19535">
        <ele>1997</ele>
        <time>2024-06-06T06:03:14+00:00</time>
      </trkpt>
      <trkpt lat="45.40011" lon="6.1953">
        <ele>1994</ele>
        <time>2024-06-06T06:03:17+00:00</time>
      </trkpt>
      <trkpt lat="45.40012" lon="6.19526">
        <ele>1994</ele>
        <time>2024-06-06T06:03:20+00:00</time>
      </trkpt>
      <trkpt lat="45.40014" lon="6.19522">
        <ele>1994</ele>
        <time>2024-06-06T06:03:23+00:00</time>
      </trkpt>
      <trkpt lat="45.40015" lon="6.19518">
        <ele>1990</ele>
        <time>2024-06-06T06:03:26+00:00</time>
      </trkpt>
      <trkpt lat="45.40017" lon="6.19512">
        <ele>1990</ele>
        <time>2024-06-06T06:03:29+00:00</time>
      </trkpt>
      <trkpt lat="45.40018" lon="6.19506">
        <ele>1987</ele>
        <time>2024-06-06T06:03:32+00:00</time>
      </trkpt>
      <trkpt lat="45.40019" lon="6.19499">
        <ele>1984</ele>
        <time>2024-06-06T06:03:35+00:00</time>
      </trkpt>
      <trkpt lat="45.40021" lon="6.19494">
        <ele>1989</ele>
        <time>2024-06-06T06:03:38+00:00</time>
      </trkpt>
      <trkpt lat="45.40022" lon="6.19489">
        <ele>1986</ele>
        <time>2024-06-06T06:03:41+00:00</time>
      </trkpt>
      <trkpt lat="45.40024" lon="6.19484">
        <ele>1986</ele>
        <time>2024-06-06T06:03:44+00:00</time>
      </trkpt>
      <trkpt lat="45.40025" lon="6.19479">
        <ele>1984</ele>
        <time>2024-06-06T06:03:47+00:00</time>
      </trkpt>
      <trkpt lat="45.40025" lon="6.19475">
        <ele>1984</ele>
        <time>2024-06-06T06:03:50+00:00</time>
      </trkpt>
      <trkpt lat="45.40026" lon="6.19471">
        <ele>1984</ele>
        <time>2024-06-06T06:03:53+00:00</time>
      </trkpt>
      <trkpt lat="45.40025" lon="6.19467">
        <ele>1983</ele>
        <time>2024-06-06T06:03:56+00:00</time>
      </trkpt>
      <trkpt lat="45.40025" lon="6.19455">
        <ele>1981</ele>
        <time>2024-06-06T06:03:59+00:00</time>
      </trkpt>
      <trkpt lat="45.40026" lon="6.19449">
        <ele>1978</ele>
        <time>2024-06-06T06:04:02+00:00</time>
      </trkpt>
      <trkpt lat="45.40028" lon="6.19444">
        <ele>1978</ele>
        <time>2024-06-06T06:04:05+00:00</time>
      </trkpt>
      <trkpt lat="45.40029" lon="6.19441">
        <ele>1978</ele>
        <time>2024-06-06T06:04:08+00:00</time>
      </trkpt>
      <trkpt lat="45.40032" lon="6.19436">
        <ele>1979</ele>
        <time>2024-06-06T06:04:11+00:00</time>
      </trkpt>
      <trkpt lat="45.40035" lon="6.19431">
        <ele>1979</ele>
        <time>2024-06-06T06:04:14+00:00</time>
      </trkpt>
      <trkpt lat="45.40038" lon="6.19427">
        <ele>1976</ele>
        <time>2024-06-06T06:04:17+00:00</time>
      </trkpt>
      <trkpt lat="45.4004" lon="6.19423">
        <ele>1976</ele>
        <time>2024-06-06T06:04:20+00:00</time>
      </trkpt>
      <trkpt lat="45.40043" lon="6.19416">
        <ele>1974</ele>
        <time>2024-06-06T06:04:23+00:00</time>
      </trkpt>
      <trkpt lat="45.40047" lon="6.19414">
        <ele>1974</ele>
        <time>2024-06-06T06:04:26+00:00</time>
      </trkpt>
      <trkpt lat="45.40049" lon="6.19412">
        <ele>1978</ele>
        <time>2024-06-06T06:04:29+00:00</time>
      </trkpt>
      <trkpt lat="45.40052" lon="6.19409">
        <ele>1975</ele>
        <time>2024-06-06T06:04:32+00:00</time>
      </trkpt>
      <trkpt lat="45.40054" lon="6.19404">
        <ele>1975</ele>
        <time>2024-06-06T06:04:35+00:00</time>
      </trkpt>
      <trkpt lat="45.40057" lon="6.19401">
        <ele>1975</ele>
        <time>2024-06-06T06:04:38+00:00</time>
      </trkpt>
      <trkpt lat="45.40061" lon="6.1939">
        <ele>1977</ele>
        <time>2024-06-06T06:04:41+00:00</time>
      </trkpt>
      <trkpt lat="45.40063" lon="6.19385">
        <ele>1975</ele>
        <time>2024-06-06T06:04:44+00:00</time>
      </trkpt>
      <trkpt lat="45.40064" lon="6.1938">
        <ele>1973</ele>
        <time>2024-06-06T06:04:47+00:00</time>
      </trkpt>
      <trkpt lat="45.40065" lon="6.19372">
        <ele>1973</ele>
        <time>2024-06-06T06:04:50+00:00</time>
      </trkpt>
      <trkpt lat="45.40066" lon="6.19366">
        <ele>1972</ele>
        <time>2024-06-06T06:04:53+00:00</time>
      </trkpt>
      <trkpt lat="45.40066" lon="6.1936">
        <ele>1975</ele>
        <time>2024-06-06T06:04:56+00:00</time>
      </trkpt>
      <trkpt lat="45.40068" lon="6.19355">
        <ele>1971</ele>
        <time>2024-06-06T06:04:59+00:00</time>
      </trkpt>
      <trkpt lat="45.40069" lon="6.19348">
        <ele>1968</ele>
        <time>2024-06-06T06:05:02+00:00</time>
      </trkpt>
      <trkpt lat="45.40072" lon="6.19343">
        <ele>1974</ele>
        <time>2024-06-06T06:05:05+00:00</time>
      </trkpt>
      <trkpt lat="45.40074" lon="6.19337">
        <ele>1973</ele>
        <time>2024-06-06T06:05:08+00:00</time>
      </trkpt>
      <trkpt lat="45.40076" lon="6.19331">
        <ele>1976</ele>
        <time>2024-06-06T06:05:11+00:00</time>
      </trkpt>
      <trkpt lat="45.40078" lon="6.19326">
        <ele>1971</ele>
        <time>2024-06-06T06:05:14+00:00</time>
      </trkpt>
      <trkpt lat="45.4008" lon="6.19322">
        <ele>1971</ele>
        <time>2024-06-06T06:05:17+00:00</time>
      </trkpt>
      <trkpt lat="45.40079" lon="6.19318">
        <ele>1970</ele>
        <time>2024-06-06T06:05:20+00:00</time>
      </trkpt>
      <trkpt lat="45.40079" lon="6.19315">
        <ele>1970</ele>
        <time>2024-06-06T06:05:23+00:00</time>
      </trkpt>
      <trkpt lat="45.40085" lon="6.19307">
        <ele>1976</ele>
        <time>2024-06-06T06:05:26+00:00</time>
      </trkpt>
      <trkpt lat="45.40088" lon="6.19303">
        <ele>1978</ele>
        <time>2024-06-06T06:05:29+00:00</time>
      </trkpt>
      <trkpt lat="45.40091" lon="6.19297">
        <ele>1980</ele>
        <time>2024-06-06T06:05:32+00:00</time>
      </trkpt>
      <trkpt lat="45.40094" lon="6.1929">
        <ele>1977</ele>
        <time>2024-06-06T06:05:35+00:00</time>
      </trkpt>
      <trkpt lat="45.40097" lon="6.19284">
        <ele>1977</ele>
        <time>2024-06-06T06:05:38+00:00</time>
      </trkpt>
      <trkpt lat="45.40101" lon="6.1928">
        <ele>1981</ele>
        <time>2024-06-06T06:05:41+00:00</time>
      </trkpt>
      <trkpt lat="45.40104" lon="6.19275">
        <ele>1981</ele>
        <time>2024-06-06T06:05:44+00:00</time>
      </trkpt>
      <trkpt lat="45.40107" lon="6.19269">
        <ele>1978</ele>
        <time>2024-06-06T06:05:47+00:00</time>
      </trkpt>
      <trkpt lat="45.4011" lon="6.19262">
        <ele>1978</ele>
        <time>2024-06-06T06:05:50+00:00</time>
      </trkpt>
      <trkpt lat="45.40113" lon="6.19256">
        <ele>1984</ele>
        <time>2024-06-06T06:05:53+00:00</time>
      </trkpt>
      <trkpt lat="45.40115" lon="6.19253">
        <ele>1984</ele>
        <time>2024-06-06T06:05:56+00:00</time>
      </trkpt>
      <trkpt lat="45.40118" lon="6.1925">
        <ele>1982</ele>
        <time>2024-06-06T06:05:59+00:00</time>
      </trkpt>
      <trkpt lat="45.40121" lon="6.19247">
        <ele>1988</ele>
        <time>2024-06-06T06:06:02+00:00</time>
      </trkpt>
      <trkpt lat="45.40124" lon="6.19243">
        <ele>1980</ele>
        <time>2024-06-06T06:06:05+00:00</time>
      </trkpt>
      <trkpt lat="45.40127" lon="6.19241">
        <ele>1988</ele>
        <time>2024-06-06T06:06:08+00:00</time>
      </trkpt>
      <trkpt lat="45.40132" lon="6.1924">
        <ele>1988</ele>
        <time>2024-06-06T06:06:11+00:00</time>
      </trkpt>
      <trkpt lat="45.40133" lon="6.19236">
        <ele>1988</ele>
        <time>2024-06-06T06:06:14+00:00</time>
      </trkpt>
      <trkpt lat="45.40136" lon="6.19232">
        <ele>1988</ele>
        <time>2024-06-06T06:06:17+00:00</time>
      </trkpt>
      <trkpt lat="45.40137" lon="6.19228">
        <ele>1983</ele>
        <time>2024-06-06T06:06:20+00:00</time>
      </trkpt>
      <trkpt lat="45.4014" lon="6.19225">
        <ele>1983</ele>
        <time>2024-06-06T06:06:23+00:00</time>
      </trkpt>
      <trkpt lat="45.4014" lon="6.19225">
        <ele>1983</ele>
        <time>2024-06-06T06:06:26+00:00</time>
      </trkpt>
      <trkpt lat="45.4014" lon="6.19225">
        <ele>1983</ele>
        <time>2024-06-06T06:06:29+00:00</time>
      </trkpt>
      <trkpt lat="45.40144" lon="6.19223">
        <ele>1989</ele>
        <time>2024-06-06T06:06:32+00:00</time>
      </trkpt>
      <trkpt lat="45.40147" lon="6.19224">
        <ele>1989</ele>
        <time>2024-06-06T06:06:35+00:00</time>
      </trkpt>
      <trkpt lat="45.40151" lon="6.19226">
        <ele>1991</ele>
        <time>2024-06-06T06:06:38+00:00</time>
      </trkpt>
      <trkpt lat="45.40155" lon="6.19226">
        <ele>1991</ele>
        <time>2024-06-06T06:06:41+00:00</time>
      </trkpt>
      <trkpt lat="45.40157" lon="6.19224">
        <ele>1991</ele>
        <time>2024-06-06T06:06:44+00:00</time>
      </trkpt>
      <trkpt lat="45.40162" lon="6.19219">
        <ele>1991</ele>
        <time>2024-06-06T06:06:47+00:00</time>
      </trkpt>
      <trkpt lat="45.40164" lon="6.19217">
        <ele>1991</ele>
        <time>2024-06-06T06:06:50+00:00</time>
      </trkpt>
      <trkpt lat="45.40167" lon="6.19213">
        <ele>1991</ele>
        <time>2024-06-06T06:06:53+00:00</time>
      </trkpt>
      <trkpt lat="45.4017" lon="6.19209">
        <ele>1988</ele>
        <time>2024-06-06T06:06:56+00:00</time>
      </trkpt>
      <trkpt lat="45.40173" lon="6.19207">
        <ele>1991</ele>
        <time>2024-06-06T06:06:59+00:00</time>
      </trkpt>
      <trkpt lat="45.40176" lon="6.19206">
        <ele>1991</ele>
        <time>2024-06-06T06:07:02+00:00</time>
      </trkpt>
      <trkpt lat="45.4018" lon="6.19204">
        <ele>1991</ele>
        <time>2024-06-06T06:07:05+00:00</time>
      </trkpt>
      <trkpt lat="45.40182" lon="6.19201">
        <ele>1991</ele>
        <time>2024-06-06T06:07:08+00:00</time>
      </trkpt>
      <trkpt lat="45.40184" lon="6.19199">
        <ele>1986</ele>
        <time>2024-06-06T06:07:11+00:00</time>
      </trkpt>
      <trkpt lat="45.40186" lon="6.19197">
        <ele>1986</ele>
        <time>2024-06-06T06:07:14+00:00</time>
      </trkpt>
      <trkpt lat="45.40187" lon="6.19195">
        <ele>1986</ele>
        <time>2024-06-06T06:07:17+00:00</time>
      </trkpt>
      <trkpt lat="45.4019" lon="6.1919">
        <ele>1986</ele>
        <time>2024-06-06T06:07:20+00:00</time>
      </trkpt>
      <trkpt lat="45.40191" lon="6.19187">
        <ele>1984</ele>
        <time>2024-06-06T06:07:23+00:00</time>
      </trkpt>
      <trkpt lat="45.4019" lon="6.19185">
        <ele>1984</ele>
        <time>2024-06-06T06:07:26+00:00</time>
      </trkpt>
      <trkpt lat="45.40189" lon="6.19184">
        <ele>1982</ele>
        <time>2024-06-06T06:07:29+00:00</time>
      </trkpt>
      <trkpt lat="45.40189" lon="6.1918">
        <ele>1979</ele>
        <time>2024-06-06T06:07:32+00:00</time>
      </trkpt>
      <trkpt lat="45.40193" lon="6.19172">
        <ele>1980</ele>
        <time>2024-06-06T06:07:35+00:00</time>
      </trkpt>
      <trkpt lat="45.40199" lon="6.19158">
        <ele>1971</ele>
        <time>2024-06-06T06:07:38+00:00</time>
      </trkpt>
      <trkpt lat="45.40203" lon="6.19148">
        <ele>1968</ele>
        <time>2024-06-06T06:07:41+00:00</time>
      </trkpt>
      <trkpt lat="45.40207" lon="6.19142">
        <ele>1968</ele>
        <time>2024-06-06T06:07:44+00:00</time>
      </trkpt>
      <trkpt lat="45.4021" lon="6.19139">
        <ele>1961</ele>
        <time>2024-06-06T06:07:47+00:00</time>
      </trkpt>
      <trkpt lat="45.40211" lon="6.19136">
        <ele>1963</ele>
        <time>2024-06-06T06:07:50+00:00</time>
      </trkpt>
      <trkpt lat="45.40212" lon="6.19131">
        <ele>1963</ele>
        <time>2024-06-06T06:07:53+00:00</time>
      </trkpt>
      <trkpt lat="45.40215" lon="6.19127">
        <ele>1959</ele>
        <time>2024-06-06T06:07:56+00:00</time>
      </trkpt>
      <trkpt lat="45.40219" lon="6.19122">
        <ele>1959</ele>
        <time>2024-06-06T06:07:59+00:00</time>
      </trkpt>
      <trkpt lat="45.40224" lon="6.19117">
        <ele>1957</ele>
        <time>2024-06-06T06:08:02+00:00</time>
      </trkpt>
      <trkpt lat="45.40226" lon="6.19109">
        <ele>1950</ele>
        <time>2024-06-06T06:08:05+00:00</time>
      </trkpt>
      <trkpt lat="45.40228" lon="6.19105">
        <ele>1950</ele>
        <time>2024-06-06T06:08:08+00:00</time>
      </trkpt>
      <trkpt lat="45.40231" lon="6.19098">
        <ele>1951</ele>
        <time>2024-06-06T06:08:11+00:00</time>
      </trkpt>
      <trkpt lat="45.40235" lon="6.19088">
        <ele>1948</ele>
        <time>2024-06-06T06:08:14+00:00</time>
      </trkpt>
      <trkpt lat="45.40245" lon="6.19075">
        <ele>1946</ele>
        <time>2024-06-06T06:08:17+00:00</time>
      </trkpt>
      <trkpt lat="45.40251" lon="6.19066">
        <ele>1945</ele>
        <time>2024-06-06T06:08:20+00:00</time>
      </trkpt>
      <trkpt lat="45.40257" lon="6.19057">
        <ele>1941</ele>
        <time>2024-06-06T06:08:23+00:00</time>
      </trkpt>
      <trkpt lat="45.40262" lon="6.19051">
        <ele>1946</ele>
        <time>2024-06-06T06:08:26+00:00</time>
      </trkpt>
      <trkpt lat="45.40267" lon="6.19046">
        <ele>1940</ele>
        <time>2024-06-06T06:08:29+00:00</time>
      </trkpt>
      <trkpt lat="45.40273" lon="6.19041">
        <ele>1941</ele>
        <time>2024-06-06T06:08:32+00:00</time>
      </trkpt>
      <trkpt lat="45.4028" lon="6.19036">
        <ele>1937</ele>
        <time>2024-06-06T06:08:35+00:00</time>
      </trkpt>
      <trkpt lat="45.40284" lon="6.19031">
        <ele>1940</ele>
        <time>2024-06-06T06:08:38+00:00</time>
      </trkpt>
      <trkpt lat="45.40291" lon="6.19028">
        <ele>1939</ele>
        <time>2024-06-06T06:08:41+00:00</time>
      </trkpt>
      <trkpt lat="45.40297" lon="6.19025">
        <ele>1939</ele>
        <time>2024-06-06T06:08:44+00:00</time>
      </trkpt>
      <trkpt lat="45.40303" lon="6.19024">
        <ele>1939</ele>
        <time>2024-06-06T06:08:47+00:00</time>
      </trkpt>
      <trkpt lat="45.40308" lon="6.19022">
        <ele>1939</ele>
        <time>2024-06-06T06:08:50+00:00</time>
      </trkpt>
      <trkpt lat="45.40314" lon="6.19019">
        <ele>1932</ele>
        <time>2024-06-06T06:08:53+00:00</time>
      </trkpt>
      <trkpt lat="45.40319" lon="6.19016">
        <ele>1932</ele>
        <time>2024-06-06T06:08:56+00:00</time>
      </trkpt>
      <trkpt lat="45.40324" lon="6.19013">
        <ele>1935</ele>
        <time>2024-06-06T06:08:59+00:00</time>
      </trkpt>
      <trkpt lat="45.40328" lon="6.19014">
        <ele>1935</ele>
        <time>2024-06-06T06:09:02+00:00</time>
      </trkpt>
      <trkpt lat="45.40333" lon="6.19014">
        <ele>1933</ele>
        <time>2024-06-06T06:09:05+00:00</time>
      </trkpt>
      <trkpt lat="45.40334" lon="6.1901">
        <ele>1933</ele>
        <time>2024-06-06T06:09:08+00:00</time>
      </trkpt>
      <trkpt lat="45.40337" lon="6.19005">
        <ele>1927</ele>
        <time>2024-06-06T06:09:11+00:00</time>
      </trkpt>
      <trkpt lat="45.40341" lon="6.18999">
        <ele>1929</ele>
        <time>2024-06-06T06:09:14+00:00</time>
      </trkpt>
      <trkpt lat="45.40344" lon="6.18994">
        <ele>1929</ele>
        <time>2024-06-06T06:09:17+00:00</time>
      </trkpt>
      <trkpt lat="45.40351" lon="6.18988">
        <ele>1923</ele>
        <time>2024-06-06T06:09:20+00:00</time>
      </trkpt>
      <trkpt lat="45.40356" lon="6.18985">
        <ele>1923</ele>
        <time>2024-06-06T06:09:23+00:00</time>
      </trkpt>
      <trkpt lat="45.40361" lon="6.1898">
        <ele>1928</ele>
        <time>2024-06-06T06:09:26+00:00</time>
      </trkpt>
      <trkpt lat="45.40367" lon="6.18977">
        <ele>1923</ele>
        <time>2024-06-06T06:09:29+00:00</time>
      </trkpt>
      <trkpt lat="45.40373" lon="6.18977">
        <ele>1926</ele>
        <time>2024-06-06T06:09:32+00:00</time>
      </trkpt>
      <trkpt lat="45.40377" lon="6.18974">
        <ele>1926</ele>
        <time>2024-06-06T06:09:35+00:00</time>
      </trkpt>
      <trkpt lat="45.40381" lon="6.18972">
        <ele>1928</ele>
        <time>2024-06-06T06:09:38+00:00</time>
      </trkpt>
      <trkpt lat="45.40386" lon="6.18966">
        <ele>1922</ele>
        <time>2024-06-06T06:09:41+00:00</time>
      </trkpt>
      <trkpt lat="45.4039" lon="6.18962">
        <ele>1922</ele>
        <time>2024-06-06T06:09:44+00:00</time>
      </trkpt>
      <trkpt lat="45.40394" lon="6.1896">
        <ele>1920</ele>
        <time>2024-06-06T06:09:47+00:00</time>
      </trkpt>
      <trkpt lat="45.40401" lon="6.18959">
        <ele>1922</ele>
        <time>2024-06-06T06:09:50+00:00</time>
      </trkpt>
      <trkpt lat="45.40407" lon="6.18959">
        <ele>1922</ele>
        <time>2024-06-06T06:09:53+00:00</time>
      </trkpt>
      <trkpt lat="45.40416" lon="6.1896">
        <ele>1917</ele>
        <time>2024-06-06T06:09:56+00:00</time>
      </trkpt>
      <trkpt lat="45.4042" lon="6.18959">
        <ele>1917</ele>
        <time>2024-06-06T06:09:59+00:00</time>
      </trkpt>
      <trkpt lat="45.40427" lon="6.18956">
        <ele>1919</ele>
        <time>2024-06-06T06:10:02+00:00</time>
      </trkpt>
      <trkpt lat="45.40433" lon="6.18956">
        <ele>1915</ele>
        <time>2024-06-06T06:10:05+00:00</time>
      </trkpt>
      <trkpt lat="45.4044" lon="6.18957">
        <ele>1916</ele>
        <time>2024-06-06T06:10:08+00:00</time>
      </trkpt>
      <trkpt lat="45.40446" lon="6.18958">
        <ele>1916</ele>
        <time>2024-06-06T06:10:11+00:00</time>
      </trkpt>
      <trkpt lat="45.40451" lon="6.18954">
        <ele>1916</ele>
        <time>2024-06-06T06:10:14+00:00</time>
      </trkpt>
      <trkpt lat="45.40454" lon="6.18949">
        <ele>1911</ele>
        <time>2024-06-06T06:10:17+00:00</time>
      </trkpt>
      <trkpt lat="45.40457" lon="6.18944">
        <ele>1911</ele>
        <time>2024-06-06T06:10:20+00:00</time>
      </trkpt>
      <trkpt lat="45.4046" lon="6.18936">
        <ele>1913</ele>
        <time>2024-06-06T06:10:23+00:00</time>
      </trkpt>
      <trkpt lat="45.40463" lon="6.18931">
        <ele>1913</ele>
        <time>2024-06-06T06:10:26+00:00</time>
      </trkpt>
      <trkpt lat="45.40468" lon="6.18927">
        <ele>1906</ele>
        <time>2024-06-06T06:10:29+00:00</time>
      </trkpt>
      <trkpt lat="45.40471" lon="6.18923">
        <ele>1912</ele>
        <time>2024-06-06T06:10:32+00:00</time>
      </trkpt>
      <trkpt lat="45.40476" lon="6.18921">
        <ele>1912</ele>
        <time>2024-06-06T06:10:35+00:00</time>
      </trkpt>
      <trkpt lat="45.40479" lon="6.18919">
        <ele>1906</ele>
        <time>2024-06-06T06:10:38+00:00</time>
      </trkpt>
      <trkpt lat="45.40483" lon="6.18915">
        <ele>1906</ele>
        <time>2024-06-06T06:10:41+00:00</time>
      </trkpt>
      <trkpt lat="45.4049" lon="6.18913">
        <ele>1906</ele>
        <time>2024-06-06T06:10:44+00:00</time>
      </trkpt>
      <trkpt lat="45.40497" lon="6.1891">
        <ele>1900</ele>
        <time>2024-06-06T06:10:47+00:00</time>
      </trkpt>
      <trkpt lat="45.40506" lon="6.18909">
        <ele>1900</ele>
        <time>2024-06-06T06:10:50+00:00</time>
      </trkpt>
      <trkpt lat="45.40511" lon="6.18906">
        <ele>1900</ele>
        <time>2024-06-06T06:10:53+00:00</time>
      </trkpt>
      <trkpt lat="45.40515" lon="6.18903">
        <ele>1900</ele>
        <time>2024-06-06T06:10:56+00:00</time>
      </trkpt>
      <trkpt lat="45.4052" lon="6.189">
        <ele>1896</ele>
        <time>2024-06-06T06:10:59+00:00</time>
      </trkpt>
      <trkpt lat="45.4053" lon="6.18891">
        <ele>1896</ele>
        <time>2024-06-06T06:11:02+00:00</time>
      </trkpt>
      <trkpt lat="45.40535" lon="6.18886">
        <ele>1894</ele>
        <time>2024-06-06T06:11:05+00:00</time>
      </trkpt>
      <trkpt lat="45.40541" lon="6.18878">
        <ele>1891</ele>
        <time>2024-06-06T06:11:08+00:00</time>
      </trkpt>
      <trkpt lat="45.40548" lon="6.18873">
        <ele>1891</ele>
        <time>2024-06-06T06:11:11+00:00</time>
      </trkpt>
      <trkpt lat="45.40556" lon="6.1887">
        <ele>1886</ele>
        <time>2024-06-06T06:11:14+00:00</time>
      </trkpt>
      <trkpt lat="45.40561" lon="6.18869">
        <ele>1885</ele>
        <time>2024-06-06T06:11:17+00:00</time>
      </trkpt>
      <trkpt lat="45.40566" lon="6.1887">
        <ele>1885</ele>
        <time>2024-06-06T06:11:20+00:00</time>
      </trkpt>
      <trkpt lat="45.4057" lon="6.18867">
        <ele>1885</ele>
        <time>2024-06-06T06:11:23+00:00</time>
      </trkpt>
      <trkpt lat="45.40574" lon="6.18864">
        <ele>1884</ele>
        <time>2024-06-06T06:11:26+00:00</time>
      </trkpt>
      <trkpt lat="45.40577" lon="6.1886">
        <ele>1884</ele>
        <time>2024-06-06T06:11:29+00:00</time>
      </trkpt>
      <trkpt lat="45.40581" lon="6.18857">
        <ele>1881</ele>
        <time>2024-06-06T06:11:32+00:00</time>
      </trkpt>
      <trkpt lat="45.40585" lon="6.18854">
        <ele>1881</ele>
        <time>2024-06-06T06:11:35+00:00</time>
      </trkpt>
      <trkpt lat="45.40589" lon="6.18849">
        <ele>1876</ele>
        <time>2024-06-06T06:11:38+00:00</time>
      </trkpt>
      <trkpt lat="45.40594" lon="6.18844">
        <ele>1878</ele>
        <time>2024-06-06T06:11:41+00:00</time>
      </trkpt>
      <trkpt lat="45.40602" lon="6.18836">
        <ele>1875</ele>
        <time>2024-06-06T06:11:44+00:00</time>
      </trkpt>
      <trkpt lat="45.40608" lon="6.18825">
        <ele>1872</ele>
        <time>2024-06-06T06:11:47+00:00</time>
      </trkpt>
      <trkpt lat="45.40611" lon="6.18822">
        <ele>1873</ele>
        <time>2024-06-06T06:11:50+00:00</time>
      </trkpt>
      <trkpt lat="45.40618" lon="6.18821">
        <ele>1873</ele>
        <time>2024-06-06T06:11:53+00:00</time>
      </trkpt>
      <trkpt lat="45.40623" lon="6.18817">
        <ele>1871</ele>
        <time>2024-06-06T06:11:56+00:00</time>
      </trkpt>
      <trkpt lat="45.40626" lon="6.18811">
        <ele>1871</ele>
        <time>2024-06-06T06:11:59+00:00</time>
      </trkpt>
      <trkpt lat="45.40626" lon="6.18803">
        <ele>1868</ele>
        <time>2024-06-06T06:12:02+00:00</time>
      </trkpt>
      <trkpt lat="45.40629" lon="6.18795">
        <ele>1867</ele>
        <time>2024-06-06T06:12:05+00:00</time>
      </trkpt>
      <trkpt lat="45.40631" lon="6.1879">
        <ele>1868</ele>
        <time>2024-06-06T06:12:08+00:00</time>
      </trkpt>
      <trkpt lat="45.40638" lon="6.18788">
        <ele>1867</ele>
        <time>2024-06-06T06:12:11+00:00</time>
      </trkpt>
      <trkpt lat="45.40645" lon="6.1877">
        <ele>1866</ele>
        <time>2024-06-06T06:12:14+00:00</time>
      </trkpt>
      <trkpt lat="45.40645" lon="6.18755">
        <ele>1863</ele>
        <time>2024-06-06T06:12:17+00:00</time>
      </trkpt>
      <trkpt lat="45.40652" lon="6.18746">
        <ele>1866</ele>
        <time>2024-06-06T06:12:20+00:00</time>
      </trkpt>
      <trkpt lat="45.40654" lon="6.1874">
        <ele>1866</ele>
        <time>2024-06-06T06:12:23+00:00</time>
      </trkpt>
      <trkpt lat="45.40658" lon="6.18736">
        <ele>1866</ele>
        <time>2024-06-06T06:12:26+00:00</time>
      </trkpt>
      <trkpt lat="45.40662" lon="6.18732">
        <ele>1865</ele>
        <time>2024-06-06T06:12:29+00:00</time>
      </trkpt>
      <trkpt lat="45.40666" lon="6.18729">
        <ele>1864</ele>
        <time>2024-06-06T06:12:32+00:00</time>
      </trkpt>
      <trkpt lat="45.40669" lon="6.18722">
        <ele>1864</ele>
        <time>2024-06-06T06:12:35+00:00</time>
      </trkpt>
      <trkpt lat="45.40672" lon="6.18716">
        <ele>1864</ele>
        <time>2024-06-06T06:12:38+00:00</time>
      </trkpt>
      <trkpt lat="45.40676" lon="6.18711">
        <ele>1864</ele>
        <time>2024-06-06T06:12:41+00:00</time>
      </trkpt>
      <trkpt lat="45.40681" lon="6.1871">
        <ele>1862</ele>
        <time>2024-06-06T06:12:44+00:00</time>
      </trkpt>
      <trkpt lat="45.40688" lon="6.1871">
        <ele>1862</ele>
        <time>2024-06-06T06:12:47+00:00</time>
      </trkpt>
      <trkpt lat="45.40691" lon="6.18708">
        <ele>1861</ele>
        <time>2024-06-06T06:12:50+00:00</time>
      </trkpt>
      <trkpt lat="45.40693" lon="6.18703">
        <ele>1861</ele>
        <time>2024-06-06T06:12:53+00:00</time>
      </trkpt>
      <trkpt lat="45.40695" lon="6.18696">
        <ele>1858</ele>
        <time>2024-06-06T06:12:56+00:00</time>
      </trkpt>
      <trkpt lat="45.407" lon="6.18689">
        <ele>1853</ele>
        <time>2024-06-06T06:12:59+00:00</time>
      </trkpt>
      <trkpt lat="45.40704" lon="6.18683">
        <ele>1856</ele>
        <time>2024-06-06T06:13:02+00:00</time>
      </trkpt>
      <trkpt lat="45.40704" lon="6.18683">
        <ele>1856</ele>
        <time>2024-06-06T06:13:05+00:00</time>
      </trkpt>
      <trkpt lat="45.40704" lon="6.18683">
        <ele>1856</ele>
        <time>2024-06-06T06:13:08+00:00</time>
      </trkpt>
      <trkpt lat="45.40708" lon="6.18679">
        <ele>1851</ele>
        <time>2024-06-06T06:13:11+00:00</time>
      </trkpt>
      <trkpt lat="45.40712" lon="6.18676">
        <ele>1853</ele>
        <time>2024-06-06T06:13:14+00:00</time>
      </trkpt>
      <trkpt lat="45.40717" lon="6.18673">
        <ele>1853</ele>
        <time>2024-06-06T06:13:17+00:00</time>
      </trkpt>
      <trkpt lat="45.40722" lon="6.18671">
        <ele>1854</ele>
        <time>2024-06-06T06:13:20+00:00</time>
      </trkpt>
      <trkpt lat="45.40727" lon="6.18671">
        <ele>1854</ele>
        <time>2024-06-06T06:13:23+00:00</time>
      </trkpt>
      <trkpt lat="45.40732" lon="6.18671">
        <ele>1854</ele>
        <time>2024-06-06T06:13:26+00:00</time>
      </trkpt>
      <trkpt lat="45.4074" lon="6.18666">
        <ele>1853</ele>
        <time>2024-06-06T06:13:29+00:00</time>
      </trkpt>
      <trkpt lat="45.40746" lon="6.18664">
        <ele>1853</ele>
        <time>2024-06-06T06:13:32+00:00</time>
      </trkpt>
      <trkpt lat="45.40752" lon="6.18662">
        <ele>1855</ele>
        <time>2024-06-06T06:13:35+00:00</time>
      </trkpt>
      <trkpt lat="45.40755" lon="6.18659">
        <ele>1850</ele>
        <time>2024-06-06T06:13:38+00:00</time>
      </trkpt>
      <trkpt lat="45.40755" lon="6.18656">
        <ele>1850</ele>
        <time>2024-06-06T06:13:41+00:00</time>
      </trkpt>
      <trkpt lat="45.4076" lon="6.18649">
        <ele>1852</ele>
        <time>2024-06-06T06:13:44+00:00</time>
      </trkpt>
      <trkpt lat="45.40763" lon="6.1864">
        <ele>1852</ele>
        <time>2024-06-06T06:13:47+00:00</time>
      </trkpt>
      <trkpt lat="45.40765" lon="6.18634">
        <ele>1851</ele>
        <time>2024-06-06T06:13:50+00:00</time>
      </trkpt>
      <trkpt lat="45.40769" lon="6.1863">
        <ele>1851</ele>
        <time>2024-06-06T06:13:53+00:00</time>
      </trkpt>
      <trkpt lat="45.40774" lon="6.18628">
        <ele>1852</ele>
        <time>2024-06-06T06:13:56+00:00</time>
      </trkpt>
      <trkpt lat="45.40778" lon="6.18625">
        <ele>1851</ele>
        <time>2024-06-06T06:13:59+00:00</time>
      </trkpt>
      <trkpt lat="45.4078" lon="6.1862">
        <ele>1855</ele>
        <time>2024-06-06T06:14:02+00:00</time>
      </trkpt>
      <trkpt lat="45.40782" lon="6.18615">
        <ele>1854</ele>
        <time>2024-06-06T06:14:05+00:00</time>
      </trkpt>
      <trkpt lat="45.40783" lon="6.18608">
        <ele>1853</ele>
        <time>2024-06-06T06:14:08+00:00</time>
      </trkpt>
      <trkpt lat="45.40782" lon="6.18598">
        <ele>1852</ele>
        <time>2024-06-06T06:14:11+00:00</time>
      </trkpt>
      <trkpt lat="45.4078" lon="6.18587">
        <ele>1851</ele>
        <time>2024-06-06T06:14:14+00:00</time>
      </trkpt>
      <trkpt lat="45.40778" lon="6.18575">
        <ele>1845</ele>
        <time>2024-06-06T06:14:17+00:00</time>
      </trkpt>
      <trkpt lat="45.40778" lon="6.18558">
        <ele>1842</ele>
        <time>2024-06-06T06:14:20+00:00</time>
      </trkpt>
      <trkpt lat="45.40778" lon="6.18551">
        <ele>1842</ele>
        <time>2024-06-06T06:14:23+00:00</time>
      </trkpt>
      <trkpt lat="45.40778" lon="6.18544">
        <ele>1841</ele>
        <time>2024-06-06T06:14:26+00:00</time>
      </trkpt>
      <trkpt lat="45.40777" lon="6.18538">
        <ele>1841</ele>
        <time>2024-06-06T06:14:29+00:00</time>
      </trkpt>
      <trkpt lat="45.40779" lon="6.18531">
        <ele>1842</ele>
        <time>2024-06-06T06:14:32+00:00</time>
      </trkpt>
      <trkpt lat="45.4078" lon="6.18522">
        <ele>1842</ele>
        <time>2024-06-06T06:14:35+00:00</time>
      </trkpt>
      <trkpt lat="45.4078" lon="6.18518">
        <ele>1847</ele>
        <time>2024-06-06T06:14:38+00:00</time>
      </trkpt>
      <trkpt lat="45.40783" lon="6.18515">
        <ele>1847</ele>
        <time>2024-06-06T06:14:41+00:00</time>
      </trkpt>
      <trkpt lat="45.40786" lon="6.18512">
        <ele>1847</ele>
        <time>2024-06-06T06:14:44+00:00</time>
      </trkpt>
      <trkpt lat="45.40789" lon="6.18509">
        <ele>1843</ele>
        <time>2024-06-06T06:14:47+00:00</time>
      </trkpt>
      <trkpt lat="45.40792" lon="6.18506">
        <ele>1847</ele>
        <time>2024-06-06T06:14:50+00:00</time>
      </trkpt>
      <trkpt lat="45.40795" lon="6.18505">
        <ele>1847</ele>
        <time>2024-06-06T06:14:53+00:00</time>
      </trkpt>
      <trkpt lat="45.40802" lon="6.18505">
        <ele>1849</ele>
        <time>2024-06-06T06:14:56+00:00</time>
      </trkpt>
      <trkpt lat="45.40807" lon="6.18505">
        <ele>1849</ele>
        <time>2024-06-06T06:14:59+00:00</time>
      </trkpt>
      <trkpt lat="45.40813" lon="6.18503">
        <ele>1851</ele>
        <time>2024-06-06T06:15:02+00:00</time>
      </trkpt>
      <trkpt lat="45.40819" lon="6.18505">
        <ele>1851</ele>
        <time>2024-06-06T06:15:05+00:00</time>
      </trkpt>
      <trkpt lat="45.40825" lon="6.18504">
        <ele>1853</ele>
        <time>2024-06-06T06:15:08+00:00</time>
      </trkpt>
      <trkpt lat="45.40829" lon="6.18503">
        <ele>1853</ele>
        <time>2024-06-06T06:15:11+00:00</time>
      </trkpt>
      <trkpt lat="45.40834" lon="6.18501">
        <ele>1856</ele>
        <time>2024-06-06T06:15:14+00:00</time>
      </trkpt>
      <trkpt lat="45.40841" lon="6.185">
        <ele>1857</ele>
        <time>2024-06-06T06:15:17+00:00</time>
      </trkpt>
      <trkpt lat="45.40845" lon="6.18499">
        <ele>1855</ele>
        <time>2024-06-06T06:15:20+00:00</time>
      </trkpt>
      <trkpt lat="45.40848" lon="6.18497">
        <ele>1855</ele>
        <time>2024-06-06T06:15:23+00:00</time>
      </trkpt>
      <trkpt lat="45.4085" lon="6.18495">
        <ele>1857</ele>
        <time>2024-06-06T06:15:26+00:00</time>
      </trkpt>
      <trkpt lat="45.40855" lon="6.18494">
        <ele>1856</ele>
        <time>2024-06-06T06:15:29+00:00</time>
      </trkpt>
      <trkpt lat="45.40863" lon="6.18493">
        <ele>1858</ele>
        <time>2024-06-06T06:15:32+00:00</time>
      </trkpt>
      <trkpt lat="45.40868" lon="6.18491">
        <ele>1858</ele>
        <time>2024-06-06T06:15:35+00:00</time>
      </trkpt>
      <trkpt lat="45.40872" lon="6.1849">
        <ele>1858</ele>
        <time>2024-06-06T06:15:38+00:00</time>
      </trkpt>
      <trkpt lat="45.40876" lon="6.18486">
        <ele>1856</ele>
        <time>2024-06-06T06:15:41+00:00</time>
      </trkpt>
      <trkpt lat="45.40879" lon="6.18481">
        <ele>1856</ele>
        <time>2024-06-06T06:15:44+00:00</time>
      </trkpt>
      <trkpt lat="45.40885" lon="6.18481">
        <ele>1858</ele>
        <time>2024-06-06T06:15:47+00:00</time>
      </trkpt>
      <trkpt lat="45.40891" lon="6.1848">
        <ele>1859</ele>
        <time>2024-06-06T06:15:50+00:00</time>
      </trkpt>
      <trkpt lat="45.40898" lon="6.18478">
        <ele>1859</ele>
        <time>2024-06-06T06:15:53+00:00</time>
      </trkpt>
      <trkpt lat="45.40901" lon="6.18478">
        <ele>1860</ele>
        <time>2024-06-06T06:15:56+00:00</time>
      </trkpt>
      <trkpt lat="45.40908" lon="6.18478">
        <ele>1860</ele>
        <time>2024-06-06T06:15:59+00:00</time>
      </trkpt>
      <trkpt lat="45.40913" lon="6.18476">
        <ele>1862</ele>
        <time>2024-06-06T06:16:02+00:00</time>
      </trkpt>
      <trkpt lat="45.40917" lon="6.18474">
        <ele>1862</ele>
        <time>2024-06-06T06:16:05+00:00</time>
      </trkpt>
      <trkpt lat="45.4092" lon="6.18471">
        <ele>1862</ele>
        <time>2024-06-06T06:16:08+00:00</time>
      </trkpt>
      <trkpt lat="45.40926" lon="6.1847">
        <ele>1861</ele>
        <time>2024-06-06T06:16:11+00:00</time>
      </trkpt>
      <trkpt lat="45.40935" lon="6.18469">
        <ele>1863</ele>
        <time>2024-06-06T06:16:14+00:00</time>
      </trkpt>
      <trkpt lat="45.40942" lon="6.18472">
        <ele>1866</ele>
        <time>2024-06-06T06:16:17+00:00</time>
      </trkpt>
      <trkpt lat="45.40947" lon="6.18475">
        <ele>1866</ele>
        <time>2024-06-06T06:16:20+00:00</time>
      </trkpt>
      <trkpt lat="45.40953" lon="6.18476">
        <ele>1865</ele>
        <time>2024-06-06T06:16:23+00:00</time>
      </trkpt>
      <trkpt lat="45.40959" lon="6.18476">
        <ele>1863</ele>
        <time>2024-06-06T06:16:26+00:00</time>
      </trkpt>
      <trkpt lat="45.40964" lon="6.18476">
        <ele>1865</ele>
        <time>2024-06-06T06:16:29+00:00</time>
      </trkpt>
      <trkpt lat="45.4097" lon="6.18474">
        <ele>1865</ele>
        <time>2024-06-06T06:16:32+00:00</time>
      </trkpt>
      <trkpt lat="45.40976" lon="6.18471">
        <ele>1867</ele>
        <time>2024-06-06T06:16:35+00:00</time>
      </trkpt>
      <trkpt lat="45.4098" lon="6.18468">
        <ele>1863</ele>
        <time>2024-06-06T06:16:38+00:00</time>
      </trkpt>
      <trkpt lat="45.40982" lon="6.18469">
        <ele>1863</ele>
        <time>2024-06-06T06:16:41+00:00</time>
      </trkpt>
      <trkpt lat="45.40987" lon="6.18472">
        <ele>1868</ele>
        <time>2024-06-06T06:16:44+00:00</time>
      </trkpt>
      <trkpt lat="45.40989" lon="6.18476">
        <ele>1868</ele>
        <time>2024-06-06T06:16:47+00:00</time>
      </trkpt>
      <trkpt lat="45.40995" lon="6.18477">
        <ele>1866</ele>
        <time>2024-06-06T06:16:50+00:00</time>
      </trkpt>
      <trkpt lat="45.41001" lon="6.18477">
        <ele>1865</ele>
        <time>2024-06-06T06:16:53+00:00</time>
      </trkpt>
      <trkpt lat="45.41003" lon="6.18474">
        <ele>1865</ele>
        <time>2024-06-06T06:16:56+00:00</time>
      </trkpt>
      <trkpt lat="45.41007" lon="6.1847">
        <ele>1865</ele>
        <time>2024-06-06T06:16:59+00:00</time>
      </trkpt>
      <trkpt lat="45.41014" lon="6.18467">
        <ele>1866</ele>
        <time>2024-06-06T06:17:02+00:00</time>
      </trkpt>
      <trkpt lat="45.41023" lon="6.18463">
        <ele>1869</ele>
        <time>2024-06-06T06:17:05+00:00</time>
      </trkpt>
      <trkpt lat="45.41028" lon="6.18458">
        <ele>1869</ele>
        <time>2024-06-06T06:17:08+00:00</time>
      </trkpt>
      <trkpt lat="45.41031" lon="6.18455">
        <ele>1869</ele>
        <time>2024-06-06T06:17:11+00:00</time>
      </trkpt>
      <trkpt lat="45.41035" lon="6.18456">
        <ele>1869</ele>
        <time>2024-06-06T06:17:14+00:00</time>
      </trkpt>
      <trkpt lat="45.41039" lon="6.18456">
        <ele>1869</ele>
        <time>2024-06-06T06:17:17+00:00</time>
      </trkpt>
      <trkpt lat="45.41045" lon="6.18454">
        <ele>1869</ele>
        <time>2024-06-06T06:17:20+00:00</time>
      </trkpt>
      <trkpt lat="45.41055" lon="6.1845">
        <ele>1870</ele>
        <time>2024-06-06T06:17:23+00:00</time>
      </trkpt>
      <trkpt lat="45.41067" lon="6.18448">
        <ele>1870</ele>
        <time>2024-06-06T06:17:26+00:00</time>
      </trkpt>
      <trkpt lat="45.41073" lon="6.18445">
        <ele>1866</ele>
        <time>2024-06-06T06:17:29+00:00</time>
      </trkpt>
      <trkpt lat="45.41079" lon="6.18447">
        <ele>1866</ele>
        <time>2024-06-06T06:17:32+00:00</time>
      </trkpt>
      <trkpt lat="45.41084" lon="6.18449">
        <ele>1865</ele>
        <time>2024-06-06T06:17:35+00:00</time>
      </trkpt>
      <trkpt lat="45.41088" lon="6.18452">
        <ele>1871</ele>
        <time>2024-06-06T06:17:38+00:00</time>
      </trkpt>
      <trkpt lat="45.41096" lon="6.18454">
        <ele>1870</ele>
        <time>2024-06-06T06:17:41+00:00</time>
      </trkpt>
      <trkpt lat="45.41104" lon="6.18454">
        <ele>1870</ele>
        <time>2024-06-06T06:17:44+00:00</time>
      </trkpt>
      <trkpt lat="45.41118" lon="6.18454">
        <ele>1872</ele>
        <time>2024-06-06T06:17:47+00:00</time>
      </trkpt>
      <trkpt lat="45.41133" lon="6.18456">
        <ele>1874</ele>
        <time>2024-06-06T06:17:50+00:00</time>
      </trkpt>
      <trkpt lat="45.41141" lon="6.18455">
        <ele>1876</ele>
        <time>2024-06-06T06:17:53+00:00</time>
      </trkpt>
      <trkpt lat="45.41147" lon="6.18454">
        <ele>1876</ele>
        <time>2024-06-06T06:17:56+00:00</time>
      </trkpt>
      <trkpt lat="45.41156" lon="6.18452">
        <ele>1877</ele>
        <time>2024-06-06T06:17:59+00:00</time>
      </trkpt>
      <trkpt lat="45.41164" lon="6.18449">
        <ele>1875</ele>
        <time>2024-06-06T06:18:02+00:00</time>
      </trkpt>
      <trkpt lat="45.41171" lon="6.18446">
        <ele>1877</ele>
        <time>2024-06-06T06:18:05+00:00</time>
      </trkpt>
      <trkpt lat="45.41176" lon="6.18442">
        <ele>1877</ele>
        <time>2024-06-06T06:18:08+00:00</time>
      </trkpt>
      <trkpt lat="45.41182" lon="6.18437">
        <ele>1874</ele>
        <time>2024-06-06T06:18:11+00:00</time>
      </trkpt>
      <trkpt lat="45.41187" lon="6.1843">
        <ele>1871</ele>
        <time>2024-06-06T06:18:14+00:00</time>
      </trkpt>
      <trkpt lat="45.41194" lon="6.18424">
        <ele>1875</ele>
        <time>2024-06-06T06:18:17+00:00</time>
      </trkpt>
      <trkpt lat="45.41206" lon="6.18417">
        <ele>1873</ele>
        <time>2024-06-06T06:18:20+00:00</time>
      </trkpt>
      <trkpt lat="45.41213" lon="6.18413">
        <ele>1874</ele>
        <time>2024-06-06T06:18:23+00:00</time>
      </trkpt>
      <trkpt lat="45.41215" lon="6.1841">
        <ele>1874</ele>
        <time>2024-06-06T06:18:26+00:00</time>
      </trkpt>
      <trkpt lat="45.41218" lon="6.18407">
        <ele>1871</ele>
        <time>2024-06-06T06:18:29+00:00</time>
      </trkpt>
      <trkpt lat="45.41221" lon="6.18403">
        <ele>1873</ele>
        <time>2024-06-06T06:18:32+00:00</time>
      </trkpt>
      <trkpt lat="45.41224" lon="6.18402">
        <ele>1873</ele>
        <time>2024-06-06T06:18:35+00:00</time>
      </trkpt>
      <trkpt lat="45.41228" lon="6.18404">
        <ele>1873</ele>
        <time>2024-06-06T06:18:38+00:00</time>
      </trkpt>
      <trkpt lat="45.41231" lon="6.18402">
        <ele>1873</ele>
        <time>2024-06-06T06:18:41+00:00</time>
      </trkpt>
      <trkpt lat="45.41237" lon="6.18397">
        <ele>1871</ele>
        <time>2024-06-06T06:18:44+00:00</time>
      </trkpt>
      <trkpt lat="45.41242" lon="6.18391">
        <ele>1873</ele>
        <time>2024-06-06T06:18:47+00:00</time>
      </trkpt>
      <trkpt lat="45.41246" lon="6.18387">
        <ele>1870</ele>
        <time>2024-06-06T06:18:50+00:00</time>
      </trkpt>
      <trkpt lat="45.4125" lon="6.18378">
        <ele>1869</ele>
        <time>2024-06-06T06:18:53+00:00</time>
      </trkpt>
      <trkpt lat="45.41254" lon="6.18374">
        <ele>1870</ele>
        <time>2024-06-06T06:18:56+00:00</time>
      </trkpt>
      <trkpt lat="45.41262" lon="6.18369">
        <ele>1871</ele>
        <time>2024-06-06T06:18:59+00:00</time>
      </trkpt>
      <trkpt lat="45.41264" lon="6.1836">
        <ele>1871</ele>
        <time>2024-06-06T06:19:02+00:00</time>
      </trkpt>
      <trkpt lat="45.41267" lon="6.1835">
        <ele>1870</ele>
        <time>2024-06-06T06:19:05+00:00</time>
      </trkpt>
      <trkpt lat="45.41273" lon="6.18333">
        <ele>1868</ele>
        <time>2024-06-06T06:19:08+00:00</time>
      </trkpt>
      <trkpt lat="45.41277" lon="6.18323">
        <ele>1864</ele>
        <time>2024-06-06T06:19:11+00:00</time>
      </trkpt>
      <trkpt lat="45.41281" lon="6.18316">
        <ele>1864</ele>
        <time>2024-06-06T06:19:14+00:00</time>
      </trkpt>
      <trkpt lat="45.41284" lon="6.1831">
        <ele>1858</ele>
        <time>2024-06-06T06:19:17+00:00</time>
      </trkpt>
      <trkpt lat="45.41288" lon="6.18305">
        <ele>1858</ele>
        <time>2024-06-06T06:19:20+00:00</time>
      </trkpt>
      <trkpt lat="45.41292" lon="6.18299">
        <ele>1862</ele>
        <time>2024-06-06T06:19:23+00:00</time>
      </trkpt>
      <trkpt lat="45.41295" lon="6.18291">
        <ele>1862</ele>
        <time>2024-06-06T06:19:26+00:00</time>
      </trkpt>
      <trkpt lat="45.41298" lon="6.18277">
        <ele>1857</ele>
        <time>2024-06-06T06:19:29+00:00</time>
      </trkpt>
      <trkpt lat="45.41298" lon="6.18268">
        <ele>1856</ele>
        <time>2024-06-06T06:19:32+00:00</time>
      </trkpt>
      <trkpt lat="45.41298" lon="6.18258">
        <ele>1855</ele>
        <time>2024-06-06T06:19:35+00:00</time>
      </trkpt>
      <trkpt lat="45.41299" lon="6.18248">
        <ele>1858</ele>
        <time>2024-06-06T06:19:38+00:00</time>
      </trkpt>
      <trkpt lat="45.41299" lon="6.1824">
        <ele>1855</ele>
        <time>2024-06-06T06:19:41+00:00</time>
      </trkpt>
      <trkpt lat="45.413" lon="6.18234">
        <ele>1860</ele>
        <time>2024-06-06T06:19:44+00:00</time>
      </trkpt>
      <trkpt lat="45.41301" lon="6.18228">
        <ele>1859</ele>
        <time>2024-06-06T06:19:47+00:00</time>
      </trkpt>
      <trkpt lat="45.41306" lon="6.18224">
        <ele>1857</ele>
        <time>2024-06-06T06:19:50+00:00</time>
      </trkpt>
      <trkpt lat="45.41312" lon="6.18221">
        <ele>1861</ele>
        <time>2024-06-06T06:19:53+00:00</time>
      </trkpt>
      <trkpt lat="45.41314" lon="6.18215">
        <ele>1858</ele>
        <time>2024-06-06T06:19:56+00:00</time>
      </trkpt>
      <trkpt lat="45.41317" lon="6.18207">
        <ele>1857</ele>
        <time>2024-06-06T06:19:59+00:00</time>
      </trkpt>
      <trkpt lat="45.41318" lon="6.18201">
        <ele>1857</ele>
        <time>2024-06-06T06:20:02+00:00</time>
      </trkpt>
      <trkpt lat="45.41319" lon="6.1819">
        <ele>1855</ele>
        <time>2024-06-06T06:20:05+00:00</time>
      </trkpt>
      <trkpt lat="45.41321" lon="6.18178">
        <ele>1859</ele>
        <time>2024-06-06T06:20:08+00:00</time>
      </trkpt>
      <trkpt lat="45.41323" lon="6.18168">
        <ele>1857</ele>
        <time>2024-06-06T06:20:11+00:00</time>
      </trkpt>
      <trkpt lat="45.41325" lon="6.18159">
        <ele>1857</ele>
        <time>2024-06-06T06:20:14+00:00</time>
      </trkpt>
      <trkpt lat="45.41328" lon="6.18148">
        <ele>1857</ele>
        <time>2024-06-06T06:20:17+00:00</time>
      </trkpt>
      <trkpt lat="45.41329" lon="6.18135">
        <ele>1857</ele>
        <time>2024-06-06T06:20:20+00:00</time>
      </trkpt>
      <trkpt lat="45.41331" lon="6.1812">
        <ele>1858</ele>
        <time>2024-06-06T06:20:23+00:00</time>
      </trkpt>
      <trkpt lat="45.41334" lon="6.18113">
        <ele>1858</ele>
        <time>2024-06-06T06:20:26+00:00</time>
      </trkpt>
      <trkpt lat="45.41337" lon="6.18106">
        <ele>1856</ele>
        <time>2024-06-06T06:20:29+00:00</time>
      </trkpt>
      <trkpt lat="45.41336" lon="6.18093">
        <ele>1855</ele>
        <time>2024-06-06T06:20:32+00:00</time>
      </trkpt>
      <trkpt lat="45.41335" lon="6.18081">
        <ele>1854</ele>
        <time>2024-06-06T06:20:35+00:00</time>
      </trkpt>
      <trkpt lat="45.41333" lon="6.18078">
        <ele>1851</ele>
        <time>2024-06-06T06:20:38+00:00</time>
      </trkpt>
      <trkpt lat="45.41332" lon="6.18072">
        <ele>1851</ele>
        <time>2024-06-06T06:20:41+00:00</time>
      </trkpt>
      <trkpt lat="45.41333" lon="6.18064">
        <ele>1850</ele>
        <time>2024-06-06T06:20:44+00:00</time>
      </trkpt>
      <trkpt lat="45.41331" lon="6.18052">
        <ele>1850</ele>
        <time>2024-06-06T06:20:47+00:00</time>
      </trkpt>
      <trkpt lat="45.4133" lon="6.18046">
        <ele>1848</ele>
        <time>2024-06-06T06:20:50+00:00</time>
      </trkpt>
      <trkpt lat="45.4133" lon="6.1804">
        <ele>1845</ele>
        <time>2024-06-06T06:20:53+00:00</time>
      </trkpt>
      <trkpt lat="45.41332" lon="6.18035">
        <ele>1847</ele>
        <time>2024-06-06T06:20:56+00:00</time>
      </trkpt>
      <trkpt lat="45.41333" lon="6.18028">
        <ele>1846</ele>
        <time>2024-06-06T06:20:59+00:00</time>
      </trkpt>
      <trkpt lat="45.41333" lon="6.18018">
        <ele>1845</ele>
        <time>2024-06-06T06:21:02+00:00</time>
      </trkpt>
      <trkpt lat="45.41334" lon="6.1801">
        <ele>1844</ele>
        <time>2024-06-06T06:21:05+00:00</time>
      </trkpt>
      <trkpt lat="45.41334" lon="6.18007">
        <ele>1844</ele>
        <time>2024-06-06T06:21:08+00:00</time>
      </trkpt>
      <trkpt lat="45.41334" lon="6.18001">
        <ele>1844</ele>
        <time>2024-06-06T06:21:11+00:00</time>
      </trkpt>
      <trkpt lat="45.41334" lon="6.17993">
        <ele>1843</ele>
        <time>2024-06-06T06:21:14+00:00</time>
      </trkpt>
      <trkpt lat="45.41333" lon="6.17984">
        <ele>1843</ele>
        <time>2024-06-06T06:21:17+00:00</time>
      </trkpt>
      <trkpt lat="45.41331" lon="6.17974">
        <ele>1843</ele>
        <time>2024-06-06T06:21:20+00:00</time>
      </trkpt>
      <trkpt lat="45.4133" lon="6.17962">
        <ele>1843</ele>
        <time>2024-06-06T06:21:23+00:00</time>
      </trkpt>
      <trkpt lat="45.4133" lon="6.17947">
        <ele>1839</ele>
        <time>2024-06-06T06:21:26+00:00</time>
      </trkpt>
      <trkpt lat="45.41326" lon="6.17943">
        <ele>1837</ele>
        <time>2024-06-06T06:21:29+00:00</time>
      </trkpt>
      <trkpt lat="45.41324" lon="6.17936">
        <ele>1835</ele>
        <time>2024-06-06T06:21:32+00:00</time>
      </trkpt>
      <trkpt lat="45.41321" lon="6.17927">
        <ele>1832</ele>
        <time>2024-06-06T06:21:35+00:00</time>
      </trkpt>
      <trkpt lat="45.41314" lon="6.17924">
        <ele>1831</ele>
        <time>2024-06-06T06:21:38+00:00</time>
      </trkpt>
      <trkpt lat="45.41309" lon="6.17918">
        <ele>1828</ele>
        <time>2024-06-06T06:21:41+00:00</time>
      </trkpt>
      <trkpt lat="45.41308" lon="6.17914">
        <ele>1828</ele>
        <time>2024-06-06T06:21:44+00:00</time>
      </trkpt>
      <trkpt lat="45.41308" lon="6.17905">
        <ele>1827</ele>
        <time>2024-06-06T06:21:47+00:00</time>
      </trkpt>
      <trkpt lat="45.41306" lon="6.179">
        <ele>1827</ele>
        <time>2024-06-06T06:21:50+00:00</time>
      </trkpt>
      <trkpt lat="45.41301" lon="6.17898">
        <ele>1824</ele>
        <time>2024-06-06T06:21:53+00:00</time>
      </trkpt>
      <trkpt lat="45.41298" lon="6.17898">
        <ele>1823</ele>
        <time>2024-06-06T06:21:56+00:00</time>
      </trkpt>
      <trkpt lat="45.41294" lon="6.17894">
        <ele>1823</ele>
        <time>2024-06-06T06:21:59+00:00</time>
      </trkpt>
      <trkpt lat="45.41291" lon="6.17889">
        <ele>1822</ele>
        <time>2024-06-06T06:22:02+00:00</time>
      </trkpt>
      <trkpt lat="45.41292" lon="6.17881">
        <ele>1822</ele>
        <time>2024-06-06T06:22:05+00:00</time>
      </trkpt>
      <trkpt lat="45.41293" lon="6.17874">
        <ele>1820</ele>
        <time>2024-06-06T06:22:08+00:00</time>
      </trkpt>
      <trkpt lat="45.41291" lon="6.17868">
        <ele>1817</ele>
        <time>2024-06-06T06:22:11+00:00</time>
      </trkpt>
      <trkpt lat="45.41289" lon="6.17862">
        <ele>1816</ele>
        <time>2024-06-06T06:22:14+00:00</time>
      </trkpt>
      <trkpt lat="45.41287" lon="6.17856">
        <ele>1814</ele>
        <time>2024-06-06T06:22:17+00:00</time>
      </trkpt>
      <trkpt lat="45.41284" lon="6.17849">
        <ele>1813</ele>
        <time>2024-06-06T06:22:20+00:00</time>
      </trkpt>
      <trkpt lat="45.41283" lon="6.17844">
        <ele>1813</ele>
        <time>2024-06-06T06:22:23+00:00</time>
      </trkpt>
      <trkpt lat="45.41283" lon="6.17838">
        <ele>1810</ele>
        <time>2024-06-06T06:22:26+00:00</time>
      </trkpt>
      <trkpt lat="45.41279" lon="6.17833">
        <ele>1809</ele>
        <time>2024-06-06T06:22:29+00:00</time>
      </trkpt>
      <trkpt lat="45.41275" lon="6.17827">
        <ele>1808</ele>
        <time>2024-06-06T06:22:32+00:00</time>
      </trkpt>
      <trkpt lat="45.41275" lon="6.17821">
        <ele>1808</ele>
        <time>2024-06-06T06:22:35+00:00</time>
      </trkpt>
      <trkpt lat="45.41276" lon="6.17818">
        <ele>1807</ele>
        <time>2024-06-06T06:22:38+00:00</time>
      </trkpt>
      <trkpt lat="45.41279" lon="6.17818">
        <ele>1807</ele>
        <time>2024-06-06T06:22:41+00:00</time>
      </trkpt>
      <trkpt lat="45.41283" lon="6.17823">
        <ele>1808</ele>
        <time>2024-06-06T06:22:44+00:00</time>
      </trkpt>
      <trkpt lat="45.41297" lon="6.1783">
        <ele>1805</ele>
        <time>2024-06-06T06:22:47+00:00</time>
      </trkpt>
      <trkpt lat="45.41304" lon="6.17835">
        <ele>1807</ele>
        <time>2024-06-06T06:22:50+00:00</time>
      </trkpt>
      <trkpt lat="45.41313" lon="6.17837">
        <ele>1806</ele>
        <time>2024-06-06T06:22:53+00:00</time>
      </trkpt>
      <trkpt lat="45.41322" lon="6.17839">
        <ele>1805</ele>
        <time>2024-06-06T06:22:56+00:00</time>
      </trkpt>
      <trkpt lat="45.41332" lon="6.17843">
        <ele>1807</ele>
        <time>2024-06-06T06:22:59+00:00</time>
      </trkpt>
      <trkpt lat="45.41343" lon="6.17846">
        <ele>1806</ele>
        <time>2024-06-06T06:23:02+00:00</time>
      </trkpt>
      <trkpt lat="45.41355" lon="6.1785">
        <ele>1807</ele>
        <time>2024-06-06T06:23:05+00:00</time>
      </trkpt>
      <trkpt lat="45.41363" lon="6.17853">
        <ele>1806</ele>
        <time>2024-06-06T06:23:08+00:00</time>
      </trkpt>
      <trkpt lat="45.41374" lon="6.17854">
        <ele>1805</ele>
        <time>2024-06-06T06:23:11+00:00</time>
      </trkpt>
      <trkpt lat="45.41385" lon="6.17855">
        <ele>1804</ele>
        <time>2024-06-06T06:23:14+00:00</time>
      </trkpt>
      <trkpt lat="45.41392" lon="6.17856">
        <ele>1804</ele>
        <time>2024-06-06T06:23:17+00:00</time>
      </trkpt>
      <trkpt lat="45.41401" lon="6.17854">
        <ele>1804</ele>
        <time>2024-06-06T06:23:20+00:00</time>
      </trkpt>
      <trkpt lat="45.4141" lon="6.17852">
        <ele>1804</ele>
        <time>2024-06-06T06:23:23+00:00</time>
      </trkpt>
      <trkpt lat="45.41423" lon="6.1785">
        <ele>1805</ele>
        <time>2024-06-06T06:23:26+00:00</time>
      </trkpt>
      <trkpt lat="45.41431" lon="6.1785">
        <ele>1803</ele>
        <time>2024-06-06T06:23:29+00:00</time>
      </trkpt>
      <trkpt lat="45.41439" lon="6.1785">
        <ele>1802</ele>
        <time>2024-06-06T06:23:32+00:00</time>
      </trkpt>
      <trkpt lat="45.41446" lon="6.17851">
        <ele>1805</ele>
        <time>2024-06-06T06:23:35+00:00</time>
      </trkpt>
      <trkpt lat="45.41458" lon="6.17854">
        <ele>1803</ele>
        <time>2024-06-06T06:23:38+00:00</time>
      </trkpt>
      <trkpt lat="45.41465" lon="6.17853">
        <ele>1802</ele>
        <time>2024-06-06T06:23:41+00:00</time>
      </trkpt>
      <trkpt lat="45.41474" lon="6.17853">
        <ele>1802</ele>
        <time>2024-06-06T06:23:44+00:00</time>
      </trkpt>
      <trkpt lat="45.41479" lon="6.17857">
        <ele>1802</ele>
        <time>2024-06-06T06:23:47+00:00</time>
      </trkpt>
      <trkpt lat="45.41484" lon="6.17859">
        <ele>1799</ele>
        <time>2024-06-06T06:23:50+00:00</time>
      </trkpt>
      <trkpt lat="45.41492" lon="6.17859">
        <ele>1799</ele>
        <time>2024-06-06T06:23:53+00:00</time>
      </trkpt>
      <trkpt lat="45.41498" lon="6.17854">
        <ele>1799</ele>
        <time>2024-06-06T06:23:56+00:00</time>
      </trkpt>
      <trkpt lat="45.41503" lon="6.17846">
        <ele>1801</ele>
        <time>2024-06-06T06:23:59+00:00</time>
      </trkpt>
      <trkpt lat="45.4151" lon="6.17842">
        <ele>1801</ele>
        <time>2024-06-06T06:24:02+00:00</time>
      </trkpt>
      <trkpt lat="45.41519" lon="6.17838">
        <ele>1796</ele>
        <time>2024-06-06T06:24:05+00:00</time>
      </trkpt>
      <trkpt lat="45.41528" lon="6.17833">
        <ele>1798</ele>
        <time>2024-06-06T06:24:08+00:00</time>
      </trkpt>
      <trkpt lat="45.41536" lon="6.17827">
        <ele>1795</ele>
        <time>2024-06-06T06:24:11+00:00</time>
      </trkpt>
      <trkpt lat="45.41547" lon="6.17823">
        <ele>1796</ele>
        <time>2024-06-06T06:24:14+00:00</time>
      </trkpt>
      <trkpt lat="45.41557" lon="6.17819">
        <ele>1793</ele>
        <time>2024-06-06T06:24:17+00:00</time>
      </trkpt>
      <trkpt lat="45.41565" lon="6.17813">
        <ele>1793</ele>
        <time>2024-06-06T06:24:20+00:00</time>
      </trkpt>
      <trkpt lat="45.41575" lon="6.178">
        <ele>1794</ele>
        <time>2024-06-06T06:24:23+00:00</time>
      </trkpt>
      <trkpt lat="45.41585" lon="6.17786">
        <ele>1792</ele>
        <time>2024-06-06T06:24:26+00:00</time>
      </trkpt>
      <trkpt lat="45.41591" lon="6.17775">
        <ele>1794</ele>
        <time>2024-06-06T06:24:29+00:00</time>
      </trkpt>
      <trkpt lat="45.41598" lon="6.1776">
        <ele>1792</ele>
        <time>2024-06-06T06:24:32+00:00</time>
      </trkpt>
      <trkpt lat="45.41603" lon="6.17749">
        <ele>1791</ele>
        <time>2024-06-06T06:24:35+00:00</time>
      </trkpt>
      <trkpt lat="45.41605" lon="6.17735">
        <ele>1790</ele>
        <time>2024-06-06T06:24:38+00:00</time>
      </trkpt>
      <trkpt lat="45.41609" lon="6.1772">
        <ele>1786</ele>
        <time>2024-06-06T06:24:41+00:00</time>
      </trkpt>
      <trkpt lat="45.41612" lon="6.17708">
        <ele>1789</ele>
        <time>2024-06-06T06:24:44+00:00</time>
      </trkpt>
      <trkpt lat="45.41615" lon="6.17693">
        <ele>1788</ele>
        <time>2024-06-06T06:24:47+00:00</time>
      </trkpt>
      <trkpt lat="45.41618" lon="6.17679">
        <ele>1787</ele>
        <time>2024-06-06T06:24:50+00:00</time>
      </trkpt>
      <trkpt lat="45.4162" lon="6.17668">
        <ele>1788</ele>
        <time>2024-06-06T06:24:53+00:00</time>
      </trkpt>
      <trkpt lat="45.41624" lon="6.17651">
        <ele>1786</ele>
        <time>2024-06-06T06:24:56+00:00</time>
      </trkpt>
      <trkpt lat="45.41626" lon="6.17639">
        <ele>1782</ele>
        <time>2024-06-06T06:24:59+00:00</time>
      </trkpt>
      <trkpt lat="45.41629" lon="6.1763">
        <ele>1778</ele>
        <time>2024-06-06T06:25:02+00:00</time>
      </trkpt>
      <trkpt lat="45.41635" lon="6.17621">
        <ele>1783</ele>
        <time>2024-06-06T06:25:05+00:00</time>
      </trkpt>
      <trkpt lat="45.41637" lon="6.17612">
        <ele>1780</ele>
        <time>2024-06-06T06:25:08+00:00</time>
      </trkpt>
      <trkpt lat="45.41641" lon="6.17602">
        <ele>1782</ele>
        <time>2024-06-06T06:25:11+00:00</time>
      </trkpt>
      <trkpt lat="45.41646" lon="6.17592">
        <ele>1778</ele>
        <time>2024-06-06T06:25:14+00:00</time>
      </trkpt>
      <trkpt lat="45.41652" lon="6.17583">
        <ele>1781</ele>
        <time>2024-06-06T06:25:17+00:00</time>
      </trkpt>
      <trkpt lat="45.41659" lon="6.17575">
        <ele>1777</ele>
        <time>2024-06-06T06:25:20+00:00</time>
      </trkpt>
      <trkpt lat="45.41667" lon="6.17569">
        <ele>1775</ele>
        <time>2024-06-06T06:25:23+00:00</time>
      </trkpt>
      <trkpt lat="45.41678" lon="6.17559">
        <ele>1773</ele>
        <time>2024-06-06T06:25:26+00:00</time>
      </trkpt>
      <trkpt lat="45.4169" lon="6.17548">
        <ele>1774</ele>
        <time>2024-06-06T06:25:29+00:00</time>
      </trkpt>
      <trkpt lat="45.41705" lon="6.17532">
        <ele>1774</ele>
        <time>2024-06-06T06:25:32+00:00</time>
      </trkpt>
      <trkpt lat="45.41723" lon="6.17515">
        <ele>1774</ele>
        <time>2024-06-06T06:25:35+00:00</time>
      </trkpt>
      <trkpt lat="45.41731" lon="6.17505">
        <ele>1772</ele>
        <time>2024-06-06T06:25:38+00:00</time>
      </trkpt>
      <trkpt lat="45.41739" lon="6.17495">
        <ele>1769</ele>
        <time>2024-06-06T06:25:41+00:00</time>
      </trkpt>
      <trkpt lat="45.41748" lon="6.17484">
        <ele>1771</ele>
        <time>2024-06-06T06:25:44+00:00</time>
      </trkpt>
      <trkpt lat="45.41756" lon="6.17475">
        <ele>1769</ele>
        <time>2024-06-06T06:25:47+00:00</time>
      </trkpt>
      <trkpt lat="45.41764" lon="6.17466">
        <ele>1768</ele>
        <time>2024-06-06T06:25:50+00:00</time>
      </trkpt>
      <trkpt lat="45.41776" lon="6.17456">
        <ele>1768</ele>
        <time>2024-06-06T06:25:53+00:00</time>
      </trkpt>
      <trkpt lat="45.41785" lon="6.17444">
        <ele>1764</ele>
        <time>2024-06-06T06:25:56+00:00</time>
      </trkpt>
      <trkpt lat="45.41795" lon="6.17435">
        <ele>1763</ele>
        <time>2024-06-06T06:25:59+00:00</time>
      </trkpt>
      <trkpt lat="45.41804" lon="6.17425">
        <ele>1763</ele>
        <time>2024-06-06T06:26:02+00:00</time>
      </trkpt>
      <trkpt lat="45.41813" lon="6.17419">
        <ele>1762</ele>
        <time>2024-06-06T06:26:05+00:00</time>
      </trkpt>
      <trkpt lat="45.41823" lon="6.17408">
        <ele>1757</ele>
        <time>2024-06-06T06:26:08+00:00</time>
      </trkpt>
      <trkpt lat="45.41833" lon="6.174">
        <ele>1762</ele>
        <time>2024-06-06T06:26:11+00:00</time>
      </trkpt>
      <trkpt lat="45.41841" lon="6.17392">
        <ele>1762</ele>
        <time>2024-06-06T06:26:14+00:00</time>
      </trkpt>
      <trkpt lat="45.41848" lon="6.17383">
        <ele>1762</ele>
        <time>2024-06-06T06:26:17+00:00</time>
      </trkpt>
      <trkpt lat="45.41856" lon="6.17373">
        <ele>1759</ele>
        <time>2024-06-06T06:26:20+00:00</time>
      </trkpt>
      <trkpt lat="45.41863" lon="6.17362">
        <ele>1762</ele>
        <time>2024-06-06T06:26:23+00:00</time>
      </trkpt>
      <trkpt lat="45.4187" lon="6.17352">
        <ele>1758</ele>
        <time>2024-06-06T06:26:26+00:00</time>
      </trkpt>
      <trkpt lat="45.41877" lon="6.1734">
        <ele>1758</ele>
        <time>2024-06-06T06:26:29+00:00</time>
      </trkpt>
      <trkpt lat="45.4188" lon="6.17334">
        <ele>1758</ele>
        <time>2024-06-06T06:26:32+00:00</time>
      </trkpt>
      <trkpt lat="45.41883" lon="6.17326">
        <ele>1759</ele>
        <time>2024-06-06T06:26:35+00:00</time>
      </trkpt>
      <trkpt lat="45.41885" lon="6.1732">
        <ele>1757</ele>
        <time>2024-06-06T06:26:38+00:00</time>
      </trkpt>
      <trkpt lat="45.41886" lon="6.17312">
        <ele>1757</ele>
        <time>2024-06-06T06:26:41+00:00</time>
      </trkpt>
      <trkpt lat="45.41887" lon="6.17304">
        <ele>1756</ele>
        <time>2024-06-06T06:26:44+00:00</time>
      </trkpt>
      <trkpt lat="45.41889" lon="6.17297">
        <ele>1753</ele>
        <time>2024-06-06T06:26:47+00:00</time>
      </trkpt>
      <trkpt lat="45.41892" lon="6.17289">
        <ele>1759</ele>
        <time>2024-06-06T06:26:50+00:00</time>
      </trkpt>
      <trkpt lat="45.41894" lon="6.17278">
        <ele>1757</ele>
        <time>2024-06-06T06:26:53+00:00</time>
      </trkpt>
      <trkpt lat="45.41898" lon="6.17267">
        <ele>1755</ele>
        <time>2024-06-06T06:26:56+00:00</time>
      </trkpt>
      <trkpt lat="45.41898" lon="6.17266">
        <ele>1755</ele>
        <time>2024-06-06T06:26:59+00:00</time>
      </trkpt>
      <trkpt lat="45.41901" lon="6.17237">
        <ele>1755</ele>
        <time>2024-06-06T06:27:02+00:00</time>
      </trkpt>
      <trkpt lat="45.41904" lon="6.17203">
        <ele>1750</ele>
        <time>2024-06-06T06:27:05+00:00</time>
      </trkpt>
      <trkpt lat="45.41911" lon="6.17168">
        <ele>1750</ele>
        <time>2024-06-06T06:27:08+00:00</time>
      </trkpt>
      <trkpt lat="45.41912" lon="6.17163">
        <ele>1750</ele>
        <time>2024-06-06T06:27:11+00:00</time>
      </trkpt>
      <trkpt lat="45.41912" lon="6.1716">
        <ele>1750</ele>
        <time>2024-06-06T06:27:14+00:00</time>
      </trkpt>
      <trkpt lat="45.41917" lon="6.17138">
        <ele>1749</ele>
        <time>2024-06-06T06:27:17+00:00</time>
      </trkpt>
      <trkpt lat="45.4192" lon="6.17114">
        <ele>1743</ele>
        <time>2024-06-06T06:27:20+00:00</time>
      </trkpt>
      <trkpt lat="45.41923" lon="6.17092">
        <ele>1748</ele>
        <time>2024-06-06T06:27:23+00:00</time>
      </trkpt>
      <trkpt lat="45.41928" lon="6.17077">
        <ele>1746</ele>
        <time>2024-06-06T06:27:26+00:00</time>
      </trkpt>
      <trkpt lat="45.41936" lon="6.17058">
        <ele>1748</ele>
        <time>2024-06-06T06:27:29+00:00</time>
      </trkpt>
      <trkpt lat="45.41939" lon="6.17052">
        <ele>1748</ele>
        <time>2024-06-06T06:27:32+00:00</time>
      </trkpt>
      <trkpt lat="45.41943" lon="6.17045">
        <ele>1748</ele>
        <time>2024-06-06T06:27:35+00:00</time>
      </trkpt>
      <trkpt lat="45.41947" lon="6.17044">
        <ele>1748</ele>
        <time>2024-06-06T06:27:38+00:00</time>
      </trkpt>
      <trkpt lat="45.41948" lon="6.17031">
        <ele>1745</ele>
        <time>2024-06-06T06:27:41+00:00</time>
      </trkpt>
      <trkpt lat="45.41948" lon="6.17016">
        <ele>1740</ele>
        <time>2024-06-06T06:27:44+00:00</time>
      </trkpt>
      <trkpt lat="45.41946" lon="6.17">
        <ele>1738</ele>
        <time>2024-06-06T06:27:47+00:00</time>
      </trkpt>
      <trkpt lat="45.41942" lon="6.16989">
        <ele>1735</ele>
        <time>2024-06-06T06:27:50+00:00</time>
      </trkpt>
      <trkpt lat="45.41938" lon="6.16977">
        <ele>1732</ele>
        <time>2024-06-06T06:27:53+00:00</time>
      </trkpt>
      <trkpt lat="45.41933" lon="6.16961">
        <ele>1730</ele>
        <time>2024-06-06T06:27:56+00:00</time>
      </trkpt>
      <trkpt lat="45.41928" lon="6.16945">
        <ele>1725</ele>
        <time>2024-06-06T06:27:59+00:00</time>
      </trkpt>
      <trkpt lat="45.41925" lon="6.16926">
        <ele>1722</ele>
        <time>2024-06-06T06:28:02+00:00</time>
      </trkpt>
      <trkpt lat="45.41923" lon="6.16914">
        <ele>1720</ele>
        <time>2024-06-06T06:28:05+00:00</time>
      </trkpt>
      <trkpt lat="45.41921" lon="6.16905">
        <ele>1719</ele>
        <time>2024-06-06T06:28:08+00:00</time>
      </trkpt>
      <trkpt lat="45.41919" lon="6.16899">
        <ele>1721</ele>
        <time>2024-06-06T06:28:11+00:00</time>
      </trkpt>
      <trkpt lat="45.41934" lon="6.16895">
        <ele>1720</ele>
        <time>2024-06-06T06:28:14+00:00</time>
      </trkpt>
      <trkpt lat="45.41942" lon="6.16891">
        <ele>1722</ele>
        <time>2024-06-06T06:28:17+00:00</time>
      </trkpt>
      <trkpt lat="45.41945" lon="6.1689">
        <ele>1720</ele>
        <time>2024-06-06T06:28:20+00:00</time>
      </trkpt>
      <trkpt lat="45.4196" lon="6.16885">
        <ele>1720</ele>
        <time>2024-06-06T06:28:23+00:00</time>
      </trkpt>
      <trkpt lat="45.41968" lon="6.16917">
        <ele>1723</ele>
        <time>2024-06-06T06:28:26+00:00</time>
      </trkpt>
      <trkpt lat="45.41983" lon="6.16974">
        <ele>1734</ele>
        <time>2024-06-06T06:28:29+00:00</time>
      </trkpt>
      <trkpt lat="45.41995" lon="6.17024">
        <ele>1748</ele>
        <time>2024-06-06T06:28:32+00:00</time>
      </trkpt>
      <trkpt lat="45.41999" lon="6.17056">
        <ele>1756</ele>
        <time>2024-06-06T06:28:35+00:00</time>
      </trkpt>
      <trkpt lat="45.42004" lon="6.17077">
        <ele>1762</ele>
        <time>2024-06-06T06:28:38+00:00</time>
      </trkpt>
      <trkpt lat="45.42028" lon="6.17093">
        <ele>1770</ele>
        <time>2024-06-06T06:28:41+00:00</time>
      </trkpt>
      <trkpt lat="45.42045" lon="6.17111">
        <ele>1776</ele>
        <time>2024-06-06T06:28:44+00:00</time>
      </trkpt>
      <trkpt lat="45.42061" lon="6.17134">
        <ele>1783</ele>
        <time>2024-06-06T06:28:47+00:00</time>
      </trkpt>
      <trkpt lat="45.42072" lon="6.17142">
        <ele>1788</ele>
        <time>2024-06-06T06:28:50+00:00</time>
      </trkpt>
      <trkpt lat="45.42093" lon="6.17162">
        <ele>1796</ele>
        <time>2024-06-06T06:28:53+00:00</time>
      </trkpt>
      <trkpt lat="45.42128" lon="6.17196">
        <ele>1808</ele>
        <time>2024-06-06T06:28:56+00:00</time>
      </trkpt>
      <trkpt lat="45.42117" lon="6.17233">
        <ele>1825</ele>
        <time>2024-06-06T06:28:59+00:00</time>
      </trkpt>
      <trkpt lat="45.42102" lon="6.17288">
        <ele>1841</ele>
        <time>2024-06-06T06:29:02+00:00</time>
      </trkpt>
      <trkpt lat="45.42096" lon="6.17313">
        <ele>1850</ele>
        <time>2024-06-06T06:29:05+00:00</time>
      </trkpt>
      <trkpt lat="45.42097" lon="6.17337">
        <ele>1856</ele>
        <time>2024-06-06T06:29:08+00:00</time>
      </trkpt>
      <trkpt lat="45.42099" lon="6.17364">
        <ele>1862</ele>
        <time>2024-06-06T06:29:11+00:00</time>
      </trkpt>
      <trkpt lat="45.42105" lon="6.17379">
        <ele>1863</ele>
        <time>2024-06-06T06:29:14+00:00</time>
      </trkpt>
      <trkpt lat="45.42094" lon="6.17406">
        <ele>1865</ele>
        <time>2024-06-06T06:29:17+00:00</time>
      </trkpt>
      <trkpt lat="45.42078" lon="6.17444">
        <ele>1872</ele>
        <time>2024-06-06T06:29:20+00:00</time>
      </trkpt>
      <trkpt lat="45.42068" lon="6.17461">
        <ele>1874</ele>
        <time>2024-06-06T06:29:23+00:00</time>
      </trkpt>
      <trkpt lat="45.4206" lon="6.17474">
        <ele>1875</ele>
        <time>2024-06-06T06:29:26+00:00</time>
      </trkpt>
      <trkpt lat="45.42047" lon="6.17495">
        <ele>1876</ele>
        <time>2024-06-06T06:29:29+00:00</time>
      </trkpt>
      <trkpt lat="45.42038" lon="6.17514">
        <ele>1878</ele>
        <time>2024-06-06T06:29:32+00:00</time>
      </trkpt>
      <trkpt lat="45.42026" lon="6.17536">
        <ele>1880</ele>
        <time>2024-06-06T06:29:35+00:00</time>
      </trkpt>
      <trkpt lat="45.4202" lon="6.1755">
        <ele>1884</ele>
        <time>2024-06-06T06:29:38+00:00</time>
      </trkpt>
      <trkpt lat="45.42016" lon="6.17559">
        <ele>1883</ele>
        <time>2024-06-06T06:29:41+00:00</time>
      </trkpt>
      <trkpt lat="45.42013" lon="6.17567">
        <ele>1885</ele>
        <time>2024-06-06T06:29:44+00:00</time>
      </trkpt>
      <trkpt lat="45.42009" lon="6.17575">
        <ele>1884</ele>
        <time>2024-06-06T06:29:47+00:00</time>
      </trkpt>
      <trkpt lat="45.42001" lon="6.17585">
        <ele>1884</ele>
        <time>2024-06-06T06:29:50+00:00</time>
      </trkpt>
      <trkpt lat="45.41993" lon="6.17593">
        <ele>1887</ele>
        <time>2024-06-06T06:29:53+00:00</time>
      </trkpt>
      <trkpt lat="45.41986" lon="6.176">
        <ele>1885</ele>
        <time>2024-06-06T06:29:56+00:00</time>
      </trkpt>
      <trkpt lat="45.41975" lon="6.17608">
        <ele>1883</ele>
        <time>2024-06-06T06:29:59+00:00</time>
      </trkpt>
      <trkpt lat="45.41956" lon="6.17619">
        <ele>1883</ele>
        <time>2024-06-06T06:30:02+00:00</time>
      </trkpt>
      <trkpt lat="45.41943" lon="6.17626">
        <ele>1882</ele>
        <time>2024-06-06T06:30:05+00:00</time>
      </trkpt>
      <trkpt lat="45.41937" lon="6.17629">
        <ele>1886</ele>
        <time>2024-06-06T06:30:08+00:00</time>
      </trkpt>
      <trkpt lat="45.41932" lon="6.17633">
        <ele>1885</ele>
        <time>2024-06-06T06:30:11+00:00</time>
      </trkpt>
      <trkpt lat="45.41925" lon="6.17643">
        <ele>1887</ele>
        <time>2024-06-06T06:30:14+00:00</time>
      </trkpt>
      <trkpt lat="45.4192" lon="6.17651">
        <ele>1889</ele>
        <time>2024-06-06T06:30:17+00:00</time>
      </trkpt>
      <trkpt lat="45.41918" lon="6.17652">
        <ele>1889</ele>
        <time>2024-06-06T06:30:20+00:00</time>
      </trkpt>
      <trkpt lat="45.41916" lon="6.17653">
        <ele>1889</ele>
        <time>2024-06-06T06:30:23+00:00</time>
      </trkpt>
      <trkpt lat="45.41915" lon="6.17654">
        <ele>1889</ele>
        <time>2024-06-06T06:30:26+00:00</time>
      </trkpt>
      <trkpt lat="45.41914" lon="6.17656">
        <ele>1889</ele>
        <time>2024-06-06T06:30:29+00:00</time>
      </trkpt>
      <trkpt lat="45.41913" lon="6.17658">
        <ele>1889</ele>
        <time>2024-06-06T06:30:32+00:00</time>
      </trkpt>
      <trkpt lat="45.41911" lon="6.17658">
        <ele>1889</ele>
        <time>2024-06-06T06:30:35+00:00</time>
      </trkpt>
      <trkpt lat="45.4191" lon="6.17658">
        <ele>1889</ele>
        <time>2024-06-06T06:30:38+00:00</time>
      </trkpt>
      <trkpt lat="45.41909" lon="6.17659">
        <ele>1888</ele>
        <time>2024-06-06T06:30:41+00:00</time>
      </trkpt>
      <trkpt lat="45.41908" lon="6.17661">
        <ele>1894</ele>
        <time>2024-06-06T06:30:44+00:00</time>
      </trkpt>
      <trkpt lat="45.41895" lon="6.17677">
        <ele>1897</ele>
        <time>2024-06-06T06:30:47+00:00</time>
      </trkpt>
      <trkpt lat="45.41887" lon="6.17682">
        <ele>1898</ele>
        <time>2024-06-06T06:30:50+00:00</time>
      </trkpt>
      <trkpt lat="45.41884" lon="6.17687">
        <ele>1898</ele>
        <time>2024-06-06T06:30:53+00:00</time>
      </trkpt>
      <trkpt lat="45.41873" lon="6.17698">
        <ele>1897</ele>
        <time>2024-06-06T06:30:56+00:00</time>
      </trkpt>
      <trkpt lat="45.41867" lon="6.17705">
        <ele>1899</ele>
        <time>2024-06-06T06:30:59+00:00</time>
      </trkpt>
      <trkpt lat="45.41859" lon="6.17713">
        <ele>1898</ele>
        <time>2024-06-06T06:31:02+00:00</time>
      </trkpt>
      <trkpt lat="45.41849" lon="6.17726">
        <ele>1898</ele>
        <time>2024-06-06T06:31:05+00:00</time>
      </trkpt>
      <trkpt lat="45.41834" lon="6.17744">
        <ele>1900</ele>
        <time>2024-06-06T06:31:08+00:00</time>
      </trkpt>
      <trkpt lat="45.41821" lon="6.17764">
        <ele>1900</ele>
        <time>2024-06-06T06:31:11+00:00</time>
      </trkpt>
      <trkpt lat="45.41812" lon="6.17783">
        <ele>1899</ele>
        <time>2024-06-06T06:31:14+00:00</time>
      </trkpt>
      <trkpt lat="45.41805" lon="6.17792">
        <ele>1898</ele>
        <time>2024-06-06T06:31:17+00:00</time>
      </trkpt>
      <trkpt lat="45.41797" lon="6.17798">
        <ele>1894</ele>
        <time>2024-06-06T06:31:20+00:00</time>
      </trkpt>
      <trkpt lat="45.41789" lon="6.17806">
        <ele>1893</ele>
        <time>2024-06-06T06:31:23+00:00</time>
      </trkpt>
      <trkpt lat="45.41776" lon="6.17823">
        <ele>1893</ele>
        <time>2024-06-06T06:31:26+00:00</time>
      </trkpt>
      <trkpt lat="45.41763" lon="6.17841">
        <ele>1893</ele>
        <time>2024-06-06T06:31:29+00:00</time>
      </trkpt>
      <trkpt lat="45.41754" lon="6.17852">
        <ele>1892</ele>
        <time>2024-06-06T06:31:32+00:00</time>
      </trkpt>
      <trkpt lat="45.41753" lon="6.1786">
        <ele>1892</ele>
        <time>2024-06-06T06:31:35+00:00</time>
      </trkpt>
      <trkpt lat="45.41751" lon="6.17868">
        <ele>1893</ele>
        <time>2024-06-06T06:31:38+00:00</time>
      </trkpt>
      <trkpt lat="45.41747" lon="6.17876">
        <ele>1893</ele>
        <time>2024-06-06T06:31:41+00:00</time>
      </trkpt>
      <trkpt lat="45.4174" lon="6.17891">
        <ele>1893</ele>
        <time>2024-06-06T06:31:44+00:00</time>
      </trkpt>
      <trkpt lat="45.41735" lon="6.17904">
        <ele>1896</ele>
        <time>2024-06-06T06:31:47+00:00</time>
      </trkpt>
      <trkpt lat="45.41732" lon="6.17911">
        <ele>1898</ele>
        <time>2024-06-06T06:31:50+00:00</time>
      </trkpt>
      <trkpt lat="45.41731" lon="6.17918">
        <ele>1898</ele>
        <time>2024-06-06T06:31:53+00:00</time>
      </trkpt>
      <trkpt lat="45.4173" lon="6.17923">
        <ele>1898</ele>
        <time>2024-06-06T06:31:56+00:00</time>
      </trkpt>
      <trkpt lat="45.41727" lon="6.17925">
        <ele>1898</ele>
        <time>2024-06-06T06:31:59+00:00</time>
      </trkpt>
      <trkpt lat="45.41724" lon="6.17928">
        <ele>1898</ele>
        <time>2024-06-06T06:32:02+00:00</time>
      </trkpt>
      <trkpt lat="45.41722" lon="6.17931">
        <ele>1901</ele>
        <time>2024-06-06T06:32:05+00:00</time>
      </trkpt>
      <trkpt lat="45.41721" lon="6.17938">
        <ele>1901</ele>
        <time>2024-06-06T06:32:08+00:00</time>
      </trkpt>
      <trkpt lat="45.41717" lon="6.17954">
        <ele>1903</ele>
        <time>2024-06-06T06:32:11+00:00</time>
      </trkpt>
      <trkpt lat="45.41714" lon="6.17961">
        <ele>1907</ele>
        <time>2024-06-06T06:32:14+00:00</time>
      </trkpt>
      <trkpt lat="45.41707" lon="6.17974">
        <ele>1906</ele>
        <time>2024-06-06T06:32:17+00:00</time>
      </trkpt>
      <trkpt lat="45.41703" lon="6.17982">
        <ele>1909</ele>
        <time>2024-06-06T06:32:20+00:00</time>
      </trkpt>
      <trkpt lat="45.41701" lon="6.17988">
        <ele>1909</ele>
        <time>2024-06-06T06:32:23+00:00</time>
      </trkpt>
      <trkpt lat="45.41697" lon="6.17993">
        <ele>1910</ele>
        <time>2024-06-06T06:32:26+00:00</time>
      </trkpt>
      <trkpt lat="45.41694" lon="6.17998">
        <ele>1910</ele>
        <time>2024-06-06T06:32:29+00:00</time>
      </trkpt>
      <trkpt lat="45.41692" lon="6.18002">
        <ele>1912</ele>
        <time>2024-06-06T06:32:32+00:00</time>
      </trkpt>
      <trkpt lat="45.41688" lon="6.18006">
        <ele>1910</ele>
        <time>2024-06-06T06:32:35+00:00</time>
      </trkpt>
      <trkpt lat="45.41686" lon="6.1801">
        <ele>1910</ele>
        <time>2024-06-06T06:32:38+00:00</time>
      </trkpt>
      <trkpt lat="45.41685" lon="6.18013">
        <ele>1913</ele>
        <time>2024-06-06T06:32:41+00:00</time>
      </trkpt>
      <trkpt lat="45.41684" lon="6.18016">
        <ele>1913</ele>
        <time>2024-06-06T06:32:44+00:00</time>
      </trkpt>
      <trkpt lat="45.41682" lon="6.18016">
        <ele>1913</ele>
        <time>2024-06-06T06:32:47+00:00</time>
      </trkpt>
      <trkpt lat="45.41681" lon="6.18018">
        <ele>1913</ele>
        <time>2024-06-06T06:32:50+00:00</time>
      </trkpt>
      <trkpt lat="45.41679" lon="6.1802">
        <ele>1910</ele>
        <time>2024-06-06T06:32:53+00:00</time>
      </trkpt>
      <trkpt lat="45.41678" lon="6.18022">
        <ele>1915</ele>
        <time>2024-06-06T06:32:56+00:00</time>
      </trkpt>
      <trkpt lat="45.41677" lon="6.18026">
        <ele>1915</ele>
        <time>2024-06-06T06:32:59+00:00</time>
      </trkpt>
      <trkpt lat="45.41675" lon="6.18029">
        <ele>1915</ele>
        <time>2024-06-06T06:33:02+00:00</time>
      </trkpt>
      <trkpt lat="45.41673" lon="6.18031">
        <ele>1918</ele>
        <time>2024-06-06T06:33:05+00:00</time>
      </trkpt>
      <trkpt lat="45.41672" lon="6.18034">
        <ele>1918</ele>
        <time>2024-06-06T06:33:08+00:00</time>
      </trkpt>
      <trkpt lat="45.4167" lon="6.18039">
        <ele>1916</ele>
        <time>2024-06-06T06:33:11+00:00</time>
      </trkpt>
      <trkpt lat="45.41666" lon="6.18047">
        <ele>1919</ele>
        <time>2024-06-06T06:33:14+00:00</time>
      </trkpt>
      <trkpt lat="45.41663" lon="6.18057">
        <ele>1923</ele>
        <time>2024-06-06T06:33:17+00:00</time>
      </trkpt>
      <trkpt lat="45.41658" lon="6.18068">
        <ele>1923</ele>
        <time>2024-06-06T06:33:20+00:00</time>
      </trkpt>
      <trkpt lat="45.41658" lon="6.18079">
        <ele>1926</ele>
        <time>2024-06-06T06:33:23+00:00</time>
      </trkpt>
      <trkpt lat="45.41654" lon="6.18089">
        <ele>1929</ele>
        <time>2024-06-06T06:33:26+00:00</time>
      </trkpt>
      <trkpt lat="45.41651" lon="6.18096">
        <ele>1931</ele>
        <time>2024-06-06T06:33:29+00:00</time>
      </trkpt>
      <trkpt lat="45.41649" lon="6.18104">
        <ele>1932</ele>
        <time>2024-06-06T06:33:32+00:00</time>
      </trkpt>
      <trkpt lat="45.41648" lon="6.1811">
        <ele>1932</ele>
        <time>2024-06-06T06:33:35+00:00</time>
      </trkpt>
      <trkpt lat="45.41646" lon="6.18116">
        <ele>1936</ele>
        <time>2024-06-06T06:33:38+00:00</time>
      </trkpt>
      <trkpt lat="45.41645" lon="6.18121">
        <ele>1939</ele>
        <time>2024-06-06T06:33:41+00:00</time>
      </trkpt>
      <trkpt lat="45.41643" lon="6.18125">
        <ele>1939</ele>
        <time>2024-06-06T06:33:44+00:00</time>
      </trkpt>
      <trkpt lat="45.4164" lon="6.18129">
        <ele>1938</ele>
        <time>2024-06-06T06:33:47+00:00</time>
      </trkpt>
      <trkpt lat="45.41639" lon="6.18134">
        <ele>1941</ele>
        <time>2024-06-06T06:33:50+00:00</time>
      </trkpt>
      <trkpt lat="45.41635" lon="6.18137">
        <ele>1941</ele>
        <time>2024-06-06T06:33:53+00:00</time>
      </trkpt>
      <trkpt lat="45.41635" lon="6.18143">
        <ele>1945</ele>
        <time>2024-06-06T06:33:56+00:00</time>
      </trkpt>
      <trkpt lat="45.41635" lon="6.18149">
        <ele>1945</ele>
        <time>2024-06-06T06:33:59+00:00</time>
      </trkpt>
      <trkpt lat="45.41635" lon="6.18155">
        <ele>1948</ele>
        <time>2024-06-06T06:34:02+00:00</time>
      </trkpt>
      <trkpt lat="45.41635" lon="6.18161">
        <ele>1950</ele>
        <time>2024-06-06T06:34:05+00:00</time>
      </trkpt>
      <trkpt lat="45.41632" lon="6.18167">
        <ele>1950</ele>
        <time>2024-06-06T06:34:08+00:00</time>
      </trkpt>
      <trkpt lat="45.41629" lon="6.18174">
        <ele>1954</ele>
        <time>2024-06-06T06:34:11+00:00</time>
      </trkpt>
      <trkpt lat="45.41627" lon="6.1818">
        <ele>1957</ele>
        <time>2024-06-06T06:34:14+00:00</time>
      </trkpt>
      <trkpt lat="45.41625" lon="6.18188">
        <ele>1957</ele>
        <time>2024-06-06T06:34:17+00:00</time>
      </trkpt>
      <trkpt lat="45.41622" lon="6.18197">
        <ele>1959</ele>
        <time>2024-06-06T06:34:20+00:00</time>
      </trkpt>
      <trkpt lat="45.41618" lon="6.18209">
        <ele>1961</ele>
        <time>2024-06-06T06:34:23+00:00</time>
      </trkpt>
      <trkpt lat="45.41617" lon="6.18214">
        <ele>1964</ele>
        <time>2024-06-06T06:34:26+00:00</time>
      </trkpt>
      <trkpt lat="45.41615" lon="6.18216">
        <ele>1964</ele>
        <time>2024-06-06T06:34:29+00:00</time>
      </trkpt>
      <trkpt lat="45.41612" lon="6.18216">
        <ele>1964</ele>
        <time>2024-06-06T06:34:32+00:00</time>
      </trkpt>
      <trkpt lat="45.41607" lon="6.18219">
        <ele>1964</ele>
        <time>2024-06-06T06:34:35+00:00</time>
      </trkpt>
      <trkpt lat="45.41606" lon="6.18222">
        <ele>1968</ele>
        <time>2024-06-06T06:34:38+00:00</time>
      </trkpt>
      <trkpt lat="45.41603" lon="6.18224">
        <ele>1968</ele>
        <time>2024-06-06T06:34:41+00:00</time>
      </trkpt>
      <trkpt lat="45.416" lon="6.18226">
        <ele>1968</ele>
        <time>2024-06-06T06:34:44+00:00</time>
      </trkpt>
      <trkpt lat="45.41597" lon="6.1823">
        <ele>1967</ele>
        <time>2024-06-06T06:34:47+00:00</time>
      </trkpt>
      <trkpt lat="45.41595" lon="6.18235">
        <ele>1972</ele>
        <time>2024-06-06T06:34:50+00:00</time>
      </trkpt>
      <trkpt lat="45.41589" lon="6.18246">
        <ele>1975</ele>
        <time>2024-06-06T06:34:53+00:00</time>
      </trkpt>
      <trkpt lat="45.41585" lon="6.18251">
        <ele>1978</ele>
        <time>2024-06-06T06:34:56+00:00</time>
      </trkpt>
      <trkpt lat="45.41581" lon="6.18256">
        <ele>1978</ele>
        <time>2024-06-06T06:34:59+00:00</time>
      </trkpt>
      <trkpt lat="45.41577" lon="6.1826">
        <ele>1982</ele>
        <time>2024-06-06T06:35:02+00:00</time>
      </trkpt>
      <trkpt lat="45.41575" lon="6.18264">
        <ele>1982</ele>
        <time>2024-06-06T06:35:05+00:00</time>
      </trkpt>
      <trkpt lat="45.41573" lon="6.18273">
        <ele>1985</ele>
        <time>2024-06-06T06:35:08+00:00</time>
      </trkpt>
      <trkpt lat="45.41567" lon="6.18279">
        <ele>1984</ele>
        <time>2024-06-06T06:35:11+00:00</time>
      </trkpt>
      <trkpt lat="45.41561" lon="6.18285">
        <ele>1988</ele>
        <time>2024-06-06T06:35:14+00:00</time>
      </trkpt>
      <trkpt lat="45.41555" lon="6.1829">
        <ele>1991</ele>
        <time>2024-06-06T06:35:17+00:00</time>
      </trkpt>
      <trkpt lat="45.4155" lon="6.18296">
        <ele>1991</ele>
        <time>2024-06-06T06:35:20+00:00</time>
      </trkpt>
      <trkpt lat="45.41545" lon="6.18299">
        <ele>1989</ele>
        <time>2024-06-06T06:35:23+00:00</time>
      </trkpt>
      <trkpt lat="45.41539" lon="6.18306">
        <ele>1991</ele>
        <time>2024-06-06T06:35:26+00:00</time>
      </trkpt>
      <trkpt lat="45.41534" lon="6.18312">
        <ele>1995</ele>
        <time>2024-06-06T06:35:29+00:00</time>
      </trkpt>
      <trkpt lat="45.4153" lon="6.18316">
        <ele>1995</ele>
        <time>2024-06-06T06:35:32+00:00</time>
      </trkpt>
      <trkpt lat="45.41527" lon="6.1832">
        <ele>1997</ele>
        <time>2024-06-06T06:35:35+00:00</time>
      </trkpt>
      <trkpt lat="45.41524" lon="6.18323">
        <ele>1997</ele>
        <time>2024-06-06T06:35:38+00:00</time>
      </trkpt>
      <trkpt lat="45.41521" lon="6.18327">
        <ele>1997</ele>
        <time>2024-06-06T06:35:41+00:00</time>
      </trkpt>
      <trkpt lat="45.41518" lon="6.18332">
        <ele>1999</ele>
        <time>2024-06-06T06:35:44+00:00</time>
      </trkpt>
      <trkpt lat="45.41516" lon="6.18336">
        <ele>1999</ele>
        <time>2024-06-06T06:35:47+00:00</time>
      </trkpt>
      <trkpt lat="45.41514" lon="6.18341">
        <ele>2001</ele>
        <time>2024-06-06T06:35:50+00:00</time>
      </trkpt>
      <trkpt lat="45.41512" lon="6.18346">
        <ele>2001</ele>
        <time>2024-06-06T06:35:53+00:00</time>
      </trkpt>
      <trkpt lat="45.4151" lon="6.18351">
        <ele>2002</ele>
        <time>2024-06-06T06:35:56+00:00</time>
      </trkpt>
      <trkpt lat="45.41507" lon="6.18358">
        <ele>1999</ele>
        <time>2024-06-06T06:35:59+00:00</time>
      </trkpt>
      <trkpt lat="45.41505" lon="6.18362">
        <ele>2002</ele>
        <time>2024-06-06T06:36:02+00:00</time>
      </trkpt>
      <trkpt lat="45.41504" lon="6.18366">
        <ele>2002</ele>
        <time>2024-06-06T06:36:05+00:00</time>
      </trkpt>
      <trkpt lat="45.41503" lon="6.18375">
        <ele>2003</ele>
        <time>2024-06-06T06:36:08+00:00</time>
      </trkpt>
      <trkpt lat="45.41503" lon="6.18382">
        <ele>2004</ele>
        <time>2024-06-06T06:36:11+00:00</time>
      </trkpt>
      <trkpt lat="45.41505" lon="6.1839">
        <ele>2004</ele>
        <time>2024-06-06T06:36:14+00:00</time>
      </trkpt>
      <trkpt lat="45.41506" lon="6.18397">
        <ele>2005</ele>
        <time>2024-06-06T06:36:17+00:00</time>
      </trkpt>
      <trkpt lat="45.41507" lon="6.18405">
        <ele>2005</ele>
        <time>2024-06-06T06:36:20+00:00</time>
      </trkpt>
      <trkpt lat="45.41507" lon="6.18411">
        <ele>2005</ele>
        <time>2024-06-06T06:36:23+00:00</time>
      </trkpt>
      <trkpt lat="45.41507" lon="6.18419">
        <ele>2005</ele>
        <time>2024-06-06T06:36:26+00:00</time>
      </trkpt>
      <trkpt lat="45.41506" lon="6.18425">
        <ele>2005</ele>
        <time>2024-06-06T06:36:29+00:00</time>
      </trkpt>
      <trkpt lat="45.41506" lon="6.18435">
        <ele>2006</ele>
        <time>2024-06-06T06:36:32+00:00</time>
      </trkpt>
      <trkpt lat="45.41507" lon="6.18442">
        <ele>2006</ele>
        <time>2024-06-06T06:36:35+00:00</time>
      </trkpt>
      <trkpt lat="45.41508" lon="6.18452">
        <ele>2007</ele>
        <time>2024-06-06T06:36:38+00:00</time>
      </trkpt>
      <trkpt lat="45.41507" lon="6.18461">
        <ele>2008</ele>
        <time>2024-06-06T06:36:41+00:00</time>
      </trkpt>
      <trkpt lat="45.41506" lon="6.18471">
        <ele>2009</ele>
        <time>2024-06-06T06:36:44+00:00</time>
      </trkpt>
      <trkpt lat="45.41505" lon="6.1848">
        <ele>2009</ele>
        <time>2024-06-06T06:36:47+00:00</time>
      </trkpt>
      <trkpt lat="45.41504" lon="6.18485">
        <ele>2011</ele>
        <time>2024-06-06T06:36:50+00:00</time>
      </trkpt>
      <trkpt lat="45.41501" lon="6.18491">
        <ele>2009</ele>
        <time>2024-06-06T06:36:53+00:00</time>
      </trkpt>
      <trkpt lat="45.41498" lon="6.18498">
        <ele>2008</ele>
        <time>2024-06-06T06:36:56+00:00</time>
      </trkpt>
      <trkpt lat="45.41496" lon="6.18502">
        <ele>2011</ele>
        <time>2024-06-06T06:36:59+00:00</time>
      </trkpt>
      <trkpt lat="45.41493" lon="6.18506">
        <ele>2011</ele>
        <time>2024-06-06T06:37:02+00:00</time>
      </trkpt>
      <trkpt lat="45.41493" lon="6.18506">
        <ele>2011</ele>
        <time>2024-06-06T06:37:05+00:00</time>
      </trkpt>
      <trkpt lat="45.41493" lon="6.18506">
        <ele>2011</ele>
        <time>2024-06-06T06:37:08+00:00</time>
      </trkpt>
      <trkpt lat="45.41492" lon="6.1851">
        <ele>2014</ele>
        <time>2024-06-06T06:37:11+00:00</time>
      </trkpt>
      <trkpt lat="45.41489" lon="6.18515">
        <ele>2010</ele>
        <time>2024-06-06T06:37:14+00:00</time>
      </trkpt>
      <trkpt lat="45.41487" lon="6.18521">
        <ele>2012</ele>
        <time>2024-06-06T06:37:17+00:00</time>
      </trkpt>
      <trkpt lat="45.41486" lon="6.18528">
        <ele>2012</ele>
        <time>2024-06-06T06:37:20+00:00</time>
      </trkpt>
      <trkpt lat="45.41485" lon="6.18536">
        <ele>2014</ele>
        <time>2024-06-06T06:37:23+00:00</time>
      </trkpt>
      <trkpt lat="45.41484" lon="6.18543">
        <ele>2016</ele>
        <time>2024-06-06T06:37:26+00:00</time>
      </trkpt>
      <trkpt lat="45.41483" lon="6.18552">
        <ele>2018</ele>
        <time>2024-06-06T06:37:29+00:00</time>
      </trkpt>
      <trkpt lat="45.4148" lon="6.18558">
        <ele>2018</ele>
        <time>2024-06-06T06:37:32+00:00</time>
      </trkpt>
      <trkpt lat="45.41477" lon="6.18564">
        <ele>2017</ele>
        <time>2024-06-06T06:37:35+00:00</time>
      </trkpt>
      <trkpt lat="45.41471" lon="6.1857">
        <ele>2015</ele>
        <time>2024-06-06T06:37:38+00:00</time>
      </trkpt>
      <trkpt lat="45.41466" lon="6.18575">
        <ele>2016</ele>
        <time>2024-06-06T06:37:41+00:00</time>
      </trkpt>
      <trkpt lat="45.41462" lon="6.18582">
        <ele>2017</ele>
        <time>2024-06-06T06:37:44+00:00</time>
      </trkpt>
      <trkpt lat="45.41457" lon="6.18589">
        <ele>2015</ele>
        <time>2024-06-06T06:37:47+00:00</time>
      </trkpt>
      <trkpt lat="45.41454" lon="6.18595">
        <ele>2015</ele>
        <time>2024-06-06T06:37:50+00:00</time>
      </trkpt>
      <trkpt lat="45.41452" lon="6.186">
        <ele>2015</ele>
        <time>2024-06-06T06:37:53+00:00</time>
      </trkpt>
      <trkpt lat="45.41448" lon="6.18602">
        <ele>2017</ele>
        <time>2024-06-06T06:37:56+00:00</time>
      </trkpt>
      <trkpt lat="45.41444" lon="6.18603">
        <ele>2017</ele>
        <time>2024-06-06T06:37:59+00:00</time>
      </trkpt>
      <trkpt lat="45.4144" lon="6.18602">
        <ele>2015</ele>
        <time>2024-06-06T06:38:02+00:00</time>
      </trkpt>
      <trkpt lat="45.41436" lon="6.18602">
        <ele>2015</ele>
        <time>2024-06-06T06:38:05+00:00</time>
      </trkpt>
      <trkpt lat="45.41434" lon="6.18603">
        <ele>2015</ele>
        <time>2024-06-06T06:38:08+00:00</time>
      </trkpt>
      <trkpt lat="45.41432" lon="6.18608">
        <ele>2015</ele>
        <time>2024-06-06T06:38:11+00:00</time>
      </trkpt>
      <trkpt lat="45.41429" lon="6.18611">
        <ele>2013</ele>
        <time>2024-06-06T06:38:14+00:00</time>
      </trkpt>
      <trkpt lat="45.41427" lon="6.18616">
        <ele>2013</ele>
        <time>2024-06-06T06:38:17+00:00</time>
      </trkpt>
      <trkpt lat="45.41425" lon="6.1862">
        <ele>2015</ele>
        <time>2024-06-06T06:38:20+00:00</time>
      </trkpt>
      <trkpt lat="45.41423" lon="6.18621">
        <ele>2015</ele>
        <time>2024-06-06T06:38:23+00:00</time>
      </trkpt>
      <trkpt lat="45.4142" lon="6.18625">
        <ele>2011</ele>
        <time>2024-06-06T06:38:26+00:00</time>
      </trkpt>
      <trkpt lat="45.41416" lon="6.18631">
        <ele>2014</ele>
        <time>2024-06-06T06:38:29+00:00</time>
      </trkpt>
      <trkpt lat="45.41411" lon="6.18638">
        <ele>2014</ele>
        <time>2024-06-06T06:38:32+00:00</time>
      </trkpt>
      <trkpt lat="45.41405" lon="6.18644">
        <ele>2012</ele>
        <time>2024-06-06T06:38:35+00:00</time>
      </trkpt>
      <trkpt lat="45.41399" lon="6.18649">
        <ele>2009</ele>
        <time>2024-06-06T06:38:38+00:00</time>
      </trkpt>
      <trkpt lat="45.41395" lon="6.18653">
        <ele>2014</ele>
        <time>2024-06-06T06:38:41+00:00</time>
      </trkpt>
      <trkpt lat="45.41391" lon="6.18658">
        <ele>2012</ele>
        <time>2024-06-06T06:38:44+00:00</time>
      </trkpt>
      <trkpt lat="45.41388" lon="6.18661">
        <ele>2013</ele>
        <time>2024-06-06T06:38:47+00:00</time>
      </trkpt>
      <trkpt lat="45.41386" lon="6.18663">
        <ele>2013</ele>
        <time>2024-06-06T06:38:50+00:00</time>
      </trkpt>
      <trkpt lat="45.41384" lon="6.18663">
        <ele>2013</ele>
        <time>2024-06-06T06:38:53+00:00</time>
      </trkpt>
      <trkpt lat="45.41383" lon="6.18666">
        <ele>2013</ele>
        <time>2024-06-06T06:38:56+00:00</time>
      </trkpt>
      <trkpt lat="45.41383" lon="6.18671">
        <ele>2010</ele>
        <time>2024-06-06T06:38:59+00:00</time>
      </trkpt>
      <trkpt lat="45.41384" lon="6.18675">
        <ele>2015</ele>
        <time>2024-06-06T06:39:02+00:00</time>
      </trkpt>
      <trkpt lat="45.41383" lon="6.18677">
        <ele>2015</ele>
        <time>2024-06-06T06:39:05+00:00</time>
      </trkpt>
      <trkpt lat="45.41382" lon="6.18678">
        <ele>2015</ele>
        <time>2024-06-06T06:39:08+00:00</time>
      </trkpt>
      <trkpt lat="45.41381" lon="6.1868">
        <ele>2013</ele>
        <time>2024-06-06T06:39:11+00:00</time>
      </trkpt>
      <trkpt lat="45.41381" lon="6.18683">
        <ele>2013</ele>
        <time>2024-06-06T06:39:14+00:00</time>
      </trkpt>
      <trkpt lat="45.41379" lon="6.18686">
        <ele>2008</ele>
        <time>2024-06-06T06:39:17+00:00</time>
      </trkpt>
      <trkpt lat="45.41377" lon="6.18687">
        <ele>2008</ele>
        <time>2024-06-06T06:39:20+00:00</time>
      </trkpt>
      <trkpt lat="45.41376" lon="6.18687">
        <ele>2008</ele>
        <time>2024-06-06T06:39:23+00:00</time>
      </trkpt>
      <trkpt lat="45.41373" lon="6.1869">
        <ele>2008</ele>
        <time>2024-06-06T06:39:26+00:00</time>
      </trkpt>
      <trkpt lat="45.41373" lon="6.18692">
        <ele>2009</ele>
        <time>2024-06-06T06:39:29+00:00</time>
      </trkpt>
      <trkpt lat="45.41373" lon="6.18696">
        <ele>2006</ele>
        <time>2024-06-06T06:39:32+00:00</time>
      </trkpt>
      <trkpt lat="45.41372" lon="6.187">
        <ele>2006</ele>
        <time>2024-06-06T06:39:35+00:00</time>
      </trkpt>
      <trkpt lat="45.41369" lon="6.18703">
        <ele>2004</ele>
        <time>2024-06-06T06:39:38+00:00</time>
      </trkpt>
      <trkpt lat="45.41367" lon="6.18706">
        <ele>2004</ele>
        <time>2024-06-06T06:39:41+00:00</time>
      </trkpt>
      <trkpt lat="45.41364" lon="6.18708">
        <ele>2004</ele>
        <time>2024-06-06T06:39:44+00:00</time>
      </trkpt>
      <trkpt lat="45.41362" lon="6.1871">
        <ele>2009</ele>
        <time>2024-06-06T06:39:47+00:00</time>
      </trkpt>
      <trkpt lat="45.41361" lon="6.18713">
        <ele>2009</ele>
        <time>2024-06-06T06:39:50+00:00</time>
      </trkpt>
      <trkpt lat="45.41359" lon="6.18716">
        <ele>2010</ele>
        <time>2024-06-06T06:39:53+00:00</time>
      </trkpt>
      <trkpt lat="45.41357" lon="6.18718">
        <ele>2010</ele>
        <time>2024-06-06T06:39:56+00:00</time>
      </trkpt>
      <trkpt lat="45.41354" lon="6.18721">
        <ele>2009</ele>
        <time>2024-06-06T06:39:59+00:00</time>
      </trkpt>
      <trkpt lat="45.41351" lon="6.18723">
        <ele>2009</ele>
        <time>2024-06-06T06:40:02+00:00</time>
      </trkpt>
      <trkpt lat="45.4135" lon="6.18725">
        <ele>2008</ele>
        <time>2024-06-06T06:40:05+00:00</time>
      </trkpt>
      <trkpt lat="45.41347" lon="6.18725">
        <ele>2008</ele>
        <time>2024-06-06T06:40:08+00:00</time>
      </trkpt>
      <trkpt lat="45.41345" lon="6.18726">
        <ele>2008</ele>
        <time>2024-06-06T06:40:11+00:00</time>
      </trkpt>
      <trkpt lat="45.41342" lon="6.18727">
        <ele>2008</ele>
        <time>2024-06-06T06:40:14+00:00</time>
      </trkpt>
      <trkpt lat="45.4134" lon="6.18729">
        <ele>2008</ele>
        <time>2024-06-06T06:40:17+00:00</time>
      </trkpt>
      <trkpt lat="45.41338" lon="6.1873">
        <ele>2004</ele>
        <time>2024-06-06T06:40:20+00:00</time>
      </trkpt>
      <trkpt lat="45.41336" lon="6.18731">
        <ele>2007</ele>
        <time>2024-06-06T06:40:23+00:00</time>
      </trkpt>
      <trkpt lat="45.41333" lon="6.18732">
        <ele>2007</ele>
        <time>2024-06-06T06:40:26+00:00</time>
      </trkpt>
      <trkpt lat="45.41331" lon="6.18732">
        <ele>2007</ele>
        <time>2024-06-06T06:40:29+00:00</time>
      </trkpt>
      <trkpt lat="45.41328" lon="6.18735">
        <ele>2007</ele>
        <time>2024-06-06T06:40:32+00:00</time>
      </trkpt>
      <trkpt lat="45.41326" lon="6.18737">
        <ele>2007</ele>
        <time>2024-06-06T06:40:35+00:00</time>
      </trkpt>
      <trkpt lat="45.41323" lon="6.18739">
        <ele>2010</ele>
        <time>2024-06-06T06:40:38+00:00</time>
      </trkpt>
      <trkpt lat="45.41321" lon="6.18738">
        <ele>2007</ele>
        <time>2024-06-06T06:40:41+00:00</time>
      </trkpt>
      <trkpt lat="45.41319" lon="6.18736">
        <ele>2010</ele>
        <time>2024-06-06T06:40:44+00:00</time>
      </trkpt>
      <trkpt lat="45.41315" lon="6.18735">
        <ele>2010</ele>
        <time>2024-06-06T06:40:47+00:00</time>
      </trkpt>
      <trkpt lat="45.41311" lon="6.18736">
        <ele>2010</ele>
        <time>2024-06-06T06:40:50+00:00</time>
      </trkpt>
      <trkpt lat="45.41307" lon="6.18737">
        <ele>2012</ele>
        <time>2024-06-06T06:40:53+00:00</time>
      </trkpt>
      <trkpt lat="45.41303" lon="6.18734">
        <ele>2012</ele>
        <time>2024-06-06T06:40:56+00:00</time>
      </trkpt>
      <trkpt lat="45.413" lon="6.18734">
        <ele>2012</ele>
        <time>2024-06-06T06:40:59+00:00</time>
      </trkpt>
      <trkpt lat="45.41296" lon="6.18733">
        <ele>2014</ele>
        <time>2024-06-06T06:41:02+00:00</time>
      </trkpt>
      <trkpt lat="45.41293" lon="6.18733">
        <ele>2014</ele>
        <time>2024-06-06T06:41:05+00:00</time>
      </trkpt>
      <trkpt lat="45.4129" lon="6.18732">
        <ele>2014</ele>
        <time>2024-06-06T06:41:08+00:00</time>
      </trkpt>
      <trkpt lat="45.41287" lon="6.18733">
        <ele>2014</ele>
        <time>2024-06-06T06:41:11+00:00</time>
      </trkpt>
      <trkpt lat="45.41282" lon="6.18734">
        <ele>2014</ele>
        <time>2024-06-06T06:41:14+00:00</time>
      </trkpt>
      <trkpt lat="45.41278" lon="6.18736">
        <ele>2013</ele>
        <time>2024-06-06T06:41:17+00:00</time>
      </trkpt>
      <trkpt lat="45.41275" lon="6.18738">
        <ele>2013</ele>
        <time>2024-06-06T06:41:20+00:00</time>
      </trkpt>
      <trkpt lat="45.41269" lon="6.1874">
        <ele>2013</ele>
        <time>2024-06-06T06:41:23+00:00</time>
      </trkpt>
      <trkpt lat="45.41265" lon="6.18741">
        <ele>2015</ele>
        <time>2024-06-06T06:41:26+00:00</time>
      </trkpt>
      <trkpt lat="45.41261" lon="6.18743">
        <ele>2013</ele>
        <time>2024-06-06T06:41:29+00:00</time>
      </trkpt>
      <trkpt lat="45.41255" lon="6.18747">
        <ele>2014</ele>
        <time>2024-06-06T06:41:32+00:00</time>
      </trkpt>
      <trkpt lat="45.41251" lon="6.18748">
        <ele>2014</ele>
        <time>2024-06-06T06:41:35+00:00</time>
      </trkpt>
      <trkpt lat="45.41247" lon="6.18749">
        <ele>2012</ele>
        <time>2024-06-06T06:41:38+00:00</time>
      </trkpt>
      <trkpt lat="45.41241" lon="6.18749">
        <ele>2012</ele>
        <time>2024-06-06T06:41:41+00:00</time>
      </trkpt>
      <trkpt lat="45.41236" lon="6.18752">
        <ele>2013</ele>
        <time>2024-06-06T06:41:44+00:00</time>
      </trkpt>
      <trkpt lat="45.41231" lon="6.18756">
        <ele>2013</ele>
        <time>2024-06-06T06:41:47+00:00</time>
      </trkpt>
      <trkpt lat="45.41228" lon="6.18755">
        <ele>2007</ele>
        <time>2024-06-06T06:41:50+00:00</time>
      </trkpt>
      <trkpt lat="45.41225" lon="6.18755">
        <ele>2007</ele>
        <time>2024-06-06T06:41:53+00:00</time>
      </trkpt>
      <trkpt lat="45.41224" lon="6.18756">
        <ele>2007</ele>
        <time>2024-06-06T06:41:56+00:00</time>
      </trkpt>
      <trkpt lat="45.41223" lon="6.18759">
        <ele>2007</ele>
        <time>2024-06-06T06:41:59+00:00</time>
      </trkpt>
      <trkpt lat="45.41221" lon="6.18759">
        <ele>2007</ele>
        <time>2024-06-06T06:42:02+00:00</time>
      </trkpt>
      <trkpt lat="45.41218" lon="6.1876">
        <ele>2002</ele>
        <time>2024-06-06T06:42:05+00:00</time>
      </trkpt>
      <trkpt lat="45.41215" lon="6.18763">
        <ele>2006</ele>
        <time>2024-06-06T06:42:08+00:00</time>
      </trkpt>
      <trkpt lat="45.4121" lon="6.18768">
        <ele>2006</ele>
        <time>2024-06-06T06:42:11+00:00</time>
      </trkpt>
      <trkpt lat="45.41209" lon="6.18769">
        <ele>2002</ele>
        <time>2024-06-06T06:42:14+00:00</time>
      </trkpt>
      <trkpt lat="45.41205" lon="6.18768">
        <ele>2002</ele>
        <time>2024-06-06T06:42:17+00:00</time>
      </trkpt>
      <trkpt lat="45.412" lon="6.18768">
        <ele>1999</ele>
        <time>2024-06-06T06:42:20+00:00</time>
      </trkpt>
      <trkpt lat="45.41195" lon="6.1877">
        <ele>1999</ele>
        <time>2024-06-06T06:42:23+00:00</time>
      </trkpt>
      <trkpt lat="45.41191" lon="6.18772">
        <ele>2005</ele>
        <time>2024-06-06T06:42:26+00:00</time>
      </trkpt>
      <trkpt lat="45.41189" lon="6.18775">
        <ele>2001</ele>
        <time>2024-06-06T06:42:29+00:00</time>
      </trkpt>
      <trkpt lat="45.41186" lon="6.18779">
        <ele>2001</ele>
        <time>2024-06-06T06:42:32+00:00</time>
      </trkpt>
      <trkpt lat="45.41184" lon="6.18781">
        <ele>2005</ele>
        <time>2024-06-06T06:42:35+00:00</time>
      </trkpt>
      <trkpt lat="45.41181" lon="6.18783">
        <ele>2005</ele>
        <time>2024-06-06T06:42:38+00:00</time>
      </trkpt>
      <trkpt lat="45.41177" lon="6.18787">
        <ele>2000</ele>
        <time>2024-06-06T06:42:41+00:00</time>
      </trkpt>
      <trkpt lat="45.41175" lon="6.18789">
        <ele>2000</ele>
        <time>2024-06-06T06:42:44+00:00</time>
      </trkpt>
      <trkpt lat="45.41175" lon="6.18793">
        <ele>2001</ele>
        <time>2024-06-06T06:42:47+00:00</time>
      </trkpt>
      <trkpt lat="45.41173" lon="6.18794">
        <ele>2001</ele>
        <time>2024-06-06T06:42:50+00:00</time>
      </trkpt>
      <trkpt lat="45.41171" lon="6.18792">
        <ele>2001</ele>
        <time>2024-06-06T06:42:53+00:00</time>
      </trkpt>
      <trkpt lat="45.41169" lon="6.18792">
        <ele>1993</ele>
        <time>2024-06-06T06:42:56+00:00</time>
      </trkpt>
      <trkpt lat="45.41168" lon="6.18792">
        <ele>1993</ele>
        <time>2024-06-06T06:42:59+00:00</time>
      </trkpt>
      <trkpt lat="45.41168" lon="6.18795">
        <ele>1993</ele>
        <time>2024-06-06T06:43:02+00:00</time>
      </trkpt>
      <trkpt lat="45.41169" lon="6.18798">
        <ele>1993</ele>
        <time>2024-06-06T06:43:05+00:00</time>
      </trkpt>
      <trkpt lat="45.41168" lon="6.188">
        <ele>1993</ele>
        <time>2024-06-06T06:43:08+00:00</time>
      </trkpt>
      <trkpt lat="45.41166" lon="6.188">
        <ele>1995</ele>
        <time>2024-06-06T06:43:11+00:00</time>
      </trkpt>
      <trkpt lat="45.41163" lon="6.188">
        <ele>1993</ele>
        <time>2024-06-06T06:43:14+00:00</time>
      </trkpt>
      <trkpt lat="45.41161" lon="6.18799">
        <ele>1993</ele>
        <time>2024-06-06T06:43:17+00:00</time>
      </trkpt>
      <trkpt lat="45.41159" lon="6.188">
        <ele>1991</ele>
        <time>2024-06-06T06:43:20+00:00</time>
      </trkpt>
      <trkpt lat="45.41159" lon="6.18802">
        <ele>1991</ele>
        <time>2024-06-06T06:43:23+00:00</time>
      </trkpt>
      <trkpt lat="45.41158" lon="6.18803">
        <ele>1991</ele>
        <time>2024-06-06T06:43:26+00:00</time>
      </trkpt>
      <trkpt lat="45.41156" lon="6.18803">
        <ele>1991</ele>
        <time>2024-06-06T06:43:29+00:00</time>
      </trkpt>
      <trkpt lat="45.41155" lon="6.18805">
        <ele>1991</ele>
        <time>2024-06-06T06:43:32+00:00</time>
      </trkpt>
      <trkpt lat="45.41155" lon="6.18807">
        <ele>1991</ele>
        <time>2024-06-06T06:43:35+00:00</time>
      </trkpt>
      <trkpt lat="45.41154" lon="6.18808">
        <ele>1991</ele>
        <time>2024-06-06T06:43:38+00:00</time>
      </trkpt>
      <trkpt lat="45.41151" lon="6.18807">
        <ele>1991</ele>
        <time>2024-06-06T06:43:41+00:00</time>
      </trkpt>
      <trkpt lat="45.41146" lon="6.18811">
        <ele>1986</ele>
        <time>2024-06-06T06:43:44+00:00</time>
      </trkpt>
      <trkpt lat="45.4114" lon="6.18815">
        <ele>1986</ele>
        <time>2024-06-06T06:43:47+00:00</time>
      </trkpt>
      <trkpt lat="45.41134" lon="6.18818">
        <ele>1981</ele>
        <time>2024-06-06T06:43:50+00:00</time>
      </trkpt>
      <trkpt lat="45.41132" lon="6.18819">
        <ele>1981</ele>
        <time>2024-06-06T06:43:53+00:00</time>
      </trkpt>
      <trkpt lat="45.41129" lon="6.18822">
        <ele>1979</ele>
        <time>2024-06-06T06:43:56+00:00</time>
      </trkpt>
      <trkpt lat="45.41127" lon="6.18824">
        <ele>1979</ele>
        <time>2024-06-06T06:43:59+00:00</time>
      </trkpt>
      <trkpt lat="45.41124" lon="6.18824">
        <ele>1979</ele>
        <time>2024-06-06T06:44:02+00:00</time>
      </trkpt>
      <trkpt lat="45.41122" lon="6.18826">
        <ele>1979</ele>
        <time>2024-06-06T06:44:05+00:00</time>
      </trkpt>
      <trkpt lat="45.41121" lon="6.18829">
        <ele>1979</ele>
        <time>2024-06-06T06:44:08+00:00</time>
      </trkpt>
      <trkpt lat="45.41118" lon="6.18831">
        <ele>1977</ele>
        <time>2024-06-06T06:44:11+00:00</time>
      </trkpt>
      <trkpt lat="45.41113" lon="6.18832">
        <ele>1977</ele>
        <time>2024-06-06T06:44:14+00:00</time>
      </trkpt>
      <trkpt lat="45.41109" lon="6.18834">
        <ele>1978</ele>
        <time>2024-06-06T06:44:17+00:00</time>
      </trkpt>
      <trkpt lat="45.41111" lon="6.18839">
        <ele>1977</ele>
        <time>2024-06-06T06:44:20+00:00</time>
      </trkpt>
      <trkpt lat="45.41112" lon="6.18844">
        <ele>1975</ele>
        <time>2024-06-06T06:44:23+00:00</time>
      </trkpt>
      <trkpt lat="45.41112" lon="6.18852">
        <ele>1973</ele>
        <time>2024-06-06T06:44:26+00:00</time>
      </trkpt>
      <trkpt lat="45.41114" lon="6.18859">
        <ele>1973</ele>
        <time>2024-06-06T06:44:29+00:00</time>
      </trkpt>
      <trkpt lat="45.41115" lon="6.18865">
        <ele>1972</ele>
        <time>2024-06-06T06:44:32+00:00</time>
      </trkpt>
      <trkpt lat="45.41116" lon="6.18871">
        <ele>1969</ele>
        <time>2024-06-06T06:44:35+00:00</time>
      </trkpt>
      <trkpt lat="45.41114" lon="6.18873">
        <ele>1969</ele>
        <time>2024-06-06T06:44:38+00:00</time>
      </trkpt>
      <trkpt lat="45.41113" lon="6.18875">
        <ele>1969</ele>
        <time>2024-06-06T06:44:41+00:00</time>
      </trkpt>
      <trkpt lat="45.41115" lon="6.18878">
        <ele>1969</ele>
        <time>2024-06-06T06:44:44+00:00</time>
      </trkpt>
      <trkpt lat="45.41118" lon="6.18881">
        <ele>1966</ele>
        <time>2024-06-06T06:44:47+00:00</time>
      </trkpt>
      <trkpt lat="45.4112" lon="6.18883">
        <ele>1966</ele>
        <time>2024-06-06T06:44:50+00:00</time>
      </trkpt>
      <trkpt lat="45.41123" lon="6.18887">
        <ele>1965</ele>
        <time>2024-06-06T06:44:53+00:00</time>
      </trkpt>
      <trkpt lat="45.41125" lon="6.18891">
        <ele>1963</ele>
        <time>2024-06-06T06:44:56+00:00</time>
      </trkpt>
      <trkpt lat="45.41122" lon="6.18893">
        <ele>1963</ele>
        <time>2024-06-06T06:44:59+00:00</time>
      </trkpt>
      <trkpt lat="45.41119" lon="6.18897">
        <ele>1964</ele>
        <time>2024-06-06T06:45:02+00:00</time>
      </trkpt>
      <trkpt lat="45.41115" lon="6.18901">
        <ele>1960</ele>
        <time>2024-06-06T06:45:05+00:00</time>
      </trkpt>
      <trkpt lat="45.41113" lon="6.18911">
        <ele>1959</ele>
        <time>2024-06-06T06:45:08+00:00</time>
      </trkpt>
      <trkpt lat="45.41114" lon="6.18915">
        <ele>1959</ele>
        <time>2024-06-06T06:45:11+00:00</time>
      </trkpt>
      <trkpt lat="45.41118" lon="6.18913">
        <ele>1959</ele>
        <time>2024-06-06T06:45:14+00:00</time>
      </trkpt>
      <trkpt lat="45.41121" lon="6.18914">
        <ele>1957</ele>
        <time>2024-06-06T06:45:17+00:00</time>
      </trkpt>
      <trkpt lat="45.41123" lon="6.18917">
        <ele>1957</ele>
        <time>2024-06-06T06:45:20+00:00</time>
      </trkpt>
      <trkpt lat="45.41123" lon="6.18923">
        <ele>1954</ele>
        <time>2024-06-06T06:45:23+00:00</time>
      </trkpt>
      <trkpt lat="45.41121" lon="6.18931">
        <ele>1952</ele>
        <time>2024-06-06T06:45:26+00:00</time>
      </trkpt>
      <trkpt lat="45.4112" lon="6.18934">
        <ele>1952</ele>
        <time>2024-06-06T06:45:29+00:00</time>
      </trkpt>
      <trkpt lat="45.41123" lon="6.18937">
        <ele>1952</ele>
        <time>2024-06-06T06:45:32+00:00</time>
      </trkpt>
      <trkpt lat="45.41126" lon="6.18937">
        <ele>1952</ele>
        <time>2024-06-06T06:45:35+00:00</time>
      </trkpt>
      <trkpt lat="45.41126" lon="6.18942">
        <ele>1949</ele>
        <time>2024-06-06T06:45:38+00:00</time>
      </trkpt>
      <trkpt lat="45.41126" lon="6.18944">
        <ele>1949</ele>
        <time>2024-06-06T06:45:41+00:00</time>
      </trkpt>
      <trkpt lat="45.4113" lon="6.18946">
        <ele>1948</ele>
        <time>2024-06-06T06:45:44+00:00</time>
      </trkpt>
      <trkpt lat="45.41132" lon="6.18952">
        <ele>1946</ele>
        <time>2024-06-06T06:45:47+00:00</time>
      </trkpt>
      <trkpt lat="45.41131" lon="6.18956">
        <ele>1946</ele>
        <time>2024-06-06T06:45:50+00:00</time>
      </trkpt>
      <trkpt lat="45.41129" lon="6.18958">
        <ele>1946</ele>
        <time>2024-06-06T06:45:53+00:00</time>
      </trkpt>
      <trkpt lat="45.41132" lon="6.18961">
        <ele>1941</ele>
        <time>2024-06-06T06:45:56+00:00</time>
      </trkpt>
      <trkpt lat="45.41134" lon="6.18964">
        <ele>1941</ele>
        <time>2024-06-06T06:45:59+00:00</time>
      </trkpt>
      <trkpt lat="45.41135" lon="6.18967">
        <ele>1941</ele>
        <time>2024-06-06T06:46:02+00:00</time>
      </trkpt>
      <trkpt lat="45.4113" lon="6.18968">
        <ele>1941</ele>
        <time>2024-06-06T06:46:05+00:00</time>
      </trkpt>
      <trkpt lat="45.41126" lon="6.18971">
        <ele>1939</ele>
        <time>2024-06-06T06:46:08+00:00</time>
      </trkpt>
      <trkpt lat="45.41126" lon="6.18977">
        <ele>1939</ele>
        <time>2024-06-06T06:46:11+00:00</time>
      </trkpt>
      <trkpt lat="45.41128" lon="6.18983">
        <ele>1939</ele>
        <time>2024-06-06T06:46:14+00:00</time>
      </trkpt>
      <trkpt lat="45.41131" lon="6.18989">
        <ele>1936</ele>
        <time>2024-06-06T06:46:17+00:00</time>
      </trkpt>
      <trkpt lat="45.41138" lon="6.18995">
        <ele>1935</ele>
        <time>2024-06-06T06:46:20+00:00</time>
      </trkpt>
      <trkpt lat="45.41147" lon="6.19">
        <ele>1930</ele>
        <time>2024-06-06T06:46:23+00:00</time>
      </trkpt>
      <trkpt lat="45.41155" lon="6.19008">
        <ele>1928</ele>
        <time>2024-06-06T06:46:26+00:00</time>
      </trkpt>
      <trkpt lat="45.41158" lon="6.19015">
        <ele>1927</ele>
        <time>2024-06-06T06:46:29+00:00</time>
      </trkpt>
      <trkpt lat="45.41158" lon="6.1902">
        <ele>1927</ele>
        <time>2024-06-06T06:46:32+00:00</time>
      </trkpt>
      <trkpt lat="45.41158" lon="6.19024">
        <ele>1925</ele>
        <time>2024-06-06T06:46:35+00:00</time>
      </trkpt>
      <trkpt lat="45.41161" lon="6.19027">
        <ele>1923</ele>
        <time>2024-06-06T06:46:38+00:00</time>
      </trkpt>
      <trkpt lat="45.41164" lon="6.19028">
        <ele>1926</ele>
        <time>2024-06-06T06:46:41+00:00</time>
      </trkpt>
      <trkpt lat="45.4117" lon="6.19032">
        <ele>1919</ele>
        <time>2024-06-06T06:46:44+00:00</time>
      </trkpt>
      <trkpt lat="45.41173" lon="6.19038">
        <ele>1919</ele>
        <time>2024-06-06T06:46:47+00:00</time>
      </trkpt>
      <trkpt lat="45.41169" lon="6.19047">
        <ele>1924</ele>
        <time>2024-06-06T06:46:50+00:00</time>
      </trkpt>
      <trkpt lat="45.41169" lon="6.19056">
        <ele>1927</ele>
        <time>2024-06-06T06:46:53+00:00</time>
      </trkpt>
      <trkpt lat="45.4117" lon="6.19064">
        <ele>1918</ele>
        <time>2024-06-06T06:46:56+00:00</time>
      </trkpt>
      <trkpt lat="45.41174" lon="6.19079">
        <ele>1919</ele>
        <time>2024-06-06T06:46:59+00:00</time>
      </trkpt>
      <trkpt lat="45.4118" lon="6.19099">
        <ele>1922</ele>
        <time>2024-06-06T06:47:02+00:00</time>
      </trkpt>
      <trkpt lat="45.41183" lon="6.19101">
        <ele>1917</ele>
        <time>2024-06-06T06:47:05+00:00</time>
      </trkpt>
      <trkpt lat="45.41188" lon="6.19104">
        <ele>1917</ele>
        <time>2024-06-06T06:47:08+00:00</time>
      </trkpt>
      <trkpt lat="45.41191" lon="6.19109">
        <ele>1914</ele>
        <time>2024-06-06T06:47:11+00:00</time>
      </trkpt>
      <trkpt lat="45.41191" lon="6.19115">
        <ele>1914</ele>
        <time>2024-06-06T06:47:14+00:00</time>
      </trkpt>
      <trkpt lat="45.41195" lon="6.19118">
        <ele>1914</ele>
        <time>2024-06-06T06:47:17+00:00</time>
      </trkpt>
      <trkpt lat="45.41198" lon="6.1912">
        <ele>1915</ele>
        <time>2024-06-06T06:47:20+00:00</time>
      </trkpt>
      <trkpt lat="45.41203" lon="6.19122">
        <ele>1910</ele>
        <time>2024-06-06T06:47:23+00:00</time>
      </trkpt>
      <trkpt lat="45.41206" lon="6.19126">
        <ele>1910</ele>
        <time>2024-06-06T06:47:26+00:00</time>
      </trkpt>
      <trkpt lat="45.41206" lon="6.19133">
        <ele>1911</ele>
        <time>2024-06-06T06:47:29+00:00</time>
      </trkpt>
      <trkpt lat="45.41207" lon="6.19137">
        <ele>1911</ele>
        <time>2024-06-06T06:47:32+00:00</time>
      </trkpt>
      <trkpt lat="45.41212" lon="6.19141">
        <ele>1910</ele>
        <time>2024-06-06T06:47:35+00:00</time>
      </trkpt>
      <trkpt lat="45.41216" lon="6.19147">
        <ele>1910</ele>
        <time>2024-06-06T06:47:38+00:00</time>
      </trkpt>
      <trkpt lat="45.41219" lon="6.19153">
        <ele>1910</ele>
        <time>2024-06-06T06:47:41+00:00</time>
      </trkpt>
      <trkpt lat="45.41224" lon="6.19158">
        <ele>1907</ele>
        <time>2024-06-06T06:47:44+00:00</time>
      </trkpt>
      <trkpt lat="45.41225" lon="6.19168">
        <ele>1908</ele>
        <time>2024-06-06T06:47:47+00:00</time>
      </trkpt>
      <trkpt lat="45.41227" lon="6.19175">
        <ele>1907</ele>
        <time>2024-06-06T06:47:50+00:00</time>
      </trkpt>
      <trkpt lat="45.41233" lon="6.19184">
        <ele>1904</ele>
        <time>2024-06-06T06:47:53+00:00</time>
      </trkpt>
      <trkpt lat="45.41239" lon="6.19187">
        <ele>1904</ele>
        <time>2024-06-06T06:47:56+00:00</time>
      </trkpt>
      <trkpt lat="45.41245" lon="6.1919">
        <ele>1904</ele>
        <time>2024-06-06T06:47:59+00:00</time>
      </trkpt>
      <trkpt lat="45.41249" lon="6.19192">
        <ele>1903</ele>
        <time>2024-06-06T06:48:02+00:00</time>
      </trkpt>
      <trkpt lat="45.41254" lon="6.19197">
        <ele>1902</ele>
        <time>2024-06-06T06:48:05+00:00</time>
      </trkpt>
      <trkpt lat="45.4126" lon="6.19201">
        <ele>1898</ele>
        <time>2024-06-06T06:48:08+00:00</time>
      </trkpt>
      <trkpt lat="45.41263" lon="6.19201">
        <ele>1898</ele>
        <time>2024-06-06T06:48:11+00:00</time>
      </trkpt>
      <trkpt lat="45.41264" lon="6.19205">
        <ele>1898</ele>
        <time>2024-06-06T06:48:14+00:00</time>
      </trkpt>
      <trkpt lat="45.41267" lon="6.19206">
        <ele>1898</ele>
        <time>2024-06-06T06:48:17+00:00</time>
      </trkpt>
      <trkpt lat="45.41271" lon="6.19207">
        <ele>1895</ele>
        <time>2024-06-06T06:48:20+00:00</time>
      </trkpt>
      <trkpt lat="45.41274" lon="6.19208">
        <ele>1895</ele>
        <time>2024-06-06T06:48:23+00:00</time>
      </trkpt>
      <trkpt lat="45.41278" lon="6.19211">
        <ele>1895</ele>
        <time>2024-06-06T06:48:26+00:00</time>
      </trkpt>
      <trkpt lat="45.4128" lon="6.19216">
        <ele>1895</ele>
        <time>2024-06-06T06:48:29+00:00</time>
      </trkpt>
      <trkpt lat="45.41281" lon="6.19221">
        <ele>1893</ele>
        <time>2024-06-06T06:48:32+00:00</time>
      </trkpt>
      <trkpt lat="45.41284" lon="6.19225">
        <ele>1893</ele>
        <time>2024-06-06T06:48:35+00:00</time>
      </trkpt>
      <trkpt lat="45.4129" lon="6.19228">
        <ele>1893</ele>
        <time>2024-06-06T06:48:38+00:00</time>
      </trkpt>
      <trkpt lat="45.41295" lon="6.19234">
        <ele>1890</ele>
        <time>2024-06-06T06:48:41+00:00</time>
      </trkpt>
      <trkpt lat="45.41302" lon="6.19236">
        <ele>1889</ele>
        <time>2024-06-06T06:48:44+00:00</time>
      </trkpt>
      <trkpt lat="45.41309" lon="6.19237">
        <ele>1889</ele>
        <time>2024-06-06T06:48:47+00:00</time>
      </trkpt>
      <trkpt lat="45.41318" lon="6.19243">
        <ele>1887</ele>
        <time>2024-06-06T06:48:50+00:00</time>
      </trkpt>
      <trkpt lat="45.41325" lon="6.19245">
        <ele>1883</ele>
        <time>2024-06-06T06:48:53+00:00</time>
      </trkpt>
      <trkpt lat="45.41332" lon="6.19248">
        <ele>1880</ele>
        <time>2024-06-06T06:48:56+00:00</time>
      </trkpt>
      <trkpt lat="45.41337" lon="6.1925">
        <ele>1882</ele>
        <time>2024-06-06T06:48:59+00:00</time>
      </trkpt>
      <trkpt lat="45.41342" lon="6.19255">
        <ele>1878</ele>
        <time>2024-06-06T06:49:02+00:00</time>
      </trkpt>
      <trkpt lat="45.41346" lon="6.19259">
        <ele>1878</ele>
        <time>2024-06-06T06:49:05+00:00</time>
      </trkpt>
      <trkpt lat="45.41358" lon="6.19265">
        <ele>1876</ele>
        <time>2024-06-06T06:49:08+00:00</time>
      </trkpt>
      <trkpt lat="45.41367" lon="6.19265">
        <ele>1872</ele>
        <time>2024-06-06T06:49:11+00:00</time>
      </trkpt>
      <trkpt lat="45.41375" lon="6.1927">
        <ele>1871</ele>
        <time>2024-06-06T06:49:14+00:00</time>
      </trkpt>
      <trkpt lat="45.41383" lon="6.19277">
        <ele>1864</ele>
        <time>2024-06-06T06:49:17+00:00</time>
      </trkpt>
      <trkpt lat="45.41395" lon="6.19283">
        <ele>1862</ele>
        <time>2024-06-06T06:49:20+00:00</time>
      </trkpt>
      <trkpt lat="45.41403" lon="6.19292">
        <ele>1861</ele>
        <time>2024-06-06T06:49:23+00:00</time>
      </trkpt>
      <trkpt lat="45.41411" lon="6.19299">
        <ele>1855</ele>
        <time>2024-06-06T06:49:26+00:00</time>
      </trkpt>
      <trkpt lat="45.41421" lon="6.19302">
        <ele>1853</ele>
        <time>2024-06-06T06:49:29+00:00</time>
      </trkpt>
      <trkpt lat="45.4143" lon="6.19311">
        <ele>1849</ele>
        <time>2024-06-06T06:49:32+00:00</time>
      </trkpt>
      <trkpt lat="45.41436" lon="6.19316">
        <ele>1849</ele>
        <time>2024-06-06T06:49:35+00:00</time>
      </trkpt>
      <trkpt lat="45.41442" lon="6.19323">
        <ele>1845</ele>
        <time>2024-06-06T06:49:38+00:00</time>
      </trkpt>
      <trkpt lat="45.41445" lon="6.19328">
        <ele>1845</ele>
        <time>2024-06-06T06:49:41+00:00</time>
      </trkpt>
      <trkpt lat="45.41452" lon="6.19332">
        <ele>1842</ele>
        <time>2024-06-06T06:49:44+00:00</time>
      </trkpt>
      <trkpt lat="45.41461" lon="6.19335">
        <ele>1839</ele>
        <time>2024-06-06T06:49:47+00:00</time>
      </trkpt>
      <trkpt lat="45.41477" lon="6.19341">
        <ele>1834</ele>
        <time>2024-06-06T06:49:50+00:00</time>
      </trkpt>
      <trkpt lat="45.41497" lon="6.19347">
        <ele>1826</ele>
        <time>2024-06-06T06:49:53+00:00</time>
      </trkpt>
      <trkpt lat="45.41518" lon="6.19354">
        <ele>1820</ele>
        <time>2024-06-06T06:49:56+00:00</time>
      </trkpt>
      <trkpt lat="45.41533" lon="6.19364">
        <ele>1814</ele>
        <time>2024-06-06T06:49:59+00:00</time>
      </trkpt>
      <trkpt lat="45.41545" lon="6.19372">
        <ele>1812</ele>
        <time>2024-06-06T06:50:02+00:00</time>
      </trkpt>
      <trkpt lat="45.41553" lon="6.19373">
        <ele>1813</ele>
        <time>2024-06-06T06:50:05+00:00</time>
      </trkpt>
      <trkpt lat="45.41563" lon="6.19375">
        <ele>1811</ele>
        <time>2024-06-06T06:50:08+00:00</time>
      </trkpt>
      <trkpt lat="45.41571" lon="6.19382">
        <ele>1810</ele>
        <time>2024-06-06T06:50:11+00:00</time>
      </trkpt>
      <trkpt lat="45.41581" lon="6.19395">
        <ele>1809</ele>
        <time>2024-06-06T06:50:14+00:00</time>
      </trkpt>
      <trkpt lat="45.41596" lon="6.19409">
        <ele>1806</ele>
        <time>2024-06-06T06:50:17+00:00</time>
      </trkpt>
      <trkpt lat="45.4161" lon="6.19425">
        <ele>1805</ele>
        <time>2024-06-06T06:50:20+00:00</time>
      </trkpt>
      <trkpt lat="45.4162" lon="6.19444">
        <ele>1803</ele>
        <time>2024-06-06T06:50:23+00:00</time>
      </trkpt>
      <trkpt lat="45.41627" lon="6.19452">
        <ele>1799</ele>
        <time>2024-06-06T06:50:26+00:00</time>
      </trkpt>
      <trkpt lat="45.41634" lon="6.19457">
        <ele>1796</ele>
        <time>2024-06-06T06:50:29+00:00</time>
      </trkpt>
      <trkpt lat="45.41637" lon="6.19463">
        <ele>1797</ele>
        <time>2024-06-06T06:50:32+00:00</time>
      </trkpt>
      <trkpt lat="45.41642" lon="6.19469">
        <ele>1793</ele>
        <time>2024-06-06T06:50:35+00:00</time>
      </trkpt>
      <trkpt lat="45.41645" lon="6.19479">
        <ele>1794</ele>
        <time>2024-06-06T06:50:38+00:00</time>
      </trkpt>
      <trkpt lat="45.41651" lon="6.19491">
        <ele>1791</ele>
        <time>2024-06-06T06:50:41+00:00</time>
      </trkpt>
      <trkpt lat="45.41654" lon="6.19496">
        <ele>1791</ele>
        <time>2024-06-06T06:50:44+00:00</time>
      </trkpt>
      <trkpt lat="45.41659" lon="6.19502">
        <ele>1790</ele>
        <time>2024-06-06T06:50:47+00:00</time>
      </trkpt>
      <trkpt lat="45.41667" lon="6.19511">
        <ele>1787</ele>
        <time>2024-06-06T06:50:50+00:00</time>
      </trkpt>
      <trkpt lat="45.41677" lon="6.19524">
        <ele>1786</ele>
        <time>2024-06-06T06:50:53+00:00</time>
      </trkpt>
      <trkpt lat="45.41687" lon="6.19539">
        <ele>1784</ele>
        <time>2024-06-06T06:50:56+00:00</time>
      </trkpt>
      <trkpt lat="45.41701" lon="6.19562">
        <ele>1781</ele>
        <time>2024-06-06T06:50:59+00:00</time>
      </trkpt>
      <trkpt lat="45.41716" lon="6.19582">
        <ele>1776</ele>
        <time>2024-06-06T06:51:02+00:00</time>
      </trkpt>
      <trkpt lat="45.41727" lon="6.19599">
        <ele>1774</ele>
        <time>2024-06-06T06:51:05+00:00</time>
      </trkpt>
      <trkpt lat="45.41735" lon="6.19615">
        <ele>1771</ele>
        <time>2024-06-06T06:51:08+00:00</time>
      </trkpt>
      <trkpt lat="45.41744" lon="6.1963">
        <ele>1767</ele>
        <time>2024-06-06T06:51:11+00:00</time>
      </trkpt>
      <trkpt lat="45.41759" lon="6.19646">
        <ele>1764</ele>
        <time>2024-06-06T06:51:14+00:00</time>
      </trkpt>
      <trkpt lat="45.41767" lon="6.19654">
        <ele>1761</ele>
        <time>2024-06-06T06:51:17+00:00</time>
      </trkpt>
      <trkpt lat="45.41771" lon="6.19663">
        <ele>1758</ele>
        <time>2024-06-06T06:51:20+00:00</time>
      </trkpt>
      <trkpt lat="45.4178" lon="6.19679">
        <ele>1757</ele>
        <time>2024-06-06T06:51:23+00:00</time>
      </trkpt>
      <trkpt lat="45.41787" lon="6.19687">
        <ele>1754</ele>
        <time>2024-06-06T06:51:26+00:00</time>
      </trkpt>
      <trkpt lat="45.41793" lon="6.19693">
        <ele>1751</ele>
        <time>2024-06-06T06:51:29+00:00</time>
      </trkpt>
      <trkpt lat="45.41798" lon="6.19699">
        <ele>1751</ele>
        <time>2024-06-06T06:51:32+00:00</time>
      </trkpt>
      <trkpt lat="45.41801" lon="6.19707">
        <ele>1747</ele>
        <time>2024-06-06T06:51:35+00:00</time>
      </trkpt>
      <trkpt lat="45.41801" lon="6.19716">
        <ele>1747</ele>
        <time>2024-06-06T06:51:38+00:00</time>
      </trkpt>
      <trkpt lat="45.41806" lon="6.19717">
        <ele>1747</ele>
        <time>2024-06-06T06:51:41+00:00</time>
      </trkpt>
      <trkpt lat="45.41811" lon="6.19719">
        <ele>1744</ele>
        <time>2024-06-06T06:51:44+00:00</time>
      </trkpt>
      <trkpt lat="45.41815" lon="6.19719">
        <ele>1744</ele>
        <time>2024-06-06T06:51:47+00:00</time>
      </trkpt>
      <trkpt lat="45.4182" lon="6.1972">
        <ele>1738</ele>
        <time>2024-06-06T06:51:50+00:00</time>
      </trkpt>
      <trkpt lat="45.41821" lon="6.19727">
        <ele>1741</ele>
        <time>2024-06-06T06:51:53+00:00</time>
      </trkpt>
      <trkpt lat="45.41821" lon="6.19733">
        <ele>1741</ele>
        <time>2024-06-06T06:51:56+00:00</time>
      </trkpt>
      <trkpt lat="45.41821" lon="6.19739">
        <ele>1741</ele>
        <time>2024-06-06T06:51:59+00:00</time>
      </trkpt>
      <trkpt lat="45.41824" lon="6.19743">
        <ele>1738</ele>
        <time>2024-06-06T06:52:02+00:00</time>
      </trkpt>
      <trkpt lat="45.41828" lon="6.19745">
        <ele>1738</ele>
        <time>2024-06-06T06:52:05+00:00</time>
      </trkpt>
      <trkpt lat="45.41831" lon="6.1975">
        <ele>1737</ele>
        <time>2024-06-06T06:52:08+00:00</time>
      </trkpt>
      <trkpt lat="45.41834" lon="6.19753">
        <ele>1735</ele>
        <time>2024-06-06T06:52:11+00:00</time>
      </trkpt>
      <trkpt lat="45.4184" lon="6.19755">
        <ele>1734</ele>
        <time>2024-06-06T06:52:14+00:00</time>
      </trkpt>
      <trkpt lat="45.41849" lon="6.19763">
        <ele>1733</ele>
        <time>2024-06-06T06:52:17+00:00</time>
      </trkpt>
      <trkpt lat="45.41857" lon="6.19773">
        <ele>1730</ele>
        <time>2024-06-06T06:52:20+00:00</time>
      </trkpt>
      <trkpt lat="45.41884" lon="6.19802">
        <ele>1720</ele>
        <time>2024-06-06T06:52:23+00:00</time>
      </trkpt>
      <trkpt lat="45.41886" lon="6.19806">
        <ele>1720</ele>
        <time>2024-06-06T06:52:26+00:00</time>
      </trkpt>
      <trkpt lat="45.41891" lon="6.19812">
        <ele>1715</ele>
        <time>2024-06-06T06:52:29+00:00</time>
      </trkpt>
      <trkpt lat="45.41893" lon="6.19813">
        <ele>1715</ele>
        <time>2024-06-06T06:52:32+00:00</time>
      </trkpt>
      <trkpt lat="45.41895" lon="6.19812">
        <ele>1715</ele>
        <time>2024-06-06T06:52:35+00:00</time>
      </trkpt>
      <trkpt lat="45.41897" lon="6.19812">
        <ele>1715</ele>
        <time>2024-06-06T06:52:38+00:00</time>
      </trkpt>
      <trkpt lat="45.41909" lon="6.19819">
        <ele>1712</ele>
        <time>2024-06-06T06:52:41+00:00</time>
      </trkpt>
      <trkpt lat="45.41913" lon="6.19823">
        <ele>1709</ele>
        <time>2024-06-06T06:52:44+00:00</time>
      </trkpt>
      <trkpt lat="45.41915" lon="6.19827">
        <ele>1709</ele>
        <time>2024-06-06T06:52:47+00:00</time>
      </trkpt>
      <trkpt lat="45.41918" lon="6.19831">
        <ele>1708</ele>
        <time>2024-06-06T06:52:50+00:00</time>
      </trkpt>
      <trkpt lat="45.41929" lon="6.19835">
        <ele>1705</ele>
        <time>2024-06-06T06:52:53+00:00</time>
      </trkpt>
      <trkpt lat="45.41936" lon="6.19835">
        <ele>1701</ele>
        <time>2024-06-06T06:52:56+00:00</time>
      </trkpt>
      <trkpt lat="45.41939" lon="6.19835">
        <ele>1701</ele>
        <time>2024-06-06T06:52:59+00:00</time>
      </trkpt>
      <trkpt lat="45.41945" lon="6.19836">
        <ele>1698</ele>
        <time>2024-06-06T06:53:02+00:00</time>
      </trkpt>
      <trkpt lat="45.41957" lon="6.19839">
        <ele>1694</ele>
        <time>2024-06-06T06:53:05+00:00</time>
      </trkpt>
      <trkpt lat="45.41962" lon="6.1984">
        <ele>1695</ele>
        <time>2024-06-06T06:53:08+00:00</time>
      </trkpt>
      <trkpt lat="45.41965" lon="6.1984">
        <ele>1695</ele>
        <time>2024-06-06T06:53:11+00:00</time>
      </trkpt>
      <trkpt lat="45.41967" lon="6.19842">
        <ele>1695</ele>
        <time>2024-06-06T06:53:14+00:00</time>
      </trkpt>
      <trkpt lat="45.41969" lon="6.19842">
        <ele>1695</ele>
        <time>2024-06-06T06:53:17+00:00</time>
      </trkpt>
      <trkpt lat="45.41972" lon="6.19841">
        <ele>1694</ele>
        <time>2024-06-06T06:53:20+00:00</time>
      </trkpt>
      <trkpt lat="45.41975" lon="6.19839">
        <ele>1691</ele>
        <time>2024-06-06T06:53:23+00:00</time>
      </trkpt>
      <trkpt lat="45.4198" lon="6.19839">
        <ele>1691</ele>
        <time>2024-06-06T06:53:26+00:00</time>
      </trkpt>
      <trkpt lat="45.41984" lon="6.1984">
        <ele>1688</ele>
        <time>2024-06-06T06:53:29+00:00</time>
      </trkpt>
      <trkpt lat="45.41992" lon="6.19842">
        <ele>1691</ele>
        <time>2024-06-06T06:53:32+00:00</time>
      </trkpt>
      <trkpt lat="45.41997" lon="6.19844">
        <ele>1691</ele>
        <time>2024-06-06T06:53:35+00:00</time>
      </trkpt>
      <trkpt lat="45.42" lon="6.19847">
        <ele>1689</ele>
        <time>2024-06-06T06:53:38+00:00</time>
      </trkpt>
      <trkpt lat="45.42003" lon="6.19849">
        <ele>1689</ele>
        <time>2024-06-06T06:53:41+00:00</time>
      </trkpt>
      <trkpt lat="45.42006" lon="6.19851">
        <ele>1689</ele>
        <time>2024-06-06T06:53:44+00:00</time>
      </trkpt>
      <trkpt lat="45.42009" lon="6.19852">
        <ele>1689</ele>
        <time>2024-06-06T06:53:47+00:00</time>
      </trkpt>
      <trkpt lat="45.42016" lon="6.19852">
        <ele>1686</ele>
        <time>2024-06-06T06:53:50+00:00</time>
      </trkpt>
      <trkpt lat="45.4202" lon="6.19853">
        <ele>1686</ele>
        <time>2024-06-06T06:53:53+00:00</time>
      </trkpt>
      <trkpt lat="45.42022" lon="6.19854">
        <ele>1684</ele>
        <time>2024-06-06T06:53:56+00:00</time>
      </trkpt>
      <trkpt lat="45.42026" lon="6.19856">
        <ele>1684</ele>
        <time>2024-06-06T06:53:59+00:00</time>
      </trkpt>
      <trkpt lat="45.42031" lon="6.19858">
        <ele>1681</ele>
        <time>2024-06-06T06:54:02+00:00</time>
      </trkpt>
      <trkpt lat="45.42042" lon="6.1986">
        <ele>1679</ele>
        <time>2024-06-06T06:54:05+00:00</time>
      </trkpt>
      <trkpt lat="45.42045" lon="6.1986">
        <ele>1677</ele>
        <time>2024-06-06T06:54:08+00:00</time>
      </trkpt>
      <trkpt lat="45.42049" lon="6.19859">
        <ele>1677</ele>
        <time>2024-06-06T06:54:11+00:00</time>
      </trkpt>
      <trkpt lat="45.42051" lon="6.19859">
        <ele>1674</ele>
        <time>2024-06-06T06:54:14+00:00</time>
      </trkpt>
      <trkpt lat="45.42055" lon="6.1986">
        <ele>1677</ele>
        <time>2024-06-06T06:54:17+00:00</time>
      </trkpt>
      <trkpt lat="45.42059" lon="6.19862">
        <ele>1677</ele>
        <time>2024-06-06T06:54:20+00:00</time>
      </trkpt>
      <trkpt lat="45.42065" lon="6.19865">
        <ele>1674</ele>
        <time>2024-06-06T06:54:23+00:00</time>
      </trkpt>
      <trkpt lat="45.42069" lon="6.19865">
        <ele>1674</ele>
        <time>2024-06-06T06:54:26+00:00</time>
      </trkpt>
      <trkpt lat="45.42072" lon="6.19864">
        <ele>1671</ele>
        <time>2024-06-06T06:54:29+00:00</time>
      </trkpt>
      <trkpt lat="45.42075" lon="6.19864">
        <ele>1671</ele>
        <time>2024-06-06T06:54:32+00:00</time>
      </trkpt>
      <trkpt lat="45.42079" lon="6.19866">
        <ele>1671</ele>
        <time>2024-06-06T06:54:35+00:00</time>
      </trkpt>
      <trkpt lat="45.42084" lon="6.19867">
        <ele>1669</ele>
        <time>2024-06-06T06:54:38+00:00</time>
      </trkpt>
      <trkpt lat="45.42089" lon="6.19867">
        <ele>1669</ele>
        <time>2024-06-06T06:54:41+00:00</time>
      </trkpt>
      <trkpt lat="45.42091" lon="6.19869">
        <ele>1666</ele>
        <time>2024-06-06T06:54:44+00:00</time>
      </trkpt>
      <trkpt lat="45.42094" lon="6.1987">
        <ele>1666</ele>
        <time>2024-06-06T06:54:47+00:00</time>
      </trkpt>
      <trkpt lat="45.42097" lon="6.1987">
        <ele>1669</ele>
        <time>2024-06-06T06:54:50+00:00</time>
      </trkpt>
      <trkpt lat="45.42115" lon="6.19872">
        <ele>1667</ele>
        <time>2024-06-06T06:54:53+00:00</time>
      </trkpt>
      <trkpt lat="45.42122" lon="6.19873">
        <ele>1666</ele>
        <time>2024-06-06T06:54:56+00:00</time>
      </trkpt>
      <trkpt lat="45.42128" lon="6.19874">
        <ele>1666</ele>
        <time>2024-06-06T06:54:59+00:00</time>
      </trkpt>
      <trkpt lat="45.42135" lon="6.19874">
        <ele>1664</ele>
        <time>2024-06-06T06:55:02+00:00</time>
      </trkpt>
      <trkpt lat="45.42145" lon="6.19876">
        <ele>1663</ele>
        <time>2024-06-06T06:55:05+00:00</time>
      </trkpt>
      <trkpt lat="45.4216" lon="6.19882">
        <ele>1662</ele>
        <time>2024-06-06T06:55:08+00:00</time>
      </trkpt>
      <trkpt lat="45.42164" lon="6.19885">
        <ele>1662</ele>
        <time>2024-06-06T06:55:11+00:00</time>
      </trkpt>
      <trkpt lat="45.42168" lon="6.1989">
        <ele>1662</ele>
        <time>2024-06-06T06:55:14+00:00</time>
      </trkpt>
      <trkpt lat="45.4217" lon="6.19895">
        <ele>1661</ele>
        <time>2024-06-06T06:55:17+00:00</time>
      </trkpt>
      <trkpt lat="45.42173" lon="6.199">
        <ele>1661</ele>
        <time>2024-06-06T06:55:20+00:00</time>
      </trkpt>
      <trkpt lat="45.42187" lon="6.19925">
        <ele>1660</ele>
        <time>2024-06-06T06:55:23+00:00</time>
      </trkpt>
      <trkpt lat="45.4219" lon="6.19927">
        <ele>1660</ele>
        <time>2024-06-06T06:55:26+00:00</time>
      </trkpt>
      <trkpt lat="45.42191" lon="6.19929">
        <ele>1661</ele>
        <time>2024-06-06T06:55:29+00:00</time>
      </trkpt>
      <trkpt lat="45.42191" lon="6.19931">
        <ele>1659</ele>
        <time>2024-06-06T06:55:32+00:00</time>
      </trkpt>
      <trkpt lat="45.42191" lon="6.19935">
        <ele>1659</ele>
        <time>2024-06-06T06:55:35+00:00</time>
      </trkpt>
      <trkpt lat="45.42191" lon="6.19938">
        <ele>1659</ele>
        <time>2024-06-06T06:55:38+00:00</time>
      </trkpt>
      <trkpt lat="45.42193" lon="6.19942">
        <ele>1658</ele>
        <time>2024-06-06T06:55:41+00:00</time>
      </trkpt>
      <trkpt lat="45.42197" lon="6.19944">
        <ele>1658</ele>
        <time>2024-06-06T06:55:44+00:00</time>
      </trkpt>
      <trkpt lat="45.42216" lon="6.19958">
        <ele>1658</ele>
        <time>2024-06-06T06:55:47+00:00</time>
      </trkpt>
      <trkpt lat="45.42218" lon="6.19959">
        <ele>1658</ele>
        <time>2024-06-06T06:55:50+00:00</time>
      </trkpt>
      <trkpt lat="45.42221" lon="6.1996">
        <ele>1659</ele>
        <time>2024-06-06T06:55:53+00:00</time>
      </trkpt>
      <trkpt lat="45.42224" lon="6.1996">
        <ele>1659</ele>
        <time>2024-06-06T06:55:56+00:00</time>
      </trkpt>
      <trkpt lat="45.42227" lon="6.1996">
        <ele>1659</ele>
        <time>2024-06-06T06:55:59+00:00</time>
      </trkpt>
      <trkpt lat="45.42229" lon="6.1996">
        <ele>1654</ele>
        <time>2024-06-06T06:56:02+00:00</time>
      </trkpt>
      <trkpt lat="45.4223" lon="6.19962">
        <ele>1654</ele>
        <time>2024-06-06T06:56:05+00:00</time>
      </trkpt>
      <trkpt lat="45.42232" lon="6.19964">
        <ele>1654</ele>
        <time>2024-06-06T06:56:08+00:00</time>
      </trkpt>
      <trkpt lat="45.42233" lon="6.19965">
        <ele>1654</ele>
        <time>2024-06-06T06:56:11+00:00</time>
      </trkpt>
      <trkpt lat="45.42235" lon="6.19966">
        <ele>1654</ele>
        <time>2024-06-06T06:56:14+00:00</time>
      </trkpt>
      <trkpt lat="45.42237" lon="6.19966">
        <ele>1654</ele>
        <time>2024-06-06T06:56:17+00:00</time>
      </trkpt>
      <trkpt lat="45.42238" lon="6.19965">
        <ele>1654</ele>
        <time>2024-06-06T06:56:20+00:00</time>
      </trkpt>
      <trkpt lat="45.42239" lon="6.19963">
        <ele>1654</ele>
        <time>2024-06-06T06:56:23+00:00</time>
      </trkpt>
      <trkpt lat="45.42241" lon="6.19952">
        <ele>1651</ele>
        <time>2024-06-06T06:56:26+00:00</time>
      </trkpt>
      <trkpt lat="45.42243" lon="6.19945">
        <ele>1650</ele>
        <time>2024-06-06T06:56:29+00:00</time>
      </trkpt>
      <trkpt lat="45.42244" lon="6.19942">
        <ele>1650</ele>
        <time>2024-06-06T06:56:32+00:00</time>
      </trkpt>
      <trkpt lat="45.42245" lon="6.19939">
        <ele>1649</ele>
        <time>2024-06-06T06:56:35+00:00</time>
      </trkpt>
      <trkpt lat="45.4225" lon="6.1994">
        <ele>1648</ele>
        <time>2024-06-06T06:56:38+00:00</time>
      </trkpt>
      <trkpt lat="45.42253" lon="6.19941">
        <ele>1648</ele>
        <time>2024-06-06T06:56:41+00:00</time>
      </trkpt>
      <trkpt lat="45.42255" lon="6.19942">
        <ele>1648</ele>
        <time>2024-06-06T06:56:44+00:00</time>
      </trkpt>
      <trkpt lat="45.42257" lon="6.19941">
        <ele>1648</ele>
        <time>2024-06-06T06:56:47+00:00</time>
      </trkpt>
      <trkpt lat="45.42259" lon="6.19939">
        <ele>1648</ele>
        <time>2024-06-06T06:56:50+00:00</time>
      </trkpt>
      <trkpt lat="45.42261" lon="6.19935">
        <ele>1650</ele>
        <time>2024-06-06T06:56:53+00:00</time>
      </trkpt>
      <trkpt lat="45.42263" lon="6.19931">
        <ele>1650</ele>
        <time>2024-06-06T06:56:56+00:00</time>
      </trkpt>
      <trkpt lat="45.42265" lon="6.19928">
        <ele>1649</ele>
        <time>2024-06-06T06:56:59+00:00</time>
      </trkpt>
      <trkpt lat="45.42268" lon="6.19925">
        <ele>1649</ele>
        <time>2024-06-06T06:57:02+00:00</time>
      </trkpt>
      <trkpt lat="45.4227" lon="6.19919">
        <ele>1648</ele>
        <time>2024-06-06T06:57:05+00:00</time>
      </trkpt>
      <trkpt lat="45.42272" lon="6.19917">
        <ele>1648</ele>
        <time>2024-06-06T06:57:08+00:00</time>
      </trkpt>
      <trkpt lat="45.42274" lon="6.19916">
        <ele>1648</ele>
        <time>2024-06-06T06:57:11+00:00</time>
      </trkpt>
      <trkpt lat="45.42275" lon="6.19915">
        <ele>1648</ele>
        <time>2024-06-06T06:57:14+00:00</time>
      </trkpt>
      <trkpt lat="45.42276" lon="6.19915">
        <ele>1648</ele>
        <time>2024-06-06T06:57:17+00:00</time>
      </trkpt>
      <trkpt lat="45.42277" lon="6.19912">
        <ele>1648</ele>
        <time>2024-06-06T06:57:20+00:00</time>
      </trkpt>
      <trkpt lat="45.42276" lon="6.19905">
        <ele>1646</ele>
        <time>2024-06-06T06:57:23+00:00</time>
      </trkpt>
      <trkpt lat="45.42275" lon="6.19904">
        <ele>1646</ele>
        <time>2024-06-06T06:57:26+00:00</time>
      </trkpt>
      <trkpt lat="45.42274" lon="6.19903">
        <ele>1646</ele>
        <time>2024-06-06T06:57:29+00:00</time>
      </trkpt>
      <trkpt lat="45.42273" lon="6.19902">
        <ele>1646</ele>
        <time>2024-06-06T06:57:32+00:00</time>
      </trkpt>
      <trkpt lat="45.42274" lon="6.199">
        <ele>1643</ele>
        <time>2024-06-06T06:57:35+00:00</time>
      </trkpt>
      <trkpt lat="45.42275" lon="6.19899">
        <ele>1643</ele>
        <time>2024-06-06T06:57:38+00:00</time>
      </trkpt>
      <trkpt lat="45.42283" lon="6.19898">
        <ele>1640</ele>
        <time>2024-06-06T06:57:41+00:00</time>
      </trkpt>
      <trkpt lat="45.42286" lon="6.19898">
        <ele>1640</ele>
        <time>2024-06-06T06:57:44+00:00</time>
      </trkpt>
      <trkpt lat="45.42288" lon="6.19899">
        <ele>1640</ele>
        <time>2024-06-06T06:57:47+00:00</time>
      </trkpt>
      <trkpt lat="45.42291" lon="6.19898">
        <ele>1638</ele>
        <time>2024-06-06T06:57:50+00:00</time>
      </trkpt>
      <trkpt lat="45.42293" lon="6.19895">
        <ele>1638</ele>
        <time>2024-06-06T06:57:53+00:00</time>
      </trkpt>
      <trkpt lat="45.42295" lon="6.19893">
        <ele>1638</ele>
        <time>2024-06-06T06:57:56+00:00</time>
      </trkpt>
      <trkpt lat="45.42298" lon="6.19892">
        <ele>1638</ele>
        <time>2024-06-06T06:57:59+00:00</time>
      </trkpt>
      <trkpt lat="45.42302" lon="6.19889">
        <ele>1636</ele>
        <time>2024-06-06T06:58:02+00:00</time>
      </trkpt>
      <trkpt lat="45.42305" lon="6.19889">
        <ele>1636</ele>
        <time>2024-06-06T06:58:05+00:00</time>
      </trkpt>
      <trkpt lat="45.42308" lon="6.19888">
        <ele>1636</ele>
        <time>2024-06-06T06:58:08+00:00</time>
      </trkpt>
      <trkpt lat="45.4231" lon="6.19887">
        <ele>1636</ele>
        <time>2024-06-06T06:58:11+00:00</time>
      </trkpt>
      <trkpt lat="45.42312" lon="6.19885">
        <ele>1634</ele>
        <time>2024-06-06T06:58:14+00:00</time>
      </trkpt>
      <trkpt lat="45.42314" lon="6.19884">
        <ele>1634</ele>
        <time>2024-06-06T06:58:17+00:00</time>
      </trkpt>
      <trkpt lat="45.42316" lon="6.19883">
        <ele>1634</ele>
        <time>2024-06-06T06:58:20+00:00</time>
      </trkpt>
      <trkpt lat="45.42318" lon="6.19884">
        <ele>1634</ele>
        <time>2024-06-06T06:58:23+00:00</time>
      </trkpt>
      <trkpt lat="45.42322" lon="6.19882">
        <ele>1634</ele>
        <time>2024-06-06T06:58:26+00:00</time>
      </trkpt>
      <trkpt lat="45.4233" lon="6.19873">
        <ele>1632</ele>
        <time>2024-06-06T06:58:29+00:00</time>
      </trkpt>
      <trkpt lat="45.42332" lon="6.19868">
        <ele>1631</ele>
        <time>2024-06-06T06:58:32+00:00</time>
      </trkpt>
      <trkpt lat="45.42334" lon="6.19863">
        <ele>1631</ele>
        <time>2024-06-06T06:58:35+00:00</time>
      </trkpt>
      <trkpt lat="45.42334" lon="6.19859">
        <ele>1632</ele>
        <time>2024-06-06T06:58:38+00:00</time>
      </trkpt>
      <trkpt lat="45.42335" lon="6.19857">
        <ele>1632</ele>
        <time>2024-06-06T06:58:41+00:00</time>
      </trkpt>
      <trkpt lat="45.42336" lon="6.19855">
        <ele>1632</ele>
        <time>2024-06-06T06:58:44+00:00</time>
      </trkpt>
      <trkpt lat="45.42337" lon="6.19853">
        <ele>1632</ele>
        <time>2024-06-06T06:58:47+00:00</time>
      </trkpt>
      <trkpt lat="45.4234" lon="6.19851">
        <ele>1628</ele>
        <time>2024-06-06T06:58:50+00:00</time>
      </trkpt>
      <trkpt lat="45.42343" lon="6.19851">
        <ele>1628</ele>
        <time>2024-06-06T06:58:53+00:00</time>
      </trkpt>
      <trkpt lat="45.42347" lon="6.19851">
        <ele>1628</ele>
        <time>2024-06-06T06:58:56+00:00</time>
      </trkpt>
      <trkpt lat="45.42359" lon="6.19854">
        <ele>1624</ele>
        <time>2024-06-06T06:58:59+00:00</time>
      </trkpt>
      <trkpt lat="45.42362" lon="6.19868">
        <ele>1621</ele>
        <time>2024-06-06T06:59:02+00:00</time>
      </trkpt>
      <trkpt lat="45.42363" lon="6.19872">
        <ele>1622</ele>
        <time>2024-06-06T06:59:05+00:00</time>
      </trkpt>
      <trkpt lat="45.42365" lon="6.19875">
        <ele>1622</ele>
        <time>2024-06-06T06:59:08+00:00</time>
      </trkpt>
      <trkpt lat="45.42368" lon="6.19878">
        <ele>1625</ele>
        <time>2024-06-06T06:59:11+00:00</time>
      </trkpt>
      <trkpt lat="45.4237" lon="6.19879">
        <ele>1622</ele>
        <time>2024-06-06T06:59:14+00:00</time>
      </trkpt>
      <trkpt lat="45.42372" lon="6.1988">
        <ele>1622</ele>
        <time>2024-06-06T06:59:17+00:00</time>
      </trkpt>
      <trkpt lat="45.42374" lon="6.19879">
        <ele>1622</ele>
        <time>2024-06-06T06:59:20+00:00</time>
      </trkpt>
      <trkpt lat="45.42376" lon="6.19877">
        <ele>1622</ele>
        <time>2024-06-06T06:59:23+00:00</time>
      </trkpt>
      <trkpt lat="45.42378" lon="6.19875">
        <ele>1622</ele>
        <time>2024-06-06T06:59:26+00:00</time>
      </trkpt>
      <trkpt lat="45.4238" lon="6.19873">
        <ele>1627</ele>
        <time>2024-06-06T06:59:29+00:00</time>
      </trkpt>
      <trkpt lat="45.42382" lon="6.19871">
        <ele>1627</ele>
        <time>2024-06-06T06:59:32+00:00</time>
      </trkpt>
      <trkpt lat="45.42384" lon="6.19871">
        <ele>1627</ele>
        <time>2024-06-06T06:59:35+00:00</time>
      </trkpt>
      <trkpt lat="45.42386" lon="6.19872">
        <ele>1627</ele>
        <time>2024-06-06T06:59:38+00:00</time>
      </trkpt>
      <trkpt lat="45.42387" lon="6.19873">
        <ele>1627</ele>
        <time>2024-06-06T06:59:41+00:00</time>
      </trkpt>
      <trkpt lat="45.42388" lon="6.19875">
        <ele>1627</ele>
        <time>2024-06-06T06:59:44+00:00</time>
      </trkpt>
      <trkpt lat="45.42387" lon="6.19878">
        <ele>1627</ele>
        <time>2024-06-06T06:59:47+00:00</time>
      </trkpt>
      <trkpt lat="45.42387" lon="6.19881">
        <ele>1629</ele>
        <time>2024-06-06T06:59:50+00:00</time>
      </trkpt>
      <trkpt lat="45.42382" lon="6.19892">
        <ele>1632</ele>
        <time>2024-06-06T06:59:53+00:00</time>
      </trkpt>
      <trkpt lat="45.42382" lon="6.19896">
        <ele>1632</ele>
        <time>2024-06-06T06:59:56+00:00</time>
      </trkpt>
      <trkpt lat="45.42383" lon="6.19898">
        <ele>1632</ele>
        <time>2024-06-06T06:59:59+00:00</time>
      </trkpt>
      <trkpt lat="45.42384" lon="6.19899">
        <ele>1632</ele>
        <time>2024-06-06T07:00:02+00:00</time>
      </trkpt>
      <trkpt lat="45.42386" lon="6.19899">
        <ele>1632</ele>
        <time>2024-06-06T07:00:05+00:00</time>
      </trkpt>
      <trkpt lat="45.42388" lon="6.19899">
        <ele>1632</ele>
        <time>2024-06-06T07:00:08+00:00</time>
      </trkpt>
      <trkpt lat="45.4239" lon="6.199">
        <ele>1638</ele>
        <time>2024-06-06T07:00:11+00:00</time>
      </trkpt>
      <trkpt lat="45.42391" lon="6.19903">
        <ele>1638</ele>
        <time>2024-06-06T07:00:14+00:00</time>
      </trkpt>
      <trkpt lat="45.42393" lon="6.19906">
        <ele>1638</ele>
        <time>2024-06-06T07:00:17+00:00</time>
      </trkpt>
      <trkpt lat="45.42395" lon="6.19907">
        <ele>1638</ele>
        <time>2024-06-06T07:00:20+00:00</time>
      </trkpt>
      <trkpt lat="45.42396" lon="6.19906">
        <ele>1638</ele>
        <time>2024-06-06T07:00:23+00:00</time>
      </trkpt>
      <trkpt lat="45.42398" lon="6.19906">
        <ele>1638</ele>
        <time>2024-06-06T07:00:26+00:00</time>
      </trkpt>
      <trkpt lat="45.42401" lon="6.19904">
        <ele>1643</ele>
        <time>2024-06-06T07:00:29+00:00</time>
      </trkpt>
      <trkpt lat="45.42404" lon="6.19902">
        <ele>1643</ele>
        <time>2024-06-06T07:00:32+00:00</time>
      </trkpt>
      <trkpt lat="45.42408" lon="6.19899">
        <ele>1639</ele>
        <time>2024-06-06T07:00:35+00:00</time>
      </trkpt>
      <trkpt lat="45.42413" lon="6.19896">
        <ele>1645</ele>
        <time>2024-06-06T07:00:38+00:00</time>
      </trkpt>
      <trkpt lat="45.42418" lon="6.19895">
        <ele>1645</ele>
        <time>2024-06-06T07:00:41+00:00</time>
      </trkpt>
      <trkpt lat="45.42425" lon="6.19895">
        <ele>1648</ele>
        <time>2024-06-06T07:00:44+00:00</time>
      </trkpt>
      <trkpt lat="45.42436" lon="6.19897">
        <ele>1652</ele>
        <time>2024-06-06T07:00:47+00:00</time>
      </trkpt>
      <trkpt lat="45.42441" lon="6.19901">
        <ele>1660</ele>
        <time>2024-06-06T07:00:50+00:00</time>
      </trkpt>
      <trkpt lat="45.42442" lon="6.19903">
        <ele>1660</ele>
        <time>2024-06-06T07:00:53+00:00</time>
      </trkpt>
      <trkpt lat="45.42443" lon="6.19907">
        <ele>1660</ele>
        <time>2024-06-06T07:00:56+00:00</time>
      </trkpt>
      <trkpt lat="45.42443" lon="6.1991">
        <ele>1660</ele>
        <time>2024-06-06T07:00:59+00:00</time>
      </trkpt>
      <trkpt lat="45.42442" lon="6.19913">
        <ele>1664</ele>
        <time>2024-06-06T07:01:02+00:00</time>
      </trkpt>
      <trkpt lat="45.4244" lon="6.19918">
        <ele>1664</ele>
        <time>2024-06-06T07:01:05+00:00</time>
      </trkpt>
      <trkpt lat="45.42437" lon="6.19923">
        <ele>1662</ele>
        <time>2024-06-06T07:01:08+00:00</time>
      </trkpt>
      <trkpt lat="45.42434" lon="6.19929">
        <ele>1662</ele>
        <time>2024-06-06T07:01:11+00:00</time>
      </trkpt>
      <trkpt lat="45.42432" lon="6.19935">
        <ele>1667</ele>
        <time>2024-06-06T07:01:14+00:00</time>
      </trkpt>
      <trkpt lat="45.4243" lon="6.19944">
        <ele>1670</ele>
        <time>2024-06-06T07:01:17+00:00</time>
      </trkpt>
      <trkpt lat="45.4243" lon="6.1995">
        <ele>1670</ele>
        <time>2024-06-06T07:01:20+00:00</time>
      </trkpt>
      <trkpt lat="45.4243" lon="6.19958">
        <ele>1672</ele>
        <time>2024-06-06T07:01:23+00:00</time>
      </trkpt>
      <trkpt lat="45.42431" lon="6.19965">
        <ele>1675</ele>
        <time>2024-06-06T07:01:26+00:00</time>
      </trkpt>
      <trkpt lat="45.42431" lon="6.1997">
        <ele>1677</ele>
        <time>2024-06-06T07:01:29+00:00</time>
      </trkpt>
      <trkpt lat="45.42432" lon="6.19974">
        <ele>1677</ele>
        <time>2024-06-06T07:01:32+00:00</time>
      </trkpt>
      <trkpt lat="45.42435" lon="6.19978">
        <ele>1677</ele>
        <time>2024-06-06T07:01:35+00:00</time>
      </trkpt>
      <trkpt lat="45.42438" lon="6.19979">
        <ele>1677</ele>
        <time>2024-06-06T07:01:38+00:00</time>
      </trkpt>
      <trkpt lat="45.4244" lon="6.19978">
        <ele>1677</ele>
        <time>2024-06-06T07:01:41+00:00</time>
      </trkpt>
      <trkpt lat="45.42443" lon="6.19975">
        <ele>1682</ele>
        <time>2024-06-06T07:01:44+00:00</time>
      </trkpt>
      <trkpt lat="45.42445" lon="6.19975">
        <ele>1682</ele>
        <time>2024-06-06T07:01:47+00:00</time>
      </trkpt>
      <trkpt lat="45.42446" lon="6.19976">
        <ele>1682</ele>
        <time>2024-06-06T07:01:50+00:00</time>
      </trkpt>
      <trkpt lat="45.42446" lon="6.19978">
        <ele>1682</ele>
        <time>2024-06-06T07:01:53+00:00</time>
      </trkpt>
      <trkpt lat="45.42447" lon="6.19983">
        <ele>1683</ele>
        <time>2024-06-06T07:01:56+00:00</time>
      </trkpt>
      <trkpt lat="45.42446" lon="6.19987">
        <ele>1683</ele>
        <time>2024-06-06T07:01:59+00:00</time>
      </trkpt>
      <trkpt lat="45.42446" lon="6.19991">
        <ele>1688</ele>
        <time>2024-06-06T07:02:02+00:00</time>
      </trkpt>
      <trkpt lat="45.42449" lon="6.19995">
        <ele>1688</ele>
        <time>2024-06-06T07:02:05+00:00</time>
      </trkpt>
      <trkpt lat="45.42451" lon="6.19995">
        <ele>1690</ele>
        <time>2024-06-06T07:02:08+00:00</time>
      </trkpt>
      <trkpt lat="45.42455" lon="6.19993">
        <ele>1690</ele>
        <time>2024-06-06T07:02:11+00:00</time>
      </trkpt>
      <trkpt lat="45.42459" lon="6.19992">
        <ele>1690</ele>
        <time>2024-06-06T07:02:14+00:00</time>
      </trkpt>
      <trkpt lat="45.42461" lon="6.19992">
        <ele>1694</ele>
        <time>2024-06-06T07:02:17+00:00</time>
      </trkpt>
      <trkpt lat="45.42464" lon="6.19993">
        <ele>1694</ele>
        <time>2024-06-06T07:02:20+00:00</time>
      </trkpt>
      <trkpt lat="45.42465" lon="6.19995">
        <ele>1694</ele>
        <time>2024-06-06T07:02:23+00:00</time>
      </trkpt>
      <trkpt lat="45.42466" lon="6.19998">
        <ele>1694</ele>
        <time>2024-06-06T07:02:26+00:00</time>
      </trkpt>
      <trkpt lat="45.42468" lon="6.2">
        <ele>1694</ele>
        <time>2024-06-06T07:02:29+00:00</time>
      </trkpt>
      <trkpt lat="45.4247" lon="6.2">
        <ele>1699</ele>
        <time>2024-06-06T07:02:32+00:00</time>
      </trkpt>
      <trkpt lat="45.42471" lon="6.20001">
        <ele>1702</ele>
        <time>2024-06-06T07:02:35+00:00</time>
      </trkpt>
      <trkpt lat="45.42472" lon="6.20004">
        <ele>1702</ele>
        <time>2024-06-06T07:02:38+00:00</time>
      </trkpt>
      <trkpt lat="45.42472" lon="6.20009">
        <ele>1702</ele>
        <time>2024-06-06T07:02:41+00:00</time>
      </trkpt>
      <trkpt lat="45.42473" lon="6.20013">
        <ele>1704</ele>
        <time>2024-06-06T07:02:44+00:00</time>
      </trkpt>
      <trkpt lat="45.42475" lon="6.20017">
        <ele>1704</ele>
        <time>2024-06-06T07:02:47+00:00</time>
      </trkpt>
      <trkpt lat="45.42475" lon="6.20019">
        <ele>1704</ele>
        <time>2024-06-06T07:02:50+00:00</time>
      </trkpt>
      <trkpt lat="45.42476" lon="6.20022">
        <ele>1708</ele>
        <time>2024-06-06T07:02:53+00:00</time>
      </trkpt>
      <trkpt lat="45.42476" lon="6.20025">
        <ele>1708</ele>
        <time>2024-06-06T07:02:56+00:00</time>
      </trkpt>
      <trkpt lat="45.42475" lon="6.2003">
        <ele>1708</ele>
        <time>2024-06-06T07:02:59+00:00</time>
      </trkpt>
      <trkpt lat="45.42473" lon="6.20035">
        <ele>1711</ele>
        <time>2024-06-06T07:03:02+00:00</time>
      </trkpt>
      <trkpt lat="45.42471" lon="6.2004">
        <ele>1713</ele>
        <time>2024-06-06T07:03:05+00:00</time>
      </trkpt>
      <trkpt lat="45.42468" lon="6.2005">
        <ele>1714</ele>
        <time>2024-06-06T07:03:08+00:00</time>
      </trkpt>
      <trkpt lat="45.42462" lon="6.20078">
        <ele>1718</ele>
        <time>2024-06-06T07:03:11+00:00</time>
      </trkpt>
      <trkpt lat="45.4246" lon="6.20101">
        <ele>1726</ele>
        <time>2024-06-06T07:03:14+00:00</time>
      </trkpt>
      <trkpt lat="45.4246" lon="6.20104">
        <ele>1726</ele>
        <time>2024-06-06T07:03:17+00:00</time>
      </trkpt>
      <trkpt lat="45.4246" lon="6.20109">
        <ele>1726</ele>
        <time>2024-06-06T07:03:20+00:00</time>
      </trkpt>
      <trkpt lat="45.4246" lon="6.20112">
        <ele>1730</ele>
        <time>2024-06-06T07:03:23+00:00</time>
      </trkpt>
      <trkpt lat="45.42459" lon="6.20119">
        <ele>1729</ele>
        <time>2024-06-06T07:03:26+00:00</time>
      </trkpt>
      <trkpt lat="45.42457" lon="6.20124">
        <ele>1732</ele>
        <time>2024-06-06T07:03:29+00:00</time>
      </trkpt>
      <trkpt lat="45.42455" lon="6.20127">
        <ele>1732</ele>
        <time>2024-06-06T07:03:32+00:00</time>
      </trkpt>
      <trkpt lat="45.42451" lon="6.20131">
        <ele>1735</ele>
        <time>2024-06-06T07:03:35+00:00</time>
      </trkpt>
      <trkpt lat="45.42448" lon="6.20132">
        <ele>1733</ele>
        <time>2024-06-06T07:03:38+00:00</time>
      </trkpt>
      <trkpt lat="45.42446" lon="6.20134">
        <ele>1733</ele>
        <time>2024-06-06T07:03:41+00:00</time>
      </trkpt>
      <trkpt lat="45.42445" lon="6.20136">
        <ele>1733</ele>
        <time>2024-06-06T07:03:44+00:00</time>
      </trkpt>
      <trkpt lat="45.42445" lon="6.20139">
        <ele>1733</ele>
        <time>2024-06-06T07:03:47+00:00</time>
      </trkpt>
      <trkpt lat="45.42445" lon="6.20142">
        <ele>1737</ele>
        <time>2024-06-06T07:03:50+00:00</time>
      </trkpt>
      <trkpt lat="45.42445" lon="6.20146">
        <ele>1737</ele>
        <time>2024-06-06T07:03:53+00:00</time>
      </trkpt>
      <trkpt lat="45.42449" lon="6.20158">
        <ele>1740</ele>
        <time>2024-06-06T07:03:56+00:00</time>
      </trkpt>
      <trkpt lat="45.42451" lon="6.20164">
        <ele>1744</ele>
        <time>2024-06-06T07:03:59+00:00</time>
      </trkpt>
      <trkpt lat="45.42451" lon="6.20169">
        <ele>1744</ele>
        <time>2024-06-06T07:04:02+00:00</time>
      </trkpt>
      <trkpt lat="45.4245" lon="6.20175">
        <ele>1746</ele>
        <time>2024-06-06T07:04:05+00:00</time>
      </trkpt>
      <trkpt lat="45.42448" lon="6.2018">
        <ele>1748</ele>
        <time>2024-06-06T07:04:08+00:00</time>
      </trkpt>
      <trkpt lat="45.42445" lon="6.20185">
        <ele>1748</ele>
        <time>2024-06-06T07:04:11+00:00</time>
      </trkpt>
      <trkpt lat="45.42443" lon="6.20189">
        <ele>1748</ele>
        <time>2024-06-06T07:04:14+00:00</time>
      </trkpt>
      <trkpt lat="45.42442" lon="6.20191">
        <ele>1751</ele>
        <time>2024-06-06T07:04:17+00:00</time>
      </trkpt>
      <trkpt lat="45.42441" lon="6.20195">
        <ele>1751</ele>
        <time>2024-06-06T07:04:20+00:00</time>
      </trkpt>
      <trkpt lat="45.4244" lon="6.20199">
        <ele>1750</ele>
        <time>2024-06-06T07:04:23+00:00</time>
      </trkpt>
      <trkpt lat="45.42438" lon="6.20201">
        <ele>1756</ele>
        <time>2024-06-06T07:04:26+00:00</time>
      </trkpt>
      <trkpt lat="45.42436" lon="6.20202">
        <ele>1756</ele>
        <time>2024-06-06T07:04:29+00:00</time>
      </trkpt>
      <trkpt lat="45.42432" lon="6.20204">
        <ele>1756</ele>
        <time>2024-06-06T07:04:32+00:00</time>
      </trkpt>
      <trkpt lat="45.42423" lon="6.20209">
        <ele>1758</ele>
        <time>2024-06-06T07:04:35+00:00</time>
      </trkpt>
      <trkpt lat="45.42422" lon="6.2021">
        <ele>1758</ele>
        <time>2024-06-06T07:04:38+00:00</time>
      </trkpt>
      <trkpt lat="45.42422" lon="6.20212">
        <ele>1761</ele>
        <time>2024-06-06T07:04:41+00:00</time>
      </trkpt>
      <trkpt lat="45.42422" lon="6.20215">
        <ele>1761</ele>
        <time>2024-06-06T07:04:44+00:00</time>
      </trkpt>
      <trkpt lat="45.42422" lon="6.20218">
        <ele>1761</ele>
        <time>2024-06-06T07:04:47+00:00</time>
      </trkpt>
      <trkpt lat="45.42422" lon="6.20221">
        <ele>1763</ele>
        <time>2024-06-06T07:04:50+00:00</time>
      </trkpt>
      <trkpt lat="45.42421" lon="6.20224">
        <ele>1763</ele>
        <time>2024-06-06T07:04:53+00:00</time>
      </trkpt>
      <trkpt lat="45.42421" lon="6.20228">
        <ele>1763</ele>
        <time>2024-06-06T07:04:56+00:00</time>
      </trkpt>
      <trkpt lat="45.42422" lon="6.20231">
        <ele>1765</ele>
        <time>2024-06-06T07:04:59+00:00</time>
      </trkpt>
      <trkpt lat="45.42425" lon="6.20244">
        <ele>1766</ele>
        <time>2024-06-06T07:05:02+00:00</time>
      </trkpt>
      <trkpt lat="45.42426" lon="6.20248">
        <ele>1766</ele>
        <time>2024-06-06T07:05:05+00:00</time>
      </trkpt>
      <trkpt lat="45.4243" lon="6.20261">
        <ele>1773</ele>
        <time>2024-06-06T07:05:08+00:00</time>
      </trkpt>
      <trkpt lat="45.42431" lon="6.20264">
        <ele>1773</ele>
        <time>2024-06-06T07:05:11+00:00</time>
      </trkpt>
      <trkpt lat="45.42432" lon="6.20265">
        <ele>1773</ele>
        <time>2024-06-06T07:05:14+00:00</time>
      </trkpt>
      <trkpt lat="45.42434" lon="6.20266">
        <ele>1773</ele>
        <time>2024-06-06T07:05:17+00:00</time>
      </trkpt>
      <trkpt lat="45.42437" lon="6.20269">
        <ele>1773</ele>
        <time>2024-06-06T07:05:20+00:00</time>
      </trkpt>
      <trkpt lat="45.42438" lon="6.20271">
        <ele>1774</ele>
        <time>2024-06-06T07:05:23+00:00</time>
      </trkpt>
      <trkpt lat="45.4244" lon="6.20274">
        <ele>1774</ele>
        <time>2024-06-06T07:05:26+00:00</time>
      </trkpt>
      <trkpt lat="45.42443" lon="6.20287">
        <ele>1784</ele>
        <time>2024-06-06T07:05:29+00:00</time>
      </trkpt>
      <trkpt lat="45.42445" lon="6.20294">
        <ele>1786</ele>
        <time>2024-06-06T07:05:32+00:00</time>
      </trkpt>
      <trkpt lat="45.42446" lon="6.20295">
        <ele>1786</ele>
        <time>2024-06-06T07:05:35+00:00</time>
      </trkpt>
      <trkpt lat="45.42454" lon="6.20301">
        <ele>1792</ele>
        <time>2024-06-06T07:05:38+00:00</time>
      </trkpt>
      <trkpt lat="45.42456" lon="6.20302">
        <ele>1792</ele>
        <time>2024-06-06T07:05:41+00:00</time>
      </trkpt>
      <trkpt lat="45.42458" lon="6.20304">
        <ele>1792</ele>
        <time>2024-06-06T07:05:44+00:00</time>
      </trkpt>
      <trkpt lat="45.42458" lon="6.20306">
        <ele>1792</ele>
        <time>2024-06-06T07:05:47+00:00</time>
      </trkpt>
      <trkpt lat="45.42458" lon="6.20311">
        <ele>1792</ele>
        <time>2024-06-06T07:05:50+00:00</time>
      </trkpt>
      <trkpt lat="45.42459" lon="6.20315">
        <ele>1792</ele>
        <time>2024-06-06T07:05:53+00:00</time>
      </trkpt>
      <trkpt lat="45.42464" lon="6.2032">
        <ele>1797</ele>
        <time>2024-06-06T07:05:56+00:00</time>
      </trkpt>
      <trkpt lat="45.42474" lon="6.20331">
        <ele>1803</ele>
        <time>2024-06-06T07:05:59+00:00</time>
      </trkpt>
      <trkpt lat="45.42475" lon="6.20331">
        <ele>1803</ele>
        <time>2024-06-06T07:06:02+00:00</time>
      </trkpt>
      <trkpt lat="45.42481" lon="6.20331">
        <ele>1807</ele>
        <time>2024-06-06T07:06:05+00:00</time>
      </trkpt>
      <trkpt lat="45.42483" lon="6.20332">
        <ele>1807</ele>
        <time>2024-06-06T07:06:08+00:00</time>
      </trkpt>
      <trkpt lat="45.42485" lon="6.20334">
        <ele>1807</ele>
        <time>2024-06-06T07:06:11+00:00</time>
      </trkpt>
      <trkpt lat="45.42487" lon="6.20336">
        <ele>1807</ele>
        <time>2024-06-06T07:06:14+00:00</time>
      </trkpt>
      <trkpt lat="45.4249" lon="6.20345">
        <ele>1811</ele>
        <time>2024-06-06T07:06:17+00:00</time>
      </trkpt>
      <trkpt lat="45.42491" lon="6.20348">
        <ele>1811</ele>
        <time>2024-06-06T07:06:20+00:00</time>
      </trkpt>
      <trkpt lat="45.42492" lon="6.2035">
        <ele>1811</ele>
        <time>2024-06-06T07:06:23+00:00</time>
      </trkpt>
      <trkpt lat="45.42493" lon="6.20351">
        <ele>1812</ele>
        <time>2024-06-06T07:06:26+00:00</time>
      </trkpt>
      <trkpt lat="45.42495" lon="6.20352">
        <ele>1812</ele>
        <time>2024-06-06T07:06:29+00:00</time>
      </trkpt>
      <trkpt lat="45.42495" lon="6.20355">
        <ele>1812</ele>
        <time>2024-06-06T07:06:32+00:00</time>
      </trkpt>
      <trkpt lat="45.42496" lon="6.20359">
        <ele>1812</ele>
        <time>2024-06-06T07:06:35+00:00</time>
      </trkpt>
      <trkpt lat="45.42495" lon="6.20374">
        <ele>1818</ele>
        <time>2024-06-06T07:06:38+00:00</time>
      </trkpt>
      <trkpt lat="45.42495" lon="6.20376">
        <ele>1818</ele>
        <time>2024-06-06T07:06:41+00:00</time>
      </trkpt>
      <trkpt lat="45.42495" lon="6.20379">
        <ele>1818</ele>
        <time>2024-06-06T07:06:44+00:00</time>
      </trkpt>
      <trkpt lat="45.42494" lon="6.20383">
        <ele>1823</ele>
        <time>2024-06-06T07:06:47+00:00</time>
      </trkpt>
      <trkpt lat="45.42499" lon="6.20386">
        <ele>1823</ele>
        <time>2024-06-06T07:06:50+00:00</time>
      </trkpt>
      <trkpt lat="45.425" lon="6.20386">
        <ele>1825</ele>
        <time>2024-06-06T07:06:53+00:00</time>
      </trkpt>
      <trkpt lat="45.425" lon="6.20388">
        <ele>1825</ele>
        <time>2024-06-06T07:06:56+00:00</time>
      </trkpt>
      <trkpt lat="45.425" lon="6.20391">
        <ele>1826</ele>
        <time>2024-06-06T07:06:59+00:00</time>
      </trkpt>
      <trkpt lat="45.42498" lon="6.20397">
        <ele>1826</ele>
        <time>2024-06-06T07:07:02+00:00</time>
      </trkpt>
      <trkpt lat="45.42498" lon="6.20399">
        <ele>1826</ele>
        <time>2024-06-06T07:07:05+00:00</time>
      </trkpt>
      <trkpt lat="45.42499" lon="6.204">
        <ele>1828</ele>
        <time>2024-06-06T07:07:08+00:00</time>
      </trkpt>
      <trkpt lat="45.425" lon="6.20401">
        <ele>1832</ele>
        <time>2024-06-06T07:07:11+00:00</time>
      </trkpt>
      <trkpt lat="45.42501" lon="6.20403">
        <ele>1832</ele>
        <time>2024-06-06T07:07:14+00:00</time>
      </trkpt>
      <trkpt lat="45.42503" lon="6.20412">
        <ele>1836</ele>
        <time>2024-06-06T07:07:17+00:00</time>
      </trkpt>
      <trkpt lat="45.42503" lon="6.20415">
        <ele>1836</ele>
        <time>2024-06-06T07:07:20+00:00</time>
      </trkpt>
      <trkpt lat="45.42502" lon="6.20419">
        <ele>1836</ele>
        <time>2024-06-06T07:07:23+00:00</time>
      </trkpt>
      <trkpt lat="45.42502" lon="6.20423">
        <ele>1839</ele>
        <time>2024-06-06T07:07:26+00:00</time>
      </trkpt>
      <trkpt lat="45.42502" lon="6.20428">
        <ele>1839</ele>
        <time>2024-06-06T07:07:29+00:00</time>
      </trkpt>
      <trkpt lat="45.42502" lon="6.20434">
        <ele>1840</ele>
        <time>2024-06-06T07:07:32+00:00</time>
      </trkpt>
      <trkpt lat="45.42506" lon="6.20446">
        <ele>1841</ele>
        <time>2024-06-06T07:07:35+00:00</time>
      </trkpt>
      <trkpt lat="45.42517" lon="6.20475">
        <ele>1844</ele>
        <time>2024-06-06T07:07:38+00:00</time>
      </trkpt>
      <trkpt lat="45.42518" lon="6.20478">
        <ele>1844</ele>
        <time>2024-06-06T07:07:41+00:00</time>
      </trkpt>
      <trkpt lat="45.42522" lon="6.20482">
        <ele>1848</ele>
        <time>2024-06-06T07:07:44+00:00</time>
      </trkpt>
      <trkpt lat="45.42526" lon="6.20484">
        <ele>1848</ele>
        <time>2024-06-06T07:07:47+00:00</time>
      </trkpt>
      <trkpt lat="45.42528" lon="6.20488">
        <ele>1848</ele>
        <time>2024-06-06T07:07:50+00:00</time>
      </trkpt>
      <trkpt lat="45.42532" lon="6.20494">
        <ele>1848</ele>
        <time>2024-06-06T07:07:53+00:00</time>
      </trkpt>
      <trkpt lat="45.42536" lon="6.20502">
        <ele>1852</ele>
        <time>2024-06-06T07:07:56+00:00</time>
      </trkpt>
      <trkpt lat="45.42543" lon="6.20515">
        <ele>1854</ele>
        <time>2024-06-06T07:07:59+00:00</time>
      </trkpt>
      <trkpt lat="45.42546" lon="6.20523">
        <ele>1853</ele>
        <time>2024-06-06T07:08:02+00:00</time>
      </trkpt>
      <trkpt lat="45.4255" lon="6.20533">
        <ele>1851</ele>
        <time>2024-06-06T07:08:05+00:00</time>
      </trkpt>
      <trkpt lat="45.42558" lon="6.20547">
        <ele>1854</ele>
        <time>2024-06-06T07:08:08+00:00</time>
      </trkpt>
      <trkpt lat="45.42561" lon="6.2055">
        <ele>1858</ele>
        <time>2024-06-06T07:08:11+00:00</time>
      </trkpt>
      <trkpt lat="45.42564" lon="6.20552">
        <ele>1858</ele>
        <time>2024-06-06T07:08:14+00:00</time>
      </trkpt>
      <trkpt lat="45.42574" lon="6.20565">
        <ele>1861</ele>
        <time>2024-06-06T07:08:17+00:00</time>
      </trkpt>
      <trkpt lat="45.4258" lon="6.20571">
        <ele>1864</ele>
        <time>2024-06-06T07:08:20+00:00</time>
      </trkpt>
      <trkpt lat="45.42584" lon="6.20576">
        <ele>1864</ele>
        <time>2024-06-06T07:08:23+00:00</time>
      </trkpt>
      <trkpt lat="45.42589" lon="6.20589">
        <ele>1864</ele>
        <time>2024-06-06T07:08:26+00:00</time>
      </trkpt>
      <trkpt lat="45.42593" lon="6.20599">
        <ele>1872</ele>
        <time>2024-06-06T07:08:29+00:00</time>
      </trkpt>
      <trkpt lat="45.42599" lon="6.20614">
        <ele>1877</ele>
        <time>2024-06-06T07:08:32+00:00</time>
      </trkpt>
      <trkpt lat="45.42607" lon="6.20624">
        <ele>1879</ele>
        <time>2024-06-06T07:08:35+00:00</time>
      </trkpt>
      <trkpt lat="45.42616" lon="6.20635">
        <ele>1883</ele>
        <time>2024-06-06T07:08:38+00:00</time>
      </trkpt>
      <trkpt lat="45.42618" lon="6.20638">
        <ele>1883</ele>
        <time>2024-06-06T07:08:41+00:00</time>
      </trkpt>
      <trkpt lat="45.4263" lon="6.20659">
        <ele>1886</ele>
        <time>2024-06-06T07:08:44+00:00</time>
      </trkpt>
      <trkpt lat="45.42649" lon="6.20692">
        <ele>1895</ele>
        <time>2024-06-06T07:08:47+00:00</time>
      </trkpt>
      <trkpt lat="45.42667" lon="6.20722">
        <ele>1902</ele>
        <time>2024-06-06T07:08:50+00:00</time>
      </trkpt>
      <trkpt lat="45.42681" lon="6.20748">
        <ele>1910</ele>
        <time>2024-06-06T07:08:53+00:00</time>
      </trkpt>
      <trkpt lat="45.42684" lon="6.20752">
        <ele>1908</ele>
        <time>2024-06-06T07:08:56+00:00</time>
      </trkpt>
      <trkpt lat="45.42687" lon="6.20758">
        <ele>1908</ele>
        <time>2024-06-06T07:08:59+00:00</time>
      </trkpt>
      <trkpt lat="45.42692" lon="6.20763">
        <ele>1911</ele>
        <time>2024-06-06T07:09:02+00:00</time>
      </trkpt>
      <trkpt lat="45.42695" lon="6.20768">
        <ele>1910</ele>
        <time>2024-06-06T07:09:05+00:00</time>
      </trkpt>
      <trkpt lat="45.42699" lon="6.20774">
        <ele>1910</ele>
        <time>2024-06-06T07:09:08+00:00</time>
      </trkpt>
      <trkpt lat="45.42703" lon="6.2078">
        <ele>1911</ele>
        <time>2024-06-06T07:09:11+00:00</time>
      </trkpt>
      <trkpt lat="45.42705" lon="6.20785">
        <ele>1909</ele>
        <time>2024-06-06T07:09:14+00:00</time>
      </trkpt>
      <trkpt lat="45.42713" lon="6.20794">
        <ele>1910</ele>
        <time>2024-06-06T07:09:17+00:00</time>
      </trkpt>
      <trkpt lat="45.42716" lon="6.20801">
        <ele>1908</ele>
        <time>2024-06-06T07:09:20+00:00</time>
      </trkpt>
      <trkpt lat="45.42718" lon="6.2081">
        <ele>1908</ele>
        <time>2024-06-06T07:09:23+00:00</time>
      </trkpt>
      <trkpt lat="45.42721" lon="6.20825">
        <ele>1911</ele>
        <time>2024-06-06T07:09:26+00:00</time>
      </trkpt>
      <trkpt lat="45.42724" lon="6.20844">
        <ele>1910</ele>
        <time>2024-06-06T07:09:29+00:00</time>
      </trkpt>
      <trkpt lat="45.42726" lon="6.20869">
        <ele>1913</ele>
        <time>2024-06-06T07:09:32+00:00</time>
      </trkpt>
      <trkpt lat="45.42726" lon="6.20876">
        <ele>1915</ele>
        <time>2024-06-06T07:09:35+00:00</time>
      </trkpt>
      <trkpt lat="45.42727" lon="6.20883">
        <ele>1917</ele>
        <time>2024-06-06T07:09:38+00:00</time>
      </trkpt>
      <trkpt lat="45.42727" lon="6.20886">
        <ele>1917</ele>
        <time>2024-06-06T07:09:41+00:00</time>
      </trkpt>
      <trkpt lat="45.42729" lon="6.20903">
        <ele>1924</ele>
        <time>2024-06-06T07:09:44+00:00</time>
      </trkpt>
      <trkpt lat="45.42743" lon="6.2094">
        <ele>1924</ele>
        <time>2024-06-06T07:09:47+00:00</time>
      </trkpt>
      <trkpt lat="45.42755" lon="6.20974">
        <ele>1931</ele>
        <time>2024-06-06T07:09:50+00:00</time>
      </trkpt>
      <trkpt lat="45.42755" lon="6.20975">
        <ele>1931</ele>
        <time>2024-06-06T07:09:53+00:00</time>
      </trkpt>
      <trkpt lat="45.42756" lon="6.20982">
        <ele>1931</ele>
        <time>2024-06-06T07:09:56+00:00</time>
      </trkpt>
      <trkpt lat="45.4276" lon="6.20989">
        <ele>1936</ele>
        <time>2024-06-06T07:09:59+00:00</time>
      </trkpt>
      <trkpt lat="45.42763" lon="6.20994">
        <ele>1936</ele>
        <time>2024-06-06T07:10:02+00:00</time>
      </trkpt>
      <trkpt lat="45.42763" lon="6.21">
        <ele>1936</ele>
        <time>2024-06-06T07:10:05+00:00</time>
      </trkpt>
      <trkpt lat="45.42764" lon="6.21004">
        <ele>1936</ele>
        <time>2024-06-06T07:10:08+00:00</time>
      </trkpt>
      <trkpt lat="45.42766" lon="6.21007">
        <ele>1936</ele>
        <time>2024-06-06T07:10:11+00:00</time>
      </trkpt>
      <trkpt lat="45.42767" lon="6.21009">
        <ele>1936</ele>
        <time>2024-06-06T07:10:14+00:00</time>
      </trkpt>
      <trkpt lat="45.42768" lon="6.21011">
        <ele>1938</ele>
        <time>2024-06-06T07:10:17+00:00</time>
      </trkpt>
      <trkpt lat="45.42769" lon="6.21013">
        <ele>1938</ele>
        <time>2024-06-06T07:10:20+00:00</time>
      </trkpt>
      <trkpt lat="45.42768" lon="6.21015">
        <ele>1938</ele>
        <time>2024-06-06T07:10:23+00:00</time>
      </trkpt>
      <trkpt lat="45.42769" lon="6.21018">
        <ele>1938</ele>
        <time>2024-06-06T07:10:26+00:00</time>
      </trkpt>
      <trkpt lat="45.4277" lon="6.21021">
        <ele>1941</ele>
        <time>2024-06-06T07:10:29+00:00</time>
      </trkpt>
      <trkpt lat="45.42771" lon="6.21021">
        <ele>1946</ele>
        <time>2024-06-06T07:10:32+00:00</time>
      </trkpt>
      <trkpt lat="45.42772" lon="6.21021">
        <ele>1946</ele>
        <time>2024-06-06T07:10:35+00:00</time>
      </trkpt>
      <trkpt lat="45.42773" lon="6.21024">
        <ele>1946</ele>
        <time>2024-06-06T07:10:38+00:00</time>
      </trkpt>
      <trkpt lat="45.42772" lon="6.21027">
        <ele>1946</ele>
        <time>2024-06-06T07:10:41+00:00</time>
      </trkpt>
      <trkpt lat="45.42771" lon="6.21031">
        <ele>1948</ele>
        <time>2024-06-06T07:10:44+00:00</time>
      </trkpt>
      <trkpt lat="45.4277" lon="6.21035">
        <ele>1948</ele>
        <time>2024-06-06T07:10:47+00:00</time>
      </trkpt>
      <trkpt lat="45.4277" lon="6.21038">
        <ele>1944</ele>
        <time>2024-06-06T07:10:50+00:00</time>
      </trkpt>
      <trkpt lat="45.42769" lon="6.21042">
        <ele>1947</ele>
        <time>2024-06-06T07:10:53+00:00</time>
      </trkpt>
      <trkpt lat="45.4277" lon="6.21048">
        <ele>1947</ele>
        <time>2024-06-06T07:10:56+00:00</time>
      </trkpt>
      <trkpt lat="45.4277" lon="6.21052">
        <ele>1954</ele>
        <time>2024-06-06T07:10:59+00:00</time>
      </trkpt>
      <trkpt lat="45.42771" lon="6.21055">
        <ele>1954</ele>
        <time>2024-06-06T07:11:02+00:00</time>
      </trkpt>
      <trkpt lat="45.42773" lon="6.21057">
        <ele>1954</ele>
        <time>2024-06-06T07:11:05+00:00</time>
      </trkpt>
      <trkpt lat="45.42775" lon="6.21059">
        <ele>1954</ele>
        <time>2024-06-06T07:11:08+00:00</time>
      </trkpt>
      <trkpt lat="45.42777" lon="6.2106">
        <ele>1954</ele>
        <time>2024-06-06T07:11:11+00:00</time>
      </trkpt>
      <trkpt lat="45.42779" lon="6.2106">
        <ele>1954</ele>
        <time>2024-06-06T07:11:14+00:00</time>
      </trkpt>
      <trkpt lat="45.42781" lon="6.21061">
        <ele>1960</ele>
        <time>2024-06-06T07:11:17+00:00</time>
      </trkpt>
      <trkpt lat="45.42782" lon="6.21064">
        <ele>1960</ele>
        <time>2024-06-06T07:11:20+00:00</time>
      </trkpt>
      <trkpt lat="45.42782" lon="6.21066">
        <ele>1960</ele>
        <time>2024-06-06T07:11:23+00:00</time>
      </trkpt>
      <trkpt lat="45.42782" lon="6.21069">
        <ele>1960</ele>
        <time>2024-06-06T07:11:26+00:00</time>
      </trkpt>
      <trkpt lat="45.42782" lon="6.21072">
        <ele>1963</ele>
        <time>2024-06-06T07:11:29+00:00</time>
      </trkpt>
      <trkpt lat="45.42782" lon="6.21074">
        <ele>1963</ele>
        <time>2024-06-06T07:11:32+00:00</time>
      </trkpt>
      <trkpt lat="45.42782" lon="6.21076">
        <ele>1963</ele>
        <time>2024-06-06T07:11:35+00:00</time>
      </trkpt>
      <trkpt lat="45.42784" lon="6.21079">
        <ele>1963</ele>
        <time>2024-06-06T07:11:38+00:00</time>
      </trkpt>
      <trkpt lat="45.42784" lon="6.21082">
        <ele>1966</ele>
        <time>2024-06-06T07:11:41+00:00</time>
      </trkpt>
      <trkpt lat="45.42785" lon="6.21086">
        <ele>1966</ele>
        <time>2024-06-06T07:11:44+00:00</time>
      </trkpt>
      <trkpt lat="45.42784" lon="6.21089">
        <ele>1966</ele>
        <time>2024-06-06T07:11:47+00:00</time>
      </trkpt>
      <trkpt lat="45.42785" lon="6.21093">
        <ele>1969</ele>
        <time>2024-06-06T07:11:50+00:00</time>
      </trkpt>
      <trkpt lat="45.42786" lon="6.21094">
        <ele>1969</ele>
        <time>2024-06-06T07:11:53+00:00</time>
      </trkpt>
      <trkpt lat="45.42788" lon="6.21094">
        <ele>1969</ele>
        <time>2024-06-06T07:11:56+00:00</time>
      </trkpt>
      <trkpt lat="45.42789" lon="6.21094">
        <ele>1969</ele>
        <time>2024-06-06T07:11:59+00:00</time>
      </trkpt>
      <trkpt lat="45.4279" lon="6.21096">
        <ele>1972</ele>
        <time>2024-06-06T07:12:02+00:00</time>
      </trkpt>
      <trkpt lat="45.4279" lon="6.21098">
        <ele>1969</ele>
        <time>2024-06-06T07:12:05+00:00</time>
      </trkpt>
      <trkpt lat="45.4279" lon="6.21101">
        <ele>1972</ele>
        <time>2024-06-06T07:12:08+00:00</time>
      </trkpt>
      <trkpt lat="45.4279" lon="6.21104">
        <ele>1972</ele>
        <time>2024-06-06T07:12:11+00:00</time>
      </trkpt>
      <trkpt lat="45.4279" lon="6.21107">
        <ele>1974</ele>
        <time>2024-06-06T07:12:14+00:00</time>
      </trkpt>
      <trkpt lat="45.42791" lon="6.21109">
        <ele>1974</ele>
        <time>2024-06-06T07:12:17+00:00</time>
      </trkpt>
      <trkpt lat="45.42792" lon="6.21111">
        <ele>1978</ele>
        <time>2024-06-06T07:12:20+00:00</time>
      </trkpt>
      <trkpt lat="45.42793" lon="6.21113">
        <ele>1978</ele>
        <time>2024-06-06T07:12:23+00:00</time>
      </trkpt>
      <trkpt lat="45.42792" lon="6.21114">
        <ele>1978</ele>
        <time>2024-06-06T07:12:26+00:00</time>
      </trkpt>
      <trkpt lat="45.42792" lon="6.21117">
        <ele>1978</ele>
        <time>2024-06-06T07:12:29+00:00</time>
      </trkpt>
      <trkpt lat="45.42793" lon="6.2112">
        <ele>1978</ele>
        <time>2024-06-06T07:12:32+00:00</time>
      </trkpt>
      <trkpt lat="45.42796" lon="6.2113">
        <ele>1980</ele>
        <time>2024-06-06T07:12:35+00:00</time>
      </trkpt>
      <trkpt lat="45.428" lon="6.21138">
        <ele>1982</ele>
        <time>2024-06-06T07:12:38+00:00</time>
      </trkpt>
      <trkpt lat="45.428" lon="6.21141">
        <ele>1988</ele>
        <time>2024-06-06T07:12:41+00:00</time>
      </trkpt>
      <trkpt lat="45.42801" lon="6.21143">
        <ele>1985</ele>
        <time>2024-06-06T07:12:44+00:00</time>
      </trkpt>
      <trkpt lat="45.42803" lon="6.21145">
        <ele>1985</ele>
        <time>2024-06-06T07:12:47+00:00</time>
      </trkpt>
      <trkpt lat="45.42805" lon="6.21146">
        <ele>1985</ele>
        <time>2024-06-06T07:12:50+00:00</time>
      </trkpt>
      <trkpt lat="45.42813" lon="6.21148">
        <ele>1986</ele>
        <time>2024-06-06T07:12:53+00:00</time>
      </trkpt>
      <trkpt lat="45.42817" lon="6.21147">
        <ele>1982</ele>
        <time>2024-06-06T07:12:56+00:00</time>
      </trkpt>
      <trkpt lat="45.4282" lon="6.21148">
        <ele>1986</ele>
        <time>2024-06-06T07:12:59+00:00</time>
      </trkpt>
      <trkpt lat="45.42822" lon="6.21149">
        <ele>1986</ele>
        <time>2024-06-06T07:13:02+00:00</time>
      </trkpt>
      <trkpt lat="45.42824" lon="6.2115">
        <ele>1986</ele>
        <time>2024-06-06T07:13:05+00:00</time>
      </trkpt>
      <trkpt lat="45.42828" lon="6.2115">
        <ele>1986</ele>
        <time>2024-06-06T07:13:08+00:00</time>
      </trkpt>
      <trkpt lat="45.42831" lon="6.2115">
        <ele>1986</ele>
        <time>2024-06-06T07:13:11+00:00</time>
      </trkpt>
      <trkpt lat="45.42841" lon="6.21155">
        <ele>1983</ele>
        <time>2024-06-06T07:13:14+00:00</time>
      </trkpt>
      <trkpt lat="45.42848" lon="6.2116">
        <ele>1983</ele>
        <time>2024-06-06T07:13:17+00:00</time>
      </trkpt>
      <trkpt lat="45.42851" lon="6.21162">
        <ele>1981</ele>
        <time>2024-06-06T07:13:20+00:00</time>
      </trkpt>
      <trkpt lat="45.42855" lon="6.21163">
        <ele>1981</ele>
        <time>2024-06-06T07:13:23+00:00</time>
      </trkpt>
      <trkpt lat="45.42861" lon="6.21168">
        <ele>1983</ele>
        <time>2024-06-06T07:13:26+00:00</time>
      </trkpt>
      <trkpt lat="45.42865" lon="6.2117">
        <ele>1977</ele>
        <time>2024-06-06T07:13:29+00:00</time>
      </trkpt>
      <trkpt lat="45.4287" lon="6.21172">
        <ele>1979</ele>
        <time>2024-06-06T07:13:32+00:00</time>
      </trkpt>
      <trkpt lat="45.42874" lon="6.21174">
        <ele>1979</ele>
        <time>2024-06-06T07:13:35+00:00</time>
      </trkpt>
      <trkpt lat="45.42878" lon="6.21178">
        <ele>1979</ele>
        <time>2024-06-06T07:13:38+00:00</time>
      </trkpt>
      <trkpt lat="45.4288" lon="6.21181">
        <ele>1977</ele>
        <time>2024-06-06T07:13:41+00:00</time>
      </trkpt>
      <trkpt lat="45.42881" lon="6.21183">
        <ele>1977</ele>
        <time>2024-06-06T07:13:44+00:00</time>
      </trkpt>
      <trkpt lat="45.42883" lon="6.21186">
        <ele>1977</ele>
        <time>2024-06-06T07:13:47+00:00</time>
      </trkpt>
      <trkpt lat="45.42895" lon="6.21198">
        <ele>1977</ele>
        <time>2024-06-06T07:13:50+00:00</time>
      </trkpt>
      <trkpt lat="45.42897" lon="6.21204">
        <ele>1975</ele>
        <time>2024-06-06T07:13:53+00:00</time>
      </trkpt>
      <trkpt lat="45.429" lon="6.21208">
        <ele>1973</ele>
        <time>2024-06-06T07:13:56+00:00</time>
      </trkpt>
      <trkpt lat="45.42902" lon="6.21209">
        <ele>1976</ele>
        <time>2024-06-06T07:13:59+00:00</time>
      </trkpt>
      <trkpt lat="45.42905" lon="6.2121">
        <ele>1973</ele>
        <time>2024-06-06T07:14:02+00:00</time>
      </trkpt>
      <trkpt lat="45.42908" lon="6.21211">
        <ele>1973</ele>
        <time>2024-06-06T07:14:05+00:00</time>
      </trkpt>
      <trkpt lat="45.4291" lon="6.21212">
        <ele>1974</ele>
        <time>2024-06-06T07:14:08+00:00</time>
      </trkpt>
      <trkpt lat="45.42919" lon="6.21218">
        <ele>1974</ele>
        <time>2024-06-06T07:14:11+00:00</time>
      </trkpt>
      <trkpt lat="45.4293" lon="6.21223">
        <ele>1973</ele>
        <time>2024-06-06T07:14:14+00:00</time>
      </trkpt>
      <trkpt lat="45.42938" lon="6.21228">
        <ele>1973</ele>
        <time>2024-06-06T07:14:17+00:00</time>
      </trkpt>
      <trkpt lat="45.42947" lon="6.21234">
        <ele>1968</ele>
        <time>2024-06-06T07:14:20+00:00</time>
      </trkpt>
      <trkpt lat="45.42955" lon="6.21238">
        <ele>1969</ele>
        <time>2024-06-06T07:14:23+00:00</time>
      </trkpt>
      <trkpt lat="45.42957" lon="6.2124">
        <ele>1965</ele>
        <time>2024-06-06T07:14:26+00:00</time>
      </trkpt>
      <trkpt lat="45.42959" lon="6.21238">
        <ele>1969</ele>
        <time>2024-06-06T07:14:29+00:00</time>
      </trkpt>
      <trkpt lat="45.42962" lon="6.21238">
        <ele>1969</ele>
        <time>2024-06-06T07:14:32+00:00</time>
      </trkpt>
      <trkpt lat="45.42966" lon="6.21238">
        <ele>1969</ele>
        <time>2024-06-06T07:14:35+00:00</time>
      </trkpt>
      <trkpt lat="45.42969" lon="6.21239">
        <ele>1969</ele>
        <time>2024-06-06T07:14:38+00:00</time>
      </trkpt>
      <trkpt lat="45.42973" lon="6.21241">
        <ele>1965</ele>
        <time>2024-06-06T07:14:41+00:00</time>
      </trkpt>
      <trkpt lat="45.42977" lon="6.21247">
        <ele>1965</ele>
        <time>2024-06-06T07:14:44+00:00</time>
      </trkpt>
      <trkpt lat="45.42982" lon="6.21251">
        <ele>1965</ele>
        <time>2024-06-06T07:14:47+00:00</time>
      </trkpt>
      <trkpt lat="45.42984" lon="6.21252">
        <ele>1965</ele>
        <time>2024-06-06T07:14:50+00:00</time>
      </trkpt>
      <trkpt lat="45.42993" lon="6.21256">
        <ele>1966</ele>
        <time>2024-06-06T07:14:53+00:00</time>
      </trkpt>
      <trkpt lat="45.42996" lon="6.21257">
        <ele>1963</ele>
        <time>2024-06-06T07:14:56+00:00</time>
      </trkpt>
      <trkpt lat="45.42997" lon="6.21259">
        <ele>1966</ele>
        <time>2024-06-06T07:14:59+00:00</time>
      </trkpt>
      <trkpt lat="45.42998" lon="6.21261">
        <ele>1961</ele>
        <time>2024-06-06T07:15:02+00:00</time>
      </trkpt>
      <trkpt lat="45.43001" lon="6.21264">
        <ele>1963</ele>
        <time>2024-06-06T07:15:05+00:00</time>
      </trkpt>
      <trkpt lat="45.4301" lon="6.2127">
        <ele>1963</ele>
        <time>2024-06-06T07:15:08+00:00</time>
      </trkpt>
      <trkpt lat="45.43013" lon="6.21272">
        <ele>1962</ele>
        <time>2024-06-06T07:15:11+00:00</time>
      </trkpt>
      <trkpt lat="45.43015" lon="6.21274">
        <ele>1961</ele>
        <time>2024-06-06T07:15:14+00:00</time>
      </trkpt>
      <trkpt lat="45.43017" lon="6.21277">
        <ele>1961</ele>
        <time>2024-06-06T07:15:17+00:00</time>
      </trkpt>
      <trkpt lat="45.4302" lon="6.21279">
        <ele>1961</ele>
        <time>2024-06-06T07:15:20+00:00</time>
      </trkpt>
      <trkpt lat="45.43021" lon="6.21281">
        <ele>1961</ele>
        <time>2024-06-06T07:15:23+00:00</time>
      </trkpt>
      <trkpt lat="45.43028" lon="6.21285">
        <ele>1961</ele>
        <time>2024-06-06T07:15:26+00:00</time>
      </trkpt>
      <trkpt lat="45.43031" lon="6.21287">
        <ele>1962</ele>
        <time>2024-06-06T07:15:29+00:00</time>
      </trkpt>
      <trkpt lat="45.43033" lon="6.21288">
        <ele>1962</ele>
        <time>2024-06-06T07:15:32+00:00</time>
      </trkpt>
      <trkpt lat="45.43036" lon="6.21291">
        <ele>1960</ele>
        <time>2024-06-06T07:15:35+00:00</time>
      </trkpt>
      <trkpt lat="45.4304" lon="6.21294">
        <ele>1960</ele>
        <time>2024-06-06T07:15:38+00:00</time>
      </trkpt>
      <trkpt lat="45.43048" lon="6.21298">
        <ele>1960</ele>
        <time>2024-06-06T07:15:41+00:00</time>
      </trkpt>
      <trkpt lat="45.43051" lon="6.21301">
        <ele>1960</ele>
        <time>2024-06-06T07:15:44+00:00</time>
      </trkpt>
      <trkpt lat="45.43056" lon="6.21305">
        <ele>1957</ele>
        <time>2024-06-06T07:15:47+00:00</time>
      </trkpt>
      <trkpt lat="45.4306" lon="6.21308">
        <ele>1957</ele>
        <time>2024-06-06T07:15:50+00:00</time>
      </trkpt>
      <trkpt lat="45.43061" lon="6.21308">
        <ele>1958</ele>
        <time>2024-06-06T07:15:53+00:00</time>
      </trkpt>
      <trkpt lat="45.43063" lon="6.21309">
        <ele>1958</ele>
        <time>2024-06-06T07:15:56+00:00</time>
      </trkpt>
      <trkpt lat="45.43064" lon="6.21309">
        <ele>1958</ele>
        <time>2024-06-06T07:15:59+00:00</time>
      </trkpt>
      <trkpt lat="45.43066" lon="6.21309">
        <ele>1958</ele>
        <time>2024-06-06T07:16:02+00:00</time>
      </trkpt>
      <trkpt lat="45.43068" lon="6.21309">
        <ele>1958</ele>
        <time>2024-06-06T07:16:05+00:00</time>
      </trkpt>
      <trkpt lat="45.4307" lon="6.2131">
        <ele>1958</ele>
        <time>2024-06-06T07:16:08+00:00</time>
      </trkpt>
      <trkpt lat="45.43072" lon="6.21311">
        <ele>1955</ele>
        <time>2024-06-06T07:16:11+00:00</time>
      </trkpt>
      <trkpt lat="45.43075" lon="6.21311">
        <ele>1955</ele>
        <time>2024-06-06T07:16:14+00:00</time>
      </trkpt>
      <trkpt lat="45.4308" lon="6.21309">
        <ele>1955</ele>
        <time>2024-06-06T07:16:17+00:00</time>
      </trkpt>
      <trkpt lat="45.43096" lon="6.21307">
        <ele>1953</ele>
        <time>2024-06-06T07:16:20+00:00</time>
      </trkpt>
      <trkpt lat="45.4311" lon="6.21304">
        <ele>1952</ele>
        <time>2024-06-06T07:16:23+00:00</time>
      </trkpt>
      <trkpt lat="45.43117" lon="6.21304">
        <ele>1951</ele>
        <time>2024-06-06T07:16:26+00:00</time>
      </trkpt>
      <trkpt lat="45.4312" lon="6.21303">
        <ele>1950</ele>
        <time>2024-06-06T07:16:29+00:00</time>
      </trkpt>
      <trkpt lat="45.43123" lon="6.21302">
        <ele>1950</ele>
        <time>2024-06-06T07:16:32+00:00</time>
      </trkpt>
      <trkpt lat="45.43127" lon="6.213">
        <ele>1950</ele>
        <time>2024-06-06T07:16:35+00:00</time>
      </trkpt>
      <trkpt lat="45.43137" lon="6.21292">
        <ele>1951</ele>
        <time>2024-06-06T07:16:38+00:00</time>
      </trkpt>
      <trkpt lat="45.43139" lon="6.21291">
        <ele>1949</ele>
        <time>2024-06-06T07:16:41+00:00</time>
      </trkpt>
      <trkpt lat="45.43145" lon="6.21289">
        <ele>1952</ele>
        <time>2024-06-06T07:16:44+00:00</time>
      </trkpt>
      <trkpt lat="45.43152" lon="6.21288">
        <ele>1951</ele>
        <time>2024-06-06T07:16:47+00:00</time>
      </trkpt>
      <trkpt lat="45.43158" lon="6.21288">
        <ele>1951</ele>
        <time>2024-06-06T07:16:50+00:00</time>
      </trkpt>
      <trkpt lat="45.43165" lon="6.2129">
        <ele>1944</ele>
        <time>2024-06-06T07:16:53+00:00</time>
      </trkpt>
      <trkpt lat="45.43166" lon="6.21292">
        <ele>1944</ele>
        <time>2024-06-06T07:16:56+00:00</time>
      </trkpt>
      <trkpt lat="45.43167" lon="6.21293">
        <ele>1944</ele>
        <time>2024-06-06T07:16:59+00:00</time>
      </trkpt>
      <trkpt lat="45.4317" lon="6.21297">
        <ele>1944</ele>
        <time>2024-06-06T07:17:02+00:00</time>
      </trkpt>
      <trkpt lat="45.4317" lon="6.213">
        <ele>1945</ele>
        <time>2024-06-06T07:17:05+00:00</time>
      </trkpt>
      <trkpt lat="45.43171" lon="6.21302">
        <ele>1943</ele>
        <time>2024-06-06T07:17:08+00:00</time>
      </trkpt>
      <trkpt lat="45.43171" lon="6.21302">
        <ele>1943</ele>
        <time>2024-06-06T07:17:11+00:00</time>
      </trkpt>
      <trkpt lat="45.43171" lon="6.21302">
        <ele>1943</ele>
        <time>2024-06-06T07:17:14+00:00</time>
      </trkpt>
      <trkpt lat="45.43172" lon="6.21303">
        <ele>1943</ele>
        <time>2024-06-06T07:17:17+00:00</time>
      </trkpt>
      <trkpt lat="45.43174" lon="6.21303">
        <ele>1943</ele>
        <time>2024-06-06T07:17:20+00:00</time>
      </trkpt>
      <trkpt lat="45.43176" lon="6.21304">
        <ele>1943</ele>
        <time>2024-06-06T07:17:23+00:00</time>
      </trkpt>
      <trkpt lat="45.43181" lon="6.21309">
        <ele>1943</ele>
        <time>2024-06-06T07:17:26+00:00</time>
      </trkpt>
      <trkpt lat="45.43184" lon="6.2131">
        <ele>1943</ele>
        <time>2024-06-06T07:17:29+00:00</time>
      </trkpt>
      <trkpt lat="45.43187" lon="6.21311">
        <ele>1941</ele>
        <time>2024-06-06T07:17:32+00:00</time>
      </trkpt>
      <trkpt lat="45.43192" lon="6.21311">
        <ele>1941</ele>
        <time>2024-06-06T07:17:35+00:00</time>
      </trkpt>
      <trkpt lat="45.43196" lon="6.21309">
        <ele>1943</ele>
        <time>2024-06-06T07:17:38+00:00</time>
      </trkpt>
      <trkpt lat="45.43203" lon="6.21304">
        <ele>1940</ele>
        <time>2024-06-06T07:17:41+00:00</time>
      </trkpt>
      <trkpt lat="45.43204" lon="6.21302">
        <ele>1940</ele>
        <time>2024-06-06T07:17:44+00:00</time>
      </trkpt>
      <trkpt lat="45.43207" lon="6.21301">
        <ele>1940</ele>
        <time>2024-06-06T07:17:47+00:00</time>
      </trkpt>
      <trkpt lat="45.43212" lon="6.21301">
        <ele>1938</ele>
        <time>2024-06-06T07:17:50+00:00</time>
      </trkpt>
      <trkpt lat="45.43218" lon="6.21301">
        <ele>1938</ele>
        <time>2024-06-06T07:17:53+00:00</time>
      </trkpt>
      <trkpt lat="45.43224" lon="6.21302">
        <ele>1937</ele>
        <time>2024-06-06T07:17:56+00:00</time>
      </trkpt>
      <trkpt lat="45.43231" lon="6.21302">
        <ele>1936</ele>
        <time>2024-06-06T07:17:59+00:00</time>
      </trkpt>
      <trkpt lat="45.43235" lon="6.21301">
        <ele>1936</ele>
        <time>2024-06-06T07:18:02+00:00</time>
      </trkpt>
      <trkpt lat="45.43237" lon="6.21302">
        <ele>1936</ele>
        <time>2024-06-06T07:18:05+00:00</time>
      </trkpt>
      <trkpt lat="45.4324" lon="6.21301">
        <ele>1935</ele>
        <time>2024-06-06T07:18:08+00:00</time>
      </trkpt>
      <trkpt lat="45.43243" lon="6.21302">
        <ele>1935</ele>
        <time>2024-06-06T07:18:11+00:00</time>
      </trkpt>
      <trkpt lat="45.43247" lon="6.21301">
        <ele>1935</ele>
        <time>2024-06-06T07:18:14+00:00</time>
      </trkpt>
      <trkpt lat="45.43252" lon="6.21301">
        <ele>1934</ele>
        <time>2024-06-06T07:18:17+00:00</time>
      </trkpt>
      <trkpt lat="45.43254" lon="6.21302">
        <ele>1934</ele>
        <time>2024-06-06T07:18:20+00:00</time>
      </trkpt>
      <trkpt lat="45.43259" lon="6.2131">
        <ele>1933</ele>
        <time>2024-06-06T07:18:23+00:00</time>
      </trkpt>
      <trkpt lat="45.43259" lon="6.21312">
        <ele>1933</ele>
        <time>2024-06-06T07:18:26+00:00</time>
      </trkpt>
      <trkpt lat="45.4326" lon="6.21316">
        <ele>1933</ele>
        <time>2024-06-06T07:18:29+00:00</time>
      </trkpt>
      <trkpt lat="45.43261" lon="6.21321">
        <ele>1932</ele>
        <time>2024-06-06T07:18:32+00:00</time>
      </trkpt>
      <trkpt lat="45.43262" lon="6.21324">
        <ele>1932</ele>
        <time>2024-06-06T07:18:35+00:00</time>
      </trkpt>
      <trkpt lat="45.43263" lon="6.21326">
        <ele>1932</ele>
        <time>2024-06-06T07:18:38+00:00</time>
      </trkpt>
      <trkpt lat="45.43264" lon="6.2133">
        <ele>1932</ele>
        <time>2024-06-06T07:18:41+00:00</time>
      </trkpt>
      <trkpt lat="45.43265" lon="6.21333">
        <ele>1931</ele>
        <time>2024-06-06T07:18:44+00:00</time>
      </trkpt>
      <trkpt lat="45.43268" lon="6.21342">
        <ele>1930</ele>
        <time>2024-06-06T07:18:47+00:00</time>
      </trkpt>
      <trkpt lat="45.43271" lon="6.21348">
        <ele>1931</ele>
        <time>2024-06-06T07:18:50+00:00</time>
      </trkpt>
      <trkpt lat="45.43271" lon="6.21351">
        <ele>1928</ele>
        <time>2024-06-06T07:18:53+00:00</time>
      </trkpt>
      <trkpt lat="45.43271" lon="6.21355">
        <ele>1928</ele>
        <time>2024-06-06T07:18:56+00:00</time>
      </trkpt>
      <trkpt lat="45.43271" lon="6.21358">
        <ele>1928</ele>
        <time>2024-06-06T07:18:59+00:00</time>
      </trkpt>
      <trkpt lat="45.43277" lon="6.21367">
        <ele>1927</ele>
        <time>2024-06-06T07:19:02+00:00</time>
      </trkpt>
      <trkpt lat="45.43281" lon="6.2137">
        <ele>1929</ele>
        <time>2024-06-06T07:19:05+00:00</time>
      </trkpt>
      <trkpt lat="45.43287" lon="6.21372">
        <ele>1926</ele>
        <time>2024-06-06T07:19:08+00:00</time>
      </trkpt>
      <trkpt lat="45.4329" lon="6.21377">
        <ele>1925</ele>
        <time>2024-06-06T07:19:11+00:00</time>
      </trkpt>
      <trkpt lat="45.43297" lon="6.21377">
        <ele>1925</ele>
        <time>2024-06-06T07:19:14+00:00</time>
      </trkpt>
      <trkpt lat="45.43301" lon="6.21377">
        <ele>1922</ele>
        <time>2024-06-06T07:19:17+00:00</time>
      </trkpt>
      <trkpt lat="45.43307" lon="6.21377">
        <ele>1922</ele>
        <time>2024-06-06T07:19:20+00:00</time>
      </trkpt>
      <trkpt lat="45.43312" lon="6.21376">
        <ele>1920</ele>
        <time>2024-06-06T07:19:23+00:00</time>
      </trkpt>
      <trkpt lat="45.4332" lon="6.21372">
        <ele>1916</ele>
        <time>2024-06-06T07:19:26+00:00</time>
      </trkpt>
      <trkpt lat="45.43324" lon="6.21371">
        <ele>1916</ele>
        <time>2024-06-06T07:19:29+00:00</time>
      </trkpt>
      <trkpt lat="45.43331" lon="6.21371">
        <ele>1914</ele>
        <time>2024-06-06T07:19:32+00:00</time>
      </trkpt>
      <trkpt lat="45.4334" lon="6.21375">
        <ele>1913</ele>
        <time>2024-06-06T07:19:35+00:00</time>
      </trkpt>
      <trkpt lat="45.43346" lon="6.21377">
        <ele>1913</ele>
        <time>2024-06-06T07:19:38+00:00</time>
      </trkpt>
      <trkpt lat="45.43348" lon="6.21379">
        <ele>1913</ele>
        <time>2024-06-06T07:19:41+00:00</time>
      </trkpt>
      <trkpt lat="45.4335" lon="6.21383">
        <ele>1910</ele>
        <time>2024-06-06T07:19:44+00:00</time>
      </trkpt>
      <trkpt lat="45.43352" lon="6.21386">
        <ele>1910</ele>
        <time>2024-06-06T07:19:47+00:00</time>
      </trkpt>
      <trkpt lat="45.43354" lon="6.2139">
        <ele>1910</ele>
        <time>2024-06-06T07:19:50+00:00</time>
      </trkpt>
      <trkpt lat="45.43358" lon="6.21395">
        <ele>1908</ele>
        <time>2024-06-06T07:19:53+00:00</time>
      </trkpt>
      <trkpt lat="45.4336" lon="6.21397">
        <ele>1908</ele>
        <time>2024-06-06T07:19:56+00:00</time>
      </trkpt>
      <trkpt lat="45.43367" lon="6.21396">
        <ele>1908</ele>
        <time>2024-06-06T07:19:59+00:00</time>
      </trkpt>
      <trkpt lat="45.43369" lon="6.21396">
        <ele>1908</ele>
        <time>2024-06-06T07:20:02+00:00</time>
      </trkpt>
      <trkpt lat="45.43372" lon="6.21396">
        <ele>1907</ele>
        <time>2024-06-06T07:20:05+00:00</time>
      </trkpt>
      <trkpt lat="45.43385" lon="6.21401">
        <ele>1903</ele>
        <time>2024-06-06T07:20:08+00:00</time>
      </trkpt>
      <trkpt lat="45.43388" lon="6.21402">
        <ele>1903</ele>
        <time>2024-06-06T07:20:11+00:00</time>
      </trkpt>
      <trkpt lat="45.43394" lon="6.21408">
        <ele>1903</ele>
        <time>2024-06-06T07:20:14+00:00</time>
      </trkpt>
      <trkpt lat="45.43403" lon="6.21416">
        <ele>1899</ele>
        <time>2024-06-06T07:20:17+00:00</time>
      </trkpt>
      <trkpt lat="45.43409" lon="6.21421">
        <ele>1896</ele>
        <time>2024-06-06T07:20:20+00:00</time>
      </trkpt>
      <trkpt lat="45.43411" lon="6.21423">
        <ele>1896</ele>
        <time>2024-06-06T07:20:23+00:00</time>
      </trkpt>
      <trkpt lat="45.43414" lon="6.21427">
        <ele>1896</ele>
        <time>2024-06-06T07:20:26+00:00</time>
      </trkpt>
      <trkpt lat="45.43418" lon="6.2143">
        <ele>1893</ele>
        <time>2024-06-06T07:20:29+00:00</time>
      </trkpt>
      <trkpt lat="45.43421" lon="6.21431">
        <ele>1894</ele>
        <time>2024-06-06T07:20:32+00:00</time>
      </trkpt>
      <trkpt lat="45.43423" lon="6.21433">
        <ele>1894</ele>
        <time>2024-06-06T07:20:35+00:00</time>
      </trkpt>
      <trkpt lat="45.43426" lon="6.2144">
        <ele>1890</ele>
        <time>2024-06-06T07:20:38+00:00</time>
      </trkpt>
      <trkpt lat="45.43427" lon="6.21443">
        <ele>1890</ele>
        <time>2024-06-06T07:20:41+00:00</time>
      </trkpt>
      <trkpt lat="45.4343" lon="6.21443">
        <ele>1890</ele>
        <time>2024-06-06T07:20:44+00:00</time>
      </trkpt>
      <trkpt lat="45.43431" lon="6.21444">
        <ele>1891</ele>
        <time>2024-06-06T07:20:47+00:00</time>
      </trkpt>
      <trkpt lat="45.43432" lon="6.21445">
        <ele>1891</ele>
        <time>2024-06-06T07:20:50+00:00</time>
      </trkpt>
      <trkpt lat="45.43433" lon="6.21449">
        <ele>1891</ele>
        <time>2024-06-06T07:20:53+00:00</time>
      </trkpt>
      <trkpt lat="45.43434" lon="6.21457">
        <ele>1888</ele>
        <time>2024-06-06T07:20:56+00:00</time>
      </trkpt>
      <trkpt lat="45.43434" lon="6.21465">
        <ele>1887</ele>
        <time>2024-06-06T07:20:59+00:00</time>
      </trkpt>
      <trkpt lat="45.43434" lon="6.21467">
        <ele>1887</ele>
        <time>2024-06-06T07:21:02+00:00</time>
      </trkpt>
      <trkpt lat="45.43435" lon="6.21468">
        <ele>1887</ele>
        <time>2024-06-06T07:21:05+00:00</time>
      </trkpt>
      <trkpt lat="45.43437" lon="6.21469">
        <ele>1887</ele>
        <time>2024-06-06T07:21:08+00:00</time>
      </trkpt>
      <trkpt lat="45.43441" lon="6.21478">
        <ele>1887</ele>
        <time>2024-06-06T07:21:11+00:00</time>
      </trkpt>
      <trkpt lat="45.43443" lon="6.21479">
        <ele>1887</ele>
        <time>2024-06-06T07:21:14+00:00</time>
      </trkpt>
      <trkpt lat="45.43443" lon="6.21481">
        <ele>1884</ele>
        <time>2024-06-06T07:21:17+00:00</time>
      </trkpt>
      <trkpt lat="45.43445" lon="6.21485">
        <ele>1884</ele>
        <time>2024-06-06T07:21:20+00:00</time>
      </trkpt>
      <trkpt lat="45.43451" lon="6.21492">
        <ele>1887</ele>
        <time>2024-06-06T07:21:23+00:00</time>
      </trkpt>
      <trkpt lat="45.43455" lon="6.21497">
        <ele>1884</ele>
        <time>2024-06-06T07:21:26+00:00</time>
      </trkpt>
      <trkpt lat="45.43462" lon="6.21501">
        <ele>1884</ele>
        <time>2024-06-06T07:21:29+00:00</time>
      </trkpt>
      <trkpt lat="45.43468" lon="6.21503">
        <ele>1884</ele>
        <time>2024-06-06T07:21:32+00:00</time>
      </trkpt>
      <trkpt lat="45.43473" lon="6.215">
        <ele>1887</ele>
        <time>2024-06-06T07:21:35+00:00</time>
      </trkpt>
      <trkpt lat="45.4348" lon="6.215">
        <ele>1888</ele>
        <time>2024-06-06T07:21:38+00:00</time>
      </trkpt>
      <trkpt lat="45.43488" lon="6.21501">
        <ele>1886</ele>
        <time>2024-06-06T07:21:41+00:00</time>
      </trkpt>
      <trkpt lat="45.43492" lon="6.21501">
        <ele>1887</ele>
        <time>2024-06-06T07:21:44+00:00</time>
      </trkpt>
      <trkpt lat="45.43496" lon="6.215">
        <ele>1889</ele>
        <time>2024-06-06T07:21:47+00:00</time>
      </trkpt>
      <trkpt lat="45.435" lon="6.215">
        <ele>1888</ele>
        <time>2024-06-06T07:21:50+00:00</time>
      </trkpt>
      <trkpt lat="45.43506" lon="6.21503">
        <ele>1888</ele>
        <time>2024-06-06T07:21:53+00:00</time>
      </trkpt>
      <trkpt lat="45.4351" lon="6.21505">
        <ele>1888</ele>
        <time>2024-06-06T07:21:56+00:00</time>
      </trkpt>
      <trkpt lat="45.43515" lon="6.21509">
        <ele>1889</ele>
        <time>2024-06-06T07:21:59+00:00</time>
      </trkpt>
      <trkpt lat="45.43519" lon="6.21513">
        <ele>1885</ele>
        <time>2024-06-06T07:22:02+00:00</time>
      </trkpt>
      <trkpt lat="45.43524" lon="6.21515">
        <ele>1886</ele>
        <time>2024-06-06T07:22:05+00:00</time>
      </trkpt>
      <trkpt lat="45.43529" lon="6.21517">
        <ele>1886</ele>
        <time>2024-06-06T07:22:08+00:00</time>
      </trkpt>
      <trkpt lat="45.43535" lon="6.2152">
        <ele>1889</ele>
        <time>2024-06-06T07:22:11+00:00</time>
      </trkpt>
      <trkpt lat="45.43539" lon="6.21524">
        <ele>1886</ele>
        <time>2024-06-06T07:22:14+00:00</time>
      </trkpt>
      <trkpt lat="45.43544" lon="6.21529">
        <ele>1887</ele>
        <time>2024-06-06T07:22:17+00:00</time>
      </trkpt>
      <trkpt lat="45.43555" lon="6.21536">
        <ele>1887</ele>
        <time>2024-06-06T07:22:20+00:00</time>
      </trkpt>
      <trkpt lat="45.43564" lon="6.21541">
        <ele>1886</ele>
        <time>2024-06-06T07:22:23+00:00</time>
      </trkpt>
      <trkpt lat="45.4357" lon="6.21546">
        <ele>1886</ele>
        <time>2024-06-06T07:22:26+00:00</time>
      </trkpt>
      <trkpt lat="45.43575" lon="6.2155">
        <ele>1888</ele>
        <time>2024-06-06T07:22:29+00:00</time>
      </trkpt>
      <trkpt lat="45.43578" lon="6.21556">
        <ele>1886</ele>
        <time>2024-06-06T07:22:32+00:00</time>
      </trkpt>
      <trkpt lat="45.43583" lon="6.21559">
        <ele>1887</ele>
        <time>2024-06-06T07:22:35+00:00</time>
      </trkpt>
      <trkpt lat="45.43588" lon="6.21562">
        <ele>1886</ele>
        <time>2024-06-06T07:22:38+00:00</time>
      </trkpt>
      <trkpt lat="45.43593" lon="6.21567">
        <ele>1888</ele>
        <time>2024-06-06T07:22:41+00:00</time>
      </trkpt>
      <trkpt lat="45.436" lon="6.21577">
        <ele>1890</ele>
        <time>2024-06-06T07:22:44+00:00</time>
      </trkpt>
      <trkpt lat="45.43606" lon="6.2158">
        <ele>1890</ele>
        <time>2024-06-06T07:22:47+00:00</time>
      </trkpt>
      <trkpt lat="45.43612" lon="6.21578">
        <ele>1887</ele>
        <time>2024-06-06T07:22:50+00:00</time>
      </trkpt>
      <trkpt lat="45.4362" lon="6.21577">
        <ele>1885</ele>
        <time>2024-06-06T07:22:53+00:00</time>
      </trkpt>
      <trkpt lat="45.43626" lon="6.21579">
        <ele>1885</ele>
        <time>2024-06-06T07:22:56+00:00</time>
      </trkpt>
      <trkpt lat="45.43634" lon="6.21582">
        <ele>1886</ele>
        <time>2024-06-06T07:22:59+00:00</time>
      </trkpt>
      <trkpt lat="45.43643" lon="6.21585">
        <ele>1885</ele>
        <time>2024-06-06T07:23:02+00:00</time>
      </trkpt>
      <trkpt lat="45.4365" lon="6.21591">
        <ele>1886</ele>
        <time>2024-06-06T07:23:05+00:00</time>
      </trkpt>
      <trkpt lat="45.43657" lon="6.21596">
        <ele>1886</ele>
        <time>2024-06-06T07:23:08+00:00</time>
      </trkpt>
      <trkpt lat="45.43664" lon="6.21605">
        <ele>1887</ele>
        <time>2024-06-06T07:23:11+00:00</time>
      </trkpt>
      <trkpt lat="45.43677" lon="6.21624">
        <ele>1885</ele>
        <time>2024-06-06T07:23:14+00:00</time>
      </trkpt>
      <trkpt lat="45.43688" lon="6.21637">
        <ele>1885</ele>
        <time>2024-06-06T07:23:17+00:00</time>
      </trkpt>
      <trkpt lat="45.43699" lon="6.21653">
        <ele>1884</ele>
        <time>2024-06-06T07:23:20+00:00</time>
      </trkpt>
      <trkpt lat="45.43704" lon="6.21659">
        <ele>1885</ele>
        <time>2024-06-06T07:23:23+00:00</time>
      </trkpt>
      <trkpt lat="45.43711" lon="6.21666">
        <ele>1886</ele>
        <time>2024-06-06T07:23:26+00:00</time>
      </trkpt>
      <trkpt lat="45.43719" lon="6.21678">
        <ele>1883</ele>
        <time>2024-06-06T07:23:29+00:00</time>
      </trkpt>
      <trkpt lat="45.43725" lon="6.21689">
        <ele>1883</ele>
        <time>2024-06-06T07:23:32+00:00</time>
      </trkpt>
      <trkpt lat="45.43729" lon="6.21695">
        <ele>1882</ele>
        <time>2024-06-06T07:23:35+00:00</time>
      </trkpt>
      <trkpt lat="45.43738" lon="6.21708">
        <ele>1881</ele>
        <time>2024-06-06T07:23:38+00:00</time>
      </trkpt>
      <trkpt lat="45.43744" lon="6.21718">
        <ele>1879</ele>
        <time>2024-06-06T07:23:41+00:00</time>
      </trkpt>
      <trkpt lat="45.43752" lon="6.21732">
        <ele>1877</ele>
        <time>2024-06-06T07:23:44+00:00</time>
      </trkpt>
      <trkpt lat="45.43755" lon="6.21738">
        <ele>1872</ele>
        <time>2024-06-06T07:23:47+00:00</time>
      </trkpt>
      <trkpt lat="45.43758" lon="6.21741">
        <ele>1869</ele>
        <time>2024-06-06T07:23:50+00:00</time>
      </trkpt>
      <trkpt lat="45.4376" lon="6.21743">
        <ele>1870</ele>
        <time>2024-06-06T07:23:53+00:00</time>
      </trkpt>
      <trkpt lat="45.43763" lon="6.21743">
        <ele>1870</ele>
        <time>2024-06-06T07:23:56+00:00</time>
      </trkpt>
      <trkpt lat="45.43764" lon="6.2174">
        <ele>1873</ele>
        <time>2024-06-06T07:23:59+00:00</time>
      </trkpt>
      <trkpt lat="45.43765" lon="6.21735">
        <ele>1873</ele>
        <time>2024-06-06T07:24:02+00:00</time>
      </trkpt>
      <trkpt lat="45.43766" lon="6.21732">
        <ele>1873</ele>
        <time>2024-06-06T07:24:05+00:00</time>
      </trkpt>
      <trkpt lat="45.43772" lon="6.2173">
        <ele>1867</ele>
        <time>2024-06-06T07:24:08+00:00</time>
      </trkpt>
      <trkpt lat="45.43785" lon="6.21728">
        <ele>1864</ele>
        <time>2024-06-06T07:24:11+00:00</time>
      </trkpt>
      <trkpt lat="45.438" lon="6.21725">
        <ele>1863</ele>
        <time>2024-06-06T07:24:14+00:00</time>
      </trkpt>
      <trkpt lat="45.43815" lon="6.21721">
        <ele>1862</ele>
        <time>2024-06-06T07:24:17+00:00</time>
      </trkpt>
      <trkpt lat="45.43827" lon="6.21716">
        <ele>1862</ele>
        <time>2024-06-06T07:24:20+00:00</time>
      </trkpt>
      <trkpt lat="45.43836" lon="6.21724">
        <ele>1862</ele>
        <time>2024-06-06T07:24:23+00:00</time>
      </trkpt>
      <trkpt lat="45.43841" lon="6.21725">
        <ele>1862</ele>
        <time>2024-06-06T07:24:26+00:00</time>
      </trkpt>
      <trkpt lat="45.43847" lon="6.21726">
        <ele>1862</ele>
        <time>2024-06-06T07:24:29+00:00</time>
      </trkpt>
      <trkpt lat="45.4385" lon="6.21726">
        <ele>1862</ele>
        <time>2024-06-06T07:24:32+00:00</time>
      </trkpt>
      <trkpt lat="45.43855" lon="6.21726">
        <ele>1862</ele>
        <time>2024-06-06T07:24:35+00:00</time>
      </trkpt>
      <trkpt lat="45.43862" lon="6.2173">
        <ele>1862</ele>
        <time>2024-06-06T07:24:38+00:00</time>
      </trkpt>
      <trkpt lat="45.43867" lon="6.21732">
        <ele>1859</ele>
        <time>2024-06-06T07:24:41+00:00</time>
      </trkpt>
      <trkpt lat="45.43872" lon="6.21736">
        <ele>1861</ele>
        <time>2024-06-06T07:24:44+00:00</time>
      </trkpt>
      <trkpt lat="45.43876" lon="6.21739">
        <ele>1862</ele>
        <time>2024-06-06T07:24:47+00:00</time>
      </trkpt>
      <trkpt lat="45.4388" lon="6.21742">
        <ele>1860</ele>
        <time>2024-06-06T07:24:50+00:00</time>
      </trkpt>
      <trkpt lat="45.43884" lon="6.21744">
        <ele>1860</ele>
        <time>2024-06-06T07:24:53+00:00</time>
      </trkpt>
      <trkpt lat="45.43888" lon="6.21746">
        <ele>1860</ele>
        <time>2024-06-06T07:24:56+00:00</time>
      </trkpt>
      <trkpt lat="45.43895" lon="6.21745">
        <ele>1863</ele>
        <time>2024-06-06T07:24:59+00:00</time>
      </trkpt>
      <trkpt lat="45.43899" lon="6.21747">
        <ele>1863</ele>
        <time>2024-06-06T07:25:02+00:00</time>
      </trkpt>
      <trkpt lat="45.43905" lon="6.21747">
        <ele>1864</ele>
        <time>2024-06-06T07:25:05+00:00</time>
      </trkpt>
      <trkpt lat="45.43907" lon="6.21742">
        <ele>1864</ele>
        <time>2024-06-06T07:25:08+00:00</time>
      </trkpt>
      <trkpt lat="45.43908" lon="6.21736">
        <ele>1866</ele>
        <time>2024-06-06T07:25:11+00:00</time>
      </trkpt>
      <trkpt lat="45.43911" lon="6.21729">
        <ele>1864</ele>
        <time>2024-06-06T07:25:14+00:00</time>
      </trkpt>
      <trkpt lat="45.43915" lon="6.21714">
        <ele>1864</ele>
        <time>2024-06-06T07:25:17+00:00</time>
      </trkpt>
      <trkpt lat="45.43917" lon="6.21715">
        <ele>1864</ele>
        <time>2024-06-06T07:25:20+00:00</time>
      </trkpt>
      <trkpt lat="45.43926" lon="6.21722">
        <ele>1865</ele>
        <time>2024-06-06T07:25:23+00:00</time>
      </trkpt>
      <trkpt lat="45.43926" lon="6.21722">
        <ele>1865</ele>
        <time>2024-06-06T07:25:26+00:00</time>
      </trkpt>
      <trkpt lat="45.43927" lon="6.21722">
        <ele>1865</ele>
        <time>2024-06-06T07:25:29+00:00</time>
      </trkpt>
      <trkpt lat="45.43948" lon="6.21745">
        <ele>1868</ele>
        <time>2024-06-06T07:25:32+00:00</time>
      </trkpt>
      <trkpt lat="45.43957" lon="6.2175">
        <ele>1869</ele>
        <time>2024-06-06T07:25:35+00:00</time>
      </trkpt>
      <trkpt lat="45.43987" lon="6.2176">
        <ele>1878</ele>
        <time>2024-06-06T07:25:38+00:00</time>
      </trkpt>
      <trkpt lat="45.43995" lon="6.21761">
        <ele>1880</ele>
        <time>2024-06-06T07:25:41+00:00</time>
      </trkpt>
      <trkpt lat="45.44003" lon="6.21762">
        <ele>1882</ele>
        <time>2024-06-06T07:25:44+00:00</time>
      </trkpt>
      <trkpt lat="45.44011" lon="6.21762">
        <ele>1886</ele>
        <time>2024-06-06T07:25:47+00:00</time>
      </trkpt>
      <trkpt lat="45.44016" lon="6.2176">
        <ele>1882</ele>
        <time>2024-06-06T07:25:50+00:00</time>
      </trkpt>
      <trkpt lat="45.4402" lon="6.21761">
        <ele>1888</ele>
        <time>2024-06-06T07:25:53+00:00</time>
      </trkpt>
      <trkpt lat="45.44031" lon="6.21763">
        <ele>1890</ele>
        <time>2024-06-06T07:25:56+00:00</time>
      </trkpt>
      <trkpt lat="45.44039" lon="6.21764">
        <ele>1890</ele>
        <time>2024-06-06T07:25:59+00:00</time>
      </trkpt>
      <trkpt lat="45.44043" lon="6.21765">
        <ele>1892</ele>
        <time>2024-06-06T07:26:02+00:00</time>
      </trkpt>
      <trkpt lat="45.44047" lon="6.21763">
        <ele>1892</ele>
        <time>2024-06-06T07:26:05+00:00</time>
      </trkpt>
      <trkpt lat="45.4405" lon="6.21763">
        <ele>1892</ele>
        <time>2024-06-06T07:26:08+00:00</time>
      </trkpt>
      <trkpt lat="45.44052" lon="6.21762">
        <ele>1891</ele>
        <time>2024-06-06T07:26:11+00:00</time>
      </trkpt>
      <trkpt lat="45.44053" lon="6.21757">
        <ele>1894</ele>
        <time>2024-06-06T07:26:14+00:00</time>
      </trkpt>
      <trkpt lat="45.44056" lon="6.21752">
        <ele>1894</ele>
        <time>2024-06-06T07:26:17+00:00</time>
      </trkpt>
      <trkpt lat="45.44062" lon="6.21744">
        <ele>1895</ele>
        <time>2024-06-06T07:26:20+00:00</time>
      </trkpt>
      <trkpt lat="45.44069" lon="6.21736">
        <ele>1893</ele>
        <time>2024-06-06T07:26:23+00:00</time>
      </trkpt>
      <trkpt lat="45.44079" lon="6.2172">
        <ele>1895</ele>
        <time>2024-06-06T07:26:26+00:00</time>
      </trkpt>
      <trkpt lat="45.4409" lon="6.21707">
        <ele>1897</ele>
        <time>2024-06-06T07:26:29+00:00</time>
      </trkpt>
      <trkpt lat="45.44098" lon="6.217">
        <ele>1899</ele>
        <time>2024-06-06T07:26:32+00:00</time>
      </trkpt>
      <trkpt lat="45.44109" lon="6.21695">
        <ele>1905</ele>
        <time>2024-06-06T07:26:35+00:00</time>
      </trkpt>
      <trkpt lat="45.44115" lon="6.21693">
        <ele>1908</ele>
        <time>2024-06-06T07:26:38+00:00</time>
      </trkpt>
      <trkpt lat="45.44121" lon="6.21692">
        <ele>1911</ele>
        <time>2024-06-06T07:26:41+00:00</time>
      </trkpt>
      <trkpt lat="45.44132" lon="6.21694">
        <ele>1913</ele>
        <time>2024-06-06T07:26:44+00:00</time>
      </trkpt>
      <trkpt lat="45.44139" lon="6.21692">
        <ele>1913</ele>
        <time>2024-06-06T07:26:47+00:00</time>
      </trkpt>
      <trkpt lat="45.44146" lon="6.21693">
        <ele>1915</ele>
        <time>2024-06-06T07:26:50+00:00</time>
      </trkpt>
      <trkpt lat="45.44153" lon="6.21695">
        <ele>1912</ele>
        <time>2024-06-06T07:26:53+00:00</time>
      </trkpt>
      <trkpt lat="45.44159" lon="6.21697">
        <ele>1915</ele>
        <time>2024-06-06T07:26:56+00:00</time>
      </trkpt>
      <trkpt lat="45.44165" lon="6.217">
        <ele>1912</ele>
        <time>2024-06-06T07:26:59+00:00</time>
      </trkpt>
      <trkpt lat="45.44171" lon="6.217">
        <ele>1911</ele>
        <time>2024-06-06T07:27:02+00:00</time>
      </trkpt>
      <trkpt lat="45.44177" lon="6.217">
        <ele>1914</ele>
        <time>2024-06-06T07:27:05+00:00</time>
      </trkpt>
      <trkpt lat="45.44184" lon="6.21698">
        <ele>1912</ele>
        <time>2024-06-06T07:27:08+00:00</time>
      </trkpt>
      <trkpt lat="45.44191" lon="6.21696">
        <ele>1916</ele>
        <time>2024-06-06T07:27:11+00:00</time>
      </trkpt>
      <trkpt lat="45.44199" lon="6.21695">
        <ele>1916</ele>
        <time>2024-06-06T07:27:14+00:00</time>
      </trkpt>
      <trkpt lat="45.44206" lon="6.21695">
        <ele>1917</ele>
        <time>2024-06-06T07:27:17+00:00</time>
      </trkpt>
      <trkpt lat="45.4421" lon="6.21697">
        <ele>1917</ele>
        <time>2024-06-06T07:27:20+00:00</time>
      </trkpt>
      <trkpt lat="45.44214" lon="6.21697">
        <ele>1918</ele>
        <time>2024-06-06T07:27:23+00:00</time>
      </trkpt>
      <trkpt lat="45.44224" lon="6.21698">
        <ele>1919</ele>
        <time>2024-06-06T07:27:26+00:00</time>
      </trkpt>
      <trkpt lat="45.44232" lon="6.21698">
        <ele>1918</ele>
        <time>2024-06-06T07:27:29+00:00</time>
      </trkpt>
      <trkpt lat="45.4424" lon="6.21697">
        <ele>1919</ele>
        <time>2024-06-06T07:27:32+00:00</time>
      </trkpt>
      <trkpt lat="45.44248" lon="6.21698">
        <ele>1919</ele>
        <time>2024-06-06T07:27:35+00:00</time>
      </trkpt>
      <trkpt lat="45.44256" lon="6.217">
        <ele>1919</ele>
        <time>2024-06-06T07:27:38+00:00</time>
      </trkpt>
      <trkpt lat="45.44263" lon="6.21703">
        <ele>1921</ele>
        <time>2024-06-06T07:27:41+00:00</time>
      </trkpt>
      <trkpt lat="45.44269" lon="6.21703">
        <ele>1921</ele>
        <time>2024-06-06T07:27:44+00:00</time>
      </trkpt>
      <trkpt lat="45.44276" lon="6.21702">
        <ele>1921</ele>
        <time>2024-06-06T07:27:47+00:00</time>
      </trkpt>
      <trkpt lat="45.44284" lon="6.217">
        <ele>1918</ele>
        <time>2024-06-06T07:27:50+00:00</time>
      </trkpt>
      <trkpt lat="45.44291" lon="6.21697">
        <ele>1921</ele>
        <time>2024-06-06T07:27:53+00:00</time>
      </trkpt>
      <trkpt lat="45.44298" lon="6.21694">
        <ele>1921</ele>
        <time>2024-06-06T07:27:56+00:00</time>
      </trkpt>
      <trkpt lat="45.44304" lon="6.21692">
        <ele>1922</ele>
        <time>2024-06-06T07:27:59+00:00</time>
      </trkpt>
      <trkpt lat="45.4431" lon="6.2169">
        <ele>1920</ele>
        <time>2024-06-06T07:28:02+00:00</time>
      </trkpt>
      <trkpt lat="45.44317" lon="6.21689">
        <ele>1918</ele>
        <time>2024-06-06T07:28:05+00:00</time>
      </trkpt>
      <trkpt lat="45.44322" lon="6.21687">
        <ele>1919</ele>
        <time>2024-06-06T07:28:08+00:00</time>
      </trkpt>
      <trkpt lat="45.44332" lon="6.21684">
        <ele>1920</ele>
        <time>2024-06-06T07:28:11+00:00</time>
      </trkpt>
      <trkpt lat="45.44337" lon="6.21682">
        <ele>1920</ele>
        <time>2024-06-06T07:28:14+00:00</time>
      </trkpt>
      <trkpt lat="45.44344" lon="6.21681">
        <ele>1921</ele>
        <time>2024-06-06T07:28:17+00:00</time>
      </trkpt>
      <trkpt lat="45.44349" lon="6.21681">
        <ele>1921</ele>
        <time>2024-06-06T07:28:20+00:00</time>
      </trkpt>
      <trkpt lat="45.44353" lon="6.2168">
        <ele>1922</ele>
        <time>2024-06-06T07:28:23+00:00</time>
      </trkpt>
      <trkpt lat="45.4436" lon="6.21681">
        <ele>1923</ele>
        <time>2024-06-06T07:28:26+00:00</time>
      </trkpt>
      <trkpt lat="45.44369" lon="6.21677">
        <ele>1920</ele>
        <time>2024-06-06T07:28:29+00:00</time>
      </trkpt>
      <trkpt lat="45.4438" lon="6.21672">
        <ele>1922</ele>
        <time>2024-06-06T07:28:32+00:00</time>
      </trkpt>
      <trkpt lat="45.44387" lon="6.2167">
        <ele>1925</ele>
        <time>2024-06-06T07:28:35+00:00</time>
      </trkpt>
      <trkpt lat="45.44393" lon="6.21669">
        <ele>1923</ele>
        <time>2024-06-06T07:28:38+00:00</time>
      </trkpt>
      <trkpt lat="45.44398" lon="6.21668">
        <ele>1923</ele>
        <time>2024-06-06T07:28:41+00:00</time>
      </trkpt>
      <trkpt lat="45.44403" lon="6.21665">
        <ele>1924</ele>
        <time>2024-06-06T07:28:44+00:00</time>
      </trkpt>
      <trkpt lat="45.44407" lon="6.21662">
        <ele>1924</ele>
        <time>2024-06-06T07:28:47+00:00</time>
      </trkpt>
      <trkpt lat="45.44411" lon="6.21662">
        <ele>1927</ele>
        <time>2024-06-06T07:28:50+00:00</time>
      </trkpt>
      <trkpt lat="45.44414" lon="6.21662">
        <ele>1927</ele>
        <time>2024-06-06T07:28:53+00:00</time>
      </trkpt>
      <trkpt lat="45.4442" lon="6.2166">
        <ele>1927</ele>
        <time>2024-06-06T07:28:56+00:00</time>
      </trkpt>
      <trkpt lat="45.44429" lon="6.21654">
        <ele>1928</ele>
        <time>2024-06-06T07:28:59+00:00</time>
      </trkpt>
      <trkpt lat="45.44437" lon="6.21649">
        <ele>1929</ele>
        <time>2024-06-06T07:29:02+00:00</time>
      </trkpt>
      <trkpt lat="45.44441" lon="6.21643">
        <ele>1933</ele>
        <time>2024-06-06T07:29:05+00:00</time>
      </trkpt>
      <trkpt lat="45.44448" lon="6.21637">
        <ele>1932</ele>
        <time>2024-06-06T07:29:08+00:00</time>
      </trkpt>
      <trkpt lat="45.44453" lon="6.21633">
        <ele>1935</ele>
        <time>2024-06-06T07:29:11+00:00</time>
      </trkpt>
      <trkpt lat="45.4446" lon="6.21625">
        <ele>1936</ele>
        <time>2024-06-06T07:29:14+00:00</time>
      </trkpt>
      <trkpt lat="45.44466" lon="6.21619">
        <ele>1934</ele>
        <time>2024-06-06T07:29:17+00:00</time>
      </trkpt>
      <trkpt lat="45.44471" lon="6.21617">
        <ele>1940</ele>
        <time>2024-06-06T07:29:20+00:00</time>
      </trkpt>
      <trkpt lat="45.44478" lon="6.21614">
        <ele>1940</ele>
        <time>2024-06-06T07:29:23+00:00</time>
      </trkpt>
      <trkpt lat="45.44488" lon="6.21608">
        <ele>1943</ele>
        <time>2024-06-06T07:29:26+00:00</time>
      </trkpt>
      <trkpt lat="45.44495" lon="6.21603">
        <ele>1947</ele>
        <time>2024-06-06T07:29:29+00:00</time>
      </trkpt>
      <trkpt lat="45.44503" lon="6.21594">
        <ele>1951</ele>
        <time>2024-06-06T07:29:32+00:00</time>
      </trkpt>
      <trkpt lat="45.44512" lon="6.21585">
        <ele>1954</ele>
        <time>2024-06-06T07:29:35+00:00</time>
      </trkpt>
      <trkpt lat="45.44524" lon="6.21574">
        <ele>1957</ele>
        <time>2024-06-06T07:29:38+00:00</time>
      </trkpt>
      <trkpt lat="45.44531" lon="6.21569">
        <ele>1961</ele>
        <time>2024-06-06T07:29:41+00:00</time>
      </trkpt>
      <trkpt lat="45.44538" lon="6.21563">
        <ele>1961</ele>
        <time>2024-06-06T07:29:44+00:00</time>
      </trkpt>
      <trkpt lat="45.4454" lon="6.21558">
        <ele>1965</ele>
        <time>2024-06-06T07:29:47+00:00</time>
      </trkpt>
      <trkpt lat="45.44544" lon="6.21555">
        <ele>1965</ele>
        <time>2024-06-06T07:29:50+00:00</time>
      </trkpt>
      <trkpt lat="45.44547" lon="6.21551">
        <ele>1965</ele>
        <time>2024-06-06T07:29:53+00:00</time>
      </trkpt>
      <trkpt lat="45.44552" lon="6.21545">
        <ele>1968</ele>
        <time>2024-06-06T07:29:56+00:00</time>
      </trkpt>
      <trkpt lat="45.44559" lon="6.21537">
        <ele>1965</ele>
        <time>2024-06-06T07:29:59+00:00</time>
      </trkpt>
      <trkpt lat="45.44572" lon="6.21524">
        <ele>1976</ele>
        <time>2024-06-06T07:30:02+00:00</time>
      </trkpt>
      <trkpt lat="45.4458" lon="6.21515">
        <ele>1974</ele>
        <time>2024-06-06T07:30:05+00:00</time>
      </trkpt>
      <trkpt lat="45.44587" lon="6.21506">
        <ele>1976</ele>
        <time>2024-06-06T07:30:08+00:00</time>
      </trkpt>
      <trkpt lat="45.44595" lon="6.21498">
        <ele>1981</ele>
        <time>2024-06-06T07:30:11+00:00</time>
      </trkpt>
      <trkpt lat="45.4461" lon="6.21483">
        <ele>1983</ele>
        <time>2024-06-06T07:30:14+00:00</time>
      </trkpt>
      <trkpt lat="45.44621" lon="6.21473">
        <ele>1991</ele>
        <time>2024-06-06T07:30:17+00:00</time>
      </trkpt>
      <trkpt lat="45.44627" lon="6.2147">
        <ele>1988</ele>
        <time>2024-06-06T07:30:20+00:00</time>
      </trkpt>
      <trkpt lat="45.44633" lon="6.21467">
        <ele>1991</ele>
        <time>2024-06-06T07:30:23+00:00</time>
      </trkpt>
      <trkpt lat="45.44637" lon="6.21464">
        <ele>1991</ele>
        <time>2024-06-06T07:30:26+00:00</time>
      </trkpt>
      <trkpt lat="45.44642" lon="6.21462">
        <ele>1992</ele>
        <time>2024-06-06T07:30:29+00:00</time>
      </trkpt>
      <trkpt lat="45.44649" lon="6.21461">
        <ele>1988</ele>
        <time>2024-06-06T07:30:32+00:00</time>
      </trkpt>
      <trkpt lat="45.44656" lon="6.21461">
        <ele>1991</ele>
        <time>2024-06-06T07:30:35+00:00</time>
      </trkpt>
      <trkpt lat="45.44662" lon="6.21461">
        <ele>1989</ele>
        <time>2024-06-06T07:30:38+00:00</time>
      </trkpt>
      <trkpt lat="45.44668" lon="6.21461">
        <ele>1986</ele>
        <time>2024-06-06T07:30:41+00:00</time>
      </trkpt>
      <trkpt lat="45.44673" lon="6.21462">
        <ele>1986</ele>
        <time>2024-06-06T07:30:44+00:00</time>
      </trkpt>
      <trkpt lat="45.44677" lon="6.21462">
        <ele>1986</ele>
        <time>2024-06-06T07:30:47+00:00</time>
      </trkpt>
      <trkpt lat="45.44681" lon="6.21462">
        <ele>1984</ele>
        <time>2024-06-06T07:30:50+00:00</time>
      </trkpt>
      <trkpt lat="45.44686" lon="6.21462">
        <ele>1984</ele>
        <time>2024-06-06T07:30:53+00:00</time>
      </trkpt>
      <trkpt lat="45.4469" lon="6.21462">
        <ele>1984</ele>
        <time>2024-06-06T07:30:56+00:00</time>
      </trkpt>
      <trkpt lat="45.44696" lon="6.21461">
        <ele>1984</ele>
        <time>2024-06-06T07:30:59+00:00</time>
      </trkpt>
      <trkpt lat="45.44701" lon="6.2146">
        <ele>1982</ele>
        <time>2024-06-06T07:31:02+00:00</time>
      </trkpt>
      <trkpt lat="45.44707" lon="6.2146">
        <ele>1983</ele>
        <time>2024-06-06T07:31:05+00:00</time>
      </trkpt>
      <trkpt lat="45.44712" lon="6.2146">
        <ele>1982</ele>
        <time>2024-06-06T07:31:08+00:00</time>
      </trkpt>
      <trkpt lat="45.44719" lon="6.21461">
        <ele>1982</ele>
        <time>2024-06-06T07:31:11+00:00</time>
      </trkpt>
      <trkpt lat="45.44724" lon="6.21462">
        <ele>1982</ele>
        <time>2024-06-06T07:31:14+00:00</time>
      </trkpt>
      <trkpt lat="45.4473" lon="6.21466">
        <ele>1982</ele>
        <time>2024-06-06T07:31:17+00:00</time>
      </trkpt>
      <trkpt lat="45.44734" lon="6.2147">
        <ele>1982</ele>
        <time>2024-06-06T07:31:20+00:00</time>
      </trkpt>
      <trkpt lat="45.4474" lon="6.21472">
        <ele>1983</ele>
        <time>2024-06-06T07:31:23+00:00</time>
      </trkpt>
      <trkpt lat="45.44746" lon="6.21473">
        <ele>1982</ele>
        <time>2024-06-06T07:31:26+00:00</time>
      </trkpt>
      <trkpt lat="45.44754" lon="6.21474">
        <ele>1982</ele>
        <time>2024-06-06T07:31:29+00:00</time>
      </trkpt>
      <trkpt lat="45.44762" lon="6.21474">
        <ele>1982</ele>
        <time>2024-06-06T07:31:32+00:00</time>
      </trkpt>
      <trkpt lat="45.44773" lon="6.21474">
        <ele>1982</ele>
        <time>2024-06-06T07:31:35+00:00</time>
      </trkpt>
      <trkpt lat="45.4478" lon="6.21474">
        <ele>1982</ele>
        <time>2024-06-06T07:31:38+00:00</time>
      </trkpt>
      <trkpt lat="45.44789" lon="6.21472">
        <ele>1983</ele>
        <time>2024-06-06T07:31:41+00:00</time>
      </trkpt>
      <trkpt lat="45.44796" lon="6.21471">
        <ele>1982</ele>
        <time>2024-06-06T07:31:44+00:00</time>
      </trkpt>
      <trkpt lat="45.44806" lon="6.21467">
        <ele>1983</ele>
        <time>2024-06-06T07:31:47+00:00</time>
      </trkpt>
      <trkpt lat="45.44813" lon="6.21462">
        <ele>1983</ele>
        <time>2024-06-06T07:31:50+00:00</time>
      </trkpt>
      <trkpt lat="45.4482" lon="6.21459">
        <ele>1983</ele>
        <time>2024-06-06T07:31:53+00:00</time>
      </trkpt>
      <trkpt lat="45.44828" lon="6.21457">
        <ele>1983</ele>
        <time>2024-06-06T07:31:56+00:00</time>
      </trkpt>
      <trkpt lat="45.44835" lon="6.21454">
        <ele>1984</ele>
        <time>2024-06-06T07:31:59+00:00</time>
      </trkpt>
      <trkpt lat="45.44846" lon="6.2145">
        <ele>1985</ele>
        <time>2024-06-06T07:32:02+00:00</time>
      </trkpt>
      <trkpt lat="45.44857" lon="6.21446">
        <ele>1981</ele>
        <time>2024-06-06T07:32:05+00:00</time>
      </trkpt>
      <trkpt lat="45.4487" lon="6.2144">
        <ele>1983</ele>
        <time>2024-06-06T07:32:08+00:00</time>
      </trkpt>
      <trkpt lat="45.44878" lon="6.21437">
        <ele>1979</ele>
        <time>2024-06-06T07:32:11+00:00</time>
      </trkpt>
      <trkpt lat="45.44878" lon="6.21437">
        <ele>1979</ele>
        <time>2024-06-06T07:32:14+00:00</time>
      </trkpt>
      <trkpt lat="45.44878" lon="6.21437">
        <ele>1979</ele>
        <time>2024-06-06T07:32:17+00:00</time>
      </trkpt>
      <trkpt lat="45.44884" lon="6.21434">
        <ele>1978</ele>
        <time>2024-06-06T07:32:20+00:00</time>
      </trkpt>
      <trkpt lat="45.4489" lon="6.2143">
        <ele>1978</ele>
        <time>2024-06-06T07:32:23+00:00</time>
      </trkpt>
      <trkpt lat="45.44896" lon="6.21427">
        <ele>1974</ele>
        <time>2024-06-06T07:32:26+00:00</time>
      </trkpt>
      <trkpt lat="45.44903" lon="6.21426">
        <ele>1974</ele>
        <time>2024-06-06T07:32:29+00:00</time>
      </trkpt>
      <trkpt lat="45.4491" lon="6.21423">
        <ele>1974</ele>
        <time>2024-06-06T07:32:32+00:00</time>
      </trkpt>
      <trkpt lat="45.44917" lon="6.21422">
        <ele>1974</ele>
        <time>2024-06-06T07:32:35+00:00</time>
      </trkpt>
      <trkpt lat="45.44923" lon="6.2142">
        <ele>1971</ele>
        <time>2024-06-06T07:32:38+00:00</time>
      </trkpt>
      <trkpt lat="45.4493" lon="6.21417">
        <ele>1971</ele>
        <time>2024-06-06T07:32:41+00:00</time>
      </trkpt>
      <trkpt lat="45.44937" lon="6.21415">
        <ele>1971</ele>
        <time>2024-06-06T07:32:44+00:00</time>
      </trkpt>
      <trkpt lat="45.44943" lon="6.21412">
        <ele>1971</ele>
        <time>2024-06-06T07:32:47+00:00</time>
      </trkpt>
      <trkpt lat="45.44947" lon="6.21411">
        <ele>1971</ele>
        <time>2024-06-06T07:32:50+00:00</time>
      </trkpt>
      <trkpt lat="45.44952" lon="6.21406">
        <ele>1969</ele>
        <time>2024-06-06T07:32:53+00:00</time>
      </trkpt>
      <trkpt lat="45.44955" lon="6.21401">
        <ele>1970</ele>
        <time>2024-06-06T07:32:56+00:00</time>
      </trkpt>
      <trkpt lat="45.44961" lon="6.21394">
        <ele>1971</ele>
        <time>2024-06-06T07:32:59+00:00</time>
      </trkpt>
      <trkpt lat="45.44965" lon="6.21388">
        <ele>1970</ele>
        <time>2024-06-06T07:33:02+00:00</time>
      </trkpt>
      <trkpt lat="45.4497" lon="6.21383">
        <ele>1970</ele>
        <time>2024-06-06T07:33:05+00:00</time>
      </trkpt>
      <trkpt lat="45.44975" lon="6.21381">
        <ele>1973</ele>
        <time>2024-06-06T07:33:08+00:00</time>
      </trkpt>
      <trkpt lat="45.44984" lon="6.21376">
        <ele>1974</ele>
        <time>2024-06-06T07:33:11+00:00</time>
      </trkpt>
      <trkpt lat="45.44993" lon="6.21366">
        <ele>1974</ele>
        <time>2024-06-06T07:33:14+00:00</time>
      </trkpt>
      <trkpt lat="45.45005" lon="6.21358">
        <ele>1974</ele>
        <time>2024-06-06T07:33:17+00:00</time>
      </trkpt>
      <trkpt lat="45.4501" lon="6.21355">
        <ele>1974</ele>
        <time>2024-06-06T07:33:20+00:00</time>
      </trkpt>
      <trkpt lat="45.45014" lon="6.21355">
        <ele>1975</ele>
        <time>2024-06-06T07:33:23+00:00</time>
      </trkpt>
      <trkpt lat="45.45019" lon="6.21354">
        <ele>1975</ele>
        <time>2024-06-06T07:33:26+00:00</time>
      </trkpt>
      <trkpt lat="45.45023" lon="6.21354">
        <ele>1975</ele>
        <time>2024-06-06T07:33:29+00:00</time>
      </trkpt>
      <trkpt lat="45.45029" lon="6.21353">
        <ele>1975</ele>
        <time>2024-06-06T07:33:32+00:00</time>
      </trkpt>
      <trkpt lat="45.45033" lon="6.21352">
        <ele>1975</ele>
        <time>2024-06-06T07:33:35+00:00</time>
      </trkpt>
      <trkpt lat="45.45038" lon="6.21352">
        <ele>1975</ele>
        <time>2024-06-06T07:33:38+00:00</time>
      </trkpt>
      <trkpt lat="45.45044" lon="6.2135">
        <ele>1975</ele>
        <time>2024-06-06T07:33:41+00:00</time>
      </trkpt>
      <trkpt lat="45.4505" lon="6.21348">
        <ele>1972</ele>
        <time>2024-06-06T07:33:44+00:00</time>
      </trkpt>
      <trkpt lat="45.45056" lon="6.21343">
        <ele>1972</ele>
        <time>2024-06-06T07:33:47+00:00</time>
      </trkpt>
      <trkpt lat="45.45063" lon="6.21337">
        <ele>1971</ele>
        <time>2024-06-06T07:33:50+00:00</time>
      </trkpt>
      <trkpt lat="45.45071" lon="6.21332">
        <ele>1971</ele>
        <time>2024-06-06T07:33:53+00:00</time>
      </trkpt>
      <trkpt lat="45.45083" lon="6.21327">
        <ele>1971</ele>
        <time>2024-06-06T07:33:56+00:00</time>
      </trkpt>
      <trkpt lat="45.45096" lon="6.21323">
        <ele>1970</ele>
        <time>2024-06-06T07:33:59+00:00</time>
      </trkpt>
      <trkpt lat="45.45102" lon="6.21321">
        <ele>1971</ele>
        <time>2024-06-06T07:34:02+00:00</time>
      </trkpt>
      <trkpt lat="45.4511" lon="6.21318">
        <ele>1970</ele>
        <time>2024-06-06T07:34:05+00:00</time>
      </trkpt>
      <trkpt lat="45.45121" lon="6.21316">
        <ele>1971</ele>
        <time>2024-06-06T07:34:08+00:00</time>
      </trkpt>
      <trkpt lat="45.45133" lon="6.21313">
        <ele>1973</ele>
        <time>2024-06-06T07:34:11+00:00</time>
      </trkpt>
      <trkpt lat="45.45145" lon="6.21308">
        <ele>1972</ele>
        <time>2024-06-06T07:34:14+00:00</time>
      </trkpt>
      <trkpt lat="45.45156" lon="6.21302">
        <ele>1973</ele>
        <time>2024-06-06T07:34:17+00:00</time>
      </trkpt>
      <trkpt lat="45.45165" lon="6.21298">
        <ele>1974</ele>
        <time>2024-06-06T07:34:20+00:00</time>
      </trkpt>
      <trkpt lat="45.45175" lon="6.21293">
        <ele>1976</ele>
        <time>2024-06-06T07:34:23+00:00</time>
      </trkpt>
      <trkpt lat="45.45186" lon="6.21288">
        <ele>1974</ele>
        <time>2024-06-06T07:34:26+00:00</time>
      </trkpt>
      <trkpt lat="45.45191" lon="6.21284">
        <ele>1975</ele>
        <time>2024-06-06T07:34:29+00:00</time>
      </trkpt>
      <trkpt lat="45.45196" lon="6.21284">
        <ele>1975</ele>
        <time>2024-06-06T07:34:32+00:00</time>
      </trkpt>
      <trkpt lat="45.452" lon="6.21285">
        <ele>1975</ele>
        <time>2024-06-06T07:34:35+00:00</time>
      </trkpt>
      <trkpt lat="45.45204" lon="6.2129">
        <ele>1972</ele>
        <time>2024-06-06T07:34:38+00:00</time>
      </trkpt>
      <trkpt lat="45.4521" lon="6.21293">
        <ele>1975</ele>
        <time>2024-06-06T07:34:41+00:00</time>
      </trkpt>
      <trkpt lat="45.45216" lon="6.21296">
        <ele>1974</ele>
        <time>2024-06-06T07:34:44+00:00</time>
      </trkpt>
      <trkpt lat="45.45221" lon="6.21298">
        <ele>1970</ele>
        <time>2024-06-06T07:34:47+00:00</time>
      </trkpt>
      <trkpt lat="45.45234" lon="6.21307">
        <ele>1970</ele>
        <time>2024-06-06T07:34:50+00:00</time>
      </trkpt>
      <trkpt lat="45.45246" lon="6.21315">
        <ele>1967</ele>
        <time>2024-06-06T07:34:53+00:00</time>
      </trkpt>
      <trkpt lat="45.45254" lon="6.21322">
        <ele>1964</ele>
        <time>2024-06-06T07:34:56+00:00</time>
      </trkpt>
      <trkpt lat="45.45266" lon="6.21323">
        <ele>1961</ele>
        <time>2024-06-06T07:34:59+00:00</time>
      </trkpt>
      <trkpt lat="45.45272" lon="6.21324">
        <ele>1957</ele>
        <time>2024-06-06T07:35:02+00:00</time>
      </trkpt>
      <trkpt lat="45.45276" lon="6.21326">
        <ele>1957</ele>
        <time>2024-06-06T07:35:05+00:00</time>
      </trkpt>
      <trkpt lat="45.4528" lon="6.21329">
        <ele>1957</ele>
        <time>2024-06-06T07:35:08+00:00</time>
      </trkpt>
      <trkpt lat="45.45284" lon="6.21334">
        <ele>1953</ele>
        <time>2024-06-06T07:35:11+00:00</time>
      </trkpt>
      <trkpt lat="45.45287" lon="6.21338">
        <ele>1953</ele>
        <time>2024-06-06T07:35:14+00:00</time>
      </trkpt>
      <trkpt lat="45.45291" lon="6.21341">
        <ele>1950</ele>
        <time>2024-06-06T07:35:17+00:00</time>
      </trkpt>
      <trkpt lat="45.45296" lon="6.21343">
        <ele>1950</ele>
        <time>2024-06-06T07:35:20+00:00</time>
      </trkpt>
      <trkpt lat="45.453" lon="6.21346">
        <ele>1950</ele>
        <time>2024-06-06T07:35:23+00:00</time>
      </trkpt>
      <trkpt lat="45.45304" lon="6.21349">
        <ele>1947</ele>
        <time>2024-06-06T07:35:26+00:00</time>
      </trkpt>
      <trkpt lat="45.45305" lon="6.21347">
        <ele>1947</ele>
        <time>2024-06-06T07:35:29+00:00</time>
      </trkpt>
      <trkpt lat="45.45308" lon="6.2134">
        <ele>1946</ele>
        <time>2024-06-06T07:35:32+00:00</time>
      </trkpt>
      <trkpt lat="45.45309" lon="6.21336">
        <ele>1946</ele>
        <time>2024-06-06T07:35:35+00:00</time>
      </trkpt>
      <trkpt lat="45.4531" lon="6.2133">
        <ele>1945</ele>
        <time>2024-06-06T07:35:38+00:00</time>
      </trkpt>
      <trkpt lat="45.45311" lon="6.21324">
        <ele>1940</ele>
        <time>2024-06-06T07:35:41+00:00</time>
      </trkpt>
      <trkpt lat="45.45312" lon="6.2132">
        <ele>1940</ele>
        <time>2024-06-06T07:35:44+00:00</time>
      </trkpt>
      <trkpt lat="45.45314" lon="6.2132">
        <ele>1938</ele>
        <time>2024-06-06T07:35:47+00:00</time>
      </trkpt>
      <trkpt lat="45.45318" lon="6.21323">
        <ele>1940</ele>
        <time>2024-06-06T07:35:50+00:00</time>
      </trkpt>
      <trkpt lat="45.45321" lon="6.21327">
        <ele>1935</ele>
        <time>2024-06-06T07:35:53+00:00</time>
      </trkpt>
      <trkpt lat="45.45325" lon="6.21331">
        <ele>1936</ele>
        <time>2024-06-06T07:35:56+00:00</time>
      </trkpt>
      <trkpt lat="45.45329" lon="6.21333">
        <ele>1936</ele>
        <time>2024-06-06T07:35:59+00:00</time>
      </trkpt>
      <trkpt lat="45.45338" lon="6.21336">
        <ele>1933</ele>
        <time>2024-06-06T07:36:02+00:00</time>
      </trkpt>
      <trkpt lat="45.45347" lon="6.21341">
        <ele>1930</ele>
        <time>2024-06-06T07:36:05+00:00</time>
      </trkpt>
      <trkpt lat="45.45353" lon="6.21346">
        <ele>1926</ele>
        <time>2024-06-06T07:36:08+00:00</time>
      </trkpt>
      <trkpt lat="45.45357" lon="6.21349">
        <ele>1926</ele>
        <time>2024-06-06T07:36:11+00:00</time>
      </trkpt>
      <trkpt lat="45.45362" lon="6.21352">
        <ele>1922</ele>
        <time>2024-06-06T07:36:14+00:00</time>
      </trkpt>
      <trkpt lat="45.45364" lon="6.21352">
        <ele>1922</ele>
        <time>2024-06-06T07:36:17+00:00</time>
      </trkpt>
      <trkpt lat="45.45373" lon="6.21357">
        <ele>1919</ele>
        <time>2024-06-06T07:36:20+00:00</time>
      </trkpt>
      <trkpt lat="45.45378" lon="6.21358">
        <ele>1919</ele>
        <time>2024-06-06T07:36:23+00:00</time>
      </trkpt>
      <trkpt lat="45.45385" lon="6.2136">
        <ele>1916</ele>
        <time>2024-06-06T07:36:26+00:00</time>
      </trkpt>
      <trkpt lat="45.4539" lon="6.21362">
        <ele>1915</ele>
        <time>2024-06-06T07:36:29+00:00</time>
      </trkpt>
      <trkpt lat="45.45396" lon="6.21364">
        <ele>1913</ele>
        <time>2024-06-06T07:36:32+00:00</time>
      </trkpt>
      <trkpt lat="45.45404" lon="6.21368">
        <ele>1911</ele>
        <time>2024-06-06T07:36:35+00:00</time>
      </trkpt>
      <trkpt lat="45.4541" lon="6.21371">
        <ele>1911</ele>
        <time>2024-06-06T07:36:38+00:00</time>
      </trkpt>
      <trkpt lat="45.45414" lon="6.21374">
        <ele>1908</ele>
        <time>2024-06-06T07:36:41+00:00</time>
      </trkpt>
      <trkpt lat="45.45417" lon="6.21375">
        <ele>1908</ele>
        <time>2024-06-06T07:36:44+00:00</time>
      </trkpt>
      <trkpt lat="45.45421" lon="6.21374">
        <ele>1906</ele>
        <time>2024-06-06T07:36:47+00:00</time>
      </trkpt>
      <trkpt lat="45.45423" lon="6.21372">
        <ele>1906</ele>
        <time>2024-06-06T07:36:50+00:00</time>
      </trkpt>
      <trkpt lat="45.45428" lon="6.21369">
        <ele>1906</ele>
        <time>2024-06-06T07:36:53+00:00</time>
      </trkpt>
      <trkpt lat="45.45432" lon="6.21368">
        <ele>1904</ele>
        <time>2024-06-06T07:36:56+00:00</time>
      </trkpt>
      <trkpt lat="45.45436" lon="6.21366">
        <ele>1904</ele>
        <time>2024-06-06T07:36:59+00:00</time>
      </trkpt>
      <trkpt lat="45.45443" lon="6.21367">
        <ele>1899</ele>
        <time>2024-06-06T07:37:02+00:00</time>
      </trkpt>
      <trkpt lat="45.45449" lon="6.21369">
        <ele>1899</ele>
        <time>2024-06-06T07:37:05+00:00</time>
      </trkpt>
      <trkpt lat="45.45454" lon="6.21373">
        <ele>1898</ele>
        <time>2024-06-06T07:37:08+00:00</time>
      </trkpt>
      <trkpt lat="45.45458" lon="6.21378">
        <ele>1898</ele>
        <time>2024-06-06T07:37:11+00:00</time>
      </trkpt>
      <trkpt lat="45.45463" lon="6.21382">
        <ele>1897</ele>
        <time>2024-06-06T07:37:14+00:00</time>
      </trkpt>
      <trkpt lat="45.45468" lon="6.21384">
        <ele>1897</ele>
        <time>2024-06-06T07:37:17+00:00</time>
      </trkpt>
      <trkpt lat="45.45475" lon="6.21386">
        <ele>1895</ele>
        <time>2024-06-06T07:37:20+00:00</time>
      </trkpt>
      <trkpt lat="45.45481" lon="6.21388">
        <ele>1895</ele>
        <time>2024-06-06T07:37:23+00:00</time>
      </trkpt>
      <trkpt lat="45.45487" lon="6.2139">
        <ele>1896</ele>
        <time>2024-06-06T07:37:26+00:00</time>
      </trkpt>
      <trkpt lat="45.45493" lon="6.21391">
        <ele>1896</ele>
        <time>2024-06-06T07:37:29+00:00</time>
      </trkpt>
      <trkpt lat="45.45499" lon="6.21392">
        <ele>1896</ele>
        <time>2024-06-06T07:37:32+00:00</time>
      </trkpt>
      <trkpt lat="45.45506" lon="6.21393">
        <ele>1896</ele>
        <time>2024-06-06T07:37:35+00:00</time>
      </trkpt>
      <trkpt lat="45.45512" lon="6.21394">
        <ele>1896</ele>
        <time>2024-06-06T07:37:38+00:00</time>
      </trkpt>
      <trkpt lat="45.45517" lon="6.21396">
        <ele>1896</ele>
        <time>2024-06-06T07:37:41+00:00</time>
      </trkpt>
      <trkpt lat="45.45525" lon="6.21399">
        <ele>1895</ele>
        <time>2024-06-06T07:37:44+00:00</time>
      </trkpt>
      <trkpt lat="45.45531" lon="6.21402">
        <ele>1893</ele>
        <time>2024-06-06T07:37:47+00:00</time>
      </trkpt>
      <trkpt lat="45.45539" lon="6.21405">
        <ele>1893</ele>
        <time>2024-06-06T07:37:50+00:00</time>
      </trkpt>
      <trkpt lat="45.45546" lon="6.21411">
        <ele>1894</ele>
        <time>2024-06-06T07:37:53+00:00</time>
      </trkpt>
      <trkpt lat="45.45557" lon="6.21418">
        <ele>1892</ele>
        <time>2024-06-06T07:37:56+00:00</time>
      </trkpt>
      <trkpt lat="45.45565" lon="6.21425">
        <ele>1894</ele>
        <time>2024-06-06T07:37:59+00:00</time>
      </trkpt>
      <trkpt lat="45.45571" lon="6.21431">
        <ele>1895</ele>
        <time>2024-06-06T07:38:02+00:00</time>
      </trkpt>
      <trkpt lat="45.4558" lon="6.21438">
        <ele>1895</ele>
        <time>2024-06-06T07:38:05+00:00</time>
      </trkpt>
      <trkpt lat="45.45585" lon="6.21441">
        <ele>1893</ele>
        <time>2024-06-06T07:38:08+00:00</time>
      </trkpt>
      <trkpt lat="45.4559" lon="6.21445">
        <ele>1893</ele>
        <time>2024-06-06T07:38:11+00:00</time>
      </trkpt>
      <trkpt lat="45.45596" lon="6.21451">
        <ele>1894</ele>
        <time>2024-06-06T07:38:14+00:00</time>
      </trkpt>
      <trkpt lat="45.45602" lon="6.21458">
        <ele>1893</ele>
        <time>2024-06-06T07:38:17+00:00</time>
      </trkpt>
      <trkpt lat="45.45607" lon="6.21463">
        <ele>1893</ele>
        <time>2024-06-06T07:38:20+00:00</time>
      </trkpt>
      <trkpt lat="45.45613" lon="6.21466">
        <ele>1893</ele>
        <time>2024-06-06T07:38:23+00:00</time>
      </trkpt>
      <trkpt lat="45.45616" lon="6.21471">
        <ele>1890</ele>
        <time>2024-06-06T07:38:26+00:00</time>
      </trkpt>
      <trkpt lat="45.4562" lon="6.21476">
        <ele>1891</ele>
        <time>2024-06-06T07:38:29+00:00</time>
      </trkpt>
      <trkpt lat="45.45626" lon="6.21484">
        <ele>1890</ele>
        <time>2024-06-06T07:38:32+00:00</time>
      </trkpt>
      <trkpt lat="45.45634" lon="6.2149">
        <ele>1889</ele>
        <time>2024-06-06T07:38:35+00:00</time>
      </trkpt>
      <trkpt lat="45.45638" lon="6.21494">
        <ele>1889</ele>
        <time>2024-06-06T07:38:38+00:00</time>
      </trkpt>
      <trkpt lat="45.45644" lon="6.215">
        <ele>1887</ele>
        <time>2024-06-06T07:38:41+00:00</time>
      </trkpt>
      <trkpt lat="45.45652" lon="6.21507">
        <ele>1886</ele>
        <time>2024-06-06T07:38:44+00:00</time>
      </trkpt>
      <trkpt lat="45.45659" lon="6.21514">
        <ele>1885</ele>
        <time>2024-06-06T07:38:47+00:00</time>
      </trkpt>
      <trkpt lat="45.45666" lon="6.21522">
        <ele>1884</ele>
        <time>2024-06-06T07:38:50+00:00</time>
      </trkpt>
      <trkpt lat="45.45672" lon="6.21527">
        <ele>1884</ele>
        <time>2024-06-06T07:38:53+00:00</time>
      </trkpt>
      <trkpt lat="45.45675" lon="6.21529">
        <ele>1884</ele>
        <time>2024-06-06T07:38:56+00:00</time>
      </trkpt>
      <trkpt lat="45.45678" lon="6.21531">
        <ele>1883</ele>
        <time>2024-06-06T07:38:59+00:00</time>
      </trkpt>
      <trkpt lat="45.45685" lon="6.21535">
        <ele>1883</ele>
        <time>2024-06-06T07:39:02+00:00</time>
      </trkpt>
      <trkpt lat="45.45692" lon="6.21542">
        <ele>1881</ele>
        <time>2024-06-06T07:39:05+00:00</time>
      </trkpt>
      <trkpt lat="45.45699" lon="6.21549">
        <ele>1881</ele>
        <time>2024-06-06T07:39:08+00:00</time>
      </trkpt>
      <trkpt lat="45.45703" lon="6.21555">
        <ele>1880</ele>
        <time>2024-06-06T07:39:11+00:00</time>
      </trkpt>
      <trkpt lat="45.45706" lon="6.21559">
        <ele>1880</ele>
        <time>2024-06-06T07:39:14+00:00</time>
      </trkpt>
      <trkpt lat="45.45711" lon="6.21563">
        <ele>1879</ele>
        <time>2024-06-06T07:39:17+00:00</time>
      </trkpt>
      <trkpt lat="45.45716" lon="6.2157">
        <ele>1880</ele>
        <time>2024-06-06T07:39:20+00:00</time>
      </trkpt>
      <trkpt lat="45.45721" lon="6.21576">
        <ele>1879</ele>
        <time>2024-06-06T07:39:23+00:00</time>
      </trkpt>
      <trkpt lat="45.45727" lon="6.21583">
        <ele>1879</ele>
        <time>2024-06-06T07:39:26+00:00</time>
      </trkpt>
      <trkpt lat="45.45728" lon="6.21587">
        <ele>1879</ele>
        <time>2024-06-06T07:39:29+00:00</time>
      </trkpt>
      <trkpt lat="45.4573" lon="6.2159">
        <ele>1877</ele>
        <time>2024-06-06T07:39:32+00:00</time>
      </trkpt>
      <trkpt lat="45.45733" lon="6.21594">
        <ele>1877</ele>
        <time>2024-06-06T07:39:35+00:00</time>
      </trkpt>
      <trkpt lat="45.45735" lon="6.216">
        <ele>1873</ele>
        <time>2024-06-06T07:39:38+00:00</time>
      </trkpt>
      <trkpt lat="45.45739" lon="6.21607">
        <ele>1873</ele>
        <time>2024-06-06T07:39:41+00:00</time>
      </trkpt>
      <trkpt lat="45.45742" lon="6.21613">
        <ele>1877</ele>
        <time>2024-06-06T07:39:44+00:00</time>
      </trkpt>
      <trkpt lat="45.45743" lon="6.21618">
        <ele>1877</ele>
        <time>2024-06-06T07:39:47+00:00</time>
      </trkpt>
      <trkpt lat="45.45743" lon="6.21624">
        <ele>1876</ele>
        <time>2024-06-06T07:39:50+00:00</time>
      </trkpt>
      <trkpt lat="45.45745" lon="6.21628">
        <ele>1876</ele>
        <time>2024-06-06T07:39:53+00:00</time>
      </trkpt>
      <trkpt lat="45.45749" lon="6.21632">
        <ele>1872</ele>
        <time>2024-06-06T07:39:56+00:00</time>
      </trkpt>
      <trkpt lat="45.45754" lon="6.21636">
        <ele>1873</ele>
        <time>2024-06-06T07:39:59+00:00</time>
      </trkpt>
      <trkpt lat="45.45758" lon="6.21641">
        <ele>1870</ele>
        <time>2024-06-06T07:40:02+00:00</time>
      </trkpt>
      <trkpt lat="45.45763" lon="6.21644">
        <ele>1871</ele>
        <time>2024-06-06T07:40:05+00:00</time>
      </trkpt>
      <trkpt lat="45.45767" lon="6.21647">
        <ele>1871</ele>
        <time>2024-06-06T07:40:08+00:00</time>
      </trkpt>
      <trkpt lat="45.4577" lon="6.21648">
        <ele>1868</ele>
        <time>2024-06-06T07:40:11+00:00</time>
      </trkpt>
      <trkpt lat="45.45772" lon="6.21652">
        <ele>1868</ele>
        <time>2024-06-06T07:40:14+00:00</time>
      </trkpt>
      <trkpt lat="45.45772" lon="6.21655">
        <ele>1868</ele>
        <time>2024-06-06T07:40:17+00:00</time>
      </trkpt>
      <trkpt lat="45.45773" lon="6.21657">
        <ele>1868</ele>
        <time>2024-06-06T07:40:20+00:00</time>
      </trkpt>
      <trkpt lat="45.45776" lon="6.2166">
        <ele>1864</ele>
        <time>2024-06-06T07:40:23+00:00</time>
      </trkpt>
      <trkpt lat="45.45778" lon="6.21662">
        <ele>1864</ele>
        <time>2024-06-06T07:40:26+00:00</time>
      </trkpt>
      <trkpt lat="45.4578" lon="6.21666">
        <ele>1864</ele>
        <time>2024-06-06T07:40:29+00:00</time>
      </trkpt>
      <trkpt lat="45.45783" lon="6.21669">
        <ele>1864</ele>
        <time>2024-06-06T07:40:32+00:00</time>
      </trkpt>
      <trkpt lat="45.45788" lon="6.21676">
        <ele>1862</ele>
        <time>2024-06-06T07:40:35+00:00</time>
      </trkpt>
      <trkpt lat="45.45796" lon="6.21686">
        <ele>1859</ele>
        <time>2024-06-06T07:40:38+00:00</time>
      </trkpt>
      <trkpt lat="45.45804" lon="6.21693">
        <ele>1854</ele>
        <time>2024-06-06T07:40:41+00:00</time>
      </trkpt>
      <trkpt lat="45.45811" lon="6.21703">
        <ele>1852</ele>
        <time>2024-06-06T07:40:44+00:00</time>
      </trkpt>
      <trkpt lat="45.45828" lon="6.21721">
        <ele>1852</ele>
        <time>2024-06-06T07:40:47+00:00</time>
      </trkpt>
      <trkpt lat="45.45838" lon="6.21734">
        <ele>1853</ele>
        <time>2024-06-06T07:40:50+00:00</time>
      </trkpt>
      <trkpt lat="45.45857" lon="6.21746">
        <ele>1851</ele>
        <time>2024-06-06T07:40:53+00:00</time>
      </trkpt>
      <trkpt lat="45.45859" lon="6.2175">
        <ele>1847</ele>
        <time>2024-06-06T07:40:56+00:00</time>
      </trkpt>
      <trkpt lat="45.45862" lon="6.21755">
        <ele>1849</ele>
        <time>2024-06-06T07:40:59+00:00</time>
      </trkpt>
      <trkpt lat="45.45864" lon="6.21761">
        <ele>1847</ele>
        <time>2024-06-06T07:41:02+00:00</time>
      </trkpt>
      <trkpt lat="45.45868" lon="6.2177">
        <ele>1847</ele>
        <time>2024-06-06T07:41:05+00:00</time>
      </trkpt>
      <trkpt lat="45.45871" lon="6.21775">
        <ele>1845</ele>
        <time>2024-06-06T07:41:08+00:00</time>
      </trkpt>
      <trkpt lat="45.45872" lon="6.21779">
        <ele>1845</ele>
        <time>2024-06-06T07:41:11+00:00</time>
      </trkpt>
      <trkpt lat="45.45873" lon="6.21783">
        <ele>1845</ele>
        <time>2024-06-06T07:41:14+00:00</time>
      </trkpt>
      <trkpt lat="45.45876" lon="6.21785">
        <ele>1845</ele>
        <time>2024-06-06T07:41:17+00:00</time>
      </trkpt>
      <trkpt lat="45.45878" lon="6.21789">
        <ele>1845</ele>
        <time>2024-06-06T07:41:20+00:00</time>
      </trkpt>
      <trkpt lat="45.45877" lon="6.21792">
        <ele>1842</ele>
        <time>2024-06-06T07:41:23+00:00</time>
      </trkpt>
      <trkpt lat="45.45879" lon="6.21797">
        <ele>1842</ele>
        <time>2024-06-06T07:41:26+00:00</time>
      </trkpt>
      <trkpt lat="45.45879" lon="6.21802">
        <ele>1840</ele>
        <time>2024-06-06T07:41:29+00:00</time>
      </trkpt>
      <trkpt lat="45.4588" lon="6.21805">
        <ele>1842</ele>
        <time>2024-06-06T07:41:32+00:00</time>
      </trkpt>
      <trkpt lat="45.45882" lon="6.21809">
        <ele>1842</ele>
        <time>2024-06-06T07:41:35+00:00</time>
      </trkpt>
      <trkpt lat="45.45883" lon="6.21814">
        <ele>1838</ele>
        <time>2024-06-06T07:41:38+00:00</time>
      </trkpt>
      <trkpt lat="45.45886" lon="6.21817">
        <ele>1838</ele>
        <time>2024-06-06T07:41:41+00:00</time>
      </trkpt>
      <trkpt lat="45.45888" lon="6.21821">
        <ele>1836</ele>
        <time>2024-06-06T07:41:44+00:00</time>
      </trkpt>
      <trkpt lat="45.45891" lon="6.21823">
        <ele>1838</ele>
        <time>2024-06-06T07:41:47+00:00</time>
      </trkpt>
      <trkpt lat="45.45896" lon="6.21824">
        <ele>1838</ele>
        <time>2024-06-06T07:41:50+00:00</time>
      </trkpt>
      <trkpt lat="45.45899" lon="6.21825">
        <ele>1838</ele>
        <time>2024-06-06T07:41:53+00:00</time>
      </trkpt>
      <trkpt lat="45.45901" lon="6.21828">
        <ele>1836</ele>
        <time>2024-06-06T07:41:56+00:00</time>
      </trkpt>
      <trkpt lat="45.45904" lon="6.2183">
        <ele>1837</ele>
        <time>2024-06-06T07:41:59+00:00</time>
      </trkpt>
      <trkpt lat="45.45907" lon="6.21832">
        <ele>1837</ele>
        <time>2024-06-06T07:42:02+00:00</time>
      </trkpt>
      <trkpt lat="45.4591" lon="6.21834">
        <ele>1834</ele>
        <time>2024-06-06T07:42:05+00:00</time>
      </trkpt>
      <trkpt lat="45.45914" lon="6.21837">
        <ele>1834</ele>
        <time>2024-06-06T07:42:08+00:00</time>
      </trkpt>
      <trkpt lat="45.45916" lon="6.21841">
        <ele>1834</ele>
        <time>2024-06-06T07:42:11+00:00</time>
      </trkpt>
      <trkpt lat="45.45919" lon="6.21844">
        <ele>1834</ele>
        <time>2024-06-06T07:42:14+00:00</time>
      </trkpt>
      <trkpt lat="45.45921" lon="6.21847">
        <ele>1829</ele>
        <time>2024-06-06T07:42:17+00:00</time>
      </trkpt>
      <trkpt lat="45.45922" lon="6.21852">
        <ele>1828</ele>
        <time>2024-06-06T07:42:20+00:00</time>
      </trkpt>
      <trkpt lat="45.45922" lon="6.21856">
        <ele>1828</ele>
        <time>2024-06-06T07:42:23+00:00</time>
      </trkpt>
      <trkpt lat="45.45923" lon="6.21859">
        <ele>1828</ele>
        <time>2024-06-06T07:42:26+00:00</time>
      </trkpt>
      <trkpt lat="45.45925" lon="6.2186">
        <ele>1825</ele>
        <time>2024-06-06T07:42:29+00:00</time>
      </trkpt>
      <trkpt lat="45.45925" lon="6.21863">
        <ele>1825</ele>
        <time>2024-06-06T07:42:32+00:00</time>
      </trkpt>
      <trkpt lat="45.45927" lon="6.21866">
        <ele>1825</ele>
        <time>2024-06-06T07:42:35+00:00</time>
      </trkpt>
      <trkpt lat="45.4593" lon="6.21868">
        <ele>1825</ele>
        <time>2024-06-06T07:42:38+00:00</time>
      </trkpt>
      <trkpt lat="45.45931" lon="6.21871">
        <ele>1819</ele>
        <time>2024-06-06T07:42:41+00:00</time>
      </trkpt>
      <trkpt lat="45.45932" lon="6.21875">
        <ele>1819</ele>
        <time>2024-06-06T07:42:44+00:00</time>
      </trkpt>
      <trkpt lat="45.45935" lon="6.21877">
        <ele>1819</ele>
        <time>2024-06-06T07:42:47+00:00</time>
      </trkpt>
      <trkpt lat="45.45937" lon="6.21879">
        <ele>1819</ele>
        <time>2024-06-06T07:42:50+00:00</time>
      </trkpt>
      <trkpt lat="45.4594" lon="6.21882">
        <ele>1817</ele>
        <time>2024-06-06T07:42:53+00:00</time>
      </trkpt>
      <trkpt lat="45.45945" lon="6.21886">
        <ele>1817</ele>
        <time>2024-06-06T07:42:56+00:00</time>
      </trkpt>
      <trkpt lat="45.45949" lon="6.21889">
        <ele>1817</ele>
        <time>2024-06-06T07:42:59+00:00</time>
      </trkpt>
      <trkpt lat="45.45951" lon="6.21892">
        <ele>1813</ele>
        <time>2024-06-06T07:43:02+00:00</time>
      </trkpt>
      <trkpt lat="45.45952" lon="6.21895">
        <ele>1813</ele>
        <time>2024-06-06T07:43:05+00:00</time>
      </trkpt>
      <trkpt lat="45.45953" lon="6.21897">
        <ele>1813</ele>
        <time>2024-06-06T07:43:08+00:00</time>
      </trkpt>
      <trkpt lat="45.45956" lon="6.21899">
        <ele>1813</ele>
        <time>2024-06-06T07:43:11+00:00</time>
      </trkpt>
      <trkpt lat="45.45959" lon="6.21901">
        <ele>1808</ele>
        <time>2024-06-06T07:43:14+00:00</time>
      </trkpt>
      <trkpt lat="45.45962" lon="6.21903">
        <ele>1807</ele>
        <time>2024-06-06T07:43:17+00:00</time>
      </trkpt>
      <trkpt lat="45.45965" lon="6.21905">
        <ele>1807</ele>
        <time>2024-06-06T07:43:20+00:00</time>
      </trkpt>
      <trkpt lat="45.45968" lon="6.21905">
        <ele>1807</ele>
        <time>2024-06-06T07:43:23+00:00</time>
      </trkpt>
      <trkpt lat="45.45971" lon="6.21906">
        <ele>1805</ele>
        <time>2024-06-06T07:43:26+00:00</time>
      </trkpt>
      <trkpt lat="45.45974" lon="6.21906">
        <ele>1805</ele>
        <time>2024-06-06T07:43:29+00:00</time>
      </trkpt>
      <trkpt lat="45.45976" lon="6.21908">
        <ele>1805</ele>
        <time>2024-06-06T07:43:32+00:00</time>
      </trkpt>
      <trkpt lat="45.45977" lon="6.21911">
        <ele>1803</ele>
        <time>2024-06-06T07:43:35+00:00</time>
      </trkpt>
      <trkpt lat="45.45979" lon="6.21913">
        <ele>1803</ele>
        <time>2024-06-06T07:43:38+00:00</time>
      </trkpt>
      <trkpt lat="45.45981" lon="6.21914">
        <ele>1799</ele>
        <time>2024-06-06T07:43:41+00:00</time>
      </trkpt>
      <trkpt lat="45.45983" lon="6.21914">
        <ele>1799</ele>
        <time>2024-06-06T07:43:44+00:00</time>
      </trkpt>
      <trkpt lat="45.45984" lon="6.21917">
        <ele>1799</ele>
        <time>2024-06-06T07:43:47+00:00</time>
      </trkpt>
      <trkpt lat="45.45984" lon="6.21921">
        <ele>1797</ele>
        <time>2024-06-06T07:43:50+00:00</time>
      </trkpt>
      <trkpt lat="45.45981" lon="6.21924">
        <ele>1797</ele>
        <time>2024-06-06T07:43:53+00:00</time>
      </trkpt>
      <trkpt lat="45.45978" lon="6.21927">
        <ele>1799</ele>
        <time>2024-06-06T07:43:56+00:00</time>
      </trkpt>
      <trkpt lat="45.45976" lon="6.21929">
        <ele>1799</ele>
        <time>2024-06-06T07:43:59+00:00</time>
      </trkpt>
      <trkpt lat="45.45975" lon="6.21932">
        <ele>1794</ele>
        <time>2024-06-06T07:44:02+00:00</time>
      </trkpt>
      <trkpt lat="45.45975" lon="6.21935">
        <ele>1794</ele>
        <time>2024-06-06T07:44:05+00:00</time>
      </trkpt>
      <trkpt lat="45.45978" lon="6.21935">
        <ele>1794</ele>
        <time>2024-06-06T07:44:08+00:00</time>
      </trkpt>
      <trkpt lat="45.45982" lon="6.21935">
        <ele>1792</ele>
        <time>2024-06-06T07:44:11+00:00</time>
      </trkpt>
      <trkpt lat="45.45985" lon="6.21935">
        <ele>1792</ele>
        <time>2024-06-06T07:44:14+00:00</time>
      </trkpt>
      <trkpt lat="45.45988" lon="6.21939">
        <ele>1792</ele>
        <time>2024-06-06T07:44:17+00:00</time>
      </trkpt>
      <trkpt lat="45.45991" lon="6.21943">
        <ele>1786</ele>
        <time>2024-06-06T07:44:20+00:00</time>
      </trkpt>
      <trkpt lat="45.45994" lon="6.21943">
        <ele>1786</ele>
        <time>2024-06-06T07:44:23+00:00</time>
      </trkpt>
      <trkpt lat="45.45997" lon="6.21947">
        <ele>1786</ele>
        <time>2024-06-06T07:44:26+00:00</time>
      </trkpt>
      <trkpt lat="45.46" lon="6.21951">
        <ele>1780</ele>
        <time>2024-06-06T07:44:29+00:00</time>
      </trkpt>
      <trkpt lat="45.46002" lon="6.21957">
        <ele>1780</ele>
        <time>2024-06-06T07:44:32+00:00</time>
      </trkpt>
      <trkpt lat="45.46005" lon="6.21962">
        <ele>1779</ele>
        <time>2024-06-06T07:44:35+00:00</time>
      </trkpt>
      <trkpt lat="45.46005" lon="6.21965">
        <ele>1779</ele>
        <time>2024-06-06T07:44:38+00:00</time>
      </trkpt>
      <trkpt lat="45.46008" lon="6.21969">
        <ele>1779</ele>
        <time>2024-06-06T07:44:41+00:00</time>
      </trkpt>
      <trkpt lat="45.4601" lon="6.21971">
        <ele>1771</ele>
        <time>2024-06-06T07:44:44+00:00</time>
      </trkpt>
      <trkpt lat="45.46013" lon="6.21973">
        <ele>1771</ele>
        <time>2024-06-06T07:44:47+00:00</time>
      </trkpt>
      <trkpt lat="45.46016" lon="6.21976">
        <ele>1771</ele>
        <time>2024-06-06T07:44:50+00:00</time>
      </trkpt>
      <trkpt lat="45.46018" lon="6.21979">
        <ele>1771</ele>
        <time>2024-06-06T07:44:53+00:00</time>
      </trkpt>
      <trkpt lat="45.46019" lon="6.21982">
        <ele>1770</ele>
        <time>2024-06-06T07:44:56+00:00</time>
      </trkpt>
      <trkpt lat="45.4602" lon="6.2198">
        <ele>1768</ele>
        <time>2024-06-06T07:44:59+00:00</time>
      </trkpt>
      <trkpt lat="45.46022" lon="6.21978">
        <ele>1769</ele>
        <time>2024-06-06T07:45:02+00:00</time>
      </trkpt>
      <trkpt lat="45.46024" lon="6.21977">
        <ele>1769</ele>
        <time>2024-06-06T07:45:05+00:00</time>
      </trkpt>
      <trkpt lat="45.46026" lon="6.21979">
        <ele>1769</ele>
        <time>2024-06-06T07:45:08+00:00</time>
      </trkpt>
      <trkpt lat="45.46027" lon="6.21976">
        <ele>1769</ele>
        <time>2024-06-06T07:45:11+00:00</time>
      </trkpt>
      <trkpt lat="45.46027" lon="6.21971">
        <ele>1769</ele>
        <time>2024-06-06T07:45:14+00:00</time>
      </trkpt>
      <trkpt lat="45.46027" lon="6.21966">
        <ele>1769</ele>
        <time>2024-06-06T07:45:17+00:00</time>
      </trkpt>
      <trkpt lat="45.46028" lon="6.21963">
        <ele>1769</ele>
        <time>2024-06-06T07:45:20+00:00</time>
      </trkpt>
      <trkpt lat="45.46029" lon="6.2196">
        <ele>1769</ele>
        <time>2024-06-06T07:45:23+00:00</time>
      </trkpt>
      <trkpt lat="45.46032" lon="6.2196">
        <ele>1761</ele>
        <time>2024-06-06T07:45:26+00:00</time>
      </trkpt>
      <trkpt lat="45.46035" lon="6.21964">
        <ele>1761</ele>
        <time>2024-06-06T07:45:29+00:00</time>
      </trkpt>
      <trkpt lat="45.46039" lon="6.21968">
        <ele>1761</ele>
        <time>2024-06-06T07:45:32+00:00</time>
      </trkpt>
      <trkpt lat="45.46042" lon="6.21971">
        <ele>1755</ele>
        <time>2024-06-06T07:45:35+00:00</time>
      </trkpt>
      <trkpt lat="45.46044" lon="6.21977">
        <ele>1755</ele>
        <time>2024-06-06T07:45:38+00:00</time>
      </trkpt>
      <trkpt lat="45.46045" lon="6.21981">
        <ele>1755</ele>
        <time>2024-06-06T07:45:41+00:00</time>
      </trkpt>
      <trkpt lat="45.46047" lon="6.21984">
        <ele>1755</ele>
        <time>2024-06-06T07:45:44+00:00</time>
      </trkpt>
      <trkpt lat="45.46049" lon="6.21988">
        <ele>1755</ele>
        <time>2024-06-06T07:45:47+00:00</time>
      </trkpt>
      <trkpt lat="45.46052" lon="6.21994">
        <ele>1748</ele>
        <time>2024-06-06T07:45:50+00:00</time>
      </trkpt>
      <trkpt lat="45.46054" lon="6.21997">
        <ele>1748</ele>
        <time>2024-06-06T07:45:53+00:00</time>
      </trkpt>
      <trkpt lat="45.46056" lon="6.21999">
        <ele>1748</ele>
        <time>2024-06-06T07:45:56+00:00</time>
      </trkpt>
      <trkpt lat="45.46058" lon="6.22002">
        <ele>1748</ele>
        <time>2024-06-06T07:45:59+00:00</time>
      </trkpt>
      <trkpt lat="45.4606" lon="6.22005">
        <ele>1742</ele>
        <time>2024-06-06T07:46:02+00:00</time>
      </trkpt>
      <trkpt lat="45.46063" lon="6.22005">
        <ele>1742</ele>
        <time>2024-06-06T07:46:05+00:00</time>
      </trkpt>
      <trkpt lat="45.46065" lon="6.22004">
        <ele>1742</ele>
        <time>2024-06-06T07:46:08+00:00</time>
      </trkpt>
      <trkpt lat="45.46067" lon="6.22003">
        <ele>1742</ele>
        <time>2024-06-06T07:46:11+00:00</time>
      </trkpt>
      <trkpt lat="45.4607" lon="6.22001">
        <ele>1739</ele>
        <time>2024-06-06T07:46:14+00:00</time>
      </trkpt>
      <trkpt lat="45.46073" lon="6.22001">
        <ele>1739</ele>
        <time>2024-06-06T07:46:17+00:00</time>
      </trkpt>
      <trkpt lat="45.46077" lon="6.22001">
        <ele>1739</ele>
        <time>2024-06-06T07:46:20+00:00</time>
      </trkpt>
      <trkpt lat="45.46079" lon="6.22003">
        <ele>1739</ele>
        <time>2024-06-06T07:46:23+00:00</time>
      </trkpt>
      <trkpt lat="45.46102" lon="6.2202">
        <ele>1729</ele>
        <time>2024-06-06T07:46:26+00:00</time>
      </trkpt>
      <trkpt lat="45.4613" lon="6.2204">
        <ele>1725</ele>
        <time>2024-06-06T07:46:29+00:00</time>
      </trkpt>
      <trkpt lat="45.46135" lon="6.22036">
        <ele>1722</ele>
        <time>2024-06-06T07:46:32+00:00</time>
      </trkpt>
      <trkpt lat="45.46137" lon="6.22018">
        <ele>1721</ele>
        <time>2024-06-06T07:46:35+00:00</time>
      </trkpt>
      <trkpt lat="45.46147" lon="6.21994">
        <ele>1719</ele>
        <time>2024-06-06T07:46:38+00:00</time>
      </trkpt>
      <trkpt lat="45.46164" lon="6.21971">
        <ele>1711</ele>
        <time>2024-06-06T07:46:41+00:00</time>
      </trkpt>
      <trkpt lat="45.46181" lon="6.21958">
        <ele>1702</ele>
        <time>2024-06-06T07:46:44+00:00</time>
      </trkpt>
      <trkpt lat="45.46197" lon="6.21944">
        <ele>1698</ele>
        <time>2024-06-06T07:46:47+00:00</time>
      </trkpt>
      <trkpt lat="45.462" lon="6.21944">
        <ele>1697</ele>
        <time>2024-06-06T07:46:50+00:00</time>
      </trkpt>
      <trkpt lat="45.46215" lon="6.21943">
        <ele>1697</ele>
        <time>2024-06-06T07:46:53+00:00</time>
      </trkpt>
      <trkpt lat="45.46226" lon="6.21942">
        <ele>1696</ele>
        <time>2024-06-06T07:46:56+00:00</time>
      </trkpt>
      <trkpt lat="45.46237" lon="6.21939">
        <ele>1691</ele>
        <time>2024-06-06T07:46:59+00:00</time>
      </trkpt>
      <trkpt lat="45.46242" lon="6.21942">
        <ele>1692</ele>
        <time>2024-06-06T07:47:02+00:00</time>
      </trkpt>
      <trkpt lat="45.46255" lon="6.21953">
        <ele>1691</ele>
        <time>2024-06-06T07:47:05+00:00</time>
      </trkpt>
      <trkpt lat="45.46265" lon="6.21955">
        <ele>1690</ele>
        <time>2024-06-06T07:47:08+00:00</time>
      </trkpt>
      <trkpt lat="45.46275" lon="6.21962">
        <ele>1691</ele>
        <time>2024-06-06T07:47:11+00:00</time>
      </trkpt>
      <trkpt lat="45.46283" lon="6.21969">
        <ele>1687</ele>
        <time>2024-06-06T07:47:14+00:00</time>
      </trkpt>
      <trkpt lat="45.46292" lon="6.2197">
        <ele>1684</ele>
        <time>2024-06-06T07:47:17+00:00</time>
      </trkpt>
      <trkpt lat="45.46299" lon="6.21967">
        <ele>1685</ele>
        <time>2024-06-06T07:47:20+00:00</time>
      </trkpt>
      <trkpt lat="45.46305" lon="6.21968">
        <ele>1683</ele>
        <time>2024-06-06T07:47:23+00:00</time>
      </trkpt>
      <trkpt lat="45.46312" lon="6.21973">
        <ele>1679</ele>
        <time>2024-06-06T07:47:26+00:00</time>
      </trkpt>
      <trkpt lat="45.4632" lon="6.2198">
        <ele>1679</ele>
        <time>2024-06-06T07:47:29+00:00</time>
      </trkpt>
      <trkpt lat="45.46329" lon="6.21987">
        <ele>1677</ele>
        <time>2024-06-06T07:47:32+00:00</time>
      </trkpt>
      <trkpt lat="45.46334" lon="6.21987">
        <ele>1674</ele>
        <time>2024-06-06T07:47:35+00:00</time>
      </trkpt>
      <trkpt lat="45.46342" lon="6.21988">
        <ele>1669</ele>
        <time>2024-06-06T07:47:38+00:00</time>
      </trkpt>
      <trkpt lat="45.46352" lon="6.21991">
        <ele>1669</ele>
        <time>2024-06-06T07:47:41+00:00</time>
      </trkpt>
      <trkpt lat="45.46358" lon="6.21991">
        <ele>1669</ele>
        <time>2024-06-06T07:47:44+00:00</time>
      </trkpt>
      <trkpt lat="45.46365" lon="6.21991">
        <ele>1668</ele>
        <time>2024-06-06T07:47:47+00:00</time>
      </trkpt>
      <trkpt lat="45.46372" lon="6.21985">
        <ele>1663</ele>
        <time>2024-06-06T07:47:50+00:00</time>
      </trkpt>
      <trkpt lat="45.46377" lon="6.21979">
        <ele>1660</ele>
        <time>2024-06-06T07:47:53+00:00</time>
      </trkpt>
      <trkpt lat="45.46385" lon="6.21974">
        <ele>1659</ele>
        <time>2024-06-06T07:47:56+00:00</time>
      </trkpt>
      <trkpt lat="45.46389" lon="6.2197">
        <ele>1659</ele>
        <time>2024-06-06T07:47:59+00:00</time>
      </trkpt>
      <trkpt lat="45.46393" lon="6.21969">
        <ele>1657</ele>
        <time>2024-06-06T07:48:02+00:00</time>
      </trkpt>
      <trkpt lat="45.46399" lon="6.21972">
        <ele>1658</ele>
        <time>2024-06-06T07:48:05+00:00</time>
      </trkpt>
      <trkpt lat="45.46406" lon="6.21971">
        <ele>1656</ele>
        <time>2024-06-06T07:48:08+00:00</time>
      </trkpt>
      <trkpt lat="45.46412" lon="6.21969">
        <ele>1650</ele>
        <time>2024-06-06T07:48:11+00:00</time>
      </trkpt>
      <trkpt lat="45.4642" lon="6.21971">
        <ele>1653</ele>
        <time>2024-06-06T07:48:14+00:00</time>
      </trkpt>
      <trkpt lat="45.46426" lon="6.21973">
        <ele>1651</ele>
        <time>2024-06-06T07:48:17+00:00</time>
      </trkpt>
      <trkpt lat="45.46436" lon="6.21972">
        <ele>1650</ele>
        <time>2024-06-06T07:48:20+00:00</time>
      </trkpt>
      <trkpt lat="45.46441" lon="6.21965">
        <ele>1647</ele>
        <time>2024-06-06T07:48:23+00:00</time>
      </trkpt>
      <trkpt lat="45.46445" lon="6.21941">
        <ele>1642</ele>
        <time>2024-06-06T07:48:26+00:00</time>
      </trkpt>
      <trkpt lat="45.46478" lon="6.21918">
        <ele>1634</ele>
        <time>2024-06-06T07:48:29+00:00</time>
      </trkpt>
      <trkpt lat="45.46495" lon="6.21912">
        <ele>1629</ele>
        <time>2024-06-06T07:48:32+00:00</time>
      </trkpt>
      <trkpt lat="45.46503" lon="6.21909">
        <ele>1625</ele>
        <time>2024-06-06T07:48:35+00:00</time>
      </trkpt>
      <trkpt lat="45.46536" lon="6.21911">
        <ele>1623</ele>
        <time>2024-06-06T07:48:38+00:00</time>
      </trkpt>
      <trkpt lat="45.46544" lon="6.21911">
        <ele>1621</ele>
        <time>2024-06-06T07:48:41+00:00</time>
      </trkpt>
      <trkpt lat="45.46553" lon="6.21911">
        <ele>1619</ele>
        <time>2024-06-06T07:48:44+00:00</time>
      </trkpt>
      <trkpt lat="45.46562" lon="6.2191">
        <ele>1617</ele>
        <time>2024-06-06T07:48:47+00:00</time>
      </trkpt>
      <trkpt lat="45.46571" lon="6.21909">
        <ele>1611</ele>
        <time>2024-06-06T07:48:50+00:00</time>
      </trkpt>
      <trkpt lat="45.46578" lon="6.21909">
        <ele>1611</ele>
        <time>2024-06-06T07:48:53+00:00</time>
      </trkpt>
      <trkpt lat="45.46587" lon="6.21908">
        <ele>1610</ele>
        <time>2024-06-06T07:48:56+00:00</time>
      </trkpt>
      <trkpt lat="45.46594" lon="6.21905">
        <ele>1610</ele>
        <time>2024-06-06T07:48:59+00:00</time>
      </trkpt>
      <trkpt lat="45.46601" lon="6.21905">
        <ele>1610</ele>
        <time>2024-06-06T07:49:02+00:00</time>
      </trkpt>
      <trkpt lat="45.46602" lon="6.21905">
        <ele>1610</ele>
        <time>2024-06-06T07:49:05+00:00</time>
      </trkpt>
      <trkpt lat="45.46611" lon="6.21895">
        <ele>1609</ele>
        <time>2024-06-06T07:49:08+00:00</time>
      </trkpt>
      <trkpt lat="45.46607" lon="6.21875">
        <ele>1605</ele>
        <time>2024-06-06T07:49:11+00:00</time>
      </trkpt>
      <trkpt lat="45.46601" lon="6.21873">
        <ele>1605</ele>
        <time>2024-06-06T07:49:14+00:00</time>
      </trkpt>
      <trkpt lat="45.46596" lon="6.21871">
        <ele>1604</ele>
        <time>2024-06-06T07:49:17+00:00</time>
      </trkpt>
      <trkpt lat="45.46594" lon="6.2187">
        <ele>1601</ele>
        <time>2024-06-06T07:49:20+00:00</time>
      </trkpt>
      <trkpt lat="45.46587" lon="6.21861">
        <ele>1599</ele>
        <time>2024-06-06T07:49:23+00:00</time>
      </trkpt>
      <trkpt lat="45.46588" lon="6.21826">
        <ele>1588</ele>
        <time>2024-06-06T07:49:26+00:00</time>
      </trkpt>
      <trkpt lat="45.46599" lon="6.21797">
        <ele>1579</ele>
        <time>2024-06-06T07:49:29+00:00</time>
      </trkpt>
      <trkpt lat="45.46634" lon="6.21808">
        <ele>1573</ele>
        <time>2024-06-06T07:49:32+00:00</time>
      </trkpt>
      <trkpt lat="45.4665" lon="6.21816">
        <ele>1569</ele>
        <time>2024-06-06T07:49:35+00:00</time>
      </trkpt>
      <trkpt lat="45.46662" lon="6.21821">
        <ele>1569</ele>
        <time>2024-06-06T07:49:38+00:00</time>
      </trkpt>
      <trkpt lat="45.46674" lon="6.2183">
        <ele>1566</ele>
        <time>2024-06-06T07:49:41+00:00</time>
      </trkpt>
      <trkpt lat="45.46683" lon="6.21841">
        <ele>1569</ele>
        <time>2024-06-06T07:49:44+00:00</time>
      </trkpt>
      <trkpt lat="45.46699" lon="6.21853">
        <ele>1570</ele>
        <time>2024-06-06T07:49:47+00:00</time>
      </trkpt>
      <trkpt lat="45.46725" lon="6.21864">
        <ele>1568</ele>
        <time>2024-06-06T07:49:50+00:00</time>
      </trkpt>
      <trkpt lat="45.4674" lon="6.21873">
        <ele>1567</ele>
        <time>2024-06-06T07:49:53+00:00</time>
      </trkpt>
      <trkpt lat="45.4675" lon="6.21876">
        <ele>1565</ele>
        <time>2024-06-06T07:49:56+00:00</time>
      </trkpt>
      <trkpt lat="45.46761" lon="6.21874">
        <ele>1563</ele>
        <time>2024-06-06T07:49:59+00:00</time>
      </trkpt>
      <trkpt lat="45.46772" lon="6.21878">
        <ele>1560</ele>
        <time>2024-06-06T07:50:02+00:00</time>
      </trkpt>
      <trkpt lat="45.46793" lon="6.21881">
        <ele>1555</ele>
        <time>2024-06-06T07:50:05+00:00</time>
      </trkpt>
      <trkpt lat="45.46818" lon="6.21894">
        <ele>1549</ele>
        <time>2024-06-06T07:50:08+00:00</time>
      </trkpt>
      <trkpt lat="45.46848" lon="6.21911">
        <ele>1543</ele>
        <time>2024-06-06T07:50:11+00:00</time>
      </trkpt>
      <trkpt lat="45.46873" lon="6.21921">
        <ele>1535</ele>
        <time>2024-06-06T07:50:14+00:00</time>
      </trkpt>
      <trkpt lat="45.46881" lon="6.21922">
        <ele>1533</ele>
        <time>2024-06-06T07:50:17+00:00</time>
      </trkpt>
      <trkpt lat="45.46885" lon="6.21919">
        <ele>1530</ele>
        <time>2024-06-06T07:50:20+00:00</time>
      </trkpt>
      <trkpt lat="45.46887" lon="6.2191">
        <ele>1530</ele>
        <time>2024-06-06T07:50:23+00:00</time>
      </trkpt>
      <trkpt lat="45.46884" lon="6.21897">
        <ele>1526</ele>
        <time>2024-06-06T07:50:26+00:00</time>
      </trkpt>
      <trkpt lat="45.46882" lon="6.21883">
        <ele>1525</ele>
        <time>2024-06-06T07:50:29+00:00</time>
      </trkpt>
      <trkpt lat="45.46877" lon="6.21858">
        <ele>1517</ele>
        <time>2024-06-06T07:50:32+00:00</time>
      </trkpt>
      <trkpt lat="45.46865" lon="6.21821">
        <ele>1512</ele>
        <time>2024-06-06T07:50:35+00:00</time>
      </trkpt>
      <trkpt lat="45.46853" lon="6.21797">
        <ele>1509</ele>
        <time>2024-06-06T07:50:38+00:00</time>
      </trkpt>
      <trkpt lat="45.46878" lon="6.21782">
        <ele>1506</ele>
        <time>2024-06-06T07:50:41+00:00</time>
      </trkpt>
      <trkpt lat="45.46905" lon="6.2179">
        <ele>1501</ele>
        <time>2024-06-06T07:50:44+00:00</time>
      </trkpt>
      <trkpt lat="45.46913" lon="6.21789">
        <ele>1500</ele>
        <time>2024-06-06T07:50:47+00:00</time>
      </trkpt>
      <trkpt lat="45.46921" lon="6.21784">
        <ele>1498</ele>
        <time>2024-06-06T07:50:50+00:00</time>
      </trkpt>
      <trkpt lat="45.46947" lon="6.21796">
        <ele>1496</ele>
        <time>2024-06-06T07:50:53+00:00</time>
      </trkpt>
      <trkpt lat="45.46962" lon="6.21802">
        <ele>1495</ele>
        <time>2024-06-06T07:50:56+00:00</time>
      </trkpt>
      <trkpt lat="45.46981" lon="6.21812">
        <ele>1493</ele>
        <time>2024-06-06T07:50:59+00:00</time>
      </trkpt>
      <trkpt lat="45.47011" lon="6.21825">
        <ele>1489</ele>
        <time>2024-06-06T07:51:02+00:00</time>
      </trkpt>
      <trkpt lat="45.47036" lon="6.21846">
        <ele>1488</ele>
        <time>2024-06-06T07:51:05+00:00</time>
      </trkpt>
      <trkpt lat="45.4705" lon="6.21854">
        <ele>1479</ele>
        <time>2024-06-06T07:51:08+00:00</time>
      </trkpt>
      <trkpt lat="45.47066" lon="6.21862">
        <ele>1478</ele>
        <time>2024-06-06T07:51:11+00:00</time>
      </trkpt>
      <trkpt lat="45.47075" lon="6.21868">
        <ele>1475</ele>
        <time>2024-06-06T07:51:14+00:00</time>
      </trkpt>
      <trkpt lat="45.47087" lon="6.21876">
        <ele>1477</ele>
        <time>2024-06-06T07:51:17+00:00</time>
      </trkpt>
      <trkpt lat="45.47116" lon="6.21894">
        <ele>1472</ele>
        <time>2024-06-06T07:51:20+00:00</time>
      </trkpt>
      <trkpt lat="45.47133" lon="6.21918">
        <ele>1468</ele>
        <time>2024-06-06T07:51:23+00:00</time>
      </trkpt>
      <trkpt lat="45.47142" lon="6.21922">
        <ele>1467</ele>
        <time>2024-06-06T07:51:26+00:00</time>
      </trkpt>
      <trkpt lat="45.47155" lon="6.21927">
        <ele>1467</ele>
        <time>2024-06-06T07:51:29+00:00</time>
      </trkpt>
      <trkpt lat="45.47179" lon="6.21909">
        <ele>1464</ele>
        <time>2024-06-06T07:51:32+00:00</time>
      </trkpt>
      <trkpt lat="45.47194" lon="6.21894">
        <ele>1462</ele>
        <time>2024-06-06T07:51:35+00:00</time>
      </trkpt>
      <trkpt lat="45.47201" lon="6.21864">
        <ele>1458</ele>
        <time>2024-06-06T07:51:38+00:00</time>
      </trkpt>
      <trkpt lat="45.47198" lon="6.21839">
        <ele>1455</ele>
        <time>2024-06-06T07:51:41+00:00</time>
      </trkpt>
      <trkpt lat="45.47194" lon="6.21819">
        <ele>1451</ele>
        <time>2024-06-06T07:51:44+00:00</time>
      </trkpt>
      <trkpt lat="45.47195" lon="6.21802">
        <ele>1449</ele>
        <time>2024-06-06T07:51:47+00:00</time>
      </trkpt>
      <trkpt lat="45.47211" lon="6.21795">
        <ele>1445</ele>
        <time>2024-06-06T07:51:50+00:00</time>
      </trkpt>
      <trkpt lat="45.47239" lon="6.21806">
        <ele>1441</ele>
        <time>2024-06-06T07:51:53+00:00</time>
      </trkpt>
      <trkpt lat="45.47264" lon="6.21814">
        <ele>1434</ele>
        <time>2024-06-06T07:51:56+00:00</time>
      </trkpt>
      <trkpt lat="45.4727" lon="6.21805">
        <ele>1431</ele>
        <time>2024-06-06T07:51:59+00:00</time>
      </trkpt>
      <trkpt lat="45.47271" lon="6.21789">
        <ele>1426</ele>
        <time>2024-06-06T07:52:02+00:00</time>
      </trkpt>
      <trkpt lat="45.47274" lon="6.21779">
        <ele>1423</ele>
        <time>2024-06-06T07:52:05+00:00</time>
      </trkpt>
      <trkpt lat="45.47281" lon="6.21776">
        <ele>1419</ele>
        <time>2024-06-06T07:52:08+00:00</time>
      </trkpt>
      <trkpt lat="45.47298" lon="6.21784">
        <ele>1420</ele>
        <time>2024-06-06T07:52:11+00:00</time>
      </trkpt>
      <trkpt lat="45.47325" lon="6.21796">
        <ele>1410</ele>
        <time>2024-06-06T07:52:14+00:00</time>
      </trkpt>
      <trkpt lat="45.47339" lon="6.21794">
        <ele>1406</ele>
        <time>2024-06-06T07:52:17+00:00</time>
      </trkpt>
      <trkpt lat="45.47348" lon="6.21791">
        <ele>1402</ele>
        <time>2024-06-06T07:52:20+00:00</time>
      </trkpt>
      <trkpt lat="45.47356" lon="6.21798">
        <ele>1398</ele>
        <time>2024-06-06T07:52:23+00:00</time>
      </trkpt>
      <trkpt lat="45.47381" lon="6.21823">
        <ele>1391</ele>
        <time>2024-06-06T07:52:26+00:00</time>
      </trkpt>
      <trkpt lat="45.47393" lon="6.21828">
        <ele>1387</ele>
        <time>2024-06-06T07:52:29+00:00</time>
      </trkpt>
      <trkpt lat="45.47404" lon="6.21832">
        <ele>1382</ele>
        <time>2024-06-06T07:52:32+00:00</time>
      </trkpt>
      <trkpt lat="45.47406" lon="6.21821">
        <ele>1380</ele>
        <time>2024-06-06T07:52:35+00:00</time>
      </trkpt>
      <trkpt lat="45.47402" lon="6.21807">
        <ele>1374</ele>
        <time>2024-06-06T07:52:38+00:00</time>
      </trkpt>
      <trkpt lat="45.47398" lon="6.21794">
        <ele>1380</ele>
        <time>2024-06-06T07:52:41+00:00</time>
      </trkpt>
      <trkpt lat="45.47401" lon="6.21782">
        <ele>1371</ele>
        <time>2024-06-06T07:52:44+00:00</time>
      </trkpt>
      <trkpt lat="45.47404" lon="6.21782">
        <ele>1371</ele>
        <time>2024-06-06T07:52:47+00:00</time>
      </trkpt>
      <trkpt lat="45.47413" lon="6.21792">
        <ele>1369</ele>
        <time>2024-06-06T07:52:50+00:00</time>
      </trkpt>
      <trkpt lat="45.4742" lon="6.21804">
        <ele>1366</ele>
        <time>2024-06-06T07:52:53+00:00</time>
      </trkpt>
      <trkpt lat="45.4743" lon="6.21803">
        <ele>1360</ele>
        <time>2024-06-06T07:52:56+00:00</time>
      </trkpt>
      <trkpt lat="45.47433" lon="6.21796">
        <ele>1358</ele>
        <time>2024-06-06T07:52:59+00:00</time>
      </trkpt>
      <trkpt lat="45.4743" lon="6.21779">
        <ele>1357</ele>
        <time>2024-06-06T07:53:02+00:00</time>
      </trkpt>
      <trkpt lat="45.47437" lon="6.21772">
        <ele>1352</ele>
        <time>2024-06-06T07:53:05+00:00</time>
      </trkpt>
      <trkpt lat="45.4745" lon="6.21773">
        <ele>1340</ele>
        <time>2024-06-06T07:53:08+00:00</time>
      </trkpt>
      <trkpt lat="45.47458" lon="6.21764">
        <ele>1338</ele>
        <time>2024-06-06T07:53:11+00:00</time>
      </trkpt>
      <trkpt lat="45.47463" lon="6.21749">
        <ele>1328</ele>
        <time>2024-06-06T07:53:14+00:00</time>
      </trkpt>
      <trkpt lat="45.47459" lon="6.21725">
        <ele>1328</ele>
        <time>2024-06-06T07:53:17+00:00</time>
      </trkpt>
      <trkpt lat="45.47462" lon="6.21708">
        <ele>1318</ele>
        <time>2024-06-06T07:53:20+00:00</time>
      </trkpt>
      <trkpt lat="45.47471" lon="6.21704">
        <ele>1313</ele>
        <time>2024-06-06T07:53:23+00:00</time>
      </trkpt>
      <trkpt lat="45.47488" lon="6.21718">
        <ele>1312</ele>
        <time>2024-06-06T07:53:26+00:00</time>
      </trkpt>
      <trkpt lat="45.47509" lon="6.21736">
        <ele>1305</ele>
        <time>2024-06-06T07:53:29+00:00</time>
      </trkpt>
      <trkpt lat="45.47524" lon="6.21753">
        <ele>1300</ele>
        <time>2024-06-06T07:53:32+00:00</time>
      </trkpt>
      <trkpt lat="45.4754" lon="6.21778">
        <ele>1291</ele>
        <time>2024-06-06T07:53:35+00:00</time>
      </trkpt>
      <trkpt lat="45.47558" lon="6.21805">
        <ele>1290</ele>
        <time>2024-06-06T07:53:38+00:00</time>
      </trkpt>
      <trkpt lat="45.4758" lon="6.21824">
        <ele>1278</ele>
        <time>2024-06-06T07:53:41+00:00</time>
      </trkpt>
      <trkpt lat="45.47598" lon="6.21837">
        <ele>1273</ele>
        <time>2024-06-06T07:53:44+00:00</time>
      </trkpt>
      <trkpt lat="45.47607" lon="6.21841">
        <ele>1269</ele>
        <time>2024-06-06T07:53:47+00:00</time>
      </trkpt>
      <trkpt lat="45.47619" lon="6.21836">
        <ele>1265</ele>
        <time>2024-06-06T07:53:50+00:00</time>
      </trkpt>
      <trkpt lat="45.47626" lon="6.21825">
        <ele>1257</ele>
        <time>2024-06-06T07:53:53+00:00</time>
      </trkpt>
      <trkpt lat="45.47629" lon="6.21815">
        <ele>1256</ele>
        <time>2024-06-06T07:53:56+00:00</time>
      </trkpt>
      <trkpt lat="45.47632" lon="6.21803">
        <ele>1248</ele>
        <time>2024-06-06T07:53:59+00:00</time>
      </trkpt>
      <trkpt lat="45.47638" lon="6.21779">
        <ele>1244</ele>
        <time>2024-06-06T07:54:02+00:00</time>
      </trkpt>
      <trkpt lat="45.47641" lon="6.21752">
        <ele>1236</ele>
        <time>2024-06-06T07:54:05+00:00</time>
      </trkpt>
      <trkpt lat="45.47644" lon="6.21718">
        <ele>1227</ele>
        <time>2024-06-06T07:54:08+00:00</time>
      </trkpt>
      <trkpt lat="45.47643" lon="6.21695">
        <ele>1222</ele>
        <time>2024-06-06T07:54:11+00:00</time>
      </trkpt>
      <trkpt lat="45.47643" lon="6.21691">
        <ele>1222</ele>
        <time>2024-06-06T07:54:14+00:00</time>
      </trkpt>
      <trkpt lat="45.47647" lon="6.21688">
        <ele>1219</ele>
        <time>2024-06-06T07:54:17+00:00</time>
      </trkpt>
      <trkpt lat="45.47652" lon="6.21688">
        <ele>1212</ele>
        <time>2024-06-06T07:54:20+00:00</time>
      </trkpt>
      <trkpt lat="45.47662" lon="6.21695">
        <ele>1210</ele>
        <time>2024-06-06T07:54:23+00:00</time>
      </trkpt>
      <trkpt lat="45.47684" lon="6.21716">
        <ele>1202</ele>
        <time>2024-06-06T07:54:26+00:00</time>
      </trkpt>
      <trkpt lat="45.4771" lon="6.21743">
        <ele>1200</ele>
        <time>2024-06-06T07:54:29+00:00</time>
      </trkpt>
      <trkpt lat="45.4772" lon="6.21756">
        <ele>1197</ele>
        <time>2024-06-06T07:54:32+00:00</time>
      </trkpt>
      <trkpt lat="45.47726" lon="6.21778">
        <ele>1195</ele>
        <time>2024-06-06T07:54:35+00:00</time>
      </trkpt>
      <trkpt lat="45.47726" lon="6.21778">
        <ele>1195</ele>
        <time>2024-06-06T07:54:38+00:00</time>
      </trkpt>
      <trkpt lat="45.4773" lon="6.21782">
        <ele>1186</ele>
        <time>2024-06-06T07:54:41+00:00</time>
      </trkpt>
      <trkpt lat="45.47739" lon="6.21781">
        <ele>1186</ele>
        <time>2024-06-06T07:54:44+00:00</time>
      </trkpt>
      <trkpt lat="45.47751" lon="6.21776">
        <ele>1175</ele>
        <time>2024-06-06T07:54:47+00:00</time>
      </trkpt>
      <trkpt lat="45.47763" lon="6.21755">
        <ele>1174</ele>
        <time>2024-06-06T07:54:50+00:00</time>
      </trkpt>
      <trkpt lat="45.47766" lon="6.21728">
        <ele>1165</ele>
        <time>2024-06-06T07:54:53+00:00</time>
      </trkpt>
      <trkpt lat="45.47751" lon="6.21674">
        <ele>1156</ele>
        <time>2024-06-06T07:54:56+00:00</time>
      </trkpt>
      <trkpt lat="45.47756" lon="6.21636">
        <ele>1146</ele>
        <time>2024-06-06T07:54:59+00:00</time>
      </trkpt>
      <trkpt lat="45.47771" lon="6.2166">
        <ele>1142</ele>
        <time>2024-06-06T07:55:02+00:00</time>
      </trkpt>
      <trkpt lat="45.47779" lon="6.21673">
        <ele>1143</ele>
        <time>2024-06-06T07:55:05+00:00</time>
      </trkpt>
      <trkpt lat="45.47787" lon="6.21683">
        <ele>1140</ele>
        <time>2024-06-06T07:55:08+00:00</time>
      </trkpt>
      <trkpt lat="45.47793" lon="6.21692">
        <ele>1140</ele>
        <time>2024-06-06T07:55:11+00:00</time>
      </trkpt>
      <trkpt lat="45.47799" lon="6.21703">
        <ele>1142</ele>
        <time>2024-06-06T07:55:14+00:00</time>
      </trkpt>
      <trkpt lat="45.47804" lon="6.21711">
        <ele>1137</ele>
        <time>2024-06-06T07:55:17+00:00</time>
      </trkpt>
      <trkpt lat="45.47807" lon="6.21717">
        <ele>1137</ele>
        <time>2024-06-06T07:55:20+00:00</time>
      </trkpt>
      <trkpt lat="45.47811" lon="6.21723">
        <ele>1134</ele>
        <time>2024-06-06T07:55:23+00:00</time>
      </trkpt>
      <trkpt lat="45.47815" lon="6.21725">
        <ele>1134</ele>
        <time>2024-06-06T07:55:26+00:00</time>
      </trkpt>
      <trkpt lat="45.47817" lon="6.21722">
        <ele>1134</ele>
        <time>2024-06-06T07:55:29+00:00</time>
      </trkpt>
      <trkpt lat="45.4782" lon="6.21717">
        <ele>1131</ele>
        <time>2024-06-06T07:55:32+00:00</time>
      </trkpt>
      <trkpt lat="45.47822" lon="6.21711">
        <ele>1131</ele>
        <time>2024-06-06T07:55:35+00:00</time>
      </trkpt>
      <trkpt lat="45.47824" lon="6.21703">
        <ele>1130</ele>
        <time>2024-06-06T07:55:38+00:00</time>
      </trkpt>
      <trkpt lat="45.47828" lon="6.21694">
        <ele>1128</ele>
        <time>2024-06-06T07:55:41+00:00</time>
      </trkpt>
      <trkpt lat="45.4783" lon="6.21682">
        <ele>1120</ele>
        <time>2024-06-06T07:55:44+00:00</time>
      </trkpt>
      <trkpt lat="45.47831" lon="6.21671">
        <ele>1118</ele>
        <time>2024-06-06T07:55:47+00:00</time>
      </trkpt>
      <trkpt lat="45.47831" lon="6.21667">
        <ele>1117</ele>
        <time>2024-06-06T07:55:50+00:00</time>
      </trkpt>
      <trkpt lat="45.47831" lon="6.21653">
        <ele>1115</ele>
        <time>2024-06-06T07:55:53+00:00</time>
      </trkpt>
      <trkpt lat="45.47825" lon="6.21596">
        <ele>1106</ele>
        <time>2024-06-06T07:55:56+00:00</time>
      </trkpt>
      <trkpt lat="45.47816" lon="6.21554">
        <ele>1100</ele>
        <time>2024-06-06T07:55:59+00:00</time>
      </trkpt>
      <trkpt lat="45.47805" lon="6.21512">
        <ele>1092</ele>
        <time>2024-06-06T07:56:02+00:00</time>
      </trkpt>
      <trkpt lat="45.47796" lon="6.2148">
        <ele>1087</ele>
        <time>2024-06-06T07:56:05+00:00</time>
      </trkpt>
      <trkpt lat="45.47793" lon="6.21467">
        <ele>1084</ele>
        <time>2024-06-06T07:56:08+00:00</time>
      </trkpt>
      <trkpt lat="45.47791" lon="6.21458">
        <ele>1082</ele>
        <time>2024-06-06T07:56:11+00:00</time>
      </trkpt>
      <trkpt lat="45.47787" lon="6.21438">
        <ele>1082</ele>
        <time>2024-06-06T07:56:14+00:00</time>
      </trkpt>
      <trkpt lat="45.47785" lon="6.21422">
        <ele>1079</ele>
        <time>2024-06-06T07:56:17+00:00</time>
      </trkpt>
      <trkpt lat="45.47782" lon="6.21402">
        <ele>1074</ele>
        <time>2024-06-06T07:56:20+00:00</time>
      </trkpt>
      <trkpt lat="45.47778" lon="6.21383">
        <ele>1073</ele>
        <time>2024-06-06T07:56:23+00:00</time>
      </trkpt>
      <trkpt lat="45.47774" lon="6.21366">
        <ele>1066</ele>
        <time>2024-06-06T07:56:26+00:00</time>
      </trkpt>
      <trkpt lat="45.47772" lon="6.21346">
        <ele>1061</ele>
        <time>2024-06-06T07:56:29+00:00</time>
      </trkpt>
      <trkpt lat="45.47769" lon="6.2133">
        <ele>1062</ele>
        <time>2024-06-06T07:56:32+00:00</time>
      </trkpt>
      <trkpt lat="45.47767" lon="6.21314">
        <ele>1060</ele>
        <time>2024-06-06T07:56:35+00:00</time>
      </trkpt>
      <trkpt lat="45.47765" lon="6.21301">
        <ele>1058</ele>
        <time>2024-06-06T07:56:38+00:00</time>
      </trkpt>
      <trkpt lat="45.47764" lon="6.21288">
        <ele>1055</ele>
        <time>2024-06-06T07:56:41+00:00</time>
      </trkpt>
      <trkpt lat="45.47764" lon="6.21277">
        <ele>1054</ele>
        <time>2024-06-06T07:56:44+00:00</time>
      </trkpt>
      <trkpt lat="45.47764" lon="6.21266">
        <ele>1053</ele>
        <time>2024-06-06T07:56:47+00:00</time>
      </trkpt>
      <trkpt lat="45.47763" lon="6.21253">
        <ele>1051</ele>
        <time>2024-06-06T07:56:50+00:00</time>
      </trkpt>
      <trkpt lat="45.47762" lon="6.21243">
        <ele>1049</ele>
        <time>2024-06-06T07:56:53+00:00</time>
      </trkpt>
      <trkpt lat="45.4776" lon="6.21233">
        <ele>1047</ele>
        <time>2024-06-06T07:56:56+00:00</time>
      </trkpt>
      <trkpt lat="45.47756" lon="6.21218">
        <ele>1045</ele>
        <time>2024-06-06T07:56:59+00:00</time>
      </trkpt>
      <trkpt lat="45.47753" lon="6.21206">
        <ele>1043</ele>
        <time>2024-06-06T07:57:02+00:00</time>
      </trkpt>
      <trkpt lat="45.47751" lon="6.21193">
        <ele>1041</ele>
        <time>2024-06-06T07:57:05+00:00</time>
      </trkpt>
      <trkpt lat="45.4775" lon="6.21182">
        <ele>1040</ele>
        <time>2024-06-06T07:57:08+00:00</time>
      </trkpt>
      <trkpt lat="45.4775" lon="6.21171">
        <ele>1042</ele>
        <time>2024-06-06T07:57:11+00:00</time>
      </trkpt>
      <trkpt lat="45.4775" lon="6.21159">
        <ele>1041</ele>
        <time>2024-06-06T07:57:14+00:00</time>
      </trkpt>
      <trkpt lat="45.4775" lon="6.21146">
        <ele>1039</ele>
        <time>2024-06-06T07:57:17+00:00</time>
      </trkpt>
      <trkpt lat="45.47749" lon="6.21131">
        <ele>1038</ele>
        <time>2024-06-06T07:57:20+00:00</time>
      </trkpt>
      <trkpt lat="45.47748" lon="6.21095">
        <ele>1029</ele>
        <time>2024-06-06T07:57:23+00:00</time>
      </trkpt>
      <trkpt lat="45.47747" lon="6.21043">
        <ele>1023</ele>
        <time>2024-06-06T07:57:26+00:00</time>
      </trkpt>
      <trkpt lat="45.47743" lon="6.21009">
        <ele>1015</ele>
        <time>2024-06-06T07:57:29+00:00</time>
      </trkpt>
      <trkpt lat="45.47738" lon="6.20974">
        <ele>1012</ele>
        <time>2024-06-06T07:57:32+00:00</time>
      </trkpt>
      <trkpt lat="45.47729" lon="6.20939">
        <ele>1007</ele>
        <time>2024-06-06T07:57:35+00:00</time>
      </trkpt>
      <trkpt lat="45.47718" lon="6.20893">
        <ele>998</ele>
        <time>2024-06-06T07:57:38+00:00</time>
      </trkpt>
      <trkpt lat="45.47712" lon="6.20856">
        <ele>995</ele>
        <time>2024-06-06T07:57:41+00:00</time>
      </trkpt>
      <trkpt lat="45.47705" lon="6.20809">
        <ele>983</ele>
        <time>2024-06-06T07:57:44+00:00</time>
      </trkpt>
      <trkpt lat="45.47719" lon="6.20799">
        <ele>979</ele>
        <time>2024-06-06T07:57:47+00:00</time>
      </trkpt>
      <trkpt lat="45.47741" lon="6.20798">
        <ele>974</ele>
        <time>2024-06-06T07:57:50+00:00</time>
      </trkpt>
      <trkpt lat="45.47746" lon="6.20799">
        <ele>974</ele>
        <time>2024-06-06T07:57:53+00:00</time>
      </trkpt>
      <trkpt lat="45.4775" lon="6.20801">
        <ele>974</ele>
        <time>2024-06-06T07:57:56+00:00</time>
      </trkpt>
      <trkpt lat="45.47762" lon="6.20808">
        <ele>970</ele>
        <time>2024-06-06T07:57:59+00:00</time>
      </trkpt>
      <trkpt lat="45.47785" lon="6.20822">
        <ele>967</ele>
        <time>2024-06-06T07:58:02+00:00</time>
      </trkpt>
      <trkpt lat="45.47814" lon="6.2084">
        <ele>958</ele>
        <time>2024-06-06T07:58:05+00:00</time>
      </trkpt>
      <trkpt lat="45.47836" lon="6.2086">
        <ele>953</ele>
        <time>2024-06-06T07:58:08+00:00</time>
      </trkpt>
      <trkpt lat="45.47862" lon="6.20892">
        <ele>943</ele>
        <time>2024-06-06T07:58:11+00:00</time>
      </trkpt>
      <trkpt lat="45.47895" lon="6.2091">
        <ele>934</ele>
        <time>2024-06-06T07:58:14+00:00</time>
      </trkpt>
      <trkpt lat="45.47919" lon="6.2092">
        <ele>930</ele>
        <time>2024-06-06T07:58:17+00:00</time>
      </trkpt>
      <trkpt lat="45.47931" lon="6.20916">
        <ele>921</ele>
        <time>2024-06-06T07:58:20+00:00</time>
      </trkpt>
      <trkpt lat="45.47951" lon="6.20938">
        <ele>916</ele>
        <time>2024-06-06T07:58:23+00:00</time>
      </trkpt>
      <trkpt lat="45.47987" lon="6.20975">
        <ele>905</ele>
        <time>2024-06-06T07:58:26+00:00</time>
      </trkpt>
      <trkpt lat="45.48002" lon="6.2098">
        <ele>895</ele>
        <time>2024-06-06T07:58:29+00:00</time>
      </trkpt>
      <trkpt lat="45.48006" lon="6.20966">
        <ele>894</ele>
        <time>2024-06-06T07:58:32+00:00</time>
      </trkpt>
      <trkpt lat="45.48004" lon="6.2095">
        <ele>892</ele>
        <time>2024-06-06T07:58:35+00:00</time>
      </trkpt>
      <trkpt lat="45.48003" lon="6.2093">
        <ele>888</ele>
        <time>2024-06-06T07:58:38+00:00</time>
      </trkpt>
      <trkpt lat="45.48016" lon="6.20902">
        <ele>880</ele>
        <time>2024-06-06T07:58:41+00:00</time>
      </trkpt>
      <trkpt lat="45.48018" lon="6.20899">
        <ele>878</ele>
        <time>2024-06-06T07:58:44+00:00</time>
      </trkpt>
      <trkpt lat="45.4802" lon="6.20899">
        <ele>877</ele>
        <time>2024-06-06T07:58:47+00:00</time>
      </trkpt>
      <trkpt lat="45.48023" lon="6.20901">
        <ele>878</ele>
        <time>2024-06-06T07:58:50+00:00</time>
      </trkpt>
      <trkpt lat="45.48028" lon="6.20903">
        <ele>878</ele>
        <time>2024-06-06T07:58:53+00:00</time>
      </trkpt>
      <trkpt lat="45.48032" lon="6.20905">
        <ele>876</ele>
        <time>2024-06-06T07:58:56+00:00</time>
      </trkpt>
      <trkpt lat="45.48036" lon="6.20908">
        <ele>876</ele>
        <time>2024-06-06T07:58:59+00:00</time>
      </trkpt>
      <trkpt lat="45.48045" lon="6.20915">
        <ele>875</ele>
        <time>2024-06-06T07:59:02+00:00</time>
      </trkpt>
      <trkpt lat="45.48051" lon="6.20922">
        <ele>874</ele>
        <time>2024-06-06T07:59:05+00:00</time>
      </trkpt>
      <trkpt lat="45.48058" lon="6.20928">
        <ele>874</ele>
        <time>2024-06-06T07:59:08+00:00</time>
      </trkpt>
      <trkpt lat="45.48063" lon="6.20934">
        <ele>873</ele>
        <time>2024-06-06T07:59:11+00:00</time>
      </trkpt>
      <trkpt lat="45.48068" lon="6.20938">
        <ele>873</ele>
        <time>2024-06-06T07:59:14+00:00</time>
      </trkpt>
      <trkpt lat="45.48073" lon="6.20943">
        <ele>872</ele>
        <time>2024-06-06T07:59:17+00:00</time>
      </trkpt>
      <trkpt lat="45.48077" lon="6.20948">
        <ele>872</ele>
        <time>2024-06-06T07:59:20+00:00</time>
      </trkpt>
      <trkpt lat="45.48082" lon="6.20953">
        <ele>871</ele>
        <time>2024-06-06T07:59:23+00:00</time>
      </trkpt>
      <trkpt lat="45.48087" lon="6.20958">
        <ele>871</ele>
        <time>2024-06-06T07:59:26+00:00</time>
      </trkpt>
      <trkpt lat="45.48091" lon="6.20961">
        <ele>870</ele>
        <time>2024-06-06T07:59:29+00:00</time>
      </trkpt>
      <trkpt lat="45.48095" lon="6.20965">
        <ele>870</ele>
        <time>2024-06-06T07:59:32+00:00</time>
      </trkpt>
      <trkpt lat="45.48098" lon="6.2097">
        <ele>870</ele>
        <time>2024-06-06T07:59:35+00:00</time>
      </trkpt>
      <trkpt lat="45.48101" lon="6.20975">
        <ele>868</ele>
        <time>2024-06-06T07:59:38+00:00</time>
      </trkpt>
      <trkpt lat="45.48105" lon="6.2098">
        <ele>868</ele>
        <time>2024-06-06T07:59:41+00:00</time>
      </trkpt>
      <trkpt lat="45.48108" lon="6.20986">
        <ele>868</ele>
        <time>2024-06-06T07:59:44+00:00</time>
      </trkpt>
      <trkpt lat="45.48112" lon="6.20992">
        <ele>867</ele>
        <time>2024-06-06T07:59:47+00:00</time>
      </trkpt>
      <trkpt lat="45.48115" lon="6.20994">
        <ele>867</ele>
        <time>2024-06-06T07:59:50+00:00</time>
      </trkpt>
      <trkpt lat="45.48116" lon="6.20995">
        <ele>867</ele>
        <time>2024-06-06T07:59:53+00:00</time>
      </trkpt>
      <trkpt lat="45.48121" lon="6.20999">
        <ele>865</ele>
        <time>2024-06-06T07:59:56+00:00</time>
      </trkpt>
      <trkpt lat="45.48126" lon="6.21001">
        <ele>866</ele>
        <time>2024-06-06T07:59:59+00:00</time>
      </trkpt>
      <trkpt lat="45.48127" lon="6.21002">
        <ele>866</ele>
        <time>2024-06-06T08:00:02+00:00</time>
      </trkpt>
      <trkpt lat="45.48132" lon="6.21003">
        <ele>864</ele>
        <time>2024-06-06T08:00:05+00:00</time>
      </trkpt>
      <trkpt lat="45.48138" lon="6.21003">
        <ele>864</ele>
        <time>2024-06-06T08:00:08+00:00</time>
      </trkpt>
      <trkpt lat="45.48142" lon="6.21003">
        <ele>863</ele>
        <time>2024-06-06T08:00:11+00:00</time>
      </trkpt>
      <trkpt lat="45.48148" lon="6.21">
        <ele>862</ele>
        <time>2024-06-06T08:00:14+00:00</time>
      </trkpt>
      <trkpt lat="45.48153" lon="6.20996">
        <ele>860</ele>
        <time>2024-06-06T08:00:17+00:00</time>
      </trkpt>
      <trkpt lat="45.4816" lon="6.20992">
        <ele>860</ele>
        <time>2024-06-06T08:00:20+00:00</time>
      </trkpt>
      <trkpt lat="45.48164" lon="6.20988">
        <ele>858</ele>
        <time>2024-06-06T08:00:23+00:00</time>
      </trkpt>
      <trkpt lat="45.4817" lon="6.20982">
        <ele>859</ele>
        <time>2024-06-06T08:00:26+00:00</time>
      </trkpt>
      <trkpt lat="45.48175" lon="6.20977">
        <ele>857</ele>
        <time>2024-06-06T08:00:29+00:00</time>
      </trkpt>
      <trkpt lat="45.4818" lon="6.20972">
        <ele>858</ele>
        <time>2024-06-06T08:00:32+00:00</time>
      </trkpt>
      <trkpt lat="45.48186" lon="6.20969">
        <ele>856</ele>
        <time>2024-06-06T08:00:35+00:00</time>
      </trkpt>
      <trkpt lat="45.48191" lon="6.20967">
        <ele>856</ele>
        <time>2024-06-06T08:00:38+00:00</time>
      </trkpt>
      <trkpt lat="45.48196" lon="6.20966">
        <ele>856</ele>
        <time>2024-06-06T08:00:41+00:00</time>
      </trkpt>
      <trkpt lat="45.48202" lon="6.20966">
        <ele>856</ele>
        <time>2024-06-06T08:00:44+00:00</time>
      </trkpt>
      <trkpt lat="45.48206" lon="6.20966">
        <ele>856</ele>
        <time>2024-06-06T08:00:47+00:00</time>
      </trkpt>
      <trkpt lat="45.48211" lon="6.20966">
        <ele>855</ele>
        <time>2024-06-06T08:00:50+00:00</time>
      </trkpt>
      <trkpt lat="45.48217" lon="6.20969">
        <ele>855</ele>
        <time>2024-06-06T08:00:53+00:00</time>
      </trkpt>
      <trkpt lat="45.48223" lon="6.20972">
        <ele>854</ele>
        <time>2024-06-06T08:00:56+00:00</time>
      </trkpt>
      <trkpt lat="45.48228" lon="6.20975">
        <ele>854</ele>
        <time>2024-06-06T08:00:59+00:00</time>
      </trkpt>
      <trkpt lat="45.48234" lon="6.2098">
        <ele>853</ele>
        <time>2024-06-06T08:01:02+00:00</time>
      </trkpt>
      <trkpt lat="45.4824" lon="6.20985">
        <ele>852</ele>
        <time>2024-06-06T08:01:05+00:00</time>
      </trkpt>
      <trkpt lat="45.48246" lon="6.20989">
        <ele>852</ele>
        <time>2024-06-06T08:01:08+00:00</time>
      </trkpt>
      <trkpt lat="45.48252" lon="6.20992">
        <ele>850</ele>
        <time>2024-06-06T08:01:11+00:00</time>
      </trkpt>
      <trkpt lat="45.48257" lon="6.20995">
        <ele>850</ele>
        <time>2024-06-06T08:01:14+00:00</time>
      </trkpt>
      <trkpt lat="45.48263" lon="6.20997">
        <ele>849</ele>
        <time>2024-06-06T08:01:17+00:00</time>
      </trkpt>
      <trkpt lat="45.48268" lon="6.20998">
        <ele>849</ele>
        <time>2024-06-06T08:01:20+00:00</time>
      </trkpt>
      <trkpt lat="45.48274" lon="6.20998">
        <ele>847</ele>
        <time>2024-06-06T08:01:23+00:00</time>
      </trkpt>
      <trkpt lat="45.48296" lon="6.20997">
        <ele>845</ele>
        <time>2024-06-06T08:01:26+00:00</time>
      </trkpt>
      <trkpt lat="45.48304" lon="6.20997">
        <ele>845</ele>
        <time>2024-06-06T08:01:29+00:00</time>
      </trkpt>
      <trkpt lat="45.4831" lon="6.20997">
        <ele>843</ele>
        <time>2024-06-06T08:01:32+00:00</time>
      </trkpt>
      <trkpt lat="45.48318" lon="6.20997">
        <ele>843</ele>
        <time>2024-06-06T08:01:35+00:00</time>
      </trkpt>
      <trkpt lat="45.48325" lon="6.20998">
        <ele>842</ele>
        <time>2024-06-06T08:01:38+00:00</time>
      </trkpt>
      <trkpt lat="45.4833" lon="6.20999">
        <ele>841</ele>
        <time>2024-06-06T08:01:41+00:00</time>
      </trkpt>
      <trkpt lat="45.48336" lon="6.20997">
        <ele>841</ele>
        <time>2024-06-06T08:01:44+00:00</time>
      </trkpt>
      <trkpt lat="45.48349" lon="6.20981">
        <ele>839</ele>
        <time>2024-06-06T08:01:47+00:00</time>
      </trkpt>
      <trkpt lat="45.48364" lon="6.20962">
        <ele>836</ele>
        <time>2024-06-06T08:01:50+00:00</time>
      </trkpt>
      <trkpt lat="45.48396" lon="6.20931">
        <ele>831</ele>
        <time>2024-06-06T08:01:53+00:00</time>
      </trkpt>
      <trkpt lat="45.48416" lon="6.20908">
        <ele>828</ele>
        <time>2024-06-06T08:01:56+00:00</time>
      </trkpt>
      <trkpt lat="45.48437" lon="6.20882">
        <ele>825</ele>
        <time>2024-06-06T08:01:59+00:00</time>
      </trkpt>
      <trkpt lat="45.48463" lon="6.20836">
        <ele>821</ele>
        <time>2024-06-06T08:02:02+00:00</time>
      </trkpt>
      <trkpt lat="45.48466" lon="6.20828">
        <ele>821</ele>
        <time>2024-06-06T08:02:05+00:00</time>
      </trkpt>
      <trkpt lat="45.48467" lon="6.20828">
        <ele>821</ele>
        <time>2024-06-06T08:02:08+00:00</time>
      </trkpt>
      <trkpt lat="45.48474" lon="6.2083">
        <ele>821</ele>
        <time>2024-06-06T08:02:11+00:00</time>
      </trkpt>
      <trkpt lat="45.48474" lon="6.2083">
        <ele>821</ele>
        <time>2024-06-06T08:02:14+00:00</time>
      </trkpt>
      <trkpt lat="45.48474" lon="6.2083">
        <ele>821</ele>
        <time>2024-06-06T08:02:17+00:00</time>
      </trkpt>
      <trkpt lat="45.4848" lon="6.20831">
        <ele>820</ele>
        <time>2024-06-06T08:02:20+00:00</time>
      </trkpt>
      <trkpt lat="45.48487" lon="6.2083">
        <ele>820</ele>
        <time>2024-06-06T08:02:23+00:00</time>
      </trkpt>
      <trkpt lat="45.48493" lon="6.20829">
        <ele>820</ele>
        <time>2024-06-06T08:02:26+00:00</time>
      </trkpt>
      <trkpt lat="45.48498" lon="6.20826">
        <ele>820</ele>
        <time>2024-06-06T08:02:29+00:00</time>
      </trkpt>
      <trkpt lat="45.485" lon="6.20825">
        <ele>820</ele>
        <time>2024-06-06T08:02:32+00:00</time>
      </trkpt>
      <trkpt lat="45.48507" lon="6.2082">
        <ele>817</ele>
        <time>2024-06-06T08:02:35+00:00</time>
      </trkpt>
      <trkpt lat="45.48522" lon="6.2081">
        <ele>820</ele>
        <time>2024-06-06T08:02:38+00:00</time>
      </trkpt>
      <trkpt lat="45.48535" lon="6.20802">
        <ele>820</ele>
        <time>2024-06-06T08:02:41+00:00</time>
      </trkpt>
      <trkpt lat="45.48541" lon="6.20797">
        <ele>820</ele>
        <time>2024-06-06T08:02:44+00:00</time>
      </trkpt>
      <trkpt lat="45.48546" lon="6.20793">
        <ele>820</ele>
        <time>2024-06-06T08:02:47+00:00</time>
      </trkpt>
      <trkpt lat="45.48551" lon="6.20789">
        <ele>819</ele>
        <time>2024-06-06T08:02:50+00:00</time>
      </trkpt>
      <trkpt lat="45.48551" lon="6.20788">
        <ele>819</ele>
        <time>2024-06-06T08:02:53+00:00</time>
      </trkpt>
      <trkpt lat="45.48571" lon="6.20773">
        <ele>819</ele>
        <time>2024-06-06T08:02:56+00:00</time>
      </trkpt>
      <trkpt lat="45.48583" lon="6.20729">
        <ele>819</ele>
        <time>2024-06-06T08:02:59+00:00</time>
      </trkpt>
      <trkpt lat="45.48584" lon="6.20718">
        <ele>819</ele>
        <time>2024-06-06T08:03:02+00:00</time>
      </trkpt>
      <trkpt lat="45.48582" lon="6.20699">
        <ele>819</ele>
        <time>2024-06-06T08:03:05+00:00</time>
      </trkpt>
      <trkpt lat="45.4858" lon="6.20683">
        <ele>819</ele>
        <time>2024-06-06T08:03:08+00:00</time>
      </trkpt>
      <trkpt lat="45.48586" lon="6.20672">
        <ele>819</ele>
        <time>2024-06-06T08:03:11+00:00</time>
      </trkpt>
      <trkpt lat="45.48585" lon="6.20661">
        <ele>819</ele>
        <time>2024-06-06T08:03:14+00:00</time>
      </trkpt>
      <trkpt lat="45.48581" lon="6.20605">
        <ele>819</ele>
        <time>2024-06-06T08:03:17+00:00</time>
      </trkpt>
      <trkpt lat="45.4858" lon="6.20599">
        <ele>822</ele>
        <time>2024-06-06T08:03:20+00:00</time>
      </trkpt>
      <trkpt lat="45.48581" lon="6.20606">
        <ele>822</ele>
        <time>2024-06-06T08:03:23+00:00</time>
      </trkpt>
      <trkpt lat="45.48583" lon="6.20633">
        <ele>819</ele>
        <time>2024-06-06T08:03:26+00:00</time>
      </trkpt>
      <trkpt lat="45.48585" lon="6.20662">
        <ele>819</ele>
        <time>2024-06-06T08:03:29+00:00</time>
      </trkpt>
      <trkpt lat="45.48586" lon="6.20673">
        <ele>819</ele>
        <time>2024-06-06T08:03:32+00:00</time>
      </trkpt>
      <trkpt lat="45.4858" lon="6.20683">
        <ele>819</ele>
        <time>2024-06-06T08:03:35+00:00</time>
      </trkpt>
      <trkpt lat="45.48584" lon="6.20718">
        <ele>819</ele>
        <time>2024-06-06T08:03:38+00:00</time>
      </trkpt>
      <trkpt lat="45.48583" lon="6.20729">
        <ele>819</ele>
        <time>2024-06-06T08:03:41+00:00</time>
      </trkpt>
      <trkpt lat="45.48575" lon="6.20757">
        <ele>819</ele>
        <time>2024-06-06T08:03:44+00:00</time>
      </trkpt>
      <trkpt lat="45.48571" lon="6.20773">
        <ele>819</ele>
        <time>2024-06-06T08:03:47+00:00</time>
      </trkpt>
      <trkpt lat="45.48567" lon="6.20786">
        <ele>819</ele>
        <time>2024-06-06T08:03:50+00:00</time>
      </trkpt>
      <trkpt lat="45.48567" lon="6.20794">
        <ele>819</ele>
        <time>2024-06-06T08:03:53+00:00</time>
      </trkpt>
      <trkpt lat="45.48567" lon="6.20795">
        <ele>819</ele>
        <time>2024-06-06T08:03:56+00:00</time>
      </trkpt>
      <trkpt lat="45.48567" lon="6.20799">
        <ele>819</ele>
        <time>2024-06-06T08:03:59+00:00</time>
      </trkpt>
      <trkpt lat="45.48562" lon="6.20813">
        <ele>818</ele>
        <time>2024-06-06T08:04:02+00:00</time>
      </trkpt>
      <trkpt lat="45.48557" lon="6.20823">
        <ele>818</ele>
        <time>2024-06-06T08:04:05+00:00</time>
      </trkpt>
      <trkpt lat="45.48552" lon="6.20835">
        <ele>817</ele>
        <time>2024-06-06T08:04:08+00:00</time>
      </trkpt>
      <trkpt lat="45.48551" lon="6.2084">
        <ele>817</ele>
        <time>2024-06-06T08:04:11+00:00</time>
      </trkpt>
      <trkpt lat="45.48556" lon="6.2085">
        <ele>817</ele>
        <time>2024-06-06T08:04:14+00:00</time>
      </trkpt>
      <trkpt lat="45.48566" lon="6.20865">
        <ele>817</ele>
        <time>2024-06-06T08:04:17+00:00</time>
      </trkpt>
      <trkpt lat="45.48575" lon="6.20878">
        <ele>817</ele>
        <time>2024-06-06T08:04:20+00:00</time>
      </trkpt>
      <trkpt lat="45.48583" lon="6.20887">
        <ele>818</ele>
        <time>2024-06-06T08:04:23+00:00</time>
      </trkpt>
      <trkpt lat="45.48591" lon="6.20897">
        <ele>818</ele>
        <time>2024-06-06T08:04:26+00:00</time>
      </trkpt>
      <trkpt lat="45.48595" lon="6.20902">
        <ele>818</ele>
        <time>2024-06-06T08:04:29+00:00</time>
      </trkpt>
      <trkpt lat="45.48595" lon="6.20909">
        <ele>818</ele>
        <time>2024-06-06T08:04:32+00:00</time>
      </trkpt>
      <trkpt lat="45.4859" lon="6.20915">
        <ele>817</ele>
        <time>2024-06-06T08:04:35+00:00</time>
      </trkpt>
      <trkpt lat="45.48585" lon="6.20922">
        <ele>819</ele>
        <time>2024-06-06T08:04:38+00:00</time>
      </trkpt>
      <trkpt lat="45.4858" lon="6.20934">
        <ele>818</ele>
        <time>2024-06-06T08:04:41+00:00</time>
      </trkpt>
      <trkpt lat="45.48584" lon="6.20944">
        <ele>820</ele>
        <time>2024-06-06T08:04:44+00:00</time>
      </trkpt>
      <trkpt lat="45.48587" lon="6.20955">
        <ele>820</ele>
        <time>2024-06-06T08:04:47+00:00</time>
      </trkpt>
      <trkpt lat="45.48592" lon="6.20965">
        <ele>819</ele>
        <time>2024-06-06T08:04:50+00:00</time>
      </trkpt>
      <trkpt lat="45.48596" lon="6.20974">
        <ele>820</ele>
        <time>2024-06-06T08:04:53+00:00</time>
      </trkpt>
      <trkpt lat="45.48598" lon="6.20988">
        <ele>820</ele>
        <time>2024-06-06T08:04:56+00:00</time>
      </trkpt>
      <trkpt lat="45.48596" lon="6.20997">
        <ele>819</ele>
        <time>2024-06-06T08:04:59+00:00</time>
      </trkpt>
      <trkpt lat="45.48596" lon="6.21003">
        <ele>821</ele>
        <time>2024-06-06T08:05:02+00:00</time>
      </trkpt>
      <trkpt lat="45.4859" lon="6.2101">
        <ele>821</ele>
        <time>2024-06-06T08:05:05+00:00</time>
      </trkpt>
      <trkpt lat="45.48589" lon="6.21018">
        <ele>822</ele>
        <time>2024-06-06T08:05:08+00:00</time>
      </trkpt>
      <trkpt lat="45.48594" lon="6.21027">
        <ele>820</ele>
        <time>2024-06-06T08:05:11+00:00</time>
      </trkpt>
      <trkpt lat="45.48605" lon="6.21042">
        <ele>821</ele>
        <time>2024-06-06T08:05:14+00:00</time>
      </trkpt>
      <trkpt lat="45.4861" lon="6.21057">
        <ele>821</ele>
        <time>2024-06-06T08:05:17+00:00</time>
      </trkpt>
      <trkpt lat="45.48611" lon="6.21066">
        <ele>820</ele>
        <time>2024-06-06T08:05:20+00:00</time>
      </trkpt>
      <trkpt lat="45.48616" lon="6.21075">
        <ele>821</ele>
        <time>2024-06-06T08:05:23+00:00</time>
      </trkpt>
      <trkpt lat="45.48618" lon="6.21084">
        <ele>821</ele>
        <time>2024-06-06T08:05:26+00:00</time>
      </trkpt>
      <trkpt lat="45.48622" lon="6.21121">
        <ele>821</ele>
        <time>2024-06-06T08:05:29+00:00</time>
      </trkpt>
      <trkpt lat="45.48618" lon="6.21129">
        <ele>822</ele>
        <time>2024-06-06T08:05:32+00:00</time>
      </trkpt>
      <trkpt lat="45.48614" lon="6.2113">
        <ele>822</ele>
        <time>2024-06-06T08:05:35+00:00</time>
      </trkpt>
      <trkpt lat="45.48607" lon="6.21133">
        <ele>822</ele>
        <time>2024-06-06T08:05:38+00:00</time>
      </trkpt>
      <trkpt lat="45.48599" lon="6.21138">
        <ele>823</ele>
        <time>2024-06-06T08:05:41+00:00</time>
      </trkpt>
      <trkpt lat="45.48594" lon="6.21141">
        <ele>822</ele>
        <time>2024-06-06T08:05:44+00:00</time>
      </trkpt>
      <trkpt lat="45.4859" lon="6.21144">
        <ele>822</ele>
        <time>2024-06-06T08:05:47+00:00</time>
      </trkpt>
      <trkpt lat="45.48587" lon="6.21147">
        <ele>823</ele>
        <time>2024-06-06T08:05:50+00:00</time>
      </trkpt>
      <trkpt lat="45.48585" lon="6.21151">
        <ele>823</ele>
        <time>2024-06-06T08:05:53+00:00</time>
      </trkpt>
      <trkpt lat="45.48583" lon="6.21155">
        <ele>823</ele>
        <time>2024-06-06T08:05:56+00:00</time>
      </trkpt>
      <trkpt lat="45.48581" lon="6.21158">
        <ele>823</ele>
        <time>2024-06-06T08:05:59+00:00</time>
      </trkpt>
      <trkpt lat="45.48578" lon="6.21165">
        <ele>824</ele>
        <time>2024-06-06T08:06:02+00:00</time>
      </trkpt>
      <trkpt lat="45.48576" lon="6.21171">
        <ele>825</ele>
        <time>2024-06-06T08:06:05+00:00</time>
      </trkpt>
      <trkpt lat="45.48573" lon="6.21177">
        <ele>825</ele>
        <time>2024-06-06T08:06:08+00:00</time>
      </trkpt>
      <trkpt lat="45.48571" lon="6.21184">
        <ele>824</ele>
        <time>2024-06-06T08:06:11+00:00</time>
      </trkpt>
      <trkpt lat="45.48569" lon="6.21191">
        <ele>825</ele>
        <time>2024-06-06T08:06:14+00:00</time>
      </trkpt>
      <trkpt lat="45.48566" lon="6.21199">
        <ele>825</ele>
        <time>2024-06-06T08:06:17+00:00</time>
      </trkpt>
      <trkpt lat="45.48564" lon="6.21209">
        <ele>825</ele>
        <time>2024-06-06T08:06:20+00:00</time>
      </trkpt>
      <trkpt lat="45.48561" lon="6.21217">
        <ele>825</ele>
        <time>2024-06-06T08:06:23+00:00</time>
      </trkpt>
      <trkpt lat="45.48559" lon="6.21225">
        <ele>825</ele>
        <time>2024-06-06T08:06:26+00:00</time>
      </trkpt>
      <trkpt lat="45.48556" lon="6.21234">
        <ele>825</ele>
        <time>2024-06-06T08:06:29+00:00</time>
      </trkpt>
      <trkpt lat="45.48555" lon="6.21237">
        <ele>825</ele>
        <time>2024-06-06T08:06:32+00:00</time>
      </trkpt>
      <trkpt lat="45.48553" lon="6.21243">
        <ele>825</ele>
        <time>2024-06-06T08:06:35+00:00</time>
      </trkpt>
      <trkpt lat="45.48551" lon="6.21251">
        <ele>825</ele>
        <time>2024-06-06T08:06:38+00:00</time>
      </trkpt>
      <trkpt lat="45.4855" lon="6.21258">
        <ele>825</ele>
        <time>2024-06-06T08:06:41+00:00</time>
      </trkpt>
      <trkpt lat="45.48548" lon="6.21268">
        <ele>825</ele>
        <time>2024-06-06T08:06:44+00:00</time>
      </trkpt>
      <trkpt lat="45.48547" lon="6.21275">
        <ele>826</ele>
        <time>2024-06-06T08:06:47+00:00</time>
      </trkpt>
      <trkpt lat="45.48545" lon="6.21284">
        <ele>826</ele>
        <time>2024-06-06T08:06:50+00:00</time>
      </trkpt>
      <trkpt lat="45.48543" lon="6.21292">
        <ele>826</ele>
        <time>2024-06-06T08:06:53+00:00</time>
      </trkpt>
      <trkpt lat="45.48542" lon="6.21297">
        <ele>826</ele>
        <time>2024-06-06T08:06:56+00:00</time>
      </trkpt>
      <trkpt lat="45.4854" lon="6.21301">
        <ele>826</ele>
        <time>2024-06-06T08:06:59+00:00</time>
      </trkpt>
      <trkpt lat="45.48537" lon="6.21304">
        <ele>826</ele>
        <time>2024-06-06T08:07:02+00:00</time>
      </trkpt>
      <trkpt lat="45.48535" lon="6.21343">
        <ele>826</ele>
        <time>2024-06-06T08:07:05+00:00</time>
      </trkpt>
      <trkpt lat="45.48531" lon="6.21402">
        <ele>825</ele>
        <time>2024-06-06T08:07:08+00:00</time>
      </trkpt>
      <trkpt lat="45.48552" lon="6.21451">
        <ele>825</ele>
        <time>2024-06-06T08:07:11+00:00</time>
      </trkpt>
      <trkpt lat="45.48573" lon="6.21489">
        <ele>827</ele>
        <time>2024-06-06T08:07:14+00:00</time>
      </trkpt>
      <trkpt lat="45.48573" lon="6.21499">
        <ele>827</ele>
        <time>2024-06-06T08:07:17+00:00</time>
      </trkpt>
      <trkpt lat="45.48573" lon="6.215">
        <ele>829</ele>
        <time>2024-06-06T08:07:20+00:00</time>
      </trkpt>
      <trkpt lat="45.48588" lon="6.2152">
        <ele>829</ele>
        <time>2024-06-06T08:07:23+00:00</time>
      </trkpt>
      <trkpt lat="45.48597" lon="6.21539">
        <ele>829</ele>
        <time>2024-06-06T08:07:26+00:00</time>
      </trkpt>
      <trkpt lat="45.48606" lon="6.21555">
        <ele>830</ele>
        <time>2024-06-06T08:07:29+00:00</time>
      </trkpt>
      <trkpt lat="45.48619" lon="6.2157">
        <ele>829</ele>
        <time>2024-06-06T08:07:32+00:00</time>
      </trkpt>
      <trkpt lat="45.4863" lon="6.21589">
        <ele>830</ele>
        <time>2024-06-06T08:07:35+00:00</time>
      </trkpt>
      <trkpt lat="45.48647" lon="6.21607">
        <ele>831</ele>
        <time>2024-06-06T08:07:38+00:00</time>
      </trkpt>
      <trkpt lat="45.48655" lon="6.21627">
        <ele>831</ele>
        <time>2024-06-06T08:07:41+00:00</time>
      </trkpt>
      <trkpt lat="45.48659" lon="6.21648">
        <ele>828</ele>
        <time>2024-06-06T08:07:44+00:00</time>
      </trkpt>
      <trkpt lat="45.48661" lon="6.21658">
        <ele>830</ele>
        <time>2024-06-06T08:07:47+00:00</time>
      </trkpt>
      <trkpt lat="45.48685" lon="6.21696">
        <ele>826</ele>
        <time>2024-06-06T08:07:50+00:00</time>
      </trkpt>
      <trkpt lat="45.48695" lon="6.21707">
        <ele>824</ele>
        <time>2024-06-06T08:07:53+00:00</time>
      </trkpt>
      <trkpt lat="45.48697" lon="6.2171">
        <ele>824</ele>
        <time>2024-06-06T08:07:56+00:00</time>
      </trkpt>
      <trkpt lat="45.48706" lon="6.21732">
        <ele>825</ele>
        <time>2024-06-06T08:07:59+00:00</time>
      </trkpt>
      <trkpt lat="45.48717" lon="6.21759">
        <ele>824</ele>
        <time>2024-06-06T08:08:02+00:00</time>
      </trkpt>
      <trkpt lat="45.48734" lon="6.21785">
        <ele>824</ele>
        <time>2024-06-06T08:08:05+00:00</time>
      </trkpt>
      <trkpt lat="45.48732" lon="6.21807">
        <ele>825</ele>
        <time>2024-06-06T08:08:08+00:00</time>
      </trkpt>
      <trkpt lat="45.4873" lon="6.21819">
        <ele>830</ele>
        <time>2024-06-06T08:08:11+00:00</time>
      </trkpt>
      <trkpt lat="45.4874" lon="6.21862">
        <ele>830</ele>
        <time>2024-06-06T08:08:14+00:00</time>
      </trkpt>
      <trkpt lat="45.48755" lon="6.21895">
        <ele>830</ele>
        <time>2024-06-06T08:08:17+00:00</time>
      </trkpt>
      <trkpt lat="45.48757" lon="6.2193">
        <ele>835</ele>
        <time>2024-06-06T08:08:20+00:00</time>
      </trkpt>
      <trkpt lat="45.48759" lon="6.21967">
        <ele>843</ele>
        <time>2024-06-06T08:08:23+00:00</time>
      </trkpt>
      <trkpt lat="45.48771" lon="6.21987">
        <ele>839</ele>
        <time>2024-06-06T08:08:26+00:00</time>
      </trkpt>
      <trkpt lat="45.48767" lon="6.22014">
        <ele>848</ele>
        <time>2024-06-06T08:08:29+00:00</time>
      </trkpt>
      <trkpt lat="45.48755" lon="6.22029">
        <ele>854</ele>
        <time>2024-06-06T08:08:32+00:00</time>
      </trkpt>
      <trkpt lat="45.48758" lon="6.22059">
        <ele>857</ele>
        <time>2024-06-06T08:08:35+00:00</time>
      </trkpt>
      <trkpt lat="45.48766" lon="6.22098">
        <ele>857</ele>
        <time>2024-06-06T08:08:38+00:00</time>
      </trkpt>
      <trkpt lat="45.4877" lon="6.2214">
        <ele>857</ele>
        <time>2024-06-06T08:08:41+00:00</time>
      </trkpt>
      <trkpt lat="45.48778" lon="6.22155">
        <ele>853</ele>
        <time>2024-06-06T08:08:44+00:00</time>
      </trkpt>
      <trkpt lat="45.48775" lon="6.22185">
        <ele>857</ele>
        <time>2024-06-06T08:08:47+00:00</time>
      </trkpt>
      <trkpt lat="45.48783" lon="6.22202">
        <ele>859</ele>
        <time>2024-06-06T08:08:50+00:00</time>
      </trkpt>
      <trkpt lat="45.48789" lon="6.22226">
        <ele>856</ele>
        <time>2024-06-06T08:08:53+00:00</time>
      </trkpt>
      <trkpt lat="45.488" lon="6.22242">
        <ele>857</ele>
        <time>2024-06-06T08:08:56+00:00</time>
      </trkpt>
      <trkpt lat="45.48803" lon="6.22261">
        <ele>858</ele>
        <time>2024-06-06T08:08:59+00:00</time>
      </trkpt>
      <trkpt lat="45.48812" lon="6.22287">
        <ele>860</ele>
        <time>2024-06-06T08:09:02+00:00</time>
      </trkpt>
      <trkpt lat="45.48819" lon="6.223">
        <ele>862</ele>
        <time>2024-06-06T08:09:05+00:00</time>
      </trkpt>
      <trkpt lat="45.48825" lon="6.22301">
        <ele>864</ele>
        <time>2024-06-06T08:09:08+00:00</time>
      </trkpt>
      <trkpt lat="45.48846" lon="6.22323">
        <ele>861</ele>
        <time>2024-06-06T08:09:11+00:00</time>
      </trkpt>
      <trkpt lat="45.48858" lon="6.22327">
        <ele>864</ele>
        <time>2024-06-06T08:09:14+00:00</time>
      </trkpt>
      <trkpt lat="45.4886" lon="6.22333">
        <ele>866</ele>
        <time>2024-06-06T08:09:17+00:00</time>
      </trkpt>
      <trkpt lat="45.48874" lon="6.22347">
        <ele>863</ele>
        <time>2024-06-06T08:09:20+00:00</time>
      </trkpt>
      <trkpt lat="45.48891" lon="6.22363">
        <ele>865</ele>
        <time>2024-06-06T08:09:23+00:00</time>
      </trkpt>
      <trkpt lat="45.48901" lon="6.22377">
        <ele>864</ele>
        <time>2024-06-06T08:09:26+00:00</time>
      </trkpt>
      <trkpt lat="45.48912" lon="6.22388">
        <ele>866</ele>
        <time>2024-06-06T08:09:29+00:00</time>
      </trkpt>
      <trkpt lat="45.48926" lon="6.22407">
        <ele>866</ele>
        <time>2024-06-06T08:09:32+00:00</time>
      </trkpt>
      <trkpt lat="45.48932" lon="6.22418">
        <ele>864</ele>
        <time>2024-06-06T08:09:35+00:00</time>
      </trkpt>
      <trkpt lat="45.48934" lon="6.22426">
        <ele>865</ele>
        <time>2024-06-06T08:09:38+00:00</time>
      </trkpt>
      <trkpt lat="45.48938" lon="6.22433">
        <ele>866</ele>
        <time>2024-06-06T08:09:41+00:00</time>
      </trkpt>
      <trkpt lat="45.4894" lon="6.22435">
        <ele>865</ele>
        <time>2024-06-06T08:09:44+00:00</time>
      </trkpt>
      <trkpt lat="45.48945" lon="6.22442">
        <ele>867</ele>
        <time>2024-06-06T08:09:47+00:00</time>
      </trkpt>
      <trkpt lat="45.48948" lon="6.22448">
        <ele>867</ele>
        <time>2024-06-06T08:09:50+00:00</time>
      </trkpt>
      <trkpt lat="45.4895" lon="6.2245">
        <ele>869</ele>
        <time>2024-06-06T08:09:53+00:00</time>
      </trkpt>
      <trkpt lat="45.48955" lon="6.22458">
        <ele>867</ele>
        <time>2024-06-06T08:09:56+00:00</time>
      </trkpt>
      <trkpt lat="45.48958" lon="6.22467">
        <ele>868</ele>
        <time>2024-06-06T08:09:59+00:00</time>
      </trkpt>
      <trkpt lat="45.48956" lon="6.2247">
        <ele>869</ele>
        <time>2024-06-06T08:10:02+00:00</time>
      </trkpt>
      <trkpt lat="45.48953" lon="6.22473">
        <ele>869</ele>
        <time>2024-06-06T08:10:05+00:00</time>
      </trkpt>
      <trkpt lat="45.48953" lon="6.22473">
        <ele>869</ele>
        <time>2024-06-06T08:10:08+00:00</time>
      </trkpt>
      <trkpt lat="45.48952" lon="6.22474">
        <ele>869</ele>
        <time>2024-06-06T08:10:11+00:00</time>
      </trkpt>
      <trkpt lat="45.48948" lon="6.22478">
        <ele>870</ele>
        <time>2024-06-06T08:10:14+00:00</time>
      </trkpt>
      <trkpt lat="45.48942" lon="6.2248">
        <ele>871</ele>
        <time>2024-06-06T08:10:17+00:00</time>
      </trkpt>
      <trkpt lat="45.48939" lon="6.22486">
        <ele>873</ele>
        <time>2024-06-06T08:10:20+00:00</time>
      </trkpt>
      <trkpt lat="45.48935" lon="6.22491">
        <ele>874</ele>
        <time>2024-06-06T08:10:23+00:00</time>
      </trkpt>
      <trkpt lat="45.48934" lon="6.22498">
        <ele>874</ele>
        <time>2024-06-06T08:10:26+00:00</time>
      </trkpt>
      <trkpt lat="45.48937" lon="6.22507">
        <ele>875</ele>
        <time>2024-06-06T08:10:29+00:00</time>
      </trkpt>
      <trkpt lat="45.4894" lon="6.22517">
        <ele>874</ele>
        <time>2024-06-06T08:10:32+00:00</time>
      </trkpt>
      <trkpt lat="45.48942" lon="6.22526">
        <ele>875</ele>
        <time>2024-06-06T08:10:35+00:00</time>
      </trkpt>
      <trkpt lat="45.48945" lon="6.22533">
        <ele>876</ele>
        <time>2024-06-06T08:10:38+00:00</time>
      </trkpt>
      <trkpt lat="45.48948" lon="6.22541">
        <ele>877</ele>
        <time>2024-06-06T08:10:41+00:00</time>
      </trkpt>
      <trkpt lat="45.48951" lon="6.22547">
        <ele>872</ele>
        <time>2024-06-06T08:10:44+00:00</time>
      </trkpt>
      <trkpt lat="45.48958" lon="6.22565">
        <ele>875</ele>
        <time>2024-06-06T08:10:47+00:00</time>
      </trkpt>
      <trkpt lat="45.48961" lon="6.22572">
        <ele>875</ele>
        <time>2024-06-06T08:10:50+00:00</time>
      </trkpt>
      <trkpt lat="45.48964" lon="6.22586">
        <ele>876</ele>
        <time>2024-06-06T08:10:53+00:00</time>
      </trkpt>
      <trkpt lat="45.48969" lon="6.22592">
        <ele>874</ele>
        <time>2024-06-06T08:10:56+00:00</time>
      </trkpt>
      <trkpt lat="45.48974" lon="6.22595">
        <ele>876</ele>
        <time>2024-06-06T08:10:59+00:00</time>
      </trkpt>
      <trkpt lat="45.48985" lon="6.226">
        <ele>873</ele>
        <time>2024-06-06T08:11:02+00:00</time>
      </trkpt>
      <trkpt lat="45.49002" lon="6.22612">
        <ele>874</ele>
        <time>2024-06-06T08:11:05+00:00</time>
      </trkpt>
      <trkpt lat="45.49011" lon="6.22621">
        <ele>874</ele>
        <time>2024-06-06T08:11:08+00:00</time>
      </trkpt>
      <trkpt lat="45.49015" lon="6.22626">
        <ele>874</ele>
        <time>2024-06-06T08:11:11+00:00</time>
      </trkpt>
      <trkpt lat="45.4902" lon="6.22631">
        <ele>873</ele>
        <time>2024-06-06T08:11:14+00:00</time>
      </trkpt>
      <trkpt lat="45.49024" lon="6.22632">
        <ele>875</ele>
        <time>2024-06-06T08:11:17+00:00</time>
      </trkpt>
      <trkpt lat="45.49031" lon="6.22638">
        <ele>873</ele>
        <time>2024-06-06T08:11:20+00:00</time>
      </trkpt>
      <trkpt lat="45.49035" lon="6.22638">
        <ele>873</ele>
        <time>2024-06-06T08:11:23+00:00</time>
      </trkpt>
      <trkpt lat="45.49039" lon="6.22636">
        <ele>873</ele>
        <time>2024-06-06T08:11:26+00:00</time>
      </trkpt>
      <trkpt lat="45.49044" lon="6.22629">
        <ele>869</ele>
        <time>2024-06-06T08:11:29+00:00</time>
      </trkpt>
      <trkpt lat="45.49056" lon="6.22617">
        <ele>871</ele>
        <time>2024-06-06T08:11:32+00:00</time>
      </trkpt>
      <trkpt lat="45.49059" lon="6.22613">
        <ele>867</ele>
        <time>2024-06-06T08:11:35+00:00</time>
      </trkpt>
      <trkpt lat="45.49061" lon="6.22612">
        <ele>865</ele>
        <time>2024-06-06T08:11:38+00:00</time>
      </trkpt>
      <trkpt lat="45.49068" lon="6.22632">
        <ele>869</ele>
        <time>2024-06-06T08:11:41+00:00</time>
      </trkpt>
      <trkpt lat="45.49067" lon="6.22644">
        <ele>869</ele>
        <time>2024-06-06T08:11:44+00:00</time>
      </trkpt>
      <trkpt lat="45.49069" lon="6.22645">
        <ele>869</ele>
        <time>2024-06-06T08:11:47+00:00</time>
      </trkpt>
      <trkpt lat="45.49072" lon="6.22656">
        <ele>867</ele>
        <time>2024-06-06T08:11:50+00:00</time>
      </trkpt>
      <trkpt lat="45.49076" lon="6.2266">
        <ele>866</ele>
        <time>2024-06-06T08:11:53+00:00</time>
      </trkpt>
      <trkpt lat="45.49079" lon="6.22669">
        <ele>866</ele>
        <time>2024-06-06T08:11:56+00:00</time>
      </trkpt>
      <trkpt lat="45.49083" lon="6.22673">
        <ele>867</ele>
        <time>2024-06-06T08:11:59+00:00</time>
      </trkpt>
      <trkpt lat="45.4909" lon="6.22677">
        <ele>867</ele>
        <time>2024-06-06T08:12:02+00:00</time>
      </trkpt>
      <trkpt lat="45.49093" lon="6.22681">
        <ele>867</ele>
        <time>2024-06-06T08:12:05+00:00</time>
      </trkpt>
      <trkpt lat="45.49099" lon="6.22683">
        <ele>867</ele>
        <time>2024-06-06T08:12:08+00:00</time>
      </trkpt>
      <trkpt lat="45.49106" lon="6.22689">
        <ele>863</ele>
        <time>2024-06-06T08:12:11+00:00</time>
      </trkpt>
      <trkpt lat="45.49109" lon="6.22696">
        <ele>867</ele>
        <time>2024-06-06T08:12:14+00:00</time>
      </trkpt>
      <trkpt lat="45.49113" lon="6.22699">
        <ele>865</ele>
        <time>2024-06-06T08:12:17+00:00</time>
      </trkpt>
      <trkpt lat="45.49117" lon="6.22702">
        <ele>867</ele>
        <time>2024-06-06T08:12:20+00:00</time>
      </trkpt>
      <trkpt lat="45.49123" lon="6.22708">
        <ele>865</ele>
        <time>2024-06-06T08:12:23+00:00</time>
      </trkpt>
      <trkpt lat="45.49129" lon="6.22715">
        <ele>866</ele>
        <time>2024-06-06T08:12:26+00:00</time>
      </trkpt>
      <trkpt lat="45.49137" lon="6.22718">
        <ele>866</ele>
        <time>2024-06-06T08:12:29+00:00</time>
      </trkpt>
      <trkpt lat="45.49143" lon="6.22724">
        <ele>866</ele>
        <time>2024-06-06T08:12:32+00:00</time>
      </trkpt>
      <trkpt lat="45.49148" lon="6.22728">
        <ele>866</ele>
        <time>2024-06-06T08:12:35+00:00</time>
      </trkpt>
      <trkpt lat="45.49155" lon="6.22733">
        <ele>865</ele>
        <time>2024-06-06T08:12:38+00:00</time>
      </trkpt>
      <trkpt lat="45.4916" lon="6.22738">
        <ele>865</ele>
        <time>2024-06-06T08:12:41+00:00</time>
      </trkpt>
      <trkpt lat="45.49164" lon="6.2275">
        <ele>864</ele>
        <time>2024-06-06T08:12:44+00:00</time>
      </trkpt>
      <trkpt lat="45.49165" lon="6.22753">
        <ele>863</ele>
        <time>2024-06-06T08:12:47+00:00</time>
      </trkpt>
      <trkpt lat="45.49168" lon="6.22758">
        <ele>863</ele>
        <time>2024-06-06T08:12:50+00:00</time>
      </trkpt>
      <trkpt lat="45.49171" lon="6.22766">
        <ele>862</ele>
        <time>2024-06-06T08:12:53+00:00</time>
      </trkpt>
      <trkpt lat="45.49178" lon="6.2277">
        <ele>863</ele>
        <time>2024-06-06T08:12:56+00:00</time>
      </trkpt>
      <trkpt lat="45.49185" lon="6.22771">
        <ele>860</ele>
        <time>2024-06-06T08:12:59+00:00</time>
      </trkpt>
      <trkpt lat="45.4919" lon="6.2277">
        <ele>855</ele>
        <time>2024-06-06T08:13:02+00:00</time>
      </trkpt>
      <trkpt lat="45.49194" lon="6.22771">
        <ele>858</ele>
        <time>2024-06-06T08:13:05+00:00</time>
      </trkpt>
      <trkpt lat="45.492" lon="6.22773">
        <ele>858</ele>
        <time>2024-06-06T08:13:08+00:00</time>
      </trkpt>
      <trkpt lat="45.49204" lon="6.22772">
        <ele>855</ele>
        <time>2024-06-06T08:13:11+00:00</time>
      </trkpt>
      <trkpt lat="45.49207" lon="6.22774">
        <ele>855</ele>
        <time>2024-06-06T08:13:14+00:00</time>
      </trkpt>
      <trkpt lat="45.49211" lon="6.2278">
        <ele>854</ele>
        <time>2024-06-06T08:13:17+00:00</time>
      </trkpt>
      <trkpt lat="45.49215" lon="6.22788">
        <ele>854</ele>
        <time>2024-06-06T08:13:20+00:00</time>
      </trkpt>
      <trkpt lat="45.49219" lon="6.22794">
        <ele>856</ele>
        <time>2024-06-06T08:13:23+00:00</time>
      </trkpt>
      <trkpt lat="45.49228" lon="6.22795">
        <ele>850</ele>
        <time>2024-06-06T08:13:26+00:00</time>
      </trkpt>
      <trkpt lat="45.49232" lon="6.22797">
        <ele>854</ele>
        <time>2024-06-06T08:13:29+00:00</time>
      </trkpt>
      <trkpt lat="45.49236" lon="6.22801">
        <ele>851</ele>
        <time>2024-06-06T08:13:32+00:00</time>
      </trkpt>
      <trkpt lat="45.49243" lon="6.2281">
        <ele>852</ele>
        <time>2024-06-06T08:13:35+00:00</time>
      </trkpt>
      <trkpt lat="45.49252" lon="6.22829">
        <ele>854</ele>
        <time>2024-06-06T08:13:38+00:00</time>
      </trkpt>
      <trkpt lat="45.49263" lon="6.22845">
        <ele>855</ele>
        <time>2024-06-06T08:13:41+00:00</time>
      </trkpt>
      <trkpt lat="45.4927" lon="6.22859">
        <ele>858</ele>
        <time>2024-06-06T08:13:44+00:00</time>
      </trkpt>
      <trkpt lat="45.49272" lon="6.22864">
        <ele>857</ele>
        <time>2024-06-06T08:13:47+00:00</time>
      </trkpt>
      <trkpt lat="45.49277" lon="6.22875">
        <ele>856</ele>
        <time>2024-06-06T08:13:50+00:00</time>
      </trkpt>
      <trkpt lat="45.4928" lon="6.22881">
        <ele>855</ele>
        <time>2024-06-06T08:13:53+00:00</time>
      </trkpt>
      <trkpt lat="45.49285" lon="6.22886">
        <ele>860</ele>
        <time>2024-06-06T08:13:56+00:00</time>
      </trkpt>
      <trkpt lat="45.49293" lon="6.22896">
        <ele>862</ele>
        <time>2024-06-06T08:13:59+00:00</time>
      </trkpt>
      <trkpt lat="45.49295" lon="6.22909">
        <ele>860</ele>
        <time>2024-06-06T08:14:02+00:00</time>
      </trkpt>
      <trkpt lat="45.49297" lon="6.22923">
        <ele>857</ele>
        <time>2024-06-06T08:14:05+00:00</time>
      </trkpt>
      <trkpt lat="45.49299" lon="6.22936">
        <ele>858</ele>
        <time>2024-06-06T08:14:08+00:00</time>
      </trkpt>
      <trkpt lat="45.49302" lon="6.22954">
        <ele>858</ele>
        <time>2024-06-06T08:14:11+00:00</time>
      </trkpt>
      <trkpt lat="45.49303" lon="6.2297">
        <ele>857</ele>
        <time>2024-06-06T08:14:14+00:00</time>
      </trkpt>
      <trkpt lat="45.49303" lon="6.2297">
        <ele>857</ele>
        <time>2024-06-06T08:14:17+00:00</time>
      </trkpt>
      <trkpt lat="45.49303" lon="6.22971">
        <ele>857</ele>
        <time>2024-06-06T08:14:20+00:00</time>
      </trkpt>
      <trkpt lat="45.49305" lon="6.2299">
        <ele>856</ele>
        <time>2024-06-06T08:14:23+00:00</time>
      </trkpt>
      <trkpt lat="45.49308" lon="6.23003">
        <ele>857</ele>
        <time>2024-06-06T08:14:26+00:00</time>
      </trkpt>
      <trkpt lat="45.49314" lon="6.23023">
        <ele>857</ele>
        <time>2024-06-06T08:14:29+00:00</time>
      </trkpt>
      <trkpt lat="45.49316" lon="6.23035">
        <ele>857</ele>
        <time>2024-06-06T08:14:32+00:00</time>
      </trkpt>
      <trkpt lat="45.49316" lon="6.23049">
        <ele>859</ele>
        <time>2024-06-06T08:14:35+00:00</time>
      </trkpt>
      <trkpt lat="45.49317" lon="6.23067">
        <ele>860</ele>
        <time>2024-06-06T08:14:38+00:00</time>
      </trkpt>
      <trkpt lat="45.49317" lon="6.23084">
        <ele>861</ele>
        <time>2024-06-06T08:14:41+00:00</time>
      </trkpt>
      <trkpt lat="45.49317" lon="6.23094">
        <ele>861</ele>
        <time>2024-06-06T08:14:44+00:00</time>
      </trkpt>
      <trkpt lat="45.49317" lon="6.23104">
        <ele>862</ele>
        <time>2024-06-06T08:14:47+00:00</time>
      </trkpt>
      <trkpt lat="45.49317" lon="6.23113">
        <ele>862</ele>
        <time>2024-06-06T08:14:50+00:00</time>
      </trkpt>
      <trkpt lat="45.49317" lon="6.23125">
        <ele>862</ele>
        <time>2024-06-06T08:14:53+00:00</time>
      </trkpt>
      <trkpt lat="45.49317" lon="6.23134">
        <ele>861</ele>
        <time>2024-06-06T08:14:56+00:00</time>
      </trkpt>
      <trkpt lat="45.49317" lon="6.23145">
        <ele>862</ele>
        <time>2024-06-06T08:14:59+00:00</time>
      </trkpt>
      <trkpt lat="45.49317" lon="6.23157">
        <ele>862</ele>
        <time>2024-06-06T08:15:02+00:00</time>
      </trkpt>
      <trkpt lat="45.49317" lon="6.23165">
        <ele>862</ele>
        <time>2024-06-06T08:15:05+00:00</time>
      </trkpt>
      <trkpt lat="45.49317" lon="6.23172">
        <ele>863</ele>
        <time>2024-06-06T08:15:08+00:00</time>
      </trkpt>
      <trkpt lat="45.49318" lon="6.2318">
        <ele>863</ele>
        <time>2024-06-06T08:15:11+00:00</time>
      </trkpt>
      <trkpt lat="45.49318" lon="6.23188">
        <ele>863</ele>
        <time>2024-06-06T08:15:14+00:00</time>
      </trkpt>
      <trkpt lat="45.49319" lon="6.23197">
        <ele>864</ele>
        <time>2024-06-06T08:15:17+00:00</time>
      </trkpt>
      <trkpt lat="45.49321" lon="6.23205">
        <ele>862</ele>
        <time>2024-06-06T08:15:20+00:00</time>
      </trkpt>
      <trkpt lat="45.49322" lon="6.23212">
        <ele>862</ele>
        <time>2024-06-06T08:15:23+00:00</time>
      </trkpt>
      <trkpt lat="45.49324" lon="6.23221">
        <ele>863</ele>
        <time>2024-06-06T08:15:26+00:00</time>
      </trkpt>
      <trkpt lat="45.49326" lon="6.23229">
        <ele>863</ele>
        <time>2024-06-06T08:15:29+00:00</time>
      </trkpt>
      <trkpt lat="45.49328" lon="6.23237">
        <ele>864</ele>
        <time>2024-06-06T08:15:32+00:00</time>
      </trkpt>
      <trkpt lat="45.49331" lon="6.23247">
        <ele>863</ele>
        <time>2024-06-06T08:15:35+00:00</time>
      </trkpt>
      <trkpt lat="45.49336" lon="6.23258">
        <ele>864</ele>
        <time>2024-06-06T08:15:38+00:00</time>
      </trkpt>
      <trkpt lat="45.49345" lon="6.23281">
        <ele>865</ele>
        <time>2024-06-06T08:15:41+00:00</time>
      </trkpt>
      <trkpt lat="45.49351" lon="6.23301">
        <ele>866</ele>
        <time>2024-06-06T08:15:44+00:00</time>
      </trkpt>
      <trkpt lat="45.49362" lon="6.23326">
        <ele>867</ele>
        <time>2024-06-06T08:15:47+00:00</time>
      </trkpt>
      <trkpt lat="45.49368" lon="6.2334">
        <ele>869</ele>
        <time>2024-06-06T08:15:50+00:00</time>
      </trkpt>
      <trkpt lat="45.49373" lon="6.23352">
        <ele>868</ele>
        <time>2024-06-06T08:15:53+00:00</time>
      </trkpt>
      <trkpt lat="45.49378" lon="6.23363">
        <ele>870</ele>
        <time>2024-06-06T08:15:56+00:00</time>
      </trkpt>
      <trkpt lat="45.49387" lon="6.23378">
        <ele>869</ele>
        <time>2024-06-06T08:15:59+00:00</time>
      </trkpt>
      <trkpt lat="45.49394" lon="6.23391">
        <ele>872</ele>
        <time>2024-06-06T08:16:02+00:00</time>
      </trkpt>
      <trkpt lat="45.49403" lon="6.23405">
        <ele>869</ele>
        <time>2024-06-06T08:16:05+00:00</time>
      </trkpt>
      <trkpt lat="45.49411" lon="6.23417">
        <ele>869</ele>
        <time>2024-06-06T08:16:08+00:00</time>
      </trkpt>
      <trkpt lat="45.49418" lon="6.2343">
        <ele>873</ele>
        <time>2024-06-06T08:16:11+00:00</time>
      </trkpt>
      <trkpt lat="45.49425" lon="6.23439">
        <ele>873</ele>
        <time>2024-06-06T08:16:14+00:00</time>
      </trkpt>
      <trkpt lat="45.49434" lon="6.23451">
        <ele>874</ele>
        <time>2024-06-06T08:16:17+00:00</time>
      </trkpt>
      <trkpt lat="45.49442" lon="6.23461">
        <ele>875</ele>
        <time>2024-06-06T08:16:20+00:00</time>
      </trkpt>
      <trkpt lat="45.49449" lon="6.23468">
        <ele>872</ele>
        <time>2024-06-06T08:16:23+00:00</time>
      </trkpt>
      <trkpt lat="45.49455" lon="6.23475">
        <ele>874</ele>
        <time>2024-06-06T08:16:26+00:00</time>
      </trkpt>
      <trkpt lat="45.49462" lon="6.23482">
        <ele>870</ele>
        <time>2024-06-06T08:16:29+00:00</time>
      </trkpt>
      <trkpt lat="45.49469" lon="6.23487">
        <ele>870</ele>
        <time>2024-06-06T08:16:32+00:00</time>
      </trkpt>
      <trkpt lat="45.49473" lon="6.23489">
        <ele>867</ele>
        <time>2024-06-06T08:16:35+00:00</time>
      </trkpt>
      <trkpt lat="45.49478" lon="6.23492">
        <ele>869</ele>
        <time>2024-06-06T08:16:38+00:00</time>
      </trkpt>
      <trkpt lat="45.49483" lon="6.23494">
        <ele>868</ele>
        <time>2024-06-06T08:16:41+00:00</time>
      </trkpt>
      <trkpt lat="45.49487" lon="6.23497">
        <ele>868</ele>
        <time>2024-06-06T08:16:44+00:00</time>
      </trkpt>
      <trkpt lat="45.49491" lon="6.23501">
        <ele>868</ele>
        <time>2024-06-06T08:16:47+00:00</time>
      </trkpt>
      <trkpt lat="45.49495" lon="6.23503">
        <ele>868</ele>
        <time>2024-06-06T08:16:50+00:00</time>
      </trkpt>
      <trkpt lat="45.49499" lon="6.23508">
        <ele>868</ele>
        <time>2024-06-06T08:16:53+00:00</time>
      </trkpt>
      <trkpt lat="45.49502" lon="6.23513">
        <ele>868</ele>
        <time>2024-06-06T08:16:56+00:00</time>
      </trkpt>
      <trkpt lat="45.49506" lon="6.23519">
        <ele>868</ele>
        <time>2024-06-06T08:16:59+00:00</time>
      </trkpt>
      <trkpt lat="45.49511" lon="6.23528">
        <ele>868</ele>
        <time>2024-06-06T08:17:02+00:00</time>
      </trkpt>
      <trkpt lat="45.49518" lon="6.23541">
        <ele>868</ele>
        <time>2024-06-06T08:17:05+00:00</time>
      </trkpt>
      <trkpt lat="45.49524" lon="6.23552">
        <ele>869</ele>
        <time>2024-06-06T08:17:08+00:00</time>
      </trkpt>
      <trkpt lat="45.49531" lon="6.23567">
        <ele>869</ele>
        <time>2024-06-06T08:17:11+00:00</time>
      </trkpt>
      <trkpt lat="45.49539" lon="6.23582">
        <ele>872</ele>
        <time>2024-06-06T08:17:14+00:00</time>
      </trkpt>
      <trkpt lat="45.49547" lon="6.23596">
        <ele>869</ele>
        <time>2024-06-06T08:17:17+00:00</time>
      </trkpt>
      <trkpt lat="45.49554" lon="6.23608">
        <ele>870</ele>
        <time>2024-06-06T08:17:20+00:00</time>
      </trkpt>
      <trkpt lat="45.49561" lon="6.23619">
        <ele>869</ele>
        <time>2024-06-06T08:17:23+00:00</time>
      </trkpt>
      <trkpt lat="45.49571" lon="6.23634">
        <ele>869</ele>
        <time>2024-06-06T08:17:26+00:00</time>
      </trkpt>
      <trkpt lat="45.49583" lon="6.23649">
        <ele>869</ele>
        <time>2024-06-06T08:17:29+00:00</time>
      </trkpt>
      <trkpt lat="45.49591" lon="6.23661">
        <ele>870</ele>
        <time>2024-06-06T08:17:32+00:00</time>
      </trkpt>
      <trkpt lat="45.49596" lon="6.23667">
        <ele>870</ele>
        <time>2024-06-06T08:17:35+00:00</time>
      </trkpt>
      <trkpt lat="45.49601" lon="6.23672">
        <ele>869</ele>
        <time>2024-06-06T08:17:38+00:00</time>
      </trkpt>
      <trkpt lat="45.49607" lon="6.23677">
        <ele>871</ele>
        <time>2024-06-06T08:17:41+00:00</time>
      </trkpt>
      <trkpt lat="45.4961" lon="6.23679">
        <ele>871</ele>
        <time>2024-06-06T08:17:44+00:00</time>
      </trkpt>
      <trkpt lat="45.49616" lon="6.23682">
        <ele>871</ele>
        <time>2024-06-06T08:17:47+00:00</time>
      </trkpt>
      <trkpt lat="45.49621" lon="6.23684">
        <ele>870</ele>
        <time>2024-06-06T08:17:50+00:00</time>
      </trkpt>
      <trkpt lat="45.49626" lon="6.23686">
        <ele>870</ele>
        <time>2024-06-06T08:17:53+00:00</time>
      </trkpt>
      <trkpt lat="45.4964" lon="6.2369">
        <ele>870</ele>
        <time>2024-06-06T08:17:56+00:00</time>
      </trkpt>
      <trkpt lat="45.49681" lon="6.23701">
        <ele>871</ele>
        <time>2024-06-06T08:17:59+00:00</time>
      </trkpt>
      <trkpt lat="45.49704" lon="6.23708">
        <ele>871</ele>
        <time>2024-06-06T08:18:02+00:00</time>
      </trkpt>
      <trkpt lat="45.49729" lon="6.23716">
        <ele>871</ele>
        <time>2024-06-06T08:18:05+00:00</time>
      </trkpt>
      <trkpt lat="45.49753" lon="6.23723">
        <ele>872</ele>
        <time>2024-06-06T08:18:08+00:00</time>
      </trkpt>
      <trkpt lat="45.49777" lon="6.23731">
        <ele>873</ele>
        <time>2024-06-06T08:18:11+00:00</time>
      </trkpt>
      <trkpt lat="45.49789" lon="6.23734">
        <ele>873</ele>
        <time>2024-06-06T08:18:14+00:00</time>
      </trkpt>
      <trkpt lat="45.49804" lon="6.23738">
        <ele>873</ele>
        <time>2024-06-06T08:18:17+00:00</time>
      </trkpt>
      <trkpt lat="45.49829" lon="6.23742">
        <ele>874</ele>
        <time>2024-06-06T08:18:20+00:00</time>
      </trkpt>
      <trkpt lat="45.49874" lon="6.23749">
        <ele>876</ele>
        <time>2024-06-06T08:18:23+00:00</time>
      </trkpt>
      <trkpt lat="45.49919" lon="6.23759">
        <ele>878</ele>
        <time>2024-06-06T08:18:26+00:00</time>
      </trkpt>
      <trkpt lat="45.49936" lon="6.2376">
        <ele>880</ele>
        <time>2024-06-06T08:18:29+00:00</time>
      </trkpt>
      <trkpt lat="45.49954" lon="6.2376">
        <ele>880</ele>
        <time>2024-06-06T08:18:32+00:00</time>
      </trkpt>
      <trkpt lat="45.49974" lon="6.23764">
        <ele>881</ele>
        <time>2024-06-06T08:18:35+00:00</time>
      </trkpt>
      <trkpt lat="45.49982" lon="6.23763">
        <ele>881</ele>
        <time>2024-06-06T08:18:38+00:00</time>
      </trkpt>
      <trkpt lat="45.50002" lon="6.23758">
        <ele>881</ele>
        <time>2024-06-06T08:18:41+00:00</time>
      </trkpt>
      <trkpt lat="45.50022" lon="6.2375">
        <ele>882</ele>
        <time>2024-06-06T08:18:44+00:00</time>
      </trkpt>
      <trkpt lat="45.50042" lon="6.2374">
        <ele>884</ele>
        <time>2024-06-06T08:18:47+00:00</time>
      </trkpt>
      <trkpt lat="45.50055" lon="6.23734">
        <ele>884</ele>
        <time>2024-06-06T08:18:50+00:00</time>
      </trkpt>
      <trkpt lat="45.50061" lon="6.23727">
        <ele>885</ele>
        <time>2024-06-06T08:18:53+00:00</time>
      </trkpt>
      <trkpt lat="45.50074" lon="6.2373">
        <ele>885</ele>
        <time>2024-06-06T08:18:56+00:00</time>
      </trkpt>
      <trkpt lat="45.5009" lon="6.23734">
        <ele>886</ele>
        <time>2024-06-06T08:18:59+00:00</time>
      </trkpt>
      <trkpt lat="45.50102" lon="6.2374">
        <ele>888</ele>
        <time>2024-06-06T08:19:02+00:00</time>
      </trkpt>
      <trkpt lat="45.5011" lon="6.23744">
        <ele>888</ele>
        <time>2024-06-06T08:19:05+00:00</time>
      </trkpt>
      <trkpt lat="45.50114" lon="6.23742">
        <ele>889</ele>
        <time>2024-06-06T08:19:08+00:00</time>
      </trkpt>
      <trkpt lat="45.50119" lon="6.23735">
        <ele>889</ele>
        <time>2024-06-06T08:19:11+00:00</time>
      </trkpt>
      <trkpt lat="45.50125" lon="6.23743">
        <ele>890</ele>
        <time>2024-06-06T08:19:14+00:00</time>
      </trkpt>
      <trkpt lat="45.50125" lon="6.23743">
        <ele>890</ele>
        <time>2024-06-06T08:19:17+00:00</time>
      </trkpt>
      <trkpt lat="45.5013" lon="6.2375">
        <ele>890</ele>
        <time>2024-06-06T08:19:20+00:00</time>
      </trkpt>
      <trkpt lat="45.50143" lon="6.23741">
        <ele>890</ele>
        <time>2024-06-06T08:19:23+00:00</time>
      </trkpt>
      <trkpt lat="45.50148" lon="6.23739">
        <ele>890</ele>
        <time>2024-06-06T08:19:26+00:00</time>
      </trkpt>
      <trkpt lat="45.50155" lon="6.23739">
        <ele>891</ele>
        <time>2024-06-06T08:19:29+00:00</time>
      </trkpt>
      <trkpt lat="45.50162" lon="6.2374">
        <ele>892</ele>
        <time>2024-06-06T08:19:32+00:00</time>
      </trkpt>
      <trkpt lat="45.50169" lon="6.23742">
        <ele>892</ele>
        <time>2024-06-06T08:19:35+00:00</time>
      </trkpt>
      <trkpt lat="45.50177" lon="6.2375">
        <ele>893</ele>
        <time>2024-06-06T08:19:38+00:00</time>
      </trkpt>
      <trkpt lat="45.50187" lon="6.23765">
        <ele>895</ele>
        <time>2024-06-06T08:19:41+00:00</time>
      </trkpt>
      <trkpt lat="45.50198" lon="6.23781">
        <ele>896</ele>
        <time>2024-06-06T08:19:44+00:00</time>
      </trkpt>
      <trkpt lat="45.50198" lon="6.23782">
        <ele>896</ele>
        <time>2024-06-06T08:19:47+00:00</time>
      </trkpt>
      <trkpt lat="45.50203" lon="6.23783">
        <ele>897</ele>
        <time>2024-06-06T08:19:50+00:00</time>
      </trkpt>
      <trkpt lat="45.50214" lon="6.23787">
        <ele>898</ele>
        <time>2024-06-06T08:19:53+00:00</time>
      </trkpt>
      <trkpt lat="45.50219" lon="6.2379">
        <ele>899</ele>
        <time>2024-06-06T08:19:56+00:00</time>
      </trkpt>
      <trkpt lat="45.50224" lon="6.23796">
        <ele>900</ele>
        <time>2024-06-06T08:19:59+00:00</time>
      </trkpt>
      <trkpt lat="45.50228" lon="6.23808">
        <ele>901</ele>
        <time>2024-06-06T08:20:02+00:00</time>
      </trkpt>
      <trkpt lat="45.50234" lon="6.23819">
        <ele>903</ele>
        <time>2024-06-06T08:20:05+00:00</time>
      </trkpt>
      <trkpt lat="45.50241" lon="6.23837">
        <ele>905</ele>
        <time>2024-06-06T08:20:08+00:00</time>
      </trkpt>
      <trkpt lat="45.50248" lon="6.23857">
        <ele>904</ele>
        <time>2024-06-06T08:20:11+00:00</time>
      </trkpt>
      <trkpt lat="45.50254" lon="6.23875">
        <ele>907</ele>
        <time>2024-06-06T08:20:14+00:00</time>
      </trkpt>
      <trkpt lat="45.50259" lon="6.23898">
        <ele>907</ele>
        <time>2024-06-06T08:20:17+00:00</time>
      </trkpt>
      <trkpt lat="45.50266" lon="6.2392">
        <ele>911</ele>
        <time>2024-06-06T08:20:20+00:00</time>
      </trkpt>
      <trkpt lat="45.50274" lon="6.23944">
        <ele>914</ele>
        <time>2024-06-06T08:20:23+00:00</time>
      </trkpt>
      <trkpt lat="45.50281" lon="6.23964">
        <ele>918</ele>
        <time>2024-06-06T08:20:26+00:00</time>
      </trkpt>
      <trkpt lat="45.50287" lon="6.23978">
        <ele>918</ele>
        <time>2024-06-06T08:20:29+00:00</time>
      </trkpt>
      <trkpt lat="45.50293" lon="6.23988">
        <ele>921</ele>
        <time>2024-06-06T08:20:32+00:00</time>
      </trkpt>
      <trkpt lat="45.50304" lon="6.23997">
        <ele>922</ele>
        <time>2024-06-06T08:20:35+00:00</time>
      </trkpt>
      <trkpt lat="45.50314" lon="6.24006">
        <ele>925</ele>
        <time>2024-06-06T08:20:38+00:00</time>
      </trkpt>
      <trkpt lat="45.5032" lon="6.24016">
        <ele>925</ele>
        <time>2024-06-06T08:20:41+00:00</time>
      </trkpt>
      <trkpt lat="45.50323" lon="6.24023">
        <ele>927</ele>
        <time>2024-06-06T08:20:44+00:00</time>
      </trkpt>
      <trkpt lat="45.50324" lon="6.24033">
        <ele>928</ele>
        <time>2024-06-06T08:20:47+00:00</time>
      </trkpt>
      <trkpt lat="45.50324" lon="6.24041">
        <ele>928</ele>
        <time>2024-06-06T08:20:50+00:00</time>
      </trkpt>
      <trkpt lat="45.50326" lon="6.24057">
        <ele>928</ele>
        <time>2024-06-06T08:20:53+00:00</time>
      </trkpt>
      <trkpt lat="45.50327" lon="6.24075">
        <ele>929</ele>
        <time>2024-06-06T08:20:56+00:00</time>
      </trkpt>
      <trkpt lat="45.50328" lon="6.24086">
        <ele>930</ele>
        <time>2024-06-06T08:20:59+00:00</time>
      </trkpt>
      <trkpt lat="45.50331" lon="6.241">
        <ele>934</ele>
        <time>2024-06-06T08:21:02+00:00</time>
      </trkpt>
      <trkpt lat="45.50334" lon="6.2411">
        <ele>934</ele>
        <time>2024-06-06T08:21:05+00:00</time>
      </trkpt>
      <trkpt lat="45.50336" lon="6.24122">
        <ele>934</ele>
        <time>2024-06-06T08:21:08+00:00</time>
      </trkpt>
      <trkpt lat="45.50337" lon="6.24135">
        <ele>934</ele>
        <time>2024-06-06T08:21:11+00:00</time>
      </trkpt>
      <trkpt lat="45.50337" lon="6.24155">
        <ele>937</ele>
        <time>2024-06-06T08:21:14+00:00</time>
      </trkpt>
      <trkpt lat="45.50339" lon="6.24186">
        <ele>940</ele>
        <time>2024-06-06T08:21:17+00:00</time>
      </trkpt>
      <trkpt lat="45.5034" lon="6.24207">
        <ele>945</ele>
        <time>2024-06-06T08:21:20+00:00</time>
      </trkpt>
      <trkpt lat="45.50339" lon="6.24226">
        <ele>942</ele>
        <time>2024-06-06T08:21:23+00:00</time>
      </trkpt>
      <trkpt lat="45.50338" lon="6.24241">
        <ele>943</ele>
        <time>2024-06-06T08:21:26+00:00</time>
      </trkpt>
      <trkpt lat="45.50339" lon="6.24252">
        <ele>943</ele>
        <time>2024-06-06T08:21:29+00:00</time>
      </trkpt>
      <trkpt lat="45.50349" lon="6.24255">
        <ele>947</ele>
        <time>2024-06-06T08:21:32+00:00</time>
      </trkpt>
      <trkpt lat="45.50352" lon="6.24243">
        <ele>950</ele>
        <time>2024-06-06T08:21:35+00:00</time>
      </trkpt>
      <trkpt lat="45.50352" lon="6.24229">
        <ele>950</ele>
        <time>2024-06-06T08:21:38+00:00</time>
      </trkpt>
      <trkpt lat="45.50352" lon="6.24223">
        <ele>950</ele>
        <time>2024-06-06T08:21:41+00:00</time>
      </trkpt>
      <trkpt lat="45.50355" lon="6.24213">
        <ele>949</ele>
        <time>2024-06-06T08:21:44+00:00</time>
      </trkpt>
      <trkpt lat="45.5036" lon="6.24202">
        <ele>952</ele>
        <time>2024-06-06T08:21:47+00:00</time>
      </trkpt>
      <trkpt lat="45.5037" lon="6.24187">
        <ele>950</ele>
        <time>2024-06-06T08:21:50+00:00</time>
      </trkpt>
      <trkpt lat="45.50381" lon="6.24176">
        <ele>956</ele>
        <time>2024-06-06T08:21:53+00:00</time>
      </trkpt>
      <trkpt lat="45.50398" lon="6.24159">
        <ele>957</ele>
        <time>2024-06-06T08:21:56+00:00</time>
      </trkpt>
      <trkpt lat="45.50409" lon="6.2415">
        <ele>959</ele>
        <time>2024-06-06T08:21:59+00:00</time>
      </trkpt>
      <trkpt lat="45.50413" lon="6.24146">
        <ele>961</ele>
        <time>2024-06-06T08:22:02+00:00</time>
      </trkpt>
      <trkpt lat="45.50425" lon="6.2413">
        <ele>962</ele>
        <time>2024-06-06T08:22:05+00:00</time>
      </trkpt>
      <trkpt lat="45.50432" lon="6.2412">
        <ele>965</ele>
        <time>2024-06-06T08:22:08+00:00</time>
      </trkpt>
      <trkpt lat="45.50437" lon="6.24107">
        <ele>965</ele>
        <time>2024-06-06T08:22:11+00:00</time>
      </trkpt>
      <trkpt lat="45.50442" lon="6.24086">
        <ele>968</ele>
        <time>2024-06-06T08:22:14+00:00</time>
      </trkpt>
      <trkpt lat="45.50448" lon="6.24063">
        <ele>968</ele>
        <time>2024-06-06T08:22:17+00:00</time>
      </trkpt>
      <trkpt lat="45.50448" lon="6.24053">
        <ele>969</ele>
        <time>2024-06-06T08:22:20+00:00</time>
      </trkpt>
      <trkpt lat="45.50448" lon="6.24041">
        <ele>970</ele>
        <time>2024-06-06T08:22:23+00:00</time>
      </trkpt>
      <trkpt lat="45.50442" lon="6.24031">
        <ele>971</ele>
        <time>2024-06-06T08:22:26+00:00</time>
      </trkpt>
      <trkpt lat="45.50437" lon="6.2402">
        <ele>970</ele>
        <time>2024-06-06T08:22:29+00:00</time>
      </trkpt>
      <trkpt lat="45.50437" lon="6.24014">
        <ele>972</ele>
        <time>2024-06-06T08:22:32+00:00</time>
      </trkpt>
      <trkpt lat="45.50436" lon="6.24011">
        <ele>972</ele>
        <time>2024-06-06T08:22:35+00:00</time>
      </trkpt>
      <trkpt lat="45.50442" lon="6.24001">
        <ele>973</ele>
        <time>2024-06-06T08:22:38+00:00</time>
      </trkpt>
      <trkpt lat="45.50451" lon="6.24003">
        <ele>975</ele>
        <time>2024-06-06T08:22:41+00:00</time>
      </trkpt>
      <trkpt lat="45.50453" lon="6.24006">
        <ele>975</ele>
        <time>2024-06-06T08:22:44+00:00</time>
      </trkpt>
      <trkpt lat="45.50453" lon="6.24016">
        <ele>975</ele>
        <time>2024-06-06T08:22:47+00:00</time>
      </trkpt>
      <trkpt lat="45.50453" lon="6.24029">
        <ele>972</ele>
        <time>2024-06-06T08:22:50+00:00</time>
      </trkpt>
      <trkpt lat="45.50456" lon="6.24045">
        <ele>973</ele>
        <time>2024-06-06T08:22:53+00:00</time>
      </trkpt>
      <trkpt lat="45.5046" lon="6.24054">
        <ele>972</ele>
        <time>2024-06-06T08:22:56+00:00</time>
      </trkpt>
      <trkpt lat="45.5047" lon="6.24064">
        <ele>977</ele>
        <time>2024-06-06T08:22:59+00:00</time>
      </trkpt>
      <trkpt lat="45.50483" lon="6.24076">
        <ele>979</ele>
        <time>2024-06-06T08:23:02+00:00</time>
      </trkpt>
      <trkpt lat="45.50501" lon="6.24095">
        <ele>980</ele>
        <time>2024-06-06T08:23:05+00:00</time>
      </trkpt>
      <trkpt lat="45.50517" lon="6.24112">
        <ele>982</ele>
        <time>2024-06-06T08:23:08+00:00</time>
      </trkpt>
      <trkpt lat="45.50524" lon="6.24126">
        <ele>987</ele>
        <time>2024-06-06T08:23:11+00:00</time>
      </trkpt>
      <trkpt lat="45.50532" lon="6.24143">
        <ele>989</ele>
        <time>2024-06-06T08:23:14+00:00</time>
      </trkpt>
      <trkpt lat="45.50536" lon="6.24165">
        <ele>989</ele>
        <time>2024-06-06T08:23:17+00:00</time>
      </trkpt>
      <trkpt lat="45.5054" lon="6.24191">
        <ele>993</ele>
        <time>2024-06-06T08:23:20+00:00</time>
      </trkpt>
      <trkpt lat="45.50546" lon="6.24205">
        <ele>993</ele>
        <time>2024-06-06T08:23:23+00:00</time>
      </trkpt>
      <trkpt lat="45.50551" lon="6.24216">
        <ele>998</ele>
        <time>2024-06-06T08:23:26+00:00</time>
      </trkpt>
      <trkpt lat="45.50556" lon="6.24228">
        <ele>997</ele>
        <time>2024-06-06T08:23:29+00:00</time>
      </trkpt>
      <trkpt lat="45.5056" lon="6.24237">
        <ele>997</ele>
        <time>2024-06-06T08:23:32+00:00</time>
      </trkpt>
      <trkpt lat="45.50561" lon="6.24246">
        <ele>997</ele>
        <time>2024-06-06T08:23:35+00:00</time>
      </trkpt>
      <trkpt lat="45.50559" lon="6.24256">
        <ele>997</ele>
        <time>2024-06-06T08:23:38+00:00</time>
      </trkpt>
      <trkpt lat="45.50553" lon="6.24268">
        <ele>999</ele>
        <time>2024-06-06T08:23:41+00:00</time>
      </trkpt>
      <trkpt lat="45.50547" lon="6.24278">
        <ele>998</ele>
        <time>2024-06-06T08:23:44+00:00</time>
      </trkpt>
      <trkpt lat="45.50541" lon="6.24288">
        <ele>998</ele>
        <time>2024-06-06T08:23:47+00:00</time>
      </trkpt>
      <trkpt lat="45.50538" lon="6.243">
        <ele>997</ele>
        <time>2024-06-06T08:23:50+00:00</time>
      </trkpt>
      <trkpt lat="45.50537" lon="6.24311">
        <ele>999</ele>
        <time>2024-06-06T08:23:53+00:00</time>
      </trkpt>
      <trkpt lat="45.50547" lon="6.24322">
        <ele>1003</ele>
        <time>2024-06-06T08:23:56+00:00</time>
      </trkpt>
      <trkpt lat="45.50562" lon="6.24338">
        <ele>1009</ele>
        <time>2024-06-06T08:23:59+00:00</time>
      </trkpt>
      <trkpt lat="45.50569" lon="6.24349">
        <ele>1010</ele>
        <time>2024-06-06T08:24:02+00:00</time>
      </trkpt>
      <trkpt lat="45.50576" lon="6.24365">
        <ele>1016</ele>
        <time>2024-06-06T08:24:05+00:00</time>
      </trkpt>
      <trkpt lat="45.50586" lon="6.24383">
        <ele>1021</ele>
        <time>2024-06-06T08:24:08+00:00</time>
      </trkpt>
      <trkpt lat="45.50602" lon="6.24412">
        <ele>1028</ele>
        <time>2024-06-06T08:24:11+00:00</time>
      </trkpt>
      <trkpt lat="45.50631" lon="6.24467">
        <ele>1040</ele>
        <time>2024-06-06T08:24:14+00:00</time>
      </trkpt>
      <trkpt lat="45.50652" lon="6.24504">
        <ele>1050</ele>
        <time>2024-06-06T08:24:17+00:00</time>
      </trkpt>
      <trkpt lat="45.50662" lon="6.24515">
        <ele>1052</ele>
        <time>2024-06-06T08:24:20+00:00</time>
      </trkpt>
      <trkpt lat="45.50688" lon="6.24545">
        <ele>1060</ele>
        <time>2024-06-06T08:24:23+00:00</time>
      </trkpt>
      <trkpt lat="45.50706" lon="6.24568">
        <ele>1066</ele>
        <time>2024-06-06T08:24:26+00:00</time>
      </trkpt>
      <trkpt lat="45.50715" lon="6.24574">
        <ele>1070</ele>
        <time>2024-06-06T08:24:29+00:00</time>
      </trkpt>
      <trkpt lat="45.50722" lon="6.24583">
        <ele>1073</ele>
        <time>2024-06-06T08:24:32+00:00</time>
      </trkpt>
      <trkpt lat="45.5073" lon="6.2459">
        <ele>1073</ele>
        <time>2024-06-06T08:24:35+00:00</time>
      </trkpt>
      <trkpt lat="45.50739" lon="6.24591">
        <ele>1077</ele>
        <time>2024-06-06T08:24:38+00:00</time>
      </trkpt>
      <trkpt lat="45.50748" lon="6.24593">
        <ele>1080</ele>
        <time>2024-06-06T08:24:41+00:00</time>
      </trkpt>
      <trkpt lat="45.50756" lon="6.24606">
        <ele>1083</ele>
        <time>2024-06-06T08:24:44+00:00</time>
      </trkpt>
      <trkpt lat="45.50763" lon="6.24619">
        <ele>1087</ele>
        <time>2024-06-06T08:24:47+00:00</time>
      </trkpt>
      <trkpt lat="45.50768" lon="6.24627">
        <ele>1087</ele>
        <time>2024-06-06T08:24:50+00:00</time>
      </trkpt>
      <trkpt lat="45.50784" lon="6.24641">
        <ele>1098</ele>
        <time>2024-06-06T08:24:53+00:00</time>
      </trkpt>
      <trkpt lat="45.50792" lon="6.24655">
        <ele>1101</ele>
        <time>2024-06-06T08:24:56+00:00</time>
      </trkpt>
      <trkpt lat="45.50798" lon="6.2467">
        <ele>1102</ele>
        <time>2024-06-06T08:24:59+00:00</time>
      </trkpt>
      <trkpt lat="45.50802" lon="6.24686">
        <ele>1110</ele>
        <time>2024-06-06T08:25:02+00:00</time>
      </trkpt>
      <trkpt lat="45.50803" lon="6.24709">
        <ele>1111</ele>
        <time>2024-06-06T08:25:05+00:00</time>
      </trkpt>
      <trkpt lat="45.50803" lon="6.2473">
        <ele>1113</ele>
        <time>2024-06-06T08:25:08+00:00</time>
      </trkpt>
      <trkpt lat="45.50804" lon="6.24746">
        <ele>1114</ele>
        <time>2024-06-06T08:25:11+00:00</time>
      </trkpt>
      <trkpt lat="45.50808" lon="6.24759">
        <ele>1115</ele>
        <time>2024-06-06T08:25:14+00:00</time>
      </trkpt>
      <trkpt lat="45.50817" lon="6.24774">
        <ele>1117</ele>
        <time>2024-06-06T08:25:17+00:00</time>
      </trkpt>
      <trkpt lat="45.50827" lon="6.24786">
        <ele>1119</ele>
        <time>2024-06-06T08:25:20+00:00</time>
      </trkpt>
      <trkpt lat="45.50835" lon="6.24794">
        <ele>1122</ele>
        <time>2024-06-06T08:25:23+00:00</time>
      </trkpt>
      <trkpt lat="45.50843" lon="6.24797">
        <ele>1125</ele>
        <time>2024-06-06T08:25:26+00:00</time>
      </trkpt>
      <trkpt lat="45.50852" lon="6.24796">
        <ele>1126</ele>
        <time>2024-06-06T08:25:29+00:00</time>
      </trkpt>
      <trkpt lat="45.50858" lon="6.24804">
        <ele>1125</ele>
        <time>2024-06-06T08:25:32+00:00</time>
      </trkpt>
      <trkpt lat="45.50868" lon="6.24818">
        <ele>1127</ele>
        <time>2024-06-06T08:25:35+00:00</time>
      </trkpt>
      <trkpt lat="45.50877" lon="6.24839">
        <ele>1130</ele>
        <time>2024-06-06T08:25:38+00:00</time>
      </trkpt>
      <trkpt lat="45.50888" lon="6.24869">
        <ele>1135</ele>
        <time>2024-06-06T08:25:41+00:00</time>
      </trkpt>
      <trkpt lat="45.50895" lon="6.24892">
        <ele>1142</ele>
        <time>2024-06-06T08:25:44+00:00</time>
      </trkpt>
      <trkpt lat="45.50895" lon="6.24916">
        <ele>1145</ele>
        <time>2024-06-06T08:25:47+00:00</time>
      </trkpt>
      <trkpt lat="45.50905" lon="6.2494">
        <ele>1150</ele>
        <time>2024-06-06T08:25:50+00:00</time>
      </trkpt>
      <trkpt lat="45.50919" lon="6.24972">
        <ele>1157</ele>
        <time>2024-06-06T08:25:53+00:00</time>
      </trkpt>
      <trkpt lat="45.50932" lon="6.25003">
        <ele>1169</ele>
        <time>2024-06-06T08:25:56+00:00</time>
      </trkpt>
      <trkpt lat="45.50946" lon="6.25037">
        <ele>1178</ele>
        <time>2024-06-06T08:25:59+00:00</time>
      </trkpt>
      <trkpt lat="45.50969" lon="6.25082">
        <ele>1189</ele>
        <time>2024-06-06T08:26:02+00:00</time>
      </trkpt>
      <trkpt lat="45.50981" lon="6.25125">
        <ele>1194</ele>
        <time>2024-06-06T08:26:05+00:00</time>
      </trkpt>
      <trkpt lat="45.50992" lon="6.2514">
        <ele>1203</ele>
        <time>2024-06-06T08:26:08+00:00</time>
      </trkpt>
      <trkpt lat="45.50996" lon="6.25163">
        <ele>1199</ele>
        <time>2024-06-06T08:26:11+00:00</time>
      </trkpt>
      <trkpt lat="45.50999" lon="6.25212">
        <ele>1202</ele>
        <time>2024-06-06T08:26:14+00:00</time>
      </trkpt>
      <trkpt lat="45.5101" lon="6.25234">
        <ele>1213</ele>
        <time>2024-06-06T08:26:17+00:00</time>
      </trkpt>
      <trkpt lat="45.51021" lon="6.25259">
        <ele>1214</ele>
        <time>2024-06-06T08:26:20+00:00</time>
      </trkpt>
      <trkpt lat="45.51035" lon="6.25292">
        <ele>1216</ele>
        <time>2024-06-06T08:26:23+00:00</time>
      </trkpt>
      <trkpt lat="45.51055" lon="6.25337">
        <ele>1225</ele>
        <time>2024-06-06T08:26:26+00:00</time>
      </trkpt>
      <trkpt lat="45.51058" lon="6.25354">
        <ele>1225</ele>
        <time>2024-06-06T08:26:29+00:00</time>
      </trkpt>
      <trkpt lat="45.51063" lon="6.25379">
        <ele>1231</ele>
        <time>2024-06-06T08:26:32+00:00</time>
      </trkpt>
      <trkpt lat="45.51079" lon="6.25379">
        <ele>1231</ele>
        <time>2024-06-06T08:26:35+00:00</time>
      </trkpt>
      <trkpt lat="45.51084" lon="6.25389">
        <ele>1231</ele>
        <time>2024-06-06T08:26:38+00:00</time>
      </trkpt>
      <trkpt lat="45.51089" lon="6.25417">
        <ele>1231</ele>
        <time>2024-06-06T08:26:41+00:00</time>
      </trkpt>
      <trkpt lat="45.51093" lon="6.25445">
        <ele>1232</ele>
        <time>2024-06-06T08:26:44+00:00</time>
      </trkpt>
      <trkpt lat="45.511" lon="6.25463">
        <ele>1230</ele>
        <time>2024-06-06T08:26:47+00:00</time>
      </trkpt>
      <trkpt lat="45.51102" lon="6.25485">
        <ele>1237</ele>
        <time>2024-06-06T08:26:50+00:00</time>
      </trkpt>
      <trkpt lat="45.51101" lon="6.25523">
        <ele>1240</ele>
        <time>2024-06-06T08:26:53+00:00</time>
      </trkpt>
      <trkpt lat="45.51105" lon="6.25551">
        <ele>1240</ele>
        <time>2024-06-06T08:26:56+00:00</time>
      </trkpt>
      <trkpt lat="45.51108" lon="6.25581">
        <ele>1240</ele>
        <time>2024-06-06T08:26:59+00:00</time>
      </trkpt>
      <trkpt lat="45.51112" lon="6.25603">
        <ele>1246</ele>
        <time>2024-06-06T08:27:02+00:00</time>
      </trkpt>
      <trkpt lat="45.5112" lon="6.2562">
        <ele>1240</ele>
        <time>2024-06-06T08:27:05+00:00</time>
      </trkpt>
      <trkpt lat="45.51123" lon="6.25629">
        <ele>1245</ele>
        <time>2024-06-06T08:27:08+00:00</time>
      </trkpt>
      <trkpt lat="45.51124" lon="6.25641">
        <ele>1241</ele>
        <time>2024-06-06T08:27:11+00:00</time>
      </trkpt>
      <trkpt lat="45.51118" lon="6.25659">
        <ele>1240</ele>
        <time>2024-06-06T08:27:14+00:00</time>
      </trkpt>
      <trkpt lat="45.51114" lon="6.25681">
        <ele>1245</ele>
        <time>2024-06-06T08:27:17+00:00</time>
      </trkpt>
      <trkpt lat="45.51111" lon="6.257">
        <ele>1239</ele>
        <time>2024-06-06T08:27:20+00:00</time>
      </trkpt>
      <trkpt lat="45.51115" lon="6.25723">
        <ele>1239</ele>
        <time>2024-06-06T08:27:23+00:00</time>
      </trkpt>
      <trkpt lat="45.51116" lon="6.25745">
        <ele>1239</ele>
        <time>2024-06-06T08:27:26+00:00</time>
      </trkpt>
      <trkpt lat="45.51114" lon="6.25764">
        <ele>1236</ele>
        <time>2024-06-06T08:27:29+00:00</time>
      </trkpt>
      <trkpt lat="45.51111" lon="6.25775">
        <ele>1239</ele>
        <time>2024-06-06T08:27:32+00:00</time>
      </trkpt>
      <trkpt lat="45.5109" lon="6.25791">
        <ele>1240</ele>
        <time>2024-06-06T08:27:35+00:00</time>
      </trkpt>
      <trkpt lat="45.51081" lon="6.25804">
        <ele>1246</ele>
        <time>2024-06-06T08:27:38+00:00</time>
      </trkpt>
      <trkpt lat="45.51079" lon="6.25815">
        <ele>1242</ele>
        <time>2024-06-06T08:27:41+00:00</time>
      </trkpt>
      <trkpt lat="45.51078" lon="6.25833">
        <ele>1236</ele>
        <time>2024-06-06T08:27:44+00:00</time>
      </trkpt>
      <trkpt lat="45.51081" lon="6.25854">
        <ele>1242</ele>
        <time>2024-06-06T08:27:47+00:00</time>
      </trkpt>
      <trkpt lat="45.51088" lon="6.25882">
        <ele>1249</ele>
        <time>2024-06-06T08:27:50+00:00</time>
      </trkpt>
      <trkpt lat="45.51091" lon="6.25907">
        <ele>1252</ele>
        <time>2024-06-06T08:27:53+00:00</time>
      </trkpt>
      <trkpt lat="45.51091" lon="6.25929">
        <ele>1250</ele>
        <time>2024-06-06T08:27:56+00:00</time>
      </trkpt>
      <trkpt lat="45.5109" lon="6.25952">
        <ele>1251</ele>
        <time>2024-06-06T08:27:59+00:00</time>
      </trkpt>
      <trkpt lat="45.51092" lon="6.25977">
        <ele>1252</ele>
        <time>2024-06-06T08:28:02+00:00</time>
      </trkpt>
      <trkpt lat="45.51095" lon="6.25989">
        <ele>1252</ele>
        <time>2024-06-06T08:28:05+00:00</time>
      </trkpt>
      <trkpt lat="45.51105" lon="6.26009">
        <ele>1258</ele>
        <time>2024-06-06T08:28:08+00:00</time>
      </trkpt>
      <trkpt lat="45.51121" lon="6.26029">
        <ele>1262</ele>
        <time>2024-06-06T08:28:11+00:00</time>
      </trkpt>
      <trkpt lat="45.51146" lon="6.26058">
        <ele>1262</ele>
        <time>2024-06-06T08:28:14+00:00</time>
      </trkpt>
      <trkpt lat="45.51153" lon="6.26062">
        <ele>1262</ele>
        <time>2024-06-06T08:28:17+00:00</time>
      </trkpt>
      <trkpt lat="45.51158" lon="6.26058">
        <ele>1264</ele>
        <time>2024-06-06T08:28:20+00:00</time>
      </trkpt>
      <trkpt lat="45.51165" lon="6.2604">
        <ele>1270</ele>
        <time>2024-06-06T08:28:23+00:00</time>
      </trkpt>
      <trkpt lat="45.51172" lon="6.26021">
        <ele>1272</ele>
        <time>2024-06-06T08:28:26+00:00</time>
      </trkpt>
      <trkpt lat="45.5118" lon="6.26015">
        <ele>1277</ele>
        <time>2024-06-06T08:28:29+00:00</time>
      </trkpt>
      <trkpt lat="45.51191" lon="6.26015">
        <ele>1281</ele>
        <time>2024-06-06T08:28:32+00:00</time>
      </trkpt>
      <trkpt lat="45.51207" lon="6.26018">
        <ele>1283</ele>
        <time>2024-06-06T08:28:35+00:00</time>
      </trkpt>
      <trkpt lat="45.51244" lon="6.2604">
        <ele>1293</ele>
        <time>2024-06-06T08:28:38+00:00</time>
      </trkpt>
      <trkpt lat="45.51273" lon="6.26057">
        <ele>1301</ele>
        <time>2024-06-06T08:28:41+00:00</time>
      </trkpt>
      <trkpt lat="45.51289" lon="6.26063">
        <ele>1303</ele>
        <time>2024-06-06T08:28:44+00:00</time>
      </trkpt>
      <trkpt lat="45.51303" lon="6.26067">
        <ele>1306</ele>
        <time>2024-06-06T08:28:47+00:00</time>
      </trkpt>
      <trkpt lat="45.51327" lon="6.26062">
        <ele>1307</ele>
        <time>2024-06-06T08:28:50+00:00</time>
      </trkpt>
      <trkpt lat="45.51339" lon="6.26064">
        <ele>1308</ele>
        <time>2024-06-06T08:28:53+00:00</time>
      </trkpt>
      <trkpt lat="45.51346" lon="6.26071">
        <ele>1309</ele>
        <time>2024-06-06T08:28:56+00:00</time>
      </trkpt>
      <trkpt lat="45.51352" lon="6.26086">
        <ele>1311</ele>
        <time>2024-06-06T08:28:59+00:00</time>
      </trkpt>
      <trkpt lat="45.51363" lon="6.26098">
        <ele>1312</ele>
        <time>2024-06-06T08:29:02+00:00</time>
      </trkpt>
      <trkpt lat="45.51368" lon="6.26112">
        <ele>1313</ele>
        <time>2024-06-06T08:29:05+00:00</time>
      </trkpt>
      <trkpt lat="45.5138" lon="6.2613">
        <ele>1313</ele>
        <time>2024-06-06T08:29:08+00:00</time>
      </trkpt>
      <trkpt lat="45.51389" lon="6.26139">
        <ele>1313</ele>
        <time>2024-06-06T08:29:11+00:00</time>
      </trkpt>
      <trkpt lat="45.51396" lon="6.2615">
        <ele>1313</ele>
        <time>2024-06-06T08:29:14+00:00</time>
      </trkpt>
      <trkpt lat="45.51396" lon="6.26168">
        <ele>1314</ele>
        <time>2024-06-06T08:29:17+00:00</time>
      </trkpt>
      <trkpt lat="45.51395" lon="6.26185">
        <ele>1313</ele>
        <time>2024-06-06T08:29:20+00:00</time>
      </trkpt>
      <trkpt lat="45.51395" lon="6.26185">
        <ele>1315</ele>
        <time>2024-06-06T08:29:23+00:00</time>
      </trkpt>
      <trkpt lat="45.51395" lon="6.26185">
        <ele>1315</ele>
        <time>2024-06-06T08:29:26+00:00</time>
      </trkpt>
      <trkpt lat="45.51403" lon="6.262">
        <ele>1313</ele>
        <time>2024-06-06T08:29:29+00:00</time>
      </trkpt>
      <trkpt lat="45.51405" lon="6.26218">
        <ele>1313</ele>
        <time>2024-06-06T08:29:32+00:00</time>
      </trkpt>
      <trkpt lat="45.51412" lon="6.26229">
        <ele>1316</ele>
        <time>2024-06-06T08:29:35+00:00</time>
      </trkpt>
      <trkpt lat="45.5141" lon="6.26247">
        <ele>1316</ele>
        <time>2024-06-06T08:29:38+00:00</time>
      </trkpt>
      <trkpt lat="45.51418" lon="6.26239">
        <ele>1319</ele>
        <time>2024-06-06T08:29:41+00:00</time>
      </trkpt>
      <trkpt lat="45.51429" lon="6.26228">
        <ele>1319</ele>
        <time>2024-06-06T08:29:44+00:00</time>
      </trkpt>
      <trkpt lat="45.51436" lon="6.26224">
        <ele>1323</ele>
        <time>2024-06-06T08:29:47+00:00</time>
      </trkpt>
      <trkpt lat="45.51441" lon="6.26222">
        <ele>1325</ele>
        <time>2024-06-06T08:29:50+00:00</time>
      </trkpt>
      <trkpt lat="45.51447" lon="6.26223">
        <ele>1325</ele>
        <time>2024-06-06T08:29:53+00:00</time>
      </trkpt>
      <trkpt lat="45.51455" lon="6.26223">
        <ele>1326</ele>
        <time>2024-06-06T08:29:56+00:00</time>
      </trkpt>
      <trkpt lat="45.51456" lon="6.26223">
        <ele>1326</ele>
        <time>2024-06-06T08:29:59+00:00</time>
      </trkpt>
      <trkpt lat="45.51464" lon="6.26227">
        <ele>1327</ele>
        <time>2024-06-06T08:30:02+00:00</time>
      </trkpt>
      <trkpt lat="45.5147" lon="6.26233">
        <ele>1328</ele>
        <time>2024-06-06T08:30:05+00:00</time>
      </trkpt>
      <trkpt lat="45.51478" lon="6.26251">
        <ele>1330</ele>
        <time>2024-06-06T08:30:08+00:00</time>
      </trkpt>
      <trkpt lat="45.51488" lon="6.26268">
        <ele>1331</ele>
        <time>2024-06-06T08:30:11+00:00</time>
      </trkpt>
      <trkpt lat="45.51492" lon="6.26273">
        <ele>1331</ele>
        <time>2024-06-06T08:30:14+00:00</time>
      </trkpt>
      <trkpt lat="45.51496" lon="6.26276">
        <ele>1331</ele>
        <time>2024-06-06T08:30:17+00:00</time>
      </trkpt>
      <trkpt lat="45.515" lon="6.26277">
        <ele>1331</ele>
        <time>2024-06-06T08:30:20+00:00</time>
      </trkpt>
      <trkpt lat="45.51507" lon="6.26279">
        <ele>1331</ele>
        <time>2024-06-06T08:30:23+00:00</time>
      </trkpt>
      <trkpt lat="45.51511" lon="6.26253">
        <ele>1331</ele>
        <time>2024-06-06T08:30:26+00:00</time>
      </trkpt>
      <trkpt lat="45.51511" lon="6.26241">
        <ele>1331</ele>
        <time>2024-06-06T08:30:29+00:00</time>
      </trkpt>
      <trkpt lat="45.51507" lon="6.26224">
        <ele>1330</ele>
        <time>2024-06-06T08:30:32+00:00</time>
      </trkpt>
      <trkpt lat="45.51503" lon="6.26213">
        <ele>1331</ele>
        <time>2024-06-06T08:30:35+00:00</time>
      </trkpt>
      <trkpt lat="45.51499" lon="6.26198">
        <ele>1330</ele>
        <time>2024-06-06T08:30:38+00:00</time>
      </trkpt>
      <trkpt lat="45.51497" lon="6.26186">
        <ele>1331</ele>
        <time>2024-06-06T08:30:41+00:00</time>
      </trkpt>
      <trkpt lat="45.51497" lon="6.26168">
        <ele>1331</ele>
        <time>2024-06-06T08:30:44+00:00</time>
      </trkpt>
      <trkpt lat="45.51499" lon="6.26158">
        <ele>1329</ele>
        <time>2024-06-06T08:30:47+00:00</time>
      </trkpt>
      <trkpt lat="45.51505" lon="6.26147">
        <ele>1330</ele>
        <time>2024-06-06T08:30:50+00:00</time>
      </trkpt>
      <trkpt lat="45.51511" lon="6.26139">
        <ele>1329</ele>
        <time>2024-06-06T08:30:53+00:00</time>
      </trkpt>
      <trkpt lat="45.51519" lon="6.2613">
        <ele>1329</ele>
        <time>2024-06-06T08:30:56+00:00</time>
      </trkpt>
      <trkpt lat="45.51524" lon="6.26124">
        <ele>1330</ele>
        <time>2024-06-06T08:30:59+00:00</time>
      </trkpt>
      <trkpt lat="45.51529" lon="6.26111">
        <ele>1329</ele>
        <time>2024-06-06T08:31:02+00:00</time>
      </trkpt>
      <trkpt lat="45.51533" lon="6.26093">
        <ele>1331</ele>
        <time>2024-06-06T08:31:05+00:00</time>
      </trkpt>
      <trkpt lat="45.51538" lon="6.26076">
        <ele>1330</ele>
        <time>2024-06-06T08:31:08+00:00</time>
      </trkpt>
      <trkpt lat="45.51544" lon="6.26055">
        <ele>1332</ele>
        <time>2024-06-06T08:31:11+00:00</time>
      </trkpt>
      <trkpt lat="45.5155" lon="6.26036">
        <ele>1331</ele>
        <time>2024-06-06T08:31:14+00:00</time>
      </trkpt>
      <trkpt lat="45.51556" lon="6.26014">
        <ele>1332</ele>
        <time>2024-06-06T08:31:17+00:00</time>
      </trkpt>
      <trkpt lat="45.51561" lon="6.25994">
        <ele>1329</ele>
        <time>2024-06-06T08:31:20+00:00</time>
      </trkpt>
      <trkpt lat="45.51566" lon="6.25996">
        <ele>1329</ele>
        <time>2024-06-06T08:31:23+00:00</time>
      </trkpt>
      <trkpt lat="45.51574" lon="6.26001">
        <ele>1330</ele>
        <time>2024-06-06T08:31:26+00:00</time>
      </trkpt>
      <trkpt lat="45.51581" lon="6.26007">
        <ele>1327</ele>
        <time>2024-06-06T08:31:29+00:00</time>
      </trkpt>
      <trkpt lat="45.5159" lon="6.26017">
        <ele>1327</ele>
        <time>2024-06-06T08:31:32+00:00</time>
      </trkpt>
      <trkpt lat="45.51596" lon="6.26023">
        <ele>1330</ele>
        <time>2024-06-06T08:31:35+00:00</time>
      </trkpt>
      <trkpt lat="45.51607" lon="6.26028">
        <ele>1329</ele>
        <time>2024-06-06T08:31:38+00:00</time>
      </trkpt>
      <trkpt lat="45.51615" lon="6.2603">
        <ele>1327</ele>
        <time>2024-06-06T08:31:41+00:00</time>
      </trkpt>
      <trkpt lat="45.51622" lon="6.2603">
        <ele>1328</ele>
        <time>2024-06-06T08:31:44+00:00</time>
      </trkpt>
      <trkpt lat="45.51636" lon="6.26031">
        <ele>1331</ele>
        <time>2024-06-06T08:31:47+00:00</time>
      </trkpt>
      <trkpt lat="45.51649" lon="6.26035">
        <ele>1331</ele>
        <time>2024-06-06T08:31:50+00:00</time>
      </trkpt>
      <trkpt lat="45.51663" lon="6.26036">
        <ele>1331</ele>
        <time>2024-06-06T08:31:53+00:00</time>
      </trkpt>
      <trkpt lat="45.51671" lon="6.26036">
        <ele>1331</ele>
        <time>2024-06-06T08:31:56+00:00</time>
      </trkpt>
      <trkpt lat="45.51678" lon="6.26029">
        <ele>1328</ele>
        <time>2024-06-06T08:31:59+00:00</time>
      </trkpt>
      <trkpt lat="45.51684" lon="6.2602">
        <ele>1330</ele>
        <time>2024-06-06T08:32:02+00:00</time>
      </trkpt>
      <trkpt lat="45.51689" lon="6.2601">
        <ele>1328</ele>
        <time>2024-06-06T08:32:05+00:00</time>
      </trkpt>
      <trkpt lat="45.51694" lon="6.25994">
        <ele>1331</ele>
        <time>2024-06-06T08:32:08+00:00</time>
      </trkpt>
      <trkpt lat="45.51723" lon="6.25984">
        <ele>1332</ele>
        <time>2024-06-06T08:32:11+00:00</time>
      </trkpt>
      <trkpt lat="45.5173" lon="6.25984">
        <ele>1332</ele>
        <time>2024-06-06T08:32:14+00:00</time>
      </trkpt>
      <trkpt lat="45.51734" lon="6.25984">
        <ele>1332</ele>
        <time>2024-06-06T08:32:17+00:00</time>
      </trkpt>
      <trkpt lat="45.51748" lon="6.2598">
        <ele>1333</ele>
        <time>2024-06-06T08:32:20+00:00</time>
      </trkpt>
      <trkpt lat="45.51761" lon="6.2598">
        <ele>1334</ele>
        <time>2024-06-06T08:32:23+00:00</time>
      </trkpt>
      <trkpt lat="45.5177" lon="6.25983">
        <ele>1334</ele>
        <time>2024-06-06T08:32:26+00:00</time>
      </trkpt>
      <trkpt lat="45.51788" lon="6.25993">
        <ele>1334</ele>
        <time>2024-06-06T08:32:29+00:00</time>
      </trkpt>
      <trkpt lat="45.51819" lon="6.26008">
        <ele>1334</ele>
        <time>2024-06-06T08:32:32+00:00</time>
      </trkpt>
      <trkpt lat="45.51834" lon="6.26016">
        <ele>1334</ele>
        <time>2024-06-06T08:32:35+00:00</time>
      </trkpt>
      <trkpt lat="45.51847" lon="6.2602">
        <ele>1337</ele>
        <time>2024-06-06T08:32:38+00:00</time>
      </trkpt>
      <trkpt lat="45.51859" lon="6.26018">
        <ele>1333</ele>
        <time>2024-06-06T08:32:41+00:00</time>
      </trkpt>
      <trkpt lat="45.51861" lon="6.26015">
        <ele>1336</ele>
        <time>2024-06-06T08:32:44+00:00</time>
      </trkpt>
      <trkpt lat="45.51871" lon="6.26003">
        <ele>1337</ele>
        <time>2024-06-06T08:32:47+00:00</time>
      </trkpt>
      <trkpt lat="45.51879" lon="6.25992">
        <ele>1335</ele>
        <time>2024-06-06T08:32:50+00:00</time>
      </trkpt>
      <trkpt lat="45.51893" lon="6.25986">
        <ele>1338</ele>
        <time>2024-06-06T08:32:53+00:00</time>
      </trkpt>
      <trkpt lat="45.51902" lon="6.25985">
        <ele>1337</ele>
        <time>2024-06-06T08:32:56+00:00</time>
      </trkpt>
      <trkpt lat="45.51911" lon="6.25986">
        <ele>1337</ele>
        <time>2024-06-06T08:32:59+00:00</time>
      </trkpt>
      <trkpt lat="45.51925" lon="6.25993">
        <ele>1338</ele>
        <time>2024-06-06T08:33:02+00:00</time>
      </trkpt>
      <trkpt lat="45.51937" lon="6.26002">
        <ele>1339</ele>
        <time>2024-06-06T08:33:05+00:00</time>
      </trkpt>
      <trkpt lat="45.5195" lon="6.26008">
        <ele>1338</ele>
        <time>2024-06-06T08:33:08+00:00</time>
      </trkpt>
      <trkpt lat="45.51967" lon="6.26007">
        <ele>1339</ele>
        <time>2024-06-06T08:33:11+00:00</time>
      </trkpt>
      <trkpt lat="45.51977" lon="6.26006">
        <ele>1339</ele>
        <time>2024-06-06T08:33:14+00:00</time>
      </trkpt>
      <trkpt lat="45.51987" lon="6.2601">
        <ele>1340</ele>
        <time>2024-06-06T08:33:17+00:00</time>
      </trkpt>
      <trkpt lat="45.51996" lon="6.26018">
        <ele>1339</ele>
        <time>2024-06-06T08:33:20+00:00</time>
      </trkpt>
      <trkpt lat="45.52003" lon="6.26028">
        <ele>1341</ele>
        <time>2024-06-06T08:33:23+00:00</time>
      </trkpt>
      <trkpt lat="45.52012" lon="6.26043">
        <ele>1340</ele>
        <time>2024-06-06T08:33:26+00:00</time>
      </trkpt>
      <trkpt lat="45.52018" lon="6.26052">
        <ele>1341</ele>
        <time>2024-06-06T08:33:29+00:00</time>
      </trkpt>
      <trkpt lat="45.52018" lon="6.26052">
        <ele>1341</ele>
        <time>2024-06-06T08:33:32+00:00</time>
      </trkpt>
      <trkpt lat="45.52021" lon="6.26054">
        <ele>1340</ele>
        <time>2024-06-06T08:33:35+00:00</time>
      </trkpt>
      <trkpt lat="45.52025" lon="6.26057">
        <ele>1340</ele>
        <time>2024-06-06T08:33:38+00:00</time>
      </trkpt>
      <trkpt lat="45.52034" lon="6.26058">
        <ele>1340</ele>
        <time>2024-06-06T08:33:41+00:00</time>
      </trkpt>
      <trkpt lat="45.52039" lon="6.26059">
        <ele>1340</ele>
        <time>2024-06-06T08:33:44+00:00</time>
      </trkpt>
      <trkpt lat="45.52045" lon="6.26059">
        <ele>1340</ele>
        <time>2024-06-06T08:33:47+00:00</time>
      </trkpt>
      <trkpt lat="45.52053" lon="6.26053">
        <ele>1340</ele>
        <time>2024-06-06T08:33:50+00:00</time>
      </trkpt>
      <trkpt lat="45.52069" lon="6.26053">
        <ele>1339</ele>
        <time>2024-06-06T08:33:53+00:00</time>
      </trkpt>
      <trkpt lat="45.52082" lon="6.2606">
        <ele>1340</ele>
        <time>2024-06-06T08:33:56+00:00</time>
      </trkpt>
      <trkpt lat="45.52091" lon="6.26066">
        <ele>1339</ele>
        <time>2024-06-06T08:33:59+00:00</time>
      </trkpt>
      <trkpt lat="45.52099" lon="6.26067">
        <ele>1339</ele>
        <time>2024-06-06T08:34:02+00:00</time>
      </trkpt>
      <trkpt lat="45.52108" lon="6.26069">
        <ele>1340</ele>
        <time>2024-06-06T08:34:05+00:00</time>
      </trkpt>
      <trkpt lat="45.52115" lon="6.26069">
        <ele>1339</ele>
        <time>2024-06-06T08:34:08+00:00</time>
      </trkpt>
      <trkpt lat="45.52132" lon="6.26046">
        <ele>1340</ele>
        <time>2024-06-06T08:34:11+00:00</time>
      </trkpt>
      <trkpt lat="45.5214" lon="6.26028">
        <ele>1341</ele>
        <time>2024-06-06T08:34:14+00:00</time>
      </trkpt>
      <trkpt lat="45.52153" lon="6.26007">
        <ele>1341</ele>
        <time>2024-06-06T08:34:17+00:00</time>
      </trkpt>
      <trkpt lat="45.52169" lon="6.25981">
        <ele>1342</ele>
        <time>2024-06-06T08:34:20+00:00</time>
      </trkpt>
      <trkpt lat="45.52179" lon="6.25966">
        <ele>1342</ele>
        <time>2024-06-06T08:34:23+00:00</time>
      </trkpt>
      <trkpt lat="45.52187" lon="6.25952">
        <ele>1342</ele>
        <time>2024-06-06T08:34:26+00:00</time>
      </trkpt>
      <trkpt lat="45.52199" lon="6.25937">
        <ele>1344</ele>
        <time>2024-06-06T08:34:29+00:00</time>
      </trkpt>
      <trkpt lat="45.52207" lon="6.25923">
        <ele>1345</ele>
        <time>2024-06-06T08:34:32+00:00</time>
      </trkpt>
      <trkpt lat="45.52217" lon="6.25917">
        <ele>1346</ele>
        <time>2024-06-06T08:34:35+00:00</time>
      </trkpt>
      <trkpt lat="45.52227" lon="6.25916">
        <ele>1345</ele>
        <time>2024-06-06T08:34:38+00:00</time>
      </trkpt>
      <trkpt lat="45.52238" lon="6.25915">
        <ele>1344</ele>
        <time>2024-06-06T08:34:41+00:00</time>
      </trkpt>
      <trkpt lat="45.52264" lon="6.25916">
        <ele>1340</ele>
        <time>2024-06-06T08:34:44+00:00</time>
      </trkpt>
      <trkpt lat="45.52289" lon="6.25918">
        <ele>1338</ele>
        <time>2024-06-06T08:34:47+00:00</time>
      </trkpt>
      <trkpt lat="45.52324" lon="6.25922">
        <ele>1335</ele>
        <time>2024-06-06T08:34:50+00:00</time>
      </trkpt>
      <trkpt lat="45.52353" lon="6.25928">
        <ele>1330</ele>
        <time>2024-06-06T08:34:53+00:00</time>
      </trkpt>
      <trkpt lat="45.52375" lon="6.25944">
        <ele>1327</ele>
        <time>2024-06-06T08:34:56+00:00</time>
      </trkpt>
      <trkpt lat="45.52404" lon="6.25976">
        <ele>1317</ele>
        <time>2024-06-06T08:34:59+00:00</time>
      </trkpt>
      <trkpt lat="45.52427" lon="6.25988">
        <ele>1317</ele>
        <time>2024-06-06T08:35:02+00:00</time>
      </trkpt>
      <trkpt lat="45.52447" lon="6.25995">
        <ele>1317</ele>
        <time>2024-06-06T08:35:05+00:00</time>
      </trkpt>
      <trkpt lat="45.52465" lon="6.26005">
        <ele>1317</ele>
        <time>2024-06-06T08:35:08+00:00</time>
      </trkpt>
      <trkpt lat="45.52476" lon="6.26015">
        <ele>1318</ele>
        <time>2024-06-06T08:35:11+00:00</time>
      </trkpt>
      <trkpt lat="45.52493" lon="6.26006">
        <ele>1316</ele>
        <time>2024-06-06T08:35:14+00:00</time>
      </trkpt>
      <trkpt lat="45.52524" lon="6.25987">
        <ele>1316</ele>
        <time>2024-06-06T08:35:17+00:00</time>
      </trkpt>
      <trkpt lat="45.52548" lon="6.25966">
        <ele>1314</ele>
        <time>2024-06-06T08:35:20+00:00</time>
      </trkpt>
      <trkpt lat="45.52572" lon="6.25912">
        <ele>1310</ele>
        <time>2024-06-06T08:35:23+00:00</time>
      </trkpt>
      <trkpt lat="45.52588" lon="6.25883">
        <ele>1308</ele>
        <time>2024-06-06T08:35:26+00:00</time>
      </trkpt>
      <trkpt lat="45.5263" lon="6.25852">
        <ele>1307</ele>
        <time>2024-06-06T08:35:29+00:00</time>
      </trkpt>
      <trkpt lat="45.52655" lon="6.25818">
        <ele>1297</ele>
        <time>2024-06-06T08:35:32+00:00</time>
      </trkpt>
      <trkpt lat="45.5268" lon="6.25802">
        <ele>1292</ele>
        <time>2024-06-06T08:35:35+00:00</time>
      </trkpt>
      <trkpt lat="45.52714" lon="6.2578">
        <ele>1286</ele>
        <time>2024-06-06T08:35:38+00:00</time>
      </trkpt>
      <trkpt lat="45.52743" lon="6.25771">
        <ele>1288</ele>
        <time>2024-06-06T08:35:41+00:00</time>
      </trkpt>
      <trkpt lat="45.52769" lon="6.2575">
        <ele>1290</ele>
        <time>2024-06-06T08:35:44+00:00</time>
      </trkpt>
      <trkpt lat="45.52787" lon="6.25739">
        <ele>1295</ele>
        <time>2024-06-06T08:35:47+00:00</time>
      </trkpt>
      <trkpt lat="45.52831" lon="6.25721">
        <ele>1295</ele>
        <time>2024-06-06T08:35:50+00:00</time>
      </trkpt>
      <trkpt lat="45.52859" lon="6.25718">
        <ele>1295</ele>
        <time>2024-06-06T08:35:53+00:00</time>
      </trkpt>
      <trkpt lat="45.52884" lon="6.25711">
        <ele>1296</ele>
        <time>2024-06-06T08:35:56+00:00</time>
      </trkpt>
      <trkpt lat="45.52911" lon="6.25703">
        <ele>1295</ele>
        <time>2024-06-06T08:35:59+00:00</time>
      </trkpt>
      <trkpt lat="45.52945" lon="6.25685">
        <ele>1294</ele>
        <time>2024-06-06T08:36:02+00:00</time>
      </trkpt>
      <trkpt lat="45.5297" lon="6.25671">
        <ele>1292</ele>
        <time>2024-06-06T08:36:05+00:00</time>
      </trkpt>
      <trkpt lat="45.52995" lon="6.25653">
        <ele>1291</ele>
        <time>2024-06-06T08:36:08+00:00</time>
      </trkpt>
      <trkpt lat="45.5302" lon="6.25628">
        <ele>1288</ele>
        <time>2024-06-06T08:36:11+00:00</time>
      </trkpt>
      <trkpt lat="45.53042" lon="6.25608">
        <ele>1287</ele>
        <time>2024-06-06T08:36:14+00:00</time>
      </trkpt>
      <trkpt lat="45.53058" lon="6.25598">
        <ele>1285</ele>
        <time>2024-06-06T08:36:17+00:00</time>
      </trkpt>
      <trkpt lat="45.53075" lon="6.25593">
        <ele>1281</ele>
        <time>2024-06-06T08:36:20+00:00</time>
      </trkpt>
      <trkpt lat="45.53088" lon="6.25602">
        <ele>1279</ele>
        <time>2024-06-06T08:36:23+00:00</time>
      </trkpt>
      <trkpt lat="45.531" lon="6.25609">
        <ele>1275</ele>
        <time>2024-06-06T08:36:26+00:00</time>
      </trkpt>
      <trkpt lat="45.53111" lon="6.25618">
        <ele>1264</ele>
        <time>2024-06-06T08:36:29+00:00</time>
      </trkpt>
      <trkpt lat="45.53124" lon="6.25645">
        <ele>1260</ele>
        <time>2024-06-06T08:36:32+00:00</time>
      </trkpt>
      <trkpt lat="45.5313" lon="6.25658">
        <ele>1253</ele>
        <time>2024-06-06T08:36:35+00:00</time>
      </trkpt>
      <trkpt lat="45.53143" lon="6.2566">
        <ele>1247</ele>
        <time>2024-06-06T08:36:38+00:00</time>
      </trkpt>
      <trkpt lat="45.53156" lon="6.25664">
        <ele>1243</ele>
        <time>2024-06-06T08:36:41+00:00</time>
      </trkpt>
      <trkpt lat="45.53172" lon="6.25689">
        <ele>1232</ele>
        <time>2024-06-06T08:36:44+00:00</time>
      </trkpt>
      <trkpt lat="45.53182" lon="6.25689">
        <ele>1227</ele>
        <time>2024-06-06T08:36:47+00:00</time>
      </trkpt>
      <trkpt lat="45.53197" lon="6.25668">
        <ele>1218</ele>
        <time>2024-06-06T08:36:50+00:00</time>
      </trkpt>
      <trkpt lat="45.53211" lon="6.25672">
        <ele>1210</ele>
        <time>2024-06-06T08:36:53+00:00</time>
      </trkpt>
      <trkpt lat="45.53226" lon="6.25682">
        <ele>1205</ele>
        <time>2024-06-06T08:36:56+00:00</time>
      </trkpt>
      <trkpt lat="45.53242" lon="6.25693">
        <ele>1198</ele>
        <time>2024-06-06T08:36:59+00:00</time>
      </trkpt>
      <trkpt lat="45.53265" lon="6.25713">
        <ele>1192</ele>
        <time>2024-06-06T08:37:02+00:00</time>
      </trkpt>
      <trkpt lat="45.53285" lon="6.25728">
        <ele>1184</ele>
        <time>2024-06-06T08:37:05+00:00</time>
      </trkpt>
      <trkpt lat="45.53313" lon="6.2575">
        <ele>1173</ele>
        <time>2024-06-06T08:37:08+00:00</time>
      </trkpt>
      <trkpt lat="45.5335" lon="6.25782">
        <ele>1166</ele>
        <time>2024-06-06T08:37:11+00:00</time>
      </trkpt>
      <trkpt lat="45.53386" lon="6.25819">
        <ele>1162</ele>
        <time>2024-06-06T08:37:14+00:00</time>
      </trkpt>
      <trkpt lat="45.53404" lon="6.25828">
        <ele>1155</ele>
        <time>2024-06-06T08:37:17+00:00</time>
      </trkpt>
      <trkpt lat="45.53429" lon="6.2583">
        <ele>1150</ele>
        <time>2024-06-06T08:37:20+00:00</time>
      </trkpt>
      <trkpt lat="45.53447" lon="6.25836">
        <ele>1144</ele>
        <time>2024-06-06T08:37:23+00:00</time>
      </trkpt>
      <trkpt lat="45.53461" lon="6.25847">
        <ele>1137</ele>
        <time>2024-06-06T08:37:26+00:00</time>
      </trkpt>
      <trkpt lat="45.53476" lon="6.2586">
        <ele>1135</ele>
        <time>2024-06-06T08:37:29+00:00</time>
      </trkpt>
      <trkpt lat="45.53514" lon="6.25898">
        <ele>1126</ele>
        <time>2024-06-06T08:37:32+00:00</time>
      </trkpt>
      <trkpt lat="45.5354" lon="6.25924">
        <ele>1122</ele>
        <time>2024-06-06T08:37:35+00:00</time>
      </trkpt>
      <trkpt lat="45.53554" lon="6.25941">
        <ele>1114</ele>
        <time>2024-06-06T08:37:38+00:00</time>
      </trkpt>
      <trkpt lat="45.53568" lon="6.25951">
        <ele>1112</ele>
        <time>2024-06-06T08:37:41+00:00</time>
      </trkpt>
      <trkpt lat="45.5359" lon="6.25968">
        <ele>1106</ele>
        <time>2024-06-06T08:37:44+00:00</time>
      </trkpt>
      <trkpt lat="45.53606" lon="6.25977">
        <ele>1102</ele>
        <time>2024-06-06T08:37:47+00:00</time>
      </trkpt>
      <trkpt lat="45.53619" lon="6.25982">
        <ele>1098</ele>
        <time>2024-06-06T08:37:50+00:00</time>
      </trkpt>
      <trkpt lat="45.5363" lon="6.25986">
        <ele>1094</ele>
        <time>2024-06-06T08:37:53+00:00</time>
      </trkpt>
      <trkpt lat="45.53634" lon="6.25993">
        <ele>1093</ele>
        <time>2024-06-06T08:37:56+00:00</time>
      </trkpt>
      <trkpt lat="45.53641" lon="6.26011">
        <ele>1090</ele>
        <time>2024-06-06T08:37:59+00:00</time>
      </trkpt>
      <trkpt lat="45.5365" lon="6.26031">
        <ele>1089</ele>
        <time>2024-06-06T08:38:02+00:00</time>
      </trkpt>
      <trkpt lat="45.5366" lon="6.26044">
        <ele>1089</ele>
        <time>2024-06-06T08:38:05+00:00</time>
      </trkpt>
      <trkpt lat="45.53671" lon="6.26056">
        <ele>1087</ele>
        <time>2024-06-06T08:38:08+00:00</time>
      </trkpt>
      <trkpt lat="45.53675" lon="6.26061">
        <ele>1086</ele>
        <time>2024-06-06T08:38:11+00:00</time>
      </trkpt>
      <trkpt lat="45.53677" lon="6.26065">
        <ele>1086</ele>
        <time>2024-06-06T08:38:14+00:00</time>
      </trkpt>
      <trkpt lat="45.53679" lon="6.26069">
        <ele>1086</ele>
        <time>2024-06-06T08:38:17+00:00</time>
      </trkpt>
      <trkpt lat="45.5368" lon="6.26072">
        <ele>1088</ele>
        <time>2024-06-06T08:38:20+00:00</time>
      </trkpt>
      <trkpt lat="45.53679" lon="6.26077">
        <ele>1088</ele>
        <time>2024-06-06T08:38:23+00:00</time>
      </trkpt>
      <trkpt lat="45.53676" lon="6.2608">
        <ele>1086</ele>
        <time>2024-06-06T08:38:26+00:00</time>
      </trkpt>
      <trkpt lat="45.53676" lon="6.2608">
        <ele>1086</ele>
        <time>2024-06-06T08:38:29+00:00</time>
      </trkpt>
      <trkpt lat="45.53676" lon="6.2608">
        <ele>1086</ele>
        <time>2024-06-06T08:38:32+00:00</time>
      </trkpt>
      <trkpt lat="45.53672" lon="6.26083">
        <ele>1086</ele>
        <time>2024-06-06T08:38:35+00:00</time>
      </trkpt>
      <trkpt lat="45.53668" lon="6.26084">
        <ele>1087</ele>
        <time>2024-06-06T08:38:38+00:00</time>
      </trkpt>
      <trkpt lat="45.53671" lon="6.26095">
        <ele>1086</ele>
        <time>2024-06-06T08:38:41+00:00</time>
      </trkpt>
      <trkpt lat="45.53684" lon="6.26103">
        <ele>1085</ele>
        <time>2024-06-06T08:38:44+00:00</time>
      </trkpt>
      <trkpt lat="45.53699" lon="6.26111">
        <ele>1082</ele>
        <time>2024-06-06T08:38:47+00:00</time>
      </trkpt>
      <trkpt lat="45.53716" lon="6.26113">
        <ele>1078</ele>
        <time>2024-06-06T08:38:50+00:00</time>
      </trkpt>
      <trkpt lat="45.53731" lon="6.2612">
        <ele>1070</ele>
        <time>2024-06-06T08:38:53+00:00</time>
      </trkpt>
      <trkpt lat="45.53745" lon="6.26128">
        <ele>1068</ele>
        <time>2024-06-06T08:38:56+00:00</time>
      </trkpt>
      <trkpt lat="45.53759" lon="6.26143">
        <ele>1060</ele>
        <time>2024-06-06T08:38:59+00:00</time>
      </trkpt>
      <trkpt lat="45.53775" lon="6.26163">
        <ele>1057</ele>
        <time>2024-06-06T08:39:02+00:00</time>
      </trkpt>
      <trkpt lat="45.53784" lon="6.26173">
        <ele>1055</ele>
        <time>2024-06-06T08:39:05+00:00</time>
      </trkpt>
      <trkpt lat="45.53804" lon="6.2619">
        <ele>1050</ele>
        <time>2024-06-06T08:39:08+00:00</time>
      </trkpt>
      <trkpt lat="45.53823" lon="6.26206">
        <ele>1043</ele>
        <time>2024-06-06T08:39:11+00:00</time>
      </trkpt>
      <trkpt lat="45.53837" lon="6.26218">
        <ele>1041</ele>
        <time>2024-06-06T08:39:14+00:00</time>
      </trkpt>
      <trkpt lat="45.53847" lon="6.26223">
        <ele>1039</ele>
        <time>2024-06-06T08:39:17+00:00</time>
      </trkpt>
      <trkpt lat="45.53865" lon="6.26234">
        <ele>1034</ele>
        <time>2024-06-06T08:39:20+00:00</time>
      </trkpt>
      <trkpt lat="45.5388" lon="6.26244">
        <ele>1030</ele>
        <time>2024-06-06T08:39:23+00:00</time>
      </trkpt>
      <trkpt lat="45.53901" lon="6.26263">
        <ele>1019</ele>
        <time>2024-06-06T08:39:26+00:00</time>
      </trkpt>
      <trkpt lat="45.53915" lon="6.26281">
        <ele>1013</ele>
        <time>2024-06-06T08:39:29+00:00</time>
      </trkpt>
      <trkpt lat="45.53929" lon="6.26296">
        <ele>1008</ele>
        <time>2024-06-06T08:39:32+00:00</time>
      </trkpt>
      <trkpt lat="45.53946" lon="6.26313">
        <ele>1004</ele>
        <time>2024-06-06T08:39:35+00:00</time>
      </trkpt>
      <trkpt lat="45.53962" lon="6.26334">
        <ele>999</ele>
        <time>2024-06-06T08:39:38+00:00</time>
      </trkpt>
      <trkpt lat="45.53978" lon="6.26351">
        <ele>995</ele>
        <time>2024-06-06T08:39:41+00:00</time>
      </trkpt>
      <trkpt lat="45.53995" lon="6.26369">
        <ele>990</ele>
        <time>2024-06-06T08:39:44+00:00</time>
      </trkpt>
      <trkpt lat="45.54005" lon="6.26386">
        <ele>986</ele>
        <time>2024-06-06T08:39:47+00:00</time>
      </trkpt>
      <trkpt lat="45.54016" lon="6.26422">
        <ele>982</ele>
        <time>2024-06-06T08:39:50+00:00</time>
      </trkpt>
      <trkpt lat="45.54026" lon="6.26441">
        <ele>979</ele>
        <time>2024-06-06T08:39:53+00:00</time>
      </trkpt>
      <trkpt lat="45.54028" lon="6.26454">
        <ele>978</ele>
        <time>2024-06-06T08:39:56+00:00</time>
      </trkpt>
      <trkpt lat="45.54033" lon="6.26464">
        <ele>976</ele>
        <time>2024-06-06T08:39:59+00:00</time>
      </trkpt>
      <trkpt lat="45.5404" lon="6.26477">
        <ele>972</ele>
        <time>2024-06-06T08:40:02+00:00</time>
      </trkpt>
      <trkpt lat="45.54045" lon="6.26488">
        <ele>971</ele>
        <time>2024-06-06T08:40:05+00:00</time>
      </trkpt>
      <trkpt lat="45.54058" lon="6.26492">
        <ele>967</ele>
        <time>2024-06-06T08:40:08+00:00</time>
      </trkpt>
      <trkpt lat="45.54065" lon="6.26502">
        <ele>963</ele>
        <time>2024-06-06T08:40:11+00:00</time>
      </trkpt>
      <trkpt lat="45.5407" lon="6.26512">
        <ele>962</ele>
        <time>2024-06-06T08:40:14+00:00</time>
      </trkpt>
      <trkpt lat="45.54074" lon="6.26525">
        <ele>959</ele>
        <time>2024-06-06T08:40:17+00:00</time>
      </trkpt>
      <trkpt lat="45.54073" lon="6.26541">
        <ele>954</ele>
        <time>2024-06-06T08:40:20+00:00</time>
      </trkpt>
      <trkpt lat="45.54072" lon="6.26551">
        <ele>952</ele>
        <time>2024-06-06T08:40:23+00:00</time>
      </trkpt>
      <trkpt lat="45.54065" lon="6.26569">
        <ele>948</ele>
        <time>2024-06-06T08:40:26+00:00</time>
      </trkpt>
      <trkpt lat="45.54064" lon="6.26578">
        <ele>945</ele>
        <time>2024-06-06T08:40:29+00:00</time>
      </trkpt>
      <trkpt lat="45.54064" lon="6.26592">
        <ele>941</ele>
        <time>2024-06-06T08:40:32+00:00</time>
      </trkpt>
      <trkpt lat="45.54067" lon="6.26604">
        <ele>940</ele>
        <time>2024-06-06T08:40:35+00:00</time>
      </trkpt>
      <trkpt lat="45.54069" lon="6.26613">
        <ele>938</ele>
        <time>2024-06-06T08:40:38+00:00</time>
      </trkpt>
      <trkpt lat="45.54073" lon="6.26625">
        <ele>937</ele>
        <time>2024-06-06T08:40:41+00:00</time>
      </trkpt>
      <trkpt lat="45.54081" lon="6.26646">
        <ele>935</ele>
        <time>2024-06-06T08:40:44+00:00</time>
      </trkpt>
      <trkpt lat="45.54087" lon="6.26667">
        <ele>930</ele>
        <time>2024-06-06T08:40:47+00:00</time>
      </trkpt>
      <trkpt lat="45.54095" lon="6.26688">
        <ele>927</ele>
        <time>2024-06-06T08:40:50+00:00</time>
      </trkpt>
      <trkpt lat="45.54096" lon="6.26692">
        <ele>925</ele>
        <time>2024-06-06T08:40:53+00:00</time>
      </trkpt>
      <trkpt lat="45.54106" lon="6.26706">
        <ele>922</ele>
        <time>2024-06-06T08:40:56+00:00</time>
      </trkpt>
      <trkpt lat="45.54115" lon="6.26719">
        <ele>919</ele>
        <time>2024-06-06T08:40:59+00:00</time>
      </trkpt>
      <trkpt lat="45.54126" lon="6.26734">
        <ele>915</ele>
        <time>2024-06-06T08:41:02+00:00</time>
      </trkpt>
      <trkpt lat="45.54136" lon="6.26749">
        <ele>911</ele>
        <time>2024-06-06T08:41:05+00:00</time>
      </trkpt>
      <trkpt lat="45.54148" lon="6.26766">
        <ele>908</ele>
        <time>2024-06-06T08:41:08+00:00</time>
      </trkpt>
      <trkpt lat="45.5416" lon="6.26781">
        <ele>901</ele>
        <time>2024-06-06T08:41:11+00:00</time>
      </trkpt>
      <trkpt lat="45.54169" lon="6.26794">
        <ele>896</ele>
        <time>2024-06-06T08:41:14+00:00</time>
      </trkpt>
      <trkpt lat="45.54186" lon="6.26818">
        <ele>887</ele>
        <time>2024-06-06T08:41:17+00:00</time>
      </trkpt>
      <trkpt lat="45.542" lon="6.26834">
        <ele>881</ele>
        <time>2024-06-06T08:41:20+00:00</time>
      </trkpt>
      <trkpt lat="45.54209" lon="6.26849">
        <ele>877</ele>
        <time>2024-06-06T08:41:23+00:00</time>
      </trkpt>
      <trkpt lat="45.54219" lon="6.26863">
        <ele>872</ele>
        <time>2024-06-06T08:41:26+00:00</time>
      </trkpt>
      <trkpt lat="45.54228" lon="6.26877">
        <ele>867</ele>
        <time>2024-06-06T08:41:29+00:00</time>
      </trkpt>
      <trkpt lat="45.54235" lon="6.26885">
        <ele>864</ele>
        <time>2024-06-06T08:41:32+00:00</time>
      </trkpt>
      <trkpt lat="45.54237" lon="6.26888">
        <ele>864</ele>
        <time>2024-06-06T08:41:35+00:00</time>
      </trkpt>
      <trkpt lat="45.54244" lon="6.26898">
        <ele>860</ele>
        <time>2024-06-06T08:41:38+00:00</time>
      </trkpt>
      <trkpt lat="45.54253" lon="6.2691">
        <ele>856</ele>
        <time>2024-06-06T08:41:41+00:00</time>
      </trkpt>
      <trkpt lat="45.54264" lon="6.26924">
        <ele>851</ele>
        <time>2024-06-06T08:41:44+00:00</time>
      </trkpt>
      <trkpt lat="45.54271" lon="6.26932">
        <ele>847</ele>
        <time>2024-06-06T08:41:47+00:00</time>
      </trkpt>
      <trkpt lat="45.54289" lon="6.26954">
        <ele>844</ele>
        <time>2024-06-06T08:41:50+00:00</time>
      </trkpt>
      <trkpt lat="45.54302" lon="6.26971">
        <ele>839</ele>
        <time>2024-06-06T08:41:53+00:00</time>
      </trkpt>
      <trkpt lat="45.54312" lon="6.26985">
        <ele>836</ele>
        <time>2024-06-06T08:41:56+00:00</time>
      </trkpt>
      <trkpt lat="45.54322" lon="6.26999">
        <ele>833</ele>
        <time>2024-06-06T08:41:59+00:00</time>
      </trkpt>
      <trkpt lat="45.54328" lon="6.2701">
        <ele>832</ele>
        <time>2024-06-06T08:42:02+00:00</time>
      </trkpt>
      <trkpt lat="45.54328" lon="6.2701">
        <ele>832</ele>
        <time>2024-06-06T08:42:05+00:00</time>
      </trkpt>
      <trkpt lat="45.54328" lon="6.2701">
        <ele>832</ele>
        <time>2024-06-06T08:42:08+00:00</time>
      </trkpt>
      <trkpt lat="45.5433" lon="6.27018">
        <ele>829</ele>
        <time>2024-06-06T08:42:11+00:00</time>
      </trkpt>
      <trkpt lat="45.54331" lon="6.27024">
        <ele>827</ele>
        <time>2024-06-06T08:42:14+00:00</time>
      </trkpt>
      <trkpt lat="45.54337" lon="6.27029">
        <ele>827</ele>
        <time>2024-06-06T08:42:17+00:00</time>
      </trkpt>
      <trkpt lat="45.54341" lon="6.27031">
        <ele>826</ele>
        <time>2024-06-06T08:42:20+00:00</time>
      </trkpt>
      <trkpt lat="45.54346" lon="6.27031">
        <ele>826</ele>
        <time>2024-06-06T08:42:23+00:00</time>
      </trkpt>
      <trkpt lat="45.5435" lon="6.27027">
        <ele>827</ele>
        <time>2024-06-06T08:42:26+00:00</time>
      </trkpt>
      <trkpt lat="45.54352" lon="6.2702">
        <ele>825</ele>
        <time>2024-06-06T08:42:29+00:00</time>
      </trkpt>
      <trkpt lat="45.54354" lon="6.2701">
        <ele>826</ele>
        <time>2024-06-06T08:42:32+00:00</time>
      </trkpt>
      <trkpt lat="45.54357" lon="6.27007">
        <ele>826</ele>
        <time>2024-06-06T08:42:35+00:00</time>
      </trkpt>
      <trkpt lat="45.54359" lon="6.27008">
        <ele>826</ele>
        <time>2024-06-06T08:42:38+00:00</time>
      </trkpt>
      <trkpt lat="45.54362" lon="6.27009">
        <ele>823</ele>
        <time>2024-06-06T08:42:41+00:00</time>
      </trkpt>
      <trkpt lat="45.54364" lon="6.27013">
        <ele>823</ele>
        <time>2024-06-06T08:42:44+00:00</time>
      </trkpt>
      <trkpt lat="45.54366" lon="6.27018">
        <ele>823</ele>
        <time>2024-06-06T08:42:47+00:00</time>
      </trkpt>
      <trkpt lat="45.54366" lon="6.27029">
        <ele>823</ele>
        <time>2024-06-06T08:42:50+00:00</time>
      </trkpt>
      <trkpt lat="45.54366" lon="6.27041">
        <ele>822</ele>
        <time>2024-06-06T08:42:53+00:00</time>
      </trkpt>
      <trkpt lat="45.54366" lon="6.27052">
        <ele>820</ele>
        <time>2024-06-06T08:42:56+00:00</time>
      </trkpt>
      <trkpt lat="45.54366" lon="6.27063">
        <ele>819</ele>
        <time>2024-06-06T08:42:59+00:00</time>
      </trkpt>
      <trkpt lat="45.54365" lon="6.27066">
        <ele>819</ele>
        <time>2024-06-06T08:43:02+00:00</time>
      </trkpt>
      <trkpt lat="45.5436" lon="6.27071">
        <ele>817</ele>
        <time>2024-06-06T08:43:05+00:00</time>
      </trkpt>
      <trkpt lat="45.54356" lon="6.27075">
        <ele>817</ele>
        <time>2024-06-06T08:43:08+00:00</time>
      </trkpt>
      <trkpt lat="45.5435" lon="6.27079">
        <ele>817</ele>
        <time>2024-06-06T08:43:11+00:00</time>
      </trkpt>
      <trkpt lat="45.54342" lon="6.27081">
        <ele>810</ele>
        <time>2024-06-06T08:43:14+00:00</time>
      </trkpt>
      <trkpt lat="45.54338" lon="6.27086">
        <ele>806</ele>
        <time>2024-06-06T08:43:17+00:00</time>
      </trkpt>
      <trkpt lat="45.54334" lon="6.27089">
        <ele>806</ele>
        <time>2024-06-06T08:43:20+00:00</time>
      </trkpt>
      <trkpt lat="45.54331" lon="6.27091">
        <ele>803</ele>
        <time>2024-06-06T08:43:23+00:00</time>
      </trkpt>
      <trkpt lat="45.54329" lon="6.27093">
        <ele>802</ele>
        <time>2024-06-06T08:43:26+00:00</time>
      </trkpt>
      <trkpt lat="45.54324" lon="6.27097">
        <ele>802</ele>
        <time>2024-06-06T08:43:29+00:00</time>
      </trkpt>
      <trkpt lat="45.54322" lon="6.27099">
        <ele>802</ele>
        <time>2024-06-06T08:43:32+00:00</time>
      </trkpt>
      <trkpt lat="45.54318" lon="6.27102">
        <ele>797</ele>
        <time>2024-06-06T08:43:35+00:00</time>
      </trkpt>
      <trkpt lat="45.54316" lon="6.27105">
        <ele>797</ele>
        <time>2024-06-06T08:43:38+00:00</time>
      </trkpt>
      <trkpt lat="45.54302" lon="6.27118">
        <ele>792</ele>
        <time>2024-06-06T08:43:41+00:00</time>
      </trkpt>
      <trkpt lat="45.54285" lon="6.27133">
        <ele>786</ele>
        <time>2024-06-06T08:43:44+00:00</time>
      </trkpt>
      <trkpt lat="45.54272" lon="6.2715">
        <ele>782</ele>
        <time>2024-06-06T08:43:47+00:00</time>
      </trkpt>
      <trkpt lat="45.54246" lon="6.2717">
        <ele>772</ele>
        <time>2024-06-06T08:43:50+00:00</time>
      </trkpt>
      <trkpt lat="45.54215" lon="6.27178">
        <ele>767</ele>
        <time>2024-06-06T08:43:53+00:00</time>
      </trkpt>
      <trkpt lat="45.54209" lon="6.27184">
        <ele>766</ele>
        <time>2024-06-06T08:43:56+00:00</time>
      </trkpt>
      <trkpt lat="45.54204" lon="6.27185">
        <ele>766</ele>
        <time>2024-06-06T08:43:59+00:00</time>
      </trkpt>
      <trkpt lat="45.54188" lon="6.27177">
        <ele>766</ele>
        <time>2024-06-06T08:44:02+00:00</time>
      </trkpt>
      <trkpt lat="45.5418" lon="6.27173">
        <ele>764</ele>
        <time>2024-06-06T08:44:05+00:00</time>
      </trkpt>
      <trkpt lat="45.54173" lon="6.27169">
        <ele>765</ele>
        <time>2024-06-06T08:44:08+00:00</time>
      </trkpt>
      <trkpt lat="45.54167" lon="6.27165">
        <ele>765</ele>
        <time>2024-06-06T08:44:11+00:00</time>
      </trkpt>
      <trkpt lat="45.54158" lon="6.2716">
        <ele>762</ele>
        <time>2024-06-06T08:44:14+00:00</time>
      </trkpt>
      <trkpt lat="45.54155" lon="6.27159">
        <ele>764</ele>
        <time>2024-06-06T08:44:17+00:00</time>
      </trkpt>
      <trkpt lat="45.54153" lon="6.27159">
        <ele>764</ele>
        <time>2024-06-06T08:44:20+00:00</time>
      </trkpt>
      <trkpt lat="45.54152" lon="6.27161">
        <ele>762</ele>
        <time>2024-06-06T08:44:23+00:00</time>
      </trkpt>
      <trkpt lat="45.54153" lon="6.27165">
        <ele>762</ele>
        <time>2024-06-06T08:44:26+00:00</time>
      </trkpt>
      <trkpt lat="45.54157" lon="6.27177">
        <ele>761</ele>
        <time>2024-06-06T08:44:29+00:00</time>
      </trkpt>
      <trkpt lat="45.54166" lon="6.27194">
        <ele>760</ele>
        <time>2024-06-06T08:44:32+00:00</time>
      </trkpt>
      <trkpt lat="45.54176" lon="6.27213">
        <ele>758</ele>
        <time>2024-06-06T08:44:35+00:00</time>
      </trkpt>
      <trkpt lat="45.54185" lon="6.27225">
        <ele>758</ele>
        <time>2024-06-06T08:44:38+00:00</time>
      </trkpt>
      <trkpt lat="45.5419" lon="6.2723">
        <ele>761</ele>
        <time>2024-06-06T08:44:41+00:00</time>
      </trkpt>
      <trkpt lat="45.54197" lon="6.27233">
        <ele>756</ele>
        <time>2024-06-06T08:44:44+00:00</time>
      </trkpt>
      <trkpt lat="45.54202" lon="6.27236">
        <ele>757</ele>
        <time>2024-06-06T08:44:47+00:00</time>
      </trkpt>
      <trkpt lat="45.54208" lon="6.27237">
        <ele>757</ele>
        <time>2024-06-06T08:44:50+00:00</time>
      </trkpt>
      <trkpt lat="45.54213" lon="6.2724">
        <ele>758</ele>
        <time>2024-06-06T08:44:53+00:00</time>
      </trkpt>
      <trkpt lat="45.54217" lon="6.27243">
        <ele>754</ele>
        <time>2024-06-06T08:44:56+00:00</time>
      </trkpt>
      <trkpt lat="45.54219" lon="6.27247">
        <ele>754</ele>
        <time>2024-06-06T08:44:59+00:00</time>
      </trkpt>
      <trkpt lat="45.54221" lon="6.27257">
        <ele>753</ele>
        <time>2024-06-06T08:45:02+00:00</time>
      </trkpt>
      <trkpt lat="45.54218" lon="6.27259">
        <ele>753</ele>
        <time>2024-06-06T08:45:05+00:00</time>
      </trkpt>
      <trkpt lat="45.54217" lon="6.27264">
        <ele>752</ele>
        <time>2024-06-06T08:45:08+00:00</time>
      </trkpt>
      <trkpt lat="45.54198" lon="6.27252">
        <ele>750</ele>
        <time>2024-06-06T08:45:11+00:00</time>
      </trkpt>
      <trkpt lat="45.54196" lon="6.27252">
        <ele>750</ele>
        <time>2024-06-06T08:45:14+00:00</time>
      </trkpt>
      <trkpt lat="45.54189" lon="6.27249">
        <ele>750</ele>
        <time>2024-06-06T08:45:17+00:00</time>
      </trkpt>
      <trkpt lat="45.54176" lon="6.27242">
        <ele>749</ele>
        <time>2024-06-06T08:45:20+00:00</time>
      </trkpt>
      <trkpt lat="45.54171" lon="6.27238">
        <ele>751</ele>
        <time>2024-06-06T08:45:23+00:00</time>
      </trkpt>
      <trkpt lat="45.54167" lon="6.27235">
        <ele>748</ele>
        <time>2024-06-06T08:45:26+00:00</time>
      </trkpt>
      <trkpt lat="45.54161" lon="6.27233">
        <ele>748</ele>
        <time>2024-06-06T08:45:29+00:00</time>
      </trkpt>
      <trkpt lat="45.54151" lon="6.27229">
        <ele>749</ele>
        <time>2024-06-06T08:45:32+00:00</time>
      </trkpt>
      <trkpt lat="45.54142" lon="6.27226">
        <ele>748</ele>
        <time>2024-06-06T08:45:35+00:00</time>
      </trkpt>
      <trkpt lat="45.54133" lon="6.27227">
        <ele>747</ele>
        <time>2024-06-06T08:45:38+00:00</time>
      </trkpt>
      <trkpt lat="45.54116" lon="6.27224">
        <ele>741</ele>
        <time>2024-06-06T08:45:41+00:00</time>
      </trkpt>
      <trkpt lat="45.54102" lon="6.27217">
        <ele>741</ele>
        <time>2024-06-06T08:45:44+00:00</time>
      </trkpt>
      <trkpt lat="45.54098" lon="6.27214">
        <ele>739</ele>
        <time>2024-06-06T08:45:47+00:00</time>
      </trkpt>
      <trkpt lat="45.54079" lon="6.27197">
        <ele>738</ele>
        <time>2024-06-06T08:45:50+00:00</time>
      </trkpt>
      <trkpt lat="45.54066" lon="6.27187">
        <ele>737</ele>
        <time>2024-06-06T08:45:53+00:00</time>
      </trkpt>
      <trkpt lat="45.5406" lon="6.27183">
        <ele>733</ele>
        <time>2024-06-06T08:45:56+00:00</time>
      </trkpt>
      <trkpt lat="45.54053" lon="6.2718">
        <ele>738</ele>
        <time>2024-06-06T08:45:59+00:00</time>
      </trkpt>
      <trkpt lat="45.54045" lon="6.27177">
        <ele>734</ele>
        <time>2024-06-06T08:46:02+00:00</time>
      </trkpt>
      <trkpt lat="45.54038" lon="6.27173">
        <ele>730</ele>
        <time>2024-06-06T08:46:05+00:00</time>
      </trkpt>
      <trkpt lat="45.54029" lon="6.27169">
        <ele>731</ele>
        <time>2024-06-06T08:46:08+00:00</time>
      </trkpt>
      <trkpt lat="45.54026" lon="6.27168">
        <ele>731</ele>
        <time>2024-06-06T08:46:11+00:00</time>
      </trkpt>
      <trkpt lat="45.54006" lon="6.27157">
        <ele>728</ele>
        <time>2024-06-06T08:46:14+00:00</time>
      </trkpt>
      <trkpt lat="45.53998" lon="6.27152">
        <ele>726</ele>
        <time>2024-06-06T08:46:17+00:00</time>
      </trkpt>
      <trkpt lat="45.53981" lon="6.27138">
        <ele>727</ele>
        <time>2024-06-06T08:46:20+00:00</time>
      </trkpt>
      <trkpt lat="45.53972" lon="6.27129">
        <ele>725</ele>
        <time>2024-06-06T08:46:23+00:00</time>
      </trkpt>
      <trkpt lat="45.53962" lon="6.2712">
        <ele>723</ele>
        <time>2024-06-06T08:46:26+00:00</time>
      </trkpt>
      <trkpt lat="45.53955" lon="6.27119">
        <ele>723</ele>
        <time>2024-06-06T08:46:29+00:00</time>
      </trkpt>
      <trkpt lat="45.53953" lon="6.27122">
        <ele>722</ele>
        <time>2024-06-06T08:46:32+00:00</time>
      </trkpt>
      <trkpt lat="45.53952" lon="6.27128">
        <ele>722</ele>
        <time>2024-06-06T08:46:35+00:00</time>
      </trkpt>
      <trkpt lat="45.53954" lon="6.27132">
        <ele>721</ele>
        <time>2024-06-06T08:46:38+00:00</time>
      </trkpt>
      <trkpt lat="45.53956" lon="6.27134">
        <ele>721</ele>
        <time>2024-06-06T08:46:41+00:00</time>
      </trkpt>
      <trkpt lat="45.53968" lon="6.27149">
        <ele>719</ele>
        <time>2024-06-06T08:46:44+00:00</time>
      </trkpt>
      <trkpt lat="45.53979" lon="6.27166">
        <ele>716</ele>
        <time>2024-06-06T08:46:47+00:00</time>
      </trkpt>
      <trkpt lat="45.5399" lon="6.27187">
        <ele>717</ele>
        <time>2024-06-06T08:46:50+00:00</time>
      </trkpt>
      <trkpt lat="45.53998" lon="6.27211">
        <ele>710</ele>
        <time>2024-06-06T08:46:53+00:00</time>
      </trkpt>
      <trkpt lat="45.54007" lon="6.27232">
        <ele>709</ele>
        <time>2024-06-06T08:46:56+00:00</time>
      </trkpt>
      <trkpt lat="45.54015" lon="6.27253">
        <ele>709</ele>
        <time>2024-06-06T08:46:59+00:00</time>
      </trkpt>
      <trkpt lat="45.54024" lon="6.27275">
        <ele>707</ele>
        <time>2024-06-06T08:47:02+00:00</time>
      </trkpt>
      <trkpt lat="45.54027" lon="6.27287">
        <ele>706</ele>
        <time>2024-06-06T08:47:05+00:00</time>
      </trkpt>
      <trkpt lat="45.54027" lon="6.27288">
        <ele>706</ele>
        <time>2024-06-06T08:47:08+00:00</time>
      </trkpt>
      <trkpt lat="45.54029" lon="6.27295">
        <ele>704</ele>
        <time>2024-06-06T08:47:11+00:00</time>
      </trkpt>
      <trkpt lat="45.54031" lon="6.27299">
        <ele>706</ele>
        <time>2024-06-06T08:47:14+00:00</time>
      </trkpt>
      <trkpt lat="45.54032" lon="6.27303">
        <ele>705</ele>
        <time>2024-06-06T08:47:17+00:00</time>
      </trkpt>
      <trkpt lat="45.5404" lon="6.27315">
        <ele>705</ele>
        <time>2024-06-06T08:47:20+00:00</time>
      </trkpt>
      <trkpt lat="45.54055" lon="6.2733">
        <ele>701</ele>
        <time>2024-06-06T08:47:23+00:00</time>
      </trkpt>
      <trkpt lat="45.54056" lon="6.27331">
        <ele>701</ele>
        <time>2024-06-06T08:47:26+00:00</time>
      </trkpt>
      <trkpt lat="45.54071" lon="6.27341">
        <ele>700</ele>
        <time>2024-06-06T08:47:29+00:00</time>
      </trkpt>
      <trkpt lat="45.54088" lon="6.27348">
        <ele>700</ele>
        <time>2024-06-06T08:47:32+00:00</time>
      </trkpt>
      <trkpt lat="45.54093" lon="6.27349">
        <ele>701</ele>
        <time>2024-06-06T08:47:35+00:00</time>
      </trkpt>
      <trkpt lat="45.54094" lon="6.2735">
        <ele>701</ele>
        <time>2024-06-06T08:47:38+00:00</time>
      </trkpt>
      <trkpt lat="45.541" lon="6.2735">
        <ele>697</ele>
        <time>2024-06-06T08:47:41+00:00</time>
      </trkpt>
      <trkpt lat="45.54116" lon="6.27351">
        <ele>696</ele>
        <time>2024-06-06T08:47:44+00:00</time>
      </trkpt>
      <trkpt lat="45.54119" lon="6.27351">
        <ele>696</ele>
        <time>2024-06-06T08:47:47+00:00</time>
      </trkpt>
      <trkpt lat="45.54124" lon="6.27349">
        <ele>699</ele>
        <time>2024-06-06T08:47:50+00:00</time>
      </trkpt>
      <trkpt lat="45.54127" lon="6.27349">
        <ele>699</ele>
        <time>2024-06-06T08:47:53+00:00</time>
      </trkpt>
      <trkpt lat="45.5413" lon="6.27349">
        <ele>695</ele>
        <time>2024-06-06T08:47:56+00:00</time>
      </trkpt>
      <trkpt lat="45.54133" lon="6.27352">
        <ele>693</ele>
        <time>2024-06-06T08:47:59+00:00</time>
      </trkpt>
      <trkpt lat="45.54135" lon="6.27356">
        <ele>693</ele>
        <time>2024-06-06T08:48:02+00:00</time>
      </trkpt>
      <trkpt lat="45.54142" lon="6.2737">
        <ele>689</ele>
        <time>2024-06-06T08:48:05+00:00</time>
      </trkpt>
      <trkpt lat="45.54151" lon="6.27385">
        <ele>689</ele>
        <time>2024-06-06T08:48:08+00:00</time>
      </trkpt>
      <trkpt lat="45.54162" lon="6.27407">
        <ele>687</ele>
        <time>2024-06-06T08:48:11+00:00</time>
      </trkpt>
      <trkpt lat="45.5418" lon="6.27438">
        <ele>682</ele>
        <time>2024-06-06T08:48:14+00:00</time>
      </trkpt>
      <trkpt lat="45.54188" lon="6.27445">
        <ele>682</ele>
        <time>2024-06-06T08:48:17+00:00</time>
      </trkpt>
      <trkpt lat="45.54198" lon="6.27453">
        <ele>681</ele>
        <time>2024-06-06T08:48:20+00:00</time>
      </trkpt>
      <trkpt lat="45.54209" lon="6.27466">
        <ele>679</ele>
        <time>2024-06-06T08:48:23+00:00</time>
      </trkpt>
      <trkpt lat="45.54219" lon="6.27481">
        <ele>674</ele>
        <time>2024-06-06T08:48:26+00:00</time>
      </trkpt>
      <trkpt lat="45.54227" lon="6.27493">
        <ele>675</ele>
        <time>2024-06-06T08:48:29+00:00</time>
      </trkpt>
      <trkpt lat="45.54231" lon="6.27505">
        <ele>673</ele>
        <time>2024-06-06T08:48:32+00:00</time>
      </trkpt>
      <trkpt lat="45.54235" lon="6.27516">
        <ele>671</ele>
        <time>2024-06-06T08:48:35+00:00</time>
      </trkpt>
      <trkpt lat="45.54241" lon="6.2753">
        <ele>672</ele>
        <time>2024-06-06T08:48:38+00:00</time>
      </trkpt>
      <trkpt lat="45.54245" lon="6.27541">
        <ele>667</ele>
        <time>2024-06-06T08:48:41+00:00</time>
      </trkpt>
      <trkpt lat="45.54247" lon="6.27553">
        <ele>665</ele>
        <time>2024-06-06T08:48:44+00:00</time>
      </trkpt>
      <trkpt lat="45.54248" lon="6.27571">
        <ele>669</ele>
        <time>2024-06-06T08:48:47+00:00</time>
      </trkpt>
      <trkpt lat="45.54249" lon="6.27586">
        <ele>659</ele>
        <time>2024-06-06T08:48:50+00:00</time>
      </trkpt>
      <trkpt lat="45.5425" lon="6.27605">
        <ele>666</ele>
        <time>2024-06-06T08:48:53+00:00</time>
      </trkpt>
      <trkpt lat="45.54253" lon="6.27622">
        <ele>663</ele>
        <time>2024-06-06T08:48:56+00:00</time>
      </trkpt>
      <trkpt lat="45.5426" lon="6.27644">
        <ele>664</ele>
        <time>2024-06-06T08:48:59+00:00</time>
      </trkpt>
      <trkpt lat="45.54266" lon="6.27671">
        <ele>657</ele>
        <time>2024-06-06T08:49:02+00:00</time>
      </trkpt>
      <trkpt lat="45.54271" lon="6.27682">
        <ele>659</ele>
        <time>2024-06-06T08:49:05+00:00</time>
      </trkpt>
      <trkpt lat="45.54275" lon="6.27696">
        <ele>657</ele>
        <time>2024-06-06T08:49:08+00:00</time>
      </trkpt>
      <trkpt lat="45.54277" lon="6.27702">
        <ele>655</ele>
        <time>2024-06-06T08:49:11+00:00</time>
      </trkpt>
      <trkpt lat="45.54282" lon="6.27706">
        <ele>659</ele>
        <time>2024-06-06T08:49:14+00:00</time>
      </trkpt>
      <trkpt lat="45.54287" lon="6.27709">
        <ele>659</ele>
        <time>2024-06-06T08:49:17+00:00</time>
      </trkpt>
      <trkpt lat="45.54293" lon="6.27712">
        <ele>655</ele>
        <time>2024-06-06T08:49:20+00:00</time>
      </trkpt>
      <trkpt lat="45.54304" lon="6.27718">
        <ele>655</ele>
        <time>2024-06-06T08:49:23+00:00</time>
      </trkpt>
      <trkpt lat="45.54311" lon="6.27722">
        <ele>653</ele>
        <time>2024-06-06T08:49:26+00:00</time>
      </trkpt>
      <trkpt lat="45.54323" lon="6.27731">
        <ele>651</ele>
        <time>2024-06-06T08:49:29+00:00</time>
      </trkpt>
      <trkpt lat="45.54328" lon="6.27737">
        <ele>651</ele>
        <time>2024-06-06T08:49:32+00:00</time>
      </trkpt>
      <trkpt lat="45.54328" lon="6.27744">
        <ele>649</ele>
        <time>2024-06-06T08:49:35+00:00</time>
      </trkpt>
      <trkpt lat="45.54333" lon="6.27749">
        <ele>649</ele>
        <time>2024-06-06T08:49:38+00:00</time>
      </trkpt>
      <trkpt lat="45.54337" lon="6.27754">
        <ele>648</ele>
        <time>2024-06-06T08:49:41+00:00</time>
      </trkpt>
      <trkpt lat="45.5434" lon="6.2776">
        <ele>647</ele>
        <time>2024-06-06T08:49:44+00:00</time>
      </trkpt>
      <trkpt lat="45.54346" lon="6.2777">
        <ele>646</ele>
        <time>2024-06-06T08:49:47+00:00</time>
      </trkpt>
      <trkpt lat="45.54353" lon="6.27784">
        <ele>645</ele>
        <time>2024-06-06T08:49:50+00:00</time>
      </trkpt>
      <trkpt lat="45.54358" lon="6.2779">
        <ele>644</ele>
        <time>2024-06-06T08:49:53+00:00</time>
      </trkpt>
      <trkpt lat="45.54364" lon="6.27796">
        <ele>644</ele>
        <time>2024-06-06T08:49:56+00:00</time>
      </trkpt>
      <trkpt lat="45.5437" lon="6.27799">
        <ele>645</ele>
        <time>2024-06-06T08:49:59+00:00</time>
      </trkpt>
      <trkpt lat="45.54375" lon="6.27804">
        <ele>642</ele>
        <time>2024-06-06T08:50:02+00:00</time>
      </trkpt>
      <trkpt lat="45.54379" lon="6.27811">
        <ele>640</ele>
        <time>2024-06-06T08:50:05+00:00</time>
      </trkpt>
      <trkpt lat="45.54387" lon="6.27826">
        <ele>640</ele>
        <time>2024-06-06T08:50:08+00:00</time>
      </trkpt>
      <trkpt lat="45.54394" lon="6.27849">
        <ele>639</ele>
        <time>2024-06-06T08:50:11+00:00</time>
      </trkpt>
      <trkpt lat="45.544" lon="6.27871">
        <ele>637</ele>
        <time>2024-06-06T08:50:14+00:00</time>
      </trkpt>
      <trkpt lat="45.54402" lon="6.27887">
        <ele>635</ele>
        <time>2024-06-06T08:50:17+00:00</time>
      </trkpt>
      <trkpt lat="45.54405" lon="6.27899">
        <ele>634</ele>
        <time>2024-06-06T08:50:20+00:00</time>
      </trkpt>
      <trkpt lat="45.54407" lon="6.27906">
        <ele>633</ele>
        <time>2024-06-06T08:50:23+00:00</time>
      </trkpt>
      <trkpt lat="45.54416" lon="6.27921">
        <ele>633</ele>
        <time>2024-06-06T08:50:26+00:00</time>
      </trkpt>
      <trkpt lat="45.54416" lon="6.27922">
        <ele>633</ele>
        <time>2024-06-06T08:50:29+00:00</time>
      </trkpt>
      <trkpt lat="45.54419" lon="6.27928">
        <ele>633</ele>
        <time>2024-06-06T08:50:32+00:00</time>
      </trkpt>
      <trkpt lat="45.54438" lon="6.27956">
        <ele>631</ele>
        <time>2024-06-06T08:50:35+00:00</time>
      </trkpt>
      <trkpt lat="45.54444" lon="6.27966">
        <ele>627</ele>
        <time>2024-06-06T08:50:38+00:00</time>
      </trkpt>
      <trkpt lat="45.54459" lon="6.27984">
        <ele>622</ele>
        <time>2024-06-06T08:50:41+00:00</time>
      </trkpt>
      <trkpt lat="45.54475" lon="6.28002">
        <ele>619</ele>
        <time>2024-06-06T08:50:44+00:00</time>
      </trkpt>
      <trkpt lat="45.5451" lon="6.28034">
        <ele>613</ele>
        <time>2024-06-06T08:50:47+00:00</time>
      </trkpt>
      <trkpt lat="45.54547" lon="6.28075">
        <ele>610</ele>
        <time>2024-06-06T08:50:50+00:00</time>
      </trkpt>
      <trkpt lat="45.54575" lon="6.28116">
        <ele>600</ele>
        <time>2024-06-06T08:50:53+00:00</time>
      </trkpt>
      <trkpt lat="45.546" lon="6.2815">
        <ele>594</ele>
        <time>2024-06-06T08:50:56+00:00</time>
      </trkpt>
      <trkpt lat="45.54619" lon="6.28172">
        <ele>590</ele>
        <time>2024-06-06T08:50:59+00:00</time>
      </trkpt>
      <trkpt lat="45.54629" lon="6.28183">
        <ele>589</ele>
        <time>2024-06-06T08:51:02+00:00</time>
      </trkpt>
      <trkpt lat="45.5464" lon="6.28194">
        <ele>589</ele>
        <time>2024-06-06T08:51:05+00:00</time>
      </trkpt>
      <trkpt lat="45.54648" lon="6.28204">
        <ele>587</ele>
        <time>2024-06-06T08:51:08+00:00</time>
      </trkpt>
      <trkpt lat="45.54661" lon="6.28218">
        <ele>589</ele>
        <time>2024-06-06T08:51:11+00:00</time>
      </trkpt>
      <trkpt lat="45.54672" lon="6.28229">
        <ele>588</ele>
        <time>2024-06-06T08:51:14+00:00</time>
      </trkpt>
      <trkpt lat="45.54679" lon="6.28237">
        <ele>582</ele>
        <time>2024-06-06T08:51:17+00:00</time>
      </trkpt>
      <trkpt lat="45.54681" lon="6.2824">
        <ele>584</ele>
        <time>2024-06-06T08:51:20+00:00</time>
      </trkpt>
      <trkpt lat="45.5469" lon="6.28251">
        <ele>578</ele>
        <time>2024-06-06T08:51:23+00:00</time>
      </trkpt>
      <trkpt lat="45.54705" lon="6.28267">
        <ele>577</ele>
        <time>2024-06-06T08:51:26+00:00</time>
      </trkpt>
      <trkpt lat="45.54714" lon="6.28274">
        <ele>576</ele>
        <time>2024-06-06T08:51:29+00:00</time>
      </trkpt>
      <trkpt lat="45.54721" lon="6.2828">
        <ele>577</ele>
        <time>2024-06-06T08:51:32+00:00</time>
      </trkpt>
      <trkpt lat="45.5473" lon="6.28287">
        <ele>574</ele>
        <time>2024-06-06T08:51:35+00:00</time>
      </trkpt>
      <trkpt lat="45.54761" lon="6.2832">
        <ele>572</ele>
        <time>2024-06-06T08:51:38+00:00</time>
      </trkpt>
      <trkpt lat="45.54771" lon="6.2833">
        <ele>566</ele>
        <time>2024-06-06T08:51:41+00:00</time>
      </trkpt>
      <trkpt lat="45.54779" lon="6.28337">
        <ele>566</ele>
        <time>2024-06-06T08:51:44+00:00</time>
      </trkpt>
      <trkpt lat="45.5479" lon="6.28345">
        <ele>564</ele>
        <time>2024-06-06T08:51:47+00:00</time>
      </trkpt>
      <trkpt lat="45.54799" lon="6.2835">
        <ele>565</ele>
        <time>2024-06-06T08:51:50+00:00</time>
      </trkpt>
      <trkpt lat="45.54808" lon="6.28354">
        <ele>561</ele>
        <time>2024-06-06T08:51:53+00:00</time>
      </trkpt>
      <trkpt lat="45.54815" lon="6.28357">
        <ele>561</ele>
        <time>2024-06-06T08:51:56+00:00</time>
      </trkpt>
      <trkpt lat="45.54833" lon="6.28364">
        <ele>558</ele>
        <time>2024-06-06T08:51:59+00:00</time>
      </trkpt>
      <trkpt lat="45.54857" lon="6.28373">
        <ele>556</ele>
        <time>2024-06-06T08:52:02+00:00</time>
      </trkpt>
      <trkpt lat="45.54872" lon="6.2838">
        <ele>556</ele>
        <time>2024-06-06T08:52:05+00:00</time>
      </trkpt>
      <trkpt lat="45.54888" lon="6.28386">
        <ele>553</ele>
        <time>2024-06-06T08:52:08+00:00</time>
      </trkpt>
      <trkpt lat="45.54897" lon="6.28394">
        <ele>552</ele>
        <time>2024-06-06T08:52:11+00:00</time>
      </trkpt>
      <trkpt lat="45.54914" lon="6.28404">
        <ele>550</ele>
        <time>2024-06-06T08:52:14+00:00</time>
      </trkpt>
      <trkpt lat="45.54923" lon="6.28408">
        <ele>550</ele>
        <time>2024-06-06T08:52:17+00:00</time>
      </trkpt>
      <trkpt lat="45.54928" lon="6.28411">
        <ele>547</ele>
        <time>2024-06-06T08:52:20+00:00</time>
      </trkpt>
      <trkpt lat="45.54933" lon="6.28411">
        <ele>548</ele>
        <time>2024-06-06T08:52:23+00:00</time>
      </trkpt>
      <trkpt lat="45.54939" lon="6.28409">
        <ele>550</ele>
        <time>2024-06-06T08:52:26+00:00</time>
      </trkpt>
      <trkpt lat="45.54947" lon="6.28404">
        <ele>549</ele>
        <time>2024-06-06T08:52:29+00:00</time>
      </trkpt>
      <trkpt lat="45.54954" lon="6.28401">
        <ele>547</ele>
        <time>2024-06-06T08:52:32+00:00</time>
      </trkpt>
      <trkpt lat="45.54961" lon="6.28403">
        <ele>546</ele>
        <time>2024-06-06T08:52:35+00:00</time>
      </trkpt>
      <trkpt lat="45.54965" lon="6.28409">
        <ele>546</ele>
        <time>2024-06-06T08:52:38+00:00</time>
      </trkpt>
      <trkpt lat="45.54964" lon="6.2841">
        <ele>545</ele>
        <time>2024-06-06T08:52:41+00:00</time>
      </trkpt>
      <trkpt lat="45.54953" lon="6.28424">
        <ele>544</ele>
        <time>2024-06-06T08:52:44+00:00</time>
      </trkpt>
      <trkpt lat="45.54949" lon="6.28427">
        <ele>545</ele>
        <time>2024-06-06T08:52:47+00:00</time>
      </trkpt>
      <trkpt lat="45.54942" lon="6.28431">
        <ele>543</ele>
        <time>2024-06-06T08:52:50+00:00</time>
      </trkpt>
      <trkpt lat="45.54939" lon="6.28433">
        <ele>543</ele>
        <time>2024-06-06T08:52:53+00:00</time>
      </trkpt>
      <trkpt lat="45.54937" lon="6.28437">
        <ele>543</ele>
        <time>2024-06-06T08:52:56+00:00</time>
      </trkpt>
      <trkpt lat="45.54936" lon="6.28441">
        <ele>542</ele>
        <time>2024-06-06T08:52:59+00:00</time>
      </trkpt>
      <trkpt lat="45.54936" lon="6.28446">
        <ele>542</ele>
        <time>2024-06-06T08:53:02+00:00</time>
      </trkpt>
      <trkpt lat="45.54937" lon="6.28451">
        <ele>541</ele>
        <time>2024-06-06T08:53:05+00:00</time>
      </trkpt>
      <trkpt lat="45.5494" lon="6.28456">
        <ele>541</ele>
        <time>2024-06-06T08:53:08+00:00</time>
      </trkpt>
      <trkpt lat="45.54959" lon="6.28458">
        <ele>539</ele>
        <time>2024-06-06T08:53:11+00:00</time>
      </trkpt>
      <trkpt lat="45.54976" lon="6.28459">
        <ele>538</ele>
        <time>2024-06-06T08:53:14+00:00</time>
      </trkpt>
      <trkpt lat="45.5499" lon="6.28459">
        <ele>537</ele>
        <time>2024-06-06T08:53:17+00:00</time>
      </trkpt>
      <trkpt lat="45.54994" lon="6.28458">
        <ele>536</ele>
        <time>2024-06-06T08:53:20+00:00</time>
      </trkpt>
      <trkpt lat="45.55" lon="6.28456">
        <ele>535</ele>
        <time>2024-06-06T08:53:23+00:00</time>
      </trkpt>
      <trkpt lat="45.55004" lon="6.28454">
        <ele>535</ele>
        <time>2024-06-06T08:53:26+00:00</time>
      </trkpt>
      <trkpt lat="45.55008" lon="6.28453">
        <ele>535</ele>
        <time>2024-06-06T08:53:29+00:00</time>
      </trkpt>
      <trkpt lat="45.55012" lon="6.28456">
        <ele>534</ele>
        <time>2024-06-06T08:53:32+00:00</time>
      </trkpt>
      <trkpt lat="45.55013" lon="6.28461">
        <ele>534</ele>
        <time>2024-06-06T08:53:35+00:00</time>
      </trkpt>
      <trkpt lat="45.55011" lon="6.2847">
        <ele>533</ele>
        <time>2024-06-06T08:53:38+00:00</time>
      </trkpt>
      <trkpt lat="45.55" lon="6.28491">
        <ele>532</ele>
        <time>2024-06-06T08:53:41+00:00</time>
      </trkpt>
      <trkpt lat="45.54989" lon="6.28507">
        <ele>532</ele>
        <time>2024-06-06T08:53:44+00:00</time>
      </trkpt>
      <trkpt lat="45.54986" lon="6.28533">
        <ele>527</ele>
        <time>2024-06-06T08:53:47+00:00</time>
      </trkpt>
      <trkpt lat="45.54981" lon="6.28565">
        <ele>519</ele>
        <time>2024-06-06T08:53:50+00:00</time>
      </trkpt>
      <trkpt lat="45.54977" lon="6.28587">
        <ele>517</ele>
        <time>2024-06-06T08:53:53+00:00</time>
      </trkpt>
      <trkpt lat="45.54962" lon="6.28613">
        <ele>506</ele>
        <time>2024-06-06T08:53:56+00:00</time>
      </trkpt>
      <trkpt lat="45.54931" lon="6.28631">
        <ele>501</ele>
        <time>2024-06-06T08:53:59+00:00</time>
      </trkpt>
      <trkpt lat="45.54906" lon="6.28638">
        <ele>501</ele>
        <time>2024-06-06T08:54:02+00:00</time>
      </trkpt>
      <trkpt lat="45.54876" lon="6.28645">
        <ele>493</ele>
        <time>2024-06-06T08:54:05+00:00</time>
      </trkpt>
      <trkpt lat="45.54844" lon="6.28649">
        <ele>488</ele>
        <time>2024-06-06T08:54:08+00:00</time>
      </trkpt>
      <trkpt lat="45.54816" lon="6.28642">
        <ele>481</ele>
        <time>2024-06-06T08:54:11+00:00</time>
      </trkpt>
      <trkpt lat="45.54772" lon="6.28621">
        <ele>469</ele>
        <time>2024-06-06T08:54:14+00:00</time>
      </trkpt>
      <trkpt lat="45.54751" lon="6.28615">
        <ele>464</ele>
        <time>2024-06-06T08:54:17+00:00</time>
      </trkpt>
      <trkpt lat="45.54746" lon="6.28614">
        <ele>464</ele>
        <time>2024-06-06T08:54:20+00:00</time>
      </trkpt>
      <trkpt lat="45.54735" lon="6.28607">
        <ele>464</ele>
        <time>2024-06-06T08:54:23+00:00</time>
      </trkpt>
      <trkpt lat="45.54731" lon="6.2861">
        <ele>462</ele>
        <time>2024-06-06T08:54:26+00:00</time>
      </trkpt>
      <trkpt lat="45.54728" lon="6.2861">
        <ele>460</ele>
        <time>2024-06-06T08:54:29+00:00</time>
      </trkpt>
      <trkpt lat="45.5472" lon="6.28613">
        <ele>460</ele>
        <time>2024-06-06T08:54:32+00:00</time>
      </trkpt>
      <trkpt lat="45.54712" lon="6.28618">
        <ele>459</ele>
        <time>2024-06-06T08:54:35+00:00</time>
      </trkpt>
      <trkpt lat="45.54704" lon="6.28621">
        <ele>455</ele>
        <time>2024-06-06T08:54:38+00:00</time>
      </trkpt>
      <trkpt lat="45.54697" lon="6.28624">
        <ele>454</ele>
        <time>2024-06-06T08:54:41+00:00</time>
      </trkpt>
      <trkpt lat="45.54692" lon="6.2863">
        <ele>454</ele>
        <time>2024-06-06T08:54:44+00:00</time>
      </trkpt>
      <trkpt lat="45.54689" lon="6.28638">
        <ele>453</ele>
        <time>2024-06-06T08:54:47+00:00</time>
      </trkpt>
      <trkpt lat="45.54684" lon="6.28645">
        <ele>451</ele>
        <time>2024-06-06T08:54:50+00:00</time>
      </trkpt>
      <trkpt lat="45.54677" lon="6.28656">
        <ele>449</ele>
        <time>2024-06-06T08:54:53+00:00</time>
      </trkpt>
      <trkpt lat="45.54675" lon="6.28667">
        <ele>447</ele>
        <time>2024-06-06T08:54:56+00:00</time>
      </trkpt>
      <trkpt lat="45.54676" lon="6.28677">
        <ele>446</ele>
        <time>2024-06-06T08:54:59+00:00</time>
      </trkpt>
      <trkpt lat="45.54676" lon="6.28681">
        <ele>443</ele>
        <time>2024-06-06T08:55:02+00:00</time>
      </trkpt>
      <trkpt lat="45.54676" lon="6.28681">
        <ele>443</ele>
        <time>2024-06-06T08:55:05+00:00</time>
      </trkpt>
      <trkpt lat="45.54673" lon="6.28686">
        <ele>443</ele>
        <time>2024-06-06T08:55:08+00:00</time>
      </trkpt>
      <trkpt lat="45.54669" lon="6.28692">
        <ele>443</ele>
        <time>2024-06-06T08:55:11+00:00</time>
      </trkpt>
      <trkpt lat="45.54666" lon="6.28701">
        <ele>441</ele>
        <time>2024-06-06T08:55:14+00:00</time>
      </trkpt>
      <trkpt lat="45.54664" lon="6.28713">
        <ele>439</ele>
        <time>2024-06-06T08:55:17+00:00</time>
      </trkpt>
      <trkpt lat="45.54664" lon="6.2872">
        <ele>437</ele>
        <time>2024-06-06T08:55:20+00:00</time>
      </trkpt>
      <trkpt lat="45.54663" lon="6.28729">
        <ele>437</ele>
        <time>2024-06-06T08:55:23+00:00</time>
      </trkpt>
      <trkpt lat="45.54663" lon="6.28742">
        <ele>436</ele>
        <time>2024-06-06T08:55:26+00:00</time>
      </trkpt>
      <trkpt lat="45.54668" lon="6.2875">
        <ele>431</ele>
        <time>2024-06-06T08:55:29+00:00</time>
      </trkpt>
      <trkpt lat="45.54684" lon="6.28768">
        <ele>434</ele>
        <time>2024-06-06T08:55:32+00:00</time>
      </trkpt>
      <trkpt lat="45.54704" lon="6.28792">
        <ele>428</ele>
        <time>2024-06-06T08:55:35+00:00</time>
      </trkpt>
      <trkpt lat="45.54727" lon="6.28822">
        <ele>423</ele>
        <time>2024-06-06T08:55:38+00:00</time>
      </trkpt>
      <trkpt lat="45.54743" lon="6.28854">
        <ele>418</ele>
        <time>2024-06-06T08:55:41+00:00</time>
      </trkpt>
      <trkpt lat="45.5476" lon="6.28884">
        <ele>406</ele>
        <time>2024-06-06T08:55:44+00:00</time>
      </trkpt>
      <trkpt lat="45.54779" lon="6.28909">
        <ele>403</ele>
        <time>2024-06-06T08:55:47+00:00</time>
      </trkpt>
      <trkpt lat="45.54798" lon="6.28937">
        <ele>399</ele>
        <time>2024-06-06T08:55:50+00:00</time>
      </trkpt>
      <trkpt lat="45.54815" lon="6.28948">
        <ele>398</ele>
        <time>2024-06-06T08:55:53+00:00</time>
      </trkpt>
      <trkpt lat="45.54825" lon="6.28958">
        <ele>396</ele>
        <time>2024-06-06T08:55:56+00:00</time>
      </trkpt>
      <trkpt lat="45.54841" lon="6.28962">
        <ele>388</ele>
        <time>2024-06-06T08:55:59+00:00</time>
      </trkpt>
      <trkpt lat="45.54848" lon="6.2896">
        <ele>394</ele>
        <time>2024-06-06T08:56:02+00:00</time>
      </trkpt>
      <trkpt lat="45.54856" lon="6.28947">
        <ele>392</ele>
        <time>2024-06-06T08:56:05+00:00</time>
      </trkpt>
      <trkpt lat="45.5486" lon="6.28936">
        <ele>383</ele>
        <time>2024-06-06T08:56:08+00:00</time>
      </trkpt>
      <trkpt lat="45.54863" lon="6.28934">
        <ele>383</ele>
        <time>2024-06-06T08:56:11+00:00</time>
      </trkpt>
      <trkpt lat="45.54873" lon="6.28937">
        <ele>381</ele>
        <time>2024-06-06T08:56:14+00:00</time>
      </trkpt>
      <trkpt lat="45.54878" lon="6.28943">
        <ele>378</ele>
        <time>2024-06-06T08:56:17+00:00</time>
      </trkpt>
      <trkpt lat="45.54879" lon="6.28948">
        <ele>378</ele>
        <time>2024-06-06T08:56:20+00:00</time>
      </trkpt>
      <trkpt lat="45.54874" lon="6.28958">
        <ele>376</ele>
        <time>2024-06-06T08:56:23+00:00</time>
      </trkpt>
      <trkpt lat="45.54866" lon="6.28976">
        <ele>375</ele>
        <time>2024-06-06T08:56:26+00:00</time>
      </trkpt>
      <trkpt lat="45.54864" lon="6.28979">
        <ele>375</ele>
        <time>2024-06-06T08:56:29+00:00</time>
      </trkpt>
      <trkpt lat="45.54848" lon="6.29007">
        <ele>365</ele>
        <time>2024-06-06T08:56:32+00:00</time>
      </trkpt>
      <trkpt lat="45.54833" lon="6.29015">
        <ele>360</ele>
        <time>2024-06-06T08:56:35+00:00</time>
      </trkpt>
      <trkpt lat="45.54831" lon="6.29016">
        <ele>360</ele>
        <time>2024-06-06T08:56:38+00:00</time>
      </trkpt>
      <trkpt lat="45.54825" lon="6.29029">
        <ele>357</ele>
        <time>2024-06-06T08:56:41+00:00</time>
      </trkpt>
      <trkpt lat="45.5482" lon="6.2903">
        <ele>354</ele>
        <time>2024-06-06T08:56:44+00:00</time>
      </trkpt>
      <trkpt lat="45.54814" lon="6.29033">
        <ele>354</ele>
        <time>2024-06-06T08:56:47+00:00</time>
      </trkpt>
      <trkpt lat="45.54809" lon="6.29035">
        <ele>354</ele>
        <time>2024-06-06T08:56:50+00:00</time>
      </trkpt>
      <trkpt lat="45.54803" lon="6.29038">
        <ele>354</ele>
        <time>2024-06-06T08:56:53+00:00</time>
      </trkpt>
      <trkpt lat="45.54795" lon="6.29041">
        <ele>351</ele>
        <time>2024-06-06T08:56:56+00:00</time>
      </trkpt>
      <trkpt lat="45.54788" lon="6.29043">
        <ele>350</ele>
        <time>2024-06-06T08:56:59+00:00</time>
      </trkpt>
      <trkpt lat="45.54777" lon="6.29045">
        <ele>350</ele>
        <time>2024-06-06T08:57:02+00:00</time>
      </trkpt>
      <trkpt lat="45.54766" lon="6.29045">
        <ele>349</ele>
        <time>2024-06-06T08:57:05+00:00</time>
      </trkpt>
      <trkpt lat="45.54756" lon="6.29044">
        <ele>347</ele>
        <time>2024-06-06T08:57:08+00:00</time>
      </trkpt>
      <trkpt lat="45.54746" lon="6.29042">
        <ele>345</ele>
        <time>2024-06-06T08:57:11+00:00</time>
      </trkpt>
      <trkpt lat="45.54738" lon="6.29039">
        <ele>346</ele>
        <time>2024-06-06T08:57:14+00:00</time>
      </trkpt>
      <trkpt lat="45.5473" lon="6.29036">
        <ele>343</ele>
        <time>2024-06-06T08:57:17+00:00</time>
      </trkpt>
      <trkpt lat="45.54723" lon="6.29032">
        <ele>343</ele>
        <time>2024-06-06T08:57:20+00:00</time>
      </trkpt>
      <trkpt lat="45.54719" lon="6.29032">
        <ele>343</ele>
        <time>2024-06-06T08:57:23+00:00</time>
      </trkpt>
      <trkpt lat="45.54714" lon="6.29038">
        <ele>343</ele>
        <time>2024-06-06T08:57:26+00:00</time>
      </trkpt>
      <trkpt lat="45.54713" lon="6.29041">
        <ele>342</ele>
        <time>2024-06-06T08:57:29+00:00</time>
      </trkpt>
      <trkpt lat="45.54713" lon="6.29041">
        <ele>342</ele>
        <time>2024-06-06T08:57:32+00:00</time>
      </trkpt>
      <trkpt lat="45.54713" lon="6.29044">
        <ele>342</ele>
        <time>2024-06-06T08:57:35+00:00</time>
      </trkpt>
      <trkpt lat="45.54714" lon="6.29049">
        <ele>342</ele>
        <time>2024-06-06T08:57:38+00:00</time>
      </trkpt>
      <trkpt lat="45.54716" lon="6.29053">
        <ele>341</ele>
        <time>2024-06-06T08:57:41+00:00</time>
      </trkpt>
      <trkpt lat="45.5472" lon="6.29057">
        <ele>341</ele>
        <time>2024-06-06T08:57:44+00:00</time>
      </trkpt>
      <trkpt lat="45.54727" lon="6.29062">
        <ele>340</ele>
        <time>2024-06-06T08:57:47+00:00</time>
      </trkpt>
      <trkpt lat="45.54735" lon="6.29066">
        <ele>340</ele>
        <time>2024-06-06T08:57:50+00:00</time>
      </trkpt>
      <trkpt lat="45.54753" lon="6.29079">
        <ele>339</ele>
        <time>2024-06-06T08:57:53+00:00</time>
      </trkpt>
      <trkpt lat="45.54759" lon="6.29082">
        <ele>338</ele>
        <time>2024-06-06T08:57:56+00:00</time>
      </trkpt>
      <trkpt lat="45.54763" lon="6.29087">
        <ele>337</ele>
        <time>2024-06-06T08:57:59+00:00</time>
      </trkpt>
      <trkpt lat="45.54765" lon="6.29096">
        <ele>336</ele>
        <time>2024-06-06T08:58:02+00:00</time>
      </trkpt>
      <trkpt lat="45.54762" lon="6.29109">
        <ele>335</ele>
        <time>2024-06-06T08:58:05+00:00</time>
      </trkpt>
      <trkpt lat="45.54757" lon="6.29123">
        <ele>334</ele>
        <time>2024-06-06T08:58:08+00:00</time>
      </trkpt>
      <trkpt lat="45.54752" lon="6.29142">
        <ele>333</ele>
        <time>2024-06-06T08:58:11+00:00</time>
      </trkpt>
      <trkpt lat="45.54747" lon="6.29156">
        <ele>333</ele>
        <time>2024-06-06T08:58:14+00:00</time>
      </trkpt>
      <trkpt lat="45.54744" lon="6.29162">
        <ele>332</ele>
        <time>2024-06-06T08:58:17+00:00</time>
      </trkpt>
      <trkpt lat="45.54741" lon="6.29166">
        <ele>332</ele>
        <time>2024-06-06T08:58:20+00:00</time>
      </trkpt>
      <trkpt lat="45.54737" lon="6.2917">
        <ele>332</ele>
        <time>2024-06-06T08:58:23+00:00</time>
      </trkpt>
      <trkpt lat="45.54734" lon="6.29173">
        <ele>332</ele>
        <time>2024-06-06T08:58:26+00:00</time>
      </trkpt>
      <trkpt lat="45.54722" lon="6.29183">
        <ele>331</ele>
        <time>2024-06-06T08:58:29+00:00</time>
      </trkpt>
      <trkpt lat="45.5471" lon="6.2919">
        <ele>330</ele>
        <time>2024-06-06T08:58:32+00:00</time>
      </trkpt>
      <trkpt lat="45.54698" lon="6.29195">
        <ele>330</ele>
        <time>2024-06-06T08:58:35+00:00</time>
      </trkpt>
      <trkpt lat="45.54687" lon="6.29199">
        <ele>330</ele>
        <time>2024-06-06T08:58:38+00:00</time>
      </trkpt>
      <trkpt lat="45.54679" lon="6.29204">
        <ele>329</ele>
        <time>2024-06-06T08:58:41+00:00</time>
      </trkpt>
      <trkpt lat="45.54671" lon="6.2921">
        <ele>329</ele>
        <time>2024-06-06T08:58:44+00:00</time>
      </trkpt>
      <trkpt lat="45.54663" lon="6.29219">
        <ele>329</ele>
        <time>2024-06-06T08:58:47+00:00</time>
      </trkpt>
      <trkpt lat="45.54655" lon="6.29234">
        <ele>329</ele>
        <time>2024-06-06T08:58:50+00:00</time>
      </trkpt>
      <trkpt lat="45.54645" lon="6.29259">
        <ele>329</ele>
        <time>2024-06-06T08:58:53+00:00</time>
      </trkpt>
      <trkpt lat="45.54635" lon="6.29281">
        <ele>327</ele>
        <time>2024-06-06T08:58:56+00:00</time>
      </trkpt>
      <trkpt lat="45.54625" lon="6.29299">
        <ele>328</ele>
        <time>2024-06-06T08:58:59+00:00</time>
      </trkpt>
      <trkpt lat="45.54612" lon="6.29316">
        <ele>327</ele>
        <time>2024-06-06T08:59:02+00:00</time>
      </trkpt>
      <trkpt lat="45.54599" lon="6.29337">
        <ele>328</ele>
        <time>2024-06-06T08:59:05+00:00</time>
      </trkpt>
      <trkpt lat="45.54594" lon="6.29347">
        <ele>328</ele>
        <time>2024-06-06T08:59:08+00:00</time>
      </trkpt>
      <trkpt lat="45.5459" lon="6.29362">
        <ele>328</ele>
        <time>2024-06-06T08:59:11+00:00</time>
      </trkpt>
      <trkpt lat="45.54587" lon="6.29382">
        <ele>328</ele>
        <time>2024-06-06T08:59:14+00:00</time>
      </trkpt>
      <trkpt lat="45.54585" lon="6.29392">
        <ele>324</ele>
        <time>2024-06-06T08:59:17+00:00</time>
      </trkpt>
      <trkpt lat="45.54584" lon="6.29402">
        <ele>322</ele>
        <time>2024-06-06T08:59:20+00:00</time>
      </trkpt>
      <trkpt lat="45.54584" lon="6.29402">
        <ele>322</ele>
        <time>2024-06-06T08:59:23+00:00</time>
      </trkpt>
      <trkpt lat="45.54584" lon="6.29404">
        <ele>322</ele>
        <time>2024-06-06T08:59:26+00:00</time>
      </trkpt>
      <trkpt lat="45.54582" lon="6.29418">
        <ele>322</ele>
        <time>2024-06-06T08:59:29+00:00</time>
      </trkpt>
      <trkpt lat="45.54581" lon="6.29428">
        <ele>324</ele>
        <time>2024-06-06T08:59:32+00:00</time>
      </trkpt>
      <trkpt lat="45.5458" lon="6.29437">
        <ele>321</ele>
        <time>2024-06-06T08:59:35+00:00</time>
      </trkpt>
      <trkpt lat="45.54579" lon="6.2944">
        <ele>321</ele>
        <time>2024-06-06T08:59:38+00:00</time>
      </trkpt>
      <trkpt lat="45.54573" lon="6.29488">
        <ele>323</ele>
        <time>2024-06-06T08:59:41+00:00</time>
      </trkpt>
      <trkpt lat="45.54568" lon="6.2953">
        <ele>322</ele>
        <time>2024-06-06T08:59:44+00:00</time>
      </trkpt>
      <trkpt lat="45.54564" lon="6.29565">
        <ele>320</ele>
        <time>2024-06-06T08:59:47+00:00</time>
      </trkpt>
      <trkpt lat="45.54558" lon="6.2963">
        <ele>320</ele>
        <time>2024-06-06T08:59:50+00:00</time>
      </trkpt>
      <trkpt lat="45.54544" lon="6.29677">
        <ele>319</ele>
        <time>2024-06-06T08:59:53+00:00</time>
      </trkpt>
      <trkpt lat="45.54534" lon="6.29701">
        <ele>319</ele>
        <time>2024-06-06T08:59:56+00:00</time>
      </trkpt>
      <trkpt lat="45.54522" lon="6.29731">
        <ele>319</ele>
        <time>2024-06-06T08:59:59+00:00</time>
      </trkpt>
      <trkpt lat="45.54509" lon="6.29761">
        <ele>319</ele>
        <time>2024-06-06T09:00:02+00:00</time>
      </trkpt>
      <trkpt lat="45.54506" lon="6.29763">
        <ele>319</ele>
        <time>2024-06-06T09:00:05+00:00</time>
      </trkpt>
      <trkpt lat="45.54505" lon="6.29763">
        <ele>319</ele>
        <time>2024-06-06T09:00:08+00:00</time>
      </trkpt>
      <trkpt lat="45.54499" lon="6.29766">
        <ele>318</ele>
        <time>2024-06-06T09:00:11+00:00</time>
      </trkpt>
      <trkpt lat="45.54474" lon="6.2979">
        <ele>318</ele>
        <time>2024-06-06T09:00:14+00:00</time>
      </trkpt>
      <trkpt lat="45.54469" lon="6.29795">
        <ele>318</ele>
        <time>2024-06-06T09:00:17+00:00</time>
      </trkpt>
      <trkpt lat="45.54459" lon="6.29806">
        <ele>318</ele>
        <time>2024-06-06T09:00:20+00:00</time>
      </trkpt>
      <trkpt lat="45.54437" lon="6.29826">
        <ele>318</ele>
        <time>2024-06-06T09:00:23+00:00</time>
      </trkpt>
      <trkpt lat="45.54409" lon="6.29852">
        <ele>318</ele>
        <time>2024-06-06T09:00:26+00:00</time>
      </trkpt>
      <trkpt lat="45.54392" lon="6.29865">
        <ele>318</ele>
        <time>2024-06-06T09:00:29+00:00</time>
      </trkpt>
      <trkpt lat="45.54359" lon="6.29896">
        <ele>318</ele>
        <time>2024-06-06T09:00:32+00:00</time>
      </trkpt>
      <trkpt lat="45.54341" lon="6.29919">
        <ele>318</ele>
        <time>2024-06-06T09:00:35+00:00</time>
      </trkpt>
      <trkpt lat="45.54322" lon="6.29942">
        <ele>318</ele>
        <time>2024-06-06T09:00:38+00:00</time>
      </trkpt>
      <trkpt lat="45.54322" lon="6.29942">
        <ele>318</ele>
        <time>2024-06-06T09:00:41+00:00</time>
      </trkpt>
      <trkpt lat="45.54302" lon="6.2997">
        <ele>318</ele>
        <time>2024-06-06T09:00:44+00:00</time>
      </trkpt>
      <trkpt lat="45.54275" lon="6.3001">
        <ele>319</ele>
        <time>2024-06-06T09:00:47+00:00</time>
      </trkpt>
      <trkpt lat="45.54244" lon="6.30056">
        <ele>319</ele>
        <time>2024-06-06T09:00:50+00:00</time>
      </trkpt>
      <trkpt lat="45.54238" lon="6.30067">
        <ele>319</ele>
        <time>2024-06-06T09:00:53+00:00</time>
      </trkpt>
      <trkpt lat="45.54241" lon="6.30071">
        <ele>319</ele>
        <time>2024-06-06T09:00:56+00:00</time>
      </trkpt>
      <trkpt lat="45.54242" lon="6.30072">
        <ele>319</ele>
        <time>2024-06-06T09:00:59+00:00</time>
      </trkpt>
      <trkpt lat="45.54261" lon="6.30095">
        <ele>319</ele>
        <time>2024-06-06T09:01:02+00:00</time>
      </trkpt>
      <trkpt lat="45.54264" lon="6.30099">
        <ele>319</ele>
        <time>2024-06-06T09:01:05+00:00</time>
      </trkpt>
      <trkpt lat="45.5428" lon="6.30119">
        <ele>319</ele>
        <time>2024-06-06T09:01:08+00:00</time>
      </trkpt>
      <trkpt lat="45.54287" lon="6.30127">
        <ele>319</ele>
        <time>2024-06-06T09:01:11+00:00</time>
      </trkpt>
      <trkpt lat="45.543" lon="6.30141">
        <ele>319</ele>
        <time>2024-06-06T09:01:14+00:00</time>
      </trkpt>
      <trkpt lat="45.54304" lon="6.30145">
        <ele>319</ele>
        <time>2024-06-06T09:01:17+00:00</time>
      </trkpt>
      <trkpt lat="45.54307" lon="6.30149">
        <ele>319</ele>
        <time>2024-06-06T09:01:20+00:00</time>
      </trkpt>
      <trkpt lat="45.54312" lon="6.30156">
        <ele>319</ele>
        <time>2024-06-06T09:01:23+00:00</time>
      </trkpt>
      <trkpt lat="45.54326" lon="6.30173">
        <ele>319</ele>
        <time>2024-06-06T09:01:26+00:00</time>
      </trkpt>
      <trkpt lat="45.54341" lon="6.30192">
        <ele>319</ele>
        <time>2024-06-06T09:01:29+00:00</time>
      </trkpt>
      <trkpt lat="45.54342" lon="6.30215">
        <ele>320</ele>
        <time>2024-06-06T09:01:32+00:00</time>
      </trkpt>
      <trkpt lat="45.54366" lon="6.30236">
        <ele>320</ele>
        <time>2024-06-06T09:01:35+00:00</time>
      </trkpt>
      <trkpt lat="45.54389" lon="6.30249">
        <ele>320</ele>
        <time>2024-06-06T09:01:38+00:00</time>
      </trkpt>
      <trkpt lat="45.54413" lon="6.30262">
        <ele>320</ele>
        <time>2024-06-06T09:01:41+00:00</time>
      </trkpt>
      <trkpt lat="45.54447" lon="6.30269">
        <ele>320</ele>
        <time>2024-06-06T09:01:44+00:00</time>
      </trkpt>
      <trkpt lat="45.54463" lon="6.30273">
        <ele>320</ele>
        <time>2024-06-06T09:01:47+00:00</time>
      </trkpt>
      <trkpt lat="45.5447" lon="6.30281">
        <ele>320</ele>
        <time>2024-06-06T09:01:50+00:00</time>
      </trkpt>
      <trkpt lat="45.54486" lon="6.30275">
        <ele>320</ele>
        <time>2024-06-06T09:01:53+00:00</time>
      </trkpt>
      <trkpt lat="45.54509" lon="6.30267">
        <ele>319</ele>
        <time>2024-06-06T09:01:56+00:00</time>
      </trkpt>
      <trkpt lat="45.54522" lon="6.30259">
        <ele>319</ele>
        <time>2024-06-06T09:01:59+00:00</time>
      </trkpt>
      <trkpt lat="45.54534" lon="6.30245">
        <ele>319</ele>
        <time>2024-06-06T09:02:02+00:00</time>
      </trkpt>
      <trkpt lat="45.54542" lon="6.30233">
        <ele>319</ele>
        <time>2024-06-06T09:02:05+00:00</time>
      </trkpt>
    </trkseg>
  </trk>
</gpx>